<?xml version='1.0' encoding='UTF-8'?><gpx version="1.1" creator="JPX - https://github.com/jenetics/jpx" xmlns="http://www.topografix.com/GPX/1/1"><trk><trkseg><trkpt lat="39.22335935061334" lon="9.195865960986744"><ele>1.9999999999999998</ele><time>2026-04-09T07:54:51Z</time></trkpt><trkpt lat="39.22342426613882" lon="9.195905858491997"><ele>2.0</ele><time>2026-04-09T07:54:54Z</time></trkpt><trkpt lat="39.22348930565383" lon="9.19594611102206"><ele>2.0</ele><time>2026-04-09T07:54:56Z</time></trkpt><trkpt lat="39.223556559607374" lon="9.195909271034918"><ele>2.0</ele><time>2026-04-09T07:55:55Z</time></trkpt><trkpt lat="39.22363271528449" lon="9.195845703896005"><ele>1.9999999999999998</ele><time>2026-04-09T07:56:00Z</time></trkpt><trkpt lat="39.22373948943838" lon="9.19588970510225"><ele>2.0</ele><time>2026-04-09T07:56:02Z</time></trkpt><trkpt lat="39.22380413654593" lon="9.19595587388695"><ele>1.9999999999999998</ele><time>2026-04-09T07:56:03Z</time></trkpt><trkpt lat="39.22384017835539" lon="9.196034770109137"><ele>2.0</ele><time>2026-04-09T07:56:04Z</time></trkpt><trkpt lat="39.223869713207684" lon="9.196114839868418"><ele>2.0</ele><time>2026-04-09T07:56:05Z</time></trkpt><trkpt lat="39.223891249331665" lon="9.196191924943014"><ele>2.0</ele><time>2026-04-09T07:56:06Z</time></trkpt><trkpt lat="39.22392852033388" lon="9.196278437819533"><ele>1.9999999999999998</ele><time>2026-04-09T07:56:07Z</time></trkpt><trkpt lat="39.22395839963776" lon="9.196388031067785"><ele>2.0</ele><time>2026-04-09T07:56:08Z</time></trkpt><trkpt lat="39.22400602772382" lon="9.19651008984107"><ele>2.0</ele><time>2026-04-09T07:56:09Z</time></trkpt><trkpt lat="39.22405232649057" lon="9.196646226991941"><ele>2.0</ele><time>2026-04-09T07:56:10Z</time></trkpt><trkpt lat="39.224099349155736" lon="9.19678379892847"><ele>2.0</ele><time>2026-04-09T07:56:11Z</time></trkpt><trkpt lat="39.22414858838078" lon="9.196933631557917"><ele>2.0</ele><time>2026-04-09T07:56:12Z</time></trkpt><trkpt lat="39.22419939653868" lon="9.19707810834395"><ele>2.0</ele><time>2026-04-09T07:56:13Z</time></trkpt><trkpt lat="39.22424820887948" lon="9.197215553734829"><ele>2.0</ele><time>2026-04-09T07:56:14Z</time></trkpt><trkpt lat="39.224300435559904" lon="9.197356923166778"><ele>2.0</ele><time>2026-04-09T07:56:15Z</time></trkpt><trkpt lat="39.22434946961925" lon="9.197501898136721"><ele>2.0</ele><time>2026-04-09T07:56:16Z</time></trkpt><trkpt lat="39.22440102972441" lon="9.197643449315198"><ele>1.75</ele><time>2026-04-09T07:56:17Z</time></trkpt><trkpt lat="39.22444978454266" lon="9.197790987653422"><ele>1.5</ele><time>2026-04-09T07:56:18Z</time></trkpt><trkpt lat="39.22449936893387" lon="9.197935166533147"><ele>1.25</ele><time>2026-04-09T07:56:19Z</time></trkpt><trkpt lat="39.224544115208836" lon="9.198080220954886"><ele>1.0</ele><time>2026-04-09T07:56:20Z</time></trkpt><trkpt lat="39.224590911652975" lon="9.198224205335135"><ele>1.0</ele><time>2026-04-09T07:56:21Z</time></trkpt><trkpt lat="39.22463853160239" lon="9.198365787703363"><ele>1.0</ele><time>2026-04-09T07:56:22Z</time></trkpt><trkpt lat="39.22468332379152" lon="9.198506428018076"><ele>1.0</ele><time>2026-04-09T07:56:23Z</time></trkpt><trkpt lat="39.22472980705476" lon="9.198648340906367"><ele>1.0</ele><time>2026-04-09T07:56:24Z</time></trkpt><trkpt lat="39.22477607880358" lon="9.198791076617622"><ele>0.75</ele><time>2026-04-09T07:56:25Z</time></trkpt><trkpt lat="39.22482116882777" lon="9.19893502282587"><ele>0.5</ele><time>2026-04-09T07:56:26Z</time></trkpt><trkpt lat="39.224868001009895" lon="9.199083923209185"><ele>0.25</ele><time>2026-04-09T07:56:27Z</time></trkpt><trkpt lat="39.22491651285767" lon="9.199231990090086"><ele>0.0</ele><time>2026-04-09T07:56:28Z</time></trkpt><trkpt lat="39.22496654218173" lon="9.199384584286976"><ele>0.75</ele><time>2026-04-09T07:56:29Z</time></trkpt><trkpt lat="39.22502372783614" lon="9.199533327895107"><ele>1.5</ele><time>2026-04-09T07:56:30Z</time></trkpt><trkpt lat="39.22507186316076" lon="9.199693940020541"><ele>2.25</ele><time>2026-04-09T07:56:31Z</time></trkpt><trkpt lat="39.22512377529646" lon="9.199849646347701"><ele>3.0</ele><time>2026-04-09T07:56:32Z</time></trkpt><trkpt lat="39.22517393444855" lon="9.200005055923487"><ele>3.0</ele><time>2026-04-09T07:56:33Z</time></trkpt><trkpt lat="39.22523321155905" lon="9.200158449914884"><ele>3.0</ele><time>2026-04-09T07:56:34Z</time></trkpt><trkpt lat="39.225282858631296" lon="9.200312534435476"><ele>3.0</ele><time>2026-04-09T07:56:35Z</time></trkpt><trkpt lat="39.22533145373009" lon="9.200466144716478"><ele>3.0</ele><time>2026-04-09T07:56:36Z</time></trkpt><trkpt lat="39.22538488794387" lon="9.200621021813044"><ele>3.0</ele><time>2026-04-09T07:56:37Z</time></trkpt><trkpt lat="39.22543804570138" lon="9.200773307290698"><ele>3.0</ele><time>2026-04-09T07:56:38Z</time></trkpt><trkpt lat="39.22549021849146" lon="9.200929475140411"><ele>3.0</ele><time>2026-04-09T07:56:39Z</time></trkpt><trkpt lat="39.225540876390056" lon="9.201083995414903"><ele>3.0</ele><time>2026-04-09T07:56:40Z</time></trkpt><trkpt lat="39.225587081531756" lon="9.201242416729567"><ele>3.0</ele><time>2026-04-09T07:56:41Z</time></trkpt><trkpt lat="39.225640296537264" lon="9.201400737273326"><ele>3.0</ele><time>2026-04-09T07:56:42Z</time></trkpt><trkpt lat="39.2256926938746" lon="9.201556533342378"><ele>3.0</ele><time>2026-04-09T07:56:43Z</time></trkpt><trkpt lat="39.225746273404475" lon="9.201713445249501"><ele>3.0</ele><time>2026-04-09T07:56:44Z</time></trkpt><trkpt lat="39.22579797336763" lon="9.201874102076431"><ele>2.75</ele><time>2026-04-09T07:56:45Z</time></trkpt><trkpt lat="39.225852757203036" lon="9.202029772762705"><ele>2.5</ele><time>2026-04-09T07:56:46Z</time></trkpt><trkpt lat="39.22590411612349" lon="9.202192263414917"><ele>2.25</ele><time>2026-04-09T07:56:47Z</time></trkpt><trkpt lat="39.22595290244297" lon="9.202354613454236"><ele>2.0</ele><time>2026-04-09T07:56:48Z</time></trkpt><trkpt lat="39.226016196073644" lon="9.202514572110475"><ele>2.0</ele><time>2026-04-09T07:56:49Z</time></trkpt><trkpt lat="39.22608621743776" lon="9.202717536020304"><ele>2.0</ele><time>2026-04-09T07:56:50Z</time></trkpt><trkpt lat="39.22615862538335" lon="9.202935984545624"><ele>2.0</ele><time>2026-04-09T07:56:51Z</time></trkpt><trkpt lat="39.2262424362494" lon="9.203163566332128"><ele>2.0</ele><time>2026-04-09T07:56:52Z</time></trkpt><trkpt lat="39.22632094247378" lon="9.203386170820172"><ele>2.0</ele><time>2026-04-09T07:56:53Z</time></trkpt><trkpt lat="39.226386235444586" lon="9.203587974621364"><ele>2.0</ele><time>2026-04-09T07:56:54Z</time></trkpt><trkpt lat="39.22645014230008" lon="9.203778751017975"><ele>1.75</ele><time>2026-04-09T07:56:55Z</time></trkpt><trkpt lat="39.226502039252594" lon="9.203961275379886"><ele>1.5</ele><time>2026-04-09T07:56:56Z</time></trkpt><trkpt lat="39.22655977229335" lon="9.204127923236133"><ele>1.25</ele><time>2026-04-09T07:56:57Z</time></trkpt><trkpt lat="39.22661357082037" lon="9.204285640960153"><ele>1.0</ele><time>2026-04-09T07:56:58Z</time></trkpt><trkpt lat="39.22666212163742" lon="9.204444093927027"><ele>1.0</ele><time>2026-04-09T07:56:59Z</time></trkpt><trkpt lat="39.22671045148412" lon="9.204609222685349"><ele>1.0</ele><time>2026-04-09T07:57:00Z</time></trkpt><trkpt lat="39.22675685958236" lon="9.204783475311546"><ele>1.0</ele><time>2026-04-09T07:57:01Z</time></trkpt><trkpt lat="39.226802350487645" lon="9.204959651042657"><ele>1.0</ele><time>2026-04-09T07:57:02Z</time></trkpt><trkpt lat="39.226834720697155" lon="9.205144306648585"><ele>1.25</ele><time>2026-04-09T07:57:03Z</time></trkpt><trkpt lat="39.22685581946677" lon="9.205328333974343"><ele>1.5</ele><time>2026-04-09T07:57:04Z</time></trkpt><trkpt lat="39.22688485506336" lon="9.205502083551513"><ele>1.75</ele><time>2026-04-09T07:57:05Z</time></trkpt><trkpt lat="39.22693911382896" lon="9.205672447237022"><ele>2.0</ele><time>2026-04-09T07:57:06Z</time></trkpt><trkpt lat="39.22701989889494" lon="9.205834314108749"><ele>3.333333333333333</ele><time>2026-04-09T07:57:07Z</time></trkpt><trkpt lat="39.227097537160695" lon="9.205996535166388"><ele>4.666666666666667</ele><time>2026-04-09T07:57:08Z</time></trkpt><trkpt lat="39.227163345258326" lon="9.206174503846198"><ele>6.0</ele><time>2026-04-09T07:57:09Z</time></trkpt><trkpt lat="39.227223577564395" lon="9.206369846184746"><ele>6.333333333333334</ele><time>2026-04-09T07:57:10Z</time></trkpt><trkpt lat="39.22728683213048" lon="9.206582273968491"><ele>6.666666666666667</ele><time>2026-04-09T07:57:11Z</time></trkpt><trkpt lat="39.22735167296807" lon="9.206804749656508"><ele>7.0</ele><time>2026-04-09T07:57:12Z</time></trkpt><trkpt lat="39.2274149055435" lon="9.207039758548596"><ele>5.0</ele><time>2026-04-09T07:57:13Z</time></trkpt><trkpt lat="39.227478288737046" lon="9.207274262566"><ele>3.0</ele><time>2026-04-09T07:57:14Z</time></trkpt><trkpt lat="39.22753839367442" lon="9.207494022943"><ele>1.0</ele><time>2026-04-09T07:57:15Z</time></trkpt><trkpt lat="39.227601299435086" lon="9.207717653242227"><ele>1.0</ele><time>2026-04-09T07:57:16Z</time></trkpt><trkpt lat="39.22767155470917" lon="9.207968961650366"><ele>1.0</ele><time>2026-04-09T07:57:17Z</time></trkpt><trkpt lat="39.22775132218312" lon="9.208249590030263"><ele>1.0</ele><time>2026-04-09T07:57:18Z</time></trkpt><trkpt lat="39.22782059711049" lon="9.2085126209907"><ele>1.0</ele><time>2026-04-09T07:57:19Z</time></trkpt><trkpt lat="39.227876973704745" lon="9.208753767474894"><ele>1.0</ele><time>2026-04-09T07:57:20Z</time></trkpt><trkpt lat="39.22793090907146" lon="9.208976569581246"><ele>1.0</ele><time>2026-04-09T07:57:21Z</time></trkpt><trkpt lat="39.22798179365929" lon="9.209177439224266"><ele>1.0</ele><time>2026-04-09T07:57:22Z</time></trkpt><trkpt lat="39.22803758150043" lon="9.209366846113957"><ele>1.0</ele><time>2026-04-09T07:57:23Z</time></trkpt><trkpt lat="39.22808591966877" lon="9.20954047149861"><ele>1.0</ele><time>2026-04-09T07:57:24Z</time></trkpt><trkpt lat="39.228128178751454" lon="9.209708234556317"><ele>1.0</ele><time>2026-04-09T07:57:25Z</time></trkpt><trkpt lat="39.22816689003237" lon="9.209863651465476"><ele>0.5</ele><time>2026-04-09T07:57:26Z</time></trkpt><trkpt lat="39.228203807129645" lon="9.210029428925022"><ele>0.0</ele><time>2026-04-09T07:57:27Z</time></trkpt><trkpt lat="39.228233627386096" lon="9.210205732755046"><ele>-0.5</ele><time>2026-04-09T07:57:28Z</time></trkpt><trkpt lat="39.228255569765984" lon="9.210380027012196"><ele>-1.0</ele><time>2026-04-09T07:57:29Z</time></trkpt><trkpt lat="39.228277780660385" lon="9.210556933333033"><ele>-0.75</ele><time>2026-04-09T07:57:30Z</time></trkpt><trkpt lat="39.22828279857548" lon="9.210739652036407"><ele>-0.5</ele><time>2026-04-09T07:57:31Z</time></trkpt><trkpt lat="39.22828603441312" lon="9.210918575842575"><ele>-0.25</ele><time>2026-04-09T07:57:32Z</time></trkpt><trkpt lat="39.22827906063111" lon="9.21109665259594"><ele>0.0</ele><time>2026-04-09T07:57:33Z</time></trkpt><trkpt lat="39.22826391032918" lon="9.211279835929977"><ele>0.0</ele><time>2026-04-09T07:57:34Z</time></trkpt><trkpt lat="39.22824385745735" lon="9.211459672731575"><ele>0.0</ele><time>2026-04-09T07:57:35Z</time></trkpt><trkpt lat="39.228219274022635" lon="9.211642845105512"><ele>0.0</ele><time>2026-04-09T07:57:36Z</time></trkpt><trkpt lat="39.22819937129736" lon="9.211823221025107"><ele>0.0</ele><time>2026-04-09T07:57:36.999Z</time></trkpt><trkpt lat="39.22818359272958" lon="9.212000649009958"><ele>0.0</ele><time>2026-04-09T07:57:37.999Z</time></trkpt><trkpt lat="39.22816874796284" lon="9.21216822169556"><ele>0.0</ele><time>2026-04-09T07:57:38.999Z</time></trkpt><trkpt lat="39.22815810438638" lon="9.212332042865613"><ele>0.0</ele><time>2026-04-09T07:57:39.999Z</time></trkpt><trkpt lat="39.228155988434864" lon="9.21250018354284"><ele>0.0</ele><time>2026-04-09T07:57:40.999Z</time></trkpt><trkpt lat="39.22817140001077" lon="9.212679548415155"><ele>0.0</ele><time>2026-04-09T07:57:41.999Z</time></trkpt><trkpt lat="39.22819848344841" lon="9.212869485422061"><ele>0.0</ele><time>2026-04-09T07:57:42.999Z</time></trkpt><trkpt lat="39.2282336456519" lon="9.213075613268257"><ele>0.0</ele><time>2026-04-09T07:57:43.999Z</time></trkpt><trkpt lat="39.22827660089156" lon="9.213295485306435"><ele>0.6666666666666666</ele><time>2026-04-09T07:57:44.999Z</time></trkpt><trkpt lat="39.228319974132624" lon="9.213515733406236"><ele>1.3333333333333333</ele><time>2026-04-09T07:57:45.999Z</time></trkpt><trkpt lat="39.228357792170605" lon="9.213731414663481"><ele>2.0</ele><time>2026-04-09T07:57:46.999Z</time></trkpt><trkpt lat="39.22839539782359" lon="9.21393588275933"><ele>1.0</ele><time>2026-04-09T07:57:47.999Z</time></trkpt><trkpt lat="39.22843563936134" lon="9.214132990915664"><ele>0.0</ele><time>2026-04-09T07:57:48.999Z</time></trkpt><trkpt lat="39.2284823078053" lon="9.214336869293506"><ele>-1.0</ele><time>2026-04-09T07:57:49.999Z</time></trkpt><trkpt lat="39.22852803951829" lon="9.214552517914976"><ele>-1.0</ele><time>2026-04-09T07:57:50.999Z</time></trkpt><trkpt lat="39.228576912349205" lon="9.21477965798525"><ele>-1.0</ele><time>2026-04-09T07:57:51.999Z</time></trkpt><trkpt lat="39.22862887395858" lon="9.215000809482255"><ele>-1.0</ele><time>2026-04-09T07:57:52.999Z</time></trkpt><trkpt lat="39.228679709600016" lon="9.215221304669907"><ele>0.0</ele><time>2026-04-09T07:57:53.999Z</time></trkpt><trkpt lat="39.22873184455791" lon="9.215449688917221"><ele>1.0</ele><time>2026-04-09T07:57:54.999Z</time></trkpt><trkpt lat="39.228781484770884" lon="9.21567051219964"><ele>2.0</ele><time>2026-04-09T07:57:56Z</time></trkpt><trkpt lat="39.22882721636808" lon="9.215871151839275"><ele>2.0</ele><time>2026-04-09T07:57:57Z</time></trkpt><trkpt lat="39.228869089741366" lon="9.216055996457749"><ele>2.0</ele><time>2026-04-09T07:57:58Z</time></trkpt><trkpt lat="39.228910846487025" lon="9.216232024889276"><ele>2.0</ele><time>2026-04-09T07:57:59Z</time></trkpt><trkpt lat="39.22895455363851" lon="9.21641918048063"><ele>2.0</ele><time>2026-04-09T07:58:00Z</time></trkpt><trkpt lat="39.22900118569789" lon="9.216624183231794"><ele>2.333333333333333</ele><time>2026-04-09T07:58:01Z</time></trkpt><trkpt lat="39.22905370527021" lon="9.216825312598628"><ele>2.6666666666666665</ele><time>2026-04-09T07:58:02Z</time></trkpt><trkpt lat="39.22910574224801" lon="9.217024967842724"><ele>3.0</ele><time>2026-04-09T07:58:03Z</time></trkpt><trkpt lat="39.229155131297226" lon="9.217229110205276"><ele>2.3333333333333335</ele><time>2026-04-09T07:58:04Z</time></trkpt><trkpt lat="39.22920214991564" lon="9.217435060592589"><ele>1.6666666666666665</ele><time>2026-04-09T07:58:05Z</time></trkpt><trkpt lat="39.229249547700235" lon="9.217637253219937"><ele>1.0</ele><time>2026-04-09T07:58:06Z</time></trkpt><trkpt lat="39.22929569910044" lon="9.21784168481059"><ele>1.0</ele><time>2026-04-09T07:58:07Z</time></trkpt><trkpt lat="39.229341890978226" lon="9.218042859076112"><ele>1.0</ele><time>2026-04-09T07:58:08Z</time></trkpt><trkpt lat="39.22938707240183" lon="9.218242735463319"><ele>1.0</ele><time>2026-04-09T07:58:09Z</time></trkpt><trkpt lat="39.22943236212559" lon="9.218438770792112"><ele>1.0</ele><time>2026-04-09T07:58:10Z</time></trkpt><trkpt lat="39.22948063215584" lon="9.218638760369974"><ele>1.0</ele><time>2026-04-09T07:58:11Z</time></trkpt><trkpt lat="39.229528270404224" lon="9.21883327441434"><ele>1.0</ele><time>2026-04-09T07:58:12Z</time></trkpt><trkpt lat="39.22958415605469" lon="9.219025959489256"><ele>2.0</ele><time>2026-04-09T07:58:13Z</time></trkpt><trkpt lat="39.22962898602577" lon="9.219218401341037"><ele>3.0</ele><time>2026-04-09T07:58:14Z</time></trkpt><trkpt lat="39.22967364488164" lon="9.219419112640283"><ele>4.0</ele><time>2026-04-09T07:58:15Z</time></trkpt><trkpt lat="39.2297235010868" lon="9.219612263646326"><ele>4.0</ele><time>2026-04-09T07:58:16Z</time></trkpt><trkpt lat="39.22978320999594" lon="9.219793632061274"><ele>4.0</ele><time>2026-04-09T07:58:17Z</time></trkpt><trkpt lat="39.22984928027891" lon="9.219950728013803"><ele>4.0</ele><time>2026-04-09T07:58:18Z</time></trkpt><trkpt lat="39.22993896217527" lon="9.220096229343964"><ele>4.0</ele><time>2026-04-09T07:58:19Z</time></trkpt><trkpt lat="39.23002153636176" lon="9.220246532084428"><ele>4.0</ele><time>2026-04-09T07:58:20Z</time></trkpt><trkpt lat="39.230098975100255" lon="9.220401438202753"><ele>4.0</ele><time>2026-04-09T07:58:21Z</time></trkpt><trkpt lat="39.230162495199565" lon="9.220576368135506"><ele>4.0</ele><time>2026-04-09T07:58:22Z</time></trkpt><trkpt lat="39.23019500295935" lon="9.220755772703088"><ele>4.0</ele><time>2026-04-09T07:58:23Z</time></trkpt><trkpt lat="39.23021673168425" lon="9.220930991847897"><ele>4.0</ele><time>2026-04-09T07:58:24Z</time></trkpt><trkpt lat="39.230237164027656" lon="9.22109938103293"><ele>4.0</ele><time>2026-04-09T07:58:25Z</time></trkpt><trkpt lat="39.23026824859153" lon="9.22125373933673"><ele>4.0</ele><time>2026-04-09T07:58:26Z</time></trkpt><trkpt lat="39.23031373216592" lon="9.221388958106104"><ele>4.0</ele><time>2026-04-09T07:58:27Z</time></trkpt><trkpt lat="39.230368367987815" lon="9.221508754458448"><ele>4.2</ele><time>2026-04-09T07:58:28Z</time></trkpt><trkpt lat="39.23042178873501" lon="9.221624428512913"><ele>4.4</ele><time>2026-04-09T07:58:29Z</time></trkpt><trkpt lat="39.23044829808241" lon="9.221741268474664"><ele>4.6</ele><time>2026-04-09T07:58:30Z</time></trkpt><trkpt lat="39.230461320052456" lon="9.22184758750156"><ele>4.8</ele><time>2026-04-09T07:58:31Z</time></trkpt><trkpt lat="39.23046670853909" lon="9.221972305061172"><ele>5.0</ele><time>2026-04-09T07:58:33Z</time></trkpt><trkpt lat="39.23048333955934" lon="9.222063451586102"><ele>5.0</ele><time>2026-04-09T07:58:44Z</time></trkpt><trkpt lat="39.230485736471365" lon="9.222154789371888"><ele>5.0</ele><time>2026-04-09T07:58:45Z</time></trkpt><trkpt lat="39.23048864941156" lon="9.222257021568936"><ele>5.0</ele><time>2026-04-09T07:58:46Z</time></trkpt><trkpt lat="39.23049180617481" lon="9.222367810875276"><ele>5.0</ele><time>2026-04-09T07:58:47Z</time></trkpt><trkpt lat="39.23038441956581" lon="9.222495525648352"><ele>5.0</ele><time>2026-04-09T07:58:48Z</time></trkpt><trkpt lat="39.230331199826296" lon="9.222624656332798"><ele>5.0</ele><time>2026-04-09T07:58:49Z</time></trkpt><trkpt lat="39.230270945221335" lon="9.22275814862049"><ele>5.0</ele><time>2026-04-09T07:58:50Z</time></trkpt><trkpt lat="39.230209353355626" lon="9.222893129261438"><ele>5.0</ele><time>2026-04-09T07:58:51Z</time></trkpt><trkpt lat="39.23014711423885" lon="9.22302643231885"><ele>5.0</ele><time>2026-04-09T07:58:52Z</time></trkpt><trkpt lat="39.23008152216531" lon="9.2231756994119"><ele>5.0</ele><time>2026-04-09T07:58:53Z</time></trkpt><trkpt lat="39.230008191761314" lon="9.22333233269335"><ele>5.0</ele><time>2026-04-09T07:58:54Z</time></trkpt><trkpt lat="39.22993600976429" lon="9.22349805711277"><ele>5.0</ele><time>2026-04-09T07:58:55Z</time></trkpt><trkpt lat="39.22986693502105" lon="9.223663410607925"><ele>5.0</ele><time>2026-04-09T07:58:56Z</time></trkpt><trkpt lat="39.229798372128876" lon="9.223826299859152"><ele>5.25</ele><time>2026-04-09T07:58:57Z</time></trkpt><trkpt lat="39.22972934436898" lon="9.223985104130184"><ele>5.5</ele><time>2026-04-09T07:58:58Z</time></trkpt><trkpt lat="39.229653474829846" lon="9.22415398584362"><ele>5.75</ele><time>2026-04-09T07:58:59Z</time></trkpt><trkpt lat="39.22957472378977" lon="9.224328813273521"><ele>6.0</ele><time>2026-04-09T07:59:00Z</time></trkpt><trkpt lat="39.229505935582615" lon="9.224507558024293"><ele>6.0</ele><time>2026-04-09T07:59:01Z</time></trkpt><trkpt lat="39.22944362517916" lon="9.224708914919459"><ele>6.0</ele><time>2026-04-09T07:59:02Z</time></trkpt><trkpt lat="39.22937238446647" lon="9.224952287700521"><ele>6.0</ele><time>2026-04-09T07:59:03Z</time></trkpt><trkpt lat="39.229285983638945" lon="9.22520712153565"><ele>6.0</ele><time>2026-04-09T07:59:04Z</time></trkpt><trkpt lat="39.229203369719144" lon="9.225433655577492"><ele>6.0</ele><time>2026-04-09T07:59:05Z</time></trkpt><trkpt lat="39.229129398257065" lon="9.225637206896588"><ele>6.0</ele><time>2026-04-09T07:59:06Z</time></trkpt><trkpt lat="39.22906633428139" lon="9.225814159701866"><ele>6.0</ele><time>2026-04-09T07:59:07Z</time></trkpt><trkpt lat="39.229011164434574" lon="9.22596484672808"><ele>6.0</ele><time>2026-04-09T07:59:08Z</time></trkpt><trkpt lat="39.22897053496324" lon="9.226099040304124"><ele>6.0</ele><time>2026-04-09T07:59:09Z</time></trkpt><trkpt lat="39.22893659331877" lon="9.226213226798206"><ele>6.0</ele><time>2026-04-09T07:59:10Z</time></trkpt><trkpt lat="39.22890601156159" lon="9.226323920449577"><ele>6.0</ele><time>2026-04-09T07:59:11Z</time></trkpt><trkpt lat="39.22887568308212" lon="9.2264463960615"><ele>5.3999999999999995</ele><time>2026-04-09T07:59:12Z</time></trkpt><trkpt lat="39.22883614059845" lon="9.226575248789386"><ele>4.8</ele><time>2026-04-09T07:59:13Z</time></trkpt><trkpt lat="39.22879948267576" lon="9.226697867658407"><ele>4.199999999999999</ele><time>2026-04-09T07:59:14Z</time></trkpt><trkpt lat="39.22876520248166" lon="9.226819508968076"><ele>3.5999999999999996</ele><time>2026-04-09T07:59:15Z</time></trkpt><trkpt lat="39.22872910576052" lon="9.22693680353642"><ele>3.0</ele><time>2026-04-09T07:59:16Z</time></trkpt><trkpt lat="39.22869627633915" lon="9.22705129739361"><ele>3.0</ele><time>2026-04-09T07:59:17Z</time></trkpt><trkpt lat="39.22866292146752" lon="9.227166876918448"><ele>3.0</ele><time>2026-04-09T07:59:18Z</time></trkpt><trkpt lat="39.228627886222846" lon="9.227289104413325"><ele>3.0</ele><time>2026-04-09T07:59:19Z</time></trkpt><trkpt lat="39.22859173301997" lon="9.227418026443127"><ele>3.0</ele><time>2026-04-09T07:59:20Z</time></trkpt><trkpt lat="39.22856660474243" lon="9.227550474855285"><ele>3.0</ele><time>2026-04-09T07:59:21Z</time></trkpt><trkpt lat="39.22853439823636" lon="9.227690101049253"><ele>3.4</ele><time>2026-04-09T07:59:22Z</time></trkpt><trkpt lat="39.228510806274066" lon="9.227828208923267"><ele>3.8</ele><time>2026-04-09T07:59:23Z</time></trkpt><trkpt lat="39.22848952564276" lon="9.227969586614119"><ele>4.2</ele><time>2026-04-09T07:59:24Z</time></trkpt><trkpt lat="39.228471007928015" lon="9.228112246765814"><ele>4.6</ele><time>2026-04-09T07:59:25Z</time></trkpt><trkpt lat="39.228455633929464" lon="9.228251631118592"><ele>5.0</ele><time>2026-04-09T07:59:26Z</time></trkpt><trkpt lat="39.22843181543276" lon="9.228374138782588"><ele>5.8</ele><time>2026-04-09T07:59:27Z</time></trkpt><trkpt lat="39.228419003263085" lon="9.228490503408237"><ele>6.6</ele><time>2026-04-09T07:59:28Z</time></trkpt><trkpt lat="39.22840440832799" lon="9.22860370635613"><ele>7.4</ele><time>2026-04-09T07:59:29Z</time></trkpt><trkpt lat="39.22838867733253" lon="9.228730659756089"><ele>8.2</ele><time>2026-04-09T07:59:30Z</time></trkpt><trkpt lat="39.228366945867556" lon="9.228866136830284"><ele>9.0</ele><time>2026-04-09T07:59:31Z</time></trkpt><trkpt lat="39.22835407346332" lon="9.229003350951706"><ele>9.0</ele><time>2026-04-09T07:59:32Z</time></trkpt><trkpt lat="39.228336425940405" lon="9.229142957160226"><ele>9.0</ele><time>2026-04-09T07:59:33Z</time></trkpt><trkpt lat="39.22831755133346" lon="9.22927900966879"><ele>9.0</ele><time>2026-04-09T07:59:34Z</time></trkpt><trkpt lat="39.22829562634718" lon="9.22941207497873"><ele>9.0</ele><time>2026-04-09T07:59:35Z</time></trkpt><trkpt lat="39.22827092898365" lon="9.229547155394808"><ele>9.0</ele><time>2026-04-09T07:59:36Z</time></trkpt><trkpt lat="39.22824349994229" lon="9.229678617640658"><ele>8.4</ele><time>2026-04-09T07:59:37Z</time></trkpt><trkpt lat="39.2282110015464" lon="9.229811662345538"><ele>7.800000000000001</ele><time>2026-04-09T07:59:38Z</time></trkpt><trkpt lat="39.228177036607185" lon="9.229943350125154"><ele>7.199999999999999</ele><time>2026-04-09T07:59:39Z</time></trkpt><trkpt lat="39.2281372731836" lon="9.230070904560705"><ele>6.6</ele><time>2026-04-09T07:59:40Z</time></trkpt><trkpt lat="39.228095951983754" lon="9.23019976570002"><ele>6.0</ele><time>2026-04-09T07:59:41Z</time></trkpt><trkpt lat="39.228054593927254" lon="9.230338497931447"><ele>5.25</ele><time>2026-04-09T07:59:42Z</time></trkpt><trkpt lat="39.22801159292573" lon="9.230481182527761"><ele>4.5</ele><time>2026-04-09T07:59:42.999Z</time></trkpt><trkpt lat="39.22797006190935" lon="9.230626970172043"><ele>3.75</ele><time>2026-04-09T07:59:43.999Z</time></trkpt><trkpt lat="39.22793032396905" lon="9.230782028675463"><ele>3.0</ele><time>2026-04-09T07:59:44.999Z</time></trkpt><trkpt lat="39.22788827660427" lon="9.230949011562183"><ele>3.0</ele><time>2026-04-09T07:59:45.999Z</time></trkpt><trkpt lat="39.22783528147066" lon="9.231117103656365"><ele>3.0</ele><time>2026-04-09T07:59:46.999Z</time></trkpt><trkpt lat="39.227787901276294" lon="9.231277556415256"><ele>3.0</ele><time>2026-04-09T07:59:47.999Z</time></trkpt><trkpt lat="39.2277349035902" lon="9.231446572664709"><ele>3.0</ele><time>2026-04-09T07:59:48.999Z</time></trkpt><trkpt lat="39.22768767615718" lon="9.231622323297358"><ele>3.25</ele><time>2026-04-09T07:59:49.999Z</time></trkpt><trkpt lat="39.22763535243206" lon="9.231800112211879"><ele>3.5</ele><time>2026-04-09T07:59:50.999Z</time></trkpt><trkpt lat="39.22758622365492" lon="9.231977244084714"><ele>3.75</ele><time>2026-04-09T07:59:51.999Z</time></trkpt><trkpt lat="39.22753206252138" lon="9.232156855796207"><ele>4.0</ele><time>2026-04-09T07:59:52.999Z</time></trkpt><trkpt lat="39.22748068048009" lon="9.232337604298667"><ele>4.0</ele><time>2026-04-09T07:59:53.999Z</time></trkpt><trkpt lat="39.2274217356594" lon="9.232515547813755"><ele>4.0</ele><time>2026-04-09T07:59:54.999Z</time></trkpt><trkpt lat="39.22736774366775" lon="9.232688896041774"><ele>4.0</ele><time>2026-04-09T07:59:55.999Z</time></trkpt><trkpt lat="39.22731303078403" lon="9.232859302399914"><ele>4.0</ele><time>2026-04-09T07:59:56.999Z</time></trkpt><trkpt lat="39.227249948719574" lon="9.233021687175299"><ele>3.25</ele><time>2026-04-09T07:59:57.999Z</time></trkpt><trkpt lat="39.22718147153389" lon="9.233188272382453"><ele>2.5</ele><time>2026-04-09T07:59:58.999Z</time></trkpt><trkpt lat="39.227118182802535" lon="9.233355211324902"><ele>1.75</ele><time>2026-04-09T07:59:59.999Z</time></trkpt><trkpt lat="39.22706690807495" lon="9.233508557525914"><ele>1.0</ele><time>2026-04-09T08:00:00.999Z</time></trkpt><trkpt lat="39.22702862557591" lon="9.233650125826157"><ele>1.0</ele><time>2026-04-09T08:00:01.999Z</time></trkpt><trkpt lat="39.22699866891415" lon="9.233786299859775"><ele>1.0</ele><time>2026-04-09T08:00:02.999Z</time></trkpt><trkpt lat="39.22696191695515" lon="9.233913177610772"><ele>1.0</ele><time>2026-04-09T08:00:03.999Z</time></trkpt><trkpt lat="39.22694417854103" lon="9.234058629862442"><ele>1.0</ele><time>2026-04-09T08:00:04.999Z</time></trkpt><trkpt lat="39.226926564955996" lon="9.234220919326873"><ele>1.75</ele><time>2026-04-09T08:00:05.999Z</time></trkpt><trkpt lat="39.22690719253394" lon="9.234399414517771"><ele>2.5</ele><time>2026-04-09T08:00:06.999Z</time></trkpt><trkpt lat="39.226888084674776" lon="9.234575472038394"><ele>3.25</ele><time>2026-04-09T08:00:07.999Z</time></trkpt><trkpt lat="39.226867228615895" lon="9.234767637144568"><ele>4.0</ele><time>2026-04-09T08:00:08.999Z</time></trkpt><trkpt lat="39.22684546264753" lon="9.234968115781"><ele>4.0</ele><time>2026-04-09T08:00:09.999Z</time></trkpt><trkpt lat="39.226826306876355" lon="9.235148852737517"><ele>4.0</ele><time>2026-04-09T08:00:10.999Z</time></trkpt><trkpt lat="39.22682101143459" lon="9.235329681545265"><ele>4.0</ele><time>2026-04-09T08:00:11.999Z</time></trkpt><trkpt lat="39.22678472425125" lon="9.235518762667096"><ele>4.0</ele><time>2026-04-09T08:00:12.999Z</time></trkpt><trkpt lat="39.226771534268075" lon="9.235715009769914"><ele>4.25</ele><time>2026-04-09T08:00:13.999Z</time></trkpt><trkpt lat="39.226769394003966" lon="9.235906337247306"><ele>4.5</ele><time>2026-04-09T08:00:14.999Z</time></trkpt><trkpt lat="39.22677502077502" lon="9.23609893935647"><ele>4.75</ele><time>2026-04-09T08:00:15.999Z</time></trkpt><trkpt lat="39.22678422257628" lon="9.236283292994106"><ele>5.0</ele><time>2026-04-09T08:00:16.999Z</time></trkpt><trkpt lat="39.22679291369511" lon="9.236471621625402"><ele>5.5</ele><time>2026-04-09T08:00:18Z</time></trkpt><trkpt lat="39.22680074482296" lon="9.236661710876634"><ele>6.0</ele><time>2026-04-09T08:00:19Z</time></trkpt><trkpt lat="39.22680312843975" lon="9.236847041750066"><ele>6.5</ele><time>2026-04-09T08:00:20Z</time></trkpt><trkpt lat="39.226802741084725" lon="9.237023769986886"><ele>7.0</ele><time>2026-04-09T08:00:21Z</time></trkpt><trkpt lat="39.22680080165377" lon="9.237184065915539"><ele>7.0</ele><time>2026-04-09T08:00:22Z</time></trkpt><trkpt lat="39.22679687899965" lon="9.237331535505641"><ele>6.999999999999999</ele><time>2026-04-09T08:00:23Z</time></trkpt><trkpt lat="39.226789441868235" lon="9.23745110044765"><ele>6.999999999999999</ele><time>2026-04-09T08:00:24Z</time></trkpt><trkpt lat="39.226783772729554" lon="9.23753696633822"><ele>7.0</ele><time>2026-04-09T08:00:25Z</time></trkpt><trkpt lat="39.226783989276946" lon="9.23768353753139"><ele>7.0</ele><time>2026-04-09T08:00:27Z</time></trkpt><trkpt lat="39.22681210479874" lon="9.237829540715735"><ele>7.000000000000001</ele><time>2026-04-09T08:00:29Z</time></trkpt><trkpt lat="39.226873498891656" lon="9.237876167365592"><ele>7.0</ele><time>2026-04-09T08:00:30Z</time></trkpt><trkpt lat="39.22694818038773" lon="9.237881036463747"><ele>7.0</ele><time>2026-04-09T08:00:31Z</time></trkpt><trkpt lat="39.227032914054156" lon="9.2378703644817"><ele>7.0</ele><time>2026-04-09T08:00:32Z</time></trkpt><trkpt lat="39.22712332425914" lon="9.237865254707708"><ele>7.000000000000001</ele><time>2026-04-09T08:00:33Z</time></trkpt><trkpt lat="39.22722479836875" lon="9.237879060413794"><ele>7.0</ele><time>2026-04-09T08:00:34Z</time></trkpt><trkpt lat="39.22733428297366" lon="9.23789782653169"><ele>7.6</ele><time>2026-04-09T08:00:35Z</time></trkpt><trkpt lat="39.22744542816023" lon="9.237910361265227"><ele>8.2</ele><time>2026-04-09T08:00:36Z</time></trkpt><trkpt lat="39.22754045331865" lon="9.237921371747658"><ele>8.8</ele><time>2026-04-09T08:00:37Z</time></trkpt><trkpt lat="39.227637965768906" lon="9.237928359476308"><ele>9.4</ele><time>2026-04-09T08:00:38Z</time></trkpt><trkpt lat="39.22773603797908" lon="9.237940735501992"><ele>10.0</ele><time>2026-04-09T08:00:39Z</time></trkpt><trkpt lat="39.22783812770086" lon="9.23794795081045"><ele>10.0</ele><time>2026-04-09T08:00:40Z</time></trkpt><trkpt lat="39.22794179715639" lon="9.237963362093572"><ele>10.0</ele><time>2026-04-09T08:00:41Z</time></trkpt><trkpt lat="39.22805128170518" lon="9.23798570766296"><ele>10.0</ele><time>2026-04-09T08:00:42Z</time></trkpt><trkpt lat="39.22816129095165" lon="9.238001200077742"><ele>10.0</ele><time>2026-04-09T08:00:43Z</time></trkpt><trkpt lat="39.22827192801816" lon="9.238016859927347"><ele>10.0</ele><time>2026-04-09T08:00:44Z</time></trkpt><trkpt lat="39.22838620689871" lon="9.238030768805922"><ele>11.25</ele><time>2026-04-09T08:00:45Z</time></trkpt><trkpt lat="39.22850016833326" lon="9.238039071451537"><ele>12.5</ele><time>2026-04-09T08:00:46Z</time></trkpt><trkpt lat="39.22861743309467" lon="9.238048104492108"><ele>13.75</ele><time>2026-04-09T08:00:47Z</time></trkpt><trkpt lat="39.22873665605835" lon="9.23806322951702"><ele>15.0</ele><time>2026-04-09T08:00:48Z</time></trkpt><trkpt lat="39.2288586443863" lon="9.238072567494559"><ele>15.5</ele><time>2026-04-09T08:00:49Z</time></trkpt><trkpt lat="39.228986746509804" lon="9.238066185096706"><ele>16.0</ele><time>2026-04-09T08:00:50Z</time></trkpt><trkpt lat="39.22912021062223" lon="9.238041425681788"><ele>16.5</ele><time>2026-04-09T08:00:51Z</time></trkpt><trkpt lat="39.22925247552512" lon="9.238006450860095"><ele>17.0</ele><time>2026-04-09T08:00:52Z</time></trkpt><trkpt lat="39.229385215903804" lon="9.237968671247351"><ele>17.0</ele><time>2026-04-09T08:00:53Z</time></trkpt><trkpt lat="39.22951807914521" lon="9.237921730952458"><ele>17.0</ele><time>2026-04-09T08:00:54Z</time></trkpt><trkpt lat="39.229655209552966" lon="9.237873658975875"><ele>17.0</ele><time>2026-04-09T08:00:55Z</time></trkpt><trkpt lat="39.22979279833869" lon="9.23781702940355"><ele>17.0</ele><time>2026-04-09T08:00:56Z</time></trkpt><trkpt lat="39.229932665670866" lon="9.237758451448295"><ele>17.5</ele><time>2026-04-09T08:00:57Z</time></trkpt><trkpt lat="39.230066100456185" lon="9.237703349946761"><ele>18.0</ele><time>2026-04-09T08:00:58Z</time></trkpt><trkpt lat="39.230203666770805" lon="9.237653634786389"><ele>18.5</ele><time>2026-04-09T08:00:59Z</time></trkpt><trkpt lat="39.23034552807781" lon="9.237602350019644"><ele>19.0</ele><time>2026-04-09T08:01:00Z</time></trkpt><trkpt lat="39.2304825068482" lon="9.237545779588489"><ele>19.0</ele><time>2026-04-09T08:01:01Z</time></trkpt><trkpt lat="39.23061309488935" lon="9.237488666386417"><ele>19.0</ele><time>2026-04-09T08:01:02Z</time></trkpt><trkpt lat="39.23074027737315" lon="9.237428093267154"><ele>19.0</ele><time>2026-04-09T08:01:03Z</time></trkpt><trkpt lat="39.23087092705727" lon="9.237374478522081"><ele>19.0</ele><time>2026-04-09T08:01:04Z</time></trkpt><trkpt lat="39.2309926026511" lon="9.237309764334093"><ele>19.0</ele><time>2026-04-09T08:01:05Z</time></trkpt><trkpt lat="39.23111452301417" lon="9.237250264181199"><ele>19.0</ele><time>2026-04-09T08:01:06Z</time></trkpt><trkpt lat="39.23123677908902" lon="9.237186341615825"><ele>19.0</ele><time>2026-04-09T08:01:07Z</time></trkpt><trkpt lat="39.23136040120356" lon="9.237119757782825"><ele>19.0</ele><time>2026-04-09T08:01:08Z</time></trkpt><trkpt lat="39.23148616252585" lon="9.237056908151713"><ele>19.0</ele><time>2026-04-09T08:01:09Z</time></trkpt><trkpt lat="39.231610004224244" lon="9.236993428636067"><ele>19.0</ele><time>2026-04-09T08:01:10Z</time></trkpt><trkpt lat="39.231734019552086" lon="9.236931131312788"><ele>19.0</ele><time>2026-04-09T08:01:11Z</time></trkpt><trkpt lat="39.23186141170148" lon="9.236864570659243"><ele>19.0</ele><time>2026-04-09T08:01:12Z</time></trkpt><trkpt lat="39.23198957022054" lon="9.236796117617441"><ele>19.0</ele><time>2026-04-09T08:01:13Z</time></trkpt><trkpt lat="39.232120907051836" lon="9.236729074049643"><ele>19.0</ele><time>2026-04-09T08:01:14Z</time></trkpt><trkpt lat="39.232252709752295" lon="9.236662056028631"><ele>19.0</ele><time>2026-04-09T08:01:15Z</time></trkpt><trkpt lat="39.232387628746864" lon="9.236591161764984"><ele>19.0</ele><time>2026-04-09T08:01:16Z</time></trkpt><trkpt lat="39.23252028146868" lon="9.236520444358948"><ele>18.5</ele><time>2026-04-09T08:01:17Z</time></trkpt><trkpt lat="39.23264261936665" lon="9.236454705382307"><ele>18.0</ele><time>2026-04-09T08:01:18Z</time></trkpt><trkpt lat="39.23276336012183" lon="9.236396027475491"><ele>17.5</ele><time>2026-04-09T08:01:19Z</time></trkpt><trkpt lat="39.232883684916146" lon="9.236333036695585"><ele>17.0</ele><time>2026-04-09T08:01:20Z</time></trkpt><trkpt lat="39.23300878776004" lon="9.236268741592912"><ele>17.0</ele><time>2026-04-09T08:01:21Z</time></trkpt><trkpt lat="39.233133261447875" lon="9.236204606801687"><ele>17.0</ele><time>2026-04-09T08:01:22Z</time></trkpt><trkpt lat="39.2332583651093" lon="9.236139299117886"><ele>17.0</ele><time>2026-04-09T08:01:23Z</time></trkpt><trkpt lat="39.23338568264129" lon="9.236078411708679"><ele>17.0</ele><time>2026-04-09T08:01:24Z</time></trkpt><trkpt lat="39.23351094385999" lon="9.236015670272621"><ele>17.2</ele><time>2026-04-09T08:01:25Z</time></trkpt><trkpt lat="39.233628945057305" lon="9.235953713370426"><ele>17.4</ele><time>2026-04-09T08:01:26Z</time></trkpt><trkpt lat="39.23373684045534" lon="9.235899567014592"><ele>17.6</ele><time>2026-04-09T08:01:27Z</time></trkpt><trkpt lat="39.23383275848997" lon="9.235850999971122"><ele>17.8</ele><time>2026-04-09T08:01:28Z</time></trkpt><trkpt lat="39.23392581045413" lon="9.235807239349278"><ele>18.0</ele><time>2026-04-09T08:01:29Z</time></trkpt><trkpt lat="39.23402652847363" lon="9.23576050473188"><ele>18.2</ele><time>2026-04-09T08:01:30Z</time></trkpt><trkpt lat="39.23413005669103" lon="9.235715243099419"><ele>18.4</ele><time>2026-04-09T08:01:31Z</time></trkpt><trkpt lat="39.2342358029209" lon="9.235669709029947"><ele>18.599999999999998</ele><time>2026-04-09T08:01:32Z</time></trkpt><trkpt lat="39.23434115136681" lon="9.235618850267386"><ele>18.8</ele><time>2026-04-09T08:01:33Z</time></trkpt><trkpt lat="39.234444444944344" lon="9.23557800170899"><ele>19.0</ele><time>2026-04-09T08:01:34Z</time></trkpt><trkpt lat="39.23455495975684" lon="9.235529728085831"><ele>19.0</ele><time>2026-04-09T08:01:35Z</time></trkpt><trkpt lat="39.23466980757794" lon="9.235485010468713"><ele>19.0</ele><time>2026-04-09T08:01:36Z</time></trkpt><trkpt lat="39.23477676361475" lon="9.235438809218419"><ele>19.0</ele><time>2026-04-09T08:01:37Z</time></trkpt><trkpt lat="39.234880063345344" lon="9.23539644836628"><ele>19.0</ele><time>2026-04-09T08:01:38Z</time></trkpt><trkpt lat="39.234966755243626" lon="9.235363845722294"><ele>19.0</ele><time>2026-04-09T08:01:39Z</time></trkpt><trkpt lat="39.23504660487091" lon="9.235334603526484"><ele>19.166666666666664</ele><time>2026-04-09T08:01:40Z</time></trkpt><trkpt lat="39.23511702228347" lon="9.23530888767344"><ele>19.333333333333332</ele><time>2026-04-09T08:01:41Z</time></trkpt><trkpt lat="39.23519109714678" lon="9.235290115268963"><ele>19.5</ele><time>2026-04-09T08:01:42Z</time></trkpt><trkpt lat="39.23527395902095" lon="9.235270672543923"><ele>19.666666666666668</ele><time>2026-04-09T08:01:43Z</time></trkpt><trkpt lat="39.235366756305055" lon="9.235249283768294"><ele>19.833333333333336</ele><time>2026-04-09T08:01:44Z</time></trkpt><trkpt lat="39.23547586243862" lon="9.2352295086483"><ele>20.0</ele><time>2026-04-09T08:01:45Z</time></trkpt><trkpt lat="39.23559881135929" lon="9.235206859292902"><ele>20.25</ele><time>2026-04-09T08:01:46Z</time></trkpt><trkpt lat="39.2357313338269" lon="9.23518882353112"><ele>20.5</ele><time>2026-04-09T08:01:47Z</time></trkpt><trkpt lat="39.23587125885083" lon="9.235161648279364"><ele>20.75</ele><time>2026-04-09T08:01:48Z</time></trkpt><trkpt lat="39.23602407984035" lon="9.23513865653211"><ele>21.0</ele><time>2026-04-09T08:01:48.999Z</time></trkpt><trkpt lat="39.236178268922814" lon="9.235113027815181"><ele>21.0</ele><time>2026-04-09T08:01:49.999Z</time></trkpt><trkpt lat="39.23633723670988" lon="9.235087048844283"><ele>21.0</ele><time>2026-04-09T08:01:50.999Z</time></trkpt><trkpt lat="39.23650185487288" lon="9.23506266355319"><ele>21.0</ele><time>2026-04-09T08:01:51.999Z</time></trkpt><trkpt lat="39.23667304125898" lon="9.235040954664024"><ele>21.333333333333332</ele><time>2026-04-09T08:01:52.999Z</time></trkpt><trkpt lat="39.2368432972943" lon="9.235019339490735"><ele>21.666666666666664</ele><time>2026-04-09T08:01:53.999Z</time></trkpt><trkpt lat="39.23701027035358" lon="9.234994345562985"><ele>22.0</ele><time>2026-04-09T08:01:54.999Z</time></trkpt><trkpt lat="39.23717979102147" lon="9.23496677250256"><ele>22.0</ele><time>2026-04-09T08:01:55.999Z</time></trkpt><trkpt lat="39.23734851853296" lon="9.234940121952365"><ele>22.0</ele><time>2026-04-09T08:01:56.999Z</time></trkpt><trkpt lat="39.23752050437803" lon="9.234911905022146"><ele>22.0</ele><time>2026-04-09T08:01:57.999Z</time></trkpt><trkpt lat="39.237693441629865" lon="9.234884155479524"><ele>22.0</ele><time>2026-04-09T08:01:58.999Z</time></trkpt><trkpt lat="39.23786831757489" lon="9.23485795992676"><ele>22.0</ele><time>2026-04-09T08:01:59.999Z</time></trkpt><trkpt lat="39.238042411359245" lon="9.234831290148628"><ele>22.0</ele><time>2026-04-09T08:02:00.999Z</time></trkpt><trkpt lat="39.23821887856085" lon="9.234803078852792"><ele>23.666666666666664</ele><time>2026-04-09T08:02:01.999Z</time></trkpt><trkpt lat="39.23839627788162" lon="9.23477375424147"><ele>25.333333333333332</ele><time>2026-04-09T08:02:02.999Z</time></trkpt><trkpt lat="39.23857504208528" lon="9.234746719333975"><ele>27.0</ele><time>2026-04-09T08:02:03.999Z</time></trkpt><trkpt lat="39.238752814440815" lon="9.234717545369245"><ele>27.0</ele><time>2026-04-09T08:02:04.999Z</time></trkpt><trkpt lat="39.238932514748214" lon="9.234686353127698"><ele>27.0</ele><time>2026-04-09T08:02:05.999Z</time></trkpt><trkpt lat="39.239115535537664" lon="9.23465678767637"><ele>27.0</ele><time>2026-04-09T08:02:06.999Z</time></trkpt><trkpt lat="39.23929882945926" lon="9.234630536862317"><ele>26.333333333333336</ele><time>2026-04-09T08:02:07.999Z</time></trkpt><trkpt lat="39.239478457256105" lon="9.234602029898356"><ele>25.666666666666668</ele><time>2026-04-09T08:02:08.999Z</time></trkpt><trkpt lat="39.23965583746142" lon="9.234572432528438"><ele>25.0</ele><time>2026-04-09T08:02:09.999Z</time></trkpt><trkpt lat="39.239821939396954" lon="9.234548519047864"><ele>24.0</ele><time>2026-04-09T08:02:10.999Z</time></trkpt><trkpt lat="39.23997885405708" lon="9.234527582658597"><ele>23.0</ele><time>2026-04-09T08:02:11.999Z</time></trkpt><trkpt lat="39.24012587145091" lon="9.23450486454919"><ele>22.0</ele><time>2026-04-09T08:02:12.999Z</time></trkpt><trkpt lat="39.24026423812404" lon="9.23448022679713"><ele>21.0</ele><time>2026-04-09T08:02:13.999Z</time></trkpt><trkpt lat="39.24039672311564" lon="9.234460439804138"><ele>21.0</ele><time>2026-04-09T08:02:14.999Z</time></trkpt><trkpt lat="39.240520623764404" lon="9.234451520810781"><ele>21.0</ele><time>2026-04-09T08:02:15.999Z</time></trkpt><trkpt lat="39.240641049220415" lon="9.234456974446971"><ele>21.0</ele><time>2026-04-09T08:02:16.999Z</time></trkpt><trkpt lat="39.24075224792857" lon="9.23447148006655"><ele>21.0</ele><time>2026-04-09T08:02:18Z</time></trkpt><trkpt lat="39.240860829851094" lon="9.234476317017183"><ele>20.75</ele><time>2026-04-09T08:02:19Z</time></trkpt><trkpt lat="39.240971010960855" lon="9.234452961427966"><ele>20.5</ele><time>2026-04-09T08:02:20Z</time></trkpt><trkpt lat="39.241084539929275" lon="9.234400212545735"><ele>20.25</ele><time>2026-04-09T08:02:21Z</time></trkpt><trkpt lat="39.24120507685874" lon="9.23434256006491"><ele>20.0</ele><time>2026-04-09T08:02:22Z</time></trkpt><trkpt lat="39.24133275685858" lon="9.234326442562645"><ele>20.25</ele><time>2026-04-09T08:02:23Z</time></trkpt><trkpt lat="39.241468756019394" lon="9.234305775277907"><ele>20.5</ele><time>2026-04-09T08:02:24Z</time></trkpt><trkpt lat="39.24160635228854" lon="9.234262738861785"><ele>20.75</ele><time>2026-04-09T08:02:25Z</time></trkpt><trkpt lat="39.24175207031154" lon="9.23424479992471"><ele>21.0</ele><time>2026-04-09T08:02:26Z</time></trkpt><trkpt lat="39.2418943583462" lon="9.23421352349474"><ele>21.0</ele><time>2026-04-09T08:02:27Z</time></trkpt><trkpt lat="39.242039229346176" lon="9.234178472017733"><ele>21.0</ele><time>2026-04-09T08:02:28Z</time></trkpt><trkpt lat="39.24218021082999" lon="9.234145809479374"><ele>21.0</ele><time>2026-04-09T08:02:29Z</time></trkpt><trkpt lat="39.24231420914153" lon="9.23411064742606"><ele>21.0</ele><time>2026-04-09T08:02:30Z</time></trkpt><trkpt lat="39.242439802417714" lon="9.234090283203649"><ele>20.5</ele><time>2026-04-09T08:02:31Z</time></trkpt><trkpt lat="39.24255369003699" lon="9.23405927023766"><ele>20.0</ele><time>2026-04-09T08:02:32Z</time></trkpt><trkpt lat="39.24267002114323" lon="9.234030934246945"><ele>19.5</ele><time>2026-04-09T08:02:33Z</time></trkpt><trkpt lat="39.242793043675675" lon="9.234012207125636"><ele>19.0</ele><time>2026-04-09T08:02:34Z</time></trkpt><trkpt lat="39.24291208127917" lon="9.233979099588524"><ele>19.799999999999997</ele><time>2026-04-09T08:02:35Z</time></trkpt><trkpt lat="39.243030413734864" lon="9.233952662687516"><ele>20.599999999999998</ele><time>2026-04-09T08:02:36Z</time></trkpt><trkpt lat="39.2431419021103" lon="9.233929172820716"><ele>21.4</ele><time>2026-04-09T08:02:37Z</time></trkpt><trkpt lat="39.24323666898969" lon="9.233909311434354"><ele>22.2</ele><time>2026-04-09T08:02:38Z</time></trkpt><trkpt lat="39.24331606373216" lon="9.233896202171183"><ele>23.0</ele><time>2026-04-09T08:02:39Z</time></trkpt><trkpt lat="39.24342372062061" lon="9.233876546488649"><ele>23.0</ele><time>2026-04-09T08:02:41Z</time></trkpt><trkpt lat="39.24350442426262" lon="9.233865005938744"><ele>23.0</ele><time>2026-04-09T08:02:43Z</time></trkpt><trkpt lat="39.243580401682706" lon="9.233847578682882"><ele>23.0</ele><time>2026-04-09T08:02:46Z</time></trkpt><trkpt lat="39.24363811505868" lon="9.233814320552364"><ele>23.0</ele><time>2026-04-09T08:03:55.999Z</time></trkpt><trkpt lat="39.24374907229311" lon="9.23375241982031"><ele>23.0</ele><time>2026-04-09T08:03:57.999Z</time></trkpt><trkpt lat="39.24384606903507" lon="9.23379485143895"><ele>23.0</ele><time>2026-04-09T08:03:58.999Z</time></trkpt><trkpt lat="39.24395905267094" lon="9.2337723610471"><ele>22.25</ele><time>2026-04-09T08:03:59.999Z</time></trkpt><trkpt lat="39.24408908726737" lon="9.233747010055334"><ele>21.5</ele><time>2026-04-09T08:04:00.999Z</time></trkpt><trkpt lat="39.244229090658614" lon="9.233719715568505"><ele>20.75</ele><time>2026-04-09T08:04:01.999Z</time></trkpt><trkpt lat="39.24437721260593" lon="9.233690838329162"><ele>20.0</ele><time>2026-04-09T08:04:02.999Z</time></trkpt><trkpt lat="39.24453024326067" lon="9.233662130807474"><ele>20.0</ele><time>2026-04-09T08:04:03.999Z</time></trkpt><trkpt lat="39.24468752188067" lon="9.233633232803836"><ele>20.0</ele><time>2026-04-09T08:04:04.999Z</time></trkpt><trkpt lat="39.24485593507585" lon="9.23359912906221"><ele>20.0</ele><time>2026-04-09T08:04:05.999Z</time></trkpt><trkpt lat="39.245028338168545" lon="9.233544997476113"><ele>20.666666666666668</ele><time>2026-04-09T08:04:06.999Z</time></trkpt><trkpt lat="39.24520697357004" lon="9.23351989053096"><ele>21.333333333333332</ele><time>2026-04-09T08:04:07.999Z</time></trkpt><trkpt lat="39.24538093743276" lon="9.233488211715503"><ele>22.0</ele><time>2026-04-09T08:04:09Z</time></trkpt><trkpt lat="39.24555658277811" lon="9.233452137810904"><ele>22.333333333333332</ele><time>2026-04-09T08:04:10Z</time></trkpt><trkpt lat="39.24573245782677" lon="9.233417035027545"><ele>22.666666666666668</ele><time>2026-04-09T08:04:11Z</time></trkpt><trkpt lat="39.24590675991677" lon="9.233380770603272"><ele>23.0</ele><time>2026-04-09T08:04:12Z</time></trkpt><trkpt lat="39.246081942747914" lon="9.233345259970136"><ele>23.0</ele><time>2026-04-09T08:04:13Z</time></trkpt><trkpt lat="39.246256204031894" lon="9.233310881915674"><ele>23.0</ele><time>2026-04-09T08:04:14Z</time></trkpt><trkpt lat="39.24643497745349" lon="9.233276306793545"><ele>23.0</ele><time>2026-04-09T08:04:15Z</time></trkpt><trkpt lat="39.24661082042524" lon="9.233242192461256"><ele>23.0</ele><time>2026-04-09T08:04:16Z</time></trkpt><trkpt lat="39.24678206642098" lon="9.233208164351902"><ele>23.0</ele><time>2026-04-09T08:04:17Z</time></trkpt><trkpt lat="39.246953901193656" lon="9.233175216918184"><ele>23.0</ele><time>2026-04-09T08:04:18Z</time></trkpt><trkpt lat="39.24711930605758" lon="9.233141683044455"><ele>24.333333333333336</ele><time>2026-04-09T08:04:19Z</time></trkpt><trkpt lat="39.24728622043997" lon="9.233108987157008"><ele>25.666666666666668</ele><time>2026-04-09T08:04:20Z</time></trkpt><trkpt lat="39.24746433033955" lon="9.233075266543052"><ele>27.0</ele><time>2026-04-09T08:04:21Z</time></trkpt><trkpt lat="39.24764409126731" lon="9.233041055115466"><ele>27.666666666666664</ele><time>2026-04-09T08:04:22Z</time></trkpt><trkpt lat="39.24782609705014" lon="9.233005069455425"><ele>28.333333333333332</ele><time>2026-04-09T08:04:23Z</time></trkpt><trkpt lat="39.2480134903968" lon="9.232968721803529"><ele>29.0</ele><time>2026-04-09T08:04:24Z</time></trkpt><trkpt lat="39.24819903188223" lon="9.232928428836058"><ele>29.333333333333332</ele><time>2026-04-09T08:04:25Z</time></trkpt><trkpt lat="39.24838659230775" lon="9.23288665011696"><ele>29.666666666666664</ele><time>2026-04-09T08:04:26Z</time></trkpt><trkpt lat="39.24857381597349" lon="9.232845727873368"><ele>30.0</ele><time>2026-04-09T08:04:27Z</time></trkpt><trkpt lat="39.24875931635192" lon="9.232801255655653"><ele>30.0</ele><time>2026-04-09T08:04:28Z</time></trkpt><trkpt lat="39.2489468768806" lon="9.232754956606467"><ele>30.0</ele><time>2026-04-09T08:04:29Z</time></trkpt><trkpt lat="39.24913575321399" lon="9.232709693162533"><ele>30.0</ele><time>2026-04-09T08:04:30Z</time></trkpt><trkpt lat="39.249323051017015" lon="9.232664301009473"><ele>30.333333333333336</ele><time>2026-04-09T08:04:31Z</time></trkpt><trkpt lat="39.24951208538875" lon="9.232615230925932"><ele>30.666666666666668</ele><time>2026-04-09T08:04:32Z</time></trkpt><trkpt lat="39.24970214539028" lon="9.232565968020232"><ele>31.0</ele><time>2026-04-09T08:04:33Z</time></trkpt><trkpt lat="39.24989239610366" lon="9.232518178126307"><ele>31.0</ele><time>2026-04-09T08:04:34Z</time></trkpt><trkpt lat="39.25008096602934" lon="9.232471920635263"><ele>31.0</ele><time>2026-04-09T08:04:35Z</time></trkpt><trkpt lat="39.25026580549992" lon="9.23242993866901"><ele>31.0</ele><time>2026-04-09T08:04:36Z</time></trkpt><trkpt lat="39.25045098644216" lon="9.232398351243827"><ele>31.0</ele><time>2026-04-09T08:04:37Z</time></trkpt><trkpt lat="39.25063343477447" lon="9.232398934560997"><ele>31.0</ele><time>2026-04-09T08:04:38Z</time></trkpt><trkpt lat="39.25081920558108" lon="9.232433418734319"><ele>31.0</ele><time>2026-04-09T08:04:39Z</time></trkpt><trkpt lat="39.25099823811829" lon="9.232508080396203"><ele>31.0</ele><time>2026-04-09T08:04:40Z</time></trkpt><trkpt lat="39.25116203906989" lon="9.23262595397555"><ele>31.0</ele><time>2026-04-09T08:04:41Z</time></trkpt><trkpt lat="39.25131534728935" lon="9.232771125506314"><ele>31.0</ele><time>2026-04-09T08:04:42Z</time></trkpt><trkpt lat="39.25147360858403" lon="9.232918535403098"><ele>31.0</ele><time>2026-04-09T08:04:43Z</time></trkpt><trkpt lat="39.25163189375386" lon="9.233059779273875"><ele>31.0</ele><time>2026-04-09T08:04:44Z</time></trkpt><trkpt lat="39.25179028724659" lon="9.233196746307756"><ele>31.0</ele><time>2026-04-09T08:04:45Z</time></trkpt><trkpt lat="39.25194716357357" lon="9.233333256749447"><ele>32.0</ele><time>2026-04-09T08:04:46Z</time></trkpt><trkpt lat="39.2521032340967" lon="9.233470870782416"><ele>33.0</ele><time>2026-04-09T08:04:47Z</time></trkpt><trkpt lat="39.252259516748865" lon="9.23361244590762"><ele>34.0</ele><time>2026-04-09T08:04:48Z</time></trkpt><trkpt lat="39.25241457829594" lon="9.233752041078558"><ele>34.0</ele><time>2026-04-09T08:04:49Z</time></trkpt><trkpt lat="39.25256643293405" lon="9.233893672054313"><ele>34.0</ele><time>2026-04-09T08:04:50Z</time></trkpt><trkpt lat="39.25271611329106" lon="9.23403800572729"><ele>34.0</ele><time>2026-04-09T08:04:51Z</time></trkpt><trkpt lat="39.25286092439669" lon="9.234188848806928"><ele>34.66666666666667</ele><time>2026-04-09T08:04:52Z</time></trkpt><trkpt lat="39.25299451754049" lon="9.234358781853139"><ele>35.333333333333336</ele><time>2026-04-09T08:04:53Z</time></trkpt><trkpt lat="39.25311565307521" lon="9.234542710666084"><ele>36.0</ele><time>2026-04-09T08:04:54Z</time></trkpt><trkpt lat="39.25323054898518" lon="9.234732301685263"><ele>36.666666666666664</ele><time>2026-04-09T08:04:55Z</time></trkpt><trkpt lat="39.2533440682636" lon="9.234919802640807"><ele>37.33333333333333</ele><time>2026-04-09T08:04:56Z</time></trkpt><trkpt lat="39.25345435867163" lon="9.235095962259338"><ele>38.0</ele><time>2026-04-09T08:04:57Z</time></trkpt><trkpt lat="39.25355910989391" lon="9.23526424340184"><ele>38.0</ele><time>2026-04-09T08:04:58Z</time></trkpt><trkpt lat="39.25365919090311" lon="9.2354202795258"><ele>38.0</ele><time>2026-04-09T08:04:59Z</time></trkpt><trkpt lat="39.25375220762695" lon="9.235566221025202"><ele>38.0</ele><time>2026-04-09T08:05:00Z</time></trkpt><trkpt lat="39.25384143960008" lon="9.23571015118374"><ele>38.0</ele><time>2026-04-09T08:05:01Z</time></trkpt><trkpt lat="39.253932292032296" lon="9.23585264033001"><ele>38.0</ele><time>2026-04-09T08:05:02Z</time></trkpt><trkpt lat="39.254026693074834" lon="9.236002211267166"><ele>38.0</ele><time>2026-04-09T08:05:03Z</time></trkpt><trkpt lat="39.25412401930978" lon="9.236157467966473"><ele>38.0</ele><time>2026-04-09T08:05:04Z</time></trkpt><trkpt lat="39.25422442758144" lon="9.23631333949539"><ele>38.0</ele><time>2026-04-09T08:05:05Z</time></trkpt><trkpt lat="39.25432640336001" lon="9.236468851320787"><ele>38.0</ele><time>2026-04-09T08:05:06Z</time></trkpt><trkpt lat="39.254421451518105" lon="9.236620304652442"><ele>38.0</ele><time>2026-04-09T08:05:07Z</time></trkpt><trkpt lat="39.254508987903364" lon="9.236764747997952"><ele>37.75</ele><time>2026-04-09T08:05:08Z</time></trkpt><trkpt lat="39.25459258997477" lon="9.2368998886509"><ele>37.5</ele><time>2026-04-09T08:05:09Z</time></trkpt><trkpt lat="39.254673848661696" lon="9.237028165572358"><ele>37.25</ele><time>2026-04-09T08:05:10.001Z</time></trkpt><trkpt lat="39.25474984529915" lon="9.237150630541143"><ele>37.0</ele><time>2026-04-09T08:05:11.001Z</time></trkpt><trkpt lat="39.2548232003578" lon="9.237266341386873"><ele>37.0</ele><time>2026-04-09T08:05:12.001Z</time></trkpt><trkpt lat="39.254893510568415" lon="9.237371846926933"><ele>37.0</ele><time>2026-04-09T08:05:13.001Z</time></trkpt><trkpt lat="39.254960466571255" lon="9.237475528705218"><ele>37.0</ele><time>2026-04-09T08:05:14.001Z</time></trkpt><trkpt lat="39.255026031228844" lon="9.237574255930337"><ele>37.0</ele><time>2026-04-09T08:05:15.001Z</time></trkpt><trkpt lat="39.25508441902869" lon="9.237659090860882"><ele>37.0</ele><time>2026-04-09T08:05:16.001Z</time></trkpt><trkpt lat="39.255136158765445" lon="9.237735037630621"><ele>37.0</ele><time>2026-04-09T08:05:17.001Z</time></trkpt><trkpt lat="39.25520585870787" lon="9.237837453612247"><ele>37.0</ele><time>2026-04-09T08:05:19.001Z</time></trkpt><trkpt lat="39.25525868699389" lon="9.237920554197126"><ele>37.0</ele><time>2026-04-09T08:05:22.001Z</time></trkpt><trkpt lat="39.25534399293204" lon="9.237989708700505"><ele>37.0</ele><time>2026-04-09T08:06:18Z</time></trkpt><trkpt lat="39.25542583668346" lon="9.238090461381853"><ele>37.0</ele><time>2026-04-09T08:06:20Z</time></trkpt><trkpt lat="39.255471563246076" lon="9.2381574021902"><ele>37.0</ele><time>2026-04-09T08:06:21Z</time></trkpt><trkpt lat="39.255521896894344" lon="9.23823483282758"><ele>37.0</ele><time>2026-04-09T08:06:22Z</time></trkpt><trkpt lat="39.25557780954895" lon="9.23831776430429"><ele>37.0</ele><time>2026-04-09T08:06:23Z</time></trkpt><trkpt lat="39.25563746411076" lon="9.23839644825621"><ele>37.0</ele><time>2026-04-09T08:06:24Z</time></trkpt><trkpt lat="39.255700031602686" lon="9.23847705518641"><ele>37.0</ele><time>2026-04-09T08:06:25Z</time></trkpt><trkpt lat="39.255771476031384" lon="9.23856726744884"><ele>37.0</ele><time>2026-04-09T08:06:26Z</time></trkpt><trkpt lat="39.25584164622039" lon="9.238660120069522"><ele>37.0</ele><time>2026-04-09T08:06:27Z</time></trkpt><trkpt lat="39.2559161197819" lon="9.238757710508967"><ele>37.0</ele><time>2026-04-09T08:06:28Z</time></trkpt><trkpt lat="39.255992688658914" lon="9.23885509426662"><ele>37.0</ele><time>2026-04-09T08:06:29Z</time></trkpt><trkpt lat="39.25607065933199" lon="9.238958341044906"><ele>37.0</ele><time>2026-04-09T08:06:30Z</time></trkpt><trkpt lat="39.256148641327684" lon="9.23906350155243"><ele>37.0</ele><time>2026-04-09T08:06:31Z</time></trkpt><trkpt lat="39.256229469292236" lon="9.239170440011376"><ele>37.0</ele><time>2026-04-09T08:06:32Z</time></trkpt><trkpt lat="39.25631278593336" lon="9.239275408684255"><ele>37.0</ele><time>2026-04-09T08:06:33Z</time></trkpt><trkpt lat="39.25639833683334" lon="9.23938539189399"><ele>37.0</ele><time>2026-04-09T08:06:34Z</time></trkpt><trkpt lat="39.256482171001316" lon="9.239495562879451"><ele>37.0</ele><time>2026-04-09T08:06:35Z</time></trkpt><trkpt lat="39.25657231559221" lon="9.239610746801711"><ele>36.75</ele><time>2026-04-09T08:06:36Z</time></trkpt><trkpt lat="39.2566600133714" lon="9.239724506496998"><ele>36.5</ele><time>2026-04-09T08:06:37Z</time></trkpt><trkpt lat="39.25675150873258" lon="9.23984269412404"><ele>36.25</ele><time>2026-04-09T08:06:38Z</time></trkpt><trkpt lat="39.25683795756382" lon="9.239954991445586"><ele>36.0</ele><time>2026-04-09T08:06:39Z</time></trkpt><trkpt lat="39.25692359292333" lon="9.240064794305688"><ele>36.25</ele><time>2026-04-09T08:06:40Z</time></trkpt><trkpt lat="39.25700930583668" lon="9.240179121413231"><ele>36.5</ele><time>2026-04-09T08:06:41Z</time></trkpt><trkpt lat="39.25709951080135" lon="9.240300795693894"><ele>36.75</ele><time>2026-04-09T08:06:42Z</time></trkpt><trkpt lat="39.25720047834053" lon="9.240428060407654"><ele>37.0</ele><time>2026-04-09T08:06:43Z</time></trkpt><trkpt lat="39.257314822852" lon="9.24056106283329"><ele>36.66666666666667</ele><time>2026-04-09T08:06:44Z</time></trkpt><trkpt lat="39.25744005129861" lon="9.24068944284407"><ele>36.333333333333336</ele><time>2026-04-09T08:06:45Z</time></trkpt><trkpt lat="39.25759780538371" lon="9.240786225775452"><ele>36.0</ele><time>2026-04-09T08:06:46Z</time></trkpt><trkpt lat="39.25777121104205" lon="9.240839742733518"><ele>36.0</ele><time>2026-04-09T08:06:47Z</time></trkpt><trkpt lat="39.25795312492047" lon="9.240851955751674"><ele>36.0</ele><time>2026-04-09T08:06:48Z</time></trkpt><trkpt lat="39.258135144691806" lon="9.240822375421493"><ele>36.0</ele><time>2026-04-09T08:06:49Z</time></trkpt><trkpt lat="39.25831095543827" lon="9.240755702126492"><ele>36.0</ele><time>2026-04-09T08:06:50Z</time></trkpt><trkpt lat="39.258478729410555" lon="9.240663560240847"><ele>36.0</ele><time>2026-04-09T08:06:51Z</time></trkpt><trkpt lat="39.258651139336976" lon="9.240569194052702"><ele>36.0</ele><time>2026-04-09T08:06:52Z</time></trkpt><trkpt lat="39.25882417446998" lon="9.24048096807574"><ele>36.666666666666664</ele><time>2026-04-09T08:06:53Z</time></trkpt><trkpt lat="39.25899626010581" lon="9.240391485791736"><ele>37.33333333333333</ele><time>2026-04-09T08:06:54Z</time></trkpt><trkpt lat="39.259171521357715" lon="9.240298745135576"><ele>38.0</ele><time>2026-04-09T08:06:55Z</time></trkpt><trkpt lat="39.25934649879678" lon="9.240207618422321"><ele>38.0</ele><time>2026-04-09T08:06:56Z</time></trkpt><trkpt lat="39.25951449562587" lon="9.240118501428963"><ele>38.0</ele><time>2026-04-09T08:06:57Z</time></trkpt><trkpt lat="39.2596811174682" lon="9.240031511652251"><ele>38.0</ele><time>2026-04-09T08:06:58Z</time></trkpt><trkpt lat="39.259847534621414" lon="9.239941989396765"><ele>38.0</ele><time>2026-04-09T08:06:59Z</time></trkpt><trkpt lat="39.26001674835116" lon="9.239852562133274"><ele>38.0</ele><time>2026-04-09T08:07:00.001Z</time></trkpt><trkpt lat="39.2601883023142" lon="9.239760822818331"><ele>38.0</ele><time>2026-04-09T08:07:01.001Z</time></trkpt><trkpt lat="39.26035663566998" lon="9.23966835210406"><ele>38.33333333333333</ele><time>2026-04-09T08:07:02.001Z</time></trkpt><trkpt lat="39.260524410088436" lon="9.239580811485324"><ele>38.666666666666664</ele><time>2026-04-09T08:07:03.001Z</time></trkpt><trkpt lat="39.26069258655562" lon="9.239495665380334"><ele>39.0</ele><time>2026-04-09T08:07:04.001Z</time></trkpt><trkpt lat="39.26086055077058" lon="9.239407507983762"><ele>39.0</ele><time>2026-04-09T08:07:05.001Z</time></trkpt><trkpt lat="39.26102902742077" lon="9.239318154424733"><ele>39.0</ele><time>2026-04-09T08:07:06.001Z</time></trkpt><trkpt lat="39.26119525586957" lon="9.239226593202671"><ele>39.0</ele><time>2026-04-09T08:07:07.001Z</time></trkpt><trkpt lat="39.26136008648038" lon="9.239134982177436"><ele>39.333333333333336</ele><time>2026-04-09T08:07:08.001Z</time></trkpt><trkpt lat="39.26152280606265" lon="9.239044936750087"><ele>39.66666666666667</ele><time>2026-04-09T08:07:09.001Z</time></trkpt><trkpt lat="39.26167601037868" lon="9.23896621318246"><ele>40.0</ele><time>2026-04-09T08:07:10.001Z</time></trkpt><trkpt lat="39.26181435807016" lon="9.238905986787431"><ele>40.4</ele><time>2026-04-09T08:07:11.001Z</time></trkpt><trkpt lat="39.26193753579031" lon="9.238874094683053"><ele>40.8</ele><time>2026-04-09T08:07:12.001Z</time></trkpt><trkpt lat="39.262044316235915" lon="9.238873363845592"><ele>41.2</ele><time>2026-04-09T08:07:13.001Z</time></trkpt><trkpt lat="39.2621391223378" lon="9.238868407385285"><ele>41.6</ele><time>2026-04-09T08:07:14.001Z</time></trkpt><trkpt lat="39.262206934586956" lon="9.23883092256654"><ele>42.0</ele><time>2026-04-09T08:07:15.001Z</time></trkpt><trkpt lat="39.262259067097496" lon="9.238751032104844"><ele>42.25</ele><time>2026-04-09T08:07:16.001Z</time></trkpt><trkpt lat="39.26230752710505" lon="9.23862986478139"><ele>42.5</ele><time>2026-04-09T08:07:17.001Z</time></trkpt><trkpt lat="39.26237886929889" lon="9.238490108498493"><ele>42.75</ele><time>2026-04-09T08:07:18.001Z</time></trkpt><trkpt lat="39.26248657305732" lon="9.238388262400127"><ele>43.0</ele><time>2026-04-09T08:07:19.001Z</time></trkpt><trkpt lat="39.262595034891675" lon="9.238259765378626"><ele>43.0</ele><time>2026-04-09T08:07:20.001Z</time></trkpt><trkpt lat="39.26272943679818" lon="9.238136270317915"><ele>43.0</ele><time>2026-04-09T08:07:21.001Z</time></trkpt><trkpt lat="39.26286542385855" lon="9.237999528013074"><ele>43.0</ele><time>2026-04-09T08:07:22.001Z</time></trkpt><trkpt lat="39.26300599139785" lon="9.237855918911343"><ele>42.66666666666667</ele><time>2026-04-09T08:07:23.001Z</time></trkpt><trkpt lat="39.26315787363542" lon="9.237701856595505"><ele>42.333333333333336</ele><time>2026-04-09T08:07:24.001Z</time></trkpt><trkpt lat="39.26331117130516" lon="9.237549912044214"><ele>42.0</ele><time>2026-04-09T08:07:25.001Z</time></trkpt><trkpt lat="39.26346706217754" lon="9.237396675311333"><ele>42.333333333333336</ele><time>2026-04-09T08:07:26.001Z</time></trkpt><trkpt lat="39.26361037115321" lon="9.23725048110519"><ele>42.66666666666667</ele><time>2026-04-09T08:07:27.001Z</time></trkpt><trkpt lat="39.26374261930298" lon="9.23711518162096"><ele>43.0</ele><time>2026-04-09T08:07:28.001Z</time></trkpt><trkpt lat="39.26386538643645" lon="9.236990937703764"><ele>43.333333333333336</ele><time>2026-04-09T08:07:29.001Z</time></trkpt><trkpt lat="39.26398407386183" lon="9.23686752217367"><ele>43.666666666666664</ele><time>2026-04-09T08:07:30.001Z</time></trkpt><trkpt lat="39.264110423174905" lon="9.236738893643148"><ele>44.0</ele><time>2026-04-09T08:07:31.001Z</time></trkpt><trkpt lat="39.264246979339205" lon="9.236604054865868"><ele>43.666666666666664</ele><time>2026-04-09T08:07:32.001Z</time></trkpt><trkpt lat="39.2643898674954" lon="9.236459115772393"><ele>43.333333333333336</ele><time>2026-04-09T08:07:33.001Z</time></trkpt><trkpt lat="39.26453640671421" lon="9.236308405034308"><ele>43.0</ele><time>2026-04-09T08:07:34.001Z</time></trkpt><trkpt lat="39.26468151717488" lon="9.236156723199105"><ele>43.66666666666667</ele><time>2026-04-09T08:07:35.001Z</time></trkpt><trkpt lat="39.264824979528676" lon="9.236011389104982"><ele>44.333333333333336</ele><time>2026-04-09T08:07:36.001Z</time></trkpt><trkpt lat="39.264967242399905" lon="9.235870807537335"><ele>45.0</ele><time>2026-04-09T08:07:37.001Z</time></trkpt><trkpt lat="39.265110453490884" lon="9.235729142598824"><ele>45.333333333333336</ele><time>2026-04-09T08:07:38.001Z</time></trkpt><trkpt lat="39.26525296441933" lon="9.23558635792509"><ele>45.66666666666667</ele><time>2026-04-09T08:07:39.001Z</time></trkpt><trkpt lat="39.265393898851414" lon="9.235446632123326"><ele>46.0</ele><time>2026-04-09T08:07:40.001Z</time></trkpt><trkpt lat="39.26553178401229" lon="9.235314527319517"><ele>46.333333333333336</ele><time>2026-04-09T08:07:41.001Z</time></trkpt><trkpt lat="39.265669367991634" lon="9.23518205899702"><ele>46.666666666666664</ele><time>2026-04-09T08:07:42.001Z</time></trkpt><trkpt lat="39.265807259052586" lon="9.235047803751366"><ele>47.0</ele><time>2026-04-09T08:07:43.001Z</time></trkpt><trkpt lat="39.26594624830449" lon="9.234910402977645"><ele>47.0</ele><time>2026-04-09T08:07:44.001Z</time></trkpt><trkpt lat="39.266082085167476" lon="9.234771417737088"><ele>47.0</ele><time>2026-04-09T08:07:45.001Z</time></trkpt><trkpt lat="39.26621791344573" lon="9.234631883461608"><ele>47.0</ele><time>2026-04-09T08:07:46.001Z</time></trkpt><trkpt lat="39.266355782147784" lon="9.234489145263504"><ele>47.33333333333333</ele><time>2026-04-09T08:07:47.001Z</time></trkpt><trkpt lat="39.266495807785056" lon="9.234347102646309"><ele>47.666666666666664</ele><time>2026-04-09T08:07:48.001Z</time></trkpt><trkpt lat="39.26663382832855" lon="9.234205285704434"><ele>48.0</ele><time>2026-04-09T08:07:49.001Z</time></trkpt><trkpt lat="39.266770181902956" lon="9.234067629759465"><ele>48.33333333333333</ele><time>2026-04-09T08:07:50.001Z</time></trkpt><trkpt lat="39.26690518150554" lon="9.233934002077078"><ele>48.666666666666664</ele><time>2026-04-09T08:07:51.001Z</time></trkpt><trkpt lat="39.26703815027576" lon="9.23380439171137"><ele>49.0</ele><time>2026-04-09T08:07:52.001Z</time></trkpt><trkpt lat="39.267173861195495" lon="9.233679657330162"><ele>49.666666666666664</ele><time>2026-04-09T08:07:53.001Z</time></trkpt><trkpt lat="39.26731437761558" lon="9.233565049198289"><ele>50.33333333333333</ele><time>2026-04-09T08:07:54.001Z</time></trkpt><trkpt lat="39.267464015813346" lon="9.233468739578658"><ele>51.0</ele><time>2026-04-09T08:07:55.001Z</time></trkpt><trkpt lat="39.26762081732341" lon="9.233382012128851"><ele>51.0</ele><time>2026-04-09T08:07:56.001Z</time></trkpt><trkpt lat="39.26777722959851" lon="9.233291864125839"><ele>51.0</ele><time>2026-04-09T08:07:57.001Z</time></trkpt><trkpt lat="39.26793543699172" lon="9.233196445582212"><ele>51.0</ele><time>2026-04-09T08:07:58.001Z</time></trkpt><trkpt lat="39.26809081178168" lon="9.23309701133745"><ele>50.66666666666667</ele><time>2026-04-09T08:07:59.001Z</time></trkpt><trkpt lat="39.26824301204693" lon="9.232993491064844"><ele>50.333333333333336</ele><time>2026-04-09T08:08:00.001Z</time></trkpt><trkpt lat="39.268394622334945" lon="9.232887064412727"><ele>50.0</ele><time>2026-04-09T08:08:01.001Z</time></trkpt><trkpt lat="39.26854412853338" lon="9.232768129028548"><ele>50.0</ele><time>2026-04-09T08:08:02.001Z</time></trkpt><trkpt lat="39.26869702997587" lon="9.232638262236575"><ele>50.0</ele><time>2026-04-09T08:08:03.001Z</time></trkpt><trkpt lat="39.26884997233194" lon="9.232506240090107"><ele>50.0</ele><time>2026-04-09T08:08:04.001Z</time></trkpt><trkpt lat="39.26899919009219" lon="9.232378580194826"><ele>51.0</ele><time>2026-04-09T08:08:05.001Z</time></trkpt><trkpt lat="39.26914968519277" lon="9.232253087829436"><ele>52.0</ele><time>2026-04-09T08:08:06.001Z</time></trkpt><trkpt lat="39.26930371153813" lon="9.232129681035794"><ele>53.0</ele><time>2026-04-09T08:08:07Z</time></trkpt><trkpt lat="39.26945551596944" lon="9.232005604147771"><ele>53.0</ele><time>2026-04-09T08:08:08Z</time></trkpt><trkpt lat="39.2696089008795" lon="9.231880660675818"><ele>53.0</ele><time>2026-04-09T08:08:09Z</time></trkpt><trkpt lat="39.26976065333024" lon="9.231751909622709"><ele>53.0</ele><time>2026-04-09T08:08:10Z</time></trkpt><trkpt lat="39.269914014004115" lon="9.231620314909152"><ele>53.66666666666667</ele><time>2026-04-09T08:08:11Z</time></trkpt><trkpt lat="39.27006876281559" lon="9.231492356084274"><ele>54.33333333333333</ele><time>2026-04-09T08:08:12Z</time></trkpt><trkpt lat="39.2702213745356" lon="9.231366160085745"><ele>55.0</ele><time>2026-04-09T08:08:13Z</time></trkpt><trkpt lat="39.27037341301557" lon="9.231238947778465"><ele>55.33333333333333</ele><time>2026-04-09T08:08:14Z</time></trkpt><trkpt lat="39.270526884743916" lon="9.231108027321278"><ele>55.66666666666667</ele><time>2026-04-09T08:08:15Z</time></trkpt><trkpt lat="39.270680498473226" lon="9.230979568856545"><ele>56.0</ele><time>2026-04-09T08:08:16Z</time></trkpt><trkpt lat="39.27082909102797" lon="9.230856307932932"><ele>57.0</ele><time>2026-04-09T08:08:17Z</time></trkpt><trkpt lat="39.270979224680985" lon="9.230729780544928"><ele>58.0</ele><time>2026-04-09T08:08:18Z</time></trkpt><trkpt lat="39.27112536423037" lon="9.230607572844583"><ele>59.0</ele><time>2026-04-09T08:08:19Z</time></trkpt><trkpt lat="39.27126949233124" lon="9.230490975136652"><ele>59.25</ele><time>2026-04-09T08:08:20Z</time></trkpt><trkpt lat="39.27140379222211" lon="9.23038085494107"><ele>59.5</ele><time>2026-04-09T08:08:21Z</time></trkpt><trkpt lat="39.27152709604888" lon="9.23028751928938"><ele>59.75</ele><time>2026-04-09T08:08:22Z</time></trkpt><trkpt lat="39.27165221259983" lon="9.230211998225835"><ele>60.0</ele><time>2026-04-09T08:08:23Z</time></trkpt><trkpt lat="39.27179075993945" lon="9.230151282364682"><ele>60.66666666666667</ele><time>2026-04-09T08:08:24Z</time></trkpt><trkpt lat="39.271944412115474" lon="9.23012016569075"><ele>61.333333333333336</ele><time>2026-04-09T08:08:25Z</time></trkpt><trkpt lat="39.272108896881406" lon="9.230122870021987"><ele>62.0</ele><time>2026-04-09T08:08:26Z</time></trkpt><trkpt lat="39.272289149347834" lon="9.230163796582353"><ele>62.0</ele><time>2026-04-09T08:08:27Z</time></trkpt><trkpt lat="39.27246943150498" lon="9.230207811236422"><ele>62.0</ele><time>2026-04-09T08:08:28Z</time></trkpt><trkpt lat="39.27264535917203" lon="9.230237033924137"><ele>62.0</ele><time>2026-04-09T08:08:29Z</time></trkpt><trkpt lat="39.272809935039895" lon="9.230252944608111"><ele>62.0</ele><time>2026-04-09T08:08:30Z</time></trkpt><trkpt lat="39.27296464522099" lon="9.230271853695099"><ele>62.0</ele><time>2026-04-09T08:08:31Z</time></trkpt><trkpt lat="39.27311899763163" lon="9.230285574074548"><ele>62.0</ele><time>2026-04-09T08:08:32Z</time></trkpt><trkpt lat="39.27327289354753" lon="9.230298190334445"><ele>61.66666666666667</ele><time>2026-04-09T08:08:33Z</time></trkpt><trkpt lat="39.27343411442411" lon="9.230335045452867"><ele>61.33333333333333</ele><time>2026-04-09T08:08:34Z</time></trkpt><trkpt lat="39.273597687058185" lon="9.230366784167305"><ele>61.0</ele><time>2026-04-09T08:08:35Z</time></trkpt><trkpt lat="39.273752959843335" lon="9.230381997093184"><ele>61.0</ele><time>2026-04-09T08:08:36Z</time></trkpt><trkpt lat="39.27389705279445" lon="9.230400014300558"><ele>61.0</ele><time>2026-04-09T08:08:37Z</time></trkpt><trkpt lat="39.27405254672781" lon="9.230416029716972"><ele>61.0</ele><time>2026-04-09T08:08:38Z</time></trkpt><trkpt lat="39.274209021018216" lon="9.230421745280886"><ele>61.5</ele><time>2026-04-09T08:08:39Z</time></trkpt><trkpt lat="39.27436318913728" lon="9.230408119109423"><ele>62.0</ele><time>2026-04-09T08:08:40Z</time></trkpt><trkpt lat="39.274504657963064" lon="9.230384786189784"><ele>62.5</ele><time>2026-04-09T08:08:41Z</time></trkpt><trkpt lat="39.274608236098715" lon="9.230352828211526"><ele>63.0</ele><time>2026-04-09T08:08:42Z</time></trkpt><trkpt lat="39.27469156126911" lon="9.230320305463867"><ele>63.0</ele><time>2026-04-09T08:08:43Z</time></trkpt><trkpt lat="39.27476759811263" lon="9.23028466655151"><ele>63.0</ele><time>2026-04-09T08:08:44Z</time></trkpt><trkpt lat="39.274834163946366" lon="9.230247316334658"><ele>63.0</ele><time>2026-04-09T08:08:45Z</time></trkpt><trkpt lat="39.27493554570296" lon="9.230189119391714"><ele>63.0</ele><time>2026-04-09T08:08:47Z</time></trkpt><trkpt lat="39.27501223617561" lon="9.230151149802973"><ele>63.0</ele><time>2026-04-09T08:08:49Z</time></trkpt><trkpt lat="39.2750710870973" lon="9.230117053719965"><ele>63.0</ele><time>2026-04-09T08:08:51Z</time></trkpt><trkpt lat="39.27514994466389" lon="9.230077746896978"><ele>63.166666666666664</ele><time>2026-04-09T08:09:13.001Z</time></trkpt><trkpt lat="39.275240170272674" lon="9.230021842113725"><ele>63.33333333333333</ele><time>2026-04-09T08:09:15.001Z</time></trkpt><trkpt lat="39.275308716838005" lon="9.22999354612983"><ele>63.5</ele><time>2026-04-09T08:09:16.001Z</time></trkpt><trkpt lat="39.27537545897136" lon="9.22996254966226"><ele>63.666666666666664</ele><time>2026-04-09T08:09:17.001Z</time></trkpt><trkpt lat="39.275453072580405" lon="9.229916590505507"><ele>63.83333333333333</ele><time>2026-04-09T08:09:18.001Z</time></trkpt><trkpt lat="39.275532556032545" lon="9.22986657864872"><ele>64.0</ele><time>2026-04-09T08:09:19.001Z</time></trkpt><trkpt lat="39.27561307065266" lon="9.22982042423262"><ele>64.2</ele><time>2026-04-09T08:09:20.001Z</time></trkpt><trkpt lat="39.27569365626089" lon="9.229774893916497"><ele>64.4</ele><time>2026-04-09T08:09:21.001Z</time></trkpt><trkpt lat="39.27577940173937" lon="9.229725463187089"><ele>64.6</ele><time>2026-04-09T08:09:22.001Z</time></trkpt><trkpt lat="39.27586207079351" lon="9.229680006649085"><ele>64.8</ele><time>2026-04-09T08:09:23.001Z</time></trkpt><trkpt lat="39.27595596092452" lon="9.22962929130556"><ele>65.0</ele><time>2026-04-09T08:09:24.001Z</time></trkpt><trkpt lat="39.27605861489275" lon="9.22957470777152"><ele>65.0</ele><time>2026-04-09T08:09:25.001Z</time></trkpt><trkpt lat="39.276166755783784" lon="9.229515113930542"><ele>65.0</ele><time>2026-04-09T08:09:26.001Z</time></trkpt><trkpt lat="39.27627796886093" lon="9.229452237259567"><ele>65.0</ele><time>2026-04-09T08:09:27.001Z</time></trkpt><trkpt lat="39.2763947529453" lon="9.229391698039366"><ele>65.0</ele><time>2026-04-09T08:09:28.001Z</time></trkpt><trkpt lat="39.27651615768221" lon="9.229326887398356"><ele>65.33333333333334</ele><time>2026-04-09T08:09:29.001Z</time></trkpt><trkpt lat="39.276648031662134" lon="9.22925300912677"><ele>65.66666666666667</ele><time>2026-04-09T08:09:30.001Z</time></trkpt><trkpt lat="39.276788608713936" lon="9.229171162037217"><ele>66.0</ele><time>2026-04-09T08:09:31.001Z</time></trkpt><trkpt lat="39.27693909510812" lon="9.22908697632864"><ele>66.0</ele><time>2026-04-09T08:09:32.001Z</time></trkpt><trkpt lat="39.277090999378096" lon="9.229002541932498"><ele>66.0</ele><time>2026-04-09T08:09:33.001Z</time></trkpt><trkpt lat="39.27724873030372" lon="9.228916537287867"><ele>66.0</ele><time>2026-04-09T08:09:34.001Z</time></trkpt><trkpt lat="39.27740841811477" lon="9.228826011474794"><ele>66.0</ele><time>2026-04-09T08:09:35.001Z</time></trkpt><trkpt lat="39.2775712387311" lon="9.228735819713247"><ele>66.0</ele><time>2026-04-09T08:09:36.001Z</time></trkpt><trkpt lat="39.27773817621799" lon="9.22864387421196"><ele>66.0</ele><time>2026-04-09T08:09:37.001Z</time></trkpt><trkpt lat="39.27790923265829" lon="9.228548277125112"><ele>66.0</ele><time>2026-04-09T08:09:38.001Z</time></trkpt><trkpt lat="39.27808294751729" lon="9.228445181639259"><ele>66.0</ele><time>2026-04-09T08:09:39.001Z</time></trkpt><trkpt lat="39.27825787059369" lon="9.228331933271168"><ele>66.0</ele><time>2026-04-09T08:09:40.001Z</time></trkpt><trkpt lat="39.2784344621223" lon="9.228212982052943"><ele>67.33333333333333</ele><time>2026-04-09T08:09:41.001Z</time></trkpt><trkpt lat="39.27861264584579" lon="9.228090735880617"><ele>68.66666666666666</ele><time>2026-04-09T08:09:42.001Z</time></trkpt><trkpt lat="39.27879466335024" lon="9.227966772981574"><ele>70.0</ele><time>2026-04-09T08:09:43.001Z</time></trkpt><trkpt lat="39.27898099471716" lon="9.227843465442799"><ele>70.0</ele><time>2026-04-09T08:09:44.001Z</time></trkpt><trkpt lat="39.27916453996095" lon="9.227719451028284"><ele>70.0</ele><time>2026-04-09T08:09:45.001Z</time></trkpt><trkpt lat="39.27934859582037" lon="9.227589073363358"><ele>70.0</ele><time>2026-04-09T08:09:46.001Z</time></trkpt><trkpt lat="39.27953780848482" lon="9.22746592666073"><ele>70.0</ele><time>2026-04-09T08:09:47.001Z</time></trkpt><trkpt lat="39.279727805459686" lon="9.227339685360478"><ele>70.0</ele><time>2026-04-09T08:09:48.001Z</time></trkpt><trkpt lat="39.27991879254797" lon="9.227213094298003"><ele>70.0</ele><time>2026-04-09T08:09:49.001Z</time></trkpt><trkpt lat="39.28011006804279" lon="9.227086408931596"><ele>69.66666666666666</ele><time>2026-04-09T08:09:50.001Z</time></trkpt><trkpt lat="39.280299122679295" lon="9.226959588533772"><ele>69.33333333333333</ele><time>2026-04-09T08:09:51.001Z</time></trkpt><trkpt lat="39.28048794134244" lon="9.22683300423707"><ele>69.0</ele><time>2026-04-09T08:09:52.001Z</time></trkpt><trkpt lat="39.28068281308657" lon="9.226708301557878"><ele>70.33333333333333</ele><time>2026-04-09T08:09:53.001Z</time></trkpt><trkpt lat="39.28087254180323" lon="9.226579980155615"><ele>71.66666666666666</ele><time>2026-04-09T08:09:54.001Z</time></trkpt><trkpt lat="39.281063509641655" lon="9.226452809072843"><ele>73.0</ele><time>2026-04-09T08:09:55.001Z</time></trkpt><trkpt lat="39.281251652521476" lon="9.226329660391338"><ele>73.33333333333333</ele><time>2026-04-09T08:09:56.001Z</time></trkpt><trkpt lat="39.281436819810246" lon="9.226220630822402"><ele>73.66666666666667</ele><time>2026-04-09T08:09:57.001Z</time></trkpt><trkpt lat="39.28162099430937" lon="9.226135214477964"><ele>74.0</ele><time>2026-04-09T08:09:58.001Z</time></trkpt><trkpt lat="39.28181011252697" lon="9.226071452782081"><ele>74.0</ele><time>2026-04-09T08:09:59.001Z</time></trkpt><trkpt lat="39.28199335708758" lon="9.226028540776072"><ele>74.0</ele><time>2026-04-09T08:10:00.001Z</time></trkpt><trkpt lat="39.28218399049827" lon="9.226009470814619"><ele>74.0</ele><time>2026-04-09T08:10:01.001Z</time></trkpt><trkpt lat="39.2823819921098" lon="9.22599194994779"><ele>75.0</ele><time>2026-04-09T08:10:02.001Z</time></trkpt><trkpt lat="39.28257845372976" lon="9.225971306233442"><ele>76.0</ele><time>2026-04-09T08:10:03.001Z</time></trkpt><trkpt lat="39.28277009942538" lon="9.225945671082671"><ele>77.0</ele><time>2026-04-09T08:10:04.001Z</time></trkpt><trkpt lat="39.282959762281465" lon="9.225922479960678"><ele>77.33333333333334</ele><time>2026-04-09T08:10:05.001Z</time></trkpt><trkpt lat="39.28315127824142" lon="9.225902189748052"><ele>77.66666666666667</ele><time>2026-04-09T08:10:06.001Z</time></trkpt><trkpt lat="39.283335217496095" lon="9.225877607803069"><ele>78.0</ele><time>2026-04-09T08:10:07.001Z</time></trkpt><trkpt lat="39.28351264129221" lon="9.225851564711364"><ele>78.0</ele><time>2026-04-09T08:10:08.001Z</time></trkpt><trkpt lat="39.28368538160637" lon="9.225808027656953"><ele>78.0</ele><time>2026-04-09T08:10:09.001Z</time></trkpt><trkpt lat="39.28384810084719" lon="9.22575566806995"><ele>78.0</ele><time>2026-04-09T08:10:10.001Z</time></trkpt><trkpt lat="39.284003023063086" lon="9.225683542753007"><ele>79.0</ele><time>2026-04-09T08:10:11.001Z</time></trkpt><trkpt lat="39.28415244791688" lon="9.225591136972602"><ele>80.0</ele><time>2026-04-09T08:10:12.001Z</time></trkpt><trkpt lat="39.28429533313611" lon="9.225482547515327"><ele>81.0</ele><time>2026-04-09T08:10:13Z</time></trkpt><trkpt lat="39.284431087569494" lon="9.225364176351503"><ele>81.0</ele><time>2026-04-09T08:10:14Z</time></trkpt><trkpt lat="39.28456027565867" lon="9.225239028225333"><ele>81.0</ele><time>2026-04-09T08:10:15Z</time></trkpt><trkpt lat="39.284694121973715" lon="9.225116636391084"><ele>81.0</ele><time>2026-04-09T08:10:16Z</time></trkpt><trkpt lat="39.28483721597499" lon="9.225008257019676"><ele>81.0</ele><time>2026-04-09T08:10:17Z</time></trkpt><trkpt lat="39.28495826544417" lon="9.22487135807447"><ele>81.0</ele><time>2026-04-09T08:10:18Z</time></trkpt><trkpt lat="39.28508443628375" lon="9.224758732433921"><ele>81.0</ele><time>2026-04-09T08:10:19Z</time></trkpt><trkpt lat="39.28519675074795" lon="9.224654070714715"><ele>81.5</ele><time>2026-04-09T08:10:20Z</time></trkpt><trkpt lat="39.2853073979547" lon="9.224554746240035"><ele>82.0</ele><time>2026-04-09T08:10:21Z</time></trkpt><trkpt lat="39.285419593001166" lon="9.224477141232663"><ele>82.5</ele><time>2026-04-09T08:10:22Z</time></trkpt><trkpt lat="39.28550233911545" lon="9.224376481262386"><ele>83.0</ele><time>2026-04-09T08:10:23Z</time></trkpt><trkpt lat="39.28558244472225" lon="9.224307001147881"><ele>83.0</ele><time>2026-04-09T08:10:24Z</time></trkpt><trkpt lat="39.28565588950133" lon="9.224247249036688"><ele>83.0</ele><time>2026-04-09T08:10:25Z</time></trkpt><trkpt lat="39.285721631675266" lon="9.224198064821278"><ele>83.0</ele><time>2026-04-09T08:10:26Z</time></trkpt><trkpt lat="39.28580155599992" lon="9.224169434400944"><ele>83.0</ele><time>2026-04-09T08:10:27Z</time></trkpt><trkpt lat="39.28587450223388" lon="9.22410906600194"><ele>83.0</ele><time>2026-04-09T08:10:28Z</time></trkpt><trkpt lat="39.28588260165561" lon="9.223927107275117"><ele>83.5</ele><time>2026-04-09T08:10:29Z</time></trkpt><trkpt lat="39.285918329513606" lon="9.223778937479954"><ele>84.0</ele><time>2026-04-09T08:10:30Z</time></trkpt><trkpt lat="39.28596285083209" lon="9.223625770619487"><ele>84.5</ele><time>2026-04-09T08:10:31Z</time></trkpt><trkpt lat="39.286019282347254" lon="9.223472967919697"><ele>85.0</ele><time>2026-04-09T08:10:32Z</time></trkpt><trkpt lat="39.28607197478522" lon="9.223306918475974"><ele>84.25</ele><time>2026-04-09T08:10:33Z</time></trkpt><trkpt lat="39.28612463396958" lon="9.223130225499597"><ele>83.5</ele><time>2026-04-09T08:10:34Z</time></trkpt><trkpt lat="39.28617971239562" lon="9.222951555172497"><ele>82.75</ele><time>2026-04-09T08:10:35Z</time></trkpt><trkpt lat="39.286233776724416" lon="9.222782974947418"><ele>82.0</ele><time>2026-04-09T08:10:36Z</time></trkpt><trkpt lat="39.286280752366636" lon="9.222630655040133"><ele>82.0</ele><time>2026-04-09T08:10:37Z</time></trkpt><trkpt lat="39.28632550741489" lon="9.222490086208055"><ele>82.0</ele><time>2026-04-09T08:10:38Z</time></trkpt><trkpt lat="39.28636683428889" lon="9.222358603551411"><ele>82.0</ele><time>2026-04-09T08:10:39Z</time></trkpt><trkpt lat="39.28639899224083" lon="9.222238836487845"><ele>82.0</ele><time>2026-04-09T08:10:40Z</time></trkpt><trkpt lat="39.286432805292236" lon="9.222129111368375"><ele>82.0</ele><time>2026-04-09T08:10:41Z</time></trkpt><trkpt lat="39.28646513654279" lon="9.222035094472144"><ele>82.16666666666666</ele><time>2026-04-09T08:10:42Z</time></trkpt><trkpt lat="39.2864917455141" lon="9.221954496828062"><ele>82.33333333333333</ele><time>2026-04-09T08:10:43Z</time></trkpt><trkpt lat="39.28652728725112" lon="9.221838918356605"><ele>82.5</ele><time>2026-04-09T08:10:45Z</time></trkpt><trkpt lat="39.286555183567074" lon="9.221755159039231"><ele>82.66666666666667</ele><time>2026-04-09T08:10:50Z</time></trkpt><trkpt lat="39.286579634509074" lon="9.221647964853343"><ele>82.83333333333334</ele><time>2026-04-09T08:11:34.001Z</time></trkpt><trkpt lat="39.286610447962616" lon="9.221563280873667"><ele>83.0</ele><time>2026-04-09T08:11:35.001Z</time></trkpt><trkpt lat="39.286637698164625" lon="9.221462411732778"><ele>83.2</ele><time>2026-04-09T08:11:36.001Z</time></trkpt><trkpt lat="39.28667327344444" lon="9.221361005154034"><ele>83.4</ele><time>2026-04-09T08:11:37.001Z</time></trkpt><trkpt lat="39.28670230901347" lon="9.221256059425253"><ele>83.60000000000001</ele><time>2026-04-09T08:11:38.001Z</time></trkpt><trkpt lat="39.286742475551975" lon="9.221145446738666"><ele>83.80000000000001</ele><time>2026-04-09T08:11:39.001Z</time></trkpt><trkpt lat="39.286783748923625" lon="9.2210277505191"><ele>84.0</ele><time>2026-04-09T08:11:40.001Z</time></trkpt><trkpt lat="39.28682982806761" lon="9.220899808967504"><ele>84.0</ele><time>2026-04-09T08:11:41.001Z</time></trkpt><trkpt lat="39.28686914759459" lon="9.220774433462298"><ele>84.0</ele><time>2026-04-09T08:11:42.001Z</time></trkpt><trkpt lat="39.28691167508522" lon="9.22064087368876"><ele>84.0</ele><time>2026-04-09T08:11:43.001Z</time></trkpt><trkpt lat="39.28695506132255" lon="9.220498782166453"><ele>84.0</ele><time>2026-04-09T08:11:44.001Z</time></trkpt><trkpt lat="39.28700077794717" lon="9.220350268149314"><ele>83.75</ele><time>2026-04-09T08:11:45.001Z</time></trkpt><trkpt lat="39.28704589021114" lon="9.220198733218506"><ele>83.5</ele><time>2026-04-09T08:11:46.001Z</time></trkpt><trkpt lat="39.28709145084752" lon="9.220051859778712"><ele>83.25</ele><time>2026-04-09T08:11:47.001Z</time></trkpt><trkpt lat="39.28713403610713" lon="9.2199012084955"><ele>83.0</ele><time>2026-04-09T08:11:48.001Z</time></trkpt><trkpt lat="39.28717876105954" lon="9.219749966122729"><ele>83.0</ele><time>2026-04-09T08:11:49.001Z</time></trkpt><trkpt lat="39.28722437579833" lon="9.219600753724706"><ele>83.0</ele><time>2026-04-09T08:11:50.001Z</time></trkpt><trkpt lat="39.287271294072085" lon="9.21945464954616"><ele>83.0</ele><time>2026-04-09T08:11:51.001Z</time></trkpt><trkpt lat="39.28731667210269" lon="9.21930518760063"><ele>83.0</ele><time>2026-04-09T08:11:52.001Z</time></trkpt><trkpt lat="39.28736360197624" lon="9.21915593757823"><ele>83.75</ele><time>2026-04-09T08:11:53.001Z</time></trkpt><trkpt lat="39.287411270038305" lon="9.219004719182955"><ele>84.5</ele><time>2026-04-09T08:11:54.001Z</time></trkpt><trkpt lat="39.28745754486398" lon="9.218851519613835"><ele>85.25</ele><time>2026-04-09T08:11:55.001Z</time></trkpt><trkpt lat="39.28750674683786" lon="9.218698423215102"><ele>86.0</ele><time>2026-04-09T08:11:56.001Z</time></trkpt><trkpt lat="39.287552859553216" lon="9.218544606820416"><ele>86.0</ele><time>2026-04-09T08:11:57.001Z</time></trkpt><trkpt lat="39.28759816744462" lon="9.218390197585721"><ele>86.0</ele><time>2026-04-09T08:11:58.001Z</time></trkpt><trkpt lat="39.28764388964269" lon="9.218242848979626"><ele>86.0</ele><time>2026-04-09T08:11:59.001Z</time></trkpt><trkpt lat="39.28769234899039" lon="9.218089752617614"><ele>86.0</ele><time>2026-04-09T08:12:00.001Z</time></trkpt><trkpt lat="39.2877382398975" lon="9.217943238960286"><ele>85.8</ele><time>2026-04-09T08:12:01.001Z</time></trkpt><trkpt lat="39.28778114420002" lon="9.217796526150789"><ele>85.6</ele><time>2026-04-09T08:12:02.001Z</time></trkpt><trkpt lat="39.28782351538865" lon="9.217660513925559"><ele>85.4</ele><time>2026-04-09T08:12:03.001Z</time></trkpt><trkpt lat="39.28786308706195" lon="9.217536759897087"><ele>85.2</ele><time>2026-04-09T08:12:04.001Z</time></trkpt><trkpt lat="39.28789487432796" lon="9.217420029566476"><ele>85.0</ele><time>2026-04-09T08:12:05.001Z</time></trkpt><trkpt lat="39.28793515712141" lon="9.21731912417629"><ele>85.33333333333333</ele><time>2026-04-09T08:12:06.001Z</time></trkpt><trkpt lat="39.287935194377326" lon="9.217216181540667"><ele>85.66666666666666</ele><time>2026-04-09T08:12:07.001Z</time></trkpt><trkpt lat="39.28794840953564" lon="9.217136382793765"><ele>86.0</ele><time>2026-04-09T08:12:08.001Z</time></trkpt><trkpt lat="39.287993592341714" lon="9.217001839138886"><ele>86.33333333333333</ele><time>2026-04-09T08:12:10.001Z</time></trkpt><trkpt lat="39.28804102713305" lon="9.216932919225314"><ele>86.66666666666667</ele><time>2026-04-09T08:12:11.001Z</time></trkpt><trkpt lat="39.288078383083054" lon="9.216835130553259"><ele>87.0</ele><time>2026-04-09T08:12:12.001Z</time></trkpt><trkpt lat="39.288108026079875" lon="9.216716338255429"><ele>87.0</ele><time>2026-04-09T08:12:13.001Z</time></trkpt><trkpt lat="39.288161835926786" lon="9.21659513511"><ele>87.0</ele><time>2026-04-09T08:12:14.001Z</time></trkpt><trkpt lat="39.28825882901217" lon="9.216498585569546"><ele>87.0</ele><time>2026-04-09T08:12:15.001Z</time></trkpt><trkpt lat="39.28835093555655" lon="9.216368780841885"><ele>87.0</ele><time>2026-04-09T08:12:16.001Z</time></trkpt><trkpt lat="39.28846164258065" lon="9.216238738144387"><ele>87.0</ele><time>2026-04-09T08:12:17.002Z</time></trkpt><trkpt lat="39.28857549013991" lon="9.21610987061631"><ele>87.0</ele><time>2026-04-09T08:12:18.002Z</time></trkpt><trkpt lat="39.28869059567141" lon="9.21599395348106"><ele>87.0</ele><time>2026-04-09T08:12:19Z</time></trkpt><trkpt lat="39.28881234578986" lon="9.215882297525683"><ele>87.0</ele><time>2026-04-09T08:12:20Z</time></trkpt><trkpt lat="39.28893234374315" lon="9.21577615412261"><ele>87.0</ele><time>2026-04-09T08:12:21Z</time></trkpt><trkpt lat="39.289053220827334" lon="9.215667817729503"><ele>87.0</ele><time>2026-04-09T08:12:22Z</time></trkpt><trkpt lat="39.28917591801913" lon="9.215556952107697"><ele>87.0</ele><time>2026-04-09T08:12:23Z</time></trkpt><trkpt lat="39.289295617723056" lon="9.215449508511067"><ele>87.0</ele><time>2026-04-09T08:12:24Z</time></trkpt><trkpt lat="39.28941041712446" lon="9.215344281901503"><ele>87.25</ele><time>2026-04-09T08:12:25Z</time></trkpt><trkpt lat="39.289519343243676" lon="9.215237906537764"><ele>87.5</ele><time>2026-04-09T08:12:26Z</time></trkpt><trkpt lat="39.28962387523445" lon="9.21514064032986"><ele>87.75</ele><time>2026-04-09T08:12:27Z</time></trkpt><trkpt lat="39.2897259678703" lon="9.215049247116998"><ele>88.0</ele><time>2026-04-09T08:12:28Z</time></trkpt><trkpt lat="39.289826037065765" lon="9.214964218758679"><ele>88.4</ele><time>2026-04-09T08:12:29Z</time></trkpt><trkpt lat="39.28991664764186" lon="9.214883463036108"><ele>88.80000000000001</ele><time>2026-04-09T08:12:30Z</time></trkpt><trkpt lat="39.28999599655292" lon="9.214811026825714"><ele>89.2</ele><time>2026-04-09T08:12:31Z</time></trkpt><trkpt lat="39.290067302730755" lon="9.214745345735677"><ele>89.6</ele><time>2026-04-09T08:12:32Z</time></trkpt><trkpt lat="39.29013353463836" lon="9.214683516996809"><ele>90.0</ele><time>2026-04-09T08:12:33Z</time></trkpt><trkpt lat="39.290198981374274" lon="9.214620065674913"><ele>90.16666666666667</ele><time>2026-04-09T08:12:34Z</time></trkpt><trkpt lat="39.2902682708118" lon="9.214556374943054"><ele>90.33333333333333</ele><time>2026-04-09T08:12:35Z</time></trkpt><trkpt lat="39.290337446726454" lon="9.214497491888816"><ele>90.5</ele><time>2026-04-09T08:12:36Z</time></trkpt><trkpt lat="39.290412929719594" lon="9.214455423859361"><ele>90.66666666666666</ele><time>2026-04-09T08:12:37Z</time></trkpt><trkpt lat="39.2904938619956" lon="9.214449889585048"><ele>90.83333333333333</ele><time>2026-04-09T08:12:38Z</time></trkpt><trkpt lat="39.29057817725391" lon="9.214476179639558"><ele>91.0</ele><time>2026-04-09T08:12:39Z</time></trkpt><trkpt lat="39.2906668028531" lon="9.214490149063652"><ele>91.6</ele><time>2026-04-09T08:12:40Z</time></trkpt><trkpt lat="39.290720814104546" lon="9.2146137067182"><ele>92.19999999999999</ele><time>2026-04-09T08:12:41Z</time></trkpt><trkpt lat="39.29076838886346" lon="9.21469252297426"><ele>92.80000000000001</ele><time>2026-04-09T08:12:42Z</time></trkpt><trkpt lat="39.29080546519152" lon="9.214760919575212"><ele>93.4</ele><time>2026-04-09T08:12:43Z</time></trkpt><trkpt lat="39.290870083626864" lon="9.214873558279532"><ele>94.0</ele><time>2026-04-09T08:12:45Z</time></trkpt><trkpt lat="39.29093673967192" lon="9.215007488001353"><ele>94.0</ele><time>2026-04-09T08:12:47Z</time></trkpt><trkpt lat="39.29098282253261" lon="9.215083927312557"><ele>94.0</ele><time>2026-04-09T08:12:48Z</time></trkpt><trkpt lat="39.29103473952926" lon="9.215155932154373"><ele>94.0</ele><time>2026-04-09T08:12:49Z</time></trkpt><trkpt lat="39.29108828449965" lon="9.215225473730435"><ele>94.0</ele><time>2026-04-09T08:12:50Z</time></trkpt><trkpt lat="39.29115004322839" lon="9.2152924063209"><ele>94.0</ele><time>2026-04-09T08:12:51Z</time></trkpt><trkpt lat="39.2912243662477" lon="9.215360078988226"><ele>94.0</ele><time>2026-04-09T08:12:52Z</time></trkpt><trkpt lat="39.29130949996285" lon="9.215429882603413"><ele>94.0</ele><time>2026-04-09T08:12:53Z</time></trkpt><trkpt lat="39.291409388776465" lon="9.215494394615355"><ele>94.0</ele><time>2026-04-09T08:12:54Z</time></trkpt><trkpt lat="39.29151610735702" lon="9.21554803927227"><ele>94.0</ele><time>2026-04-09T08:12:55Z</time></trkpt><trkpt lat="39.29163327908648" lon="9.215596571508133"><ele>94.0</ele><time>2026-04-09T08:12:56Z</time></trkpt><trkpt lat="39.291762023641716" lon="9.215640933492885"><ele>95.0</ele><time>2026-04-09T08:12:57Z</time></trkpt><trkpt lat="39.291899033750674" lon="9.215675404805705"><ele>96.0</ele><time>2026-04-09T08:12:58Z</time></trkpt><trkpt lat="39.292042068084235" lon="9.215708826867465"><ele>97.0</ele><time>2026-04-09T08:12:59Z</time></trkpt><trkpt lat="39.2921765763129" lon="9.21574052185576"><ele>98.0</ele><time>2026-04-09T08:13:00Z</time></trkpt><trkpt lat="39.292316083547384" lon="9.21577404372097"><ele>98.0</ele><time>2026-04-09T08:13:01Z</time></trkpt><trkpt lat="39.292459041248065" lon="9.215808960429236"><ele>98.0</ele><time>2026-04-09T08:13:02Z</time></trkpt><trkpt lat="39.29261679711765" lon="9.215840695369236"><ele>98.0</ele><time>2026-04-09T08:13:03Z</time></trkpt><trkpt lat="39.292782371042904" lon="9.215866389519562"><ele>98.0</ele><time>2026-04-09T08:13:04Z</time></trkpt><trkpt lat="39.292964552012585" lon="9.215889785468358"><ele>98.0</ele><time>2026-04-09T08:13:05Z</time></trkpt><trkpt lat="39.2931549863108" lon="9.215909755066258"><ele>98.0</ele><time>2026-04-09T08:13:06Z</time></trkpt><trkpt lat="39.29334538687078" lon="9.215927009739715"><ele>97.66666666666666</ele><time>2026-04-09T08:13:07Z</time></trkpt><trkpt lat="39.293538548393904" lon="9.215945102297747"><ele>97.33333333333334</ele><time>2026-04-09T08:13:08Z</time></trkpt><trkpt lat="39.29373125679542" lon="9.215964596706264"><ele>97.0</ele><time>2026-04-09T08:13:09Z</time></trkpt><trkpt lat="39.2939104288168" lon="9.215985376386913"><ele>97.66666666666667</ele><time>2026-04-09T08:13:10.001Z</time></trkpt><trkpt lat="39.29407830408827" lon="9.216001603113748"><ele>98.33333333333334</ele><time>2026-04-09T08:13:11.001Z</time></trkpt><trkpt lat="39.294235917851815" lon="9.216015080451063"><ele>99.0</ele><time>2026-04-09T08:13:12.001Z</time></trkpt><trkpt lat="39.29438513447487" lon="9.216031818462248"><ele>99.0</ele><time>2026-04-09T08:13:13.001Z</time></trkpt><trkpt lat="39.294529040040025" lon="9.216047373552666"><ele>99.0</ele><time>2026-04-09T08:13:14.001Z</time></trkpt><trkpt lat="39.294685389392754" lon="9.216062684403092"><ele>99.0</ele><time>2026-04-09T08:13:15.001Z</time></trkpt><trkpt lat="39.29485241208792" lon="9.216075020690885"><ele>100.0</ele><time>2026-04-09T08:13:16.001Z</time></trkpt><trkpt lat="39.295033578023755" lon="9.21608931770394"><ele>101.0</ele><time>2026-04-09T08:13:17.001Z</time></trkpt><trkpt lat="39.29521688756288" lon="9.216102011724544"><ele>102.0</ele><time>2026-04-09T08:13:18.001Z</time></trkpt><trkpt lat="39.29540226671238" lon="9.216113006504997"><ele>102.0</ele><time>2026-04-09T08:13:19.001Z</time></trkpt><trkpt lat="39.295585735901746" lon="9.216123301204783"><ele>102.0</ele><time>2026-04-09T08:13:20.001Z</time></trkpt><trkpt lat="39.295764142702886" lon="9.21616321468129"><ele>102.0</ele><time>2026-04-09T08:13:21.001Z</time></trkpt><trkpt lat="39.295944007629025" lon="9.216164991685297"><ele>103.0</ele><time>2026-04-09T08:13:22.001Z</time></trkpt><trkpt lat="39.296118913730844" lon="9.216188584813791"><ele>104.0</ele><time>2026-04-09T08:13:23.001Z</time></trkpt><trkpt lat="39.2962963429843" lon="9.216202573778249"><ele>105.0</ele><time>2026-04-09T08:13:24.001Z</time></trkpt><trkpt lat="39.296475095117536" lon="9.216203542642361"><ele>106.0</ele><time>2026-04-09T08:13:25.001Z</time></trkpt><trkpt lat="39.296654344733206" lon="9.216191382220755"><ele>107.0</ele><time>2026-04-09T08:13:26.001Z</time></trkpt><trkpt lat="39.29683173789274" lon="9.2161660792593"><ele>108.0</ele><time>2026-04-09T08:13:27.001Z</time></trkpt><trkpt lat="39.29700681487175" lon="9.216130984308085"><ele>108.0</ele><time>2026-04-09T08:13:28.001Z</time></trkpt><trkpt lat="39.29718202494202" lon="9.216084887227948"><ele>108.0</ele><time>2026-04-09T08:13:29.001Z</time></trkpt><trkpt lat="39.29735231988442" lon="9.21602495889845"><ele>108.0</ele><time>2026-04-09T08:13:30.001Z</time></trkpt><trkpt lat="39.297520620460894" lon="9.215949094761582"><ele>107.66666666666666</ele><time>2026-04-09T08:13:31.001Z</time></trkpt><trkpt lat="39.29768520778013" lon="9.215866610020614"><ele>107.33333333333333</ele><time>2026-04-09T08:13:32.001Z</time></trkpt><trkpt lat="39.29784887296525" lon="9.215783913212759"><ele>107.0</ele><time>2026-04-09T08:13:33.001Z</time></trkpt><trkpt lat="39.298011938997234" lon="9.215703377563305"><ele>108.0</ele><time>2026-04-09T08:13:34.001Z</time></trkpt><trkpt lat="39.29817523434063" lon="9.215617652217151"><ele>109.0</ele><time>2026-04-09T08:13:35.001Z</time></trkpt><trkpt lat="39.29833257381769" lon="9.215528708736706"><ele>110.0</ele><time>2026-04-09T08:13:36.001Z</time></trkpt><trkpt lat="39.29848947322558" lon="9.215444730250526"><ele>110.0</ele><time>2026-04-09T08:13:37.001Z</time></trkpt><trkpt lat="39.29863435483056" lon="9.215353916597596"><ele>110.0</ele><time>2026-04-09T08:13:38.001Z</time></trkpt><trkpt lat="39.298772694711744" lon="9.215255700221954"><ele>110.0</ele><time>2026-04-09T08:13:39.001Z</time></trkpt><trkpt lat="39.29890069024716" lon="9.215138799858623"><ele>111.0</ele><time>2026-04-09T08:13:40.001Z</time></trkpt><trkpt lat="39.299030301546566" lon="9.215024704841888"><ele>112.0</ele><time>2026-04-09T08:13:41.001Z</time></trkpt><trkpt lat="39.299136356571985" lon="9.214879028338917"><ele>113.0</ele><time>2026-04-09T08:13:42.001Z</time></trkpt><trkpt lat="39.29920843242332" lon="9.214716758321261"><ele>113.75</ele><time>2026-04-09T08:13:43.001Z</time></trkpt><trkpt lat="39.29927515314327" lon="9.214571775401014"><ele>114.5</ele><time>2026-04-09T08:13:44.001Z</time></trkpt><trkpt lat="39.29934065632874" lon="9.214439301646374"><ele>115.25</ele><time>2026-04-09T08:13:45.001Z</time></trkpt><trkpt lat="39.29938823811662" lon="9.214317248041066"><ele>116.0</ele><time>2026-04-09T08:13:46.001Z</time></trkpt><trkpt lat="39.299431251632164" lon="9.214209993393338"><ele>116.0</ele><time>2026-04-09T08:13:47.001Z</time></trkpt><trkpt lat="39.29947326632992" lon="9.214116595994183"><ele>116.0</ele><time>2026-04-09T08:13:48.001Z</time></trkpt><trkpt lat="39.29952151134757" lon="9.213997279485758"><ele>116.0</ele><time>2026-04-09T08:13:50.001Z</time></trkpt><trkpt lat="39.299716631568096" lon="9.214072491110207"><ele>116.0</ele><time>2026-04-09T08:13:52.001Z</time></trkpt><trkpt lat="39.2997905564862" lon="9.214165782783663"><ele>115.5</ele><time>2026-04-09T08:13:53.001Z</time></trkpt><trkpt lat="39.29987384880207" lon="9.214278273989907"><ele>115.0</ele><time>2026-04-09T08:13:54.001Z</time></trkpt><trkpt lat="39.299964527327" lon="9.214400477560797"><ele>114.5</ele><time>2026-04-09T08:13:55.001Z</time></trkpt><trkpt lat="39.30004095256449" lon="9.214542058497422"><ele>114.0</ele><time>2026-04-09T08:13:56.001Z</time></trkpt><trkpt lat="39.300094362544336" lon="9.214716209779123"><ele>113.25</ele><time>2026-04-09T08:13:57.001Z</time></trkpt><trkpt lat="39.300136004282024" lon="9.214900515522153"><ele>112.5</ele><time>2026-04-09T08:13:58.001Z</time></trkpt><trkpt lat="39.30017713299152" lon="9.21508303504374"><ele>111.75</ele><time>2026-04-09T08:13:59.001Z</time></trkpt><trkpt lat="39.30022704645149" lon="9.21526346487445"><ele>111.0</ele><time>2026-04-09T08:14:00.001Z</time></trkpt><trkpt lat="39.30029289496511" lon="9.215441707051701"><ele>111.0</ele><time>2026-04-09T08:14:01.001Z</time></trkpt><trkpt lat="39.3003705665141" lon="9.215617568608272"><ele>111.0</ele><time>2026-04-09T08:14:02.001Z</time></trkpt><trkpt lat="39.30045570409293" lon="9.215791623078255"><ele>111.0</ele><time>2026-04-09T08:14:03.001Z</time></trkpt><trkpt lat="39.30053917359363" lon="9.215968309448732"><ele>112.0</ele><time>2026-04-09T08:14:04.001Z</time></trkpt><trkpt lat="39.30062138598454" lon="9.216145337222944"><ele>113.0</ele><time>2026-04-09T08:14:05.001Z</time></trkpt><trkpt lat="39.300701135620216" lon="9.21631407317023"><ele>114.0</ele><time>2026-04-09T08:14:06.001Z</time></trkpt><trkpt lat="39.300777175007795" lon="9.216466404603429"><ele>113.25</ele><time>2026-04-09T08:14:07.001Z</time></trkpt><trkpt lat="39.30084729122187" lon="9.216601882319523"><ele>112.5</ele><time>2026-04-09T08:14:08.001Z</time></trkpt><trkpt lat="39.30091345394158" lon="9.216728019742314"><ele>111.75</ele><time>2026-04-09T08:14:09.001Z</time></trkpt><trkpt lat="39.30097841793229" lon="9.21685403550883"><ele>111.0</ele><time>2026-04-09T08:14:10.001Z</time></trkpt><trkpt lat="39.3010470395591" lon="9.216985031108075"><ele>111.0</ele><time>2026-04-09T08:14:11.002Z</time></trkpt><trkpt lat="39.30112342866533" lon="9.217116361568902"><ele>111.0</ele><time>2026-04-09T08:14:12.002Z</time></trkpt><trkpt lat="39.30121787638931" lon="9.217236747292812"><ele>111.0</ele><time>2026-04-09T08:14:13.002Z</time></trkpt><trkpt lat="39.30133777708154" lon="9.21733341046017"><ele>111.0</ele><time>2026-04-09T08:14:14.002Z</time></trkpt><trkpt lat="39.30147342538352" lon="9.217411051182543"><ele>112.66666666666666</ele><time>2026-04-09T08:14:15.002Z</time></trkpt><trkpt lat="39.30162209770743" lon="9.217469164296324"><ele>114.33333333333333</ele><time>2026-04-09T08:14:16.002Z</time></trkpt><trkpt lat="39.301779268814904" lon="9.217507295659939"><ele>116.0</ele><time>2026-04-09T08:14:17.002Z</time></trkpt><trkpt lat="39.30194751908214" lon="9.21751113627624"><ele>116.0</ele><time>2026-04-09T08:14:18.002Z</time></trkpt><trkpt lat="39.30210811748817" lon="9.217502541454202"><ele>116.0</ele><time>2026-04-09T08:14:19.002Z</time></trkpt><trkpt lat="39.302290345615695" lon="9.217459410594428"><ele>116.0</ele><time>2026-04-09T08:14:20.002Z</time></trkpt><trkpt lat="39.30246791739963" lon="9.217401116556216"><ele>116.66666666666666</ele><time>2026-04-09T08:14:21.002Z</time></trkpt><trkpt lat="39.302629402370584" lon="9.217352589458992"><ele>117.33333333333334</ele><time>2026-04-09T08:14:22.002Z</time></trkpt><trkpt lat="39.30277894786101" lon="9.217311956048146"><ele>118.0</ele><time>2026-04-09T08:14:23.002Z</time></trkpt><trkpt lat="39.302915674591816" lon="9.217277697372221"><ele>118.5</ele><time>2026-04-09T08:14:24.002Z</time></trkpt><trkpt lat="39.30304271301888" lon="9.217246979187433"><ele>119.0</ele><time>2026-04-09T08:14:24.999Z</time></trkpt><trkpt lat="39.303170612746094" lon="9.217215878766169"><ele>119.5</ele><time>2026-04-09T08:14:25.999Z</time></trkpt><trkpt lat="39.3033013529675" lon="9.217181614526666"><ele>120.0</ele><time>2026-04-09T08:14:26.999Z</time></trkpt><trkpt lat="39.30343066220001" lon="9.21714496460135"><ele>120.25</ele><time>2026-04-09T08:14:27.999Z</time></trkpt><trkpt lat="39.30356002628652" lon="9.217109529170079"><ele>120.5</ele><time>2026-04-09T08:14:28.999Z</time></trkpt><trkpt lat="39.30369004351152" lon="9.217066237006142"><ele>120.75</ele><time>2026-04-09T08:14:29.999Z</time></trkpt><trkpt lat="39.30383061177485" lon="9.217024603184502"><ele>121.0</ele><time>2026-04-09T08:14:30.999Z</time></trkpt><trkpt lat="39.30397828793451" lon="9.21698475049832"><ele>122.0</ele><time>2026-04-09T08:14:31.999Z</time></trkpt><trkpt lat="39.30412572317371" lon="9.216941862497075"><ele>123.0</ele><time>2026-04-09T08:14:32.999Z</time></trkpt><trkpt lat="39.304279508033396" lon="9.216897064653647"><ele>124.0</ele><time>2026-04-09T08:14:33.999Z</time></trkpt><trkpt lat="39.30443182752079" lon="9.216852295238983"><ele>124.0</ele><time>2026-04-09T08:14:34.999Z</time></trkpt><trkpt lat="39.30458073950909" lon="9.21680540234046"><ele>124.0</ele><time>2026-04-09T08:14:35.999Z</time></trkpt><trkpt lat="39.30472977701736" lon="9.216758293810209"><ele>124.0</ele><time>2026-04-09T08:14:36.999Z</time></trkpt><trkpt lat="39.304870588105715" lon="9.216711377970013"><ele>124.75</ele><time>2026-04-09T08:14:37.999Z</time></trkpt><trkpt lat="39.30500908555871" lon="9.216661209001034"><ele>125.5</ele><time>2026-04-09T08:14:38.999Z</time></trkpt><trkpt lat="39.305151830592735" lon="9.21663709992762"><ele>126.25</ele><time>2026-04-09T08:14:40Z</time></trkpt><trkpt lat="39.30529461027022" lon="9.216586390077218"><ele>127.0</ele><time>2026-04-09T08:14:41Z</time></trkpt><trkpt lat="39.30543756382268" lon="9.216546713518804"><ele>128.0</ele><time>2026-04-09T08:14:42Z</time></trkpt><trkpt lat="39.30558408186033" lon="9.216502527119575"><ele>129.0</ele><time>2026-04-09T08:14:43Z</time></trkpt><trkpt lat="39.30572672485113" lon="9.21644963140855"><ele>130.0</ele><time>2026-04-09T08:14:44Z</time></trkpt><trkpt lat="39.3058703493392" lon="9.216390545876841"><ele>130.66666666666669</ele><time>2026-04-09T08:14:45Z</time></trkpt><trkpt lat="39.30601774671877" lon="9.216327629926019"><ele>131.33333333333334</ele><time>2026-04-09T08:14:46Z</time></trkpt><trkpt lat="39.30616611259321" lon="9.216264648365375"><ele>132.0</ele><time>2026-04-09T08:14:47Z</time></trkpt><trkpt lat="39.30630985923676" lon="9.216198860184901"><ele>133.0</ele><time>2026-04-09T08:14:48Z</time></trkpt><trkpt lat="39.30644908541573" lon="9.216138929787068"><ele>134.0</ele><time>2026-04-09T08:14:49Z</time></trkpt><trkpt lat="39.306586823913605" lon="9.216081277857757"><ele>135.0</ele><time>2026-04-09T08:14:50Z</time></trkpt><trkpt lat="39.30672398923398" lon="9.216019119643308"><ele>136.0</ele><time>2026-04-09T08:14:51Z</time></trkpt><trkpt lat="39.30685881877979" lon="9.215952362395054"><ele>136.0</ele><time>2026-04-09T08:14:52Z</time></trkpt><trkpt lat="39.30699752965543" lon="9.215889489658396"><ele>136.0</ele><time>2026-04-09T08:14:53Z</time></trkpt><trkpt lat="39.30713434440825" lon="9.21582659213788"><ele>136.0</ele><time>2026-04-09T08:14:54Z</time></trkpt><trkpt lat="39.30726759503477" lon="9.215767898710403"><ele>136.0</ele><time>2026-04-09T08:14:55Z</time></trkpt><trkpt lat="39.30740621904522" lon="9.215706643764964"><ele>138.66666666666669</ele><time>2026-04-09T08:14:56Z</time></trkpt><trkpt lat="39.30754595154494" lon="9.215641166287908"><ele>141.33333333333334</ele><time>2026-04-09T08:14:57Z</time></trkpt><trkpt lat="39.30768880729202" lon="9.215573795322657"><ele>144.0</ele><time>2026-04-09T08:14:58Z</time></trkpt><trkpt lat="39.30783000073337" lon="9.215506935160061"><ele>144.0</ele><time>2026-04-09T08:14:59Z</time></trkpt><trkpt lat="39.30797634355655" lon="9.215438181922023"><ele>144.0</ele><time>2026-04-09T08:15:00Z</time></trkpt><trkpt lat="39.30811985987879" lon="9.215367251463059"><ele>144.0</ele><time>2026-04-09T08:15:01Z</time></trkpt><trkpt lat="39.30826873726419" lon="9.215288888298241"><ele>144.66666666666666</ele><time>2026-04-09T08:15:02Z</time></trkpt><trkpt lat="39.308427616098086" lon="9.215195668509113"><ele>145.33333333333331</ele><time>2026-04-09T08:15:03Z</time></trkpt><trkpt lat="39.30859068186098" lon="9.215079755965657"><ele>146.0</ele><time>2026-04-09T08:15:04Z</time></trkpt><trkpt lat="39.308761417796866" lon="9.214947225573505"><ele>147.66666666666666</ele><time>2026-04-09T08:15:05Z</time></trkpt><trkpt lat="39.30893777408071" lon="9.214805154868092"><ele>149.33333333333334</ele><time>2026-04-09T08:15:06Z</time></trkpt><trkpt lat="39.30912161076241" lon="9.214658955420951"><ele>151.0</ele><time>2026-04-09T08:15:07Z</time></trkpt><trkpt lat="39.30931065054899" lon="9.21451051040591"><ele>151.0</ele><time>2026-04-09T08:15:08Z</time></trkpt><trkpt lat="39.3094984741431" lon="9.21436306223393"><ele>151.0</ele><time>2026-04-09T08:15:09Z</time></trkpt><trkpt lat="39.309689755341275" lon="9.214207975173375"><ele>151.0</ele><time>2026-04-09T08:15:10Z</time></trkpt><trkpt lat="39.30988316573678" lon="9.21404934436165"><ele>153.33333333333334</ele><time>2026-04-09T08:15:11Z</time></trkpt><trkpt lat="39.310063311634394" lon="9.213904655104026"><ele>155.66666666666666</ele><time>2026-04-09T08:15:12Z</time></trkpt><trkpt lat="39.31022246854576" lon="9.213774525459586"><ele>158.0</ele><time>2026-04-09T08:15:13Z</time></trkpt><trkpt lat="39.310371545033234" lon="9.213651729365637"><ele>158.0</ele><time>2026-04-09T08:15:14Z</time></trkpt><trkpt lat="39.31052294061626" lon="9.213527363590513"><ele>158.0</ele><time>2026-04-09T08:15:15Z</time></trkpt><trkpt lat="39.31067203313202" lon="9.213404866949306"><ele>158.0</ele><time>2026-04-09T08:15:16Z</time></trkpt><trkpt lat="39.310820482035744" lon="9.213283932213875"><ele>159.0</ele><time>2026-04-09T08:15:17Z</time></trkpt><trkpt lat="39.31096939355749" lon="9.213166357862443"><ele>160.0</ele><time>2026-04-09T08:15:18Z</time></trkpt><trkpt lat="39.311114866774886" lon="9.21304794617746"><ele>161.0</ele><time>2026-04-09T08:15:19Z</time></trkpt><trkpt lat="39.3112632305306" lon="9.21292727834835"><ele>164.66666666666666</ele><time>2026-04-09T08:15:20Z</time></trkpt><trkpt lat="39.31141765715867" lon="9.212798495096335"><ele>168.33333333333334</ele><time>2026-04-09T08:15:21Z</time></trkpt><trkpt lat="39.31158071534241" lon="9.212667076827925"><ele>172.0</ele><time>2026-04-09T08:15:22Z</time></trkpt><trkpt lat="39.311739640606156" lon="9.2125379482685"><ele>172.0</ele><time>2026-04-09T08:15:23.001Z</time></trkpt><trkpt lat="39.3118939178293" lon="9.212406842219826"><ele>172.0</ele><time>2026-04-09T08:15:24.001Z</time></trkpt><trkpt lat="39.31205343027712" lon="9.212277426457433"><ele>172.0</ele><time>2026-04-09T08:15:25.001Z</time></trkpt><trkpt lat="39.31220867149134" lon="9.212147428123576"><ele>172.66666666666669</ele><time>2026-04-09T08:15:26.001Z</time></trkpt><trkpt lat="39.312367127387155" lon="9.212021090309516"><ele>173.33333333333334</ele><time>2026-04-09T08:15:27.001Z</time></trkpt><trkpt lat="39.31251857923369" lon="9.211897515366447"><ele>174.0</ele><time>2026-04-09T08:15:28.001Z</time></trkpt><trkpt lat="39.31266608418476" lon="9.211778907249718"><ele>174.0</ele><time>2026-04-09T08:15:29.001Z</time></trkpt><trkpt lat="39.31280281256141" lon="9.211665730658058"><ele>174.0</ele><time>2026-04-09T08:15:30.001Z</time></trkpt><trkpt lat="39.31293411601232" lon="9.211559979570254"><ele>174.0</ele><time>2026-04-09T08:15:31.001Z</time></trkpt><trkpt lat="39.3130662923422" lon="9.21145614067488"><ele>174.0</ele><time>2026-04-09T08:15:32.001Z</time></trkpt><trkpt lat="39.31321063476052" lon="9.211372682821093"><ele>174.0</ele><time>2026-04-09T08:15:33.001Z</time></trkpt><trkpt lat="39.31334359690312" lon="9.211266679990125"><ele>174.0</ele><time>2026-04-09T08:15:34.001Z</time></trkpt><trkpt lat="39.313531829352804" lon="9.21128843087615"><ele>174.0</ele><time>2026-04-09T08:15:35.001Z</time></trkpt><trkpt lat="39.31369738380551" lon="9.211305151091555"><ele>174.0</ele><time>2026-04-09T08:15:36.001Z</time></trkpt><trkpt lat="39.31385525040325" lon="9.21136396698459"><ele>174.0</ele><time>2026-04-09T08:15:37.001Z</time></trkpt><trkpt lat="39.31397982830124" lon="9.211429531109768"><ele>174.5</ele><time>2026-04-09T08:15:38.001Z</time></trkpt><trkpt lat="39.31408704960337" lon="9.21147616147399"><ele>175.0</ele><time>2026-04-09T08:15:39.001Z</time></trkpt><trkpt lat="39.31417451165308" lon="9.211523868990257"><ele>175.5</ele><time>2026-04-09T08:15:40.001Z</time></trkpt><trkpt lat="39.31424559281712" lon="9.211564392012491"><ele>176.0</ele><time>2026-04-09T08:15:41.001Z</time></trkpt><trkpt lat="39.31431435475319" lon="9.211601869736691"><ele>176.5</ele><time>2026-04-09T08:15:42.001Z</time></trkpt><trkpt lat="39.31439298621031" lon="9.211640127300212"><ele>177.0</ele><time>2026-04-09T08:15:43.001Z</time></trkpt><trkpt lat="39.31448161887444" lon="9.21168888371404"><ele>178.0</ele><time>2026-04-09T08:15:44.001Z</time></trkpt><trkpt lat="39.31457127187163" lon="9.211739789010482"><ele>179.0</ele><time>2026-04-09T08:15:45.001Z</time></trkpt><trkpt lat="39.31468602409549" lon="9.211803730991592"><ele>180.0</ele><time>2026-04-09T08:15:46.001Z</time></trkpt><trkpt lat="39.314820294595314" lon="9.211873578157752"><ele>181.0</ele><time>2026-04-09T08:15:47.001Z</time></trkpt><trkpt lat="39.31497532007149" lon="9.211939674098197"><ele>182.33333333333334</ele><time>2026-04-09T08:15:48.001Z</time></trkpt><trkpt lat="39.3151375027377" lon="9.211988624297275"><ele>183.66666666666666</ele><time>2026-04-09T08:15:49.001Z</time></trkpt><trkpt lat="39.315299584127715" lon="9.212022215059006"><ele>185.0</ele><time>2026-04-09T08:15:50.001Z</time></trkpt><trkpt lat="39.31543595207017" lon="9.21205363976445"><ele>185.0</ele><time>2026-04-09T08:15:51.001Z</time></trkpt><trkpt lat="39.3155487342159" lon="9.212075091153093"><ele>185.0</ele><time>2026-04-09T08:15:52.001Z</time></trkpt><trkpt lat="39.315651993899785" lon="9.212091970564286"><ele>185.0</ele><time>2026-04-09T08:15:53.001Z</time></trkpt><trkpt lat="39.31573616020008" lon="9.212099953401044"><ele>185.0</ele><time>2026-04-09T08:15:54.001Z</time></trkpt><trkpt lat="39.315835248448984" lon="9.212097918230443"><ele>185.0</ele><time>2026-04-09T08:15:56.001Z</time></trkpt><trkpt lat="39.31591115908021" lon="9.21210430414009"><ele>186.2</ele><time>2026-04-09T08:15:59.001Z</time></trkpt><trkpt lat="39.315899973695004" lon="9.21223888888264"><ele>187.4</ele><time>2026-04-09T08:16:02.001Z</time></trkpt><trkpt lat="39.31591118782209" lon="9.212331257851314"><ele>188.60000000000002</ele><time>2026-04-09T08:16:26.002Z</time></trkpt><trkpt lat="39.31592437812719" lon="9.212459238647817"><ele>189.8</ele><time>2026-04-09T08:16:28.002Z</time></trkpt><trkpt lat="39.31596270307349" lon="9.212574400393365"><ele>191.0</ele><time>2026-04-09T08:16:30.002Z</time></trkpt><trkpt lat="39.31599509552132" lon="9.21270531891522"><ele>191.4</ele><time>2026-04-09T08:16:32Z</time></trkpt><trkpt lat="39.316090887645245" lon="9.212811212158902"><ele>191.8</ele><time>2026-04-09T08:16:34Z</time></trkpt><trkpt lat="39.316153870540454" lon="9.212863846131865"><ele>192.20000000000002</ele><time>2026-04-09T08:16:35Z</time></trkpt><trkpt lat="39.316257024245104" lon="9.212881377278661"><ele>192.60000000000002</ele><time>2026-04-09T08:16:36Z</time></trkpt><trkpt lat="39.31635940087533" lon="9.212916218169992"><ele>193.0</ele><time>2026-04-09T08:16:37Z</time></trkpt><trkpt lat="39.31644356943078" lon="9.21294363948394"><ele>194.2</ele><time>2026-04-09T08:16:38Z</time></trkpt><trkpt lat="39.3165098855801" lon="9.212967364086198"><ele>195.4</ele><time>2026-04-09T08:16:39Z</time></trkpt><trkpt lat="39.316589927752" lon="9.212990974034415"><ele>196.6</ele><time>2026-04-09T08:16:40Z</time></trkpt><trkpt lat="39.316666770166066" lon="9.213017621251458"><ele>197.79999999999998</ele><time>2026-04-09T08:16:41Z</time></trkpt><trkpt lat="39.3167662985763" lon="9.213094189329164"><ele>199.0</ele><time>2026-04-09T08:16:43Z</time></trkpt><trkpt lat="39.31687492199492" lon="9.213142630962578"><ele>198.85714285714283</ele><time>2026-04-09T08:16:45Z</time></trkpt><trkpt lat="39.316922211425464" lon="9.213200177749531"><ele>198.71428571428572</ele><time>2026-04-09T08:16:46Z</time></trkpt><trkpt lat="39.316983870354214" lon="9.21324745184135"><ele>198.57142857142856</ele><time>2026-04-09T08:16:47Z</time></trkpt><trkpt lat="39.31704688791203" lon="9.213268207361955"><ele>198.42857142857142</ele><time>2026-04-09T08:16:48Z</time></trkpt><trkpt lat="39.317117364810194" lon="9.21328475013808"><ele>198.28571428571428</ele><time>2026-04-09T08:16:49Z</time></trkpt><trkpt lat="39.31719182681367" lon="9.213314049532409"><ele>198.14285714285714</ele><time>2026-04-09T08:16:50Z</time></trkpt><trkpt lat="39.31727400510044" lon="9.2133435675087"><ele>198.0</ele><time>2026-04-09T08:16:51Z</time></trkpt><trkpt lat="39.3173530913185" lon="9.213371259051053"><ele>198.5</ele><time>2026-04-09T08:16:52Z</time></trkpt><trkpt lat="39.31743580517686" lon="9.213385912902979"><ele>199.0</ele><time>2026-04-09T08:16:53Z</time></trkpt><trkpt lat="39.31751762941966" lon="9.213378467277234"><ele>199.5</ele><time>2026-04-09T08:16:54Z</time></trkpt><trkpt lat="39.317599614258945" lon="9.213346575715608"><ele>200.0</ele><time>2026-04-09T08:16:55Z</time></trkpt><trkpt lat="39.317672257214845" lon="9.213315553730316"><ele>200.5</ele><time>2026-04-09T08:16:56Z</time></trkpt><trkpt lat="39.31777506518449" lon="9.21332655645013"><ele>201.0</ele><time>2026-04-09T08:16:58Z</time></trkpt><trkpt lat="39.31784297793279" lon="9.213409669230014"><ele>201.0</ele><time>2026-04-09T08:17:01Z</time></trkpt><trkpt lat="39.31788341857136" lon="9.213558974038762"><ele>201.0</ele><time>2026-04-09T08:17:03Z</time></trkpt><trkpt lat="39.31792714080319" lon="9.213649725012601"><ele>201.0</ele><time>2026-04-09T08:17:04Z</time></trkpt><trkpt lat="39.31795107568786" lon="9.213759949247173"><ele>201.0</ele><time>2026-04-09T08:17:05Z</time></trkpt><trkpt lat="39.31798459414106" lon="9.213881435636752"><ele>201.0</ele><time>2026-04-09T08:17:06Z</time></trkpt><trkpt lat="39.318012083920955" lon="9.213999318880793"><ele>200.33333333333334</ele><time>2026-04-09T08:17:07Z</time></trkpt><trkpt lat="39.31803766145015" lon="9.214119314823078"><ele>199.66666666666669</ele><time>2026-04-09T08:17:08Z</time></trkpt><trkpt lat="39.31806349095932" lon="9.21422743494106"><ele>199.0</ele><time>2026-04-09T08:17:09Z</time></trkpt><trkpt lat="39.31809257827436" lon="9.214328189984256"><ele>198.33333333333334</ele><time>2026-04-09T08:17:10Z</time></trkpt><trkpt lat="39.318140808471135" lon="9.214424288492165"><ele>197.66666666666669</ele><time>2026-04-09T08:17:11Z</time></trkpt><trkpt lat="39.3181808099163" lon="9.214509499734621"><ele>197.0</ele><time>2026-04-09T08:17:12Z</time></trkpt><trkpt lat="39.318226672503904" lon="9.214579899143386"><ele>198.33333333333334</ele><time>2026-04-09T08:17:13Z</time></trkpt><trkpt lat="39.31826182948445" lon="9.21465492203625"><ele>199.66666666666669</ele><time>2026-04-09T08:17:14Z</time></trkpt><trkpt lat="39.31835825165185" lon="9.214736879502231"><ele>201.0</ele><time>2026-04-09T08:17:16Z</time></trkpt><trkpt lat="39.31844171947453" lon="9.214763880283439"><ele>202.33333333333331</ele><time>2026-04-09T08:17:17Z</time></trkpt><trkpt lat="39.31852759926562" lon="9.21476759023416"><ele>203.66666666666666</ele><time>2026-04-09T08:17:18Z</time></trkpt><trkpt lat="39.31860779707763" lon="9.21476281054695"><ele>205.0</ele><time>2026-04-09T08:17:19.001Z</time></trkpt><trkpt lat="39.31869452616633" lon="9.21474824130847"><ele>204.99999999999997</ele><time>2026-04-09T08:17:20.001Z</time></trkpt><trkpt lat="39.31876622957211" lon="9.214725455310584"><ele>205.0</ele><time>2026-04-09T08:17:21.001Z</time></trkpt><trkpt lat="39.31883940825531" lon="9.214731172695842"><ele>205.0</ele><time>2026-04-09T08:17:22.001Z</time></trkpt><trkpt lat="39.31890439278215" lon="9.21477370409323"><ele>205.0</ele><time>2026-04-09T08:17:23.001Z</time></trkpt><trkpt lat="39.31893602279684" lon="9.2148658241967"><ele>204.99999999999997</ele><time>2026-04-09T08:17:24.001Z</time></trkpt><trkpt lat="39.31899489251841" lon="9.214938958353748"><ele>205.0</ele><time>2026-04-09T08:17:25.001Z</time></trkpt><trkpt lat="39.31906017266505" lon="9.214987181015541"><ele>207.49999999999997</ele><time>2026-04-09T08:17:26.001Z</time></trkpt><trkpt lat="39.31911933298846" lon="9.215049731833885"><ele>210.0</ele><time>2026-04-09T08:17:27.001Z</time></trkpt><trkpt lat="39.319184141409174" lon="9.215106058628317"><ele>212.5</ele><time>2026-04-09T08:17:28.001Z</time></trkpt><trkpt lat="39.31925175487181" lon="9.215160493944067"><ele>215.0</ele><time>2026-04-09T08:17:29.001Z</time></trkpt><trkpt lat="39.31932560089989" lon="9.215201698913816"><ele>217.49999999999997</ele><time>2026-04-09T08:17:30.001Z</time></trkpt><trkpt lat="39.31940902937304" lon="9.215249356544941"><ele>220.0</ele><time>2026-04-09T08:17:31.001Z</time></trkpt><trkpt lat="39.3194911683416" lon="9.215278457974952"><ele>219.99999999999997</ele><time>2026-04-09T08:17:32.001Z</time></trkpt><trkpt lat="39.31956862423537" lon="9.215311065584782"><ele>220.0</ele><time>2026-04-09T08:17:33.001Z</time></trkpt><trkpt lat="39.3196433216411" lon="9.215341146650953"><ele>220.0</ele><time>2026-04-09T08:17:34.001Z</time></trkpt><trkpt lat="39.31970711167711" lon="9.215395921433013"><ele>220.0</ele><time>2026-04-09T08:17:35.001Z</time></trkpt><trkpt lat="39.31977750300688" lon="9.215424620820833"><ele>219.99999999999997</ele><time>2026-04-09T08:17:36.001Z</time></trkpt><trkpt lat="39.31984870872754" lon="9.215421282464758"><ele>220.0</ele><time>2026-04-09T08:17:37.001Z</time></trkpt><trkpt lat="39.319922242941395" lon="9.215425383092132"><ele>222.99999999999997</ele><time>2026-04-09T08:17:38.001Z</time></trkpt><trkpt lat="39.31999733369792" lon="9.215426613926475"><ele>226.0</ele><time>2026-04-09T08:17:39.001Z</time></trkpt><trkpt lat="39.32007367849632" lon="9.215431244005623"><ele>229.0</ele><time>2026-04-09T08:17:40.001Z</time></trkpt><trkpt lat="39.32014214342283" lon="9.215454047113596"><ele>232.0</ele><time>2026-04-09T08:17:41.001Z</time></trkpt><trkpt lat="39.320228464094484" lon="9.215567735905498"><ele>234.99999999999997</ele><time>2026-04-09T08:17:43.001Z</time></trkpt><trkpt lat="39.32030611755188" lon="9.215628002609538"><ele>238.0</ele><time>2026-04-09T08:17:45.001Z</time></trkpt><trkpt lat="39.32038643329742" lon="9.215561228972025"><ele>237.99999999999997</ele><time>2026-04-09T08:17:47.001Z</time></trkpt><trkpt lat="39.320399657428474" lon="9.215442520843718"><ele>238.0</ele><time>2026-04-09T08:17:49.001Z</time></trkpt><trkpt lat="39.320332978111466" lon="9.21538583224447"><ele>238.0</ele><time>2026-04-09T08:17:50.001Z</time></trkpt><trkpt lat="39.32026546317957" lon="9.215345048310418"><ele>238.0</ele><time>2026-04-09T08:17:51.001Z</time></trkpt><trkpt lat="39.32019028049849" lon="9.215296220793187"><ele>237.99999999999997</ele><time>2026-04-09T08:17:52.001Z</time></trkpt><trkpt lat="39.32012005393564" lon="9.215225534020787"><ele>238.0</ele><time>2026-04-09T08:17:53.001Z</time></trkpt><trkpt lat="39.32005176745447" lon="9.215180555976394"><ele>237.99999999999997</ele><time>2026-04-09T08:17:54.001Z</time></trkpt><trkpt lat="39.31997587522208" lon="9.215129373294063"><ele>238.0</ele><time>2026-04-09T08:17:55.001Z</time></trkpt><trkpt lat="39.319912200694176" lon="9.215072499605078"><ele>238.0</ele><time>2026-04-09T08:17:56.001Z</time></trkpt><trkpt lat="39.319862548330676" lon="9.215018215238645"><ele>238.0</ele><time>2026-04-09T08:17:57.001Z</time></trkpt><trkpt lat="39.31985613193342" lon="9.214888378519488"><ele>237.99999999999997</ele><time>2026-04-09T08:17:59.001Z</time></trkpt><trkpt lat="39.31989053108471" lon="9.214800548019326"><ele>238.0</ele><time>2026-04-09T08:18:00.001Z</time></trkpt><trkpt lat="39.31992553540675" lon="9.21472433651444"><ele>237.99999999999997</ele><time>2026-04-09T08:18:01.001Z</time></trkpt><trkpt lat="39.319961033692" lon="9.21465388991947"><ele>238.0</ele><time>2026-04-09T08:18:02.001Z</time></trkpt><trkpt lat="39.320037077255655" lon="9.214575040572447"><ele>238.0</ele><time>2026-04-09T08:18:04.001Z</time></trkpt><trkpt lat="39.32011997157601" lon="9.214610333164085"><ele>238.0</ele><time>2026-04-09T08:18:06.001Z</time></trkpt><trkpt lat="39.320141492798406" lon="9.214750345974954"><ele>237.99999999999997</ele><time>2026-04-09T08:18:08.001Z</time></trkpt><trkpt lat="39.32016473774213" lon="9.214834470051796"><ele>238.0</ele><time>2026-04-09T08:18:09.001Z</time></trkpt><trkpt lat="39.32024336688782" lon="9.214952925489834"><ele>238.0</ele><time>2026-04-09T08:18:11.002Z</time></trkpt><trkpt lat="39.32030635066324" lon="9.21499036666304"><ele>238.0</ele><time>2026-04-09T08:18:12.002Z</time></trkpt><trkpt lat="39.32041112655065" lon="9.215022282357053"><ele>238.0</ele><time>2026-04-09T08:18:13.002Z</time></trkpt><trkpt lat="39.32051634720542" lon="9.215048467152924"><ele>238.0</ele><time>2026-04-09T08:18:14.002Z</time></trkpt><trkpt lat="39.32061993724069" lon="9.215081866985074"><ele>238.0</ele><time>2026-04-09T08:18:15.002Z</time></trkpt><trkpt lat="39.320717216789376" lon="9.2151170841879"><ele>241.60000000000002</ele><time>2026-04-09T08:18:16.002Z</time></trkpt><trkpt lat="39.32079605583301" lon="9.21518049282972"><ele>245.20000000000002</ele><time>2026-04-09T08:18:17.002Z</time></trkpt><trkpt lat="39.320873966510035" lon="9.215235978472712"><ele>248.8</ele><time>2026-04-09T08:18:18.002Z</time></trkpt><trkpt lat="39.32095749793834" lon="9.215314630452973"><ele>252.4</ele><time>2026-04-09T08:18:19.002Z</time></trkpt><trkpt lat="39.32105678700632" lon="9.215364811528556"><ele>256.0</ele><time>2026-04-09T08:18:20.002Z</time></trkpt><trkpt lat="39.321145501644956" lon="9.215422283731163"><ele>255.99999999999997</ele><time>2026-04-09T08:18:21.002Z</time></trkpt><trkpt lat="39.3212325284349" lon="9.215470065064432"><ele>256.0</ele><time>2026-04-09T08:18:22.002Z</time></trkpt><trkpt lat="39.32129820522172" lon="9.215553085332072"><ele>256.0</ele><time>2026-04-09T08:18:23.002Z</time></trkpt><trkpt lat="39.32135571410182" lon="9.215615218350123"><ele>256.0</ele><time>2026-04-09T08:18:24.002Z</time></trkpt><trkpt lat="39.32142501356926" lon="9.215672603306533"><ele>255.99999999999997</ele><time>2026-04-09T08:18:25.002Z</time></trkpt><trkpt lat="39.32148789791139" lon="9.215738420239083"><ele>256.0</ele><time>2026-04-09T08:18:26.002Z</time></trkpt><trkpt lat="39.321567836488796" lon="9.215786747363808"><ele>258.0</ele><time>2026-04-09T08:18:27.002Z</time></trkpt><trkpt lat="39.32164918212423" lon="9.215825306044467"><ele>260.0</ele><time>2026-04-09T08:18:28.002Z</time></trkpt><trkpt lat="39.32174823618607" lon="9.215861383840442"><ele>262.0</ele><time>2026-04-09T08:18:29.002Z</time></trkpt><trkpt lat="39.321867420178364" lon="9.215893836303692"><ele>264.0</ele><time>2026-04-09T08:18:30.002Z</time></trkpt><trkpt lat="39.321964002094255" lon="9.215922580995418"><ele>266.0</ele><time>2026-04-09T08:18:31.002Z</time></trkpt><trkpt lat="39.322070713538125" lon="9.215964985505542"><ele>266.0</ele><time>2026-04-09T08:18:32.002Z</time></trkpt><trkpt lat="39.32217259786437" lon="9.215967331666128"><ele>266.0</ele><time>2026-04-09T08:18:33.002Z</time></trkpt><trkpt lat="39.32227163442285" lon="9.21597051910378"><ele>266.0</ele><time>2026-04-09T08:18:34.002Z</time></trkpt><trkpt lat="39.32236662735983" lon="9.215976212011846"><ele>266.0</ele><time>2026-04-09T08:18:35.002Z</time></trkpt><trkpt lat="39.322467286272996" lon="9.215975745079405"><ele>266.0</ele><time>2026-04-09T08:18:36.002Z</time></trkpt><trkpt lat="39.32256913158813" lon="9.215986542361755"><ele>269.40000000000003</ele><time>2026-04-09T08:18:37Z</time></trkpt><trkpt lat="39.32266561579752" lon="9.216025083804599"><ele>272.8</ele><time>2026-04-09T08:18:38Z</time></trkpt><trkpt lat="39.32275805560025" lon="9.216035808382289"><ele>276.20000000000005</ele><time>2026-04-09T08:18:39Z</time></trkpt><trkpt lat="39.322845808192845" lon="9.216080847657723"><ele>279.6</ele><time>2026-04-09T08:18:40Z</time></trkpt><trkpt lat="39.32292431389613" lon="9.216132563556137"><ele>283.0</ele><time>2026-04-09T08:18:41Z</time></trkpt><trkpt lat="39.32299489825437" lon="9.216180897723751"><ele>283.0</ele><time>2026-04-09T08:18:42Z</time></trkpt><trkpt lat="39.3230580254829" lon="9.21622036845537"><ele>283.0</ele><time>2026-04-09T08:18:43Z</time></trkpt><trkpt lat="39.32312227210138" lon="9.216232212312153"><ele>283.0</ele><time>2026-04-09T08:18:44Z</time></trkpt><trkpt lat="39.323203186070806" lon="9.216222334546242"><ele>283.0</ele><time>2026-04-09T08:18:45Z</time></trkpt><trkpt lat="39.323312989015484" lon="9.216205040756806"><ele>283.0</ele><time>2026-04-09T08:18:46Z</time></trkpt><trkpt lat="39.323408983850925" lon="9.216192511637486"><ele>283.0</ele><time>2026-04-09T08:18:47Z</time></trkpt><trkpt lat="39.32349053486274" lon="9.216227794691733"><ele>284.3333333333333</ele><time>2026-04-09T08:18:48Z</time></trkpt><trkpt lat="39.32356420948369" lon="9.216260558007724"><ele>285.66666666666663</ele><time>2026-04-09T08:18:49Z</time></trkpt><trkpt lat="39.323640639950945" lon="9.216294571991611"><ele>287.0</ele><time>2026-04-09T08:18:50Z</time></trkpt><trkpt lat="39.32369826690688" lon="9.216369595830804"><ele>288.3333333333333</ele><time>2026-04-09T08:18:51Z</time></trkpt><trkpt lat="39.323714461969445" lon="9.216489351406295"><ele>289.6666666666667</ele><time>2026-04-09T08:18:52Z</time></trkpt><trkpt lat="39.32374975939841" lon="9.216567341286916"><ele>291.0</ele><time>2026-04-09T08:18:53Z</time></trkpt><trkpt lat="39.323815098455434" lon="9.216673750191623"><ele>291.0</ele><time>2026-04-09T08:18:55Z</time></trkpt><trkpt lat="39.32385845979228" lon="9.216733609376098"><ele>291.0</ele><time>2026-04-09T08:18:57Z</time></trkpt><trkpt lat="39.32397284475841" lon="9.216739138169366"><ele>291.0</ele><time>2026-04-09T08:18:59Z</time></trkpt><trkpt lat="39.32404587731056" lon="9.216727216949115"><ele>291.0</ele><time>2026-04-09T08:19:00Z</time></trkpt><trkpt lat="39.32412272829466" lon="9.216733397803676"><ele>291.0</ele><time>2026-04-09T08:19:01Z</time></trkpt><trkpt lat="39.324197545932485" lon="9.216711538957851"><ele>291.0</ele><time>2026-04-09T08:19:02Z</time></trkpt><trkpt lat="39.3242712863164" lon="9.216651369815931"><ele>292.1666666666667</ele><time>2026-04-09T08:19:03Z</time></trkpt><trkpt lat="39.32434702044432" lon="9.216585262791432"><ele>293.3333333333333</ele><time>2026-04-09T08:19:04Z</time></trkpt><trkpt lat="39.3244184562699" lon="9.216526800292"><ele>294.5</ele><time>2026-04-09T08:19:05Z</time></trkpt><trkpt lat="39.32448929153214" lon="9.216439394968374"><ele>295.66666666666663</ele><time>2026-04-09T08:19:06Z</time></trkpt><trkpt lat="39.32455543902275" lon="9.216387313073392"><ele>296.8333333333333</ele><time>2026-04-09T08:19:07Z</time></trkpt><trkpt lat="39.32462575798147" lon="9.216364312942044"><ele>298.0</ele><time>2026-04-09T08:19:08Z</time></trkpt><trkpt lat="39.324707628491915" lon="9.21637445260938"><ele>299.75</ele><time>2026-04-09T08:19:09Z</time></trkpt><trkpt lat="39.324801333369045" lon="9.216407934911453"><ele>301.5</ele><time>2026-04-09T08:19:10Z</time></trkpt><trkpt lat="39.32491770085985" lon="9.21644427290693"><ele>303.25</ele><time>2026-04-09T08:19:11Z</time></trkpt><trkpt lat="39.32505254292413" lon="9.216497677525318"><ele>305.0</ele><time>2026-04-09T08:19:12Z</time></trkpt><trkpt lat="39.32518553432551" lon="9.21656847898838"><ele>305.0</ele><time>2026-04-09T08:19:13Z</time></trkpt><trkpt lat="39.32530058940584" lon="9.216602193510019"><ele>305.0</ele><time>2026-04-09T08:19:14Z</time></trkpt><trkpt lat="39.32539247311544" lon="9.216637592688897"><ele>305.0</ele><time>2026-04-09T08:19:15Z</time></trkpt><trkpt lat="39.325472561656056" lon="9.216636377137416"><ele>305.0</ele><time>2026-04-09T08:19:16Z</time></trkpt><trkpt lat="39.3255473457547" lon="9.216603749346762"><ele>305.0</ele><time>2026-04-09T08:19:17.001Z</time></trkpt><trkpt lat="39.32562127070808" lon="9.216545616312937"><ele>312.5</ele><time>2026-04-09T08:19:18.001Z</time></trkpt><trkpt lat="39.32573316968114" lon="9.216466262260413"><ele>320.0</ele><time>2026-04-09T08:19:19.001Z</time></trkpt><trkpt lat="39.32587174987674" lon="9.216440906127499"><ele>327.5</ele><time>2026-04-09T08:19:20.001Z</time></trkpt><trkpt lat="39.326006776581764" lon="9.21640776090739"><ele>335.0</ele><time>2026-04-09T08:19:21.001Z</time></trkpt><trkpt lat="39.32615458664823" lon="9.21640310592048"><ele>335.0</ele><time>2026-04-09T08:19:22.001Z</time></trkpt><trkpt lat="39.326294393655544" lon="9.216368580710679"><ele>335.0</ele><time>2026-04-09T08:19:23.001Z</time></trkpt><trkpt lat="39.32642409788353" lon="9.216309365966861"><ele>335.0</ele><time>2026-04-09T08:19:24.001Z</time></trkpt><trkpt lat="39.32656202132755" lon="9.21625547687753"><ele>335.0</ele><time>2026-04-09T08:19:25.001Z</time></trkpt><trkpt lat="39.32671117157977" lon="9.21620979975887"><ele>337.4</ele><time>2026-04-09T08:19:26.001Z</time></trkpt><trkpt lat="39.32680935905982" lon="9.21623087393668"><ele>339.8</ele><time>2026-04-09T08:19:27.001Z</time></trkpt><trkpt lat="39.326885886631054" lon="9.216253985832573"><ele>342.20000000000005</ele><time>2026-04-09T08:19:28.001Z</time></trkpt><trkpt lat="39.326994293794804" lon="9.216273911595366"><ele>344.6</ele><time>2026-04-09T08:19:29.001Z</time></trkpt><trkpt lat="39.327129022159" lon="9.216345153715473"><ele>347.0</ele><time>2026-04-09T08:19:30.001Z</time></trkpt><trkpt lat="39.32727294571253" lon="9.216417854248395"><ele>347.0</ele><time>2026-04-09T08:19:31.001Z</time></trkpt><trkpt lat="39.327409055503615" lon="9.216497847107716"><ele>347.0</ele><time>2026-04-09T08:19:32.001Z</time></trkpt><trkpt lat="39.32752342055728" lon="9.216517522729466"><ele>347.0</ele><time>2026-04-09T08:19:33.001Z</time></trkpt><trkpt lat="39.32761119918929" lon="9.216548479936817"><ele>347.0</ele><time>2026-04-09T08:19:34.001Z</time></trkpt><trkpt lat="39.32770422542397" lon="9.216596633517659"><ele>347.0</ele><time>2026-04-09T08:19:36.001Z</time></trkpt><trkpt lat="39.3277010551308" lon="9.216709550131704"><ele>347.0</ele><time>2026-04-09T08:19:38.001Z</time></trkpt><trkpt lat="39.32761947036133" lon="9.216774242100362"><ele>347.0</ele><time>2026-04-09T08:19:40.001Z</time></trkpt><trkpt lat="39.32755106931581" lon="9.216850394141872"><ele>347.0</ele><time>2026-04-09T08:19:41.001Z</time></trkpt><trkpt lat="39.32747628993235" lon="9.216938705029426"><ele>347.0</ele><time>2026-04-09T08:19:42.001Z</time></trkpt><trkpt lat="39.327396138542845" lon="9.217017415654965"><ele>347.0</ele><time>2026-04-09T08:19:43.001Z</time></trkpt><trkpt lat="39.327312338527015" lon="9.217066138680323"><ele>347.0</ele><time>2026-04-09T08:19:44.001Z</time></trkpt><trkpt lat="39.327199289711764" lon="9.217111866502888"><ele>347.0</ele><time>2026-04-09T08:19:45.001Z</time></trkpt><trkpt lat="39.32709088473015" lon="9.217168052076072"><ele>347.0</ele><time>2026-04-09T08:19:46.001Z</time></trkpt><trkpt lat="39.327039133855926" lon="9.21721546268334"><ele>347.0</ele><time>2026-04-09T08:19:47.001Z</time></trkpt><trkpt lat="39.327015392002615" lon="9.217328425747075"><ele>345.25</ele><time>2026-04-09T08:19:49.001Z</time></trkpt><trkpt lat="39.32710183466841" lon="9.217409086270345"><ele>343.5</ele><time>2026-04-09T08:19:51.001Z</time></trkpt><trkpt lat="39.32724848002041" lon="9.217407492618927"><ele>341.75</ele><time>2026-04-09T08:19:53.001Z</time></trkpt><trkpt lat="39.32734613755672" lon="9.217403088722254"><ele>340.0</ele><time>2026-04-09T08:19:54.001Z</time></trkpt><trkpt lat="39.327449234189174" lon="9.217400702930737"><ele>341.75</ele><time>2026-04-09T08:19:55.001Z</time></trkpt><trkpt lat="39.32754969323924" lon="9.217371694981546"><ele>343.5</ele><time>2026-04-09T08:19:56.001Z</time></trkpt><trkpt lat="39.32767678726355" lon="9.217322412054276"><ele>345.25</ele><time>2026-04-09T08:19:57.001Z</time></trkpt><trkpt lat="39.32780888813515" lon="9.217249195131805"><ele>347.0</ele><time>2026-04-09T08:19:58.001Z</time></trkpt><trkpt lat="39.32793774719109" lon="9.217169900343315"><ele>351.75</ele><time>2026-04-09T08:19:59.001Z</time></trkpt><trkpt lat="39.32807352213973" lon="9.217093133578759"><ele>356.5</ele><time>2026-04-09T08:20:00.001Z</time></trkpt><trkpt lat="39.32819999659522" lon="9.217040132057083"><ele>361.25</ele><time>2026-04-09T08:20:01.001Z</time></trkpt><trkpt lat="39.32833338207891" lon="9.216994213790073"><ele>366.0</ele><time>2026-04-09T08:20:02.001Z</time></trkpt><trkpt lat="39.32845970060281" lon="9.216948363412989"><ele>366.0</ele><time>2026-04-09T08:20:03.001Z</time></trkpt><trkpt lat="39.32856506466348" lon="9.216887236735598"><ele>366.0</ele><time>2026-04-09T08:20:04.001Z</time></trkpt><trkpt lat="39.32865476413586" lon="9.216836285296692"><ele>366.0</ele><time>2026-04-09T08:20:05.001Z</time></trkpt><trkpt lat="39.32876235111222" lon="9.216799764940346"><ele>366.0</ele><time>2026-04-09T08:20:06.001Z</time></trkpt><trkpt lat="39.328881834241564" lon="9.216782758499537"><ele>366.0</ele><time>2026-04-09T08:20:07.001Z</time></trkpt><trkpt lat="39.328975962507066" lon="9.216766536348377"><ele>368.8</ele><time>2026-04-09T08:20:08.002Z</time></trkpt><trkpt lat="39.329034539710555" lon="9.216736433800888"><ele>371.6</ele><time>2026-04-09T08:20:09.002Z</time></trkpt><trkpt lat="39.329065868107755" lon="9.216620982309099"><ele>374.4</ele><time>2026-04-09T08:20:11.002Z</time></trkpt><trkpt lat="39.32901380435273" lon="9.216466907559713"><ele>377.2</ele><time>2026-04-09T08:20:13.002Z</time></trkpt><trkpt lat="39.32893223370068" lon="9.216374393371703"><ele>380.0</ele><time>2026-04-09T08:20:14.002Z</time></trkpt><trkpt lat="39.328870236927614" lon="9.21624053812078"><ele>380.0</ele><time>2026-04-09T08:20:15.002Z</time></trkpt><trkpt lat="39.328827861916444" lon="9.216115693378972"><ele>380.0</ele><time>2026-04-09T08:20:16.002Z</time></trkpt><trkpt lat="39.32879281775537" lon="9.216002709989016"><ele>380.0</ele><time>2026-04-09T08:20:17.002Z</time></trkpt><trkpt lat="39.3287696457013" lon="9.215919593447035"><ele>380.0</ele><time>2026-04-09T08:20:18.002Z</time></trkpt><trkpt lat="39.32880036263047" lon="9.21583766503393"><ele>380.0</ele><time>2026-04-09T08:20:21.002Z</time></trkpt><trkpt lat="39.328888475690505" lon="9.215880507220248"><ele>380.0</ele><time>2026-04-09T08:20:23.002Z</time></trkpt><trkpt lat="39.32894027722514" lon="9.21604748607728"><ele>383.83333333333337</ele><time>2026-04-09T08:20:25.002Z</time></trkpt><trkpt lat="39.328996955712434" lon="9.216130474946345"><ele>387.6666666666667</ele><time>2026-04-09T08:20:26.002Z</time></trkpt><trkpt lat="39.32904841283907" lon="9.216210382867882"><ele>391.5</ele><time>2026-04-09T08:20:27.002Z</time></trkpt><trkpt lat="39.32911769491314" lon="9.216271305074812"><ele>395.33333333333337</ele><time>2026-04-09T08:20:28.002Z</time></trkpt><trkpt lat="39.32920067469226" lon="9.216331578055652"><ele>399.1666666666667</ele><time>2026-04-09T08:20:29.002Z</time></trkpt><trkpt lat="39.32929887564695" lon="9.216374313787952"><ele>403.0</ele><time>2026-04-09T08:20:30.002Z</time></trkpt><trkpt lat="39.329427717424906" lon="9.216423001954752"><ele>403.0</ele><time>2026-04-09T08:20:31.002Z</time></trkpt><trkpt lat="39.32955315004523" lon="9.216468375489223"><ele>403.0</ele><time>2026-04-09T08:20:32.002Z</time></trkpt><trkpt lat="39.32963429580272" lon="9.216504847101913"><ele>403.0</ele><time>2026-04-09T08:20:33.002Z</time></trkpt><trkpt lat="39.329675606836865" lon="9.216632316313758"><ele>403.0</ele><time>2026-04-09T08:20:35.002Z</time></trkpt><trkpt lat="39.32964458167779" lon="9.216731221124585"><ele>403.0</ele><time>2026-04-09T08:20:36.002Z</time></trkpt><trkpt lat="39.32960918722313" lon="9.21683463388122"><ele>400.0</ele><time>2026-04-09T08:20:37.002Z</time></trkpt><trkpt lat="39.329553987745236" lon="9.216945944703632"><ele>397.0</ele><time>2026-04-09T08:20:38.002Z</time></trkpt><trkpt lat="39.329483310243525" lon="9.217076503852928"><ele>394.0</ele><time>2026-04-09T08:20:39.002Z</time></trkpt><trkpt lat="39.329388319529805" lon="9.217189488597844"><ele>391.0</ele><time>2026-04-09T08:20:40.002Z</time></trkpt><trkpt lat="39.329283565311506" lon="9.217285977081032"><ele>395.0</ele><time>2026-04-09T08:20:41.002Z</time></trkpt><trkpt lat="39.32917974251236" lon="9.217395228421745"><ele>399.0</ele><time>2026-04-09T08:20:42.002Z</time></trkpt><trkpt lat="39.32907472386724" lon="9.217510397241359"><ele>403.0</ele><time>2026-04-09T08:20:43Z</time></trkpt><trkpt lat="39.328975522510696" lon="9.2176393414017"><ele>407.0</ele><time>2026-04-09T08:20:44Z</time></trkpt><trkpt lat="39.328905673083625" lon="9.217804718714355"><ele>407.5</ele><time>2026-04-09T08:20:45Z</time></trkpt><trkpt lat="39.328829580538354" lon="9.217947323239038"><ele>408.0</ele><time>2026-04-09T08:20:46Z</time></trkpt><trkpt lat="39.32873074599209" lon="9.218080161147725"><ele>408.5</ele><time>2026-04-09T08:20:47Z</time></trkpt><trkpt lat="39.328627261404165" lon="9.21819043950711"><ele>409.0</ele><time>2026-04-09T08:20:48Z</time></trkpt><trkpt lat="39.3285416593629" lon="9.218299000807267"><ele>409.00000000000006</ele><time>2026-04-09T08:20:49Z</time></trkpt><trkpt lat="39.328494317673226" lon="9.218380044538932"><ele>409.0</ele><time>2026-04-09T08:20:50Z</time></trkpt><trkpt lat="39.328487289330944" lon="9.218500147704102"><ele>409.0</ele><time>2026-04-09T08:20:52Z</time></trkpt><trkpt lat="39.32857334768712" lon="9.218542107617715"><ele>409.0</ele><time>2026-04-09T08:20:54Z</time></trkpt><trkpt lat="39.32866787415967" lon="9.218544073402576"><ele>409.00000000000006</ele><time>2026-04-09T08:20:56Z</time></trkpt><trkpt lat="39.32874297077823" lon="9.218542090524574"><ele>409.0</ele><time>2026-04-09T08:20:57Z</time></trkpt><trkpt lat="39.32883429814016" lon="9.218537381587456"><ele>410.79999999999995</ele><time>2026-04-09T08:20:58Z</time></trkpt><trkpt lat="39.328942932248765" lon="9.218528809727133"><ele>412.59999999999997</ele><time>2026-04-09T08:20:59Z</time></trkpt><trkpt lat="39.32905030007987" lon="9.218504623013237"><ele>414.4</ele><time>2026-04-09T08:21:00Z</time></trkpt><trkpt lat="39.32913764725249" lon="9.218465268031512"><ele>416.2</ele><time>2026-04-09T08:21:01Z</time></trkpt><trkpt lat="39.329210721811755" lon="9.218399804590211"><ele>418.0</ele><time>2026-04-09T08:21:02Z</time></trkpt><trkpt lat="39.32930586021615" lon="9.218284604337043"><ele>418.0</ele><time>2026-04-09T08:21:03Z</time></trkpt><trkpt lat="39.32940864427839" lon="9.218172835339363"><ele>418.0</ele><time>2026-04-09T08:21:04Z</time></trkpt><trkpt lat="39.3295345957934" lon="9.218133799349157"><ele>418.0</ele><time>2026-04-09T08:21:05Z</time></trkpt><trkpt lat="39.32965627536163" lon="9.218056570731067"><ele>418.0</ele><time>2026-04-09T08:21:06Z</time></trkpt><trkpt lat="39.32976681266613" lon="9.217948357603946"><ele>420.75</ele><time>2026-04-09T08:21:07Z</time></trkpt><trkpt lat="39.329893578773955" lon="9.217841200877185"><ele>423.5</ele><time>2026-04-09T08:21:08Z</time></trkpt><trkpt lat="39.33001210513479" lon="9.217767837394147"><ele>426.25</ele><time>2026-04-09T08:21:09Z</time></trkpt><trkpt lat="39.33012883699589" lon="9.217755732899516"><ele>429.0</ele><time>2026-04-09T08:21:10Z</time></trkpt><trkpt lat="39.33025878717275" lon="9.217722810413834"><ele>429.0</ele><time>2026-04-09T08:21:11Z</time></trkpt><trkpt lat="39.33035933522222" lon="9.217662429784376"><ele>429.0</ele><time>2026-04-09T08:21:12Z</time></trkpt><trkpt lat="39.33046995241105" lon="9.21759753851837"><ele>429.0</ele><time>2026-04-09T08:21:13Z</time></trkpt><trkpt lat="39.330612331714235" lon="9.217506370506307"><ele>429.0</ele><time>2026-04-09T08:21:14Z</time></trkpt><trkpt lat="39.33076839096773" lon="9.217403403001114"><ele>431.66666666666663</ele><time>2026-04-09T08:21:15Z</time></trkpt><trkpt lat="39.33091326924378" lon="9.217321473141327"><ele>434.3333333333333</ele><time>2026-04-09T08:21:16Z</time></trkpt><trkpt lat="39.331070372955416" lon="9.217261280699567"><ele>437.0</ele><time>2026-04-09T08:21:17Z</time></trkpt><trkpt lat="39.33122741304697" lon="9.217210293141354"><ele>442.0</ele><time>2026-04-09T08:21:18Z</time></trkpt><trkpt lat="39.33138231406726" lon="9.217195310680147"><ele>447.0</ele><time>2026-04-09T08:21:19Z</time></trkpt><trkpt lat="39.331541614910115" lon="9.21717651044163"><ele>452.0</ele><time>2026-04-09T08:21:20Z</time></trkpt><trkpt lat="39.331698277008314" lon="9.217147359815412"><ele>455.5</ele><time>2026-04-09T08:21:21Z</time></trkpt><trkpt lat="39.331826235267464" lon="9.217095943751385"><ele>459.0</ele><time>2026-04-09T08:21:22.001Z</time></trkpt><trkpt lat="39.3319525348837" lon="9.217054554526516"><ele>462.5</ele><time>2026-04-09T08:21:23.001Z</time></trkpt><trkpt lat="39.33206075382162" lon="9.21702402038168"><ele>466.0</ele><time>2026-04-09T08:21:24.001Z</time></trkpt><trkpt lat="39.33215307390988" lon="9.217015462900534"><ele>468.0</ele><time>2026-04-09T08:21:25.001Z</time></trkpt><trkpt lat="39.3322352034624" lon="9.217048099597262"><ele>470.0</ele><time>2026-04-09T08:21:26.001Z</time></trkpt><trkpt lat="39.332300145156054" lon="9.217127945132075"><ele>472.0</ele><time>2026-04-09T08:21:27.001Z</time></trkpt><trkpt lat="39.332414684534605" lon="9.217184045114013"><ele>474.0</ele><time>2026-04-09T08:21:28.001Z</time></trkpt><trkpt lat="39.33251881989272" lon="9.2172566434826"><ele>476.0</ele><time>2026-04-09T08:21:29.001Z</time></trkpt><trkpt lat="39.33259722456793" lon="9.217285204610489"><ele>476.0</ele><time>2026-04-09T08:21:30.001Z</time></trkpt><trkpt lat="39.332672301753554" lon="9.217289387033864"><ele>476.0</ele><time>2026-04-09T08:21:31.001Z</time></trkpt><trkpt lat="39.3327501282427" lon="9.217268008839111"><ele>476.0</ele><time>2026-04-09T08:21:32.001Z</time></trkpt><trkpt lat="39.332866746269914" lon="9.21723047535011"><ele>476.0</ele><time>2026-04-09T08:21:33.001Z</time></trkpt><trkpt lat="39.33300786761112" lon="9.217176963140597"><ele>476.0</ele><time>2026-04-09T08:21:34.001Z</time></trkpt><trkpt lat="39.33314040491689" lon="9.217167656992524"><ele>477.3333333333333</ele><time>2026-04-09T08:21:35.001Z</time></trkpt><trkpt lat="39.333235081864146" lon="9.217161094261897"><ele>478.66666666666663</ele><time>2026-04-09T08:21:36.001Z</time></trkpt><trkpt lat="39.33331661793488" lon="9.217158297622717"><ele>480.0</ele><time>2026-04-09T08:21:37.001Z</time></trkpt><trkpt lat="39.33340657787671" lon="9.217207658672411"><ele>481.33333333333337</ele><time>2026-04-09T08:21:38.001Z</time></trkpt><trkpt lat="39.33345126395039" lon="9.217293502204107"><ele>482.6666666666667</ele><time>2026-04-09T08:21:39.001Z</time></trkpt><trkpt lat="39.33350505017189" lon="9.217373853792717"><ele>484.0</ele><time>2026-04-09T08:21:40.001Z</time></trkpt><trkpt lat="39.33357157615263" lon="9.217490491758092"><ele>485.0</ele><time>2026-04-09T08:21:41.001Z</time></trkpt><trkpt lat="39.3336557096617" lon="9.217632961715784"><ele>486.0</ele><time>2026-04-09T08:21:42.001Z</time></trkpt><trkpt lat="39.33373126839943" lon="9.217777471005558"><ele>487.0</ele><time>2026-04-09T08:21:43.001Z</time></trkpt><trkpt lat="39.33379462862237" lon="9.217875561022863"><ele>488.0</ele><time>2026-04-09T08:21:44.001Z</time></trkpt><trkpt lat="39.33384665233998" lon="9.217923270202755"><ele>489.0</ele><time>2026-04-09T08:21:45.001Z</time></trkpt><trkpt lat="39.33390412686825" lon="9.21796290417943"><ele>489.0</ele><time>2026-04-09T08:21:46.001Z</time></trkpt><trkpt lat="39.33397823866929" lon="9.217997266204858"><ele>489.0</ele><time>2026-04-09T08:21:47.001Z</time></trkpt><trkpt lat="39.33406130461482" lon="9.218011374423265"><ele>489.0</ele><time>2026-04-09T08:21:48.001Z</time></trkpt><trkpt lat="39.33416420781225" lon="9.218001201343043"><ele>489.0</ele><time>2026-04-09T08:21:49.001Z</time></trkpt><trkpt lat="39.33429735692854" lon="9.217979105028288"><ele>489.0</ele><time>2026-04-09T08:21:50.001Z</time></trkpt><trkpt lat="39.334456116756186" lon="9.217948225650316"><ele>489.0</ele><time>2026-04-09T08:21:51.001Z</time></trkpt><trkpt lat="39.33461202558972" lon="9.217903366458636"><ele>489.0</ele><time>2026-04-09T08:21:52.001Z</time></trkpt><trkpt lat="39.33475519105524" lon="9.21786191767345"><ele>489.0</ele><time>2026-04-09T08:21:53.001Z</time></trkpt><trkpt lat="39.33484982780156" lon="9.217838927149995"><ele>489.0</ele><time>2026-04-09T08:21:54.001Z</time></trkpt><trkpt lat="39.33492601729546" lon="9.217833500159822"><ele>492.5</ele><time>2026-04-09T08:21:55.001Z</time></trkpt><trkpt lat="39.33501191691123" lon="9.217861597396128"><ele>496.0</ele><time>2026-04-09T08:21:56.001Z</time></trkpt><trkpt lat="39.33508603764383" lon="9.217961626043369"><ele>499.5</ele><time>2026-04-09T08:21:57.001Z</time></trkpt><trkpt lat="39.33518103479715" lon="9.218056245729601"><ele>503.0</ele><time>2026-04-09T08:21:58.001Z</time></trkpt><trkpt lat="39.33530964280846" lon="9.218182469945429"><ele>503.66666666666663</ele><time>2026-04-09T08:21:59.001Z</time></trkpt><trkpt lat="39.33543652150028" lon="9.218332286238022"><ele>504.33333333333337</ele><time>2026-04-09T08:22:00.001Z</time></trkpt><trkpt lat="39.33555510451946" lon="9.21848171170521"><ele>505.0</ele><time>2026-04-09T08:22:01.001Z</time></trkpt><trkpt lat="39.33565817945217" lon="9.21861118805854"><ele>505.0</ele><time>2026-04-09T08:22:02.001Z</time></trkpt><trkpt lat="39.33572885792133" lon="9.218725682551696"><ele>505.0</ele><time>2026-04-09T08:22:03.001Z</time></trkpt><trkpt lat="39.335805259783385" lon="9.218815366799697"><ele>505.0</ele><time>2026-04-09T08:22:04.001Z</time></trkpt><trkpt lat="39.335900819707525" lon="9.218886194496335"><ele>505.0</ele><time>2026-04-09T08:22:05.001Z</time></trkpt><trkpt lat="39.33599591617975" lon="9.218967821281996"><ele>505.0</ele><time>2026-04-09T08:22:06.001Z</time></trkpt><trkpt lat="39.3361085342595" lon="9.219049569295029"><ele>505.6666666666667</ele><time>2026-04-09T08:22:07.001Z</time></trkpt><trkpt lat="39.33625363055114" lon="9.219153582324404"><ele>506.33333333333337</ele><time>2026-04-09T08:22:08.001Z</time></trkpt><trkpt lat="39.33640590338894" lon="9.219257949732263"><ele>507.0</ele><time>2026-04-09T08:22:09.001Z</time></trkpt><trkpt lat="39.33655865755498" lon="9.21938481510497"><ele>507.0</ele><time>2026-04-09T08:22:10.001Z</time></trkpt><trkpt lat="39.33673284920639" lon="9.2194716038132"><ele>507.0</ele><time>2026-04-09T08:22:11.001Z</time></trkpt><trkpt lat="39.33691706157469" lon="9.219573711531961"><ele>507.0</ele><time>2026-04-09T08:22:12.002Z</time></trkpt><trkpt lat="39.337087967576785" lon="9.219664388689544"><ele>505.66666666666663</ele><time>2026-04-09T08:22:13.002Z</time></trkpt><trkpt lat="39.33723925416711" lon="9.219765489188685"><ele>504.3333333333333</ele><time>2026-04-09T08:22:14.002Z</time></trkpt><trkpt lat="39.33737406307195" lon="9.219837316121382"><ele>503.0</ele><time>2026-04-09T08:22:15.002Z</time></trkpt><trkpt lat="39.33750649651407" lon="9.219879719706126"><ele>502.99999999999994</ele><time>2026-04-09T08:22:16.002Z</time></trkpt><trkpt lat="39.33760933161554" lon="9.219915551543762"><ele>503.0</ele><time>2026-04-09T08:22:17.002Z</time></trkpt><trkpt lat="39.33769046205575" lon="9.219954866313008"><ele>503.0</ele><time>2026-04-09T08:22:18.002Z</time></trkpt><trkpt lat="39.33775599502" lon="9.219978963271137"><ele>503.0</ele><time>2026-04-09T08:22:19.002Z</time></trkpt><trkpt lat="39.337845247655984" lon="9.220042240312406"><ele>502.99999999999994</ele><time>2026-04-09T08:22:21.002Z</time></trkpt><trkpt lat="39.337850882606624" lon="9.220130201108002"><ele>503.0</ele><time>2026-04-09T08:22:23.002Z</time></trkpt><trkpt lat="39.337788052660905" lon="9.220143874664757"><ele>502.99999999999994</ele><time>2026-04-09T08:22:26.002Z</time></trkpt><trkpt lat="39.33780443994326" lon="9.220261300241761"><ele>503.0</ele><time>2026-04-09T08:22:35.002Z</time></trkpt><trkpt lat="39.3377977311582" lon="9.220357720082701"><ele>503.0</ele><time>2026-04-09T08:22:37.002Z</time></trkpt><trkpt lat="39.337839165208166" lon="9.220429460515867"><ele>503.0</ele><time>2026-04-09T08:22:39.002Z</time></trkpt><trkpt lat="39.33794063988702" lon="9.220469386110302"><ele>502.99999999999994</ele><time>2026-04-09T08:22:41.002Z</time></trkpt><trkpt lat="39.33803436342175" lon="9.22052622857415"><ele>503.0</ele><time>2026-04-09T08:22:44.002Z</time></trkpt><trkpt lat="39.33811424866218" lon="9.220611709032527"><ele>504.0</ele><time>2026-04-09T08:22:46.002Z</time></trkpt><trkpt lat="39.33819757932265" lon="9.220703978871917"><ele>504.99999999999994</ele><time>2026-04-09T08:22:48.002Z</time></trkpt><trkpt lat="39.33826000682664" lon="9.22075141122068"><ele>505.99999999999994</ele><time>2026-04-09T08:22:50Z</time></trkpt><trkpt lat="39.33834067064209" lon="9.220877440870392"><ele>507.0</ele><time>2026-04-09T08:22:52Z</time></trkpt><trkpt lat="39.33841662588106" lon="9.220985831316284"><ele>508.0</ele><time>2026-04-09T08:22:54Z</time></trkpt><trkpt lat="39.33846990585342" lon="9.221073884327536"><ele>508.0</ele><time>2026-04-09T08:22:56Z</time></trkpt><trkpt lat="39.33848155703873" lon="9.221162706455662"><ele>507.99999999999994</ele><time>2026-04-09T08:22:58Z</time></trkpt><trkpt lat="39.33842128517349" lon="9.221279556336464"><ele>507.99999999999994</ele><time>2026-04-09T08:23:00Z</time></trkpt><trkpt lat="39.338363919406426" lon="9.221357736965123"><ele>508.0</ele><time>2026-04-09T08:23:01Z</time></trkpt><trkpt lat="39.33829314987887" lon="9.221460181367725"><ele>508.0</ele><time>2026-04-09T08:23:02Z</time></trkpt><trkpt lat="39.33823480332396" lon="9.2215461807892"><ele>508.2</ele><time>2026-04-09T08:23:03Z</time></trkpt><trkpt lat="39.33821685597573" lon="9.221657887356955"><ele>508.4</ele><time>2026-04-09T08:23:04Z</time></trkpt><trkpt lat="39.33822565857673" lon="9.221747948921019"><ele>508.59999999999997</ele><time>2026-04-09T08:23:05Z</time></trkpt><trkpt lat="39.3382407854305" lon="9.221885055901131"><ele>508.79999999999995</ele><time>2026-04-09T08:23:07Z</time></trkpt><trkpt lat="39.338309430070645" lon="9.221970588851002"><ele>509.0</ele><time>2026-04-09T08:23:09Z</time></trkpt><trkpt lat="39.33838910797033" lon="9.222024086994193"><ele>508.99999999999994</ele><time>2026-04-09T08:23:11Z</time></trkpt><trkpt lat="39.338464987745496" lon="9.222052018338415"><ele>509.0</ele><time>2026-04-09T08:23:13Z</time></trkpt><trkpt lat="39.33853094975703" lon="9.222065163096074"><ele>509.0</ele><time>2026-04-09T08:23:15Z</time></trkpt><trkpt lat="39.33859824086119" lon="9.222068959103295"><ele>509.0</ele><time>2026-04-09T08:23:17Z</time></trkpt><trkpt lat="39.3386800036584" lon="9.222095858256292"><ele>508.99999999999994</ele><time>2026-04-09T08:23:20Z</time></trkpt><trkpt lat="39.33876572649063" lon="9.22212203182147"><ele>509.0</ele><time>2026-04-09T08:23:23Z</time></trkpt><trkpt lat="39.33884895464166" lon="9.222153153619146"><ele>508.8333333333333</ele><time>2026-04-09T08:23:26.001Z</time></trkpt><trkpt lat="39.338914474525936" lon="9.222204412646882"><ele>508.66666666666663</ele><time>2026-04-09T08:23:28.001Z</time></trkpt><trkpt lat="39.338973348794184" lon="9.222271189948252"><ele>508.5</ele><time>2026-04-09T08:23:30.001Z</time></trkpt><trkpt lat="39.33902067461334" lon="9.222378586911123"><ele>508.33333333333337</ele><time>2026-04-09T08:23:32.001Z</time></trkpt><trkpt lat="39.33902656365417" lon="9.222466709226016"><ele>508.1666666666667</ele><time>2026-04-09T08:23:33.001Z</time></trkpt><trkpt lat="39.33906344045799" lon="9.222543611480505"><ele>508.0</ele><time>2026-04-09T08:23:34.001Z</time></trkpt><trkpt lat="39.339093638593155" lon="9.222650572342403"><ele>508.0</ele><time>2026-04-09T08:23:35.001Z</time></trkpt><trkpt lat="39.339132845739606" lon="9.222769534694574"><ele>507.99999999999994</ele><time>2026-04-09T08:23:36.001Z</time></trkpt><trkpt lat="39.339180340142654" lon="9.22287121610895"><ele>507.99999999999994</ele><time>2026-04-09T08:23:37.001Z</time></trkpt><trkpt lat="39.33924127836152" lon="9.222965528991784"><ele>508.0</ele><time>2026-04-09T08:23:38.001Z</time></trkpt><trkpt lat="39.33930460605828" lon="9.223048145186588"><ele>508.0</ele><time>2026-04-09T08:23:39.001Z</time></trkpt><trkpt lat="39.339383610268136" lon="9.223143939197536"><ele>512.6</ele><time>2026-04-09T08:23:40.001Z</time></trkpt><trkpt lat="39.339465575060636" lon="9.223257593067087"><ele>517.1999999999999</ele><time>2026-04-09T08:23:41.001Z</time></trkpt><trkpt lat="39.33950831212987" lon="9.223379850382651"><ele>521.8</ele><time>2026-04-09T08:23:42.001Z</time></trkpt><trkpt lat="39.33955702522959" lon="9.223462916167618"><ele>526.4</ele><time>2026-04-09T08:23:43.001Z</time></trkpt><trkpt lat="39.33960651174337" lon="9.223521911585637"><ele>531.0</ele><time>2026-04-09T08:23:44.001Z</time></trkpt><trkpt lat="39.33969745904661" lon="9.223521620118804"><ele>529.4</ele><time>2026-04-09T08:23:46.001Z</time></trkpt><trkpt lat="39.33974994768354" lon="9.223434848028562"><ele>527.8</ele><time>2026-04-09T08:23:47.001Z</time></trkpt><trkpt lat="39.339792506797345" lon="9.223319467948905"><ele>526.1999999999999</ele><time>2026-04-09T08:23:48.001Z</time></trkpt><trkpt lat="39.33987206554386" lon="9.223224107165011"><ele>524.6</ele><time>2026-04-09T08:23:49.001Z</time></trkpt><trkpt lat="39.33996664687725" lon="9.223147036644383"><ele>523.0</ele><time>2026-04-09T08:23:50.001Z</time></trkpt><trkpt lat="39.340081839292964" lon="9.223066660922816"><ele>522.5</ele><time>2026-04-09T08:23:51.001Z</time></trkpt><trkpt lat="39.34021128087849" lon="9.222975744363522"><ele>522.0</ele><time>2026-04-09T08:23:52.001Z</time></trkpt><trkpt lat="39.34032243896596" lon="9.222876865893458"><ele>521.5</ele><time>2026-04-09T08:23:53.001Z</time></trkpt><trkpt lat="39.340459904760664" lon="9.222782042861054"><ele>521.0</ele><time>2026-04-09T08:23:54.001Z</time></trkpt><trkpt lat="39.340597539342156" lon="9.222669556023568"><ele>521.0</ele><time>2026-04-09T08:23:55.001Z</time></trkpt><trkpt lat="39.34072002478021" lon="9.222537470817342"><ele>521.0</ele><time>2026-04-09T08:23:56.001Z</time></trkpt><trkpt lat="39.34082500056236" lon="9.222401071687031"><ele>521.0</ele><time>2026-04-09T08:23:57.001Z</time></trkpt><trkpt lat="39.34090672951768" lon="9.222252790417627"><ele>521.0</ele><time>2026-04-09T08:23:58.001Z</time></trkpt><trkpt lat="39.34096590079785" lon="9.222105568646665"><ele>516.6</ele><time>2026-04-09T08:23:59.001Z</time></trkpt><trkpt lat="39.341023186721436" lon="9.221989693472695"><ele>512.2</ele><time>2026-04-09T08:24:00.001Z</time></trkpt><trkpt lat="39.34105583861124" lon="9.221897841777718"><ele>507.79999999999995</ele><time>2026-04-09T08:24:01.001Z</time></trkpt><trkpt lat="39.341080554960726" lon="9.221805303979838"><ele>503.4</ele><time>2026-04-09T08:24:02.001Z</time></trkpt><trkpt lat="39.34118082590523" lon="9.2217389158988"><ele>499.0</ele><time>2026-04-09T08:24:04.001Z</time></trkpt><trkpt lat="39.34131565059612" lon="9.221793008481907"><ele>502.4</ele><time>2026-04-09T08:24:06.001Z</time></trkpt><trkpt lat="39.34140813631472" lon="9.221816588130707"><ele>505.79999999999995</ele><time>2026-04-09T08:24:07.001Z</time></trkpt><trkpt lat="39.3415085079459" lon="9.221836076294158"><ele>509.20000000000005</ele><time>2026-04-09T08:24:08.001Z</time></trkpt><trkpt lat="39.34163300554745" lon="9.221857123325535"><ele>512.6</ele><time>2026-04-09T08:24:09.001Z</time></trkpt><trkpt lat="39.341760262062245" lon="9.221872289411706"><ele>516.0</ele><time>2026-04-09T08:24:10.001Z</time></trkpt><trkpt lat="39.341911096760874" lon="9.221881743861097"><ele>516.0</ele><time>2026-04-09T08:24:11.001Z</time></trkpt><trkpt lat="39.342050975284" lon="9.221889083376142"><ele>516.0</ele><time>2026-04-09T08:24:12.001Z</time></trkpt><trkpt lat="39.34218429438135" lon="9.221874528854224"><ele>516.0</ele><time>2026-04-09T08:24:13.001Z</time></trkpt><trkpt lat="39.34230289247183" lon="9.221835373798253"><ele>516.0</ele><time>2026-04-09T08:24:14.001Z</time></trkpt><trkpt lat="39.342425611137" lon="9.22177801562397"><ele>517.0</ele><time>2026-04-09T08:24:15.001Z</time></trkpt><trkpt lat="39.34254205613239" lon="9.221713200282208"><ele>518.0</ele><time>2026-04-09T08:24:16.001Z</time></trkpt><trkpt lat="39.34263338138658" lon="9.221664708324111"><ele>519.0</ele><time>2026-04-09T08:24:17.002Z</time></trkpt><trkpt lat="39.34273614319535" lon="9.221691646427928"><ele>520.0</ele><time>2026-04-09T08:24:19.002Z</time></trkpt><trkpt lat="39.342855042926786" lon="9.221778588918134"><ele>520.0</ele><time>2026-04-09T08:24:21.002Z</time></trkpt><trkpt lat="39.342930224711104" lon="9.221856786583567"><ele>520.0</ele><time>2026-04-09T08:24:22.002Z</time></trkpt><trkpt lat="39.3430298520748" lon="9.221952100402946"><ele>520.0</ele><time>2026-04-09T08:24:23.002Z</time></trkpt><trkpt lat="39.343137673101886" lon="9.222070496843084"><ele>520.0</ele><time>2026-04-09T08:24:24.002Z</time></trkpt><trkpt lat="39.34325113775007" lon="9.222180497101604"><ele>517.2</ele><time>2026-04-09T08:24:25.002Z</time></trkpt><trkpt lat="39.34335754961064" lon="9.222275196717494"><ele>514.4</ele><time>2026-04-09T08:24:26.002Z</time></trkpt><trkpt lat="39.34343584649786" lon="9.222345263856932"><ele>511.6</ele><time>2026-04-09T08:24:27.002Z</time></trkpt><trkpt lat="39.343508864818034" lon="9.222422796745153"><ele>508.8</ele><time>2026-04-09T08:24:28.002Z</time></trkpt><trkpt lat="39.3435787510593" lon="9.222518382691444"><ele>506.0</ele><time>2026-04-09T08:24:29.002Z</time></trkpt><trkpt lat="39.34364668198068" lon="9.222631563584025"><ele>513.0</ele><time>2026-04-09T08:24:30.002Z</time></trkpt><trkpt lat="39.343715076756204" lon="9.222754817187065"><ele>520.0</ele><time>2026-04-09T08:24:31.002Z</time></trkpt><trkpt lat="39.343752366802484" lon="9.2229054168166"><ele>527.0</ele><time>2026-04-09T08:24:32.002Z</time></trkpt><trkpt lat="39.343799478384476" lon="9.22305315166499"><ele>534.0</ele><time>2026-04-09T08:24:33.002Z</time></trkpt><trkpt lat="39.34384737786325" lon="9.223185834887904"><ele>531.25</ele><time>2026-04-09T08:24:34.002Z</time></trkpt><trkpt lat="39.343883061996685" lon="9.223322026949582"><ele>528.5</ele><time>2026-04-09T08:24:35.002Z</time></trkpt><trkpt lat="39.34392784212126" lon="9.223471824295602"><ele>525.75</ele><time>2026-04-09T08:24:36.002Z</time></trkpt><trkpt lat="39.34398289565554" lon="9.22360375201485"><ele>523.0</ele><time>2026-04-09T08:24:37.002Z</time></trkpt><trkpt lat="39.34405650142544" lon="9.223704443087186"><ele>523.0</ele><time>2026-04-09T08:24:38.002Z</time></trkpt><trkpt lat="39.34413520067495" lon="9.223790460209283"><ele>523.0</ele><time>2026-04-09T08:24:39.002Z</time></trkpt><trkpt lat="39.34418578442098" lon="9.223897237789478"><ele>523.0</ele><time>2026-04-09T08:24:40.002Z</time></trkpt><trkpt lat="39.34422228566522" lon="9.223977537836612"><ele>523.0</ele><time>2026-04-09T08:24:41.002Z</time></trkpt><trkpt lat="39.34426740934175" lon="9.22410767460704"><ele>523.0</ele><time>2026-04-09T08:24:43.002Z</time></trkpt><trkpt lat="39.34429228667396" lon="9.224270178445659"><ele>525.4</ele><time>2026-04-09T08:24:45.002Z</time></trkpt><trkpt lat="39.34432222768269" lon="9.224405969371338"><ele>527.8</ele><time>2026-04-09T08:24:46.002Z</time></trkpt><trkpt lat="39.344328173013544" lon="9.224564094635376"><ele>530.2</ele><time>2026-04-09T08:24:47.002Z</time></trkpt><trkpt lat="39.344319159605966" lon="9.224698210385869"><ele>532.6</ele><time>2026-04-09T08:24:48.002Z</time></trkpt><trkpt lat="39.34431387320519" lon="9.22481821893656"><ele>535.0</ele><time>2026-04-09T08:24:49.002Z</time></trkpt><trkpt lat="39.34430030603564" lon="9.224934581159633"><ele>536.8</ele><time>2026-04-09T08:24:50.002Z</time></trkpt><trkpt lat="39.34428313353808" lon="9.225028721070966"><ele>538.6</ele><time>2026-04-09T08:24:51.002Z</time></trkpt><trkpt lat="39.34424510223848" lon="9.225208235773286"><ele>540.4</ele><time>2026-04-09T08:24:53.002Z</time></trkpt><trkpt lat="39.34422186678789" lon="9.225306939769865"><ele>542.2</ele><time>2026-04-09T08:24:54.002Z</time></trkpt><trkpt lat="39.34419575862449" lon="9.2254123353545"><ele>544.0</ele><time>2026-04-09T08:24:55Z</time></trkpt><trkpt lat="39.3441676041419" lon="9.225521376397056"><ele>544.0</ele><time>2026-04-09T08:24:56Z</time></trkpt><trkpt lat="39.344138362788456" lon="9.225636478886406"><ele>544.0</ele><time>2026-04-09T08:24:57Z</time></trkpt><trkpt lat="39.34411793186969" lon="9.22576670619913"><ele>544.0</ele><time>2026-04-09T08:24:58Z</time></trkpt><trkpt lat="39.34408229995303" lon="9.22590951168081"><ele>544.0</ele><time>2026-04-09T08:24:59Z</time></trkpt><trkpt lat="39.344052605713806" lon="9.226053915912571"><ele>544.0</ele><time>2026-04-09T08:25:00Z</time></trkpt><trkpt lat="39.344029492440164" lon="9.226200408714922"><ele>545.2</ele><time>2026-04-09T08:25:01Z</time></trkpt><trkpt lat="39.34401157950148" lon="9.226337438145363"><ele>546.4</ele><time>2026-04-09T08:25:02Z</time></trkpt><trkpt lat="39.34400998494508" lon="9.22647270821008"><ele>547.6</ele><time>2026-04-09T08:25:03Z</time></trkpt><trkpt lat="39.3440010340421" lon="9.22660032794185"><ele>548.8</ele><time>2026-04-09T08:25:04Z</time></trkpt><trkpt lat="39.34400016052584" lon="9.226681885215223"><ele>550.0</ele><time>2026-04-09T08:25:05Z</time></trkpt><trkpt lat="39.34395238440262" lon="9.226820703244792"><ele>551.5</ele><time>2026-04-09T08:25:07Z</time></trkpt><trkpt lat="39.34389108973513" lon="9.22685680912642"><ele>553.0</ele><time>2026-04-09T08:25:08Z</time></trkpt><trkpt lat="39.34382875043908" lon="9.226939127402577"><ele>554.5</ele><time>2026-04-09T08:25:09Z</time></trkpt><trkpt lat="39.34377749082035" lon="9.227027002936415"><ele>556.0</ele><time>2026-04-09T08:25:10Z</time></trkpt><trkpt lat="39.34375434130578" lon="9.227150983587082"><ele>557.5</ele><time>2026-04-09T08:25:12Z</time></trkpt><trkpt lat="39.34381305671001" lon="9.227227515934871"><ele>559.0</ele><time>2026-04-09T08:25:14Z</time></trkpt><trkpt lat="39.343927777452045" lon="9.227299066493226"><ele>561.6</ele><time>2026-04-09T08:25:16Z</time></trkpt><trkpt lat="39.34402324004752" lon="9.227320376508382"><ele>564.2</ele><time>2026-04-09T08:25:17Z</time></trkpt><trkpt lat="39.344124787337286" lon="9.227332389729737"><ele>566.8000000000001</ele><time>2026-04-09T08:25:18Z</time></trkpt><trkpt lat="39.34420336231799" lon="9.227338349679648"><ele>569.4</ele><time>2026-04-09T08:25:19Z</time></trkpt><trkpt lat="39.34432991635374" lon="9.227353353116515"><ele>572.0</ele><time>2026-04-09T08:25:21Z</time></trkpt><trkpt lat="39.34441797978311" lon="9.227354117620317"><ele>572.0</ele><time>2026-04-09T08:25:22Z</time></trkpt><trkpt lat="39.3445032894003" lon="9.227342258941661"><ele>572.0</ele><time>2026-04-09T08:25:23Z</time></trkpt><trkpt lat="39.34461534241001" lon="9.227364316810704"><ele>572.0</ele><time>2026-04-09T08:25:25Z</time></trkpt><trkpt lat="39.34472508332088" lon="9.227421548019358"><ele>572.0</ele><time>2026-04-09T08:25:27Z</time></trkpt><trkpt lat="39.34476166686551" lon="9.227501094323726"><ele>572.0</ele><time>2026-04-09T08:25:29Z</time></trkpt><trkpt lat="39.34471108124252" lon="9.227600594754104"><ele>572.0</ele><time>2026-04-09T08:25:31Z</time></trkpt><trkpt lat="39.34469189320443" lon="9.227691638692306"><ele>572.0</ele><time>2026-04-09T08:25:32Z</time></trkpt><trkpt lat="39.34465508460259" lon="9.227808969230297"><ele>572.0</ele><time>2026-04-09T08:25:34Z</time></trkpt><trkpt lat="39.34458645468913" lon="9.227923613042032"><ele>572.0</ele><time>2026-04-09T08:25:36Z</time></trkpt><trkpt lat="39.3445451333923" lon="9.22798745045993"><ele>572.0</ele><time>2026-04-09T08:26:46.002Z</time></trkpt><trkpt lat="39.34448259377489" lon="9.228117514930695"><ele>574.0</ele><time>2026-04-09T08:26:48.002Z</time></trkpt><trkpt lat="39.344413221615056" lon="9.228191240350162"><ele>576.0</ele><time>2026-04-09T08:26:49.002Z</time></trkpt><trkpt lat="39.344363465466316" lon="9.228309823877744"><ele>578.0</ele><time>2026-04-09T08:26:50.002Z</time></trkpt><trkpt lat="39.34431718162832" lon="9.228448676721964"><ele>580.0</ele><time>2026-04-09T08:26:51.002Z</time></trkpt><trkpt lat="39.34426394252116" lon="9.22862760954906"><ele>580.0</ele><time>2026-04-09T08:26:52.002Z</time></trkpt><trkpt lat="39.34423416346867" lon="9.228806932751523"><ele>580.0</ele><time>2026-04-09T08:26:53.002Z</time></trkpt><trkpt lat="39.34420232404813" lon="9.228951942034112"><ele>580.0</ele><time>2026-04-09T08:26:54.002Z</time></trkpt><trkpt lat="39.34417633785099" lon="9.22909583677318"><ele>580.0</ele><time>2026-04-09T08:26:55.002Z</time></trkpt><trkpt lat="39.34413329722917" lon="9.229205859632636"><ele>580.8</ele><time>2026-04-09T08:26:56.002Z</time></trkpt><trkpt lat="39.34410136930458" lon="9.229292304264298"><ele>581.6</ele><time>2026-04-09T08:26:57.002Z</time></trkpt><trkpt lat="39.34406168529441" lon="9.22937632458204"><ele>582.4</ele><time>2026-04-09T08:26:58.002Z</time></trkpt><trkpt lat="39.343994874704244" lon="9.229462262504738"><ele>583.2</ele><time>2026-04-09T08:26:59.002Z</time></trkpt><trkpt lat="39.343905024282485" lon="9.229583206421399"><ele>584.0</ele><time>2026-04-09T08:27:00.002Z</time></trkpt><trkpt lat="39.34380577352252" lon="9.229719734795156"><ele>585.8</ele><time>2026-04-09T08:27:01.001Z</time></trkpt><trkpt lat="39.343724744779024" lon="9.229843741596415"><ele>587.5999999999999</ele><time>2026-04-09T08:27:02.001Z</time></trkpt><trkpt lat="39.34368509877561" lon="9.229972830878834"><ele>589.4</ele><time>2026-04-09T08:27:03.001Z</time></trkpt><trkpt lat="39.343650264479194" lon="9.230074748176568"><ele>591.1999999999999</ele><time>2026-04-09T08:27:04.001Z</time></trkpt><trkpt lat="39.34362561190353" lon="9.23017289514301"><ele>593.0</ele><time>2026-04-09T08:27:05.001Z</time></trkpt><trkpt lat="39.34360812154156" lon="9.230272548308076"><ele>593.0</ele><time>2026-04-09T08:27:06.001Z</time></trkpt><trkpt lat="39.343587277837685" lon="9.230389063948486"><ele>593.0</ele><time>2026-04-09T08:27:07.001Z</time></trkpt><trkpt lat="39.34357382708452" lon="9.230501363511054"><ele>593.0</ele><time>2026-04-09T08:27:08.001Z</time></trkpt><trkpt lat="39.34358050772556" lon="9.230637976870609"><ele>593.0</ele><time>2026-04-09T08:27:10.001Z</time></trkpt><trkpt lat="39.343607824415415" lon="9.230720544933304"><ele>593.0</ele><time>2026-04-09T08:27:12.001Z</time></trkpt><trkpt lat="39.34367443081437" lon="9.23079685715225"><ele>593.0</ele><time>2026-04-09T08:27:15.001Z</time></trkpt><trkpt lat="39.34374131639456" lon="9.230800289148943"><ele>593.1999999999999</ele><time>2026-04-09T08:27:17.001Z</time></trkpt><trkpt lat="39.343827865055395" lon="9.230774037657074"><ele>593.4</ele><time>2026-04-09T08:27:19.001Z</time></trkpt><trkpt lat="39.34395305420005" lon="9.230718384087576"><ele>593.5999999999999</ele><time>2026-04-09T08:27:21.001Z</time></trkpt><trkpt lat="39.344037427671864" lon="9.230697005338941"><ele>593.8</ele><time>2026-04-09T08:27:22.001Z</time></trkpt><trkpt lat="39.3441374326149" lon="9.230683079217066"><ele>594.0</ele><time>2026-04-09T08:27:23.001Z</time></trkpt><trkpt lat="39.34422112764807" lon="9.230675671715131"><ele>594.0</ele><time>2026-04-09T08:27:24.001Z</time></trkpt><trkpt lat="39.34429974358678" lon="9.230683700115339"><ele>594.0</ele><time>2026-04-09T08:27:25.001Z</time></trkpt><trkpt lat="39.3443851529187" lon="9.230677428033179"><ele>594.0</ele><time>2026-04-09T08:27:26.001Z</time></trkpt><trkpt lat="39.344474775380114" lon="9.230696351435197"><ele>594.0</ele><time>2026-04-09T08:27:27.001Z</time></trkpt><trkpt lat="39.344577856680154" lon="9.230671171895171"><ele>594.0</ele><time>2026-04-09T08:27:28.001Z</time></trkpt><trkpt lat="39.34467187991118" lon="9.23063934817741"><ele>592.8333333333334</ele><time>2026-04-09T08:27:29.001Z</time></trkpt><trkpt lat="39.34476103931897" lon="9.230619816340049"><ele>591.6666666666666</ele><time>2026-04-09T08:27:30.001Z</time></trkpt><trkpt lat="39.344845158933694" lon="9.23061954305742"><ele>590.5</ele><time>2026-04-09T08:27:31.001Z</time></trkpt><trkpt lat="39.34491513537168" lon="9.230617217288092"><ele>589.3333333333333</ele><time>2026-04-09T08:27:32.001Z</time></trkpt><trkpt lat="39.3450082535267" lon="9.230630321502444"><ele>588.1666666666666</ele><time>2026-04-09T08:27:33.001Z</time></trkpt><trkpt lat="39.34507327494452" lon="9.230611072602493"><ele>587.0</ele><time>2026-04-09T08:27:34.001Z</time></trkpt><trkpt lat="39.34515548925917" lon="9.230645617806786"><ele>590.3333333333333</ele><time>2026-04-09T08:27:36.001Z</time></trkpt><trkpt lat="39.34512513822644" lon="9.230753848988831"><ele>593.6666666666666</ele><time>2026-04-09T08:27:38.001Z</time></trkpt><trkpt lat="39.3450458353796" lon="9.230778065375313"><ele>597.0</ele><time>2026-04-09T08:27:40.001Z</time></trkpt><trkpt lat="39.3449643368309" lon="9.230812182879133"><ele>600.3333333333334</ele><time>2026-04-09T08:27:42.001Z</time></trkpt><trkpt lat="39.344871855072704" lon="9.230865930184033"><ele>603.6666666666667</ele><time>2026-04-09T08:27:44.001Z</time></trkpt><trkpt lat="39.34480015181281" lon="9.230914601482253"><ele>607.0</ele><time>2026-04-09T08:27:46.001Z</time></trkpt><trkpt lat="39.34472742602518" lon="9.23097180743687"><ele>607.0</ele><time>2026-04-09T08:27:48.001Z</time></trkpt><trkpt lat="39.344679621617196" lon="9.23104284705226"><ele>607.0</ele><time>2026-04-09T08:27:50.001Z</time></trkpt><trkpt lat="39.344764162494066" lon="9.231146395846208"><ele>607.0</ele><time>2026-04-09T08:28:21.002Z</time></trkpt><trkpt lat="39.34483673336704" lon="9.231158702335744"><ele>607.0</ele><time>2026-04-09T08:28:23.002Z</time></trkpt><trkpt lat="39.34491637984273" lon="9.231194036286405"><ele>607.0</ele><time>2026-04-09T08:28:25.002Z</time></trkpt><trkpt lat="39.34499219851517" lon="9.23122505766204"><ele>607.0</ele><time>2026-04-09T08:30:35.002Z</time></trkpt><trkpt lat="39.345065614220196" lon="9.231261172003522"><ele>607.0</ele><time>2026-04-09T08:30:37.002Z</time></trkpt><trkpt lat="39.345182106453166" lon="9.231343432722763"><ele>607.0</ele><time>2026-04-09T08:30:39.002Z</time></trkpt><trkpt lat="39.34524474828118" lon="9.2314084507756"><ele>607.0</ele><time>2026-04-09T08:30:40.002Z</time></trkpt><trkpt lat="39.345303005355326" lon="9.231487808085966"><ele>607.0</ele><time>2026-04-09T08:30:41.002Z</time></trkpt><trkpt lat="39.345351875219926" lon="9.231554106672538"><ele>607.0</ele><time>2026-04-09T08:30:42.002Z</time></trkpt><trkpt lat="39.34540851908115" lon="9.231628836235299"><ele>607.0</ele><time>2026-04-09T08:30:43.002Z</time></trkpt><trkpt lat="39.34546137824255" lon="9.231698651582855"><ele>606.8000000000001</ele><time>2026-04-09T08:30:44.002Z</time></trkpt><trkpt lat="39.345519003777916" lon="9.231756434206694"><ele>606.6</ele><time>2026-04-09T08:30:45.002Z</time></trkpt><trkpt lat="39.34559705779339" lon="9.231870684878762"><ele>606.4000000000001</ele><time>2026-04-09T08:30:47.002Z</time></trkpt><trkpt lat="39.345644708626445" lon="9.2319425968102"><ele>606.2</ele><time>2026-04-09T08:30:48.002Z</time></trkpt><trkpt lat="39.34572263093573" lon="9.232043178208045"><ele>606.0</ele><time>2026-04-09T08:30:50.002Z</time></trkpt><trkpt lat="39.345808827902154" lon="9.232109815245904"><ele>610.0</ele><time>2026-04-09T08:30:52.002Z</time></trkpt><trkpt lat="39.34586987177303" lon="9.232181708256704"><ele>614.0</ele><time>2026-04-09T08:32:40.001Z</time></trkpt><trkpt lat="39.34597832878386" lon="9.23225697349858"><ele>618.0</ele><time>2026-04-09T08:32:42.001Z</time></trkpt><trkpt lat="39.34604045228944" lon="9.232293809129054"><ele>622.0</ele><time>2026-04-09T08:32:43.001Z</time></trkpt><trkpt lat="39.34610309476991" lon="9.232328478264629"><ele>626.0</ele><time>2026-04-09T08:32:44.001Z</time></trkpt><trkpt lat="39.3461958836756" lon="9.232411949954928"><ele>626.0</ele><time>2026-04-09T08:32:46.001Z</time></trkpt><trkpt lat="39.346224212199104" lon="9.232553522822233"><ele>626.0</ele><time>2026-04-09T08:32:48.002Z</time></trkpt><trkpt lat="39.3461741884302" lon="9.232624297172338"><ele>626.0</ele><time>2026-04-09T08:32:49.002Z</time></trkpt><trkpt lat="39.346137495693235" lon="9.23270356359675"><ele>626.0</ele><time>2026-04-09T08:32:50.002Z</time></trkpt><trkpt lat="39.34610957740699" lon="9.232793794504243"><ele>626.0</ele><time>2026-04-09T08:32:51.002Z</time></trkpt><trkpt lat="39.346084628609816" lon="9.232874427039734"><ele>626.0</ele><time>2026-04-09T08:32:52.002Z</time></trkpt><trkpt lat="39.34603695260477" lon="9.233021910840133"><ele>629.5</ele><time>2026-04-09T08:32:54.002Z</time></trkpt><trkpt lat="39.3459710259651" lon="9.233170269221429"><ele>633.0</ele><time>2026-04-09T08:32:56.002Z</time></trkpt><trkpt lat="39.34592100477275" lon="9.233257823744966"><ele>636.5</ele><time>2026-04-09T08:32:57.002Z</time></trkpt><trkpt lat="39.34584822497285" lon="9.233368242999234"><ele>640.0</ele><time>2026-04-09T08:32:58.002Z</time></trkpt><trkpt lat="39.345762676864474" lon="9.233483448436838"><ele>640.0</ele><time>2026-04-09T08:32:59.002Z</time></trkpt><trkpt lat="39.34569055991564" lon="9.233579241900317"><ele>640.0</ele><time>2026-04-09T08:33:00.002Z</time></trkpt><trkpt lat="39.34563761211359" lon="9.233660172458448"><ele>640.0</ele><time>2026-04-09T08:33:01.002Z</time></trkpt><trkpt lat="39.345623562705015" lon="9.233807081761809"><ele>640.0</ele><time>2026-04-09T08:33:03.002Z</time></trkpt><trkpt lat="39.34561852674166" lon="9.233892846493797"><ele>640.0</ele><time>2026-04-09T08:33:04.002Z</time></trkpt><trkpt lat="39.34561354063713" lon="9.233988187270224"><ele>640.0</ele><time>2026-04-09T08:33:05.002Z</time></trkpt><trkpt lat="39.345610068703905" lon="9.23409892310095"><ele>642.5</ele><time>2026-04-09T08:33:06.002Z</time></trkpt><trkpt lat="39.345612668303104" lon="9.234198257483168"><ele>645.0</ele><time>2026-04-09T08:33:07.002Z</time></trkpt><trkpt lat="39.34560849106083" lon="9.234293264139172"><ele>647.5</ele><time>2026-04-09T08:33:08.002Z</time></trkpt><trkpt lat="39.34561144763905" lon="9.234387654905888"><ele>650.0</ele><time>2026-04-09T08:33:09.002Z</time></trkpt><trkpt lat="39.34564264570339" lon="9.234550682613326"><ele>652.5</ele><time>2026-04-09T08:33:11.002Z</time></trkpt><trkpt lat="39.345689737570176" lon="9.234627085258959"><ele>655.0</ele><time>2026-04-09T08:33:12.002Z</time></trkpt><trkpt lat="39.34574113066702" lon="9.234689453729914"><ele>655.2</ele><time>2026-04-09T08:33:13.002Z</time></trkpt><trkpt lat="39.345825244080885" lon="9.234818906292984"><ele>655.4</ele><time>2026-04-09T08:33:15.002Z</time></trkpt><trkpt lat="39.345855515637815" lon="9.234892779960008"><ele>655.5999999999999</ele><time>2026-04-09T08:33:16.002Z</time></trkpt><trkpt lat="39.34580100307343" lon="9.235023560971698"><ele>655.8</ele><time>2026-04-09T08:33:18.002Z</time></trkpt><trkpt lat="39.34577462083049" lon="9.235139758478086"><ele>656.0</ele><time>2026-04-09T08:33:19.001Z</time></trkpt><trkpt lat="39.345747826735135" lon="9.23524291579581"><ele>656.0</ele><time>2026-04-09T08:33:20.001Z</time></trkpt><trkpt lat="39.345723542829944" lon="9.235344659257454"><ele>656.0</ele><time>2026-04-09T08:33:21.001Z</time></trkpt><trkpt lat="39.34570621127304" lon="9.235435883746415"><ele>656.0</ele><time>2026-04-09T08:33:22.001Z</time></trkpt><trkpt lat="39.34569537508344" lon="9.23558820026034"><ele>656.0</ele><time>2026-04-09T08:33:24.001Z</time></trkpt><trkpt lat="39.34576617422916" lon="9.23569042478352"><ele>656.0</ele><time>2026-04-09T08:33:26.001Z</time></trkpt><trkpt lat="39.345909863622055" lon="9.235779331636449"><ele>656.0</ele><time>2026-04-09T08:33:28.001Z</time></trkpt><trkpt lat="39.34602630020201" lon="9.235824124846"><ele>656.0</ele><time>2026-04-09T08:33:29.001Z</time></trkpt><trkpt lat="39.346135154300015" lon="9.235864735580106"><ele>656.0</ele><time>2026-04-09T08:33:30.001Z</time></trkpt><trkpt lat="39.34620499042149" lon="9.23594057012968"><ele>656.0</ele><time>2026-04-09T08:33:31.001Z</time></trkpt><trkpt lat="39.34625460289233" lon="9.236015582565354"><ele>656.0</ele><time>2026-04-09T08:33:32.001Z</time></trkpt><trkpt lat="39.346329738735484" lon="9.236097377837151"><ele>656.1999999999999</ele><time>2026-04-09T08:33:33.001Z</time></trkpt><trkpt lat="39.346396571712205" lon="9.236207995133755"><ele>656.4</ele><time>2026-04-09T08:33:34.001Z</time></trkpt><trkpt lat="39.346445462145596" lon="9.236306447132524"><ele>656.6</ele><time>2026-04-09T08:33:35.001Z</time></trkpt><trkpt lat="39.3464754067874" lon="9.236408424285585"><ele>656.8</ele><time>2026-04-09T08:33:36.001Z</time></trkpt><trkpt lat="39.34646747357008" lon="9.236531344924172"><ele>657.0</ele><time>2026-04-09T08:33:37.001Z</time></trkpt><trkpt lat="39.34645834903799" lon="9.236646657333235"><ele>657.0</ele><time>2026-04-09T08:33:38.001Z</time></trkpt><trkpt lat="39.34644888037706" lon="9.236790515330682"><ele>657.0</ele><time>2026-04-09T08:33:39.001Z</time></trkpt><trkpt lat="39.346430401416136" lon="9.236983789903485"><ele>657.0</ele><time>2026-04-09T08:33:40.001Z</time></trkpt><trkpt lat="39.34641002864472" lon="9.237145359007783"><ele>657.0</ele><time>2026-04-09T08:33:41.001Z</time></trkpt><trkpt lat="39.34638438399261" lon="9.23726967725762"><ele>657.0</ele><time>2026-04-09T08:33:42.001Z</time></trkpt><trkpt lat="39.346345469865746" lon="9.237368449303546"><ele>657.0</ele><time>2026-04-09T08:33:43.001Z</time></trkpt><trkpt lat="39.3462846103787" lon="9.237470314113027"><ele>657.0</ele><time>2026-04-09T08:33:44.001Z</time></trkpt><trkpt lat="39.34621127196175" lon="9.237595193542719"><ele>657.0</ele><time>2026-04-09T08:33:45.001Z</time></trkpt><trkpt lat="39.3461359333924" lon="9.237703718201386"><ele>657.0</ele><time>2026-04-09T08:33:46.001Z</time></trkpt><trkpt lat="39.346074011855556" lon="9.237791026278273"><ele>657.0</ele><time>2026-04-09T08:33:47.001Z</time></trkpt><trkpt lat="39.3460249633673" lon="9.237861892855648"><ele>657.0</ele><time>2026-04-09T08:33:48.001Z</time></trkpt><trkpt lat="39.345939826517224" lon="9.237951051026483"><ele>657.0</ele><time>2026-04-09T08:33:50.001Z</time></trkpt><trkpt lat="39.34586936871556" lon="9.238010371497777"><ele>657.0</ele><time>2026-04-09T08:33:52.001Z</time></trkpt><trkpt lat="39.34578027549597" lon="9.238079547879996"><ele>657.0</ele><time>2026-04-09T08:34:36.001Z</time></trkpt><trkpt lat="39.345700635412335" lon="9.238133104367526"><ele>658.5</ele><time>2026-04-09T08:34:37.001Z</time></trkpt><trkpt lat="39.34558118822542" lon="9.238209412558891"><ele>660.0</ele><time>2026-04-09T08:34:38.001Z</time></trkpt><trkpt lat="39.3454688259782" lon="9.23828561492772"><ele>661.5</ele><time>2026-04-09T08:34:39.001Z</time></trkpt><trkpt lat="39.34535682945608" lon="9.23837726788845"><ele>663.0</ele><time>2026-04-09T08:34:40.001Z</time></trkpt><trkpt lat="39.345243273356644" lon="9.238443702938447"><ele>663.5</ele><time>2026-04-09T08:34:41.001Z</time></trkpt><trkpt lat="39.34513649644913" lon="9.238478915911868"><ele>664.0</ele><time>2026-04-09T08:34:42.001Z</time></trkpt><trkpt lat="39.34501676782994" lon="9.23852110197116"><ele>664.5</ele><time>2026-04-09T08:34:43.001Z</time></trkpt><trkpt lat="39.344881538085346" lon="9.238557152347804"><ele>665.0</ele><time>2026-04-09T08:34:44.001Z</time></trkpt><trkpt lat="39.3447275236545" lon="9.238591552037356"><ele>664.5</ele><time>2026-04-09T08:34:45.001Z</time></trkpt><trkpt lat="39.3445654461347" lon="9.238616383911825"><ele>664.0</ele><time>2026-04-09T08:34:46.001Z</time></trkpt><trkpt lat="39.34444413296811" lon="9.238658830653023"><ele>663.5</ele><time>2026-04-09T08:34:47.001Z</time></trkpt><trkpt lat="39.344348082042096" lon="9.238705200044166"><ele>663.0</ele><time>2026-04-09T08:34:48.001Z</time></trkpt><trkpt lat="39.344256876183195" lon="9.238764368531454"><ele>663.0</ele><time>2026-04-09T08:34:49.001Z</time></trkpt><trkpt lat="39.34417081928046" lon="9.238852331730834"><ele>663.0</ele><time>2026-04-09T08:34:50.001Z</time></trkpt><trkpt lat="39.34408341138338" lon="9.238922455076025"><ele>663.0</ele><time>2026-04-09T08:34:51.001Z</time></trkpt><trkpt lat="39.34402969169649" lon="9.239018526734538"><ele>663.0</ele><time>2026-04-09T08:34:52.001Z</time></trkpt><trkpt lat="39.34397658427002" lon="9.239108427662469"><ele>663.0</ele><time>2026-04-09T08:34:53.001Z</time></trkpt><trkpt lat="39.34392140977722" lon="9.239224927633634"><ele>663.3333333333334</ele><time>2026-04-09T08:34:54.001Z</time></trkpt><trkpt lat="39.343877373734706" lon="9.239358587701563"><ele>663.6666666666666</ele><time>2026-04-09T08:34:55.001Z</time></trkpt><trkpt lat="39.34385345802327" lon="9.239480169617723"><ele>664.0</ele><time>2026-04-09T08:34:56.001Z</time></trkpt><trkpt lat="39.34384672090173" lon="9.239576711871171"><ele>664.3333333333333</ele><time>2026-04-09T08:34:57.001Z</time></trkpt><trkpt lat="39.343857998658734" lon="9.239665096172091"><ele>664.6666666666666</ele><time>2026-04-09T08:34:59.001Z</time></trkpt><trkpt lat="39.343935003972256" lon="9.239715697231066"><ele>665.0</ele><time>2026-04-09T08:35:01.001Z</time></trkpt><trkpt lat="39.34400044329511" lon="9.239708458759173"><ele>665.0</ele><time>2026-04-09T08:35:02.001Z</time></trkpt><trkpt lat="39.34407226713101" lon="9.239689955116859"><ele>665.0</ele><time>2026-04-09T08:35:03.001Z</time></trkpt><trkpt lat="39.344137036477235" lon="9.239653630143433"><ele>665.0</ele><time>2026-04-09T08:35:04.001Z</time></trkpt><trkpt lat="39.34420244079897" lon="9.239660365235501"><ele>665.0</ele><time>2026-04-09T08:35:05.001Z</time></trkpt><trkpt lat="39.34433882422216" lon="9.239640957549389"><ele>665.0</ele><time>2026-04-09T08:35:07.001Z</time></trkpt><trkpt lat="39.34441509965743" lon="9.239650352389798"><ele>665.0</ele><time>2026-04-09T08:35:08.001Z</time></trkpt><trkpt lat="39.344500972744854" lon="9.239662265886926"><ele>665.0</ele><time>2026-04-09T08:35:09.001Z</time></trkpt><trkpt lat="39.344586247545166" lon="9.239674380579862"><ele>665.0</ele><time>2026-04-09T08:35:10.001Z</time></trkpt><trkpt lat="39.344652482283045" lon="9.239683790295594"><ele>665.0</ele><time>2026-04-09T08:35:11.001Z</time></trkpt><trkpt lat="39.34477268595168" lon="9.23968978205682"><ele>665.0</ele><time>2026-04-09T08:35:13.001Z</time></trkpt><trkpt lat="39.34488877457809" lon="9.239734543981012"><ele>665.0</ele><time>2026-04-09T08:35:15.001Z</time></trkpt><trkpt lat="39.34500992127267" lon="9.239762652610318"><ele>663.0</ele><time>2026-04-09T08:35:17.001Z</time></trkpt><trkpt lat="39.345073876077" lon="9.23981285344774"><ele>661.0</ele><time>2026-04-09T08:35:18.001Z</time></trkpt><trkpt lat="39.345142948351246" lon="9.23988538026289"><ele>659.0</ele><time>2026-04-09T08:35:19.001Z</time></trkpt><trkpt lat="39.34520852649416" lon="9.239968329082975"><ele>657.0</ele><time>2026-04-09T08:35:20.001Z</time></trkpt><trkpt lat="39.3452668582605" lon="9.240046490612183"><ele>655.0</ele><time>2026-04-09T08:35:21.001Z</time></trkpt><trkpt lat="39.345326113349984" lon="9.240115756294369"><ele>653.0</ele><time>2026-04-09T08:35:22.001Z</time></trkpt><trkpt lat="39.34537883103049" lon="9.240172573387898"><ele>653.0</ele><time>2026-04-09T08:35:23.001Z</time></trkpt><trkpt lat="39.345419917993574" lon="9.240255299798998"><ele>653.0</ele><time>2026-04-09T08:35:24.001Z</time></trkpt><trkpt lat="39.34547149875017" lon="9.240315457164035"><ele>653.0</ele><time>2026-04-09T08:35:25Z</time></trkpt><trkpt lat="39.34549783447934" lon="9.240389900924992"><ele>653.0</ele><time>2026-04-09T08:35:26Z</time></trkpt><trkpt lat="39.34557306427744" lon="9.240499235955978"><ele>653.0</ele><time>2026-04-09T08:35:28Z</time></trkpt><trkpt lat="39.3456302704536" lon="9.240572262144207"><ele>653.0</ele><time>2026-04-09T08:35:29Z</time></trkpt><trkpt lat="39.345688066531785" lon="9.240634429038971"><ele>650.4</ele><time>2026-04-09T08:35:30Z</time></trkpt><trkpt lat="39.34577373996495" lon="9.240703607656492"><ele>647.8</ele><time>2026-04-09T08:35:32Z</time></trkpt><trkpt lat="39.34586805404308" lon="9.240750484866076"><ele>645.2</ele><time>2026-04-09T08:35:34Z</time></trkpt><trkpt lat="39.345985967363816" lon="9.240752523259061"><ele>642.6</ele><time>2026-04-09T08:35:36Z</time></trkpt><trkpt lat="39.346091907020636" lon="9.240813059706992"><ele>640.0</ele><time>2026-04-09T08:35:38Z</time></trkpt><trkpt lat="39.34617846437259" lon="9.240907707758712"><ele>640.0</ele><time>2026-04-09T08:35:40Z</time></trkpt><trkpt lat="39.34625459987291" lon="9.240993733099119"><ele>640.0</ele><time>2026-04-09T08:35:42Z</time></trkpt><trkpt lat="39.34632730570391" lon="9.24104870446032"><ele>640.0</ele><time>2026-04-09T08:35:44Z</time></trkpt><trkpt lat="39.346422914747066" lon="9.24108629704906"><ele>640.0</ele><time>2026-04-09T08:35:46Z</time></trkpt><trkpt lat="39.346521784225395" lon="9.241146522295507"><ele>640.0</ele><time>2026-04-09T08:35:48Z</time></trkpt><trkpt lat="39.34659732583406" lon="9.241190749088068"><ele>640.6</ele><time>2026-04-09T08:35:49Z</time></trkpt><trkpt lat="39.34666265731583" lon="9.241263351282537"><ele>641.2</ele><time>2026-04-09T08:35:50Z</time></trkpt><trkpt lat="39.3467462213867" lon="9.241319078673493"><ele>641.8</ele><time>2026-04-09T08:35:51Z</time></trkpt><trkpt lat="39.34681090722283" lon="9.24138519287041"><ele>642.4</ele><time>2026-04-09T08:35:52Z</time></trkpt><trkpt lat="39.34688419809612" lon="9.241449985069838"><ele>643.0</ele><time>2026-04-09T08:35:53Z</time></trkpt><trkpt lat="39.34696628183814" lon="9.241531733975908"><ele>640.0</ele><time>2026-04-09T08:35:54Z</time></trkpt><trkpt lat="39.34703976039914" lon="9.241614952365666"><ele>637.0</ele><time>2026-04-09T08:35:55Z</time></trkpt><trkpt lat="39.34710188275429" lon="9.24167901919503"><ele>634.0</ele><time>2026-04-09T08:35:56Z</time></trkpt><trkpt lat="39.34716859862014" lon="9.241740696788852"><ele>631.0</ele><time>2026-04-09T08:35:57Z</time></trkpt><trkpt lat="39.34723355831548" lon="9.241790968359748"><ele>628.0</ele><time>2026-04-09T08:35:58Z</time></trkpt><trkpt lat="39.34730597051921" lon="9.241822069693844"><ele>625.0</ele><time>2026-04-09T08:35:59Z</time></trkpt><trkpt lat="39.34737669805615" lon="9.241829292967159"><ele>625.0</ele><time>2026-04-09T08:36:00Z</time></trkpt><trkpt lat="39.347437891913195" lon="9.241859491389382"><ele>625.0</ele><time>2026-04-09T08:36:01Z</time></trkpt><trkpt lat="39.34750135172576" lon="9.24188167635822"><ele>625.0</ele><time>2026-04-09T08:36:02Z</time></trkpt><trkpt lat="39.347570192411496" lon="9.241909131039558"><ele>625.0</ele><time>2026-04-09T08:36:03Z</time></trkpt><trkpt lat="39.34765788895944" lon="9.241946453594364"><ele>625.0</ele><time>2026-04-09T08:36:04Z</time></trkpt><trkpt lat="39.34774503432701" lon="9.242024920416377"><ele>625.0</ele><time>2026-04-09T08:36:05Z</time></trkpt><trkpt lat="39.34783108753191" lon="9.242112634275031"><ele>625.0</ele><time>2026-04-09T08:36:06Z</time></trkpt><trkpt lat="39.34791621048054" lon="9.24219776560628"><ele>625.0</ele><time>2026-04-09T08:36:07Z</time></trkpt><trkpt lat="39.347989645243594" lon="9.242292203344403"><ele>625.0</ele><time>2026-04-09T08:36:08Z</time></trkpt><trkpt lat="39.34805485118468" lon="9.242379196777224"><ele>625.0</ele><time>2026-04-09T08:36:09Z</time></trkpt><trkpt lat="39.34810213680473" lon="9.242474729262076"><ele>625.0</ele><time>2026-04-09T08:36:10Z</time></trkpt><trkpt lat="39.34818376020429" lon="9.242579787785298"><ele>622.75</ele><time>2026-04-09T08:36:11Z</time></trkpt><trkpt lat="39.34829451567945" lon="9.242668321778737"><ele>620.5</ele><time>2026-04-09T08:36:12Z</time></trkpt><trkpt lat="39.34840856783314" lon="9.242729917333758"><ele>618.25</ele><time>2026-04-09T08:36:13Z</time></trkpt><trkpt lat="39.348541275975556" lon="9.242759383516221"><ele>616.0</ele><time>2026-04-09T08:36:14Z</time></trkpt><trkpt lat="39.34867571869048" lon="9.242801076691075"><ele>616.0</ele><time>2026-04-09T08:36:15Z</time></trkpt><trkpt lat="39.348784038682325" lon="9.242850761962602"><ele>616.0</ele><time>2026-04-09T08:36:16Z</time></trkpt><trkpt lat="39.34887768037416" lon="9.24292426596629"><ele>616.0</ele><time>2026-04-09T08:36:17Z</time></trkpt><trkpt lat="39.348929661316745" lon="9.243039737608504"><ele>616.0</ele><time>2026-04-09T08:36:18Z</time></trkpt><trkpt lat="39.348980467778155" lon="9.243149222160675"><ele>616.0</ele><time>2026-04-09T08:36:19Z</time></trkpt><trkpt lat="39.349044626495235" lon="9.243249886972169"><ele>615.4</ele><time>2026-04-09T08:36:20Z</time></trkpt><trkpt lat="39.34912639930067" lon="9.243306536453497"><ele>614.8</ele><time>2026-04-09T08:36:21Z</time></trkpt><trkpt lat="39.3492278593499" lon="9.24336791237538"><ele>614.1999999999999</ele><time>2026-04-09T08:36:22Z</time></trkpt><trkpt lat="39.34933077256092" lon="9.243406728596995"><ele>613.6</ele><time>2026-04-09T08:36:23Z</time></trkpt><trkpt lat="39.34937898241341" lon="9.243482517808635"><ele>613.0</ele><time>2026-04-09T08:36:24Z</time></trkpt><trkpt lat="39.34945588537427" lon="9.243643225734115"><ele>613.0</ele><time>2026-04-09T08:36:26Z</time></trkpt><trkpt lat="39.349538027362335" lon="9.243761187401548"><ele>613.0</ele><time>2026-04-09T08:36:27Z</time></trkpt><trkpt lat="39.34961233877303" lon="9.243882999740721"><ele>613.0</ele><time>2026-04-09T08:36:28Z</time></trkpt><trkpt lat="39.34970493848412" lon="9.244011061654886"><ele>613.0</ele><time>2026-04-09T08:36:29Z</time></trkpt><trkpt lat="39.34980667212376" lon="9.244128332210533"><ele>612.6</ele><time>2026-04-09T08:36:30Z</time></trkpt><trkpt lat="39.349891648132804" lon="9.244212349202348"><ele>612.1999999999999</ele><time>2026-04-09T08:36:31Z</time></trkpt><trkpt lat="39.34997105593921" lon="9.244264328804457"><ele>611.8</ele><time>2026-04-09T08:36:32Z</time></trkpt><trkpt lat="39.35005295413325" lon="9.244283824754369"><ele>611.4</ele><time>2026-04-09T08:36:33Z</time></trkpt><trkpt lat="39.35014349325456" lon="9.244267892875893"><ele>611.0</ele><time>2026-04-09T08:36:34Z</time></trkpt><trkpt lat="39.35024498964457" lon="9.244221528479775"><ele>611.0</ele><time>2026-04-09T08:36:35Z</time></trkpt><trkpt lat="39.35036962918134" lon="9.24414883681791"><ele>611.0</ele><time>2026-04-09T08:36:36Z</time></trkpt><trkpt lat="39.35048883079814" lon="9.2440979916774"><ele>611.0</ele><time>2026-04-09T08:36:37Z</time></trkpt><trkpt lat="39.350584794435186" lon="9.244100220024308"><ele>611.0</ele><time>2026-04-09T08:36:38Z</time></trkpt><trkpt lat="39.35067743793364" lon="9.244137669216657"><ele>611.0</ele><time>2026-04-09T08:36:39Z</time></trkpt><trkpt lat="39.350788052622164" lon="9.244206678902591"><ele>611.0</ele><time>2026-04-09T08:36:40Z</time></trkpt><trkpt lat="39.3508692377594" lon="9.244321811026092"><ele>611.0</ele><time>2026-04-09T08:36:41Z</time></trkpt><trkpt lat="39.35097607888616" lon="9.244440783642037"><ele>611.0</ele><time>2026-04-09T08:36:42Z</time></trkpt><trkpt lat="39.35109149477235" lon="9.244563348451974"><ele>611.0</ele><time>2026-04-09T08:36:43Z</time></trkpt><trkpt lat="39.35122102654322" lon="9.24466364624376"><ele>611.0</ele><time>2026-04-09T08:36:44Z</time></trkpt><trkpt lat="39.35132474597304" lon="9.244764100949745"><ele>611.0</ele><time>2026-04-09T08:36:45Z</time></trkpt><trkpt lat="39.35141748300442" lon="9.244836530278999"><ele>611.0</ele><time>2026-04-09T08:36:46Z</time></trkpt><trkpt lat="39.35151622231774" lon="9.244878520840306"><ele>610.5</ele><time>2026-04-09T08:36:47Z</time></trkpt><trkpt lat="39.35161947075696" lon="9.244908994514201"><ele>610.0</ele><time>2026-04-09T08:36:48.001Z</time></trkpt><trkpt lat="39.35171847911525" lon="9.244906278378735"><ele>609.5</ele><time>2026-04-09T08:36:49.001Z</time></trkpt><trkpt lat="39.35184207878816" lon="9.244874183594813"><ele>609.0</ele><time>2026-04-09T08:36:50.001Z</time></trkpt><trkpt lat="39.352002983741855" lon="9.24482167058951"><ele>606.6666666666666</ele><time>2026-04-09T08:36:51.001Z</time></trkpt><trkpt lat="39.35217159813235" lon="9.24477780201143"><ele>604.3333333333333</ele><time>2026-04-09T08:36:52.001Z</time></trkpt><trkpt lat="39.35233913272472" lon="9.244744771588804"><ele>602.0</ele><time>2026-04-09T08:36:53.001Z</time></trkpt><trkpt lat="39.352470779952206" lon="9.24471650834392"><ele>600.0</ele><time>2026-04-09T08:36:54.001Z</time></trkpt><trkpt lat="39.35258833695967" lon="9.244700561916622"><ele>598.0</ele><time>2026-04-09T08:36:55.001Z</time></trkpt><trkpt lat="39.35267757447588" lon="9.244714235026752"><ele>596.0</ele><time>2026-04-09T08:36:56.001Z</time></trkpt><trkpt lat="39.352764280332536" lon="9.244718858930312"><ele>594.0</ele><time>2026-04-09T08:36:57.001Z</time></trkpt><trkpt lat="39.352852215150094" lon="9.244741490880891"><ele>592.0</ele><time>2026-04-09T08:36:58.001Z</time></trkpt><trkpt lat="39.35297047413568" lon="9.244777886810487"><ele>595.0</ele><time>2026-04-09T08:36:59.001Z</time></trkpt><trkpt lat="39.35309300581762" lon="9.2448484061217"><ele>598.0</ele><time>2026-04-09T08:37:00.001Z</time></trkpt><trkpt lat="39.35318676767189" lon="9.244923151517416"><ele>601.0</ele><time>2026-04-09T08:37:01.001Z</time></trkpt><trkpt lat="39.353270626051454" lon="9.245030576733278"><ele>604.0</ele><time>2026-04-09T08:37:02.001Z</time></trkpt><trkpt lat="39.353328814278896" lon="9.245179688791017"><ele>604.0</ele><time>2026-04-09T08:37:03.001Z</time></trkpt><trkpt lat="39.35340132071114" lon="9.245332978542883"><ele>604.0</ele><time>2026-04-09T08:37:04.001Z</time></trkpt><trkpt lat="39.35347209805483" lon="9.245454917176607"><ele>604.0</ele><time>2026-04-09T08:37:05.001Z</time></trkpt><trkpt lat="39.353526255058334" lon="9.245554958917513"><ele>604.0</ele><time>2026-04-09T08:37:06.001Z</time></trkpt><trkpt lat="39.35359857431596" lon="9.24562971657735"><ele>604.0</ele><time>2026-04-09T08:37:07.001Z</time></trkpt><trkpt lat="39.3537034875245" lon="9.245694287315956"><ele>603.8333333333334</ele><time>2026-04-09T08:37:08.001Z</time></trkpt><trkpt lat="39.353799879931955" lon="9.245748768814881"><ele>603.6666666666667</ele><time>2026-04-09T08:37:09.001Z</time></trkpt><trkpt lat="39.35386103583466" lon="9.24579555027909"><ele>603.5</ele><time>2026-04-09T08:37:10.001Z</time></trkpt><trkpt lat="39.35391576503476" lon="9.245754254621213"><ele>603.3333333333334</ele><time>2026-04-09T08:37:14.001Z</time></trkpt><trkpt lat="39.353928380501706" lon="9.245655225055712"><ele>603.1666666666666</ele><time>2026-04-09T09:04:01.002Z</time></trkpt><trkpt lat="39.35397219412959" lon="9.245542947400898"><ele>603.0</ele><time>2026-04-09T09:04:04.002Z</time></trkpt><trkpt lat="39.354040778086684" lon="9.24545177741222"><ele>601.0</ele><time>2026-04-09T09:04:05.002Z</time></trkpt><trkpt lat="39.354132225895256" lon="9.245351987733317"><ele>599.0</ele><time>2026-04-09T09:04:06.002Z</time></trkpt><trkpt lat="39.3542289104353" lon="9.24524377018504"><ele>597.0</ele><time>2026-04-09T09:04:07.002Z</time></trkpt><trkpt lat="39.35432023612311" lon="9.245150809449845"><ele>595.0</ele><time>2026-04-09T09:04:08.002Z</time></trkpt><trkpt lat="39.35440437956829" lon="9.24506250613245"><ele>595.0</ele><time>2026-04-09T09:04:09.002Z</time></trkpt><trkpt lat="39.35448011590908" lon="9.244962482083785"><ele>595.0</ele><time>2026-04-09T09:04:10.002Z</time></trkpt><trkpt lat="39.35454461125831" lon="9.244851052375143"><ele>595.0</ele><time>2026-04-09T09:04:11.002Z</time></trkpt><trkpt lat="39.35459599600501" lon="9.244734681364818"><ele>595.0</ele><time>2026-04-09T09:04:12.002Z</time></trkpt><trkpt lat="39.354633536165565" lon="9.244614486042307"><ele>595.0</ele><time>2026-04-09T09:04:13.002Z</time></trkpt><trkpt lat="39.35468413737968" lon="9.244497792472934"><ele>592.5</ele><time>2026-04-09T09:04:14.002Z</time></trkpt><trkpt lat="39.354731978507566" lon="9.244378858671949"><ele>590.0</ele><time>2026-04-09T09:04:15.002Z</time></trkpt><trkpt lat="39.35478592419477" lon="9.244284566388956"><ele>587.5</ele><time>2026-04-09T09:04:16.002Z</time></trkpt><trkpt lat="39.354836172601416" lon="9.244198208960483"><ele>585.0</ele><time>2026-04-09T09:04:17.002Z</time></trkpt><trkpt lat="39.354881764524116" lon="9.244131582786473"><ele>582.5</ele><time>2026-04-09T09:04:18.002Z</time></trkpt><trkpt lat="39.354971371994466" lon="9.244068546973399"><ele>580.0</ele><time>2026-04-09T09:04:20.002Z</time></trkpt><trkpt lat="39.355037544234015" lon="9.244121320953298"><ele>580.0</ele><time>2026-04-09T09:04:22.002Z</time></trkpt><trkpt lat="39.355004406885286" lon="9.244260117073884"><ele>580.0</ele><time>2026-04-09T09:04:23.002Z</time></trkpt><trkpt lat="39.35501529444347" lon="9.244371927530668"><ele>580.0</ele><time>2026-04-09T09:04:24.002Z</time></trkpt><trkpt lat="39.35500886814002" lon="9.244507996050489"><ele>580.0</ele><time>2026-04-09T09:04:25.002Z</time></trkpt><trkpt lat="39.35501703224134" lon="9.244657737452894"><ele>580.0</ele><time>2026-04-09T09:04:26.002Z</time></trkpt><trkpt lat="39.355007438174034" lon="9.244791901501834"><ele>581.0</ele><time>2026-04-09T09:04:27.002Z</time></trkpt><trkpt lat="39.3550085904664" lon="9.244892265417267"><ele>582.0</ele><time>2026-04-09T09:04:28.002Z</time></trkpt><trkpt lat="39.35506569490359" lon="9.245035270578324"><ele>583.0</ele><time>2026-04-09T09:04:30.002Z</time></trkpt><trkpt lat="39.35513109589986" lon="9.24505367476043"><ele>584.0</ele><time>2026-04-09T09:04:31.002Z</time></trkpt><trkpt lat="39.35520377252585" lon="9.245096460550585"><ele>585.0</ele><time>2026-04-09T09:04:32.002Z</time></trkpt><trkpt lat="39.35526636873614" lon="9.245146318678708"><ele>586.0</ele><time>2026-04-09T09:04:33.002Z</time></trkpt><trkpt lat="39.35534015303272" lon="9.245176404418531"><ele>586.0</ele><time>2026-04-09T09:04:34.002Z</time></trkpt><trkpt lat="39.35543857793495" lon="9.245186260541109"><ele>586.0</ele><time>2026-04-09T09:04:36.002Z</time></trkpt><trkpt lat="39.35548150199442" lon="9.24509786954398"><ele>586.0</ele><time>2026-04-09T09:04:37.002Z</time></trkpt><trkpt lat="39.355407546679565" lon="9.244968934718564"><ele>586.0</ele><time>2026-04-09T09:04:38.002Z</time></trkpt><trkpt lat="39.35540113371048" lon="9.244842705955607"><ele>586.0</ele><time>2026-04-09T09:04:40.002Z</time></trkpt><trkpt lat="39.35545722317397" lon="9.24479291633196"><ele>584.8</ele><time>2026-04-09T09:04:41.002Z</time></trkpt><trkpt lat="39.35553600440387" lon="9.244769386655411"><ele>583.6</ele><time>2026-04-09T09:04:42.003Z</time></trkpt><trkpt lat="39.355628100347474" lon="9.244703257102104"><ele>582.4</ele><time>2026-04-09T09:04:43.003Z</time></trkpt><trkpt lat="39.35571533156238" lon="9.244624215684027"><ele>581.2</ele><time>2026-04-09T09:04:44.003Z</time></trkpt><trkpt lat="39.3558044768883" lon="9.244566522316786"><ele>580.0</ele><time>2026-04-09T09:04:45.003Z</time></trkpt><trkpt lat="39.355891052825314" lon="9.24449691820643"><ele>576.4</ele><time>2026-04-09T09:04:46.003Z</time></trkpt><trkpt lat="39.355971765167524" lon="9.24443272368726"><ele>572.8</ele><time>2026-04-09T09:04:47.003Z</time></trkpt><trkpt lat="39.356058341955595" lon="9.244364096330035"><ele>569.2</ele><time>2026-04-09T09:04:48.003Z</time></trkpt><trkpt lat="39.35613748309633" lon="9.244279043612584"><ele>565.6</ele><time>2026-04-09T09:04:49Z</time></trkpt><trkpt lat="39.35622707500201" lon="9.244207866207013"><ele>562.0</ele><time>2026-04-09T09:04:50Z</time></trkpt><trkpt lat="39.35634620378812" lon="9.244108933850848"><ele>559.25</ele><time>2026-04-09T09:04:51Z</time></trkpt><trkpt lat="39.356464673845394" lon="9.244026889229579"><ele>556.5</ele><time>2026-04-09T09:04:52Z</time></trkpt><trkpt lat="39.356554040856125" lon="9.243935518709797"><ele>553.75</ele><time>2026-04-09T09:04:53Z</time></trkpt><trkpt lat="39.35666116593759" lon="9.243866779859562"><ele>551.0</ele><time>2026-04-09T09:04:54Z</time></trkpt><trkpt lat="39.356755529849586" lon="9.243787997917659"><ele>550.8</ele><time>2026-04-09T09:04:55Z</time></trkpt><trkpt lat="39.35685246597324" lon="9.243707325255091"><ele>550.6</ele><time>2026-04-09T09:04:56Z</time></trkpt><trkpt lat="39.356910094897636" lon="9.24365939944382"><ele>550.4</ele><time>2026-04-09T09:04:57Z</time></trkpt><trkpt lat="39.35699706442507" lon="9.243587073240924"><ele>550.2</ele><time>2026-04-09T09:04:58Z</time></trkpt><trkpt lat="39.35706906159517" lon="9.243527198342099"><ele>550.0</ele><time>2026-04-09T09:04:59Z</time></trkpt><trkpt lat="39.35718772604228" lon="9.24342614982164"><ele>546.25</ele><time>2026-04-09T09:05:00Z</time></trkpt><trkpt lat="39.35729596260383" lon="9.24334057288115"><ele>542.5</ele><time>2026-04-09T09:05:01Z</time></trkpt><trkpt lat="39.35740287030077" lon="9.24327915249607"><ele>538.75</ele><time>2026-04-09T09:05:02Z</time></trkpt><trkpt lat="39.35750159662213" lon="9.243199573689276"><ele>535.0</ele><time>2026-04-09T09:05:03Z</time></trkpt><trkpt lat="39.357607925960814" lon="9.243178158280054"><ele>536.25</ele><time>2026-04-09T09:05:04Z</time></trkpt><trkpt lat="39.35773449583107" lon="9.243124912626618"><ele>537.5</ele><time>2026-04-09T09:05:05Z</time></trkpt><trkpt lat="39.35784804515616" lon="9.243072106140252"><ele>538.75</ele><time>2026-04-09T09:05:06Z</time></trkpt><trkpt lat="39.3579559807313" lon="9.243008290054407"><ele>540.0</ele><time>2026-04-09T09:05:07Z</time></trkpt><trkpt lat="39.35806505070791" lon="9.242949799188365"><ele>535.8</ele><time>2026-04-09T09:05:08Z</time></trkpt><trkpt lat="39.358174649567246" lon="9.242890806723503"><ele>531.6</ele><time>2026-04-09T09:05:09Z</time></trkpt><trkpt lat="39.358274357943614" lon="9.242835608216843"><ele>527.4</ele><time>2026-04-09T09:05:10Z</time></trkpt><trkpt lat="39.358360957854416" lon="9.242782410641949"><ele>523.2</ele><time>2026-04-09T09:05:11Z</time></trkpt><trkpt lat="39.358419691938096" lon="9.242688530107472"><ele>519.0</ele><time>2026-04-09T09:05:12Z</time></trkpt><trkpt lat="39.3584759336932" lon="9.242590307872007"><ele>519.0</ele><time>2026-04-09T09:05:13Z</time></trkpt><trkpt lat="39.358544063888615" lon="9.242514391393634"><ele>519.0</ele><time>2026-04-09T09:05:14Z</time></trkpt><trkpt lat="39.358643066923094" lon="9.242437948042475"><ele>519.0</ele><time>2026-04-09T09:05:15Z</time></trkpt><trkpt lat="39.35874319490527" lon="9.242354947632819"><ele>519.0</ele><time>2026-04-09T09:05:16Z</time></trkpt><trkpt lat="39.358836650659306" lon="9.242244359673863"><ele>516.0</ele><time>2026-04-09T09:05:17Z</time></trkpt><trkpt lat="39.35892913356975" lon="9.242115208882472"><ele>513.0</ele><time>2026-04-09T09:05:18Z</time></trkpt><trkpt lat="39.35902352698836" lon="9.241979719397118"><ele>510.0</ele><time>2026-04-09T09:05:19Z</time></trkpt><trkpt lat="39.359113363492405" lon="9.241850586703102"><ele>507.0</ele><time>2026-04-09T09:05:20Z</time></trkpt><trkpt lat="39.35920491916097" lon="9.241717744326236"><ele>507.0</ele><time>2026-04-09T09:05:21Z</time></trkpt><trkpt lat="39.35929345484462" lon="9.241593504521706"><ele>507.0</ele><time>2026-04-09T09:05:22Z</time></trkpt><trkpt lat="39.35939447055824" lon="9.241479292430968"><ele>507.0</ele><time>2026-04-09T09:05:23Z</time></trkpt><trkpt lat="39.35948644250005" lon="9.2413739766497"><ele>507.0</ele><time>2026-04-09T09:05:24Z</time></trkpt><trkpt lat="39.3595727448266" lon="9.241270503128174"><ele>510.5</ele><time>2026-04-09T09:05:25Z</time></trkpt><trkpt lat="39.35965880254155" lon="9.241165909654319"><ele>514.0</ele><time>2026-04-09T09:05:26.001Z</time></trkpt><trkpt lat="39.359743550631585" lon="9.241045159619818"><ele>517.5</ele><time>2026-04-09T09:05:27.001Z</time></trkpt><trkpt lat="39.35983282514247" lon="9.240912325796474"><ele>521.0</ele><time>2026-04-09T09:05:28.001Z</time></trkpt><trkpt lat="39.35991397637994" lon="9.24075304040376"><ele>515.5</ele><time>2026-04-09T09:05:29.001Z</time></trkpt><trkpt lat="39.35998468308345" lon="9.240590252853167"><ele>510.0</ele><time>2026-04-09T09:05:30.001Z</time></trkpt><trkpt lat="39.36006232549774" lon="9.240451830761499"><ele>504.5</ele><time>2026-04-09T09:05:31.001Z</time></trkpt><trkpt lat="39.360139229976966" lon="9.240325446681645"><ele>499.0</ele><time>2026-04-09T09:05:32.001Z</time></trkpt><trkpt lat="39.360212826094745" lon="9.24020069653384"><ele>499.0</ele><time>2026-04-09T09:05:33.001Z</time></trkpt><trkpt lat="39.36028716902893" lon="9.240072266278826"><ele>499.0</ele><time>2026-04-09T09:05:34.001Z</time></trkpt><trkpt lat="39.36036115693385" lon="9.23994078780039"><ele>499.0</ele><time>2026-04-09T09:05:35.001Z</time></trkpt><trkpt lat="39.360434785410845" lon="9.239806019028793"><ele>499.0</ele><time>2026-04-09T09:05:36.001Z</time></trkpt><trkpt lat="39.36051206874069" lon="9.239677998221591"><ele>492.75</ele><time>2026-04-09T09:05:37.001Z</time></trkpt><trkpt lat="39.36058451486024" lon="9.239547080349226"><ele>486.5</ele><time>2026-04-09T09:05:38.001Z</time></trkpt><trkpt lat="39.36065403711358" lon="9.239407745210617"><ele>480.25</ele><time>2026-04-09T09:05:39.001Z</time></trkpt><trkpt lat="39.360721018641414" lon="9.239272938631338"><ele>474.0</ele><time>2026-04-09T09:05:40.001Z</time></trkpt><trkpt lat="39.36078642764985" lon="9.239136709295133"><ele>474.0</ele><time>2026-04-09T09:05:41.001Z</time></trkpt><trkpt lat="39.36084936215043" lon="9.23899748917498"><ele>474.0</ele><time>2026-04-09T09:05:42.001Z</time></trkpt><trkpt lat="39.36092011770363" lon="9.238861448314426"><ele>474.0</ele><time>2026-04-09T09:05:43.001Z</time></trkpt><trkpt lat="39.36099386702752" lon="9.238731092176174"><ele>474.0</ele><time>2026-04-09T09:05:44.001Z</time></trkpt><trkpt lat="39.361073140144676" lon="9.238604371244167"><ele>476.5</ele><time>2026-04-09T09:05:45.001Z</time></trkpt><trkpt lat="39.36116085112505" lon="9.238480577759814"><ele>479.0</ele><time>2026-04-09T09:05:46.001Z</time></trkpt><trkpt lat="39.36125577786565" lon="9.238365881135303"><ele>481.5</ele><time>2026-04-09T09:05:47.001Z</time></trkpt><trkpt lat="39.3613524304383" lon="9.23825661785605"><ele>484.0</ele><time>2026-04-09T09:05:48.001Z</time></trkpt><trkpt lat="39.36144446050018" lon="9.238141071383055"><ele>476.0</ele><time>2026-04-09T09:05:49.001Z</time></trkpt><trkpt lat="39.36153163236374" lon="9.238015101473922"><ele>468.0</ele><time>2026-04-09T09:05:50.001Z</time></trkpt><trkpt lat="39.361624751460255" lon="9.23789962709542"><ele>460.0</ele><time>2026-04-09T09:05:51.001Z</time></trkpt><trkpt lat="39.3616995413398" lon="9.237757710331021"><ele>452.0</ele><time>2026-04-09T09:05:52.001Z</time></trkpt><trkpt lat="39.36174114344655" lon="9.237601475870992"><ele>452.0</ele><time>2026-04-09T09:05:53.001Z</time></trkpt><trkpt lat="39.36178849540148" lon="9.23745638919681"><ele>452.0</ele><time>2026-04-09T09:05:54.001Z</time></trkpt><trkpt lat="39.361810323108486" lon="9.237304315524007"><ele>452.0</ele><time>2026-04-09T09:05:55.001Z</time></trkpt><trkpt lat="39.36180989963811" lon="9.237149896740027"><ele>452.0</ele><time>2026-04-09T09:05:56.001Z</time></trkpt><trkpt lat="39.36183278593336" lon="9.237019808494864"><ele>454.20000000000005</ele><time>2026-04-09T09:05:57.001Z</time></trkpt><trkpt lat="39.361858753403666" lon="9.236938901435954"><ele>456.40000000000003</ele><time>2026-04-09T09:05:58.001Z</time></trkpt><trkpt lat="39.36195319281697" lon="9.236843034882497"><ele>458.59999999999997</ele><time>2026-04-09T09:06:00.001Z</time></trkpt><trkpt lat="39.36204657748847" lon="9.236817569310535"><ele>460.79999999999995</ele><time>2026-04-09T09:06:01.001Z</time></trkpt><trkpt lat="39.362131578094186" lon="9.2367295129556"><ele>463.0</ele><time>2026-04-09T09:06:02.001Z</time></trkpt><trkpt lat="39.36217727084002" lon="9.236600813907474"><ele>463.00000000000006</ele><time>2026-04-09T09:06:03.001Z</time></trkpt><trkpt lat="39.36219359809624" lon="9.236479754805675"><ele>463.0</ele><time>2026-04-09T09:06:04.001Z</time></trkpt><trkpt lat="39.36224150261817" lon="9.23641284188591"><ele>463.0</ele><time>2026-04-09T09:06:05.001Z</time></trkpt><trkpt lat="39.36231530375599" lon="9.236383271227028"><ele>463.0</ele><time>2026-04-09T09:06:07.002Z</time></trkpt><trkpt lat="39.36237613469981" lon="9.236454752845392"><ele>463.00000000000006</ele><time>2026-04-09T09:06:08.002Z</time></trkpt><trkpt lat="39.362451939383064" lon="9.236554602811546"><ele>463.0</ele><time>2026-04-09T09:06:09.002Z</time></trkpt><trkpt lat="39.362531892280714" lon="9.236641859119276"><ele>458.0</ele><time>2026-04-09T09:06:10.002Z</time></trkpt><trkpt lat="39.36262480725854" lon="9.236682723703336"><ele>453.0</ele><time>2026-04-09T09:06:11.002Z</time></trkpt><trkpt lat="39.36274467712164" lon="9.236677928424662"><ele>448.0</ele><time>2026-04-09T09:06:12.002Z</time></trkpt><trkpt lat="39.36287157433621" lon="9.23669321832864"><ele>443.0</ele><time>2026-04-09T09:06:13.002Z</time></trkpt><trkpt lat="39.36300361054931" lon="9.236705636897879"><ele>439.5</ele><time>2026-04-09T09:06:14.002Z</time></trkpt><trkpt lat="39.36313910471645" lon="9.23671263152457"><ele>436.0</ele><time>2026-04-09T09:06:15.002Z</time></trkpt><trkpt lat="39.3632627198199" lon="9.236704397283784"><ele>432.5</ele><time>2026-04-09T09:06:16.002Z</time></trkpt><trkpt lat="39.36337631114192" lon="9.23671269454536"><ele>429.0</ele><time>2026-04-09T09:06:17.002Z</time></trkpt><trkpt lat="39.36346459954201" lon="9.23668789558154"><ele>429.0</ele><time>2026-04-09T09:06:18.002Z</time></trkpt><trkpt lat="39.36353458963477" lon="9.236623631524852"><ele>429.0</ele><time>2026-04-09T09:06:19.002Z</time></trkpt><trkpt lat="39.36357823664879" lon="9.236520179904476"><ele>429.0</ele><time>2026-04-09T09:06:20.002Z</time></trkpt><trkpt lat="39.36360807227013" lon="9.236400746868286"><ele>429.0</ele><time>2026-04-09T09:06:21.002Z</time></trkpt><trkpt lat="39.363645426811935" lon="9.236308621417798"><ele>429.0</ele><time>2026-04-09T09:06:22.002Z</time></trkpt><trkpt lat="39.36374431931323" lon="9.236246543026915"><ele>431.0</ele><time>2026-04-09T09:06:24.002Z</time></trkpt><trkpt lat="39.363811620079595" lon="9.236306733458063"><ele>433.0</ele><time>2026-04-09T09:06:25.002Z</time></trkpt><trkpt lat="39.363881604778335" lon="9.236412579993635"><ele>435.0</ele><time>2026-04-09T09:06:26.002Z</time></trkpt><trkpt lat="39.363974489547346" lon="9.23649307370338"><ele>437.0</ele><time>2026-04-09T09:06:27.002Z</time></trkpt><trkpt lat="39.3640701111062" lon="9.236568358989736"><ele>439.0</ele><time>2026-04-09T09:06:28.002Z</time></trkpt><trkpt lat="39.3641941890247" lon="9.236588235243858"><ele>433.25</ele><time>2026-04-09T09:06:29.002Z</time></trkpt><trkpt lat="39.364330975950566" lon="9.236600659753027"><ele>427.5</ele><time>2026-04-09T09:06:30.002Z</time></trkpt><trkpt lat="39.36446636410427" lon="9.236622141550047"><ele>421.75</ele><time>2026-04-09T09:06:31.002Z</time></trkpt><trkpt lat="39.36459453647465" lon="9.236653904489337"><ele>416.0</ele><time>2026-04-09T09:06:32.002Z</time></trkpt><trkpt lat="39.36471593313884" lon="9.2366800342358"><ele>414.0</ele><time>2026-04-09T09:06:33.002Z</time></trkpt><trkpt lat="39.364834946696405" lon="9.236706691783006"><ele>412.0</ele><time>2026-04-09T09:06:34.002Z</time></trkpt><trkpt lat="39.3649524080307" lon="9.236725709582242"><ele>410.0</ele><time>2026-04-09T09:06:35.002Z</time></trkpt><trkpt lat="39.36507966045296" lon="9.236735195518952"><ele>408.0</ele><time>2026-04-09T09:06:36.002Z</time></trkpt><trkpt lat="39.365215776255496" lon="9.236722991962171"><ele>408.0</ele><time>2026-04-09T09:06:37.002Z</time></trkpt><trkpt lat="39.36534432090272" lon="9.236705898380716"><ele>408.0</ele><time>2026-04-09T09:06:38.002Z</time></trkpt><trkpt lat="39.36546441237207" lon="9.236684720660259"><ele>408.0</ele><time>2026-04-09T09:06:39.002Z</time></trkpt><trkpt lat="39.365578275475805" lon="9.23664075783391"><ele>408.0</ele><time>2026-04-09T09:06:40.002Z</time></trkpt><trkpt lat="39.365679231380085" lon="9.236576205234314"><ele>407.59999999999997</ele><time>2026-04-09T09:06:41.002Z</time></trkpt><trkpt lat="39.36575296269041" lon="9.236491143750621"><ele>407.2</ele><time>2026-04-09T09:06:42.002Z</time></trkpt><trkpt lat="39.365797246627004" lon="9.23639078333841"><ele>406.8</ele><time>2026-04-09T09:06:43.002Z</time></trkpt><trkpt lat="39.3658036331839" lon="9.236267321628564"><ele>406.4</ele><time>2026-04-09T09:06:44.002Z</time></trkpt><trkpt lat="39.365789179078135" lon="9.236123904163168"><ele>406.0</ele><time>2026-04-09T09:06:45.002Z</time></trkpt><trkpt lat="39.365794455231985" lon="9.235979636886524"><ele>406.0</ele><time>2026-04-09T09:06:46.002Z</time></trkpt><trkpt lat="39.36579795265854" lon="9.235874442124901"><ele>406.0</ele><time>2026-04-09T09:06:47.003Z</time></trkpt><trkpt lat="39.36586250922344" lon="9.235793167355624"><ele>406.0</ele><time>2026-04-09T09:06:49.003Z</time></trkpt><trkpt lat="39.365938703462774" lon="9.235826156866938"><ele>406.0</ele><time>2026-04-09T09:06:50.003Z</time></trkpt><trkpt lat="39.366028367026956" lon="9.235909905418875"><ele>406.0</ele><time>2026-04-09T09:06:51.003Z</time></trkpt><trkpt lat="39.3661195475742" lon="9.236041806818555"><ele>406.0</ele><time>2026-04-09T09:06:52.003Z</time></trkpt><trkpt lat="39.36619697037701" lon="9.236180380145651"><ele>406.0</ele><time>2026-04-09T09:06:53.003Z</time></trkpt><trkpt lat="39.36627999313941" lon="9.236296245586042"><ele>406.0</ele><time>2026-04-09T09:06:54.003Z</time></trkpt><trkpt lat="39.366372861622274" lon="9.23637938808204"><ele>406.0</ele><time>2026-04-09T09:06:55Z</time></trkpt><trkpt lat="39.36648013774425" lon="9.236436529342658"><ele>405.20000000000005</ele><time>2026-04-09T09:06:55.999Z</time></trkpt><trkpt lat="39.36658507864516" lon="9.236457658556176"><ele>404.40000000000003</ele><time>2026-04-09T09:06:57Z</time></trkpt><trkpt lat="39.366686425388195" lon="9.236434324906536"><ele>403.6</ele><time>2026-04-09T09:06:58Z</time></trkpt><trkpt lat="39.36679169871167" lon="9.236382782570569"><ele>402.8</ele><time>2026-04-09T09:06:59Z</time></trkpt><trkpt lat="39.36691320665388" lon="9.236332428605026"><ele>402.0</ele><time>2026-04-09T09:07:00Z</time></trkpt><trkpt lat="39.36703469425338" lon="9.236297845388929"><ele>402.0</ele><time>2026-04-09T09:07:01Z</time></trkpt><trkpt lat="39.36714606348636" lon="9.236269677340363"><ele>402.0</ele><time>2026-04-09T09:07:02Z</time></trkpt><trkpt lat="39.36726069054036" lon="9.236238528379564"><ele>402.0</ele><time>2026-04-09T09:07:03Z</time></trkpt><trkpt lat="39.3673728808086" lon="9.236176749341874"><ele>402.0</ele><time>2026-04-09T09:07:04Z</time></trkpt><trkpt lat="39.36747666622835" lon="9.236108878789437"><ele>397.20000000000005</ele><time>2026-04-09T09:07:05Z</time></trkpt><trkpt lat="39.36755995349861" lon="9.236024852290987"><ele>392.4</ele><time>2026-04-09T09:07:06Z</time></trkpt><trkpt lat="39.367616342595156" lon="9.235914306653822"><ele>387.6</ele><time>2026-04-09T09:07:07Z</time></trkpt><trkpt lat="39.36767155871719" lon="9.23584239335676"><ele>382.79999999999995</ele><time>2026-04-09T09:07:08Z</time></trkpt><trkpt lat="39.36772124146213" lon="9.235792183841824"><ele>378.0</ele><time>2026-04-09T09:07:09Z</time></trkpt><trkpt lat="39.36785443845991" lon="9.235830669817933"><ele>378.0</ele><time>2026-04-09T09:07:11Z</time></trkpt><trkpt lat="39.36797474535405" lon="9.235863122305352"><ele>378.0</ele><time>2026-04-09T09:07:12Z</time></trkpt><trkpt lat="39.368090231959144" lon="9.235877526555324"><ele>378.0</ele><time>2026-04-09T09:07:13Z</time></trkpt><trkpt lat="39.36821036737576" lon="9.235848835293458"><ele>378.0</ele><time>2026-04-09T09:07:14Z</time></trkpt><trkpt lat="39.36832901194315" lon="9.235800380680319"><ele>379.0</ele><time>2026-04-09T09:07:15Z</time></trkpt><trkpt lat="39.368450412647405" lon="9.235745806192488"><ele>380.0</ele><time>2026-04-09T09:07:16Z</time></trkpt><trkpt lat="39.368573762998516" lon="9.235716870568218"><ele>381.0</ele><time>2026-04-09T09:07:17Z</time></trkpt><trkpt lat="39.368681070905986" lon="9.235641577934697"><ele>382.0</ele><time>2026-04-09T09:07:18Z</time></trkpt><trkpt lat="39.36878311177013" lon="9.235572981425102"><ele>377.25</ele><time>2026-04-09T09:07:19Z</time></trkpt><trkpt lat="39.36887868829034" lon="9.235498217814428"><ele>372.5</ele><time>2026-04-09T09:07:20Z</time></trkpt><trkpt lat="39.36897263421146" lon="9.235415454367649"><ele>367.75</ele><time>2026-04-09T09:07:21Z</time></trkpt><trkpt lat="39.36907897591183" lon="9.235334264663866"><ele>363.0</ele><time>2026-04-09T09:07:22Z</time></trkpt><trkpt lat="39.36919508007259" lon="9.235277522149241"><ele>363.0</ele><time>2026-04-09T09:07:23Z</time></trkpt><trkpt lat="39.36932184494859" lon="9.235242553590247"><ele>363.0</ele><time>2026-04-09T09:07:24Z</time></trkpt><trkpt lat="39.369465187179834" lon="9.23523159445732"><ele>363.0</ele><time>2026-04-09T09:07:25Z</time></trkpt><trkpt lat="39.369616416853034" lon="9.23522247658536"><ele>363.0</ele><time>2026-04-09T09:07:26Z</time></trkpt><trkpt lat="39.369757225095356" lon="9.235206274854393"><ele>360.25</ele><time>2026-04-09T09:07:27Z</time></trkpt><trkpt lat="39.36988543032008" lon="9.235177679650258"><ele>357.5</ele><time>2026-04-09T09:07:28Z</time></trkpt><trkpt lat="39.37000663383262" lon="9.235142418691252"><ele>354.75</ele><time>2026-04-09T09:07:29Z</time></trkpt><trkpt lat="39.37011904076804" lon="9.235095904007006"><ele>352.0</ele><time>2026-04-09T09:07:30Z</time></trkpt><trkpt lat="39.3702404158603" lon="9.235056615299877"><ele>352.0</ele><time>2026-04-09T09:07:31Z</time></trkpt><trkpt lat="39.37037613065039" lon="9.23502525127702"><ele>352.0</ele><time>2026-04-09T09:07:32Z</time></trkpt><trkpt lat="39.370507894280266" lon="9.23501827379219"><ele>352.0</ele><time>2026-04-09T09:07:33Z</time></trkpt><trkpt lat="39.37063208943021" lon="9.235023679902746"><ele>352.0</ele><time>2026-04-09T09:07:34Z</time></trkpt><trkpt lat="39.370753247019074" lon="9.235019835803358"><ele>350.0</ele><time>2026-04-09T09:07:35Z</time></trkpt><trkpt lat="39.37088475069368" lon="9.235016864647442"><ele>348.0</ele><time>2026-04-09T09:07:36Z</time></trkpt><trkpt lat="39.371014775197395" lon="9.235011308563278"><ele>346.0</ele><time>2026-04-09T09:07:37.001Z</time></trkpt><trkpt lat="39.37115002456592" lon="9.234999323379588"><ele>344.0</ele><time>2026-04-09T09:07:38.001Z</time></trkpt><trkpt lat="39.37128973208104" lon="9.23497412046534"><ele>341.25</ele><time>2026-04-09T09:07:39.001Z</time></trkpt><trkpt lat="39.37142608773898" lon="9.234939080655199"><ele>338.5</ele><time>2026-04-09T09:07:40.001Z</time></trkpt><trkpt lat="39.37156068337182" lon="9.234899789275172"><ele>335.75</ele><time>2026-04-09T09:07:41.001Z</time></trkpt><trkpt lat="39.3716990613659" lon="9.2348628064123"><ele>333.0</ele><time>2026-04-09T09:07:42.001Z</time></trkpt><trkpt lat="39.371839131114406" lon="9.234828828918287"><ele>334.0</ele><time>2026-04-09T09:07:43.001Z</time></trkpt><trkpt lat="39.37197888820174" lon="9.234797842798933"><ele>335.0</ele><time>2026-04-09T09:07:44.001Z</time></trkpt><trkpt lat="39.372119165609625" lon="9.23477134308403"><ele>336.0</ele><time>2026-04-09T09:07:45.001Z</time></trkpt><trkpt lat="39.37225511562261" lon="9.234742248296408"><ele>337.0</ele><time>2026-04-09T09:07:46.001Z</time></trkpt><trkpt lat="39.37239079468114" lon="9.234714931131716"><ele>337.0</ele><time>2026-04-09T09:07:47.001Z</time></trkpt><trkpt lat="39.372526658680336" lon="9.23468659489734"><ele>337.0</ele><time>2026-04-09T09:07:48.001Z</time></trkpt><trkpt lat="39.3726628101465" lon="9.234653101022163"><ele>337.0</ele><time>2026-04-09T09:07:49.001Z</time></trkpt><trkpt lat="39.372794935651406" lon="9.234600206101275"><ele>337.0</ele><time>2026-04-09T09:07:50.001Z</time></trkpt><trkpt lat="39.37293135564826" lon="9.234532095867554"><ele>334.25</ele><time>2026-04-09T09:07:51.001Z</time></trkpt><trkpt lat="39.37307490721318" lon="9.234461005147033"><ele>331.5</ele><time>2026-04-09T09:07:52.001Z</time></trkpt><trkpt lat="39.37321661833754" lon="9.234392739794224"><ele>328.75</ele><time>2026-04-09T09:07:53.001Z</time></trkpt><trkpt lat="39.37334985723871" lon="9.23432568890988"><ele>326.0</ele><time>2026-04-09T09:07:54.001Z</time></trkpt><trkpt lat="39.37348367941915" lon="9.234262014262253"><ele>326.0</ele><time>2026-04-09T09:07:55.001Z</time></trkpt><trkpt lat="39.373611831300096" lon="9.234204562417647"><ele>326.0</ele><time>2026-04-09T09:07:56.001Z</time></trkpt><trkpt lat="39.373738107213754" lon="9.234149385281036"><ele>326.0</ele><time>2026-04-09T09:07:57.001Z</time></trkpt><trkpt lat="39.373870905977896" lon="9.234087717163364"><ele>326.0</ele><time>2026-04-09T09:07:58.001Z</time></trkpt><trkpt lat="39.37400594672439" lon="9.23401855267286"><ele>325.25</ele><time>2026-04-09T09:07:59.001Z</time></trkpt><trkpt lat="39.3741388824586" lon="9.233942506656035"><ele>324.5</ele><time>2026-04-09T09:08:00.001Z</time></trkpt><trkpt lat="39.37427504468456" lon="9.233865044818348"><ele>323.75</ele><time>2026-04-09T09:08:01.001Z</time></trkpt><trkpt lat="39.37441462745056" lon="9.233790480400296"><ele>323.0</ele><time>2026-04-09T09:08:02.001Z</time></trkpt><trkpt lat="39.37455053966971" lon="9.2337049502791"><ele>323.0</ele><time>2026-04-09T09:08:03.001Z</time></trkpt><trkpt lat="39.374686404336636" lon="9.233619231974659"><ele>323.0</ele><time>2026-04-09T09:08:04.001Z</time></trkpt><trkpt lat="39.37482144403346" lon="9.233535887431959"><ele>323.0</ele><time>2026-04-09T09:08:05.001Z</time></trkpt><trkpt lat="39.37495191194014" lon="9.233451813381324"><ele>323.0</ele><time>2026-04-09T09:08:06.001Z</time></trkpt><trkpt lat="39.37508169118149" lon="9.233366876109155"><ele>322.0</ele><time>2026-04-09T09:08:07.001Z</time></trkpt><trkpt lat="39.37521106674651" lon="9.233286367372973"><ele>321.0</ele><time>2026-04-09T09:08:08.001Z</time></trkpt><trkpt lat="39.37533932422363" lon="9.23320724165916"><ele>320.0</ele><time>2026-04-09T09:08:09.001Z</time></trkpt><trkpt lat="39.37546653662026" lon="9.233128137205595"><ele>319.0</ele><time>2026-04-09T09:08:10.001Z</time></trkpt><trkpt lat="39.375592959325516" lon="9.233048940346025"><ele>316.0</ele><time>2026-04-09T09:08:11.001Z</time></trkpt><trkpt lat="39.375719830742405" lon="9.232972722035411"><ele>313.0</ele><time>2026-04-09T09:08:12.001Z</time></trkpt><trkpt lat="39.375845947098924" lon="9.232896569850245"><ele>310.0</ele><time>2026-04-09T09:08:13.001Z</time></trkpt><trkpt lat="39.37596537107838" lon="9.232821210059667"><ele>307.0</ele><time>2026-04-09T09:08:14.001Z</time></trkpt><trkpt lat="39.37607234003266" lon="9.232733323219595"><ele>307.0</ele><time>2026-04-09T09:08:15.002Z</time></trkpt><trkpt lat="39.37616339160444" lon="9.232618579094902"><ele>307.0</ele><time>2026-04-09T09:08:16.002Z</time></trkpt><trkpt lat="39.37623824120203" lon="9.232470914616277"><ele>307.0</ele><time>2026-04-09T09:08:17.002Z</time></trkpt><trkpt lat="39.37628920257469" lon="9.23228302582971"><ele>307.0</ele><time>2026-04-09T09:08:18.002Z</time></trkpt><trkpt lat="39.37633294371082" lon="9.232102619871348"><ele>305.0</ele><time>2026-04-09T09:08:19.002Z</time></trkpt><trkpt lat="39.37637901263773" lon="9.231920872373527"><ele>303.0</ele><time>2026-04-09T09:08:20.002Z</time></trkpt><trkpt lat="39.376436678884346" lon="9.231739489049035"><ele>301.0</ele><time>2026-04-09T09:08:21.002Z</time></trkpt><trkpt lat="39.37649995357887" lon="9.23157136203757"><ele>299.0</ele><time>2026-04-09T09:08:22.002Z</time></trkpt><trkpt lat="39.37656536932498" lon="9.231404820399375"><ele>299.0</ele><time>2026-04-09T09:08:23.002Z</time></trkpt><trkpt lat="39.37662932378398" lon="9.231235280358172"><ele>299.0</ele><time>2026-04-09T09:08:24.002Z</time></trkpt><trkpt lat="39.37669930817375" lon="9.231073299555208"><ele>299.0</ele><time>2026-04-09T09:08:25.002Z</time></trkpt><trkpt lat="39.376777029244124" lon="9.23091381935884"><ele>299.0</ele><time>2026-04-09T09:08:26.002Z</time></trkpt><trkpt lat="39.376854615247815" lon="9.23075809994845"><ele>299.75</ele><time>2026-04-09T09:08:27.002Z</time></trkpt><trkpt lat="39.376932527298884" lon="9.230603958024263"><ele>300.5</ele><time>2026-04-09T09:08:28.002Z</time></trkpt><trkpt lat="39.37700820612434" lon="9.23045096235941"><ele>301.25</ele><time>2026-04-09T09:08:29.002Z</time></trkpt><trkpt lat="39.37708517235208" lon="9.230301838572391"><ele>302.0</ele><time>2026-04-09T09:08:30.002Z</time></trkpt><trkpt lat="39.3771634158917" lon="9.230150512992173"><ele>300.0</ele><time>2026-04-09T09:08:31.002Z</time></trkpt><trkpt lat="39.377241884230486" lon="9.229996990481357"><ele>298.0</ele><time>2026-04-09T09:08:32.002Z</time></trkpt><trkpt lat="39.37731802742798" lon="9.22983678518472"><ele>296.0</ele><time>2026-04-09T09:08:33.002Z</time></trkpt><trkpt lat="39.37739261911332" lon="9.229682052508114"><ele>294.0</ele><time>2026-04-09T09:08:34.002Z</time></trkpt><trkpt lat="39.37746241466006" lon="9.22952368920013"><ele>293.75</ele><time>2026-04-09T09:08:35.002Z</time></trkpt><trkpt lat="39.377522525105256" lon="9.22935802299141"><ele>293.5</ele><time>2026-04-09T09:08:36.002Z</time></trkpt><trkpt lat="39.37757222851118" lon="9.229185167730328"><ele>293.25</ele><time>2026-04-09T09:08:37.002Z</time></trkpt><trkpt lat="39.377616999477056" lon="9.229006132913142"><ele>293.0</ele><time>2026-04-09T09:08:38.002Z</time></trkpt><trkpt lat="39.377649505196906" lon="9.228820135558221"><ele>293.5</ele><time>2026-04-09T09:08:39.002Z</time></trkpt><trkpt lat="39.3776762565148" lon="9.228626901348953"><ele>294.0</ele><time>2026-04-09T09:08:40.002Z</time></trkpt><trkpt lat="39.37769712088374" lon="9.228440159793248"><ele>294.5</ele><time>2026-04-09T09:08:41.002Z</time></trkpt><trkpt lat="39.37772125062089" lon="9.228267705356307"><ele>295.0</ele><time>2026-04-09T09:08:42.002Z</time></trkpt><trkpt lat="39.377762322644074" lon="9.228111819389076"><ele>295.0</ele><time>2026-04-09T09:08:43.002Z</time></trkpt><trkpt lat="39.37781272472801" lon="9.227955708119271"><ele>295.0</ele><time>2026-04-09T09:08:44.002Z</time></trkpt><trkpt lat="39.37785672072533" lon="9.227778729697533"><ele>295.0</ele><time>2026-04-09T09:08:45.002Z</time></trkpt><trkpt lat="39.377899004022915" lon="9.227596756474897"><ele>295.0</ele><time>2026-04-09T09:08:46.002Z</time></trkpt><trkpt lat="39.37793793378205" lon="9.227408637149395"><ele>294.5</ele><time>2026-04-09T09:08:47.002Z</time></trkpt><trkpt lat="39.377969162678724" lon="9.227218886208236"><ele>294.0</ele><time>2026-04-09T09:08:48.002Z</time></trkpt><trkpt lat="39.37798631112048" lon="9.227026863157219"><ele>293.5</ele><time>2026-04-09T09:08:49.002Z</time></trkpt><trkpt lat="39.37799429941515" lon="9.22685420201024"><ele>293.0</ele><time>2026-04-09T09:08:50.002Z</time></trkpt><trkpt lat="39.378002024891366" lon="9.226690515242943"><ele>293.0</ele><time>2026-04-09T09:08:51.002Z</time></trkpt><trkpt lat="39.3780139034516" lon="9.226542007052583"><ele>293.0</ele><time>2026-04-09T09:08:52.002Z</time></trkpt><trkpt lat="39.37804120387206" lon="9.226410034991344"><ele>293.0</ele><time>2026-04-09T09:08:53.002Z</time></trkpt><trkpt lat="39.37809009414657" lon="9.22627967012608"><ele>293.0</ele><time>2026-04-09T09:08:54.003Z</time></trkpt><trkpt lat="39.37816466402043" lon="9.226134667169777"><ele>290.75</ele><time>2026-04-09T09:08:55.003Z</time></trkpt><trkpt lat="39.378251375706334" lon="9.22598274954809"><ele>288.5</ele><time>2026-04-09T09:08:56.003Z</time></trkpt><trkpt lat="39.37833214523939" lon="9.225820682866917"><ele>286.25</ele><time>2026-04-09T09:08:57.003Z</time></trkpt><trkpt lat="39.37839940751193" lon="9.225646726667396"><ele>284.0</ele><time>2026-04-09T09:08:58.003Z</time></trkpt><trkpt lat="39.378460973387405" lon="9.225475899536196"><ele>283.75</ele><time>2026-04-09T09:08:59.003Z</time></trkpt><trkpt lat="39.37851874567607" lon="9.225311718360476"><ele>283.5</ele><time>2026-04-09T09:09:00.003Z</time></trkpt><trkpt lat="39.37857726352886" lon="9.225149398818031"><ele>283.25</ele><time>2026-04-09T09:09:01Z</time></trkpt><trkpt lat="39.37863181836613" lon="9.224992532814138"><ele>283.0</ele><time>2026-04-09T09:09:02Z</time></trkpt><trkpt lat="39.37868742387187" lon="9.224835728822283"><ele>283.25</ele><time>2026-04-09T09:09:03Z</time></trkpt><trkpt lat="39.37873983945547" lon="9.224672645261359"><ele>283.5</ele><time>2026-04-09T09:09:04Z</time></trkpt><trkpt lat="39.37878481365283" lon="9.224497531722951"><ele>283.75</ele><time>2026-04-09T09:09:05Z</time></trkpt><trkpt lat="39.378825635825386" lon="9.224318616336227"><ele>284.0</ele><time>2026-04-09T09:09:06Z</time></trkpt><trkpt lat="39.37886717834927" lon="9.224128087833108"><ele>281.33333333333337</ele><time>2026-04-09T09:09:07Z</time></trkpt><trkpt lat="39.37891344409807" lon="9.223933524217683"><ele>278.6666666666667</ele><time>2026-04-09T09:09:08Z</time></trkpt><trkpt lat="39.37896352361431" lon="9.223737155972511"><ele>276.0</ele><time>2026-04-09T09:09:09Z</time></trkpt><trkpt lat="39.37901917722427" lon="9.223539828666892"><ele>276.0</ele><time>2026-04-09T09:09:10Z</time></trkpt><trkpt lat="39.37907405599694" lon="9.223341391479583"><ele>276.0</ele><time>2026-04-09T09:09:11Z</time></trkpt><trkpt lat="39.37912772926257" lon="9.223152140379293"><ele>276.0</ele><time>2026-04-09T09:09:12Z</time></trkpt><trkpt lat="39.37918329405653" lon="9.222969753354585"><ele>275.75</ele><time>2026-04-09T09:09:13Z</time></trkpt><trkpt lat="39.37924279634757" lon="9.222794806346364"><ele>275.5</ele><time>2026-04-09T09:09:14Z</time></trkpt><trkpt lat="39.37930535552436" lon="9.22262367543485"><ele>275.25</ele><time>2026-04-09T09:09:15Z</time></trkpt><trkpt lat="39.379364902816775" lon="9.222451254238663"><ele>275.0</ele><time>2026-04-09T09:09:16Z</time></trkpt><trkpt lat="39.3794257189432" lon="9.222277551975907"><ele>274.75</ele><time>2026-04-09T09:09:17Z</time></trkpt><trkpt lat="39.37948075778322" lon="9.222106960110565"><ele>274.5</ele><time>2026-04-09T09:09:18Z</time></trkpt><trkpt lat="39.379527857209965" lon="9.221933575615795"><ele>274.25</ele><time>2026-04-09T09:09:19Z</time></trkpt><trkpt lat="39.37956963373491" lon="9.221760869702626"><ele>274.0</ele><time>2026-04-09T09:09:20Z</time></trkpt><trkpt lat="39.37960654077552" lon="9.221577601308745"><ele>273.0</ele><time>2026-04-09T09:09:21Z</time></trkpt><trkpt lat="39.37963999055942" lon="9.221385772801407"><ele>272.0</ele><time>2026-04-09T09:09:22Z</time></trkpt><trkpt lat="39.37966966350053" lon="9.22118401877661"><ele>271.0</ele><time>2026-04-09T09:09:23Z</time></trkpt><trkpt lat="39.3796990872423" lon="9.22098230974699"><ele>271.0</ele><time>2026-04-09T09:09:24Z</time></trkpt><trkpt lat="39.37972783562704" lon="9.220774484827349"><ele>271.0</ele><time>2026-04-09T09:09:25Z</time></trkpt><trkpt lat="39.37975903211239" lon="9.220567658139283"><ele>271.0</ele><time>2026-04-09T09:09:26Z</time></trkpt><trkpt lat="39.37978745636794" lon="9.220367607076414"><ele>271.0</ele><time>2026-04-09T09:09:27Z</time></trkpt><trkpt lat="39.37981000137295" lon="9.220180722037414"><ele>271.0</ele><time>2026-04-09T09:09:28Z</time></trkpt><trkpt lat="39.37982824061904" lon="9.220003789297433"><ele>271.0</ele><time>2026-04-09T09:09:29Z</time></trkpt><trkpt lat="39.379844441434244" lon="9.219842905487942"><ele>271.0</ele><time>2026-04-09T09:09:30Z</time></trkpt><trkpt lat="39.37985473482625" lon="9.21969619829074"><ele>271.25</ele><time>2026-04-09T09:09:31Z</time></trkpt><trkpt lat="39.37986356847647" lon="9.219550627143494"><ele>271.5</ele><time>2026-04-09T09:09:32Z</time></trkpt><trkpt lat="39.37989012871086" lon="9.219393090241352"><ele>271.75</ele><time>2026-04-09T09:09:33Z</time></trkpt><trkpt lat="39.37987194297182" lon="9.219243610101577"><ele>272.0</ele><time>2026-04-09T09:09:34Z</time></trkpt><trkpt lat="39.37985488870008" lon="9.219112770097276"><ele>272.0</ele><time>2026-04-09T09:09:35Z</time></trkpt><trkpt lat="39.37985278769125" lon="9.218998829185931"><ele>272.0</ele><time>2026-04-09T09:09:36Z</time></trkpt><trkpt lat="39.37983891601703" lon="9.218918660461362"><ele>272.0</ele><time>2026-04-09T09:09:38.001Z</time></trkpt><trkpt lat="39.379952893471625" lon="9.219025675956305"><ele>272.0</ele><time>2026-04-09T09:09:48.001Z</time></trkpt><trkpt lat="39.37999898972474" lon="9.219107161086312"><ele>272.0</ele><time>2026-04-09T09:09:49.001Z</time></trkpt><trkpt lat="39.38005317620432" lon="9.219202813878734"><ele>272.0</ele><time>2026-04-09T09:09:50.001Z</time></trkpt><trkpt lat="39.380117611328586" lon="9.219334093478237"><ele>272.0</ele><time>2026-04-09T09:09:51.001Z</time></trkpt><trkpt lat="39.380188233252234" lon="9.21948838886493"><ele>272.0</ele><time>2026-04-09T09:09:52.001Z</time></trkpt><trkpt lat="39.38026137696779" lon="9.219655093539808"><ele>272.0</ele><time>2026-04-09T09:09:53.001Z</time></trkpt><trkpt lat="39.380325039145234" lon="9.21981657083011"><ele>271.8</ele><time>2026-04-09T09:09:54.001Z</time></trkpt><trkpt lat="39.38038017216211" lon="9.21996131490311"><ele>271.6</ele><time>2026-04-09T09:09:55.001Z</time></trkpt><trkpt lat="39.38042573810648" lon="9.220094546698089"><ele>271.40000000000003</ele><time>2026-04-09T09:09:56.001Z</time></trkpt><trkpt lat="39.38046074791591" lon="9.220221733512865"><ele>271.2</ele><time>2026-04-09T09:09:57.001Z</time></trkpt><trkpt lat="39.3804875410425" lon="9.220331072970376"><ele>271.0</ele><time>2026-04-09T09:09:58.001Z</time></trkpt><trkpt lat="39.380515246798275" lon="9.22040699878152"><ele>270.40000000000003</ele><time>2026-04-09T09:09:59.001Z</time></trkpt><trkpt lat="39.380599735396956" lon="9.220470182904268"><ele>269.8</ele><time>2026-04-09T09:10:01.001Z</time></trkpt><trkpt lat="39.38072033460441" lon="9.220514208412165"><ele>269.20000000000005</ele><time>2026-04-09T09:10:03.001Z</time></trkpt><trkpt lat="39.380804267165864" lon="9.220510514087184"><ele>268.6</ele><time>2026-04-09T09:10:04.001Z</time></trkpt><trkpt lat="39.38091183922358" lon="9.220509868626202"><ele>268.0</ele><time>2026-04-09T09:10:05.001Z</time></trkpt><trkpt lat="39.38100451668562" lon="9.220528630790248"><ele>268.0</ele><time>2026-04-09T09:10:06.001Z</time></trkpt><trkpt lat="39.381081461629" lon="9.220551280889529"><ele>268.0</ele><time>2026-04-09T09:10:07.001Z</time></trkpt><trkpt lat="39.38114280694888" lon="9.22062544607682"><ele>268.0</ele><time>2026-04-09T09:10:08.001Z</time></trkpt><trkpt lat="39.381223147477826" lon="9.220666486134999"><ele>268.0</ele><time>2026-04-09T09:10:09.001Z</time></trkpt><trkpt lat="39.381314215678934" lon="9.220719637484281"><ele>268.0</ele><time>2026-04-09T09:10:10.001Z</time></trkpt><trkpt lat="39.38140506853587" lon="9.220765290778038"><ele>268.0</ele><time>2026-04-09T09:10:11.001Z</time></trkpt><trkpt lat="39.38150538534311" lon="9.220819361980688"><ele>269.3333333333333</ele><time>2026-04-09T09:10:12.001Z</time></trkpt><trkpt lat="39.38159574359659" lon="9.220889778050442"><ele>270.66666666666663</ele><time>2026-04-09T09:10:13.001Z</time></trkpt><trkpt lat="39.3816805668786" lon="9.220959779663342"><ele>272.0</ele><time>2026-04-09T09:10:14.001Z</time></trkpt><trkpt lat="39.381744282832955" lon="9.221021257664388"><ele>273.3333333333333</ele><time>2026-04-09T09:10:15.001Z</time></trkpt><trkpt lat="39.381799406147444" lon="9.221090621524114"><ele>274.6666666666667</ele><time>2026-04-09T09:10:16.002Z</time></trkpt><trkpt lat="39.38184091441891" lon="9.221180398069807"><ele>276.0</ele><time>2026-04-09T09:10:17.002Z</time></trkpt><trkpt lat="39.381878004899" lon="9.221284257528243"><ele>276.0</ele><time>2026-04-09T09:10:18.002Z</time></trkpt><trkpt lat="39.38191162682209" lon="9.221402292667905"><ele>276.0</ele><time>2026-04-09T09:10:19.002Z</time></trkpt><trkpt lat="39.38197158759555" lon="9.221509378498354"><ele>276.0</ele><time>2026-04-09T09:10:20.002Z</time></trkpt><trkpt lat="39.38204386201116" lon="9.221625192752228"><ele>276.0</ele><time>2026-04-09T09:10:21.002Z</time></trkpt><trkpt lat="39.382114761703676" lon="9.2217389659545"><ele>276.0</ele><time>2026-04-09T09:10:22.002Z</time></trkpt><trkpt lat="39.382179848053525" lon="9.221844244410606"><ele>278.2</ele><time>2026-04-09T09:10:23.002Z</time></trkpt><trkpt lat="39.382234890356195" lon="9.221923737918186"><ele>280.40000000000003</ele><time>2026-04-09T09:10:24.002Z</time></trkpt><trkpt lat="39.382304058699084" lon="9.221979824047413"><ele>282.6</ele><time>2026-04-09T09:10:25.002Z</time></trkpt><trkpt lat="39.38239294294102" lon="9.222037329597457"><ele>284.8</ele><time>2026-04-09T09:10:26.002Z</time></trkpt><trkpt lat="39.38248878755754" lon="9.222098115667233"><ele>287.0</ele><time>2026-04-09T09:10:27.002Z</time></trkpt><trkpt lat="39.382565479114035" lon="9.222177139997862"><ele>287.0</ele><time>2026-04-09T09:10:28.002Z</time></trkpt><trkpt lat="39.38261584993233" lon="9.222289534450756"><ele>287.0</ele><time>2026-04-09T09:10:29.002Z</time></trkpt><trkpt lat="39.38268356710096" lon="9.22239058039588"><ele>287.0</ele><time>2026-04-09T09:10:30.002Z</time></trkpt><trkpt lat="39.382715618081136" lon="9.222529037040356"><ele>287.0</ele><time>2026-04-09T09:10:31.002Z</time></trkpt><trkpt lat="39.382785485717456" lon="9.222629858568615"><ele>287.0</ele><time>2026-04-09T09:10:32.002Z</time></trkpt><trkpt lat="39.38286102338261" lon="9.222725983349942"><ele>287.25</ele><time>2026-04-09T09:10:33.002Z</time></trkpt><trkpt lat="39.382944300208656" lon="9.222823467947057"><ele>287.5</ele><time>2026-04-09T09:10:34.002Z</time></trkpt><trkpt lat="39.38303081762168" lon="9.222923000354177"><ele>287.75</ele><time>2026-04-09T09:10:35.002Z</time></trkpt><trkpt lat="39.3831312064981" lon="9.223030420941019"><ele>288.0</ele><time>2026-04-09T09:10:36.002Z</time></trkpt><trkpt lat="39.3832422843243" lon="9.223143385408104"><ele>288.75</ele><time>2026-04-09T09:10:37.002Z</time></trkpt><trkpt lat="39.383342630427386" lon="9.223254143088155"><ele>289.5</ele><time>2026-04-09T09:10:38.002Z</time></trkpt><trkpt lat="39.38343615151602" lon="9.223347774575398"><ele>290.25</ele><time>2026-04-09T09:10:39.002Z</time></trkpt><trkpt lat="39.383536400378794" lon="9.223435552962743"><ele>291.0</ele><time>2026-04-09T09:10:40.002Z</time></trkpt><trkpt lat="39.383644093979015" lon="9.223519205783798"><ele>291.0</ele><time>2026-04-09T09:10:41.002Z</time></trkpt><trkpt lat="39.38374054389609" lon="9.223586875541185"><ele>291.0</ele><time>2026-04-09T09:10:42.002Z</time></trkpt><trkpt lat="39.38382810554213" lon="9.223651097203778"><ele>291.0</ele><time>2026-04-09T09:10:43.002Z</time></trkpt><trkpt lat="39.3839046601915" lon="9.223717319287351"><ele>291.0</ele><time>2026-04-09T09:10:44.002Z</time></trkpt><trkpt lat="39.38397017043602" lon="9.223791206749597"><ele>291.0</ele><time>2026-04-09T09:10:45.002Z</time></trkpt><trkpt lat="39.38401559321754" lon="9.223903553563876"><ele>292.2</ele><time>2026-04-09T09:10:46.002Z</time></trkpt><trkpt lat="39.38407242735037" lon="9.224010416737123"><ele>293.40000000000003</ele><time>2026-04-09T09:10:47.002Z</time></trkpt><trkpt lat="39.38414122124609" lon="9.224106979991344"><ele>294.6</ele><time>2026-04-09T09:10:48.002Z</time></trkpt><trkpt lat="39.38418696155552" lon="9.224221428098648"><ele>295.8</ele><time>2026-04-09T09:10:49.002Z</time></trkpt><trkpt lat="39.38422497991152" lon="9.224345843012685"><ele>297.0</ele><time>2026-04-09T09:10:50.003Z</time></trkpt><trkpt lat="39.38426305414597" lon="9.224476372483098"><ele>297.0</ele><time>2026-04-09T09:10:51.003Z</time></trkpt><trkpt lat="39.38430334429603" lon="9.224592847807152"><ele>297.0</ele><time>2026-04-09T09:10:52.003Z</time></trkpt><trkpt lat="39.384342187534465" lon="9.224700475165127"><ele>297.0</ele><time>2026-04-09T09:10:53.003Z</time></trkpt><trkpt lat="39.384388958986044" lon="9.224791894520065"><ele>297.0</ele><time>2026-04-09T09:10:54.003Z</time></trkpt><trkpt lat="39.384448917981636" lon="9.22487881253811"><ele>297.0</ele><time>2026-04-09T09:10:55.003Z</time></trkpt><trkpt lat="39.38451649574795" lon="9.22496515294712"><ele>297.75</ele><time>2026-04-09T09:10:56.003Z</time></trkpt><trkpt lat="39.384610754078594" lon="9.22505574642786"><ele>298.5</ele><time>2026-04-09T09:10:57.003Z</time></trkpt><trkpt lat="39.3846997204683" lon="9.225149939487643"><ele>299.25</ele><time>2026-04-09T09:10:58.003Z</time></trkpt><trkpt lat="39.38478816086276" lon="9.22525058911334"><ele>300.0</ele><time>2026-04-09T09:10:59.003Z</time></trkpt><trkpt lat="39.38486258604192" lon="9.22534503145693"><ele>300.6</ele><time>2026-04-09T09:11:00.003Z</time></trkpt><trkpt lat="39.38493236147132" lon="9.225422656596331"><ele>301.2</ele><time>2026-04-09T09:11:01.003Z</time></trkpt><trkpt lat="39.38501697357022" lon="9.225478669935285"><ele>301.8</ele><time>2026-04-09T09:11:02.003Z</time></trkpt><trkpt lat="39.38511113849619" lon="9.225522668641469"><ele>302.4</ele><time>2026-04-09T09:11:03.003Z</time></trkpt><trkpt lat="39.385208314484295" lon="9.225561839303266"><ele>303.0</ele><time>2026-04-09T09:11:04.003Z</time></trkpt><trkpt lat="39.38531247823294" lon="9.22561742468817"><ele>302.6</ele><time>2026-04-09T09:11:05.003Z</time></trkpt><trkpt lat="39.38541138695599" lon="9.225649643596592"><ele>302.20000000000005</ele><time>2026-04-09T09:11:06.003Z</time></trkpt><trkpt lat="39.385505128808965" lon="9.225690546312169"><ele>301.8</ele><time>2026-04-09T09:11:07Z</time></trkpt><trkpt lat="39.38559405758611" lon="9.225750315639289"><ele>301.40000000000003</ele><time>2026-04-09T09:11:08Z</time></trkpt><trkpt lat="39.38567891397452" lon="9.225829595349126"><ele>301.0</ele><time>2026-04-09T09:11:09Z</time></trkpt><trkpt lat="39.38575316368874" lon="9.22593712494236"><ele>302.8</ele><time>2026-04-09T09:11:10Z</time></trkpt><trkpt lat="39.38584729397878" lon="9.226015064437926"><ele>304.6</ele><time>2026-04-09T09:11:11Z</time></trkpt><trkpt lat="39.385931817374015" lon="9.22609922360127"><ele>306.4</ele><time>2026-04-09T09:11:12Z</time></trkpt><trkpt lat="39.38602614701155" lon="9.226167519937981"><ele>308.2</ele><time>2026-04-09T09:11:13Z</time></trkpt><trkpt lat="39.386127276473665" lon="9.226226652212318"><ele>310.0</ele><time>2026-04-09T09:11:14Z</time></trkpt><trkpt lat="39.386222563394284" lon="9.226290751203168"><ele>310.0</ele><time>2026-04-09T09:11:15Z</time></trkpt><trkpt lat="39.3863138080952" lon="9.226340603200459"><ele>310.0</ele><time>2026-04-09T09:11:16Z</time></trkpt><trkpt lat="39.386384646003286" lon="9.226390053275159"><ele>310.0</ele><time>2026-04-09T09:11:17Z</time></trkpt><trkpt lat="39.38645783603355" lon="9.226519029748028"><ele>310.0</ele><time>2026-04-09T09:11:19Z</time></trkpt><trkpt lat="39.38650428524847" lon="9.226599304612517"><ele>310.0</ele><time>2026-04-09T09:11:20Z</time></trkpt><trkpt lat="39.386547537009825" lon="9.226688322224195"><ele>312.0</ele><time>2026-04-09T09:11:21Z</time></trkpt><trkpt lat="39.3866082933121" lon="9.226791694763362"><ele>314.0</ele><time>2026-04-09T09:11:22Z</time></trkpt><trkpt lat="39.386675544852466" lon="9.22688656384903"><ele>316.0</ele><time>2026-04-09T09:11:23Z</time></trkpt><trkpt lat="39.38675619094029" lon="9.226979140564445"><ele>318.0</ele><time>2026-04-09T09:11:24Z</time></trkpt><trkpt lat="39.38683600023019" lon="9.227069305696693"><ele>320.0</ele><time>2026-04-09T09:11:25Z</time></trkpt><trkpt lat="39.38690498415637" lon="9.227174138034092"><ele>320.0</ele><time>2026-04-09T09:11:26Z</time></trkpt><trkpt lat="39.38698251892637" lon="9.22724778484436"><ele>320.0</ele><time>2026-04-09T09:11:27Z</time></trkpt><trkpt lat="39.3870413034799" lon="9.227324499762295"><ele>320.0</ele><time>2026-04-09T09:11:28Z</time></trkpt><trkpt lat="39.387105471360435" lon="9.227406503968973"><ele>320.0</ele><time>2026-04-09T09:11:29Z</time></trkpt><trkpt lat="39.38714441342843" lon="9.227511759606518"><ele>320.0</ele><time>2026-04-09T09:11:30Z</time></trkpt><trkpt lat="39.38718533278135" lon="9.227600384779509"><ele>320.0</ele><time>2026-04-09T09:11:31Z</time></trkpt><trkpt lat="39.38722418576998" lon="9.22768998894703"><ele>323.6666666666667</ele><time>2026-04-09T09:11:32Z</time></trkpt><trkpt lat="39.387273944115634" lon="9.22778392339734"><ele>327.33333333333337</ele><time>2026-04-09T09:11:33Z</time></trkpt><trkpt lat="39.387299801423865" lon="9.227898990962835"><ele>331.0</ele><time>2026-04-09T09:11:34Z</time></trkpt><trkpt lat="39.38732207845641" lon="9.22800907753837"><ele>334.6666666666667</ele><time>2026-04-09T09:11:35Z</time></trkpt><trkpt lat="39.38734111348537" lon="9.228129810122892"><ele>338.3333333333333</ele><time>2026-04-09T09:11:36Z</time></trkpt><trkpt lat="39.387345876855186" lon="9.22822896801599"><ele>342.0</ele><time>2026-04-09T09:11:37.001Z</time></trkpt><trkpt lat="39.38731055544134" lon="9.228315043223349"><ele>342.8333333333333</ele><time>2026-04-09T09:11:39.001Z</time></trkpt><trkpt lat="39.387219898980426" lon="9.22834124864365"><ele>343.6666666666667</ele><time>2026-04-09T09:11:41.001Z</time></trkpt><trkpt lat="39.38715538163168" lon="9.228307843979733"><ele>344.5</ele><time>2026-04-09T09:11:42.001Z</time></trkpt><trkpt lat="39.38709118332169" lon="9.228270768744283"><ele>345.33333333333337</ele><time>2026-04-09T09:11:43.001Z</time></trkpt><trkpt lat="39.387018725160914" lon="9.228218011912807"><ele>346.1666666666667</ele><time>2026-04-09T09:11:44.001Z</time></trkpt><trkpt lat="39.38693838298826" lon="9.228156972114528"><ele>347.0</ele><time>2026-04-09T09:11:45.001Z</time></trkpt><trkpt lat="39.38685688978648" lon="9.2280842279426"><ele>347.0</ele><time>2026-04-09T09:11:46.001Z</time></trkpt><trkpt lat="39.38677318293912" lon="9.228005453759026"><ele>347.0</ele><time>2026-04-09T09:11:47.001Z</time></trkpt><trkpt lat="39.38668814203993" lon="9.227958809943104"><ele>347.0</ele><time>2026-04-09T09:11:49.001Z</time></trkpt><trkpt lat="39.38662673783291" lon="9.227987294867113"><ele>347.0</ele><time>2026-04-09T09:11:51.001Z</time></trkpt><trkpt lat="39.38660303481895" lon="9.22812632529579"><ele>347.0</ele><time>2026-04-09T09:11:53.001Z</time></trkpt><trkpt lat="39.38670963883696" lon="9.228195184270252"><ele>347.0</ele><time>2026-04-09T09:11:55.001Z</time></trkpt><trkpt lat="39.38677112122007" lon="9.228251343297291"><ele>347.0</ele><time>2026-04-09T09:11:56.001Z</time></trkpt><trkpt lat="39.38680131937925" lon="9.228336231069552"><ele>347.0</ele><time>2026-04-09T09:11:57.001Z</time></trkpt><trkpt lat="39.386859652651665" lon="9.228415468591272"><ele>347.0</ele><time>2026-04-09T09:11:58.001Z</time></trkpt><trkpt lat="39.386911650108814" lon="9.22852158269305"><ele>347.0</ele><time>2026-04-09T09:11:59.001Z</time></trkpt><trkpt lat="39.38697601438711" lon="9.228633539122612"><ele>347.0</ele><time>2026-04-09T09:12:00.001Z</time></trkpt><trkpt lat="39.38706036816069" lon="9.228747276601165"><ele>347.0</ele><time>2026-04-09T09:12:01.001Z</time></trkpt><trkpt lat="39.38714995793286" lon="9.228844083591026"><ele>347.0</ele><time>2026-04-09T09:12:02.001Z</time></trkpt><trkpt lat="39.387231036188645" lon="9.2289232525839"><ele>347.0</ele><time>2026-04-09T09:12:03.001Z</time></trkpt><trkpt lat="39.38731162002145" lon="9.228992973687372"><ele>347.0</ele><time>2026-04-09T09:12:04.001Z</time></trkpt><trkpt lat="39.38738519301347" lon="9.229041500530684"><ele>347.0</ele><time>2026-04-09T09:12:05.001Z</time></trkpt><trkpt lat="39.38744977051482" lon="9.229061481839915"><ele>348.0</ele><time>2026-04-09T09:12:06.001Z</time></trkpt><trkpt lat="39.38751558767043" lon="9.22905942141205"><ele>349.0</ele><time>2026-04-09T09:12:07.001Z</time></trkpt><trkpt lat="39.38758470567998" lon="9.229023150853356"><ele>350.0</ele><time>2026-04-09T09:12:08.001Z</time></trkpt><trkpt lat="39.38766044252355" lon="9.228961677079367"><ele>351.0</ele><time>2026-04-09T09:12:09.001Z</time></trkpt><trkpt lat="39.3877438974271" lon="9.228862741145669"><ele>352.0</ele><time>2026-04-09T09:12:10.001Z</time></trkpt><trkpt lat="39.38782700436608" lon="9.22875959126427"><ele>352.0</ele><time>2026-04-09T09:12:11.001Z</time></trkpt><trkpt lat="39.387917115733224" lon="9.228647338460473"><ele>352.0</ele><time>2026-04-09T09:12:12.001Z</time></trkpt><trkpt lat="39.387998822246566" lon="9.228535098572848"><ele>352.0</ele><time>2026-04-09T09:12:13.001Z</time></trkpt><trkpt lat="39.38805416885368" lon="9.228429055134951"><ele>352.0</ele><time>2026-04-09T09:12:14.001Z</time></trkpt><trkpt lat="39.38808860197982" lon="9.228307365797747"><ele>352.0</ele><time>2026-04-09T09:12:15.001Z</time></trkpt><trkpt lat="39.38811855980572" lon="9.228165833193914"><ele>354.5</ele><time>2026-04-09T09:12:16.001Z</time></trkpt><trkpt lat="39.38817562340143" lon="9.228037293381927"><ele>357.0</ele><time>2026-04-09T09:12:17.002Z</time></trkpt><trkpt lat="39.388173726781964" lon="9.227855744608094"><ele>359.5</ele><time>2026-04-09T09:12:18.002Z</time></trkpt><trkpt lat="39.3882051801636" lon="9.227696434299904"><ele>362.0</ele><time>2026-04-09T09:12:19.002Z</time></trkpt><trkpt lat="39.38823191070914" lon="9.227552775750386"><ele>362.0</ele><time>2026-04-09T09:12:20.002Z</time></trkpt><trkpt lat="39.38825049187753" lon="9.22743768520662"><ele>362.0</ele><time>2026-04-09T09:12:21.002Z</time></trkpt><trkpt lat="39.38828478048268" lon="9.227326092081732"><ele>362.0</ele><time>2026-04-09T09:12:23.002Z</time></trkpt><trkpt lat="39.38835658766168" lon="9.227295295210741"><ele>362.0</ele><time>2026-04-09T09:12:26.002Z</time></trkpt><trkpt lat="39.38843058009907" lon="9.22742771994943"><ele>362.0</ele><time>2026-04-09T09:12:28.002Z</time></trkpt><trkpt lat="39.38848196140199" lon="9.22751003066256"><ele>362.0</ele><time>2026-04-09T09:12:29.002Z</time></trkpt><trkpt lat="39.38852809805456" lon="9.227615457268156"><ele>362.0</ele><time>2026-04-09T09:12:30.002Z</time></trkpt><trkpt lat="39.388564908500705" lon="9.227735642764008"><ele>362.0</ele><time>2026-04-09T09:12:31.002Z</time></trkpt><trkpt lat="39.38860981336024" lon="9.22786785262054"><ele>362.0</ele><time>2026-04-09T09:12:32.002Z</time></trkpt><trkpt lat="39.388661267918906" lon="9.227992814318654"><ele>362.0</ele><time>2026-04-09T09:12:33.002Z</time></trkpt><trkpt lat="39.388714941319705" lon="9.228087153999065"><ele>364.0</ele><time>2026-04-09T09:12:34.002Z</time></trkpt><trkpt lat="39.38877104115066" lon="9.228196144131617"><ele>366.0</ele><time>2026-04-09T09:12:35.002Z</time></trkpt><trkpt lat="39.38882177600055" lon="9.2283034096279"><ele>368.0</ele><time>2026-04-09T09:12:36.002Z</time></trkpt><trkpt lat="39.38886552448233" lon="9.228396259600034"><ele>370.0</ele><time>2026-04-09T09:12:37.002Z</time></trkpt><trkpt lat="39.388913946753455" lon="9.228454565775769"><ele>372.0</ele><time>2026-04-09T09:12:38.002Z</time></trkpt><trkpt lat="39.38899996870328" lon="9.228548954362918"><ele>373.40000000000003</ele><time>2026-04-09T09:12:40.002Z</time></trkpt><trkpt lat="39.389138641463866" lon="9.228518880504506"><ele>374.8</ele><time>2026-04-09T09:12:42.002Z</time></trkpt><trkpt lat="39.38921422301159" lon="9.228451808024545"><ele>376.2</ele><time>2026-04-09T09:12:43.002Z</time></trkpt><trkpt lat="39.38930343635827" lon="9.228409036935721"><ele>377.6</ele><time>2026-04-09T09:12:44.002Z</time></trkpt><trkpt lat="39.389382130414816" lon="9.228336316492767"><ele>379.0</ele><time>2026-04-09T09:12:45.002Z</time></trkpt><trkpt lat="39.38943775476989" lon="9.228285900249896"><ele>379.0</ele><time>2026-04-09T09:12:46.002Z</time></trkpt><trkpt lat="39.389529204432925" lon="9.228211370812424"><ele>379.0</ele><time>2026-04-09T09:12:48.002Z</time></trkpt><trkpt lat="39.38959289500153" lon="9.228141926351432"><ele>379.0</ele><time>2026-04-09T09:12:50.002Z</time></trkpt><trkpt lat="39.389647069992314" lon="9.228076891082539"><ele>379.0</ele><time>2026-04-09T09:12:52.002Z</time></trkpt><trkpt lat="39.38969597190373" lon="9.228023856775053"><ele>379.0</ele><time>2026-04-09T09:12:54.002Z</time></trkpt><trkpt lat="39.389752363942556" lon="9.227947713498079"><ele>379.0</ele><time>2026-04-09T09:12:57.003Z</time></trkpt><trkpt lat="39.38979991151175" lon="9.227883512428994"><ele>379.2</ele><time>2026-04-09T09:12:59.003Z</time></trkpt><trkpt lat="39.38986923724167" lon="9.227792279970075"><ele>379.4</ele><time>2026-04-09T09:13:01.003Z</time></trkpt><trkpt lat="39.38992954794348" lon="9.227713835798276"><ele>379.6</ele><time>2026-04-09T09:13:02.003Z</time></trkpt><trkpt lat="39.38999645048695" lon="9.227623363764284"><ele>379.8</ele><time>2026-04-09T09:13:03.003Z</time></trkpt><trkpt lat="39.39007919286733" lon="9.227526965956244"><ele>380.0</ele><time>2026-04-09T09:13:04.003Z</time></trkpt><trkpt lat="39.39016922954784" lon="9.22742215472614"><ele>380.0</ele><time>2026-04-09T09:13:05.003Z</time></trkpt><trkpt lat="39.39026020989249" lon="9.227314927978671"><ele>380.0</ele><time>2026-04-09T09:13:06.003Z</time></trkpt><trkpt lat="39.39036049620796" lon="9.227207307821983"><ele>380.0</ele><time>2026-04-09T09:13:07.003Z</time></trkpt><trkpt lat="39.39046852740561" lon="9.22709155627198"><ele>380.0</ele><time>2026-04-09T09:13:08.003Z</time></trkpt><trkpt lat="39.39058496960391" lon="9.22697647069948"><ele>380.0</ele><time>2026-04-09T09:13:09.003Z</time></trkpt><trkpt lat="39.39070707042106" lon="9.226859130577251"><ele>380.0</ele><time>2026-04-09T09:13:10.003Z</time></trkpt><trkpt lat="39.39081796007992" lon="9.226751208775232"><ele>380.0</ele><time>2026-04-09T09:13:11.003Z</time></trkpt><trkpt lat="39.39091122213188" lon="9.226650455548295"><ele>380.0</ele><time>2026-04-09T09:13:12.003Z</time></trkpt><trkpt lat="39.39100879213095" lon="9.226570391478072"><ele>380.0</ele><time>2026-04-09T09:13:13.001Z</time></trkpt><trkpt lat="39.391076372904465" lon="9.226486175147164"><ele>380.0</ele><time>2026-04-09T09:13:14.001Z</time></trkpt><trkpt lat="39.39113886003312" lon="9.226424094369763"><ele>380.0</ele><time>2026-04-09T09:13:15.001Z</time></trkpt><trkpt lat="39.3912096425129" lon="9.226372796279911"><ele>380.0</ele><time>2026-04-09T09:13:16.001Z</time></trkpt><trkpt lat="39.39126937594011" lon="9.226333541831258"><ele>380.0</ele><time>2026-04-09T09:13:17.001Z</time></trkpt><trkpt lat="39.39132127760713" lon="9.226284327445434"><ele>380.0</ele><time>2026-04-09T09:13:19Z</time></trkpt><trkpt lat="39.39137259288362" lon="9.226399314945672"><ele>380.0</ele><time>2026-04-09T09:13:25Z</time></trkpt><trkpt lat="39.391360733737926" lon="9.226527069746421"><ele>380.0</ele><time>2026-04-09T09:13:28Z</time></trkpt><trkpt lat="39.39133534364895" lon="9.22671001994242"><ele>380.0</ele><time>2026-04-09T09:13:30Z</time></trkpt><trkpt lat="39.39130895530809" lon="9.226824809553339"><ele>380.0</ele><time>2026-04-09T09:13:31Z</time></trkpt><trkpt lat="39.39131691512439" lon="9.226960759519159"><ele>380.0</ele><time>2026-04-09T09:13:32Z</time></trkpt><trkpt lat="39.39130152945502" lon="9.227083419857523"><ele>380.0</ele><time>2026-04-09T09:13:33Z</time></trkpt><trkpt lat="39.39130389426479" lon="9.22720445582166"><ele>380.0</ele><time>2026-04-09T09:13:34.001Z</time></trkpt><trkpt lat="39.39130681727478" lon="9.227318774931714"><ele>380.0</ele><time>2026-04-09T09:13:35.001Z</time></trkpt><trkpt lat="39.39130701315295" lon="9.227428712668935"><ele>380.0</ele><time>2026-04-09T09:13:36.001Z</time></trkpt><trkpt lat="39.39130802731616" lon="9.227545155423623"><ele>380.0</ele><time>2026-04-09T09:13:37.001Z</time></trkpt><trkpt lat="39.39132166523838" lon="9.227656078316732"><ele>380.0</ele><time>2026-04-09T09:13:38.001Z</time></trkpt><trkpt lat="39.3913404546791" lon="9.227782647742536"><ele>375.0</ele><time>2026-04-09T09:13:39.001Z</time></trkpt><trkpt lat="39.39135943579273" lon="9.227917830356622"><ele>370.0</ele><time>2026-04-09T09:13:40.001Z</time></trkpt><trkpt lat="39.39138120397684" lon="9.228063465705036"><ele>365.0</ele><time>2026-04-09T09:13:41.001Z</time></trkpt><trkpt lat="39.3914128386581" lon="9.228229769209927"><ele>360.0</ele><time>2026-04-09T09:13:42.001Z</time></trkpt><trkpt lat="39.39144703721726" lon="9.228372667293629"><ele>359.8</ele><time>2026-04-09T09:13:43.001Z</time></trkpt><trkpt lat="39.39147621818334" lon="9.228500432224994"><ele>359.6</ele><time>2026-04-09T09:13:44.001Z</time></trkpt><trkpt lat="39.39150537405489" lon="9.228624873484462"><ele>359.4</ele><time>2026-04-09T09:13:45.001Z</time></trkpt><trkpt lat="39.3915408626832" lon="9.228752348981342"><ele>359.2</ele><time>2026-04-09T09:13:46.001Z</time></trkpt><trkpt lat="39.39157799693264" lon="9.228869942445094"><ele>359.0</ele><time>2026-04-09T09:13:47.001Z</time></trkpt><trkpt lat="39.39161113317042" lon="9.228987536163851"><ele>359.0</ele><time>2026-04-09T09:13:48.001Z</time></trkpt><trkpt lat="39.39162880555249" lon="9.229105244979962"><ele>359.0</ele><time>2026-04-09T09:13:49.001Z</time></trkpt><trkpt lat="39.39164606793493" lon="9.229231258015888"><ele>359.0</ele><time>2026-04-09T09:13:50.001Z</time></trkpt><trkpt lat="39.39166696109563" lon="9.229362450028932"><ele>359.0</ele><time>2026-04-09T09:13:51.001Z</time></trkpt><trkpt lat="39.39168021313654" lon="9.22948182264002"><ele>359.0</ele><time>2026-04-09T09:13:52.001Z</time></trkpt><trkpt lat="39.39168413734159" lon="9.229613829143"><ele>359.0</ele><time>2026-04-09T09:13:53.001Z</time></trkpt><trkpt lat="39.39168825393165" lon="9.22971566940405"><ele>359.0</ele><time>2026-04-09T09:13:54.001Z</time></trkpt><trkpt lat="39.39168776079504" lon="9.229823848867214"><ele>359.0</ele><time>2026-04-09T09:13:55.001Z</time></trkpt><trkpt lat="39.39167628740999" lon="9.229918751057063"><ele>359.0</ele><time>2026-04-09T09:13:56.001Z</time></trkpt><trkpt lat="39.39162976333708" lon="9.230070676095597"><ele>359.0</ele><time>2026-04-09T09:13:58.001Z</time></trkpt><trkpt lat="39.39157201513776" lon="9.230125304981275"><ele>359.0</ele><time>2026-04-09T09:13:59.001Z</time></trkpt><trkpt lat="39.391509749022354" lon="9.230174262828912"><ele>357.83333333333337</ele><time>2026-04-09T09:14:00.001Z</time></trkpt><trkpt lat="39.391428975416815" lon="9.230228872215383"><ele>356.6666666666667</ele><time>2026-04-09T09:14:01.001Z</time></trkpt><trkpt lat="39.39134452834892" lon="9.230266694721543"><ele>355.5</ele><time>2026-04-09T09:14:02.001Z</time></trkpt><trkpt lat="39.39125210961529" lon="9.230306098247954"><ele>354.3333333333333</ele><time>2026-04-09T09:14:03.001Z</time></trkpt><trkpt lat="39.39118105341942" lon="9.230355871065546"><ele>353.16666666666663</ele><time>2026-04-09T09:14:04.001Z</time></trkpt><trkpt lat="39.39109370891022" lon="9.230388070709902"><ele>352.0</ele><time>2026-04-09T09:14:05.001Z</time></trkpt><trkpt lat="39.391014664240785" lon="9.230423204030819"><ele>351.66666666666663</ele><time>2026-04-09T09:14:06.001Z</time></trkpt><trkpt lat="39.390943629955785" lon="9.23045013405503"><ele>351.3333333333333</ele><time>2026-04-09T09:14:07.001Z</time></trkpt><trkpt lat="39.390847164195975" lon="9.23051081194809"><ele>351.0</ele><time>2026-04-09T09:14:09.001Z</time></trkpt><trkpt lat="39.390796185041566" lon="9.230581435404792"><ele>350.6666666666667</ele><time>2026-04-09T09:14:11.001Z</time></trkpt><trkpt lat="39.39075662948324" lon="9.230680847728854"><ele>350.33333333333337</ele><time>2026-04-09T09:14:13.001Z</time></trkpt><trkpt lat="39.390712104666456" lon="9.230774470359936"><ele>350.0</ele><time>2026-04-09T09:14:15.001Z</time></trkpt><trkpt lat="39.39073821668192" lon="9.230893714606987"><ele>350.0</ele><time>2026-04-09T09:14:18.001Z</time></trkpt><trkpt lat="39.3907949731831" lon="9.23094848086137"><ele>350.0</ele><time>2026-04-09T09:14:20.002Z</time></trkpt><trkpt lat="39.3908542492042" lon="9.23097842091348"><ele>350.0</ele><time>2026-04-09T09:14:24.002Z</time></trkpt><trkpt lat="39.39095416521139" lon="9.230986250370957"><ele>350.0</ele><time>2026-04-09T09:14:29.002Z</time></trkpt><trkpt lat="39.39102789300985" lon="9.230968342835673"><ele>350.0</ele><time>2026-04-09T09:14:30.002Z</time></trkpt><trkpt lat="39.39110724628465" lon="9.230957863832176"><ele>350.0</ele><time>2026-04-09T09:14:31.002Z</time></trkpt><trkpt lat="39.391189822936475" lon="9.230942339340979"><ele>350.0</ele><time>2026-04-09T09:14:32.002Z</time></trkpt><trkpt lat="39.39126660168879" lon="9.230922806536938"><ele>350.0</ele><time>2026-04-09T09:14:33.002Z</time></trkpt><trkpt lat="39.39133520712238" lon="9.230891268561113"><ele>350.0</ele><time>2026-04-09T09:14:34.002Z</time></trkpt><trkpt lat="39.391397440822466" lon="9.23084950653115"><ele>350.0</ele><time>2026-04-09T09:14:35.002Z</time></trkpt><trkpt lat="39.39146728631531" lon="9.230820902075795"><ele>350.0</ele><time>2026-04-09T09:14:36.002Z</time></trkpt><trkpt lat="39.39153937205379" lon="9.230771280522292"><ele>350.0</ele><time>2026-04-09T09:14:37.002Z</time></trkpt><trkpt lat="39.39162114609677" lon="9.23072649301177"><ele>350.0</ele><time>2026-04-09T09:14:38.002Z</time></trkpt><trkpt lat="39.39171962417544" lon="9.230672260247145"><ele>350.0</ele><time>2026-04-09T09:14:39.002Z</time></trkpt><trkpt lat="39.391810647789605" lon="9.23062044803117"><ele>350.0</ele><time>2026-04-09T09:14:40.002Z</time></trkpt><trkpt lat="39.391885436964884" lon="9.230570357051503"><ele>350.0</ele><time>2026-04-09T09:14:41.002Z</time></trkpt><trkpt lat="39.39194347701417" lon="9.230506165786599"><ele>350.0</ele><time>2026-04-09T09:14:42.002Z</time></trkpt><trkpt lat="39.392002585181324" lon="9.230421633345511"><ele>350.4</ele><time>2026-04-09T09:14:43.002Z</time></trkpt><trkpt lat="39.392066227608716" lon="9.23031653045939"><ele>350.8</ele><time>2026-04-09T09:14:44.002Z</time></trkpt><trkpt lat="39.39212496505486" lon="9.230207627061551"><ele>351.20000000000005</ele><time>2026-04-09T09:14:45.002Z</time></trkpt><trkpt lat="39.39217270786654" lon="9.230084156279112"><ele>351.6</ele><time>2026-04-09T09:14:46.002Z</time></trkpt><trkpt lat="39.39223043694465" lon="9.229977218055716"><ele>352.0</ele><time>2026-04-09T09:14:47.002Z</time></trkpt><trkpt lat="39.39225072667951" lon="9.229847588858092"><ele>351.8</ele><time>2026-04-09T09:14:48.002Z</time></trkpt><trkpt lat="39.392275258959465" lon="9.229737996623324"><ele>351.6</ele><time>2026-04-09T09:14:49.002Z</time></trkpt><trkpt lat="39.39230806004539" lon="9.22961769711267"><ele>351.40000000000003</ele><time>2026-04-09T09:14:50.002Z</time></trkpt><trkpt lat="39.39231018580713" lon="9.229510700799082"><ele>351.20000000000005</ele><time>2026-04-09T09:14:51.002Z</time></trkpt><trkpt lat="39.392305561961784" lon="9.22938424997188"><ele>351.0</ele><time>2026-04-09T09:14:52.002Z</time></trkpt><trkpt lat="39.39228596546741" lon="9.229272771205371"><ele>351.0</ele><time>2026-04-09T09:14:53.002Z</time></trkpt><trkpt lat="39.39228143738937" lon="9.229147566309283"><ele>351.0</ele><time>2026-04-09T09:14:54.002Z</time></trkpt><trkpt lat="39.39228370486975" lon="9.229041768339066"><ele>351.0</ele><time>2026-04-09T09:14:55.002Z</time></trkpt><trkpt lat="39.39227649336594" lon="9.228943170011389"><ele>351.0</ele><time>2026-04-09T09:14:56.002Z</time></trkpt><trkpt lat="39.39229451452855" lon="9.228834840774812"><ele>351.0</ele><time>2026-04-09T09:14:57.002Z</time></trkpt><trkpt lat="39.392283955639186" lon="9.228719759324159"><ele>351.0</ele><time>2026-04-09T09:14:58.002Z</time></trkpt><trkpt lat="39.392293823075946" lon="9.228609668729833"><ele>349.8</ele><time>2026-04-09T09:14:59.002Z</time></trkpt><trkpt lat="39.39230940161994" lon="9.228500781643811"><ele>348.6</ele><time>2026-04-09T09:15:00.003Z</time></trkpt><trkpt lat="39.39232780007239" lon="9.228387257099826"><ele>347.4</ele><time>2026-04-09T09:15:01.003Z</time></trkpt><trkpt lat="39.39235311542044" lon="9.228268174183885"><ele>346.2</ele><time>2026-04-09T09:15:02.003Z</time></trkpt><trkpt lat="39.39237866599779" lon="9.228151438864515"><ele>345.0</ele><time>2026-04-09T09:15:03.003Z</time></trkpt><trkpt lat="39.3924176673674" lon="9.228034826436673"><ele>342.5</ele><time>2026-04-09T09:15:04.003Z</time></trkpt><trkpt lat="39.392468735717074" lon="9.227902615971317"><ele>340.0</ele><time>2026-04-09T09:15:05.003Z</time></trkpt><trkpt lat="39.39252965727997" lon="9.227762944740393"><ele>337.5</ele><time>2026-04-09T09:15:06.003Z</time></trkpt><trkpt lat="39.39258962707297" lon="9.227627030667717"><ele>335.0</ele><time>2026-04-09T09:15:07.003Z</time></trkpt><trkpt lat="39.39266387999236" lon="9.227544989929994"><ele>335.0</ele><time>2026-04-09T09:15:08.003Z</time></trkpt><trkpt lat="39.392723458784104" lon="9.227485373069129"><ele>335.0</ele><time>2026-04-09T09:15:09.003Z</time></trkpt><trkpt lat="39.39278575100331" lon="9.227438593250154"><ele>335.0</ele><time>2026-04-09T09:15:10.003Z</time></trkpt><trkpt lat="39.39287509766912" lon="9.227369892744962"><ele>335.0</ele><time>2026-04-09T09:15:11.003Z</time></trkpt><trkpt lat="39.392974302784076" lon="9.22731766124143"><ele>335.0</ele><time>2026-04-09T09:15:12.003Z</time></trkpt><trkpt lat="39.39304872780106" lon="9.227248465161077"><ele>335.5</ele><time>2026-04-09T09:15:13.003Z</time></trkpt><trkpt lat="39.39309639606403" lon="9.22717986255825"><ele>336.0</ele><time>2026-04-09T09:15:14.003Z</time></trkpt><trkpt lat="39.393141157813865" lon="9.227094394655257"><ele>336.5</ele><time>2026-04-09T09:15:15.003Z</time></trkpt><trkpt lat="39.39319713320806" lon="9.226998803683662"><ele>337.0</ele><time>2026-04-09T09:15:16.003Z</time></trkpt><trkpt lat="39.39326134974542" lon="9.226896125855498"><ele>337.5</ele><time>2026-04-09T09:15:17.003Z</time></trkpt><trkpt lat="39.39333694902112" lon="9.226808631623737"><ele>338.0</ele><time>2026-04-09T09:15:18.003Z</time></trkpt><trkpt lat="39.39341859974919" lon="9.226711034193192"><ele>338.0</ele><time>2026-04-09T09:15:19Z</time></trkpt><trkpt lat="39.393506265333585" lon="9.226607002568304"><ele>338.0</ele><time>2026-04-09T09:15:20Z</time></trkpt><trkpt lat="39.393594940930164" lon="9.22649801137137"><ele>338.0</ele><time>2026-04-09T09:15:21Z</time></trkpt><trkpt lat="39.39368408984466" lon="9.22639508418885"><ele>338.0</ele><time>2026-04-09T09:15:22Z</time></trkpt><trkpt lat="39.39377777411662" lon="9.226316485312603"><ele>339.0</ele><time>2026-04-09T09:15:23Z</time></trkpt><trkpt lat="39.393865303822075" lon="9.226211259439003"><ele>340.0</ele><time>2026-04-09T09:15:24Z</time></trkpt><trkpt lat="39.393952763148725" lon="9.226099497953642"><ele>341.0</ele><time>2026-04-09T09:15:25Z</time></trkpt><trkpt lat="39.39403301539149" lon="9.225985290671666"><ele>342.0</ele><time>2026-04-09T09:15:26Z</time></trkpt><trkpt lat="39.39411645014739" lon="9.225868466760575"><ele>342.0</ele><time>2026-04-09T09:15:27Z</time></trkpt><trkpt lat="39.39419486944028" lon="9.225759181896496"><ele>342.0</ele><time>2026-04-09T09:15:28Z</time></trkpt><trkpt lat="39.39425101150273" lon="9.225663638896458"><ele>342.0</ele><time>2026-04-09T09:15:29Z</time></trkpt><trkpt lat="39.39430165219959" lon="9.225582703327557"><ele>342.0</ele><time>2026-04-09T09:15:30Z</time></trkpt><trkpt lat="39.394341667366646" lon="9.225512914500143"><ele>342.0</ele><time>2026-04-09T09:15:31Z</time></trkpt><trkpt lat="39.39437861027564" lon="9.225436620688688"><ele>342.0</ele><time>2026-04-09T09:15:32Z</time></trkpt><trkpt lat="39.394398405185925" lon="9.225338191010852"><ele>340.40000000000003</ele><time>2026-04-09T09:15:33Z</time></trkpt><trkpt lat="39.39441811146215" lon="9.225205196859498"><ele>338.8</ele><time>2026-04-09T09:15:34Z</time></trkpt><trkpt lat="39.39446708951778" lon="9.225086895686509"><ele>337.2</ele><time>2026-04-09T09:15:35Z</time></trkpt><trkpt lat="39.394500206771916" lon="9.224960501503421"><ele>335.6</ele><time>2026-04-09T09:15:36Z</time></trkpt><trkpt lat="39.394499637198514" lon="9.224854984830541"><ele>334.0</ele><time>2026-04-09T09:15:37Z</time></trkpt><trkpt lat="39.3945066142675" lon="9.224745197019294"><ele>333.66666666666663</ele><time>2026-04-09T09:15:38Z</time></trkpt><trkpt lat="39.394507700227095" lon="9.224637922179912"><ele>333.3333333333333</ele><time>2026-04-09T09:15:39Z</time></trkpt><trkpt lat="39.39453131343335" lon="9.224532099694926"><ele>333.0</ele><time>2026-04-09T09:15:40Z</time></trkpt><trkpt lat="39.394524200388204" lon="9.224409799114095"><ele>332.6666666666667</ele><time>2026-04-09T09:15:41Z</time></trkpt><trkpt lat="39.394523763957004" lon="9.22431260428907"><ele>332.33333333333337</ele><time>2026-04-09T09:15:42Z</time></trkpt><trkpt lat="39.39453312482369" lon="9.224214566237535"><ele>332.0</ele><time>2026-04-09T09:15:43Z</time></trkpt><trkpt lat="39.39452786392269" lon="9.224111775343768"><ele>332.0</ele><time>2026-04-09T09:15:44.001Z</time></trkpt><trkpt lat="39.39451982868405" lon="9.223999570173268"><ele>332.0</ele><time>2026-04-09T09:15:45.001Z</time></trkpt><trkpt lat="39.39450423582548" lon="9.22388826925356"><ele>332.0</ele><time>2026-04-09T09:15:46.001Z</time></trkpt><trkpt lat="39.39447315061865" lon="9.2237800236015"><ele>332.0</ele><time>2026-04-09T09:15:47.001Z</time></trkpt><trkpt lat="39.394452776620774" lon="9.223674498660206"><ele>332.0</ele><time>2026-04-09T09:15:48.001Z</time></trkpt><trkpt lat="39.39443359287008" lon="9.223545131704423"><ele>331.40000000000003</ele><time>2026-04-09T09:15:49.001Z</time></trkpt><trkpt lat="39.39440585686101" lon="9.223421319015149"><ele>330.8</ele><time>2026-04-09T09:15:50.001Z</time></trkpt><trkpt lat="39.39438463379047" lon="9.22329822314894"><ele>330.2</ele><time>2026-04-09T09:15:51.001Z</time></trkpt><trkpt lat="39.394347122742325" lon="9.223160853726672"><ele>329.6</ele><time>2026-04-09T09:15:52.001Z</time></trkpt><trkpt lat="39.394318365858055" lon="9.223004349492422"><ele>329.0</ele><time>2026-04-09T09:15:53.001Z</time></trkpt><trkpt lat="39.394271022391166" lon="9.222875548940063"><ele>328.33333333333337</ele><time>2026-04-09T09:15:54.001Z</time></trkpt><trkpt lat="39.394240902333564" lon="9.222748094323393"><ele>327.6666666666667</ele><time>2026-04-09T09:15:55.001Z</time></trkpt><trkpt lat="39.39419836233739" lon="9.222639841448594"><ele>327.0</ele><time>2026-04-09T09:15:56.001Z</time></trkpt><trkpt lat="39.394164589289" lon="9.222527305447635"><ele>326.3333333333333</ele><time>2026-04-09T09:15:57.001Z</time></trkpt><trkpt lat="39.394138999993565" lon="9.222422886797197"><ele>325.66666666666663</ele><time>2026-04-09T09:15:58.001Z</time></trkpt><trkpt lat="39.39412096357403" lon="9.222340647135535"><ele>325.0</ele><time>2026-04-09T09:15:59.001Z</time></trkpt><trkpt lat="39.39415263254801" lon="9.222202103188135"><ele>324.2</ele><time>2026-04-09T09:16:01.001Z</time></trkpt><trkpt lat="39.39420106264586" lon="9.222145288599767"><ele>323.4</ele><time>2026-04-09T09:16:02.001Z</time></trkpt><trkpt lat="39.394271762630645" lon="9.222139729807193"><ele>322.6</ele><time>2026-04-09T09:16:03.001Z</time></trkpt><trkpt lat="39.394352591258105" lon="9.222084551708598"><ele>321.8</ele><time>2026-04-09T09:16:04.001Z</time></trkpt><trkpt lat="39.39446636722493" lon="9.222034448287866"><ele>321.0</ele><time>2026-04-09T09:16:05.001Z</time></trkpt><trkpt lat="39.3945812918852" lon="9.221995402616697"><ele>322.20000000000005</ele><time>2026-04-09T09:16:06.001Z</time></trkpt><trkpt lat="39.394675651887106" lon="9.221922151128863"><ele>323.40000000000003</ele><time>2026-04-09T09:16:07.001Z</time></trkpt><trkpt lat="39.394753801961635" lon="9.221854073905352"><ele>324.6</ele><time>2026-04-09T09:16:08.001Z</time></trkpt><trkpt lat="39.39482664266377" lon="9.221769655595963"><ele>325.8</ele><time>2026-04-09T09:16:09.001Z</time></trkpt><trkpt lat="39.39490561618843" lon="9.221688302642793"><ele>327.0</ele><time>2026-04-09T09:16:10.001Z</time></trkpt><trkpt lat="39.39500489199114" lon="9.221618489917095"><ele>327.0</ele><time>2026-04-09T09:16:11.001Z</time></trkpt><trkpt lat="39.3950983496" lon="9.221538425780459"><ele>327.0</ele><time>2026-04-09T09:16:12.001Z</time></trkpt><trkpt lat="39.395184176781086" lon="9.221460444802082"><ele>327.0</ele><time>2026-04-09T09:16:13.001Z</time></trkpt><trkpt lat="39.39526467039025" lon="9.221376637009698"><ele>327.0</ele><time>2026-04-09T09:16:14.001Z</time></trkpt><trkpt lat="39.39534483264413" lon="9.221279430370389"><ele>327.0</ele><time>2026-04-09T09:16:15.001Z</time></trkpt><trkpt lat="39.39542981872236" lon="9.221180239018357"><ele>326.8</ele><time>2026-04-09T09:16:16.001Z</time></trkpt><trkpt lat="39.39549602627767" lon="9.22108737119373"><ele>326.6</ele><time>2026-04-09T09:16:17.001Z</time></trkpt><trkpt lat="39.39555141807931" lon="9.22099294863526"><ele>326.40000000000003</ele><time>2026-04-09T09:16:18.001Z</time></trkpt><trkpt lat="39.39560668960925" lon="9.22088124500697"><ele>326.20000000000005</ele><time>2026-04-09T09:16:19.001Z</time></trkpt><trkpt lat="39.39566555189613" lon="9.220766550615553"><ele>326.0</ele><time>2026-04-09T09:16:20.001Z</time></trkpt><trkpt lat="39.395734181827926" lon="9.220646918204231"><ele>324.6</ele><time>2026-04-09T09:16:21.001Z</time></trkpt><trkpt lat="39.39579822171759" lon="9.220533165480143"><ele>323.20000000000005</ele><time>2026-04-09T09:16:22.001Z</time></trkpt><trkpt lat="39.3958613704559" lon="9.22043524189652"><ele>321.79999999999995</ele><time>2026-04-09T09:16:23.001Z</time></trkpt><trkpt lat="39.3959139038146" lon="9.220331274444709"><ele>320.4</ele><time>2026-04-09T09:16:24.001Z</time></trkpt><trkpt lat="39.39596825329831" lon="9.220202921401212"><ele>319.0</ele><time>2026-04-09T09:16:25.001Z</time></trkpt><trkpt lat="39.39601782426186" lon="9.220066362446849"><ele>319.0</ele><time>2026-04-09T09:16:26.001Z</time></trkpt><trkpt lat="39.396067859348186" lon="9.219926182597964"><ele>319.0</ele><time>2026-04-09T09:16:27.001Z</time></trkpt><trkpt lat="39.39611948384309" lon="9.219785293640694"><ele>319.0</ele><time>2026-04-09T09:16:28.001Z</time></trkpt><trkpt lat="39.396170824109646" lon="9.219652471599737"><ele>319.0</ele><time>2026-04-09T09:16:29.002Z</time></trkpt><trkpt lat="39.39621324295975" lon="9.219517036619711"><ele>319.4</ele><time>2026-04-09T09:16:30.002Z</time></trkpt><trkpt lat="39.39625303761993" lon="9.219369360457636"><ele>319.79999999999995</ele><time>2026-04-09T09:16:31.002Z</time></trkpt><trkpt lat="39.39629250804697" lon="9.219235662937416"><ele>320.20000000000005</ele><time>2026-04-09T09:16:32.002Z</time></trkpt><trkpt lat="39.39632492740454" lon="9.219121822044784"><ele>320.6</ele><time>2026-04-09T09:16:33.002Z</time></trkpt><trkpt lat="39.39635840281479" lon="9.218992622248354"><ele>321.0</ele><time>2026-04-09T09:16:35.002Z</time></trkpt><trkpt lat="39.396387121676575" lon="9.21890631455957"><ele>321.20000000000005</ele><time>2026-04-09T09:16:37.002Z</time></trkpt><trkpt lat="39.39638745381047" lon="9.218731980638461"><ele>321.40000000000003</ele><time>2026-04-09T09:16:39.002Z</time></trkpt><trkpt lat="39.39638407487082" lon="9.218631098358538"><ele>321.6</ele><time>2026-04-09T09:16:40.002Z</time></trkpt><trkpt lat="39.396361058050175" lon="9.218542067611743"><ele>321.8</ele><time>2026-04-09T09:16:41.002Z</time></trkpt><trkpt lat="39.39631188965406" lon="9.21844408864339"><ele>322.0</ele><time>2026-04-09T09:16:42.002Z</time></trkpt><trkpt lat="39.39624988237607" lon="9.218333961534222"><ele>320.6</ele><time>2026-04-09T09:16:43.002Z</time></trkpt><trkpt lat="39.396189103982344" lon="9.218232005122031"><ele>319.20000000000005</ele><time>2026-04-09T09:16:44.002Z</time></trkpt><trkpt lat="39.39611346530098" lon="9.218146015393325"><ele>317.8</ele><time>2026-04-09T09:16:45.002Z</time></trkpt><trkpt lat="39.396023106866075" lon="9.218072239793223"><ele>316.4</ele><time>2026-04-09T09:16:46.002Z</time></trkpt><trkpt lat="39.395943751030394" lon="9.218010736249617"><ele>315.0</ele><time>2026-04-09T09:16:47.002Z</time></trkpt><trkpt lat="39.395881751973285" lon="9.217963721959043"><ele>315.0</ele><time>2026-04-09T09:16:48.002Z</time></trkpt><trkpt lat="39.39583450074284" lon="9.217888745487128"><ele>315.0</ele><time>2026-04-09T09:16:49.002Z</time></trkpt><trkpt lat="39.395795051231204" lon="9.217790817983929"><ele>315.0</ele><time>2026-04-09T09:16:50.002Z</time></trkpt><trkpt lat="39.39575690666696" lon="9.217686542144325"><ele>315.0</ele><time>2026-04-09T09:16:51.002Z</time></trkpt><trkpt lat="39.395717457328495" lon="9.217560587127146"><ele>315.0</ele><time>2026-04-09T09:16:52.002Z</time></trkpt><trkpt lat="39.39566994572775" lon="9.217424639810902"><ele>314.8</ele><time>2026-04-09T09:16:53.002Z</time></trkpt><trkpt lat="39.39563376283239" lon="9.217294908331592"><ele>314.6</ele><time>2026-04-09T09:16:54.002Z</time></trkpt><trkpt lat="39.39560247852032" lon="9.217182697868786"><ele>314.4</ele><time>2026-04-09T09:16:55.002Z</time></trkpt><trkpt lat="39.39558415397381" lon="9.217076082440663"><ele>314.2</ele><time>2026-04-09T09:16:56.002Z</time></trkpt><trkpt lat="39.39558376567878" lon="9.216946349462761"><ele>314.0</ele><time>2026-04-09T09:16:57.002Z</time></trkpt><trkpt lat="39.39559275175505" lon="9.216800475429208"><ele>314.0</ele><time>2026-04-09T09:16:58.002Z</time></trkpt><trkpt lat="39.39560004098248" lon="9.21666864131218"><ele>314.0</ele><time>2026-04-09T09:16:59.002Z</time></trkpt><trkpt lat="39.395606004850485" lon="9.216553005922208"><ele>314.0</ele><time>2026-04-09T09:17:00.002Z</time></trkpt><trkpt lat="39.395605577892994" lon="9.216440022854503"><ele>314.0</ele><time>2026-04-09T09:17:01.002Z</time></trkpt><trkpt lat="39.395597503782504" lon="9.216341507460504"><ele>314.0</ele><time>2026-04-09T09:17:02.002Z</time></trkpt><trkpt lat="39.395619534257776" lon="9.216206236048695"><ele>313.0</ele><time>2026-04-09T09:17:04.002Z</time></trkpt><trkpt lat="39.39566473867187" lon="9.21613036615525"><ele>312.0</ele><time>2026-04-09T09:17:05.002Z</time></trkpt><trkpt lat="39.395722172911356" lon="9.216062007605482"><ele>311.0</ele><time>2026-04-09T09:17:06.002Z</time></trkpt><trkpt lat="39.39579415563327" lon="9.216012612380286"><ele>310.0</ele><time>2026-04-09T09:17:07.002Z</time></trkpt><trkpt lat="39.395879565733416" lon="9.215971401253203"><ele>309.0</ele><time>2026-04-09T09:17:08.002Z</time></trkpt><trkpt lat="39.395970078382454" lon="9.21593502012892"><ele>308.0</ele><time>2026-04-09T09:17:09.002Z</time></trkpt><trkpt lat="39.39606432532958" lon="9.215900287927406"><ele>308.0</ele><time>2026-04-09T09:17:10.002Z</time></trkpt><trkpt lat="39.39617207626291" lon="9.21585895807707"><ele>308.0</ele><time>2026-04-09T09:17:11.002Z</time></trkpt><trkpt lat="39.3962843525813" lon="9.215809857011985"><ele>308.0</ele><time>2026-04-09T09:17:12.003Z</time></trkpt><trkpt lat="39.396384801950845" lon="9.21575797843144"><ele>308.0</ele><time>2026-04-09T09:17:13.003Z</time></trkpt><trkpt lat="39.39647387011119" lon="9.215694910497607"><ele>308.0</ele><time>2026-04-09T09:17:14.003Z</time></trkpt><trkpt lat="39.39655425095066" lon="9.215621145767232"><ele>307.0</ele><time>2026-04-09T09:17:15.003Z</time></trkpt><trkpt lat="39.39662534255761" lon="9.215538409978558"><ele>306.0</ele><time>2026-04-09T09:17:16.003Z</time></trkpt><trkpt lat="39.396672580797755" lon="9.215447672078149"><ele>305.0</ele><time>2026-04-09T09:17:17.003Z</time></trkpt><trkpt lat="39.39669223798918" lon="9.215361800795007"><ele>304.0</ele><time>2026-04-09T09:17:18.003Z</time></trkpt><trkpt lat="39.39669095535122" lon="9.215253335383174"><ele>303.0</ele><time>2026-04-09T09:17:19.003Z</time></trkpt><trkpt lat="39.3966723851418" lon="9.215118202305721"><ele>302.0</ele><time>2026-04-09T09:17:20.003Z</time></trkpt><trkpt lat="39.39664891932051" lon="9.21498328940123"><ele>302.0</ele><time>2026-04-09T09:17:21.003Z</time></trkpt><trkpt lat="39.39664059800598" lon="9.21487782680217"><ele>302.0</ele><time>2026-04-09T09:17:22.003Z</time></trkpt><trkpt lat="39.39666643323696" lon="9.214781904371097"><ele>302.0</ele><time>2026-04-09T09:17:23.003Z</time></trkpt><trkpt lat="39.39672064933768" lon="9.214695432100084"><ele>302.0</ele><time>2026-04-09T09:17:24.003Z</time></trkpt><trkpt lat="39.39680334725914" lon="9.21461573239427"><ele>302.0</ele><time>2026-04-09T09:17:25Z</time></trkpt><trkpt lat="39.39690446752427" lon="9.214542774060456"><ele>302.8</ele><time>2026-04-09T09:17:26Z</time></trkpt><trkpt lat="39.397018136597026" lon="9.214474559660397"><ele>303.6</ele><time>2026-04-09T09:17:27Z</time></trkpt><trkpt lat="39.39711258893693" lon="9.214411718025103"><ele>304.40000000000003</ele><time>2026-04-09T09:17:28Z</time></trkpt><trkpt lat="39.39718470426744" lon="9.214345236236747"><ele>305.2</ele><time>2026-04-09T09:17:29Z</time></trkpt><trkpt lat="39.39724462971581" lon="9.2142578603449"><ele>306.0</ele><time>2026-04-09T09:17:30Z</time></trkpt><trkpt lat="39.397308522045726" lon="9.214146087721117"><ele>306.0</ele><time>2026-04-09T09:17:31Z</time></trkpt><trkpt lat="39.397357317020095" lon="9.214028488779102"><ele>306.0</ele><time>2026-04-09T09:17:32Z</time></trkpt><trkpt lat="39.397393599394206" lon="9.21390895389311"><ele>306.0</ele><time>2026-04-09T09:17:33Z</time></trkpt><trkpt lat="39.39742810886518" lon="9.213778716289148"><ele>306.0</ele><time>2026-04-09T09:17:34Z</time></trkpt><trkpt lat="39.39746077900358" lon="9.213661803245314"><ele>306.0</ele><time>2026-04-09T09:17:35Z</time></trkpt><trkpt lat="39.39750110940743" lon="9.213544552674492"><ele>305.0</ele><time>2026-04-09T09:17:36Z</time></trkpt><trkpt lat="39.39754197732023" lon="9.213432640192131"><ele>304.0</ele><time>2026-04-09T09:17:37Z</time></trkpt><trkpt lat="39.39758248132178" lon="9.213329081896884"><ele>303.0</ele><time>2026-04-09T09:17:38Z</time></trkpt><trkpt lat="39.397638857446196" lon="9.213232435107981"><ele>302.0</ele><time>2026-04-09T09:17:39Z</time></trkpt><trkpt lat="39.39770231420225" lon="9.213161861072523"><ele>301.0</ele><time>2026-04-09T09:17:40Z</time></trkpt><trkpt lat="39.397772724209695" lon="9.213101534858332"><ele>300.0</ele><time>2026-04-09T09:17:41Z</time></trkpt><trkpt lat="39.397847785609066" lon="9.21302776920615"><ele>299.0</ele><time>2026-04-09T09:17:42Z</time></trkpt><trkpt lat="39.397913327799245" lon="9.212940488429528"><ele>298.0</ele><time>2026-04-09T09:17:43Z</time></trkpt><trkpt lat="39.397981116396245" lon="9.212850380890085"><ele>297.0</ele><time>2026-04-09T09:17:44Z</time></trkpt><trkpt lat="39.39804050601168" lon="9.212754956278472"><ele>296.0</ele><time>2026-04-09T09:17:45Z</time></trkpt><trkpt lat="39.39808807545927" lon="9.212655410691081"><ele>295.0</ele><time>2026-04-09T09:17:46Z</time></trkpt><trkpt lat="39.39813812756536" lon="9.21255260556535"><ele>295.0</ele><time>2026-04-09T09:17:47Z</time></trkpt><trkpt lat="39.39819080965899" lon="9.212472174025155"><ele>295.0</ele><time>2026-04-09T09:17:48Z</time></trkpt><trkpt lat="39.39825608037656" lon="9.212411910966049"><ele>295.0</ele><time>2026-04-09T09:17:49Z</time></trkpt><trkpt lat="39.39834326301424" lon="9.212360539104706"><ele>295.0</ele><time>2026-04-09T09:17:50Z</time></trkpt><trkpt lat="39.39841936274369" lon="9.21234872372735"><ele>295.0</ele><time>2026-04-09T09:17:51Z</time></trkpt><trkpt lat="39.39848162957356" lon="9.212366254350481"><ele>295.0</ele><time>2026-04-09T09:17:52Z</time></trkpt><trkpt lat="39.39856455872078" lon="9.212401777114339"><ele>295.0</ele><time>2026-04-09T09:17:53Z</time></trkpt><trkpt lat="39.39865959513884" lon="9.212462390124987"><ele>295.0</ele><time>2026-04-09T09:17:54Z</time></trkpt><trkpt lat="39.3987468625378" lon="9.212521047664124"><ele>295.0</ele><time>2026-04-09T09:17:55.001Z</time></trkpt><trkpt lat="39.39884537318093" lon="9.212575847537572"><ele>295.0</ele><time>2026-04-09T09:17:56.001Z</time></trkpt><trkpt lat="39.398936391348606" lon="9.212616380094794"><ele>295.0</ele><time>2026-04-09T09:17:57.001Z</time></trkpt><trkpt lat="39.399013970611016" lon="9.212631098164582"><ele>295.16666666666663</ele><time>2026-04-09T09:17:58.001Z</time></trkpt><trkpt lat="39.399072809760376" lon="9.212596830466895"><ele>295.3333333333333</ele><time>2026-04-09T09:17:59.001Z</time></trkpt><trkpt lat="39.39916651512749" lon="9.212514191520205"><ele>295.5</ele><time>2026-04-09T09:18:01.001Z</time></trkpt><trkpt lat="39.39919993462931" lon="9.212417096966643"><ele>295.6666666666667</ele><time>2026-04-09T09:18:02.001Z</time></trkpt><trkpt lat="39.3992231678733" lon="9.212307427650023"><ele>295.83333333333337</ele><time>2026-04-09T09:18:03.001Z</time></trkpt><trkpt lat="39.39923817353973" lon="9.212194582337572"><ele>296.0</ele><time>2026-04-09T09:18:04.001Z</time></trkpt><trkpt lat="39.39924462535187" lon="9.212053728245946"><ele>296.2</ele><time>2026-04-09T09:18:05.001Z</time></trkpt><trkpt lat="39.3992459784649" lon="9.211922174287919"><ele>296.40000000000003</ele><time>2026-04-09T09:18:06.001Z</time></trkpt><trkpt lat="39.39924828564192" lon="9.21180358516536"><ele>296.6</ele><time>2026-04-09T09:18:07.001Z</time></trkpt><trkpt lat="39.39924293224343" lon="9.211684464681316"><ele>296.8</ele><time>2026-04-09T09:18:08.001Z</time></trkpt><trkpt lat="39.39924155940039" lon="9.211567947933048"><ele>297.0</ele><time>2026-04-09T09:18:09.001Z</time></trkpt><trkpt lat="39.39924271988117" lon="9.211446996273724"><ele>297.0</ele><time>2026-04-09T09:18:10.001Z</time></trkpt><trkpt lat="39.39923849499673" lon="9.211348715141092"><ele>297.0</ele><time>2026-04-09T09:18:11.001Z</time></trkpt><trkpt lat="39.399282362481415" lon="9.211206150929526"><ele>297.0</ele><time>2026-04-09T09:18:13.001Z</time></trkpt><trkpt lat="39.399340619188074" lon="9.211130471812428"><ele>297.0</ele><time>2026-04-09T09:18:14.001Z</time></trkpt><trkpt lat="39.39940513279758" lon="9.211063051451365"><ele>297.0</ele><time>2026-04-09T09:18:15.001Z</time></trkpt><trkpt lat="39.39947487734401" lon="9.211018098281903"><ele>297.0</ele><time>2026-04-09T09:18:16.001Z</time></trkpt><trkpt lat="39.39954489871616" lon="9.210991652171014"><ele>297.0</ele><time>2026-04-09T09:18:17.001Z</time></trkpt><trkpt lat="39.399629127033975" lon="9.210999048367883"><ele>297.0</ele><time>2026-04-09T09:18:18.001Z</time></trkpt><trkpt lat="39.399722228492394" lon="9.21102761792442"><ele>297.0</ele><time>2026-04-09T09:18:19.001Z</time></trkpt><trkpt lat="39.39982121317261" lon="9.211063232506365"><ele>297.0</ele><time>2026-04-09T09:18:20.001Z</time></trkpt><trkpt lat="39.399939028099524" lon="9.21108255296038"><ele>297.0</ele><time>2026-04-09T09:18:21.001Z</time></trkpt><trkpt lat="39.400068296008364" lon="9.211101233357573"><ele>295.8</ele><time>2026-04-09T09:18:22.001Z</time></trkpt><trkpt lat="39.400189598048755" lon="9.211128140064945"><ele>294.6</ele><time>2026-04-09T09:18:23.001Z</time></trkpt><trkpt lat="39.40029033945891" lon="9.211138084776124"><ele>293.40000000000003</ele><time>2026-04-09T09:18:24.001Z</time></trkpt><trkpt lat="39.400374960317684" lon="9.211124028778453"><ele>292.2</ele><time>2026-04-09T09:18:25.001Z</time></trkpt><trkpt lat="39.400449481942005" lon="9.21108742329692"><ele>291.0</ele><time>2026-04-09T09:18:26.001Z</time></trkpt><trkpt lat="39.40051261559983" lon="9.21103045371064"><ele>291.0</ele><time>2026-04-09T09:18:27.001Z</time></trkpt><trkpt lat="39.40056682934595" lon="9.210942092715907"><ele>291.0</ele><time>2026-04-09T09:18:28.001Z</time></trkpt><trkpt lat="39.40061816836449" lon="9.210820206965808"><ele>291.0</ele><time>2026-04-09T09:18:29.001Z</time></trkpt><trkpt lat="39.400646924054904" lon="9.210681223793795"><ele>291.0</ele><time>2026-04-09T09:18:30.001Z</time></trkpt><trkpt lat="39.400647122327676" lon="9.210545685589251"><ele>291.0</ele><time>2026-04-09T09:18:31.001Z</time></trkpt><trkpt lat="39.40063133591475" lon="9.210407097765279"><ele>288.6666666666667</ele><time>2026-04-09T09:18:32.001Z</time></trkpt><trkpt lat="39.40062907590958" lon="9.210303856786915"><ele>286.3333333333333</ele><time>2026-04-09T09:18:33.001Z</time></trkpt><trkpt lat="39.400657420398694" lon="9.210227746609691"><ele>284.0</ele><time>2026-04-09T09:18:34.001Z</time></trkpt><trkpt lat="39.40072019817251" lon="9.210134287611826"><ele>281.66666666666663</ele><time>2026-04-09T09:18:35.001Z</time></trkpt><trkpt lat="39.4007860388808" lon="9.210039398725344"><ele>279.3333333333333</ele><time>2026-04-09T09:18:36.001Z</time></trkpt><trkpt lat="39.40083608852734" lon="9.209956375049234"><ele>277.0</ele><time>2026-04-09T09:18:37.001Z</time></trkpt><trkpt lat="39.40088531146649" lon="9.209863764058438"><ele>279.2</ele><time>2026-04-09T09:18:38.001Z</time></trkpt><trkpt lat="39.40095507613103" lon="9.20977695120088"><ele>281.4</ele><time>2026-04-09T09:18:39.002Z</time></trkpt><trkpt lat="39.40103216074166" lon="9.209739663021246"><ele>283.6</ele><time>2026-04-09T09:18:40.002Z</time></trkpt><trkpt lat="39.40112940935689" lon="9.209692120612756"><ele>285.8</ele><time>2026-04-09T09:18:41.002Z</time></trkpt><trkpt lat="39.40123636839039" lon="9.209648172159627"><ele>288.0</ele><time>2026-04-09T09:18:42.002Z</time></trkpt><trkpt lat="39.401328584235266" lon="9.209615989947876"><ele>285.6666666666667</ele><time>2026-04-09T09:18:43.002Z</time></trkpt><trkpt lat="39.40141146998453" lon="9.20958479271526"><ele>283.3333333333333</ele><time>2026-04-09T09:18:44.002Z</time></trkpt><trkpt lat="39.40147614503943" lon="9.209541339118664"><ele>281.0</ele><time>2026-04-09T09:18:45.002Z</time></trkpt><trkpt lat="39.401546163115874" lon="9.209447678524587"><ele>278.66666666666663</ele><time>2026-04-09T09:18:47.002Z</time></trkpt><trkpt lat="39.40159373189309" lon="9.209361649224073"><ele>276.3333333333333</ele><time>2026-04-09T09:18:49.002Z</time></trkpt><trkpt lat="39.401680370238346" lon="9.209280145092016"><ele>274.0</ele><time>2026-04-09T09:18:51.002Z</time></trkpt><trkpt lat="39.4018214473928" lon="9.209250108965506"><ele>274.0</ele><time>2026-04-09T09:18:53.002Z</time></trkpt><trkpt lat="39.401911348542946" lon="9.209234781845781"><ele>274.0</ele><time>2026-04-09T09:18:54.002Z</time></trkpt><trkpt lat="39.40199341572" lon="9.209223119859836"><ele>274.0</ele><time>2026-04-09T09:18:55.002Z</time></trkpt><trkpt lat="39.40210098751556" lon="9.209223648996037"><ele>274.0</ele><time>2026-04-09T09:18:56.002Z</time></trkpt><trkpt lat="39.40221539728086" lon="9.2092407559595"><ele>274.0</ele><time>2026-04-09T09:18:57.002Z</time></trkpt><trkpt lat="39.40234038467144" lon="9.209257488526404"><ele>273.59999999999997</ele><time>2026-04-09T09:18:58.002Z</time></trkpt><trkpt lat="39.40244779383328" lon="9.20927069802991"><ele>273.2</ele><time>2026-04-09T09:18:59.002Z</time></trkpt><trkpt lat="39.402558148073574" lon="9.209293058732419"><ele>272.79999999999995</ele><time>2026-04-09T09:19:00.002Z</time></trkpt><trkpt lat="39.402654584988305" lon="9.209308612382255"><ele>272.4</ele><time>2026-04-09T09:19:01.002Z</time></trkpt><trkpt lat="39.40275357156995" lon="9.209303831615788"><ele>272.0</ele><time>2026-04-09T09:19:02.002Z</time></trkpt><trkpt lat="39.402861876181156" lon="9.209313244629667"><ele>272.0</ele><time>2026-04-09T09:19:03.002Z</time></trkpt><trkpt lat="39.402957322218356" lon="9.209322142443103"><ele>272.0</ele><time>2026-04-09T09:19:04.002Z</time></trkpt><trkpt lat="39.40305586592211" lon="9.209330540987054"><ele>272.0</ele><time>2026-04-09T09:19:05.002Z</time></trkpt><trkpt lat="39.40317015686347" lon="9.209336632440001"><ele>272.0</ele><time>2026-04-09T09:19:06.002Z</time></trkpt><trkpt lat="39.40327870046923" lon="9.209347311823791"><ele>272.0</ele><time>2026-04-09T09:19:07.002Z</time></trkpt><trkpt lat="39.40339672880191" lon="9.209372732702958"><ele>272.0</ele><time>2026-04-09T09:19:08.002Z</time></trkpt><trkpt lat="39.403510557850396" lon="9.20939023746722"><ele>272.0</ele><time>2026-04-09T09:19:09.002Z</time></trkpt><trkpt lat="39.403624046140365" lon="9.209393874049649"><ele>272.0</ele><time>2026-04-09T09:19:10.002Z</time></trkpt><trkpt lat="39.40373641211444" lon="9.209403283044706"><ele>272.0</ele><time>2026-04-09T09:19:11.002Z</time></trkpt><trkpt lat="39.40385552664612" lon="9.20942072198555"><ele>270.5</ele><time>2026-04-09T09:19:12.002Z</time></trkpt><trkpt lat="39.40397938066395" lon="9.209425558442454"><ele>269.0</ele><time>2026-04-09T09:19:13.002Z</time></trkpt><trkpt lat="39.404099132219514" lon="9.209436728254323"><ele>267.5</ele><time>2026-04-09T09:19:14.002Z</time></trkpt><trkpt lat="39.404214919948075" lon="9.209449050324817"><ele>266.0</ele><time>2026-04-09T09:19:15.002Z</time></trkpt><trkpt lat="39.404344451954636" lon="9.209435734304048"><ele>266.0</ele><time>2026-04-09T09:19:16.002Z</time></trkpt><trkpt lat="39.404458127264576" lon="9.20942789309804"><ele>266.0</ele><time>2026-04-09T09:19:17.002Z</time></trkpt><trkpt lat="39.404576387143024" lon="9.209418389580183"><ele>266.0</ele><time>2026-04-09T09:19:18.002Z</time></trkpt><trkpt lat="39.404683397533944" lon="9.209400975024591"><ele>266.0</ele><time>2026-04-09T09:19:19.002Z</time></trkpt><trkpt lat="39.40477814309688" lon="9.209383920240882"><ele>266.0</ele><time>2026-04-09T09:19:20.002Z</time></trkpt><trkpt lat="39.404867007382826" lon="9.209347859530821"><ele>265.75</ele><time>2026-04-09T09:19:21.002Z</time></trkpt><trkpt lat="39.40496672004441" lon="9.20930493071671"><ele>265.5</ele><time>2026-04-09T09:19:22.003Z</time></trkpt><trkpt lat="39.40508198021516" lon="9.209255548729129"><ele>265.25</ele><time>2026-04-09T09:19:23.003Z</time></trkpt><trkpt lat="39.40521377802129" lon="9.209196678997838"><ele>265.0</ele><time>2026-04-09T09:19:24.003Z</time></trkpt><trkpt lat="39.40533465871726" lon="9.209145853665499"><ele>265.0</ele><time>2026-04-09T09:19:25.003Z</time></trkpt><trkpt lat="39.40545013082065" lon="9.209075339987065"><ele>265.0</ele><time>2026-04-09T09:19:26.003Z</time></trkpt><trkpt lat="39.405561959718746" lon="9.208997066503231"><ele>265.0</ele><time>2026-04-09T09:19:27.003Z</time></trkpt><trkpt lat="39.40567137566908" lon="9.208933903445516"><ele>265.0</ele><time>2026-04-09T09:19:28.003Z</time></trkpt><trkpt lat="39.405778672483216" lon="9.208890185938156"><ele>266.4</ele><time>2026-04-09T09:19:29.003Z</time></trkpt><trkpt lat="39.40586966647345" lon="9.208836951050497"><ele>267.8</ele><time>2026-04-09T09:19:30.003Z</time></trkpt><trkpt lat="39.405967682470354" lon="9.208758525733026"><ele>269.2</ele><time>2026-04-09T09:19:31Z</time></trkpt><trkpt lat="39.40606422018309" lon="9.208681928796992"><ele>270.6</ele><time>2026-04-09T09:19:32Z</time></trkpt><trkpt lat="39.40615847550726" lon="9.208595534961987"><ele>272.0</ele><time>2026-04-09T09:19:33Z</time></trkpt><trkpt lat="39.40625003636881" lon="9.208509242698653"><ele>268.75</ele><time>2026-04-09T09:19:34Z</time></trkpt><trkpt lat="39.40634311153175" lon="9.208425549899333"><ele>265.5</ele><time>2026-04-09T09:19:35Z</time></trkpt><trkpt lat="39.40643514579056" lon="9.2083401282049"><ele>262.25</ele><time>2026-04-09T09:19:36Z</time></trkpt><trkpt lat="39.40652229033375" lon="9.208260916138064"><ele>259.0</ele><time>2026-04-09T09:19:37Z</time></trkpt><trkpt lat="39.406624260878374" lon="9.20817081934104"><ele>262.0</ele><time>2026-04-09T09:19:38Z</time></trkpt><trkpt lat="39.4067261269253" lon="9.208073017141594"><ele>265.0</ele><time>2026-04-09T09:19:39Z</time></trkpt><trkpt lat="39.406817719709835" lon="9.207964719662993"><ele>268.0</ele><time>2026-04-09T09:19:40Z</time></trkpt><trkpt lat="39.406893478911925" lon="9.207858578455353"><ele>271.0</ele><time>2026-04-09T09:19:41Z</time></trkpt><trkpt lat="39.406959157850984" lon="9.207770240915465"><ele>271.0</ele><time>2026-04-09T09:19:42Z</time></trkpt><trkpt lat="39.40701671276421" lon="9.20769443494652"><ele>271.0</ele><time>2026-04-09T09:19:43Z</time></trkpt><trkpt lat="39.40706499351355" lon="9.20763158166927"><ele>271.0</ele><time>2026-04-09T09:19:44Z</time></trkpt><trkpt lat="39.407141873193595" lon="9.20753421561744"><ele>271.0</ele><time>2026-04-09T09:19:46Z</time></trkpt><trkpt lat="39.40721288466765" lon="9.207467059247708"><ele>271.0</ele><time>2026-04-09T09:19:48Z</time></trkpt><trkpt lat="39.40728412983937" lon="9.207524015457237"><ele>271.0</ele><time>2026-04-09T09:19:50Z</time></trkpt><trkpt lat="39.40733714720873" lon="9.207625067331206"><ele>268.66666666666663</ele><time>2026-04-09T09:19:52Z</time></trkpt><trkpt lat="39.40741733653601" lon="9.207692924713779"><ele>266.3333333333333</ele><time>2026-04-09T09:19:54.001Z</time></trkpt><trkpt lat="39.40751287825042" lon="9.207740176706436"><ele>264.0</ele><time>2026-04-09T09:19:56.001Z</time></trkpt><trkpt lat="39.407576241329885" lon="9.207740087188515"><ele>261.6666666666667</ele><time>2026-04-09T09:19:57.001Z</time></trkpt><trkpt lat="39.40764691813641" lon="9.207724811392008"><ele>259.33333333333337</ele><time>2026-04-09T09:19:58.001Z</time></trkpt><trkpt lat="39.40771153776607" lon="9.207680644070592"><ele>257.0</ele><time>2026-04-09T09:19:59.001Z</time></trkpt><trkpt lat="39.407773772993515" lon="9.207625750435033"><ele>257.0</ele><time>2026-04-09T09:20:00.001Z</time></trkpt><trkpt lat="39.40782461865092" lon="9.207576987062604"><ele>257.0</ele><time>2026-04-09T09:20:01.001Z</time></trkpt><trkpt lat="39.40787853103953" lon="9.20752840764281"><ele>257.0</ele><time>2026-04-09T09:20:02.001Z</time></trkpt><trkpt lat="39.40795656140361" lon="9.207458640579409"><ele>257.0</ele><time>2026-04-09T09:20:04.001Z</time></trkpt><trkpt lat="39.40801326149358" lon="9.207410785963617"><ele>257.0</ele><time>2026-04-09T09:20:06.001Z</time></trkpt><trkpt lat="39.40807844347101" lon="9.20734912806823"><ele>257.0</ele><time>2026-04-09T09:21:48.001Z</time></trkpt><trkpt lat="39.40820682176757" lon="9.207228059341174"><ele>256.25</ele><time>2026-04-09T09:21:50.001Z</time></trkpt><trkpt lat="39.408302627655054" lon="9.207135028255896"><ele>255.5</ele><time>2026-04-09T09:21:51.001Z</time></trkpt><trkpt lat="39.40838561425569" lon="9.207062981342833"><ele>254.75</ele><time>2026-04-09T09:21:52.001Z</time></trkpt><trkpt lat="39.40849584349777" lon="9.206963605444301"><ele>254.0</ele><time>2026-04-09T09:21:53.001Z</time></trkpt><trkpt lat="39.408602620785494" lon="9.206866278364895"><ele>254.0</ele><time>2026-04-09T09:21:54.001Z</time></trkpt><trkpt lat="39.408708058174746" lon="9.206776001242448"><ele>254.0</ele><time>2026-04-09T09:21:55.001Z</time></trkpt><trkpt lat="39.40880834263619" lon="9.206683690370483"><ele>254.0</ele><time>2026-04-09T09:21:56.001Z</time></trkpt><trkpt lat="39.408911594691354" lon="9.206592939650012"><ele>254.0</ele><time>2026-04-09T09:21:57.001Z</time></trkpt><trkpt lat="39.40902578955269" lon="9.206491855824073"><ele>254.6</ele><time>2026-04-09T09:21:58.001Z</time></trkpt><trkpt lat="39.40913213719976" lon="9.20639801695815"><ele>255.2</ele><time>2026-04-09T09:21:59.001Z</time></trkpt><trkpt lat="39.40922134465115" lon="9.206319430054851"><ele>255.79999999999998</ele><time>2026-04-09T09:22:00.001Z</time></trkpt><trkpt lat="39.409305570210705" lon="9.206251759852453"><ele>256.4</ele><time>2026-04-09T09:22:01.001Z</time></trkpt><trkpt lat="39.40940138706186" lon="9.206197832053977"><ele>257.0</ele><time>2026-04-09T09:22:02.001Z</time></trkpt><trkpt lat="39.40950025734278" lon="9.206191096887402"><ele>257.0</ele><time>2026-04-09T09:22:03.001Z</time></trkpt><trkpt lat="39.40958352945382" lon="9.206251418192252"><ele>257.0</ele><time>2026-04-09T09:22:04.001Z</time></trkpt><trkpt lat="39.40965541888681" lon="9.206371628671812"><ele>257.0</ele><time>2026-04-09T09:22:05.001Z</time></trkpt><trkpt lat="39.40970161571909" lon="9.206546164560823"><ele>257.0</ele><time>2026-04-09T09:22:06.001Z</time></trkpt><trkpt lat="39.40972408868475" lon="9.206745213858866"><ele>258.75</ele><time>2026-04-09T09:22:07.001Z</time></trkpt><trkpt lat="39.40973882030087" lon="9.206930313033808"><ele>260.5</ele><time>2026-04-09T09:22:08.001Z</time></trkpt><trkpt lat="39.40976190254476" lon="9.207107901767293"><ele>262.25</ele><time>2026-04-09T09:22:09.001Z</time></trkpt><trkpt lat="39.409783763254175" lon="9.207273895272102"><ele>264.0</ele><time>2026-04-09T09:22:10.001Z</time></trkpt><trkpt lat="39.409802789524875" lon="9.207421253455266"><ele>265.2</ele><time>2026-04-09T09:22:11.001Z</time></trkpt><trkpt lat="39.40982542926792" lon="9.20757240911192"><ele>266.4</ele><time>2026-04-09T09:22:12.001Z</time></trkpt><trkpt lat="39.40984770378553" lon="9.207724577966573"><ele>267.6</ele><time>2026-04-09T09:22:13.001Z</time></trkpt><trkpt lat="39.4098658810427" lon="9.207851011190847"><ele>268.8</ele><time>2026-04-09T09:22:14.001Z</time></trkpt><trkpt lat="39.40987703949907" lon="9.207965039601673"><ele>270.0</ele><time>2026-04-09T09:22:15.001Z</time></trkpt><trkpt lat="39.40987844511934" lon="9.208081593157855"><ele>269.5</ele><time>2026-04-09T09:22:16.001Z</time></trkpt><trkpt lat="39.4098492025743" lon="9.208206112620447"><ele>269.0</ele><time>2026-04-09T09:22:17.001Z</time></trkpt><trkpt lat="39.40979267132501" lon="9.208344085183738"><ele>268.5</ele><time>2026-04-09T09:22:18.001Z</time></trkpt><trkpt lat="39.409716118800446" lon="9.208483175911013"><ele>268.0</ele><time>2026-04-09T09:22:19.001Z</time></trkpt><trkpt lat="39.40964555137247" lon="9.208612625833972"><ele>269.75</ele><time>2026-04-09T09:22:20.001Z</time></trkpt><trkpt lat="39.40957294591474" lon="9.208739028474996"><ele>271.5</ele><time>2026-04-09T09:22:21.001Z</time></trkpt><trkpt lat="39.40949484116271" lon="9.20886413350606"><ele>273.25</ele><time>2026-04-09T09:22:22.001Z</time></trkpt><trkpt lat="39.40940522993146" lon="9.208974345249022"><ele>275.0</ele><time>2026-04-09T09:22:23.001Z</time></trkpt><trkpt lat="39.40928102639884" lon="9.209063879622507"><ele>275.0</ele><time>2026-04-09T09:22:24.001Z</time></trkpt><trkpt lat="39.40913916986498" lon="9.209138984691588"><ele>275.0</ele><time>2026-04-09T09:22:25.001Z</time></trkpt><trkpt lat="39.40899996527986" lon="9.20925085813978"><ele>275.0</ele><time>2026-04-09T09:22:26.001Z</time></trkpt><trkpt lat="39.408874892806196" lon="9.209404747475286"><ele>280.0</ele><time>2026-04-09T09:22:27.001Z</time></trkpt><trkpt lat="39.40873865301903" lon="9.209595779480358"><ele>285.0</ele><time>2026-04-09T09:22:28.001Z</time></trkpt><trkpt lat="39.40860087811682" lon="9.209800545693104"><ele>290.0</ele><time>2026-04-09T09:22:29.001Z</time></trkpt><trkpt lat="39.40848177995209" lon="9.21001021426541"><ele>290.0</ele><time>2026-04-09T09:22:30.001Z</time></trkpt><trkpt lat="39.40838346646473" lon="9.210212666058652"><ele>290.0</ele><time>2026-04-09T09:22:31.001Z</time></trkpt><trkpt lat="39.408300738148505" lon="9.210399588927274"><ele>290.0</ele><time>2026-04-09T09:22:32.001Z</time></trkpt><trkpt lat="39.40823274413462" lon="9.210573891709114"><ele>286.6666666666667</ele><time>2026-04-09T09:22:33.001Z</time></trkpt><trkpt lat="39.4081746956264" lon="9.210745216546158"><ele>283.3333333333333</ele><time>2026-04-09T09:22:34.001Z</time></trkpt><trkpt lat="39.408120412958745" lon="9.210944477083913"><ele>280.0</ele><time>2026-04-09T09:22:35.001Z</time></trkpt><trkpt lat="39.408064599774995" lon="9.211158878266783"><ele>280.0</ele><time>2026-04-09T09:22:36.001Z</time></trkpt><trkpt lat="39.40801353319481" lon="9.211356227597582"><ele>280.0</ele><time>2026-04-09T09:22:37.001Z</time></trkpt><trkpt lat="39.40797735217246" lon="9.211548728882835"><ele>280.0</ele><time>2026-04-09T09:22:38.001Z</time></trkpt><trkpt lat="39.40796789011187" lon="9.211741892642207"><ele>279.25</ele><time>2026-04-09T09:22:39.001Z</time></trkpt><trkpt lat="39.40798319803596" lon="9.211932992903957"><ele>278.5</ele><time>2026-04-09T09:22:40.001Z</time></trkpt><trkpt lat="39.408019126854896" lon="9.212107718759466"><ele>277.75</ele><time>2026-04-09T09:22:41.001Z</time></trkpt><trkpt lat="39.408056833087095" lon="9.212258247478614"><ele>277.0</ele><time>2026-04-09T09:22:42.001Z</time></trkpt><trkpt lat="39.408074597597995" lon="9.212399693068202"><ele>276.0</ele><time>2026-04-09T09:22:43.001Z</time></trkpt><trkpt lat="39.408051659250184" lon="9.212540978208898"><ele>275.0</ele><time>2026-04-09T09:22:44.001Z</time></trkpt><trkpt lat="39.407987027226255" lon="9.212694298615617"><ele>274.0</ele><time>2026-04-09T09:22:45.001Z</time></trkpt><trkpt lat="39.40788030975551" lon="9.212850898784106"><ele>273.0</ele><time>2026-04-09T09:22:46.002Z</time></trkpt><trkpt lat="39.40774047055135" lon="9.212996503403303"><ele>276.0</ele><time>2026-04-09T09:22:47.002Z</time></trkpt><trkpt lat="39.407587114565786" lon="9.213153509813619"><ele>279.0</ele><time>2026-04-09T09:22:48.002Z</time></trkpt><trkpt lat="39.40742756156732" lon="9.213322380414008"><ele>282.0</ele><time>2026-04-09T09:22:49.002Z</time></trkpt><trkpt lat="39.40727740149974" lon="9.21348513145586"><ele>290.3333333333333</ele><time>2026-04-09T09:22:50.002Z</time></trkpt><trkpt lat="39.40713702755687" lon="9.213634390280014"><ele>298.66666666666663</ele><time>2026-04-09T09:22:51.002Z</time></trkpt><trkpt lat="39.40700292876167" lon="9.213771404479123"><ele>307.0</ele><time>2026-04-09T09:22:52.002Z</time></trkpt><trkpt lat="39.40688580035797" lon="9.213898137568068"><ele>301.25</ele><time>2026-04-09T09:22:53.002Z</time></trkpt><trkpt lat="39.40677229876181" lon="9.214019039138202"><ele>295.5</ele><time>2026-04-09T09:22:54.002Z</time></trkpt><trkpt lat="39.40665660961709" lon="9.214129233721927"><ele>289.75</ele><time>2026-04-09T09:22:55.002Z</time></trkpt><trkpt lat="39.406533391926054" lon="9.214227177375218"><ele>284.0</ele><time>2026-04-09T09:22:56.002Z</time></trkpt><trkpt lat="39.40640265334281" lon="9.214312886722524"><ele>291.6666666666667</ele><time>2026-04-09T09:22:57.002Z</time></trkpt><trkpt lat="39.40625977581443" lon="9.214387899370672"><ele>299.3333333333333</ele><time>2026-04-09T09:22:58.002Z</time></trkpt><trkpt lat="39.406124353856214" lon="9.214474799322234"><ele>307.0</ele><time>2026-04-09T09:22:59.002Z</time></trkpt><trkpt lat="39.40599665556401" lon="9.214564449533357"><ele>307.0</ele><time>2026-04-09T09:23:00.002Z</time></trkpt><trkpt lat="39.405879078947066" lon="9.21464411168754"><ele>307.0</ele><time>2026-04-09T09:23:01.002Z</time></trkpt><trkpt lat="39.405785492341664" lon="9.214709668770722"><ele>307.0</ele><time>2026-04-09T09:23:02.002Z</time></trkpt><trkpt lat="39.40571363515783" lon="9.214767701706"><ele>307.0</ele><time>2026-04-09T09:23:03.002Z</time></trkpt><trkpt lat="39.405649035310965" lon="9.21487832553307"><ele>307.0</ele><time>2026-04-09T09:23:05.002Z</time></trkpt><trkpt lat="39.40562033927883" lon="9.2149757767763"><ele>302.2</ele><time>2026-04-09T09:23:07.002Z</time></trkpt><trkpt lat="39.40559306052894" lon="9.215077075020995"><ele>297.4</ele><time>2026-04-09T09:23:09.002Z</time></trkpt><trkpt lat="39.40556208983872" lon="9.215183626894712"><ele>292.6</ele><time>2026-04-09T09:23:11.002Z</time></trkpt><trkpt lat="39.405523394900406" lon="9.215272871538088"><ele>287.8</ele><time>2026-04-09T09:23:13.002Z</time></trkpt><trkpt lat="39.4055413472149" lon="9.215377941237747"><ele>283.0</ele><time>2026-04-09T09:23:15.002Z</time></trkpt><trkpt lat="39.405560922158294" lon="9.215539940999218"><ele>283.0</ele><time>2026-04-09T09:23:17.002Z</time></trkpt><trkpt lat="39.405550481697915" lon="9.215649264362995"><ele>283.0</ele><time>2026-04-09T09:23:18.002Z</time></trkpt><trkpt lat="39.40551683045519" lon="9.21573890582811"><ele>283.0</ele><time>2026-04-09T09:23:19.002Z</time></trkpt><trkpt lat="39.40546048672886" lon="9.215826563875014"><ele>283.0</ele><time>2026-04-09T09:23:20.002Z</time></trkpt><trkpt lat="39.405405957365446" lon="9.215907743631815"><ele>283.0</ele><time>2026-04-09T09:23:21.002Z</time></trkpt><trkpt lat="39.40535095817081" lon="9.215987950798663"><ele>283.0</ele><time>2026-04-09T09:23:22.002Z</time></trkpt><trkpt lat="39.40530263887195" lon="9.216076259686583"><ele>283.4</ele><time>2026-04-09T09:23:23.002Z</time></trkpt><trkpt lat="39.405253515914254" lon="9.216202446413796"><ele>283.8</ele><time>2026-04-09T09:23:25.002Z</time></trkpt><trkpt lat="39.40521492728152" lon="9.21632953059992"><ele>284.2</ele><time>2026-04-09T09:23:27.002Z</time></trkpt><trkpt lat="39.405158350659654" lon="9.216455393683601"><ele>284.6</ele><time>2026-04-09T09:23:29.002Z</time></trkpt><trkpt lat="39.40513713927009" lon="9.216571282962716"><ele>285.0</ele><time>2026-04-09T09:23:31.002Z</time></trkpt><trkpt lat="39.40507872241069" lon="9.21669563195148"><ele>285.0</ele><time>2026-04-09T09:23:33.002Z</time></trkpt><trkpt lat="39.405016574561856" lon="9.216765622252883"><ele>285.0</ele><time>2026-04-09T09:23:34.002Z</time></trkpt><trkpt lat="39.40495268213769" lon="9.216859434135518"><ele>285.0</ele><time>2026-04-09T09:23:35.002Z</time></trkpt><trkpt lat="39.404899698163995" lon="9.216965177819613"><ele>285.0</ele><time>2026-04-09T09:23:36.002Z</time></trkpt><trkpt lat="39.40486812701573" lon="9.21705039230758"><ele>285.0</ele><time>2026-04-09T09:23:37.003Z</time></trkpt><trkpt lat="39.40483844745254" lon="9.217188180614531"><ele>285.0</ele><time>2026-04-09T09:23:39.003Z</time></trkpt><trkpt lat="39.404827684492815" lon="9.217269159261193"><ele>285.0</ele><time>2026-04-09T09:23:40.003Z</time></trkpt><trkpt lat="39.404794654569386" lon="9.217354895564446"><ele>285.0</ele><time>2026-04-09T09:23:41.003Z</time></trkpt><trkpt lat="39.40475188333325" lon="9.217443570373177"><ele>285.0</ele><time>2026-04-09T09:23:42.003Z</time></trkpt><trkpt lat="39.404698198391706" lon="9.217528749475388"><ele>285.0</ele><time>2026-04-09T09:23:43Z</time></trkpt><trkpt lat="39.404624113917414" lon="9.217639673378693"><ele>285.0</ele><time>2026-04-09T09:23:44Z</time></trkpt><trkpt lat="39.40454791558127" lon="9.217733301286335"><ele>288.6</ele><time>2026-04-09T09:23:45Z</time></trkpt><trkpt lat="39.404480476194536" lon="9.217813847765571"><ele>292.2</ele><time>2026-04-09T09:23:46Z</time></trkpt><trkpt lat="39.40440221750536" lon="9.217902037431168"><ele>295.8</ele><time>2026-04-09T09:23:47Z</time></trkpt><trkpt lat="39.40432127464027" lon="9.217983739746273"><ele>299.4</ele><time>2026-04-09T09:23:48Z</time></trkpt><trkpt lat="39.404240006455495" lon="9.21804388479487"><ele>303.0</ele><time>2026-04-09T09:23:49Z</time></trkpt><trkpt lat="39.404157872866996" lon="9.218097554176039"><ele>303.0</ele><time>2026-04-09T09:23:50Z</time></trkpt><trkpt lat="39.4041023424467" lon="9.218146616856743"><ele>303.0</ele><time>2026-04-09T09:23:51Z</time></trkpt><trkpt lat="39.40404802407328" lon="9.218227931644291"><ele>303.0</ele><time>2026-04-09T09:23:52Z</time></trkpt><trkpt lat="39.403990589082476" lon="9.21832354648401"><ele>303.0</ele><time>2026-04-09T09:23:53Z</time></trkpt><trkpt lat="39.40393107696688" lon="9.218404225050552"><ele>303.0</ele><time>2026-04-09T09:23:54Z</time></trkpt><trkpt lat="39.40388200530174" lon="9.218464831597965"><ele>303.0</ele><time>2026-04-09T09:23:55Z</time></trkpt><trkpt lat="39.4038108588992" lon="9.218560480752364"><ele>301.8</ele><time>2026-04-09T09:23:57Z</time></trkpt><trkpt lat="39.40373254045519" lon="9.218651150838037"><ele>300.6</ele><time>2026-04-09T09:23:59Z</time></trkpt><trkpt lat="39.403648560967156" lon="9.218762571408009"><ele>299.4</ele><time>2026-04-09T09:24:01Z</time></trkpt><trkpt lat="39.403579017718876" lon="9.218853929667622"><ele>298.2</ele><time>2026-04-09T09:24:03Z</time></trkpt><trkpt lat="39.40353678840349" lon="9.218937221262452"><ele>297.0</ele><time>2026-04-09T09:24:05Z</time></trkpt><trkpt lat="39.40350500870876" lon="9.219055483952777"><ele>297.0</ele><time>2026-04-09T09:24:07Z</time></trkpt><trkpt lat="39.40349026377987" lon="9.219143901658407"><ele>297.0</ele><time>2026-04-09T09:24:08Z</time></trkpt><trkpt lat="39.40345040968269" lon="9.21923588626688"><ele>297.0</ele><time>2026-04-09T09:24:09Z</time></trkpt><trkpt lat="39.40339674514405" lon="9.21931549390594"><ele>297.0</ele><time>2026-04-09T09:24:10Z</time></trkpt><trkpt lat="39.403342270599914" lon="9.219379559698607"><ele>297.0</ele><time>2026-04-09T09:24:11Z</time></trkpt><trkpt lat="39.40325784611998" lon="9.219479435047568"><ele>297.0</ele><time>2026-04-09T09:24:13Z</time></trkpt><trkpt lat="39.40320581889052" lon="9.219527725146174"><ele>297.0</ele><time>2026-04-09T09:24:14Z</time></trkpt><trkpt lat="39.40314752386035" lon="9.219584373989118"><ele>297.0</ele><time>2026-04-09T09:24:15Z</time></trkpt><trkpt lat="39.40309652667586" lon="9.219634335619288"><ele>297.0</ele><time>2026-04-09T09:24:16Z</time></trkpt><trkpt lat="39.40300611874633" lon="9.219710828331104"><ele>297.0</ele><time>2026-04-09T09:24:18Z</time></trkpt><trkpt lat="39.40291554818132" lon="9.219791314787784"><ele>297.0</ele><time>2026-04-09T09:24:20Z</time></trkpt><trkpt lat="39.40286387710372" lon="9.21986661274299"><ele>297.0</ele><time>2026-04-09T09:24:22Z</time></trkpt><trkpt lat="39.40283173520332" lon="9.219977310049822"><ele>298.14285714285717</ele><time>2026-04-09T09:24:24.001Z</time></trkpt><trkpt lat="39.40280297468993" lon="9.220056853470535"><ele>299.28571428571433</ele><time>2026-04-09T09:24:25.001Z</time></trkpt><trkpt lat="39.402770247141696" lon="9.220139103193626"><ele>300.42857142857144</ele><time>2026-04-09T09:24:26.001Z</time></trkpt><trkpt lat="39.402727874906844" lon="9.22021821003273"><ele>301.57142857142856</ele><time>2026-04-09T09:24:27.001Z</time></trkpt><trkpt lat="39.402692053735564" lon="9.22029845029678"><ele>302.71428571428567</ele><time>2026-04-09T09:24:28.001Z</time></trkpt><trkpt lat="39.40266249138703" lon="9.220382246854609"><ele>303.8571428571429</ele><time>2026-04-09T09:24:29.001Z</time></trkpt><trkpt lat="39.40264049680845" lon="9.22045907525667"><ele>305.0</ele><time>2026-04-09T09:24:30.001Z</time></trkpt><trkpt lat="39.40259219103019" lon="9.22060881568817"><ele>303.0</ele><time>2026-04-09T09:24:32.001Z</time></trkpt><trkpt lat="39.4025486205491" lon="9.220770332431623"><ele>301.0</ele><time>2026-04-09T09:24:34.001Z</time></trkpt><trkpt lat="39.40253332948921" lon="9.220896767962763"><ele>299.0</ele><time>2026-04-09T09:24:36.001Z</time></trkpt><trkpt lat="39.40254909024527" lon="9.220994972358639"><ele>297.0</ele><time>2026-04-09T09:24:39.001Z</time></trkpt><trkpt lat="39.402589786816634" lon="9.221058184112245"><ele>295.0</ele><time>2026-04-09T09:25:24.002Z</time></trkpt><trkpt lat="39.40269064665362" lon="9.22116831788636"><ele>295.00000000000006</ele><time>2026-04-09T09:25:26.002Z</time></trkpt><trkpt lat="39.40275238458011" lon="9.22122191025924"><ele>295.0</ele><time>2026-04-09T09:25:27.002Z</time></trkpt><trkpt lat="39.40280973309567" lon="9.22125665847956"><ele>295.0</ele><time>2026-04-09T09:25:28.002Z</time></trkpt><trkpt lat="39.40287093092158" lon="9.221284720398051"><ele>295.0</ele><time>2026-04-09T09:25:29.002Z</time></trkpt><trkpt lat="39.40294480067038" lon="9.221315708739763"><ele>295.0</ele><time>2026-04-09T09:25:30.002Z</time></trkpt><trkpt lat="39.40299442022171" lon="9.221367814718196"><ele>295.00000000000006</ele><time>2026-04-09T09:25:31.002Z</time></trkpt><trkpt lat="39.403042695068585" lon="9.221437084779268"><ele>295.0</ele><time>2026-04-09T09:25:32.002Z</time></trkpt><trkpt lat="39.40309462369154" lon="9.221528655024017"><ele>297.5</ele><time>2026-04-09T09:25:33.002Z</time></trkpt><trkpt lat="39.40311807320378" lon="9.221612240958207"><ele>300.0</ele><time>2026-04-09T09:25:34.002Z</time></trkpt><trkpt lat="39.40312745037639" lon="9.221701015095395"><ele>302.5</ele><time>2026-04-09T09:25:35.002Z</time></trkpt><trkpt lat="39.40313261059647" lon="9.221816004142184"><ele>305.0</ele><time>2026-04-09T09:25:36.002Z</time></trkpt><trkpt lat="39.40314489457673" lon="9.22192012432017"><ele>307.5</ele><time>2026-04-09T09:25:37.002Z</time></trkpt><trkpt lat="39.40315561633586" lon="9.222017347844021"><ele>310.0</ele><time>2026-04-09T09:25:38.002Z</time></trkpt><trkpt lat="39.403181884832975" lon="9.222116771864421"><ele>310.0</ele><time>2026-04-09T09:25:39.002Z</time></trkpt><trkpt lat="39.40321118348207" lon="9.222212987039343"><ele>310.0</ele><time>2026-04-09T09:25:40.002Z</time></trkpt><trkpt lat="39.40323701683427" lon="9.22231314535549"><ele>310.0</ele><time>2026-04-09T09:25:41.002Z</time></trkpt><trkpt lat="39.40326307478421" lon="9.22241267764146"><ele>310.0</ele><time>2026-04-09T09:25:42.002Z</time></trkpt><trkpt lat="39.4032895592643" lon="9.222490444583874"><ele>310.0</ele><time>2026-04-09T09:25:43.002Z</time></trkpt><trkpt lat="39.40333219378707" lon="9.222556527397757"><ele>310.0</ele><time>2026-04-09T09:25:44.002Z</time></trkpt><trkpt lat="39.403353095584" lon="9.222638081454921"><ele>310.0</ele><time>2026-04-09T09:25:45.002Z</time></trkpt><trkpt lat="39.40338067065818" lon="9.22273861941789"><ele>310.8333333333333</ele><time>2026-04-09T09:25:46.002Z</time></trkpt><trkpt lat="39.40340421445779" lon="9.222826258836477"><ele>311.66666666666663</ele><time>2026-04-09T09:25:47.002Z</time></trkpt><trkpt lat="39.40344084797742" lon="9.222909965085146"><ele>312.5</ele><time>2026-04-09T09:25:48.002Z</time></trkpt><trkpt lat="39.403479321947664" lon="9.22298471331583"><ele>313.3333333333333</ele><time>2026-04-09T09:25:49Z</time></trkpt><trkpt lat="39.40352311343272" lon="9.223061370405157"><ele>314.1666666666667</ele><time>2026-04-09T09:25:50Z</time></trkpt><trkpt lat="39.40358011060173" lon="9.223144893153018"><ele>315.0</ele><time>2026-04-09T09:25:51Z</time></trkpt><trkpt lat="39.40364067979304" lon="9.223224695254931"><ele>316.0</ele><time>2026-04-09T09:25:52Z</time></trkpt><trkpt lat="39.40370546826" lon="9.223301022593313"><ele>317.0</ele><time>2026-04-09T09:25:53Z</time></trkpt><trkpt lat="39.403766920183095" lon="9.22338353090011"><ele>318.0</ele><time>2026-04-09T09:25:54Z</time></trkpt><trkpt lat="39.40381014904267" lon="9.223454350566682"><ele>319.0</ele><time>2026-04-09T09:25:55Z</time></trkpt><trkpt lat="39.40385419936856" lon="9.223608675095425"><ele>320.0</ele><time>2026-04-09T09:25:57Z</time></trkpt><trkpt lat="39.403839255742554" lon="9.223721159111822"><ele>320.0</ele><time>2026-04-09T09:25:59Z</time></trkpt><trkpt lat="39.40376994516855" lon="9.223781149713204"><ele>320.0</ele><time>2026-04-09T09:26:01Z</time></trkpt><trkpt lat="39.40365010890751" lon="9.223773957716881"><ele>320.0</ele><time>2026-04-09T09:26:03Z</time></trkpt><trkpt lat="39.403576661044234" lon="9.223752831157391"><ele>320.0</ele><time>2026-04-09T09:26:04Z</time></trkpt><trkpt lat="39.403490884251084" lon="9.223725221367811"><ele>320.0</ele><time>2026-04-09T09:26:05Z</time></trkpt><trkpt lat="39.403411430786086" lon="9.223696386990166"><ele>320.0</ele><time>2026-04-09T09:26:06Z</time></trkpt><trkpt lat="39.40333967139576" lon="9.22365588666196"><ele>320.0</ele><time>2026-04-09T09:26:07Z</time></trkpt><trkpt lat="39.40327395744335" lon="9.223593355912378"><ele>320.0</ele><time>2026-04-09T09:26:08Z</time></trkpt><trkpt lat="39.40322024976108" lon="9.223538798374653"><ele>320.0</ele><time>2026-04-09T09:26:09Z</time></trkpt><trkpt lat="39.403157933341625" lon="9.223515701621226"><ele>320.0</ele><time>2026-04-09T09:26:10Z</time></trkpt><trkpt lat="39.40308807772069" lon="9.223530983809281"><ele>320.0</ele><time>2026-04-09T09:26:11Z</time></trkpt><trkpt lat="39.403029896135905" lon="9.22358316760642"><ele>320.0</ele><time>2026-04-09T09:26:12Z</time></trkpt><trkpt lat="39.40299140310259" lon="9.223674979303054"><ele>320.0</ele><time>2026-04-09T09:26:13Z</time></trkpt><trkpt lat="39.402966600610576" lon="9.223800256565735"><ele>320.75</ele><time>2026-04-09T09:26:14Z</time></trkpt><trkpt lat="39.402918999182226" lon="9.223943561596448"><ele>321.5</ele><time>2026-04-09T09:26:15Z</time></trkpt><trkpt lat="39.40285484198575" lon="9.224077000895978"><ele>322.25</ele><time>2026-04-09T09:26:16Z</time></trkpt><trkpt lat="39.40279832796018" lon="9.224210903541492"><ele>323.0</ele><time>2026-04-09T09:26:17Z</time></trkpt><trkpt lat="39.40274933518087" lon="9.224333866838283"><ele>323.0</ele><time>2026-04-09T09:26:18Z</time></trkpt><trkpt lat="39.402694147326756" lon="9.224451711425028"><ele>323.0</ele><time>2026-04-09T09:26:19Z</time></trkpt><trkpt lat="39.4026328919776" lon="9.224548943169754"><ele>323.0</ele><time>2026-04-09T09:26:20Z</time></trkpt><trkpt lat="39.40257562357082" lon="9.224637885581437"><ele>323.0</ele><time>2026-04-09T09:26:21Z</time></trkpt><trkpt lat="39.40251976916743" lon="9.22474402597814"><ele>323.0</ele><time>2026-04-09T09:26:22Z</time></trkpt><trkpt lat="39.40247298704123" lon="9.22486968833791"><ele>323.59999999999997</ele><time>2026-04-09T09:26:23Z</time></trkpt><trkpt lat="39.40243307255378" lon="9.224998381989833"><ele>324.2</ele><time>2026-04-09T09:26:24Z</time></trkpt><trkpt lat="39.402384514852315" lon="9.225121875857514"><ele>324.8</ele><time>2026-04-09T09:26:25Z</time></trkpt><trkpt lat="39.4023187984079" lon="9.225216456033001"><ele>325.4</ele><time>2026-04-09T09:26:26Z</time></trkpt><trkpt lat="39.402239133585006" lon="9.225307455564257"><ele>326.0</ele><time>2026-04-09T09:26:27Z</time></trkpt><trkpt lat="39.402164011747125" lon="9.22539096286292"><ele>326.0</ele><time>2026-04-09T09:26:28Z</time></trkpt><trkpt lat="39.40209982216809" lon="9.225472677197493"><ele>326.0</ele><time>2026-04-09T09:26:29Z</time></trkpt><trkpt lat="39.40203417745748" lon="9.225566398382199"><ele>326.0</ele><time>2026-04-09T09:26:30Z</time></trkpt><trkpt lat="39.40197594991783" lon="9.225661663862919"><ele>326.0</ele><time>2026-04-09T09:26:31Z</time></trkpt><trkpt lat="39.40193811125655" lon="9.225757313192402"><ele>326.0</ele><time>2026-04-09T09:26:32Z</time></trkpt><trkpt lat="39.401928578089056" lon="9.225849167701355"><ele>326.0</ele><time>2026-04-09T09:26:33Z</time></trkpt><trkpt lat="39.40193358221917" lon="9.225964384631936"><ele>328.83333333333337</ele><time>2026-04-09T09:26:34.001Z</time></trkpt><trkpt lat="39.40194997965971" lon="9.226106404213544"><ele>331.6666666666667</ele><time>2026-04-09T09:26:35.001Z</time></trkpt><trkpt lat="39.40196317074607" lon="9.226230586202599"><ele>334.5</ele><time>2026-04-09T09:26:36.001Z</time></trkpt><trkpt lat="39.40195366747319" lon="9.226313720155584"><ele>337.3333333333333</ele><time>2026-04-09T09:26:37.001Z</time></trkpt><trkpt lat="39.4019302100494" lon="9.226398715571728"><ele>340.16666666666663</ele><time>2026-04-09T09:26:38.001Z</time></trkpt><trkpt lat="39.401888666048116" lon="9.226482253937462"><ele>343.0</ele><time>2026-04-09T09:26:39.001Z</time></trkpt><trkpt lat="39.40183927270902" lon="9.226556824954608"><ele>346.16666666666663</ele><time>2026-04-09T09:26:40.001Z</time></trkpt><trkpt lat="39.401790622051465" lon="9.22662400279046"><ele>349.3333333333333</ele><time>2026-04-09T09:26:41.001Z</time></trkpt><trkpt lat="39.40173224168709" lon="9.22668000309337"><ele>352.5</ele><time>2026-04-09T09:26:42.001Z</time></trkpt><trkpt lat="39.40166780833274" lon="9.22671363779601"><ele>355.6666666666667</ele><time>2026-04-09T09:26:43.001Z</time></trkpt><trkpt lat="39.401580317668454" lon="9.226748504783332"><ele>358.83333333333337</ele><time>2026-04-09T09:26:44.001Z</time></trkpt><trkpt lat="39.401489297703634" lon="9.226780241836023"><ele>362.0</ele><time>2026-04-09T09:26:45.001Z</time></trkpt><trkpt lat="39.40139538048744" lon="9.226799589673492"><ele>358.40000000000003</ele><time>2026-04-09T09:26:46.001Z</time></trkpt><trkpt lat="39.401306634289" lon="9.226797547984619"><ele>354.8</ele><time>2026-04-09T09:26:47.001Z</time></trkpt><trkpt lat="39.401233398410376" lon="9.226791165145153"><ele>351.2</ele><time>2026-04-09T09:26:48.001Z</time></trkpt><trkpt lat="39.401115215501875" lon="9.226863866535313"><ele>347.6</ele><time>2026-04-09T09:26:50.001Z</time></trkpt><trkpt lat="39.401069500616515" lon="9.226956018307689"><ele>344.0</ele><time>2026-04-09T09:26:51.001Z</time></trkpt><trkpt lat="39.40102843880122" lon="9.227092704384436"><ele>344.0</ele><time>2026-04-09T09:26:52.001Z</time></trkpt><trkpt lat="39.40099725253554" lon="9.227241931851616"><ele>344.0</ele><time>2026-04-09T09:26:53.001Z</time></trkpt><trkpt lat="39.4009674004313" lon="9.227386612375803"><ele>344.0</ele><time>2026-04-09T09:26:54.001Z</time></trkpt><trkpt lat="39.40093536400937" lon="9.227530097642065"><ele>344.0</ele><time>2026-04-09T09:26:55.001Z</time></trkpt><trkpt lat="39.40090942771368" lon="9.227672327637949"><ele>348.0</ele><time>2026-04-09T09:26:56.001Z</time></trkpt><trkpt lat="39.4008815887173" lon="9.227804335763842"><ele>352.0</ele><time>2026-04-09T09:26:57.001Z</time></trkpt><trkpt lat="39.40085810245362" lon="9.227933622112204"><ele>356.0</ele><time>2026-04-09T09:26:58.001Z</time></trkpt><trkpt lat="39.400837449316114" lon="9.22807779320446"><ele>360.0</ele><time>2026-04-09T09:26:59.001Z</time></trkpt><trkpt lat="39.40082049945792" lon="9.22821203188436"><ele>364.0</ele><time>2026-04-09T09:27:00.001Z</time></trkpt><trkpt lat="39.400799806710765" lon="9.228355920240961"><ele>366.0</ele><time>2026-04-09T09:27:01.001Z</time></trkpt><trkpt lat="39.40079748431473" lon="9.228483684388848"><ele>368.0</ele><time>2026-04-09T09:27:02.001Z</time></trkpt><trkpt lat="39.40081423496583" lon="9.228586474650436"><ele>370.0</ele><time>2026-04-09T09:27:03.001Z</time></trkpt><trkpt lat="39.400846190448284" lon="9.228688855972507"><ele>372.0</ele><time>2026-04-09T09:27:04.001Z</time></trkpt><trkpt lat="39.40089688116199" lon="9.228785102309379"><ele>374.0</ele><time>2026-04-09T09:27:05.001Z</time></trkpt><trkpt lat="39.400960735159835" lon="9.228871233083536"><ele>376.0</ele><time>2026-04-09T09:27:06.001Z</time></trkpt><trkpt lat="39.40102996619023" lon="9.228939302755169"><ele>376.16666666666663</ele><time>2026-04-09T09:27:07.001Z</time></trkpt><trkpt lat="39.401092266703905" lon="9.229000960092117"><ele>376.3333333333333</ele><time>2026-04-09T09:27:08.001Z</time></trkpt><trkpt lat="39.401136642385545" lon="9.229060042541484"><ele>376.5</ele><time>2026-04-09T09:27:09.001Z</time></trkpt><trkpt lat="39.40117335735617" lon="9.229131392213514"><ele>376.6666666666667</ele><time>2026-04-09T09:27:10.001Z</time></trkpt><trkpt lat="39.40120373378138" lon="9.229212285627689"><ele>376.83333333333337</ele><time>2026-04-09T09:27:11.001Z</time></trkpt><trkpt lat="39.40121872971128" lon="9.229362300274214"><ele>377.0</ele><time>2026-04-09T09:27:13.001Z</time></trkpt><trkpt lat="39.401205307004155" lon="9.229442836381695"><ele>377.0</ele><time>2026-04-09T09:27:14.001Z</time></trkpt><trkpt lat="39.40117724184921" lon="9.229526051562846"><ele>377.0</ele><time>2026-04-09T09:27:15.001Z</time></trkpt><trkpt lat="39.40113611771477" lon="9.22961898586089"><ele>377.0</ele><time>2026-04-09T09:27:16.001Z</time></trkpt><trkpt lat="39.40107895377454" lon="9.229709748259172"><ele>377.0</ele><time>2026-04-09T09:27:17.001Z</time></trkpt><trkpt lat="39.401016184832145" lon="9.229808307229426"><ele>377.0</ele><time>2026-04-09T09:27:18.001Z</time></trkpt><trkpt lat="39.400953358590534" lon="9.229909626455939"><ele>377.0</ele><time>2026-04-09T09:27:19.001Z</time></trkpt><trkpt lat="39.40089675587989" lon="9.230011083008787"><ele>380.40000000000003</ele><time>2026-04-09T09:27:20.001Z</time></trkpt><trkpt lat="39.40085639903318" lon="9.230086847002895"><ele>383.8</ele><time>2026-04-09T09:27:21.001Z</time></trkpt><trkpt lat="39.40077231993376" lon="9.230225196465486"><ele>387.2</ele><time>2026-04-09T09:27:23.002Z</time></trkpt><trkpt lat="39.40075874127666" lon="9.230332678015111"><ele>390.6</ele><time>2026-04-09T09:27:24.002Z</time></trkpt><trkpt lat="39.400762917376525" lon="9.230457276626547"><ele>394.0</ele><time>2026-04-09T09:27:25.002Z</time></trkpt><trkpt lat="39.40078480766085" lon="9.230607250100606"><ele>394.83333333333337</ele><time>2026-04-09T09:27:26.002Z</time></trkpt><trkpt lat="39.40081057996663" lon="9.230719391986689"><ele>395.6666666666667</ele><time>2026-04-09T09:27:27.002Z</time></trkpt><trkpt lat="39.400834201364326" lon="9.23081993282006"><ele>396.5</ele><time>2026-04-09T09:27:28.002Z</time></trkpt><trkpt lat="39.40085734303599" lon="9.230897050524279"><ele>397.33333333333337</ele><time>2026-04-09T09:27:29.002Z</time></trkpt><trkpt lat="39.40095296551543" lon="9.23100160709449"><ele>398.1666666666667</ele><time>2026-04-09T09:27:31.002Z</time></trkpt><trkpt lat="39.40103116423858" lon="9.231037966097217"><ele>399.0</ele><time>2026-04-09T09:27:32.002Z</time></trkpt><trkpt lat="39.40111224673782" lon="9.231071027202898"><ele>399.0</ele><time>2026-04-09T09:27:33.002Z</time></trkpt><trkpt lat="39.4011931300238" lon="9.231111958360378"><ele>399.0</ele><time>2026-04-09T09:27:34.002Z</time></trkpt><trkpt lat="39.40127202734543" lon="9.23114968097821"><ele>399.0</ele><time>2026-04-09T09:27:35.002Z</time></trkpt><trkpt lat="39.401339811443194" lon="9.231206495893941"><ele>399.0</ele><time>2026-04-09T09:27:36.002Z</time></trkpt><trkpt lat="39.401388370969535" lon="9.23127207472084"><ele>399.0</ele><time>2026-04-09T09:27:37.002Z</time></trkpt><trkpt lat="39.40144929299122" lon="9.231353955862486"><ele>399.0</ele><time>2026-04-09T09:27:38.002Z</time></trkpt><trkpt lat="39.40150374564925" lon="9.231441818534785"><ele>402.6666666666667</ele><time>2026-04-09T09:27:39.002Z</time></trkpt><trkpt lat="39.401553474698495" lon="9.231527406353612"><ele>406.33333333333337</ele><time>2026-04-09T09:27:40.002Z</time></trkpt><trkpt lat="39.4015965314442" lon="9.2316050921137"><ele>410.0</ele><time>2026-04-09T09:27:41.002Z</time></trkpt><trkpt lat="39.401648311993476" lon="9.231698668182966"><ele>413.6666666666667</ele><time>2026-04-09T09:27:42.002Z</time></trkpt><trkpt lat="39.40170001745417" lon="9.231786726897184"><ele>417.33333333333337</ele><time>2026-04-09T09:27:43.002Z</time></trkpt><trkpt lat="39.40174096254468" lon="9.231875895627942"><ele>421.0</ele><time>2026-04-09T09:27:44.002Z</time></trkpt><trkpt lat="39.401772587572474" lon="9.2319846611182"><ele>421.00000000000006</ele><time>2026-04-09T09:27:45.002Z</time></trkpt><trkpt lat="39.401796939017345" lon="9.232087108473852"><ele>421.0</ele><time>2026-04-09T09:27:46.002Z</time></trkpt><trkpt lat="39.40181907618049" lon="9.232189343320389"><ele>421.0</ele><time>2026-04-09T09:27:47.002Z</time></trkpt><trkpt lat="39.4018460691829" lon="9.232300645351904"><ele>421.0</ele><time>2026-04-09T09:27:48.002Z</time></trkpt><trkpt lat="39.40187712063665" lon="9.232409616370209"><ele>421.00000000000006</ele><time>2026-04-09T09:27:49.002Z</time></trkpt><trkpt lat="39.40190545454873" lon="9.232516612686656"><ele>421.0</ele><time>2026-04-09T09:27:50.002Z</time></trkpt><trkpt lat="39.401919597294786" lon="9.232600830638786"><ele>420.6666666666667</ele><time>2026-04-09T09:27:51.002Z</time></trkpt><trkpt lat="39.40191704254572" lon="9.232720424625132"><ele>420.33333333333337</ele><time>2026-04-09T09:27:53.002Z</time></trkpt><trkpt lat="39.40187056634325" lon="9.232821962869414"><ele>420.0</ele><time>2026-04-09T09:27:55Z</time></trkpt><trkpt lat="39.40182057894773" lon="9.232899224019842"><ele>419.66666666666663</ele><time>2026-04-09T09:27:56Z</time></trkpt><trkpt lat="39.401769160351286" lon="9.232990319300855"><ele>419.3333333333333</ele><time>2026-04-09T09:27:57Z</time></trkpt><trkpt lat="39.401731290651" lon="9.233074721481119"><ele>419.0</ele><time>2026-04-09T09:27:58Z</time></trkpt><trkpt lat="39.401711069841895" lon="9.233154160461304"><ele>420.4</ele><time>2026-04-09T09:27:59Z</time></trkpt><trkpt lat="39.40171510060675" lon="9.233313613506464"><ele>421.79999999999995</ele><time>2026-04-09T09:28:01Z</time></trkpt><trkpt lat="39.40174351948967" lon="9.233397595278563"><ele>423.20000000000005</ele><time>2026-04-09T09:28:02Z</time></trkpt><trkpt lat="39.40178812314681" lon="9.233488556719825"><ele>424.6</ele><time>2026-04-09T09:28:03Z</time></trkpt><trkpt lat="39.40184208159782" lon="9.233589101797143"><ele>426.0</ele><time>2026-04-09T09:28:04Z</time></trkpt><trkpt lat="39.40189604508778" lon="9.233687927091772"><ele>426.0</ele><time>2026-04-09T09:28:05Z</time></trkpt><trkpt lat="39.40193598851919" lon="9.233760589742165"><ele>426.0</ele><time>2026-04-09T09:28:06Z</time></trkpt><trkpt lat="39.401991411580155" lon="9.23389044431863"><ele>426.0</ele><time>2026-04-09T09:28:08Z</time></trkpt><trkpt lat="39.401973549973306" lon="9.234072155826022"><ele>426.0</ele><time>2026-04-09T09:28:10Z</time></trkpt><trkpt lat="39.40195909427" lon="9.234182270199732"><ele>426.0</ele><time>2026-04-09T09:28:11Z</time></trkpt><trkpt lat="39.401952567662995" lon="9.23428801000758"><ele>426.3333333333333</ele><time>2026-04-09T09:28:12Z</time></trkpt><trkpt lat="39.401950748943825" lon="9.234401834780945"><ele>426.66666666666663</ele><time>2026-04-09T09:28:13Z</time></trkpt><trkpt lat="39.40195974445128" lon="9.234512259607627"><ele>427.0</ele><time>2026-04-09T09:28:14Z</time></trkpt><trkpt lat="39.40197377757029" lon="9.234626423447121"><ele>427.3333333333333</ele><time>2026-04-09T09:28:15Z</time></trkpt><trkpt lat="39.401994702162725" lon="9.23473695524381"><ele>427.66666666666663</ele><time>2026-04-09T09:28:16Z</time></trkpt><trkpt lat="39.40200064921143" lon="9.234840276765429"><ele>428.0</ele><time>2026-04-09T09:28:17Z</time></trkpt><trkpt lat="39.402006366252934" lon="9.234956968443836"><ele>430.16666666666663</ele><time>2026-04-09T09:28:18Z</time></trkpt><trkpt lat="39.402007001387" lon="9.235086433362591"><ele>432.3333333333333</ele><time>2026-04-09T09:28:19Z</time></trkpt><trkpt lat="39.4020053054991" lon="9.23521924440003"><ele>434.5</ele><time>2026-04-09T09:28:20Z</time></trkpt><trkpt lat="39.402006459302065" lon="9.235337928412939"><ele>436.66666666666663</ele><time>2026-04-09T09:28:21Z</time></trkpt><trkpt lat="39.40202112742451" lon="9.23544896957823"><ele>438.8333333333333</ele><time>2026-04-09T09:28:22Z</time></trkpt><trkpt lat="39.40204970565385" lon="9.235527344622579"><ele>441.0</ele><time>2026-04-09T09:28:23Z</time></trkpt><trkpt lat="39.40207192705811" lon="9.235612320392653"><ele>445.4</ele><time>2026-04-09T09:28:24Z</time></trkpt><trkpt lat="39.40209186420709" lon="9.235760377271427"><ele>449.8</ele><time>2026-04-09T09:28:26Z</time></trkpt><trkpt lat="39.4020398797769" lon="9.235874922568131"><ele>454.19999999999993</ele><time>2026-04-09T09:28:28Z</time></trkpt><trkpt lat="39.401914183509284" lon="9.235913804456771"><ele>458.59999999999997</ele><time>2026-04-09T09:28:30Z</time></trkpt><trkpt lat="39.40181620384983" lon="9.23590660428706"><ele>463.0</ele><time>2026-04-09T09:28:31Z</time></trkpt><trkpt lat="39.40171338933362" lon="9.235884981436262"><ele>463.0</ele><time>2026-04-09T09:28:32Z</time></trkpt><trkpt lat="39.40161481151698" lon="9.235868420819905"><ele>462.99999999999994</ele><time>2026-04-09T09:28:33Z</time></trkpt><trkpt lat="39.401519484108704" lon="9.235840138003361"><ele>462.99999999999994</ele><time>2026-04-09T09:28:34Z</time></trkpt><trkpt lat="39.4014138016653" lon="9.235815426234135"><ele>463.0</ele><time>2026-04-09T09:28:35Z</time></trkpt><trkpt lat="39.401317270585345" lon="9.235790689207505"><ele>463.0</ele><time>2026-04-09T09:28:36Z</time></trkpt><trkpt lat="39.40124100313778" lon="9.235763511027754"><ele>463.00000000000006</ele><time>2026-04-09T09:28:37Z</time></trkpt><trkpt lat="39.401172336451125" lon="9.235745722001775"><ele>463.0</ele><time>2026-04-09T09:28:38Z</time></trkpt><trkpt lat="39.401072415458536" lon="9.235731147229748"><ele>463.0</ele><time>2026-04-09T09:28:40Z</time></trkpt><trkpt lat="39.401011132304475" lon="9.23575130546362"><ele>463.0</ele><time>2026-04-09T09:28:41.001Z</time></trkpt><trkpt lat="39.40095390365373" lon="9.235792224529701"><ele>463.00000000000006</ele><time>2026-04-09T09:28:42.001Z</time></trkpt><trkpt lat="39.40090124330611" lon="9.235853589179786"><ele>463.0</ele><time>2026-04-09T09:28:43.001Z</time></trkpt><trkpt lat="39.400828712227266" lon="9.235965929325115"><ele>463.00000000000006</ele><time>2026-04-09T09:28:45.001Z</time></trkpt><trkpt lat="39.40078618197087" lon="9.236044775052584"><ele>463.0</ele><time>2026-04-09T09:28:47.001Z</time></trkpt><trkpt lat="39.40083607037014" lon="9.236144509428115"><ele>463.0</ele><time>2026-04-09T09:28:50.001Z</time></trkpt><trkpt lat="39.40093200942235" lon="9.23614519945038"><ele>463.0</ele><time>2026-04-09T09:28:52.001Z</time></trkpt><trkpt lat="39.40099297237519" lon="9.236106754430805"><ele>463.00000000000006</ele><time>2026-04-09T09:28:53.001Z</time></trkpt><trkpt lat="39.4010778905188" lon="9.236071576898622"><ele>463.0</ele><time>2026-04-09T09:28:55.001Z</time></trkpt><trkpt lat="39.401190917799155" lon="9.236118805557442"><ele>463.00000000000006</ele><time>2026-04-09T09:28:57.001Z</time></trkpt><trkpt lat="39.40130148295775" lon="9.236190581198175"><ele>463.0</ele><time>2026-04-09T09:28:59.001Z</time></trkpt><trkpt lat="39.401362608812896" lon="9.236225980049761"><ele>463.0</ele><time>2026-04-09T09:29:00.001Z</time></trkpt><trkpt lat="39.401427027441976" lon="9.236263068218888"><ele>463.0</ele><time>2026-04-09T09:29:01.001Z</time></trkpt><trkpt lat="39.401499440023294" lon="9.236307207765721"><ele>463.00000000000006</ele><time>2026-04-09T09:29:02.001Z</time></trkpt><trkpt lat="39.40156843002397" lon="9.236347445210628"><ele>463.0</ele><time>2026-04-09T09:29:03.001Z</time></trkpt><trkpt lat="39.401645494699174" lon="9.236398629240128"><ele>463.0</ele><time>2026-04-09T09:29:04.001Z</time></trkpt><trkpt lat="39.40172607066499" lon="9.236453706940015"><ele>462.99999999999994</ele><time>2026-04-09T09:29:05.001Z</time></trkpt><trkpt lat="39.40180296719096" lon="9.236497671881239"><ele>462.99999999999994</ele><time>2026-04-09T09:29:06.001Z</time></trkpt><trkpt lat="39.40189130600809" lon="9.236532173827655"><ele>463.0</ele><time>2026-04-09T09:29:07.001Z</time></trkpt><trkpt lat="39.40197330635145" lon="9.236564961222417"><ele>463.0</ele><time>2026-04-09T09:29:08.001Z</time></trkpt><trkpt lat="39.40206529741038" lon="9.236605495187963"><ele>468.2</ele><time>2026-04-09T09:29:09.001Z</time></trkpt><trkpt lat="39.40214145673348" lon="9.23664303880202"><ele>473.4</ele><time>2026-04-09T09:29:10.001Z</time></trkpt><trkpt lat="39.40223555206208" lon="9.236679371367046"><ele>478.59999999999997</ele><time>2026-04-09T09:29:11.001Z</time></trkpt><trkpt lat="39.40231434838447" lon="9.236719053571571"><ele>483.79999999999995</ele><time>2026-04-09T09:29:12.001Z</time></trkpt><trkpt lat="39.4023999026122" lon="9.236758006950787"><ele>489.0</ele><time>2026-04-09T09:29:13.001Z</time></trkpt><trkpt lat="39.40250856918054" lon="9.236794740500416"><ele>490.6</ele><time>2026-04-09T09:29:15.001Z</time></trkpt><trkpt lat="39.40260715931333" lon="9.236714020682854"><ele>492.2</ele><time>2026-04-09T09:29:17.001Z</time></trkpt><trkpt lat="39.402634604668144" lon="9.236576941208027"><ele>493.80000000000007</ele><time>2026-04-09T09:29:19.001Z</time></trkpt><trkpt lat="39.40264113857019" lon="9.236427091091349"><ele>495.40000000000003</ele><time>2026-04-09T09:29:21.001Z</time></trkpt><trkpt lat="39.402655166941145" lon="9.236337496608993"><ele>497.0</ele><time>2026-04-09T09:29:23.001Z</time></trkpt><trkpt lat="39.402691187251314" lon="9.236228321386148"><ele>493.8</ele><time>2026-04-09T09:29:26.001Z</time></trkpt><trkpt lat="39.40272715513398" lon="9.236145904506747"><ele>490.6</ele><time>2026-04-09T09:29:28.002Z</time></trkpt><trkpt lat="39.40276433780841" lon="9.236054994635452"><ele>487.40000000000003</ele><time>2026-04-09T09:29:30.002Z</time></trkpt><trkpt lat="39.402810096448164" lon="9.235967222075695"><ele>484.20000000000005</ele><time>2026-04-09T09:29:32.002Z</time></trkpt><trkpt lat="39.402869958664795" lon="9.235824659700617"><ele>481.0</ele><time>2026-04-09T09:29:34.002Z</time></trkpt><trkpt lat="39.402919755506794" lon="9.23569704269211"><ele>479.4</ele><time>2026-04-09T09:29:36.002Z</time></trkpt><trkpt lat="39.40296940844784" lon="9.235562116175293"><ele>477.8</ele><time>2026-04-09T09:29:38.002Z</time></trkpt><trkpt lat="39.40302000082174" lon="9.235440727028816"><ele>476.19999999999993</ele><time>2026-04-09T09:29:40.002Z</time></trkpt><trkpt lat="39.4030688382809" lon="9.23532012279009"><ele>474.59999999999997</ele><time>2026-04-09T09:29:42.002Z</time></trkpt><trkpt lat="39.4030839971158" lon="9.235237995441498"><ele>473.0</ele><time>2026-04-09T09:29:43.002Z</time></trkpt><trkpt lat="39.40309499824982" lon="9.23514690409101"><ele>476.3333333333333</ele><time>2026-04-09T09:29:44.002Z</time></trkpt><trkpt lat="39.40310531796626" lon="9.235051890922149"><ele>479.66666666666663</ele><time>2026-04-09T09:29:45.002Z</time></trkpt><trkpt lat="39.40311593464188" lon="9.234952714693579"><ele>483.0</ele><time>2026-04-09T09:29:46.002Z</time></trkpt><trkpt lat="39.403152586656596" lon="9.234823236005699"><ele>486.33333333333337</ele><time>2026-04-09T09:29:48.002Z</time></trkpt><trkpt lat="39.40321786311572" lon="9.234741897976516"><ele>489.6666666666667</ele><time>2026-04-09T09:29:50.002Z</time></trkpt><trkpt lat="39.40330443139425" lon="9.234759969519095"><ele>493.0</ele><time>2026-04-09T09:29:52.002Z</time></trkpt><trkpt lat="39.40335910758365" lon="9.234829839241467"><ele>494.2</ele><time>2026-04-09T09:29:54.002Z</time></trkpt><trkpt lat="39.403310135814195" lon="9.234985313813816"><ele>495.4</ele><time>2026-04-09T09:29:55.002Z</time></trkpt><trkpt lat="39.403294899605626" lon="9.23510763143069"><ele>496.59999999999997</ele><time>2026-04-09T09:29:56.002Z</time></trkpt><trkpt lat="39.40328145781987" lon="9.235242569678062"><ele>497.79999999999995</ele><time>2026-04-09T09:29:57.002Z</time></trkpt><trkpt lat="39.40327737444208" lon="9.235359740414133"><ele>499.0</ele><time>2026-04-09T09:29:58.002Z</time></trkpt><trkpt lat="39.403268294287294" lon="9.235474412621453"><ele>499.00000000000006</ele><time>2026-04-09T09:29:59.002Z</time></trkpt><trkpt lat="39.40327927860506" lon="9.235576737483003"><ele>499.0</ele><time>2026-04-09T09:30:00.002Z</time></trkpt><trkpt lat="39.40328998754037" lon="9.235675297691813"><ele>499.0</ele><time>2026-04-09T09:30:00.999Z</time></trkpt><trkpt lat="39.403275278711504" lon="9.235775297839094"><ele>499.0</ele><time>2026-04-09T09:30:01.999Z</time></trkpt><trkpt lat="39.403253699652396" lon="9.235869467138901"><ele>499.00000000000006</ele><time>2026-04-09T09:30:02.999Z</time></trkpt><trkpt lat="39.40324560917425" lon="9.235985368396737"><ele>499.0</ele><time>2026-04-09T09:30:03.999Z</time></trkpt><trkpt lat="39.40320660303452" lon="9.236086176241388"><ele>500.6666666666667</ele><time>2026-04-09T09:30:04.999Z</time></trkpt><trkpt lat="39.40318065045736" lon="9.236200662405187"><ele>502.33333333333337</ele><time>2026-04-09T09:30:05.999Z</time></trkpt><trkpt lat="39.40316417192584" lon="9.236314465888455"><ele>504.0</ele><time>2026-04-09T09:30:06.999Z</time></trkpt><trkpt lat="39.40318202548658" lon="9.236425852979254"><ele>505.66666666666663</ele><time>2026-04-09T09:30:07.999Z</time></trkpt><trkpt lat="39.40319756144304" lon="9.23653729834144"><ele>507.3333333333333</ele><time>2026-04-09T09:30:08.999Z</time></trkpt><trkpt lat="39.40319778907422" lon="9.236652920641854"><ele>509.0</ele><time>2026-04-09T09:30:09.999Z</time></trkpt><trkpt lat="39.40317537964316" lon="9.236777759909069"><ele>511.6</ele><time>2026-04-09T09:30:10.999Z</time></trkpt><trkpt lat="39.40317168412312" lon="9.236903237510464"><ele>514.2</ele><time>2026-04-09T09:30:11.999Z</time></trkpt><trkpt lat="39.40319080183076" lon="9.23702763965795"><ele>516.8000000000001</ele><time>2026-04-09T09:30:12.999Z</time></trkpt><trkpt lat="39.40318742368347" lon="9.237145631871503"><ele>519.4</ele><time>2026-04-09T09:30:13.999Z</time></trkpt><trkpt lat="39.403195654120694" lon="9.237266500345415"><ele>522.0</ele><time>2026-04-09T09:30:14.999Z</time></trkpt><trkpt lat="39.40317502157808" lon="9.237386953087368"><ele>521.8333333333334</ele><time>2026-04-09T09:30:15.999Z</time></trkpt><trkpt lat="39.40316580256626" lon="9.237496289796152"><ele>521.6666666666666</ele><time>2026-04-09T09:30:16.999Z</time></trkpt><trkpt lat="39.403153342298495" lon="9.237580627274767"><ele>521.5</ele><time>2026-04-09T09:30:17.999Z</time></trkpt><trkpt lat="39.40308827609449" lon="9.237687270991454"><ele>521.3333333333333</ele><time>2026-04-09T09:30:19.999Z</time></trkpt><trkpt lat="39.402978574645694" lon="9.237657780244632"><ele>521.1666666666666</ele><time>2026-04-09T09:30:22Z</time></trkpt><trkpt lat="39.402900183375245" lon="9.237655334766437"><ele>521.0</ele><time>2026-04-09T09:30:23Z</time></trkpt><trkpt lat="39.40280491423558" lon="9.237656234909762"><ele>521.0</ele><time>2026-04-09T09:30:24Z</time></trkpt><trkpt lat="39.402718665580245" lon="9.237667714209831"><ele>521.0</ele><time>2026-04-09T09:30:25Z</time></trkpt><trkpt lat="39.40262897963701" lon="9.2376885297816"><ele>521.0</ele><time>2026-04-09T09:30:26Z</time></trkpt><trkpt lat="39.40252076956036" lon="9.237728737520294"><ele>521.0</ele><time>2026-04-09T09:30:27Z</time></trkpt><trkpt lat="39.402409094708055" lon="9.237772585930054"><ele>521.0</ele><time>2026-04-09T09:30:28Z</time></trkpt><trkpt lat="39.402289414905006" lon="9.237819900195559"><ele>521.0</ele><time>2026-04-09T09:30:29Z</time></trkpt><trkpt lat="39.40216671363364" lon="9.237870616569486"><ele>521.0</ele><time>2026-04-09T09:30:30Z</time></trkpt><trkpt lat="39.40203216827399" lon="9.237934019273109"><ele>521.0</ele><time>2026-04-09T09:30:31Z</time></trkpt><trkpt lat="39.401907137928795" lon="9.237990453898773"><ele>521.0</ele><time>2026-04-09T09:30:32Z</time></trkpt><trkpt lat="39.40179610284122" lon="9.23803373653415"><ele>520.6</ele><time>2026-04-09T09:30:33Z</time></trkpt><trkpt lat="39.40169366970772" lon="9.238041928380047"><ele>520.2</ele><time>2026-04-09T09:30:34Z</time></trkpt><trkpt lat="39.401594606712514" lon="9.238060111829707"><ele>519.8</ele><time>2026-04-09T09:30:35Z</time></trkpt><trkpt lat="39.401496929110046" lon="9.238072364243562"><ele>519.4</ele><time>2026-04-09T09:30:36Z</time></trkpt><trkpt lat="39.40139331852625" lon="9.238104132516401"><ele>519.0</ele><time>2026-04-09T09:30:37Z</time></trkpt><trkpt lat="39.40128519631976" lon="9.238102266578322"><ele>517.3333333333334</ele><time>2026-04-09T09:30:38Z</time></trkpt><trkpt lat="39.401192559905034" lon="9.238118222233302"><ele>515.6666666666666</ele><time>2026-04-09T09:30:39Z</time></trkpt><trkpt lat="39.401103065715006" lon="9.238134130216038"><ele>514.0</ele><time>2026-04-09T09:30:40Z</time></trkpt><trkpt lat="39.401030334020284" lon="9.238174138292152"><ele>512.3333333333333</ele><time>2026-04-09T09:30:41Z</time></trkpt><trkpt lat="39.400960756706425" lon="9.23822288367289"><ele>510.66666666666663</ele><time>2026-04-09T09:30:42Z</time></trkpt><trkpt lat="39.40089661859816" lon="9.23828727794455"><ele>509.0</ele><time>2026-04-09T09:30:43Z</time></trkpt><trkpt lat="39.40083690726523" lon="9.238368332331751"><ele>514.5</ele><time>2026-04-09T09:30:44Z</time></trkpt><trkpt lat="39.400782088014125" lon="9.238454106745774"><ele>520.0</ele><time>2026-04-09T09:30:45Z</time></trkpt><trkpt lat="39.40072224400199" lon="9.23853524804795"><ele>525.5</ele><time>2026-04-09T09:30:46Z</time></trkpt><trkpt lat="39.40066971975768" lon="9.238630782258184"><ele>531.0</ele><time>2026-04-09T09:30:47Z</time></trkpt><trkpt lat="39.400622118738326" lon="9.238717393118662"><ele>536.5</ele><time>2026-04-09T09:30:48Z</time></trkpt><trkpt lat="39.40058500244051" lon="9.238807754049056"><ele>542.0</ele><time>2026-04-09T09:30:49Z</time></trkpt><trkpt lat="39.40053819393492" lon="9.23891942352335"><ele>545.5</ele><time>2026-04-09T09:30:50Z</time></trkpt><trkpt lat="39.40048877650788" lon="9.239012647405769"><ele>549.0</ele><time>2026-04-09T09:30:51Z</time></trkpt><trkpt lat="39.40047649903106" lon="9.239126613679986"><ele>552.5</ele><time>2026-04-09T09:30:52Z</time></trkpt><trkpt lat="39.40046927540715" lon="9.239222327358792"><ele>556.0</ele><time>2026-04-09T09:30:53Z</time></trkpt><trkpt lat="39.40049016447934" lon="9.23932137397201"><ele>559.5</ele><time>2026-04-09T09:30:54Z</time></trkpt><trkpt lat="39.40052336675565" lon="9.239437067223394"><ele>563.0</ele><time>2026-04-09T09:30:55Z</time></trkpt><trkpt lat="39.40056071773114" lon="9.239563696717877"><ele>563.0</ele><time>2026-04-09T09:30:56Z</time></trkpt><trkpt lat="39.400592623980415" lon="9.239690147702387"><ele>563.0</ele><time>2026-04-09T09:30:57Z</time></trkpt><trkpt lat="39.4006196687754" lon="9.239810525798987"><ele>563.0</ele><time>2026-04-09T09:30:58Z</time></trkpt><trkpt lat="39.40064920477752" lon="9.239939881746597"><ele>563.0</ele><time>2026-04-09T09:30:59Z</time></trkpt><trkpt lat="39.40069782982573" lon="9.240061588283485"><ele>563.0</ele><time>2026-04-09T09:31:00.001Z</time></trkpt><trkpt lat="39.4007214474644" lon="9.240194460295632"><ele>562.0</ele><time>2026-04-09T09:31:01.001Z</time></trkpt><trkpt lat="39.40076397684318" lon="9.240311617391283"><ele>561.0</ele><time>2026-04-09T09:31:02.001Z</time></trkpt><trkpt lat="39.400809782340744" lon="9.240430437983273"><ele>560.0</ele><time>2026-04-09T09:31:03.001Z</time></trkpt><trkpt lat="39.40085494385686" lon="9.24055359155262"><ele>559.0</ele><time>2026-04-09T09:31:04.001Z</time></trkpt><trkpt lat="39.40090606162796" lon="9.24066151505492"><ele>558.0</ele><time>2026-04-09T09:31:05.001Z</time></trkpt><trkpt lat="39.400946616595554" lon="9.240742091225158"><ele>558.0</ele><time>2026-04-09T09:31:06.001Z</time></trkpt><trkpt lat="39.40100664120066" lon="9.240828460937239"><ele>558.0</ele><time>2026-04-09T09:31:08.001Z</time></trkpt><trkpt lat="39.401085711503114" lon="9.240865140658807"><ele>558.0</ele><time>2026-04-09T09:31:10.001Z</time></trkpt><trkpt lat="39.40111813581172" lon="9.240795050866236"><ele>558.0</ele><time>2026-04-09T09:31:11.001Z</time></trkpt><trkpt lat="39.401097811049134" lon="9.240641392958418"><ele>558.0</ele><time>2026-04-09T09:31:13.001Z</time></trkpt><trkpt lat="39.40107704218853" lon="9.240538574604328"><ele>558.0</ele><time>2026-04-09T09:31:14.001Z</time></trkpt><trkpt lat="39.401046567178284" lon="9.24043927207709"><ele>560.1999999999999</ele><time>2026-04-09T09:31:15.001Z</time></trkpt><trkpt lat="39.40103563209393" lon="9.240272651386192"><ele>562.4</ele><time>2026-04-09T09:31:17.001Z</time></trkpt><trkpt lat="39.401030707927" lon="9.240136763427978"><ele>564.5999999999999</ele><time>2026-04-09T09:31:19.001Z</time></trkpt><trkpt lat="39.4010271294331" lon="9.239985974573012"><ele>566.8</ele><time>2026-04-09T09:31:21.001Z</time></trkpt><trkpt lat="39.401026356249716" lon="9.239888475537112"><ele>569.0</ele><time>2026-04-09T09:31:23.001Z</time></trkpt><trkpt lat="39.40109224989981" lon="9.23985204632481"><ele>569.0</ele><time>2026-04-09T09:31:26.001Z</time></trkpt><trkpt lat="39.40115083802466" lon="9.23994458381499"><ele>569.0</ele><time>2026-04-09T09:31:28.001Z</time></trkpt><trkpt lat="39.40113021163304" lon="9.240055982708002"><ele>569.0</ele><time>2026-04-09T09:31:29.001Z</time></trkpt><trkpt lat="39.40116944097412" lon="9.240169613588733"><ele>569.0</ele><time>2026-04-09T09:31:30.001Z</time></trkpt><trkpt lat="39.40119401224328" lon="9.24027171235697"><ele>569.0</ele><time>2026-04-09T09:31:31.001Z</time></trkpt><trkpt lat="39.401232528626814" lon="9.24034934539457"><ele>569.0</ele><time>2026-04-09T09:31:32.001Z</time></trkpt><trkpt lat="39.401282071898315" lon="9.240426484977304"><ele>572.4285714285714</ele><time>2026-04-09T09:31:33.001Z</time></trkpt><trkpt lat="39.401333583140435" lon="9.240500324975669"><ele>575.8571428571429</ele><time>2026-04-09T09:31:34.001Z</time></trkpt><trkpt lat="39.40137363416051" lon="9.240566457848312"><ele>579.2857142857142</ele><time>2026-04-09T09:31:35.001Z</time></trkpt><trkpt lat="39.401419488796655" lon="9.240636403640647"><ele>582.7142857142858</ele><time>2026-04-09T09:31:36.001Z</time></trkpt><trkpt lat="39.401472266900086" lon="9.240703369279569"><ele>586.1428571428571</ele><time>2026-04-09T09:31:37.001Z</time></trkpt><trkpt lat="39.40153101523442" lon="9.24075966445229"><ele>589.5714285714286</ele><time>2026-04-09T09:31:38.001Z</time></trkpt><trkpt lat="39.40159449029052" lon="9.240810367690308"><ele>593.0</ele><time>2026-04-09T09:31:39.001Z</time></trkpt><trkpt lat="39.40165942507805" lon="9.240880149620011"><ele>593.0</ele><time>2026-04-09T09:31:40.001Z</time></trkpt><trkpt lat="39.401737758031906" lon="9.24093729515095"><ele>593.0</ele><time>2026-04-09T09:31:41.001Z</time></trkpt><trkpt lat="39.40182612223199" lon="9.240995926366772"><ele>593.0</ele><time>2026-04-09T09:31:42.002Z</time></trkpt><trkpt lat="39.40191619367307" lon="9.241051892256541"><ele>593.0</ele><time>2026-04-09T09:31:43.002Z</time></trkpt><trkpt lat="39.401977020899054" lon="9.241118351367506"><ele>593.0</ele><time>2026-04-09T09:31:44.002Z</time></trkpt><trkpt lat="39.4020479438738" lon="9.241156797989236"><ele>593.0</ele><time>2026-04-09T09:31:45.002Z</time></trkpt><trkpt lat="39.40215147429178" lon="9.241258335258463"><ele>598.0</ele><time>2026-04-09T09:31:47.002Z</time></trkpt><trkpt lat="39.40221069015208" lon="9.241334319502263"><ele>603.0</ele><time>2026-04-09T09:31:48.002Z</time></trkpt><trkpt lat="39.40225499567813" lon="9.241396179028156"><ele>608.0</ele><time>2026-04-09T09:31:49.002Z</time></trkpt><trkpt lat="39.40228378838854" lon="9.241525081482072"><ele>613.0</ele><time>2026-04-09T09:31:51.002Z</time></trkpt><trkpt lat="39.402294688664945" lon="9.241685293869791"><ele>618.0</ele><time>2026-04-09T09:31:53.002Z</time></trkpt><trkpt lat="39.402293947998935" lon="9.241779356482208"><ele>623.0</ele><time>2026-04-09T09:31:54.002Z</time></trkpt><trkpt lat="39.4022748792322" lon="9.241883097112344"><ele>623.0</ele><time>2026-04-09T09:31:55.002Z</time></trkpt><trkpt lat="39.40226718537759" lon="9.241978672128214"><ele>623.0</ele><time>2026-04-09T09:31:56.002Z</time></trkpt><trkpt lat="39.40225447800938" lon="9.24206622524703"><ele>623.0</ele><time>2026-04-09T09:31:57.002Z</time></trkpt><trkpt lat="39.40225164882678" lon="9.24215066465526"><ele>623.0</ele><time>2026-04-09T09:31:58.002Z</time></trkpt><trkpt lat="39.402230852131936" lon="9.242247180863195"><ele>623.0</ele><time>2026-04-09T09:31:59.002Z</time></trkpt><trkpt lat="39.40221048014393" lon="9.242345943029507"><ele>623.0</ele><time>2026-04-09T09:32:00.002Z</time></trkpt><trkpt lat="39.402207387967316" lon="9.242525334048285"><ele>624.6666666666666</ele><time>2026-04-09T09:32:02.002Z</time></trkpt><trkpt lat="39.40220822397921" lon="9.242629817132839"><ele>626.3333333333333</ele><time>2026-04-09T09:32:03.002Z</time></trkpt><trkpt lat="39.40220279443372" lon="9.242743807717247"><ele>628.0</ele><time>2026-04-09T09:32:04.002Z</time></trkpt><trkpt lat="39.40218609909443" lon="9.242875246040152"><ele>629.6666666666666</ele><time>2026-04-09T09:32:05.002Z</time></trkpt><trkpt lat="39.40215874788938" lon="9.242982063728201"><ele>631.3333333333334</ele><time>2026-04-09T09:32:06.002Z</time></trkpt><trkpt lat="39.402138579654746" lon="9.243070337918672"><ele>633.0</ele><time>2026-04-09T09:32:06.999Z</time></trkpt><trkpt lat="39.40211196532648" lon="9.243170919153986"><ele>632.1666666666666</ele><time>2026-04-09T09:32:09.999Z</time></trkpt><trkpt lat="39.40215075158704" lon="9.243253007678078"><ele>631.3333333333334</ele><time>2026-04-09T09:32:12.999Z</time></trkpt><trkpt lat="39.402208423586536" lon="9.2432921025176"><ele>630.5</ele><time>2026-04-09T09:37:28.001Z</time></trkpt><trkpt lat="39.40226779839938" lon="9.24332427997777"><ele>629.6666666666667</ele><time>2026-04-09T09:38:09.003Z</time></trkpt><trkpt lat="39.40234254466215" lon="9.243350126670201"><ele>628.8333333333334</ele><time>2026-04-09T09:38:10.003Z</time></trkpt><trkpt lat="39.40242862846866" lon="9.243379919865145"><ele>628.0</ele><time>2026-04-09T09:38:11.003Z</time></trkpt><trkpt lat="39.40250070370685" lon="9.243437901300902"><ele>628.0</ele><time>2026-04-09T09:38:12.003Z</time></trkpt><trkpt lat="39.40259124537707" lon="9.243432380300186"><ele>628.0</ele><time>2026-04-09T09:38:13.003Z</time></trkpt><trkpt lat="39.40268610244924" lon="9.243438872789804"><ele>628.0</ele><time>2026-04-09T09:38:14.003Z</time></trkpt><trkpt lat="39.40278424562476" lon="9.243489322216258"><ele>628.0</ele><time>2026-04-09T09:38:15.003Z</time></trkpt><trkpt lat="39.40286196000328" lon="9.243537871619345"><ele>628.0</ele><time>2026-04-09T09:38:16.003Z</time></trkpt><trkpt lat="39.40293799037632" lon="9.243610898531053"><ele>629.5</ele><time>2026-04-09T09:38:17.003Z</time></trkpt><trkpt lat="39.403006589708184" lon="9.243725603375216"><ele>631.0</ele><time>2026-04-09T09:38:18.003Z</time></trkpt><trkpt lat="39.403088973584246" lon="9.243828583376912"><ele>632.5</ele><time>2026-04-09T09:38:19.003Z</time></trkpt><trkpt lat="39.40317407267778" lon="9.243941046813724"><ele>634.0</ele><time>2026-04-09T09:38:20.003Z</time></trkpt><trkpt lat="39.40326769578652" lon="9.244075828179776"><ele>634.0</ele><time>2026-04-09T09:38:21.003Z</time></trkpt><trkpt lat="39.40335108202649" lon="9.244190405788691"><ele>634.0</ele><time>2026-04-09T09:38:22.003Z</time></trkpt><trkpt lat="39.4034421586033" lon="9.244272513282523"><ele>634.0</ele><time>2026-04-09T09:38:23.003Z</time></trkpt><trkpt lat="39.4035416404991" lon="9.244371881068322"><ele>634.0</ele><time>2026-04-09T09:38:24.003Z</time></trkpt><trkpt lat="39.40366012055205" lon="9.244458590330888"><ele>634.0</ele><time>2026-04-09T09:38:25.001Z</time></trkpt><trkpt lat="39.403744802574856" lon="9.244540501182351"><ele>634.0</ele><time>2026-04-09T09:38:26Z</time></trkpt><trkpt lat="39.403807321204425" lon="9.244612483999148"><ele>634.0</ele><time>2026-04-09T09:38:27.001Z</time></trkpt><trkpt lat="39.403826456390014" lon="9.244707037871667"><ele>634.0</ele><time>2026-04-09T09:38:28Z</time></trkpt><trkpt lat="39.40383835056379" lon="9.244807658942946"><ele>634.0</ele><time>2026-04-09T09:38:29Z</time></trkpt><trkpt lat="39.40386004647176" lon="9.244923002287832"><ele>634.0</ele><time>2026-04-09T09:38:30Z</time></trkpt><trkpt lat="39.403901195011585" lon="9.245043275115437"><ele>639.75</ele><time>2026-04-09T09:38:31Z</time></trkpt><trkpt lat="39.40392626778891" lon="9.245164562632851"><ele>645.5</ele><time>2026-04-09T09:38:32Z</time></trkpt><trkpt lat="39.40395194333666" lon="9.24529991961192"><ele>651.25</ele><time>2026-04-09T09:38:33Z</time></trkpt><trkpt lat="39.40398577492589" lon="9.245442579798631"><ele>657.0</ele><time>2026-04-09T09:38:34Z</time></trkpt><trkpt lat="39.404017514032084" lon="9.245607675014993"><ele>655.0</ele><time>2026-04-09T09:38:35Z</time></trkpt><trkpt lat="39.40405894750621" lon="9.245767702472062"><ele>653.0</ele><time>2026-04-09T09:38:36Z</time></trkpt><trkpt lat="39.404097700417424" lon="9.245930350651141"><ele>651.0</ele><time>2026-04-09T09:38:37Z</time></trkpt><trkpt lat="39.40415074312035" lon="9.246112935022708"><ele>649.0</ele><time>2026-04-09T09:38:38Z</time></trkpt><trkpt lat="39.404182016770484" lon="9.24629132746391"><ele>649.0</ele><time>2026-04-09T09:38:39Z</time></trkpt><trkpt lat="39.40417479984344" lon="9.24647922825779"><ele>649.0</ele><time>2026-04-09T09:38:40Z</time></trkpt><trkpt lat="39.40420844971562" lon="9.246660468687795"><ele>649.0</ele><time>2026-04-09T09:38:41Z</time></trkpt><trkpt lat="39.40422463177698" lon="9.246789014261228"><ele>649.0</ele><time>2026-04-09T09:38:42Z</time></trkpt><trkpt lat="39.40423687127005" lon="9.246898319822739"><ele>649.0</ele><time>2026-04-09T09:38:43Z</time></trkpt><trkpt lat="39.40422474487184" lon="9.2469936384112"><ele>649.0</ele><time>2026-04-09T09:38:44Z</time></trkpt><trkpt lat="39.404137063647596" lon="9.247030295415321"><ele>649.0</ele><time>2026-04-09T09:38:45Z</time></trkpt><trkpt lat="39.40408165093923" lon="9.24713074067957"><ele>649.0</ele><time>2026-04-09T09:38:46Z</time></trkpt><trkpt lat="39.40403909211489" lon="9.24724158283291"><ele>649.0</ele><time>2026-04-09T09:38:47Z</time></trkpt><trkpt lat="39.40403006471463" lon="9.247380650069383"><ele>650.4000000000001</ele><time>2026-04-09T09:38:48Z</time></trkpt><trkpt lat="39.404001716405226" lon="9.247534035549167"><ele>651.8</ele><time>2026-04-09T09:38:49Z</time></trkpt><trkpt lat="39.40398135465226" lon="9.24768916814807"><ele>653.2</ele><time>2026-04-09T09:38:50Z</time></trkpt><trkpt lat="39.40397396243083" lon="9.247818640459371"><ele>654.5999999999999</ele><time>2026-04-09T09:38:51.001Z</time></trkpt><trkpt lat="39.4039712736665" lon="9.24790884906787"><ele>656.0</ele><time>2026-04-09T09:38:52.001Z</time></trkpt><trkpt lat="39.4040428752219" lon="9.248020320788102"><ele>656.0</ele><time>2026-04-09T09:38:54.001Z</time></trkpt><trkpt lat="39.40410853475482" lon="9.248075991519302"><ele>656.0</ele><time>2026-04-09T09:38:55.001Z</time></trkpt><trkpt lat="39.40416559219739" lon="9.248142161654517"><ele>656.0</ele><time>2026-04-09T09:38:56.001Z</time></trkpt><trkpt lat="39.404214959699814" lon="9.248199067828647"><ele>656.0</ele><time>2026-04-09T09:38:57.001Z</time></trkpt><trkpt lat="39.404287657879635" lon="9.248304284277307"><ele>656.0</ele><time>2026-04-09T09:38:59.001Z</time></trkpt><trkpt lat="39.40428903853143" lon="9.248393849882445"><ele>656.0</ele><time>2026-04-09T09:39:01.001Z</time></trkpt><trkpt lat="39.4041764893318" lon="9.248531187641756"><ele>656.5</ele><time>2026-04-09T09:39:03.001Z</time></trkpt><trkpt lat="39.404134591956755" lon="9.248646263239069"><ele>657.0</ele><time>2026-04-09T09:39:04.001Z</time></trkpt><trkpt lat="39.40412888753924" lon="9.248738491457061"><ele>657.5</ele><time>2026-04-09T09:39:05.001Z</time></trkpt><trkpt lat="39.40414784585834" lon="9.24885427588242"><ele>658.0</ele><time>2026-04-09T09:39:06.001Z</time></trkpt><trkpt lat="39.40413016739573" lon="9.248982596713175"><ele>658.5</ele><time>2026-04-09T09:39:07.001Z</time></trkpt><trkpt lat="39.40412555704436" lon="9.249068020169423"><ele>659.0</ele><time>2026-04-09T09:39:08.001Z</time></trkpt><trkpt lat="39.40411301963721" lon="9.249164067666122"><ele>658.2</ele><time>2026-04-09T09:39:10.001Z</time></trkpt><trkpt lat="39.40400615387351" lon="9.249204331382069"><ele>657.4000000000001</ele><time>2026-04-09T09:39:13.001Z</time></trkpt><trkpt lat="39.40392720670609" lon="9.249178888388794"><ele>656.6</ele><time>2026-04-09T09:39:14.001Z</time></trkpt><trkpt lat="39.40385096664246" lon="9.249114354309778"><ele>655.8</ele><time>2026-04-09T09:39:15.001Z</time></trkpt><trkpt lat="39.40375639380039" lon="9.249074017688098"><ele>655.0</ele><time>2026-04-09T09:39:16.001Z</time></trkpt><trkpt lat="39.403603311808595" lon="9.249087592128676"><ele>655.0</ele><time>2026-04-09T09:39:17.001Z</time></trkpt><trkpt lat="39.4034483508794" lon="9.249135654527823"><ele>655.0</ele><time>2026-04-09T09:39:18.001Z</time></trkpt><trkpt lat="39.40329909382792" lon="9.249129672830938"><ele>655.0</ele><time>2026-04-09T09:39:19.001Z</time></trkpt><trkpt lat="39.40317782367509" lon="9.249113278121518"><ele>655.0</ele><time>2026-04-09T09:39:20.001Z</time></trkpt><trkpt lat="39.4030588277792" lon="9.249091772723055"><ele>651.8</ele><time>2026-04-09T09:39:21.001Z</time></trkpt><trkpt lat="39.402973416281576" lon="9.24908501719583"><ele>648.6</ele><time>2026-04-09T09:39:22.001Z</time></trkpt><trkpt lat="39.40288929297736" lon="9.249097560397564"><ele>645.4</ele><time>2026-04-09T09:39:23.001Z</time></trkpt><trkpt lat="39.402820387486784" lon="9.249136908142269"><ele>642.2</ele><time>2026-04-09T09:39:24.001Z</time></trkpt><trkpt lat="39.40276759057234" lon="9.249238340154907"><ele>639.0</ele><time>2026-04-09T09:39:25.001Z</time></trkpt><trkpt lat="39.40269272820762" lon="9.249345061306887"><ele>639.0</ele><time>2026-04-09T09:39:26.001Z</time></trkpt><trkpt lat="39.40262214923939" lon="9.249453040077519"><ele>639.0</ele><time>2026-04-09T09:39:27.001Z</time></trkpt><trkpt lat="39.402535874111244" lon="9.249545082195487"><ele>639.0</ele><time>2026-04-09T09:39:28.001Z</time></trkpt><trkpt lat="39.40243428102266" lon="9.249644661437667"><ele>639.0</ele><time>2026-04-09T09:39:29.001Z</time></trkpt><trkpt lat="39.402337875993425" lon="9.24974972753873"><ele>637.6666666666666</ele><time>2026-04-09T09:39:30.001Z</time></trkpt><trkpt lat="39.40227510811089" lon="9.249845007345362"><ele>636.3333333333334</ele><time>2026-04-09T09:39:31.001Z</time></trkpt><trkpt lat="39.40220828308593" lon="9.249912224866685"><ele>635.0</ele><time>2026-04-09T09:39:32.001Z</time></trkpt><trkpt lat="39.40215567966677" lon="9.249982726457262"><ele>633.6666666666667</ele><time>2026-04-09T09:39:33.001Z</time></trkpt><trkpt lat="39.40209458118388" lon="9.250029468129501"><ele>632.3333333333334</ele><time>2026-04-09T09:39:34.001Z</time></trkpt><trkpt lat="39.40204129489992" lon="9.250090736878633"><ele>631.0</ele><time>2026-04-09T09:39:35.002Z</time></trkpt><trkpt lat="39.402070634246975" lon="9.25025624105965"><ele>631.0</ele><time>2026-04-09T09:39:36.002Z</time></trkpt><trkpt lat="39.40208874391554" lon="9.25037015345583"><ele>631.0</ele><time>2026-04-09T09:39:37.002Z</time></trkpt><trkpt lat="39.402081641245786" lon="9.250480914373963"><ele>631.0</ele><time>2026-04-09T09:39:38.002Z</time></trkpt><trkpt lat="39.40204945749296" lon="9.250587665575491"><ele>631.0</ele><time>2026-04-09T09:39:39.002Z</time></trkpt><trkpt lat="39.40202271680831" lon="9.250699097968187"><ele>631.0</ele><time>2026-04-09T09:39:40.002Z</time></trkpt><trkpt lat="39.40201747437148" lon="9.250821939162803"><ele>631.0</ele><time>2026-04-09T09:39:41.002Z</time></trkpt><trkpt lat="39.402016924070175" lon="9.250943630290271"><ele>633.0</ele><time>2026-04-09T09:39:42.002Z</time></trkpt><trkpt lat="39.40200255773605" lon="9.251061072903786"><ele>635.0</ele><time>2026-04-09T09:39:43.002Z</time></trkpt><trkpt lat="39.40198021566141" lon="9.251177606418091"><ele>637.0</ele><time>2026-04-09T09:39:44.002Z</time></trkpt><trkpt lat="39.40195832199779" lon="9.251284421368602"><ele>639.0</ele><time>2026-04-09T09:39:45.002Z</time></trkpt><trkpt lat="39.40194157577728" lon="9.251402982080434"><ele>641.0</ele><time>2026-04-09T09:39:46.002Z</time></trkpt><trkpt lat="39.401928179006504" lon="9.25151176573797"><ele>643.0</ele><time>2026-04-09T09:39:47.002Z</time></trkpt><trkpt lat="39.40190917696537" lon="9.25162767115513"><ele>646.0</ele><time>2026-04-09T09:39:48.002Z</time></trkpt><trkpt lat="39.401876716692136" lon="9.251737164051256"><ele>649.0</ele><time>2026-04-09T09:39:49.002Z</time></trkpt><trkpt lat="39.40184047005337" lon="9.251821202169145"><ele>652.0</ele><time>2026-04-09T09:39:50.002Z</time></trkpt><trkpt lat="39.40177010996045" lon="9.251895925955397"><ele>655.0</ele><time>2026-04-09T09:39:51.002Z</time></trkpt><trkpt lat="39.40168693302215" lon="9.251974832516659"><ele>658.0</ele><time>2026-04-09T09:39:52.002Z</time></trkpt><trkpt lat="39.401597106954945" lon="9.252066006445574"><ele>658.0</ele><time>2026-04-09T09:39:53.002Z</time></trkpt><trkpt lat="39.40152924241237" lon="9.252155370821106"><ele>658.0</ele><time>2026-04-09T09:39:54.002Z</time></trkpt><trkpt lat="39.40147764482368" lon="9.252260403207607"><ele>658.0</ele><time>2026-04-09T09:39:55.002Z</time></trkpt><trkpt lat="39.40143889623983" lon="9.252381601126501"><ele>658.0</ele><time>2026-04-09T09:39:56.002Z</time></trkpt><trkpt lat="39.401407583696226" lon="9.252505140176485"><ele>658.0</ele><time>2026-04-09T09:39:57.002Z</time></trkpt><trkpt lat="39.40138080281685" lon="9.252619295415997"><ele>660.6666666666667</ele><time>2026-04-09T09:39:58.002Z</time></trkpt><trkpt lat="39.40136158057308" lon="9.252729152955773"><ele>663.3333333333334</ele><time>2026-04-09T09:39:59.002Z</time></trkpt><trkpt lat="39.40136098375004" lon="9.252831880555954"><ele>666.0</ele><time>2026-04-09T09:40:00.002Z</time></trkpt><trkpt lat="39.40136972926657" lon="9.252943391464836"><ele>668.6666666666666</ele><time>2026-04-09T09:40:01.002Z</time></trkpt><trkpt lat="39.40137759558317" lon="9.253061000210186"><ele>671.3333333333333</ele><time>2026-04-09T09:40:02.002Z</time></trkpt><trkpt lat="39.40138283080629" lon="9.253173208359991"><ele>674.0</ele><time>2026-04-09T09:40:03.002Z</time></trkpt><trkpt lat="39.40138848629815" lon="9.25330103487359"><ele>676.0</ele><time>2026-04-09T09:40:04.002Z</time></trkpt><trkpt lat="39.40139027228317" lon="9.253436539267591"><ele>678.0</ele><time>2026-04-09T09:40:05.002Z</time></trkpt><trkpt lat="39.40138347793293" lon="9.253568264394326"><ele>680.0</ele><time>2026-04-09T09:40:06.002Z</time></trkpt><trkpt lat="39.401369677574216" lon="9.253681067154393"><ele>682.0</ele><time>2026-04-09T09:40:07.002Z</time></trkpt><trkpt lat="39.4013351246973" lon="9.253764854306702"><ele>684.0</ele><time>2026-04-09T09:40:08.002Z</time></trkpt><trkpt lat="39.40128195304555" lon="9.253848714133056"><ele>679.4000000000001</ele><time>2026-04-09T09:40:09.002Z</time></trkpt><trkpt lat="39.401216959967705" lon="9.253963033276275"><ele>674.8</ele><time>2026-04-09T09:40:10.002Z</time></trkpt><trkpt lat="39.40116993068684" lon="9.254097604581176"><ele>670.2</ele><time>2026-04-09T09:40:11.002Z</time></trkpt><trkpt lat="39.40112536425982" lon="9.25422544079582"><ele>665.5999999999999</ele><time>2026-04-09T09:40:12.002Z</time></trkpt><trkpt lat="39.40108601903391" lon="9.254333810283738"><ele>661.0</ele><time>2026-04-09T09:40:13.002Z</time></trkpt><trkpt lat="39.40106146077922" lon="9.254421233257876"><ele>661.0</ele><time>2026-04-09T09:40:14.002Z</time></trkpt><trkpt lat="39.40102763585817" lon="9.254538613729446"><ele>661.0</ele><time>2026-04-09T09:40:16.002Z</time></trkpt><trkpt lat="39.40104002196169" lon="9.254643661759294"><ele>661.0</ele><time>2026-04-09T09:40:18.003Z</time></trkpt><trkpt lat="39.401082796773146" lon="9.254703684387822"><ele>661.0</ele><time>2026-04-09T09:40:19.003Z</time></trkpt><trkpt lat="39.401146873148896" lon="9.254762905537458"><ele>661.0</ele><time>2026-04-09T09:40:20.003Z</time></trkpt><trkpt lat="39.401213247581794" lon="9.254820073324298"><ele>661.0</ele><time>2026-04-09T09:40:21.003Z</time></trkpt><trkpt lat="39.401291602658475" lon="9.254877976623069"><ele>666.5</ele><time>2026-04-09T09:40:22.003Z</time></trkpt><trkpt lat="39.40137010751833" lon="9.254948107340258"><ele>672.0</ele><time>2026-04-09T09:40:23.003Z</time></trkpt><trkpt lat="39.40143304727796" lon="9.254996100665434"><ele>677.5</ele><time>2026-04-09T09:40:24.003Z</time></trkpt><trkpt lat="39.401492995083004" lon="9.25502626301924"><ele>683.0</ele><time>2026-04-09T09:40:25.003Z</time></trkpt><trkpt lat="39.40155011268187" lon="9.255068749699992"><ele>688.5</ele><time>2026-04-09T09:40:26.003Z</time></trkpt><trkpt lat="39.401620244785235" lon="9.255016851347182"><ele>694.0</ele><time>2026-04-09T09:40:29.003Z</time></trkpt><trkpt lat="39.4015884291789" lon="9.254899494291973"><ele>694.0</ele><time>2026-04-09T09:40:31Z</time></trkpt><trkpt lat="39.401528070311244" lon="9.254828933713663"><ele>694.0</ele><time>2026-04-09T09:40:32Z</time></trkpt><trkpt lat="39.401505047056034" lon="9.254680914172821"><ele>694.0</ele><time>2026-04-09T09:40:34Z</time></trkpt><trkpt lat="39.40151958310241" lon="9.254568082491113"><ele>694.0</ele><time>2026-04-09T09:40:35Z</time></trkpt><trkpt lat="39.40154837709363" lon="9.254441362629121"><ele>694.0</ele><time>2026-04-09T09:40:36Z</time></trkpt><trkpt lat="39.401588404917135" lon="9.254333509329916"><ele>694.8000000000001</ele><time>2026-04-09T09:40:37Z</time></trkpt><trkpt lat="39.4016464775013" lon="9.254230769529485"><ele>695.6</ele><time>2026-04-09T09:40:38Z</time></trkpt><trkpt lat="39.401713887779025" lon="9.25412913899306"><ele>696.4</ele><time>2026-04-09T09:40:39Z</time></trkpt><trkpt lat="39.401789906790356" lon="9.254012791023102"><ele>697.2</ele><time>2026-04-09T09:40:40Z</time></trkpt><trkpt lat="39.40185776233426" lon="9.253889523688525"><ele>698.0</ele><time>2026-04-09T09:40:41Z</time></trkpt><trkpt lat="39.40189945163271" lon="9.253764494308818"><ele>695.2</ele><time>2026-04-09T09:40:42Z</time></trkpt><trkpt lat="39.40192880664946" lon="9.253633900693826"><ele>692.4</ele><time>2026-04-09T09:40:43Z</time></trkpt><trkpt lat="39.401938636571884" lon="9.253483914503159"><ele>689.6</ele><time>2026-04-09T09:40:44Z</time></trkpt><trkpt lat="39.401948617482155" lon="9.253357444420637"><ele>686.8000000000001</ele><time>2026-04-09T09:40:45Z</time></trkpt><trkpt lat="39.4019723425439" lon="9.253248626736681"><ele>684.0</ele><time>2026-04-09T09:40:46Z</time></trkpt><trkpt lat="39.40200666383035" lon="9.253140352122523"><ele>681.5</ele><time>2026-04-09T09:40:47Z</time></trkpt><trkpt lat="39.402084465376134" lon="9.253036899859032"><ele>679.0</ele><time>2026-04-09T09:40:48Z</time></trkpt><trkpt lat="39.40215814645553" lon="9.252897819115123"><ele>676.5</ele><time>2026-04-09T09:40:49Z</time></trkpt><trkpt lat="39.40224121071634" lon="9.252760505075647"><ele>674.0</ele><time>2026-04-09T09:40:50Z</time></trkpt><trkpt lat="39.402323763229404" lon="9.252640215193676"><ele>677.0</ele><time>2026-04-09T09:40:51Z</time></trkpt><trkpt lat="39.402400612998406" lon="9.252516463045254"><ele>680.0</ele><time>2026-04-09T09:40:52Z</time></trkpt><trkpt lat="39.40249583328566" lon="9.252396698056147"><ele>683.0</ele><time>2026-04-09T09:40:53Z</time></trkpt><trkpt lat="39.402615098305546" lon="9.252275076068731"><ele>686.0</ele><time>2026-04-09T09:40:54Z</time></trkpt><trkpt lat="39.402743862988196" lon="9.252134374551972"><ele>686.0</ele><time>2026-04-09T09:40:55Z</time></trkpt><trkpt lat="39.402840414120355" lon="9.252013903069143"><ele>686.0</ele><time>2026-04-09T09:40:56Z</time></trkpt><trkpt lat="39.40290596963961" lon="9.25190898032998"><ele>686.0</ele><time>2026-04-09T09:40:57Z</time></trkpt><trkpt lat="39.402954751651954" lon="9.251790642084766"><ele>686.0</ele><time>2026-04-09T09:40:58Z</time></trkpt><trkpt lat="39.402978204792134" lon="9.251661139553962"><ele>686.0</ele><time>2026-04-09T09:40:59Z</time></trkpt><trkpt lat="39.402996913674826" lon="9.25152800336346"><ele>686.8</ele><time>2026-04-09T09:41:00Z</time></trkpt><trkpt lat="39.403014424545155" lon="9.251426750523644"><ele>687.5999999999999</ele><time>2026-04-09T09:41:01Z</time></trkpt><trkpt lat="39.403064813767166" lon="9.251345465255145"><ele>688.4</ele><time>2026-04-09T09:41:03Z</time></trkpt><trkpt lat="39.403187932315724" lon="9.251481602730589"><ele>689.2</ele><time>2026-04-09T09:41:10.001Z</time></trkpt><trkpt lat="39.40320328360727" lon="9.251565523297852"><ele>690.0</ele><time>2026-04-09T09:41:12.001Z</time></trkpt><trkpt lat="39.40324353288732" lon="9.251674448965206"><ele>693.8</ele><time>2026-04-09T09:41:14.001Z</time></trkpt><trkpt lat="39.40327299481982" lon="9.251766767423796"><ele>697.6</ele><time>2026-04-09T09:41:15.001Z</time></trkpt><trkpt lat="39.40330906920989" lon="9.251858746957002"><ele>701.4000000000001</ele><time>2026-04-09T09:41:16.001Z</time></trkpt><trkpt lat="39.403324222719355" lon="9.251974705960203"><ele>705.2</ele><time>2026-04-09T09:41:17.001Z</time></trkpt><trkpt lat="39.403328526254455" lon="9.252111498103567"><ele>709.0</ele><time>2026-04-09T09:41:18.001Z</time></trkpt><trkpt lat="39.40332798229259" lon="9.252268473804774"><ele>712.5</ele><time>2026-04-09T09:41:19.001Z</time></trkpt><trkpt lat="39.40333165902354" lon="9.252426633846603"><ele>716.0</ele><time>2026-04-09T09:41:20.001Z</time></trkpt><trkpt lat="39.40332912591062" lon="9.25259479722697"><ele>719.5</ele><time>2026-04-09T09:41:21.001Z</time></trkpt><trkpt lat="39.403306272200666" lon="9.252755554999213"><ele>723.0</ele><time>2026-04-09T09:41:22.001Z</time></trkpt><trkpt lat="39.403273244191254" lon="9.252885224757156"><ele>723.0</ele><time>2026-04-09T09:41:23.001Z</time></trkpt><trkpt lat="39.4032277588894" lon="9.253023669031057"><ele>723.0</ele><time>2026-04-09T09:41:24.001Z</time></trkpt><trkpt lat="39.40320863994855" lon="9.253179347930336"><ele>723.0</ele><time>2026-04-09T09:41:25.001Z</time></trkpt><trkpt lat="39.403191259116696" lon="9.253339859726681"><ele>723.0</ele><time>2026-04-09T09:41:26.001Z</time></trkpt><trkpt lat="39.403172374680565" lon="9.25347581556957"><ele>725.5</ele><time>2026-04-09T09:41:27.001Z</time></trkpt><trkpt lat="39.40316005232511" lon="9.253597617988664"><ele>728.0</ele><time>2026-04-09T09:41:28.001Z</time></trkpt><trkpt lat="39.40316668179157" lon="9.253695768232971"><ele>730.5</ele><time>2026-04-09T09:41:29.001Z</time></trkpt><trkpt lat="39.40317562327735" lon="9.253777752553736"><ele>733.0</ele><time>2026-04-09T09:41:31.001Z</time></trkpt><trkpt lat="39.40322899790318" lon="9.253885197669003"><ele>735.5</ele><time>2026-04-09T09:41:33.001Z</time></trkpt><trkpt lat="39.40328167283215" lon="9.253950853500438"><ele>738.0</ele><time>2026-04-09T09:41:34.001Z</time></trkpt><trkpt lat="39.403358238619134" lon="9.253994674145556"><ele>738.0</ele><time>2026-04-09T09:41:35.001Z</time></trkpt><trkpt lat="39.40343505375246" lon="9.254047341214626"><ele>738.0</ele><time>2026-04-09T09:41:36.001Z</time></trkpt><trkpt lat="39.403514177683356" lon="9.254106419042795"><ele>738.0</ele><time>2026-04-09T09:41:37.001Z</time></trkpt><trkpt lat="39.40358879800683" lon="9.25416369718299"><ele>738.0</ele><time>2026-04-09T09:41:38.001Z</time></trkpt><trkpt lat="39.403659183249246" lon="9.254198697479262"><ele>738.0</ele><time>2026-04-09T09:41:39.001Z</time></trkpt><trkpt lat="39.403724382526626" lon="9.254225433189708"><ele>738.0</ele><time>2026-04-09T09:41:40.001Z</time></trkpt><trkpt lat="39.403837841606546" lon="9.254291073789789"><ele>739.8</ele><time>2026-04-09T09:41:42.001Z</time></trkpt><trkpt lat="39.4039144717984" lon="9.254330539629546"><ele>741.5999999999999</ele><time>2026-04-09T09:41:43.001Z</time></trkpt><trkpt lat="39.40401843857266" lon="9.25437540062009"><ele>743.4000000000001</ele><time>2026-04-09T09:41:44.001Z</time></trkpt><trkpt lat="39.40412490003226" lon="9.254425581282575"><ele>745.2</ele><time>2026-04-09T09:41:45.001Z</time></trkpt><trkpt lat="39.40424533878426" lon="9.254483786425885"><ele>747.0</ele><time>2026-04-09T09:41:46.001Z</time></trkpt><trkpt lat="39.404348106297824" lon="9.254527847668447"><ele>747.0</ele><time>2026-04-09T09:41:47.001Z</time></trkpt><trkpt lat="39.404434630178635" lon="9.25456622136752"><ele>747.0</ele><time>2026-04-09T09:41:48.001Z</time></trkpt><trkpt lat="39.40452593485216" lon="9.254606459383686"><ele>747.0</ele><time>2026-04-09T09:41:49.001Z</time></trkpt><trkpt lat="39.40461988921162" lon="9.254645622226676"><ele>747.0</ele><time>2026-04-09T09:41:50.002Z</time></trkpt><trkpt lat="39.404705268715205" lon="9.254658278659182"><ele>747.0</ele><time>2026-04-09T09:41:51.002Z</time></trkpt><trkpt lat="39.40476973927356" lon="9.254661139939495"><ele>747.0</ele><time>2026-04-09T09:41:52.002Z</time></trkpt><trkpt lat="39.40486676101592" lon="9.254717264786015"><ele>744.8</ele><time>2026-04-09T09:41:54.002Z</time></trkpt><trkpt lat="39.404858397132365" lon="9.254868782224039"><ele>742.6</ele><time>2026-04-09T09:41:56.002Z</time></trkpt><trkpt lat="39.40483463141972" lon="9.254996996115858"><ele>740.4</ele><time>2026-04-09T09:41:58.002Z</time></trkpt><trkpt lat="39.40480594552827" lon="9.255084524521243"><ele>738.1999999999999</ele><time>2026-04-09T09:42:00.002Z</time></trkpt><trkpt lat="39.404775288683474" lon="9.255190019120214"><ele>736.0</ele><time>2026-04-09T09:42:01.002Z</time></trkpt><trkpt lat="39.40477992648429" lon="9.255288416552723"><ele>736.0</ele><time>2026-04-09T09:42:02.002Z</time></trkpt><trkpt lat="39.40477197531286" lon="9.255404375034804"><ele>736.0</ele><time>2026-04-09T09:42:03.002Z</time></trkpt><trkpt lat="39.404775159545096" lon="9.255549735666806"><ele>736.0</ele><time>2026-04-09T09:42:04.002Z</time></trkpt><trkpt lat="39.404775414719985" lon="9.25568422947254"><ele>736.0</ele><time>2026-04-09T09:42:05.002Z</time></trkpt><trkpt lat="39.40477366377357" lon="9.255810437046824"><ele>736.0</ele><time>2026-04-09T09:42:06.002Z</time></trkpt><trkpt lat="39.404762915503746" lon="9.255914066403435"><ele>736.6666666666667</ele><time>2026-04-09T09:42:07.002Z</time></trkpt><trkpt lat="39.40477949489735" lon="9.256008155642398"><ele>737.3333333333334</ele><time>2026-04-09T09:42:09.002Z</time></trkpt><trkpt lat="39.40481865782145" lon="9.256086499584432"><ele>738.0</ele><time>2026-04-09T09:42:10.002Z</time></trkpt><trkpt lat="39.404868664061844" lon="9.256188738371547"><ele>738.6666666666666</ele><time>2026-04-09T09:42:11.002Z</time></trkpt><trkpt lat="39.40492566097558" lon="9.256266013896377"><ele>739.3333333333333</ele><time>2026-04-09T09:42:12.002Z</time></trkpt><trkpt lat="39.40495765442341" lon="9.256344837786553"><ele>740.0</ele><time>2026-04-09T09:42:13.002Z</time></trkpt><trkpt lat="39.40497311583352" lon="9.256441963818729"><ele>740.3333333333333</ele><time>2026-04-09T09:42:15.002Z</time></trkpt><trkpt lat="39.40502286087029" lon="9.25651807303391"><ele>740.6666666666666</ele><time>2026-04-09T09:42:18.002Z</time></trkpt><trkpt lat="39.40508824221345" lon="9.256550381575428"><ele>741.0</ele><time>2026-04-09T09:42:59.001Z</time></trkpt><trkpt lat="39.40516054398345" lon="9.256585941159338"><ele>741.3333333333334</ele><time>2026-04-09T09:43:00.001Z</time></trkpt><trkpt lat="39.40522715105193" lon="9.256620846938297"><ele>741.6666666666667</ele><time>2026-04-09T09:43:01.001Z</time></trkpt><trkpt lat="39.405305189057145" lon="9.256658395709064"><ele>742.0</ele><time>2026-04-09T09:43:02.001Z</time></trkpt><trkpt lat="39.405383145743265" lon="9.256687910914296"><ele>742.0</ele><time>2026-04-09T09:43:03.001Z</time></trkpt><trkpt lat="39.40547221708314" lon="9.256737460822208"><ele>742.0</ele><time>2026-04-09T09:43:05.001Z</time></trkpt><trkpt lat="39.40554578963391" lon="9.256747031940842"><ele>742.0</ele><time>2026-04-09T09:43:07.001Z</time></trkpt><trkpt lat="39.405611562126765" lon="9.256740526878122"><ele>742.0</ele><time>2026-04-09T09:43:09.001Z</time></trkpt><trkpt lat="39.40567869976597" lon="9.256734533889135"><ele>742.0</ele><time>2026-04-09T09:43:11.001Z</time></trkpt><trkpt lat="39.40579753865535" lon="9.256726901181214"><ele>742.0</ele><time>2026-04-09T09:43:30.001Z</time></trkpt><trkpt lat="39.40588382307286" lon="9.256766839820314"><ele>742.0</ele><time>2026-04-09T09:43:31.001Z</time></trkpt><trkpt lat="39.405976497005426" lon="9.25678145205526"><ele>742.0</ele><time>2026-04-09T09:43:32.001Z</time></trkpt><trkpt lat="39.40606883729614" lon="9.256779625911602"><ele>742.0</ele><time>2026-04-09T09:43:33.001Z</time></trkpt><trkpt lat="39.406156438212385" lon="9.256744793360873"><ele>742.0</ele><time>2026-04-09T09:43:34.001Z</time></trkpt><trkpt lat="39.40624874933108" lon="9.256701063038324"><ele>742.0</ele><time>2026-04-09T09:43:35.001Z</time></trkpt><trkpt lat="39.4063404949336" lon="9.256630964261836"><ele>742.0</ele><time>2026-04-09T09:43:36.001Z</time></trkpt><trkpt lat="39.40643156371308" lon="9.256564109914928"><ele>742.0</ele><time>2026-04-09T09:43:37.001Z</time></trkpt><trkpt lat="39.40651185068543" lon="9.256520290857477"><ele>742.0</ele><time>2026-04-09T09:43:38.001Z</time></trkpt><trkpt lat="39.40659556134702" lon="9.256538569705382"><ele>742.0</ele><time>2026-04-09T09:43:39.001Z</time></trkpt><trkpt lat="39.40668706475067" lon="9.256576655806471"><ele>742.0</ele><time>2026-04-09T09:43:40.001Z</time></trkpt><trkpt lat="39.406786118872795" lon="9.256626226606643"><ele>742.0</ele><time>2026-04-09T09:43:41.001Z</time></trkpt><trkpt lat="39.40691020596238" lon="9.256699210060663"><ele>742.0</ele><time>2026-04-09T09:43:42.001Z</time></trkpt><trkpt lat="39.407071826970885" lon="9.256755596107993"><ele>742.0</ele><time>2026-04-09T09:43:43.001Z</time></trkpt><trkpt lat="39.40724000046066" lon="9.256842140337383"><ele>742.75</ele><time>2026-04-09T09:43:44.001Z</time></trkpt><trkpt lat="39.40737798013656" lon="9.256905500925503"><ele>743.5</ele><time>2026-04-09T09:43:45.001Z</time></trkpt><trkpt lat="39.40747508034478" lon="9.256974360806327"><ele>744.25</ele><time>2026-04-09T09:43:46.001Z</time></trkpt><trkpt lat="39.407563264414854" lon="9.257038293992453"><ele>745.0</ele><time>2026-04-09T09:43:47.002Z</time></trkpt><trkpt lat="39.407638364151886" lon="9.257149239519782"><ele>742.6666666666667</ele><time>2026-04-09T09:43:48.002Z</time></trkpt><trkpt lat="39.40771004372976" lon="9.25729903868798"><ele>740.3333333333334</ele><time>2026-04-09T09:43:49.002Z</time></trkpt><trkpt lat="39.40776738890106" lon="9.257478453309002"><ele>738.0</ele><time>2026-04-09T09:43:50.002Z</time></trkpt><trkpt lat="39.407813915430694" lon="9.257688487110043"><ele>738.0</ele><time>2026-04-09T09:43:51.002Z</time></trkpt><trkpt lat="39.407862337554555" lon="9.257918541843706"><ele>738.0</ele><time>2026-04-09T09:43:52.002Z</time></trkpt><trkpt lat="39.40791683774413" lon="9.258141197296652"><ele>738.0</ele><time>2026-04-09T09:43:53.002Z</time></trkpt><trkpt lat="39.40797190486402" lon="9.25835561820519"><ele>740.6666666666666</ele><time>2026-04-09T09:43:54.002Z</time></trkpt><trkpt lat="39.40804440351626" lon="9.258615881399658"><ele>743.3333333333333</ele><time>2026-04-09T09:43:55.002Z</time></trkpt><trkpt lat="39.408126102954554" lon="9.25888014637124"><ele>746.0</ele><time>2026-04-09T09:43:56.002Z</time></trkpt><trkpt lat="39.408187008687555" lon="9.259087138664462"><ele>747.0</ele><time>2026-04-09T09:43:57.002Z</time></trkpt><trkpt lat="39.40822465866137" lon="9.259265236721363"><ele>748.0</ele><time>2026-04-09T09:43:58.002Z</time></trkpt><trkpt lat="39.408221888855635" lon="9.259429030082128"><ele>749.0</ele><time>2026-04-09T09:43:59.002Z</time></trkpt><trkpt lat="39.40821864886598" lon="9.259599126522064"><ele>750.0</ele><time>2026-04-09T09:44:00.002Z</time></trkpt><trkpt lat="39.40825274107741" lon="9.259791206772029"><ele>750.3333333333334</ele><time>2026-04-09T09:44:01.002Z</time></trkpt><trkpt lat="39.40831645842406" lon="9.259991024585638"><ele>750.6666666666667</ele><time>2026-04-09T09:44:02.002Z</time></trkpt><trkpt lat="39.40840068030933" lon="9.260205673754584"><ele>751.0</ele><time>2026-04-09T09:44:03.002Z</time></trkpt><trkpt lat="39.408479142734" lon="9.26042620013992"><ele>751.0</ele><time>2026-04-09T09:44:04.002Z</time></trkpt><trkpt lat="39.40854802113982" lon="9.260612190870553"><ele>751.0</ele><time>2026-04-09T09:44:05.002Z</time></trkpt><trkpt lat="39.4086020967982" lon="9.26078447207372"><ele>751.0</ele><time>2026-04-09T09:44:06.002Z</time></trkpt><trkpt lat="39.408637554407406" lon="9.260955306471532"><ele>751.0</ele><time>2026-04-09T09:44:07.002Z</time></trkpt><trkpt lat="39.408618590611084" lon="9.261108848399674"><ele>751.1999999999999</ele><time>2026-04-09T09:44:08.002Z</time></trkpt><trkpt lat="39.40860188383313" lon="9.261253098467355"><ele>751.4</ele><time>2026-04-09T09:44:09.002Z</time></trkpt><trkpt lat="39.40854513632548" lon="9.261383435707595"><ele>751.6</ele><time>2026-04-09T09:44:10.002Z</time></trkpt><trkpt lat="39.4084810149328" lon="9.261491414906237"><ele>751.8</ele><time>2026-04-09T09:44:11.002Z</time></trkpt><trkpt lat="39.408418277302374" lon="9.261609061393742"><ele>752.0</ele><time>2026-04-09T09:44:12.002Z</time></trkpt><trkpt lat="39.40837184854107" lon="9.261696125261366"><ele>752.0</ele><time>2026-04-09T09:44:13.002Z</time></trkpt><trkpt lat="39.408450168051836" lon="9.261918267476592"><ele>752.0</ele><time>2026-04-09T09:44:15.002Z</time></trkpt><trkpt lat="39.40846485134041" lon="9.262000971564827"><ele>752.0</ele><time>2026-04-09T09:44:16.002Z</time></trkpt><trkpt lat="39.408482220677094" lon="9.262157905981814"><ele>752.0</ele><time>2026-04-09T09:44:18.002Z</time></trkpt><trkpt lat="39.408488650180686" lon="9.262294939610275"><ele>753.2</ele><time>2026-04-09T09:44:20.002Z</time></trkpt><trkpt lat="39.408483544658445" lon="9.262390914329968"><ele>754.4000000000001</ele><time>2026-04-09T09:44:22.002Z</time></trkpt><trkpt lat="39.408475843108214" lon="9.262504324650093"><ele>755.5999999999999</ele><time>2026-04-09T09:44:24.002Z</time></trkpt><trkpt lat="39.408469110643075" lon="9.262639750650708"><ele>756.8</ele><time>2026-04-09T09:44:26.002Z</time></trkpt><trkpt lat="39.408431866430696" lon="9.262752919292982"><ele>758.0</ele><time>2026-04-09T09:44:28.002Z</time></trkpt><trkpt lat="39.40838030757603" lon="9.2628580071936"><ele>758.0</ele><time>2026-04-09T09:44:30.002Z</time></trkpt><trkpt lat="39.40832671971591" lon="9.262966882739908"><ele>758.0</ele><time>2026-04-09T09:44:32.002Z</time></trkpt><trkpt lat="39.40828383315415" lon="9.263073713500557"><ele>758.0</ele><time>2026-04-09T09:44:34.003Z</time></trkpt><trkpt lat="39.40826761183581" lon="9.263188893060521"><ele>758.0</ele><time>2026-04-09T09:44:36.003Z</time></trkpt><trkpt lat="39.40826922109109" lon="9.263275939357136"><ele>758.0</ele><time>2026-04-09T09:44:38.003Z</time></trkpt><trkpt lat="39.408254985279676" lon="9.263368819876181"><ele>758.0</ele><time>2026-04-09T09:44:41.003Z</time></trkpt><trkpt lat="39.40828905036357" lon="9.263446176594304"><ele>758.3333333333333</ele><time>2026-04-09T09:44:44.001Z</time></trkpt><trkpt lat="39.40833266869351" lon="9.263512585308737"><ele>758.6666666666666</ele><time>2026-04-09T09:44:47.001Z</time></trkpt><trkpt lat="39.40839380896128" lon="9.263587088811551"><ele>759.0</ele><time>2026-04-09T09:44:50.001Z</time></trkpt><trkpt lat="39.40846140699357" lon="9.263673139651763"><ele>759.3333333333334</ele><time>2026-04-09T09:44:53.001Z</time></trkpt><trkpt lat="39.408517174182826" lon="9.263728189488653"><ele>759.6666666666667</ele><time>2026-04-09T09:44:55.001Z</time></trkpt><trkpt lat="39.40857570253989" lon="9.263797097607808"><ele>760.0</ele><time>2026-04-09T09:44:57.001Z</time></trkpt><trkpt lat="39.40863827901902" lon="9.263893985528576"><ele>759.1666666666667</ele><time>2026-04-09T09:44:59.001Z</time></trkpt><trkpt lat="39.40867960528083" lon="9.26395691261162"><ele>758.3333333333334</ele><time>2026-04-09T09:45:00.001Z</time></trkpt><trkpt lat="39.40871807925041" lon="9.264038848005013"><ele>757.5</ele><time>2026-04-09T09:45:01.001Z</time></trkpt><trkpt lat="39.40875414893312" lon="9.264136300141056"><ele>756.6666666666666</ele><time>2026-04-09T09:45:02.001Z</time></trkpt><trkpt lat="39.408800211844614" lon="9.26424523515817"><ele>755.8333333333333</ele><time>2026-04-09T09:45:03.001Z</time></trkpt><trkpt lat="39.40885068720713" lon="9.264355395763891"><ele>755.0</ele><time>2026-04-09T09:45:04.001Z</time></trkpt><trkpt lat="39.40889580620021" lon="9.264475828763933"><ele>755.0</ele><time>2026-04-09T09:45:05.001Z</time></trkpt><trkpt lat="39.40893837525318" lon="9.264624979640397"><ele>755.0</ele><time>2026-04-09T09:45:06.001Z</time></trkpt><trkpt lat="39.408979564973635" lon="9.264804376226717"><ele>755.0</ele><time>2026-04-09T09:45:07.001Z</time></trkpt><trkpt lat="39.40901477263865" lon="9.264982820262095"><ele>755.0</ele><time>2026-04-09T09:45:08.001Z</time></trkpt><trkpt lat="39.40904482217032" lon="9.265137697853323"><ele>756.25</ele><time>2026-04-09T09:45:09.001Z</time></trkpt><trkpt lat="39.40907346898898" lon="9.265279059491784"><ele>757.5</ele><time>2026-04-09T09:45:10.001Z</time></trkpt><trkpt lat="39.409091332033285" lon="9.265436392933017"><ele>758.75</ele><time>2026-04-09T09:45:11.001Z</time></trkpt><trkpt lat="39.40911248832879" lon="9.26559120081772"><ele>760.0</ele><time>2026-04-09T09:45:12.001Z</time></trkpt><trkpt lat="39.40911671292874" lon="9.265749916037842"><ele>761.25</ele><time>2026-04-09T09:45:13.001Z</time></trkpt><trkpt lat="39.40910146785007" lon="9.265901770436107"><ele>762.5</ele><time>2026-04-09T09:45:14.001Z</time></trkpt><trkpt lat="39.409065995700466" lon="9.26605140951966"><ele>763.75</ele><time>2026-04-09T09:45:15.001Z</time></trkpt><trkpt lat="39.4090204561945" lon="9.266223286695045"><ele>765.0</ele><time>2026-04-09T09:45:16.001Z</time></trkpt><trkpt lat="39.40898152250689" lon="9.26639157153851"><ele>766.8</ele><time>2026-04-09T09:45:17.001Z</time></trkpt><trkpt lat="39.40894887145059" lon="9.266519770949712"><ele>768.6</ele><time>2026-04-09T09:45:18.001Z</time></trkpt><trkpt lat="39.40891780362619" lon="9.266646792170018"><ele>770.4000000000001</ele><time>2026-04-09T09:45:19.001Z</time></trkpt><trkpt lat="39.40888445269376" lon="9.266779208615182"><ele>772.2</ele><time>2026-04-09T09:45:20.001Z</time></trkpt><trkpt lat="39.40886651122189" lon="9.266895193671267"><ele>774.0</ele><time>2026-04-09T09:45:21.001Z</time></trkpt><trkpt lat="39.408855560272414" lon="9.267020443021263"><ele>774.0</ele><time>2026-04-09T09:45:22.001Z</time></trkpt><trkpt lat="39.40885426143147" lon="9.2671458939652"><ele>774.0</ele><time>2026-04-09T09:45:23.001Z</time></trkpt><trkpt lat="39.408867658182366" lon="9.267265476385386"><ele>774.0</ele><time>2026-04-09T09:45:24.001Z</time></trkpt><trkpt lat="39.40890204618922" lon="9.267370454904087"><ele>774.0</ele><time>2026-04-09T09:45:25.001Z</time></trkpt><trkpt lat="39.408953889966554" lon="9.267468948659136"><ele>774.0</ele><time>2026-04-09T09:45:26.001Z</time></trkpt><trkpt lat="39.40901815047964" lon="9.267554228284174"><ele>774.5</ele><time>2026-04-09T09:45:27.001Z</time></trkpt><trkpt lat="39.409085832274975" lon="9.267619111818393"><ele>775.0</ele><time>2026-04-09T09:45:28.001Z</time></trkpt><trkpt lat="39.4091525754014" lon="9.267664286552524"><ele>775.5</ele><time>2026-04-09T09:45:29.001Z</time></trkpt><trkpt lat="39.40922761351869" lon="9.267695917311123"><ele>776.0</ele><time>2026-04-09T09:45:30.001Z</time></trkpt><trkpt lat="39.409310854723046" lon="9.26771926206022"><ele>776.5</ele><time>2026-04-09T09:45:31.001Z</time></trkpt><trkpt lat="39.40939453397825" lon="9.267739405166123"><ele>777.0</ele><time>2026-04-09T09:45:32.001Z</time></trkpt><trkpt lat="39.40948282678216" lon="9.267751649829444"><ele>777.0</ele><time>2026-04-09T09:45:33.001Z</time></trkpt><trkpt lat="39.40956057453088" lon="9.267770850465835"><ele>777.0</ele><time>2026-04-09T09:45:34.001Z</time></trkpt><trkpt lat="39.40962540018838" lon="9.267802642919763"><ele>777.0</ele><time>2026-04-09T09:45:35.001Z</time></trkpt><trkpt lat="39.409711909289946" lon="9.267877486192948"><ele>777.0</ele><time>2026-04-09T09:45:37.001Z</time></trkpt><trkpt lat="39.40976060848404" lon="9.267929895922627"><ele>777.0</ele><time>2026-04-09T09:45:38.001Z</time></trkpt><trkpt lat="39.40984576275681" lon="9.268009210404406"><ele>777.0</ele><time>2026-04-09T09:45:40.001Z</time></trkpt><trkpt lat="39.409912346110296" lon="9.26807388030237"><ele>778.4285714285714</ele><time>2026-04-09T09:45:42.001Z</time></trkpt><trkpt lat="39.40996888347862" lon="9.26811091053285"><ele>779.8571428571429</ele><time>2026-04-09T09:45:46.001Z</time></trkpt><trkpt lat="39.41003227174004" lon="9.26818371629861"><ele>781.2857142857142</ele><time>2026-04-09T09:48:39.002Z</time></trkpt><trkpt lat="39.41007592346605" lon="9.268246787691552"><ele>782.7142857142858</ele><time>2026-04-09T09:48:40.002Z</time></trkpt><trkpt lat="39.410117529106536" lon="9.268323858313119"><ele>784.1428571428571</ele><time>2026-04-09T09:48:41.002Z</time></trkpt><trkpt lat="39.410161085571985" lon="9.268398267752444"><ele>785.5714285714286</ele><time>2026-04-09T09:48:42.002Z</time></trkpt><trkpt lat="39.410196894933605" lon="9.268480700822325"><ele>787.0</ele><time>2026-04-09T09:48:43.002Z</time></trkpt><trkpt lat="39.41022165499538" lon="9.268557198446311"><ele>787.0</ele><time>2026-04-09T09:48:44.002Z</time></trkpt><trkpt lat="39.410253233480525" lon="9.268635295476848"><ele>787.0</ele><time>2026-04-09T09:48:45.002Z</time></trkpt><trkpt lat="39.41028856839083" lon="9.268715969180784"><ele>787.0</ele><time>2026-04-09T09:48:46.002Z</time></trkpt><trkpt lat="39.41035370407721" lon="9.268837527178054"><ele>787.0</ele><time>2026-04-09T09:48:48.002Z</time></trkpt><trkpt lat="39.41042643588102" lon="9.26896650903088"><ele>787.0</ele><time>2026-04-09T09:48:50.002Z</time></trkpt><trkpt lat="39.41049962086284" lon="9.269052485500664"><ele>792.8333333333333</ele><time>2026-04-09T09:48:52.002Z</time></trkpt><trkpt lat="39.41057248021686" lon="9.269094916293048"><ele>798.6666666666666</ele><time>2026-04-09T09:48:54.002Z</time></trkpt><trkpt lat="39.41065622075614" lon="9.2691284288747"><ele>804.5</ele><time>2026-04-09T09:48:56.002Z</time></trkpt><trkpt lat="39.410756856823745" lon="9.269150223444955"><ele>810.3333333333333</ele><time>2026-04-09T09:48:58.002Z</time></trkpt><trkpt lat="39.41082796119015" lon="9.269174469083648"><ele>816.1666666666666</ele><time>2026-04-09T09:54:33.001Z</time></trkpt><trkpt lat="39.41090942183523" lon="9.269239620109042"><ele>822.0</ele><time>2026-04-09T09:54:36.001Z</time></trkpt><trkpt lat="39.41096466811755" lon="9.269282805085762"><ele>822.0</ele><time>2026-04-09T09:54:38.001Z</time></trkpt><trkpt lat="39.41102363858504" lon="9.269209928886376"><ele>822.0</ele><time>2026-04-09T10:13:49.001Z</time></trkpt><trkpt lat="39.41104685953965" lon="9.269125764949507"><ele>822.0</ele><time>2026-04-09T10:14:48Z</time></trkpt><trkpt lat="39.411011257834375" lon="9.269052769390122"><ele>822.0</ele><time>2026-04-09T10:14:51Z</time></trkpt><trkpt lat="39.4109916853481" lon="9.268965731531086"><ele>822.0</ele><time>2026-04-09T10:14:54Z</time></trkpt><trkpt lat="39.41100342169439" lon="9.268882924369416"><ele>822.0</ele><time>2026-04-09T10:14:57Z</time></trkpt><trkpt lat="39.410959449012644" lon="9.26877223213611"><ele>822.0</ele><time>2026-04-09T10:14:59Z</time></trkpt><trkpt lat="39.4109520276693" lon="9.268666260140648"><ele>819.3333333333334</ele><time>2026-04-09T10:15:01Z</time></trkpt><trkpt lat="39.410938161858674" lon="9.268550079402658"><ele>816.6666666666667</ele><time>2026-04-09T10:15:03Z</time></trkpt><trkpt lat="39.41091927431794" lon="9.268444682074184"><ele>814.0</ele><time>2026-04-09T10:15:05Z</time></trkpt><trkpt lat="39.41089756164862" lon="9.268350387573351"><ele>811.3333333333334</ele><time>2026-04-09T10:15:07Z</time></trkpt><trkpt lat="39.410871149693605" lon="9.268275088396367"><ele>808.6666666666667</ele><time>2026-04-09T10:15:09Z</time></trkpt><trkpt lat="39.41081038734518" lon="9.268218113274832"><ele>806.0</ele><time>2026-04-09T10:15:12Z</time></trkpt><trkpt lat="39.410738073004964" lon="9.268181977290535"><ele>806.0</ele><time>2026-04-09T10:15:14Z</time></trkpt><trkpt lat="39.410656977774224" lon="9.268186375866199"><ele>806.0</ele><time>2026-04-09T10:15:16Z</time></trkpt><trkpt lat="39.410596874264556" lon="9.268220776805832"><ele>806.0</ele><time>2026-04-09T10:15:18Z</time></trkpt><trkpt lat="39.41052126562227" lon="9.268282576411986"><ele>806.0</ele><time>2026-04-09T10:15:20Z</time></trkpt><trkpt lat="39.41045443049357" lon="9.26829847080699"><ele>806.0</ele><time>2026-04-09T10:15:22.001Z</time></trkpt><trkpt lat="39.41030733837553" lon="9.268319837744349"><ele>802.1999999999999</ele><time>2026-04-09T10:15:24.001Z</time></trkpt><trkpt lat="39.41021481345363" lon="9.268297622738613"><ele>798.4</ele><time>2026-04-09T10:15:26.001Z</time></trkpt><trkpt lat="39.41012888344603" lon="9.268307058986396"><ele>794.6</ele><time>2026-04-09T10:15:28.001Z</time></trkpt><trkpt lat="39.41002196590786" lon="9.268290554893587"><ele>790.8</ele><time>2026-04-09T10:15:30.001Z</time></trkpt><trkpt lat="39.40994133619176" lon="9.268202737578655"><ele>787.0</ele><time>2026-04-09T10:15:32.001Z</time></trkpt><trkpt lat="39.409931512144034" lon="9.268090856374775"><ele>787.0</ele><time>2026-04-09T10:15:34.001Z</time></trkpt><trkpt lat="39.40987443912171" lon="9.268019374059513"><ele>787.0</ele><time>2026-04-09T10:15:37.001Z</time></trkpt><trkpt lat="39.40993813305663" lon="9.268194445036025"><ele>787.0</ele><time>2026-04-09T10:15:41.001Z</time></trkpt><trkpt lat="39.4100161019484" lon="9.268201489991048"><ele>787.0</ele><time>2026-04-09T10:16:25.999Z</time></trkpt><trkpt lat="39.410103015515446" lon="9.268214579278778"><ele>787.0</ele><time>2026-04-09T10:16:27.999Z</time></trkpt><trkpt lat="39.410207918098465" lon="9.268230761036023"><ele>786.9999999999999</ele><time>2026-04-09T10:16:29.999Z</time></trkpt><trkpt lat="39.41032162354822" lon="9.268228630324668"><ele>787.0</ele><time>2026-04-09T10:16:31.999Z</time></trkpt><trkpt lat="39.41038639152957" lon="9.268205792642691"><ele>787.0</ele><time>2026-04-09T10:16:32.999Z</time></trkpt><trkpt lat="39.410445296995206" lon="9.268158255355608"><ele>787.0</ele><time>2026-04-09T10:16:33.999Z</time></trkpt><trkpt lat="39.410524096794425" lon="9.268044724195585"><ele>786.9999999999999</ele><time>2026-04-09T10:16:35.999Z</time></trkpt><trkpt lat="39.41055584310278" lon="9.267974133445955"><ele>787.0</ele><time>2026-04-09T10:16:36.999Z</time></trkpt><trkpt lat="39.41062242717791" lon="9.267872777114126"><ele>787.3333333333333</ele><time>2026-04-09T10:16:38.999Z</time></trkpt><trkpt lat="39.41073918421288" lon="9.267817240702767"><ele>787.6666666666666</ele><time>2026-04-09T10:16:40.999Z</time></trkpt><trkpt lat="39.410811099553534" lon="9.267802224065454"><ele>788.0</ele><time>2026-04-09T10:16:41.999Z</time></trkpt><trkpt lat="39.41087596025449" lon="9.267813822391417"><ele>788.3333333333333</ele><time>2026-04-09T10:16:42.999Z</time></trkpt><trkpt lat="39.410948707557615" lon="9.267879054523553"><ele>788.6666666666666</ele><time>2026-04-09T10:16:44.999Z</time></trkpt><trkpt lat="39.411026228252965" lon="9.267909797593875"><ele>789.0</ele><time>2026-04-09T10:17:13Z</time></trkpt><trkpt lat="39.411121889823846" lon="9.267914077256439"><ele>789.0</ele><time>2026-04-09T10:17:15Z</time></trkpt><trkpt lat="39.41118254886999" lon="9.267862592441315"><ele>789.0</ele><time>2026-04-09T10:17:17Z</time></trkpt><trkpt lat="39.411249898108345" lon="9.267840340798655"><ele>789.0</ele><time>2026-04-09T10:17:19Z</time></trkpt><trkpt lat="39.41131408043669" lon="9.267761472276689"><ele>789.0</ele><time>2026-04-09T10:17:21Z</time></trkpt><trkpt lat="39.411397395235255" lon="9.267696585069512"><ele>789.0</ele><time>2026-04-09T10:17:23Z</time></trkpt><trkpt lat="39.411452755599484" lon="9.267578632762751"><ele>789.0</ele><time>2026-04-09T10:17:25Z</time></trkpt><trkpt lat="39.41151488616015" lon="9.267454027261367"><ele>788.3333333333334</ele><time>2026-04-09T10:17:27Z</time></trkpt><trkpt lat="39.4115562566676" lon="9.267346754185356"><ele>787.6666666666667</ele><time>2026-04-09T10:17:29Z</time></trkpt><trkpt lat="39.41159195170691" lon="9.26718762775515"><ele>787.0</ele><time>2026-04-09T10:17:31Z</time></trkpt><trkpt lat="39.41162182208442" lon="9.267109115438933"><ele>786.3333333333334</ele><time>2026-04-09T10:17:32.001Z</time></trkpt><trkpt lat="39.41163725664564" lon="9.267020915644457"><ele>785.6666666666667</ele><time>2026-04-09T10:17:33.001Z</time></trkpt><trkpt lat="39.411672148736855" lon="9.266931376643601"><ele>785.0</ele><time>2026-04-09T10:17:34.001Z</time></trkpt><trkpt lat="39.4116927680754" lon="9.266828634729343"><ele>785.0000000000001</ele><time>2026-04-09T10:17:35.001Z</time></trkpt><trkpt lat="39.41170634679931" lon="9.266710666386292"><ele>785.0</ele><time>2026-04-09T10:17:36.001Z</time></trkpt><trkpt lat="39.41169176358706" lon="9.266600610472413"><ele>785.0</ele><time>2026-04-09T10:17:37.001Z</time></trkpt><trkpt lat="39.41169382609029" lon="9.26649972712676"><ele>785.0</ele><time>2026-04-09T10:17:38.001Z</time></trkpt><trkpt lat="39.41170852402335" lon="9.266386247121357"><ele>785.0000000000001</ele><time>2026-04-09T10:17:39.001Z</time></trkpt><trkpt lat="39.4117195632694" lon="9.266269233141491"><ele>785.0</ele><time>2026-04-09T10:17:40.001Z</time></trkpt><trkpt lat="39.41175481701799" lon="9.266139591003903"><ele>782.4</ele><time>2026-04-09T10:17:41.001Z</time></trkpt><trkpt lat="39.41179556789091" lon="9.266014472838373"><ele>779.8</ele><time>2026-04-09T10:17:42.001Z</time></trkpt><trkpt lat="39.41185526329675" lon="9.265895067944303"><ele>777.2</ele><time>2026-04-09T10:17:43.001Z</time></trkpt><trkpt lat="39.41191190294575" lon="9.265770414195268"><ele>774.6</ele><time>2026-04-09T10:17:44.001Z</time></trkpt><trkpt lat="39.41196615319217" lon="9.265628033573512"><ele>772.0</ele><time>2026-04-09T10:17:45.001Z</time></trkpt><trkpt lat="39.412022921358435" lon="9.265508645539194"><ele>770.9999999999999</ele><time>2026-04-09T10:17:46.001Z</time></trkpt><trkpt lat="39.41208786724127" lon="9.26539243436398"><ele>770.0</ele><time>2026-04-09T10:17:47.001Z</time></trkpt><trkpt lat="39.41214927661348" lon="9.26528804229133"><ele>769.0</ele><time>2026-04-09T10:17:48.001Z</time></trkpt><trkpt lat="39.41220008808021" lon="9.265212225729236"><ele>768.0</ele><time>2026-04-09T10:17:49.001Z</time></trkpt><trkpt lat="39.41226099262148" lon="9.26514795619265"><ele>767.0</ele><time>2026-04-09T10:17:50.001Z</time></trkpt><trkpt lat="39.41232738701487" lon="9.265117953640102"><ele>766.0</ele><time>2026-04-09T10:17:51.001Z</time></trkpt><trkpt lat="39.41240383466403" lon="9.26511629925392"><ele>766.0</ele><time>2026-04-09T10:17:52.001Z</time></trkpt><trkpt lat="39.4124844806833" lon="9.265132172021813"><ele>766.0</ele><time>2026-04-09T10:17:53.001Z</time></trkpt><trkpt lat="39.412555492130636" lon="9.265165302905546"><ele>766.0</ele><time>2026-04-09T10:17:54.001Z</time></trkpt><trkpt lat="39.41261999679997" lon="9.265186307137002"><ele>766.0</ele><time>2026-04-09T10:17:55.001Z</time></trkpt><trkpt lat="39.41268284968904" lon="9.26517562731388"><ele>766.0</ele><time>2026-04-09T10:17:56.001Z</time></trkpt><trkpt lat="39.41274639521852" lon="9.265126502808448"><ele>766.0</ele><time>2026-04-09T10:17:57.001Z</time></trkpt><trkpt lat="39.41283485567455" lon="9.265034113680276"><ele>766.0</ele><time>2026-04-09T10:17:58.001Z</time></trkpt><trkpt lat="39.4129319218099" lon="9.264900263467819"><ele>766.0</ele><time>2026-04-09T10:17:59.001Z</time></trkpt><trkpt lat="39.41301126013368" lon="9.264810661219656"><ele>766.0</ele><time>2026-04-09T10:18:00.001Z</time></trkpt><trkpt lat="39.413077996267695" lon="9.264744558353811"><ele>766.0</ele><time>2026-04-09T10:18:01.001Z</time></trkpt><trkpt lat="39.41315010491494" lon="9.264677536432734"><ele>766.0</ele><time>2026-04-09T10:18:02.001Z</time></trkpt><trkpt lat="39.41322289891481" lon="9.264624787428112"><ele>765.8333333333334</ele><time>2026-04-09T10:18:03.001Z</time></trkpt><trkpt lat="39.41329315251026" lon="9.264555699128918"><ele>765.6666666666667</ele><time>2026-04-09T10:18:04.001Z</time></trkpt><trkpt lat="39.413350756807425" lon="9.264466168887802"><ele>765.5</ele><time>2026-04-09T10:18:05.001Z</time></trkpt><trkpt lat="39.41339191855984" lon="9.26436418885399"><ele>765.3333333333334</ele><time>2026-04-09T10:18:06.001Z</time></trkpt><trkpt lat="39.4134244351187" lon="9.2642560766355"><ele>765.1666666666666</ele><time>2026-04-09T10:18:07.001Z</time></trkpt><trkpt lat="39.41345634742379" lon="9.264165176271366"><ele>765.0</ele><time>2026-04-09T10:18:08.001Z</time></trkpt><trkpt lat="39.41349839697647" lon="9.264103659882608"><ele>765.0</ele><time>2026-04-09T10:18:09.001Z</time></trkpt><trkpt lat="39.41354775327938" lon="9.26404621688262"><ele>765.0</ele><time>2026-04-09T10:18:10.001Z</time></trkpt><trkpt lat="39.41360762721854" lon="9.263985944976294"><ele>765.0</ele><time>2026-04-09T10:18:11.001Z</time></trkpt><trkpt lat="39.41365687194679" lon="9.26393245125883"><ele>765.0</ele><time>2026-04-09T10:18:12.001Z</time></trkpt><trkpt lat="39.41367921311871" lon="9.263782085088994"><ele>765.0</ele><time>2026-04-09T10:18:14.001Z</time></trkpt><trkpt lat="39.41365075596376" lon="9.26368348933332"><ele>765.0</ele><time>2026-04-09T10:18:15.001Z</time></trkpt><trkpt lat="39.41357529825554" lon="9.263570369904043"><ele>763.4</ele><time>2026-04-09T10:18:16.001Z</time></trkpt><trkpt lat="39.41347080079115" lon="9.263449000551526"><ele>761.8</ele><time>2026-04-09T10:18:17.001Z</time></trkpt><trkpt lat="39.41343475747409" lon="9.263358897626933"><ele>760.2</ele><time>2026-04-09T10:18:18.001Z</time></trkpt><trkpt lat="39.41340048979335" lon="9.263226392517034"><ele>758.6</ele><time>2026-04-09T10:18:19.999Z</time></trkpt><trkpt lat="39.413406020430514" lon="9.26312972538276"><ele>757.0</ele><time>2026-04-09T10:18:20.999Z</time></trkpt><trkpt lat="39.413413862226065" lon="9.263030737377644"><ele>755.5</ele><time>2026-04-09T10:18:21.999Z</time></trkpt><trkpt lat="39.413441301318315" lon="9.262924309461383"><ele>754.0</ele><time>2026-04-09T10:18:22.999Z</time></trkpt><trkpt lat="39.413475513457044" lon="9.262834929710102"><ele>752.5</ele><time>2026-04-09T10:18:23.999Z</time></trkpt><trkpt lat="39.41351723622959" lon="9.262742347150745"><ele>751.0</ele><time>2026-04-09T10:18:24.999Z</time></trkpt><trkpt lat="39.41356298890154" lon="9.262660923870275"><ele>749.5</ele><time>2026-04-09T10:18:25.999Z</time></trkpt><trkpt lat="39.413638581439265" lon="9.262584161370665"><ele>748.0</ele><time>2026-04-09T10:18:26.999Z</time></trkpt><trkpt lat="39.41371180959037" lon="9.262516106383204"><ele>748.0</ele><time>2026-04-09T10:18:27.999Z</time></trkpt><trkpt lat="39.413770623451214" lon="9.262449559847365"><ele>748.0</ele><time>2026-04-09T10:18:28.999Z</time></trkpt><trkpt lat="39.41382106611452" lon="9.262369579635376"><ele>748.0</ele><time>2026-04-09T10:18:29.999Z</time></trkpt><trkpt lat="39.413848381347925" lon="9.26226943498369"><ele>748.0</ele><time>2026-04-09T10:18:30.999Z</time></trkpt><trkpt lat="39.41385172181141" lon="9.262153045258781"><ele>748.0</ele><time>2026-04-09T10:18:31.999Z</time></trkpt><trkpt lat="39.41382738127533" lon="9.26201159218136"><ele>748.0</ele><time>2026-04-09T10:18:32.999Z</time></trkpt><trkpt lat="39.413781515730385" lon="9.26184465888154"><ele>746.8</ele><time>2026-04-09T10:18:33.999Z</time></trkpt><trkpt lat="39.41374146681258" lon="9.261693970974317"><ele>745.5999999999999</ele><time>2026-04-09T10:18:34.999Z</time></trkpt><trkpt lat="39.41369392712808" lon="9.261570687708966"><ele>744.4000000000001</ele><time>2026-04-09T10:18:35.999Z</time></trkpt><trkpt lat="39.413662469927694" lon="9.261479712135621"><ele>743.2</ele><time>2026-04-09T10:18:36.999Z</time></trkpt><trkpt lat="39.41362960100102" lon="9.26138875189817"><ele>742.0</ele><time>2026-04-09T10:18:37.999Z</time></trkpt><trkpt lat="39.413645848360446" lon="9.26127883366156"><ele>741.2</ele><time>2026-04-09T10:18:39Z</time></trkpt><trkpt lat="39.41370136929875" lon="9.26118546170367"><ele>740.4000000000001</ele><time>2026-04-09T10:18:40Z</time></trkpt><trkpt lat="39.4137339637405" lon="9.261067475832167"><ele>739.5999999999999</ele><time>2026-04-09T10:18:41Z</time></trkpt><trkpt lat="39.413790302852014" lon="9.260973660796658"><ele>738.8</ele><time>2026-04-09T10:18:42Z</time></trkpt><trkpt lat="39.41385595034348" lon="9.260884375515868"><ele>738.0</ele><time>2026-04-09T10:18:43Z</time></trkpt><trkpt lat="39.41393663982097" lon="9.260815005552656"><ele>741.8</ele><time>2026-04-09T10:18:44Z</time></trkpt><trkpt lat="39.41403730949632" lon="9.260760946328267"><ele>745.5999999999999</ele><time>2026-04-09T10:18:45Z</time></trkpt><trkpt lat="39.414152607889314" lon="9.260753696271932"><ele>749.4000000000001</ele><time>2026-04-09T10:18:46Z</time></trkpt><trkpt lat="39.414263072381274" lon="9.26071208985748"><ele>753.2</ele><time>2026-04-09T10:18:47Z</time></trkpt><trkpt lat="39.41436285585883" lon="9.260693519864827"><ele>757.0</ele><time>2026-04-09T10:18:48Z</time></trkpt><trkpt lat="39.414444968511184" lon="9.26066435837481"><ele>757.0</ele><time>2026-04-09T10:18:49Z</time></trkpt><trkpt lat="39.41451887212257" lon="9.260618266363126"><ele>757.0</ele><time>2026-04-09T10:18:50Z</time></trkpt><trkpt lat="39.41459948293639" lon="9.26054575134042"><ele>757.0</ele><time>2026-04-09T10:18:51Z</time></trkpt><trkpt lat="39.41467841183557" lon="9.260468516664083"><ele>757.0</ele><time>2026-04-09T10:18:52Z</time></trkpt><trkpt lat="39.4147554436779" lon="9.260384453664214"><ele>757.0</ele><time>2026-04-09T10:18:53Z</time></trkpt><trkpt lat="39.41482590397082" lon="9.26029444988674"><ele>755.25</ele><time>2026-04-09T10:18:54Z</time></trkpt><trkpt lat="39.41489336716318" lon="9.260185446079175"><ele>753.5</ele><time>2026-04-09T10:18:55Z</time></trkpt><trkpt lat="39.41495922866559" lon="9.260060756716754"><ele>751.75</ele><time>2026-04-09T10:18:56Z</time></trkpt><trkpt lat="39.41502781492043" lon="9.259944682896386"><ele>750.0</ele><time>2026-04-09T10:18:57Z</time></trkpt><trkpt lat="39.41508003472945" lon="9.259811593397185"><ele>745.8</ele><time>2026-04-09T10:18:58Z</time></trkpt><trkpt lat="39.41513093174913" lon="9.259704925210439"><ele>741.6</ele><time>2026-04-09T10:18:59Z</time></trkpt><trkpt lat="39.41518671201312" lon="9.259600993106062"><ele>737.4000000000001</ele><time>2026-04-09T10:19:00Z</time></trkpt><trkpt lat="39.41524086828081" lon="9.259509999003212"><ele>733.2</ele><time>2026-04-09T10:19:01Z</time></trkpt><trkpt lat="39.415304407884584" lon="9.25942375052445"><ele>729.0</ele><time>2026-04-09T10:19:02Z</time></trkpt><trkpt lat="39.4153826061333" lon="9.259364167586462"><ele>729.0</ele><time>2026-04-09T10:19:03Z</time></trkpt><trkpt lat="39.415471765381746" lon="9.25931874431989"><ele>729.0</ele><time>2026-04-09T10:19:04Z</time></trkpt><trkpt lat="39.415572823996264" lon="9.259310017791917"><ele>729.0</ele><time>2026-04-09T10:19:05Z</time></trkpt><trkpt lat="39.415677146903924" lon="9.259306610927577"><ele>729.0</ele><time>2026-04-09T10:19:06Z</time></trkpt><trkpt lat="39.41576245576888" lon="9.25931471918483"><ele>729.0</ele><time>2026-04-09T10:19:07Z</time></trkpt><trkpt lat="39.41583551584457" lon="9.259310252737018"><ele>730.6666666666666</ele><time>2026-04-09T10:19:08Z</time></trkpt><trkpt lat="39.41589409523285" lon="9.259269120522706"><ele>732.3333333333334</ele><time>2026-04-09T10:19:09Z</time></trkpt><trkpt lat="39.41594223403255" lon="9.259205209718605"><ele>734.0</ele><time>2026-04-09T10:19:10Z</time></trkpt><trkpt lat="39.41598745421257" lon="9.259104009678802"><ele>735.6666666666667</ele><time>2026-04-09T10:19:11Z</time></trkpt><trkpt lat="39.41602195404651" lon="9.259001090789504"><ele>737.3333333333334</ele><time>2026-04-09T10:19:12Z</time></trkpt><trkpt lat="39.416058094415355" lon="9.258918796281081"><ele>739.0</ele><time>2026-04-09T10:19:13Z</time></trkpt><trkpt lat="39.41610553014068" lon="9.258838111045536"><ele>734.6</ele><time>2026-04-09T10:19:14Z</time></trkpt><trkpt lat="39.41616298455096" lon="9.258771775738568"><ele>730.2</ele><time>2026-04-09T10:19:15Z</time></trkpt><trkpt lat="39.41622994367684" lon="9.258705596099494"><ele>725.8000000000001</ele><time>2026-04-09T10:19:16Z</time></trkpt><trkpt lat="39.41630264692476" lon="9.258631185589428"><ele>721.4000000000001</ele><time>2026-04-09T10:19:17Z</time></trkpt><trkpt lat="39.41636515849231" lon="9.258558507633195"><ele>717.0</ele><time>2026-04-09T10:19:18Z</time></trkpt><trkpt lat="39.41645344879442" lon="9.25846939170457"><ele>717.0</ele><time>2026-04-09T10:19:20.001Z</time></trkpt><trkpt lat="39.416559213204586" lon="9.258435891803785"><ele>717.0</ele><time>2026-04-09T10:19:22.001Z</time></trkpt><trkpt lat="39.41664952827174" lon="9.258520066793462"><ele>717.0</ele><time>2026-04-09T10:19:24.001Z</time></trkpt><trkpt lat="39.416685889787395" lon="9.258615317374838"><ele>717.0</ele><time>2026-04-09T10:19:25.001Z</time></trkpt><trkpt lat="39.416725008821665" lon="9.258724511639667"><ele>717.0</ele><time>2026-04-09T10:19:26.001Z</time></trkpt><trkpt lat="39.4167614770992" lon="9.25884623740707"><ele>719.2</ele><time>2026-04-09T10:19:27.001Z</time></trkpt><trkpt lat="39.41679907599435" lon="9.258981757858374"><ele>721.4000000000001</ele><time>2026-04-09T10:19:28.001Z</time></trkpt><trkpt lat="39.416830833716176" lon="9.259114410209245"><ele>723.5999999999999</ele><time>2026-04-09T10:19:29.001Z</time></trkpt><trkpt lat="39.41686168385137" lon="9.259242944256728"><ele>725.8</ele><time>2026-04-09T10:19:30.001Z</time></trkpt><trkpt lat="39.41690830942067" lon="9.259379917801866"><ele>728.0</ele><time>2026-04-09T10:19:31.001Z</time></trkpt><trkpt lat="39.416962845057725" lon="9.259518083513825"><ele>728.0</ele><time>2026-04-09T10:19:32.001Z</time></trkpt><trkpt lat="39.41701999387719" lon="9.259652432667256"><ele>728.0</ele><time>2026-04-09T10:19:33.001Z</time></trkpt><trkpt lat="39.4170743900094" lon="9.259772468506997"><ele>728.0</ele><time>2026-04-09T10:19:34.001Z</time></trkpt><trkpt lat="39.417121572862634" lon="9.25988256956967"><ele>728.0</ele><time>2026-04-09T10:19:35.001Z</time></trkpt><trkpt lat="39.417173084959366" lon="9.259978697597516"><ele>728.0</ele><time>2026-04-09T10:19:36.001Z</time></trkpt><trkpt lat="39.41724177918723" lon="9.260059248176779"><ele>723.8</ele><time>2026-04-09T10:19:37.001Z</time></trkpt><trkpt lat="39.41733130323678" lon="9.260127443333104"><ele>719.5999999999999</ele><time>2026-04-09T10:19:38.001Z</time></trkpt><trkpt lat="39.41742215315665" lon="9.260198776400893"><ele>715.4000000000001</ele><time>2026-04-09T10:19:39.001Z</time></trkpt><trkpt lat="39.41751630022445" lon="9.260274759880586"><ele>711.2</ele><time>2026-04-09T10:19:40.001Z</time></trkpt><trkpt lat="39.41760608411785" lon="9.260336562649103"><ele>707.0</ele><time>2026-04-09T10:19:41.001Z</time></trkpt><trkpt lat="39.41769089964863" lon="9.260376839146296"><ele>707.0</ele><time>2026-04-09T10:19:42.001Z</time></trkpt><trkpt lat="39.41777140145975" lon="9.26039156874416"><ele>707.0</ele><time>2026-04-09T10:19:43.001Z</time></trkpt><trkpt lat="39.417851353113164" lon="9.260386612367006"><ele>707.0</ele><time>2026-04-09T10:19:44.001Z</time></trkpt><trkpt lat="39.41792139731907" lon="9.260376764419602"><ele>707.0</ele><time>2026-04-09T10:19:45.001Z</time></trkpt><trkpt lat="39.41799745249307" lon="9.260334298291575"><ele>707.0</ele><time>2026-04-09T10:19:46.001Z</time></trkpt><trkpt lat="39.418037618835555" lon="9.260225516819395"><ele>707.0</ele><time>2026-04-09T10:19:47.001Z</time></trkpt><trkpt lat="39.418073721834595" lon="9.260126334243017"><ele>705.4000000000001</ele><time>2026-04-09T10:19:48.001Z</time></trkpt><trkpt lat="39.41808474747595" lon="9.260011538723829"><ele>703.8000000000001</ele><time>2026-04-09T10:19:49.001Z</time></trkpt><trkpt lat="39.41810297015202" lon="9.259872233112947"><ele>702.2</ele><time>2026-04-09T10:19:50.001Z</time></trkpt><trkpt lat="39.4181217753485" lon="9.259704034319348"><ele>700.6</ele><time>2026-04-09T10:19:51.001Z</time></trkpt><trkpt lat="39.41813534616936" lon="9.259555932719012"><ele>699.0</ele><time>2026-04-09T10:19:52.001Z</time></trkpt><trkpt lat="39.41813277620179" lon="9.259417014798027"><ele>699.0</ele><time>2026-04-09T10:19:53.001Z</time></trkpt><trkpt lat="39.418150922988126" lon="9.259285978182012"><ele>699.0</ele><time>2026-04-09T10:19:54.001Z</time></trkpt><trkpt lat="39.418157880292576" lon="9.259168159918548"><ele>699.0</ele><time>2026-04-09T10:19:55.001Z</time></trkpt><trkpt lat="39.418181901317354" lon="9.25905126799687"><ele>699.0</ele><time>2026-04-09T10:19:56.001Z</time></trkpt><trkpt lat="39.4182011242225" lon="9.258921508845727"><ele>699.0</ele><time>2026-04-09T10:19:57.001Z</time></trkpt><trkpt lat="39.41822256176576" lon="9.258773446795637"><ele>696.0</ele><time>2026-04-09T10:19:58.001Z</time></trkpt><trkpt lat="39.41827550139761" lon="9.258637135114984"><ele>693.0</ele><time>2026-04-09T10:19:59.001Z</time></trkpt><trkpt lat="39.41833148900009" lon="9.258516314562423"><ele>690.0</ele><time>2026-04-09T10:20:00.001Z</time></trkpt><trkpt lat="39.418389826605974" lon="9.258394885680646"><ele>687.0</ele><time>2026-04-09T10:20:01.001Z</time></trkpt><trkpt lat="39.4184625761512" lon="9.258280704612547"><ele>687.0</ele><time>2026-04-09T10:20:02.001Z</time></trkpt><trkpt lat="39.418515844017186" lon="9.258154951555515"><ele>687.0</ele><time>2026-04-09T10:20:03.001Z</time></trkpt><trkpt lat="39.418538819058455" lon="9.258019916766331"><ele>687.0</ele><time>2026-04-09T10:20:04.001Z</time></trkpt><trkpt lat="39.41857116648529" lon="9.25789065392689"><ele>687.0</ele><time>2026-04-09T10:20:05.001Z</time></trkpt><trkpt lat="39.41860021148082" lon="9.257745796511793"><ele>687.0</ele><time>2026-04-09T10:20:06.001Z</time></trkpt><trkpt lat="39.41862587803604" lon="9.257588563488662"><ele>683.75</ele><time>2026-04-09T10:20:07.001Z</time></trkpt><trkpt lat="39.41864694531899" lon="9.257433598175764"><ele>680.5</ele><time>2026-04-09T10:20:08.002Z</time></trkpt><trkpt lat="39.41866671709335" lon="9.257264410612189"><ele>677.25</ele><time>2026-04-09T10:20:09.002Z</time></trkpt><trkpt lat="39.41869486110255" lon="9.25710861588266"><ele>674.0</ele><time>2026-04-09T10:20:10.002Z</time></trkpt><trkpt lat="39.418720407119984" lon="9.256968155774402"><ele>671.0</ele><time>2026-04-09T10:20:11.002Z</time></trkpt><trkpt lat="39.41873455972047" lon="9.256831086950557"><ele>668.0</ele><time>2026-04-09T10:20:12.002Z</time></trkpt><trkpt lat="39.41874058114149" lon="9.256681751573595"><ele>665.0</ele><time>2026-04-09T10:20:13.002Z</time></trkpt><trkpt lat="39.418739961837225" lon="9.25653034945814"><ele>662.0</ele><time>2026-04-09T10:20:14.002Z</time></trkpt><trkpt lat="39.41871396341871" lon="9.256363072631546"><ele>660.6</ele><time>2026-04-09T10:20:15.002Z</time></trkpt><trkpt lat="39.418713585108954" lon="9.256210558097415"><ele>659.2</ele><time>2026-04-09T10:20:16.002Z</time></trkpt><trkpt lat="39.418696991269655" lon="9.256079823564415"><ele>657.8</ele><time>2026-04-09T10:20:17.002Z</time></trkpt><trkpt lat="39.418684643545106" lon="9.255959330329931"><ele>656.4</ele><time>2026-04-09T10:20:18.002Z</time></trkpt><trkpt lat="39.4186501200969" lon="9.25585031282399"><ele>655.0</ele><time>2026-04-09T10:20:19.002Z</time></trkpt><trkpt lat="39.41859930787748" lon="9.255726741696561"><ele>654.6</ele><time>2026-04-09T10:20:20.002Z</time></trkpt><trkpt lat="39.41855597633619" lon="9.255605104883193"><ele>654.2</ele><time>2026-04-09T10:20:21.002Z</time></trkpt><trkpt lat="39.41851207074455" lon="9.255491627417742"><ele>653.8</ele><time>2026-04-09T10:20:22.002Z</time></trkpt><trkpt lat="39.418481246548865" lon="9.255369096330938"><ele>653.4</ele><time>2026-04-09T10:20:23.002Z</time></trkpt><trkpt lat="39.41846875780923" lon="9.255240308976452"><ele>653.0</ele><time>2026-04-09T10:20:24.002Z</time></trkpt><trkpt lat="39.41844557450759" lon="9.25511412988582"><ele>653.0</ele><time>2026-04-09T10:20:25Z</time></trkpt><trkpt lat="39.41843065950308" lon="9.254980594261593"><ele>653.0</ele><time>2026-04-09T10:20:26Z</time></trkpt><trkpt lat="39.41841604366593" lon="9.254852091104969"><ele>653.0</ele><time>2026-04-09T10:20:27Z</time></trkpt><trkpt lat="39.41841451601734" lon="9.254730612965707"><ele>653.0</ele><time>2026-04-09T10:20:28Z</time></trkpt><trkpt lat="39.41843073871027" lon="9.25460921599604"><ele>653.0</ele><time>2026-04-09T10:20:29Z</time></trkpt><trkpt lat="39.4184561654357" lon="9.25449091463416"><ele>653.0</ele><time>2026-04-09T10:20:30Z</time></trkpt><trkpt lat="39.418482063287605" lon="9.254388891196522"><ele>653.0</ele><time>2026-04-09T10:20:31Z</time></trkpt><trkpt lat="39.418493803709936" lon="9.254293922603448"><ele>653.0</ele><time>2026-04-09T10:20:32Z</time></trkpt><trkpt lat="39.41848712880281" lon="9.254204117663223"><ele>653.0</ele><time>2026-04-09T10:20:33Z</time></trkpt><trkpt lat="39.41848335186773" lon="9.254097120432922"><ele>653.0</ele><time>2026-04-09T10:20:34Z</time></trkpt><trkpt lat="39.41844594598184" lon="9.254004590100262"><ele>653.0</ele><time>2026-04-09T10:20:35Z</time></trkpt><trkpt lat="39.41839587138897" lon="9.253916619343839"><ele>653.3333333333333</ele><time>2026-04-09T10:20:36Z</time></trkpt><trkpt lat="39.41834815451999" lon="9.25382262846388"><ele>653.6666666666666</ele><time>2026-04-09T10:20:37Z</time></trkpt><trkpt lat="39.41830289871723" lon="9.25372949909674"><ele>654.0</ele><time>2026-04-09T10:20:38Z</time></trkpt><trkpt lat="39.41826658952102" lon="9.253645300536002"><ele>654.3333333333334</ele><time>2026-04-09T10:20:39Z</time></trkpt><trkpt lat="39.41821541459468" lon="9.253496040096143"><ele>654.6666666666667</ele><time>2026-04-09T10:20:41Z</time></trkpt><trkpt lat="39.41820357035713" lon="9.253410840641573"><ele>655.0</ele><time>2026-04-09T10:20:42Z</time></trkpt><trkpt lat="39.418196087654856" lon="9.253310919821367"><ele>655.0</ele><time>2026-04-09T10:20:43Z</time></trkpt><trkpt lat="39.41820041974848" lon="9.253216446165709"><ele>655.0</ele><time>2026-04-09T10:20:44Z</time></trkpt><trkpt lat="39.41821011337391" lon="9.253106431095903"><ele>655.0</ele><time>2026-04-09T10:20:45Z</time></trkpt><trkpt lat="39.41822624139522" lon="9.252990938317849"><ele>655.0</ele><time>2026-04-09T10:20:46Z</time></trkpt><trkpt lat="39.4182595834702" lon="9.252890899670179"><ele>655.0</ele><time>2026-04-09T10:20:47Z</time></trkpt><trkpt lat="39.418302569859335" lon="9.25280080942936"><ele>655.0</ele><time>2026-04-09T10:20:48Z</time></trkpt><trkpt lat="39.41836530764078" lon="9.252726527712603"><ele>651.0</ele><time>2026-04-09T10:20:49Z</time></trkpt><trkpt lat="39.41844094192178" lon="9.252653770354062"><ele>647.0</ele><time>2026-04-09T10:20:50Z</time></trkpt><trkpt lat="39.4185274707318" lon="9.25257700495279"><ele>643.0</ele><time>2026-04-09T10:20:51Z</time></trkpt><trkpt lat="39.418601685311444" lon="9.252514385576934"><ele>639.0</ele><time>2026-04-09T10:20:52Z</time></trkpt><trkpt lat="39.41867330653238" lon="9.252454295894527"><ele>635.0</ele><time>2026-04-09T10:20:53Z</time></trkpt><trkpt lat="39.418748809178865" lon="9.252383468011317"><ele>633.0</ele><time>2026-04-09T10:20:54Z</time></trkpt><trkpt lat="39.41882240763948" lon="9.252322626130866"><ele>631.0</ele><time>2026-04-09T10:20:55Z</time></trkpt><trkpt lat="39.418887343607544" lon="9.25226485716684"><ele>629.0</ele><time>2026-04-09T10:20:56Z</time></trkpt><trkpt lat="39.41896240333556" lon="9.252194730026977"><ele>627.0</ele><time>2026-04-09T10:20:57Z</time></trkpt><trkpt lat="39.41904239336913" lon="9.252129254109358"><ele>625.0</ele><time>2026-04-09T10:20:58Z</time></trkpt><trkpt lat="39.41913315819188" lon="9.2520664631425"><ele>625.0</ele><time>2026-04-09T10:20:59Z</time></trkpt><trkpt lat="39.419228168011955" lon="9.251989788732216"><ele>625.0</ele><time>2026-04-09T10:21:00Z</time></trkpt><trkpt lat="39.4193132945528" lon="9.251902480986395"><ele>625.0</ele><time>2026-04-09T10:21:01Z</time></trkpt><trkpt lat="39.419394776901505" lon="9.251812432180467"><ele>625.0</ele><time>2026-04-09T10:21:02Z</time></trkpt><trkpt lat="39.41947132128734" lon="9.251721588817118"><ele>625.0</ele><time>2026-04-09T10:21:03Z</time></trkpt><trkpt lat="39.41954153420301" lon="9.251629026980146"><ele>625.0</ele><time>2026-04-09T10:21:04Z</time></trkpt><trkpt lat="39.41960644266704" lon="9.251541435269393"><ele>625.0</ele><time>2026-04-09T10:21:05Z</time></trkpt><trkpt lat="39.419677957251174" lon="9.251461296822654"><ele>625.0</ele><time>2026-04-09T10:21:06Z</time></trkpt><trkpt lat="39.41974555077878" lon="9.25139424518467"><ele>625.0</ele><time>2026-04-09T10:21:07Z</time></trkpt><trkpt lat="39.41981931528502" lon="9.251322395833215"><ele>625.0</ele><time>2026-04-09T10:21:08.001Z</time></trkpt><trkpt lat="39.419883232482086" lon="9.251259419089333"><ele>625.0</ele><time>2026-04-09T10:21:09.001Z</time></trkpt><trkpt lat="39.41994925963466" lon="9.251196356377392"><ele>623.5</ele><time>2026-04-09T10:21:10.001Z</time></trkpt><trkpt lat="39.42001128528827" lon="9.251136802139778"><ele>622.0</ele><time>2026-04-09T10:21:11.001Z</time></trkpt><trkpt lat="39.42007788541279" lon="9.251075851107634"><ele>620.5</ele><time>2026-04-09T10:21:12.001Z</time></trkpt><trkpt lat="39.42014909688723" lon="9.25101641962555"><ele>619.0</ele><time>2026-04-09T10:21:13.001Z</time></trkpt><trkpt lat="39.42021971035169" lon="9.250963055896197"><ele>617.5</ele><time>2026-04-09T10:21:14.001Z</time></trkpt><trkpt lat="39.42028467414074" lon="9.250901852585859"><ele>616.0</ele><time>2026-04-09T10:21:15.001Z</time></trkpt><trkpt lat="39.420337123410484" lon="9.25081789618595"><ele>616.0</ele><time>2026-04-09T10:21:16.001Z</time></trkpt><trkpt lat="39.42038247559028" lon="9.25072931610385"><ele>616.0</ele><time>2026-04-09T10:21:17.001Z</time></trkpt><trkpt lat="39.420428395577154" lon="9.250627544170761"><ele>616.0</ele><time>2026-04-09T10:21:18.001Z</time></trkpt><trkpt lat="39.42046959219154" lon="9.250526383909705"><ele>616.0</ele><time>2026-04-09T10:21:19.001Z</time></trkpt><trkpt lat="39.4205138201641" lon="9.250424440147128"><ele>616.0</ele><time>2026-04-09T10:21:20.001Z</time></trkpt><trkpt lat="39.420554189984074" lon="9.250325914564938"><ele>616.0</ele><time>2026-04-09T10:21:21.001Z</time></trkpt><trkpt lat="39.42059393377128" lon="9.250243567527002"><ele>613.5</ele><time>2026-04-09T10:21:22.001Z</time></trkpt><trkpt lat="39.42061130445034" lon="9.250147592219756"><ele>611.0</ele><time>2026-04-09T10:21:23.001Z</time></trkpt><trkpt lat="39.42063476915121" lon="9.250042273046715"><ele>608.5</ele><time>2026-04-09T10:21:24.001Z</time></trkpt><trkpt lat="39.42066356240164" lon="9.24994835017696"><ele>606.0</ele><time>2026-04-09T10:21:25.001Z</time></trkpt><trkpt lat="39.42069414685937" lon="9.249860934232968"><ele>603.5</ele><time>2026-04-09T10:21:26.001Z</time></trkpt><trkpt lat="39.420721591438436" lon="9.249775808668145"><ele>601.0</ele><time>2026-04-09T10:21:27.001Z</time></trkpt><trkpt lat="39.42076603010986" lon="9.249695869274516"><ele>599.5</ele><time>2026-04-09T10:21:28.001Z</time></trkpt><trkpt lat="39.420805922229505" lon="9.249622715856631"><ele>598.0</ele><time>2026-04-09T10:21:29.001Z</time></trkpt><trkpt lat="39.42085325043623" lon="9.24952860425689"><ele>596.5</ele><time>2026-04-09T10:21:31.001Z</time></trkpt><trkpt lat="39.42083123265552" lon="9.2494299090269"><ele>595.0</ele><time>2026-04-09T10:21:33.001Z</time></trkpt><trkpt lat="39.420759017942174" lon="9.249416076274988"><ele>593.5</ele><time>2026-04-09T10:21:34.001Z</time></trkpt><trkpt lat="39.420692174306446" lon="9.249463783857571"><ele>592.0</ele><time>2026-04-09T10:21:35.001Z</time></trkpt><trkpt lat="39.42064255088066" lon="9.249568831284273"><ele>592.0</ele><time>2026-04-09T10:21:36.001Z</time></trkpt><trkpt lat="39.42055452908852" lon="9.249671799853838"><ele>592.0</ele><time>2026-04-09T10:21:37.001Z</time></trkpt><trkpt lat="39.420495248012685" lon="9.249767210636588"><ele>592.0</ele><time>2026-04-09T10:21:38.001Z</time></trkpt><trkpt lat="39.42044878322218" lon="9.249857852280659"><ele>592.0</ele><time>2026-04-09T10:21:39.001Z</time></trkpt><trkpt lat="39.420403189035994" lon="9.24995762684091"><ele>592.0</ele><time>2026-04-09T10:21:40.001Z</time></trkpt><trkpt lat="39.42036512660948" lon="9.250074090207429"><ele>591.2</ele><time>2026-04-09T10:21:41.001Z</time></trkpt><trkpt lat="39.42029607389365" lon="9.250159473869733"><ele>590.4000000000001</ele><time>2026-04-09T10:21:42.001Z</time></trkpt><trkpt lat="39.420233007741615" lon="9.250241763832967"><ele>589.5999999999999</ele><time>2026-04-09T10:21:43.001Z</time></trkpt><trkpt lat="39.42016590120991" lon="9.250314404867286"><ele>588.8</ele><time>2026-04-09T10:21:44.001Z</time></trkpt><trkpt lat="39.420089408812565" lon="9.25037921514748"><ele>588.0</ele><time>2026-04-09T10:21:45.001Z</time></trkpt><trkpt lat="39.41999768354861" lon="9.250425787068906"><ele>588.0</ele><time>2026-04-09T10:21:46.001Z</time></trkpt><trkpt lat="39.41990254484129" lon="9.250436980064222"><ele>588.0</ele><time>2026-04-09T10:21:47.001Z</time></trkpt><trkpt lat="39.41980415051956" lon="9.250457613795914"><ele>588.0</ele><time>2026-04-09T10:21:48.001Z</time></trkpt><trkpt lat="39.41969965879137" lon="9.25047845642806"><ele>588.0</ele><time>2026-04-09T10:21:49.001Z</time></trkpt><trkpt lat="39.41959729124673" lon="9.250498079162403"><ele>588.0</ele><time>2026-04-09T10:21:50.001Z</time></trkpt><trkpt lat="39.41948926196984" lon="9.250520390669235"><ele>590.5</ele><time>2026-04-09T10:21:51.001Z</time></trkpt><trkpt lat="39.41937982457243" lon="9.250550565970348"><ele>593.0</ele><time>2026-04-09T10:21:52.001Z</time></trkpt><trkpt lat="39.41926641980029" lon="9.250589785126031"><ele>595.5</ele><time>2026-04-09T10:21:53.001Z</time></trkpt><trkpt lat="39.41916358113799" lon="9.250630990447704"><ele>598.0</ele><time>2026-04-09T10:21:54.001Z</time></trkpt><trkpt lat="39.419070765154345" lon="9.250720334638396"><ele>598.0</ele><time>2026-04-09T10:21:55.002Z</time></trkpt><trkpt lat="39.418984643722645" lon="9.250776384745452"><ele>598.0</ele><time>2026-04-09T10:21:56.002Z</time></trkpt><trkpt lat="39.418935898972585" lon="9.250886964897273"><ele>598.0</ele><time>2026-04-09T10:21:57.002Z</time></trkpt><trkpt lat="39.41887863568768" lon="9.250993824059428"><ele>598.0</ele><time>2026-04-09T10:21:58.002Z</time></trkpt><trkpt lat="39.418796666166365" lon="9.251066251578715"><ele>598.0</ele><time>2026-04-09T10:21:59.002Z</time></trkpt><trkpt lat="39.41871187679216" lon="9.251112903666533"><ele>591.0</ele><time>2026-04-09T10:22:00.002Z</time></trkpt><trkpt lat="39.418604725436495" lon="9.251148036807912"><ele>584.0</ele><time>2026-04-09T10:22:01.002Z</time></trkpt><trkpt lat="39.41848607999259" lon="9.25119498499952"><ele>577.0</ele><time>2026-04-09T10:22:02.002Z</time></trkpt><trkpt lat="39.418351293673155" lon="9.251252919996507"><ele>570.0</ele><time>2026-04-09T10:22:03.002Z</time></trkpt><trkpt lat="39.418228039408454" lon="9.251306868409984"><ele>570.0</ele><time>2026-04-09T10:22:04.002Z</time></trkpt><trkpt lat="39.418098663680844" lon="9.251357640194062"><ele>570.0</ele><time>2026-04-09T10:22:05.002Z</time></trkpt><trkpt lat="39.41796455714817" lon="9.251408351249843"><ele>570.0</ele><time>2026-04-09T10:22:06.002Z</time></trkpt><trkpt lat="39.41783197055814" lon="9.251457711240821"><ele>570.0</ele><time>2026-04-09T10:22:07.002Z</time></trkpt><trkpt lat="39.41771016518406" lon="9.251502270070764"><ele>571.5</ele><time>2026-04-09T10:22:08.002Z</time></trkpt><trkpt lat="39.417600747152854" lon="9.251539356284598"><ele>573.0</ele><time>2026-04-09T10:22:09.002Z</time></trkpt><trkpt lat="39.417505950094984" lon="9.251571210216813"><ele>574.5</ele><time>2026-04-09T10:22:10.002Z</time></trkpt><trkpt lat="39.417425441354595" lon="9.251605051821233"><ele>576.0</ele><time>2026-04-09T10:22:11.002Z</time></trkpt><trkpt lat="39.41737677800008" lon="9.2516594185465"><ele>577.5</ele><time>2026-04-09T10:22:12.002Z</time></trkpt><trkpt lat="39.41730690004336" lon="9.251686194230285"><ele>579.0</ele><time>2026-04-09T10:22:14.002Z</time></trkpt><trkpt lat="39.41728024687789" lon="9.251565618021518"><ele>579.0</ele><time>2026-04-09T10:22:17.002Z</time></trkpt><trkpt lat="39.41739419408565" lon="9.251473487384239"><ele>579.0</ele><time>2026-04-09T10:22:19.002Z</time></trkpt><trkpt lat="39.41747375109678" lon="9.251403150935777"><ele>579.0</ele><time>2026-04-09T10:22:20.002Z</time></trkpt><trkpt lat="39.41756320902165" lon="9.251299082365039"><ele>579.0</ele><time>2026-04-09T10:22:21.002Z</time></trkpt><trkpt lat="39.41766926969616" lon="9.251220915422055"><ele>577.2</ele><time>2026-04-09T10:22:22.002Z</time></trkpt><trkpt lat="39.41775236752133" lon="9.251147652683764"><ele>575.4</ele><time>2026-04-09T10:22:23.002Z</time></trkpt><trkpt lat="39.417835187325196" lon="9.251072789317695"><ele>573.6</ele><time>2026-04-09T10:22:24.002Z</time></trkpt><trkpt lat="39.41790791987928" lon="9.251002399313053"><ele>571.8</ele><time>2026-04-09T10:22:25.002Z</time></trkpt><trkpt lat="39.417980288629195" lon="9.25093527627326"><ele>570.0</ele><time>2026-04-09T10:22:26.002Z</time></trkpt><trkpt lat="39.4180427382033" lon="9.250858056090275"><ele>570.0</ele><time>2026-04-09T10:22:27.002Z</time></trkpt><trkpt lat="39.41811051106694" lon="9.25077610984169"><ele>570.0</ele><time>2026-04-09T10:22:28.002Z</time></trkpt><trkpt lat="39.41816049256951" lon="9.250684564550774"><ele>570.0</ele><time>2026-04-09T10:22:29.002Z</time></trkpt><trkpt lat="39.41821959277664" lon="9.250586847304879"><ele>570.0</ele><time>2026-04-09T10:22:30.002Z</time></trkpt><trkpt lat="39.418283322235496" lon="9.25045352881919"><ele>570.0</ele><time>2026-04-09T10:22:31Z</time></trkpt><trkpt lat="39.41832962032222" lon="9.250317088107273"><ele>564.2</ele><time>2026-04-09T10:22:32Z</time></trkpt><trkpt lat="39.418371531349734" lon="9.250188547551902"><ele>558.4</ele><time>2026-04-09T10:22:33Z</time></trkpt><trkpt lat="39.41840528486732" lon="9.250062943739639"><ele>552.6</ele><time>2026-04-09T10:22:34Z</time></trkpt><trkpt lat="39.41843680048451" lon="9.249922903956106"><ele>546.8</ele><time>2026-04-09T10:22:35Z</time></trkpt><trkpt lat="39.41848418464151" lon="9.249786451736577"><ele>541.0</ele><time>2026-04-09T10:22:36Z</time></trkpt><trkpt lat="39.418533349120786" lon="9.249648095809512"><ele>537.6</ele><time>2026-04-09T10:22:37Z</time></trkpt><trkpt lat="39.41858402052252" lon="9.24951621813151"><ele>534.2</ele><time>2026-04-09T10:22:38Z</time></trkpt><trkpt lat="39.41862198176794" lon="9.249399986223418"><ele>530.8</ele><time>2026-04-09T10:22:39Z</time></trkpt><trkpt lat="39.41865358752616" lon="9.249307558056021"><ele>527.4</ele><time>2026-04-09T10:22:40Z</time></trkpt><trkpt lat="39.41869226799571" lon="9.249228663615574"><ele>524.0</ele><time>2026-04-09T10:22:41Z</time></trkpt><trkpt lat="39.41878212198852" lon="9.249106013375199"><ele>523.0</ele><time>2026-04-09T10:22:43Z</time></trkpt><trkpt lat="39.418840426150105" lon="9.249065890307792"><ele>522.0</ele><time>2026-04-09T10:22:44Z</time></trkpt><trkpt lat="39.41896619024869" lon="9.249028338385093"><ele>521.0</ele><time>2026-04-09T10:22:46Z</time></trkpt><trkpt lat="39.41905898990106" lon="9.248971702578231"><ele>520.0</ele><time>2026-04-09T10:22:48Z</time></trkpt><trkpt lat="39.41907049985023" lon="9.248857581213002"><ele>519.0</ele><time>2026-04-09T10:22:51Z</time></trkpt><trkpt lat="39.41899634594171" lon="9.248805370119731"><ele>519.0</ele><time>2026-04-09T10:22:53Z</time></trkpt><trkpt lat="39.41892934642583" lon="9.248801276635328"><ele>519.0</ele><time>2026-04-09T10:22:54Z</time></trkpt><trkpt lat="39.418861738610985" lon="9.248770346658839"><ele>519.0</ele><time>2026-04-09T10:22:55Z</time></trkpt><trkpt lat="39.4187819839782" lon="9.248742113004036"><ele>519.0</ele><time>2026-04-09T10:22:56Z</time></trkpt><trkpt lat="39.41869793070968" lon="9.248715592173209"><ele>519.0</ele><time>2026-04-09T10:22:57Z</time></trkpt><trkpt lat="39.41862865094293" lon="9.248700848352497"><ele>519.0</ele><time>2026-04-09T10:22:58Z</time></trkpt><trkpt lat="39.418559048370646" lon="9.248717865161721"><ele>519.0</ele><time>2026-04-09T10:22:59.001Z</time></trkpt><trkpt lat="39.418493142177695" lon="9.248787429746372"><ele>520.0</ele><time>2026-04-09T10:23:00.001Z</time></trkpt><trkpt lat="39.41843071414037" lon="9.248879224340142"><ele>521.0</ele><time>2026-04-09T10:23:01.001Z</time></trkpt><trkpt lat="39.418350158740886" lon="9.249006000363158"><ele>522.0</ele><time>2026-04-09T10:23:02.001Z</time></trkpt><trkpt lat="39.418286180618445" lon="9.249116172791595"><ele>523.0</ele><time>2026-04-09T10:23:03.001Z</time></trkpt><trkpt lat="39.418242045855024" lon="9.249195772987632"><ele>524.0</ele><time>2026-04-09T10:23:04.001Z</time></trkpt><trkpt lat="39.418181127440405" lon="9.24929592104002"><ele>524.0</ele><time>2026-04-09T10:23:06.001Z</time></trkpt><trkpt lat="39.41812666554111" lon="9.249238685343839"><ele>524.0</ele><time>2026-04-09T10:23:09.001Z</time></trkpt><trkpt lat="39.418147310270996" lon="9.249059963060608"><ele>524.0</ele><time>2026-04-09T10:23:11.001Z</time></trkpt><trkpt lat="39.418183542975655" lon="9.248944592950961"><ele>524.0</ele><time>2026-04-09T10:23:12.001Z</time></trkpt><trkpt lat="39.41822424718445" lon="9.248813118576663"><ele>524.0</ele><time>2026-04-09T10:23:13.001Z</time></trkpt><trkpt lat="39.418260574047245" lon="9.248671355166726"><ele>521.8</ele><time>2026-04-09T10:23:14.001Z</time></trkpt><trkpt lat="39.41830100983037" lon="9.24853426698652"><ele>519.5999999999999</ele><time>2026-04-09T10:23:15.001Z</time></trkpt><trkpt lat="39.41834280569749" lon="9.248407358653644"><ele>517.4</ele><time>2026-04-09T10:23:16.001Z</time></trkpt><trkpt lat="39.41838178057394" lon="9.24829309074589"><ele>515.1999999999999</ele><time>2026-04-09T10:23:17.001Z</time></trkpt><trkpt lat="39.418428993368444" lon="9.248203395073077"><ele>513.0</ele><time>2026-04-09T10:23:18.001Z</time></trkpt><trkpt lat="39.41848613515967" lon="9.248144816421284"><ele>513.5</ele><time>2026-04-09T10:23:19.001Z</time></trkpt><trkpt lat="39.418547782173405" lon="9.248099003912165"><ele>514.0</ele><time>2026-04-09T10:23:20.001Z</time></trkpt><trkpt lat="39.418613662731" lon="9.248072881110298"><ele>514.5</ele><time>2026-04-09T10:23:21.001Z</time></trkpt><trkpt lat="39.41867519025351" lon="9.248049321025459"><ele>515.0</ele><time>2026-04-09T10:23:22.001Z</time></trkpt><trkpt lat="39.41875335685255" lon="9.247996382099178"><ele>515.5</ele><time>2026-04-09T10:23:24.001Z</time></trkpt><trkpt lat="39.41882253207042" lon="9.247958262423628"><ele>516.0</ele><time>2026-04-09T10:23:27.001Z</time></trkpt><trkpt lat="39.418772334950845" lon="9.247843700813352"><ele>516.0</ele><time>2026-04-09T10:23:28.001Z</time></trkpt><trkpt lat="39.418738424841244" lon="9.247769238476582"><ele>516.0</ele><time>2026-04-09T10:23:35.001Z</time></trkpt><trkpt lat="39.418721836632876" lon="9.247675219932452"><ele>516.0</ele><time>2026-04-09T10:23:57.002Z</time></trkpt><trkpt lat="39.4187233469446" lon="9.247590918322583"><ele>516.0</ele><time>2026-04-09T10:24:01.002Z</time></trkpt><trkpt lat="39.41870729581849" lon="9.24741686101324"><ele>516.0</ele><time>2026-04-09T10:25:39.001Z</time></trkpt><trkpt lat="39.41868043255396" lon="9.247237395571421"><ele>518.0</ele><time>2026-04-09T10:25:40.001Z</time></trkpt><trkpt lat="39.41865783545203" lon="9.247089140358005"><ele>520.0</ele><time>2026-04-09T10:25:41.001Z</time></trkpt><trkpt lat="39.41863659776282" lon="9.246949347240841"><ele>522.0</ele><time>2026-04-09T10:25:42.001Z</time></trkpt><trkpt lat="39.418616487462884" lon="9.24680345409374"><ele>524.0</ele><time>2026-04-09T10:25:43.001Z</time></trkpt><trkpt lat="39.41861018631849" lon="9.24666678194266"><ele>526.0</ele><time>2026-04-09T10:25:44.001Z</time></trkpt><trkpt lat="39.418618843929806" lon="9.246520530585093"><ele>528.25</ele><time>2026-04-09T10:25:45.001Z</time></trkpt><trkpt lat="39.41864260848177" lon="9.24635473481716"><ele>530.5</ele><time>2026-04-09T10:25:46.001Z</time></trkpt><trkpt lat="39.418684391210164" lon="9.246209505663636"><ele>532.75</ele><time>2026-04-09T10:25:47.001Z</time></trkpt><trkpt lat="39.418732102779586" lon="9.246075513073002"><ele>535.0</ele><time>2026-04-09T10:25:48.001Z</time></trkpt><trkpt lat="39.418793103258416" lon="9.245947635522615"><ele>529.2</ele><time>2026-04-09T10:25:49.001Z</time></trkpt><trkpt lat="39.418868860307484" lon="9.24582646779911"><ele>523.4</ele><time>2026-04-09T10:25:50.002Z</time></trkpt><trkpt lat="39.418944889530394" lon="9.245720924772703"><ele>517.6</ele><time>2026-04-09T10:25:51.002Z</time></trkpt><trkpt lat="39.41899823536793" lon="9.245615111149212"><ele>511.8</ele><time>2026-04-09T10:25:52.002Z</time></trkpt><trkpt lat="39.41903253733593" lon="9.245489516505861"><ele>506.0</ele><time>2026-04-09T10:25:53.002Z</time></trkpt><trkpt lat="39.41904961847738" lon="9.245345966049419"><ele>506.0</ele><time>2026-04-09T10:25:54.002Z</time></trkpt><trkpt lat="39.419052420415646" lon="9.245202643636567"><ele>506.0</ele><time>2026-04-09T10:25:55.002Z</time></trkpt><trkpt lat="39.419050796845774" lon="9.245085824605335"><ele>506.0</ele><time>2026-04-09T10:25:56.002Z</time></trkpt><trkpt lat="39.41905866519703" lon="9.24498697743622"><ele>506.0</ele><time>2026-04-09T10:25:57.002Z</time></trkpt><trkpt lat="39.41911212089865" lon="9.244885963273152"><ele>506.0</ele><time>2026-04-09T10:25:59.002Z</time></trkpt><trkpt lat="39.41917743458388" lon="9.244846579002843"><ele>506.0</ele><time>2026-04-09T10:26:02.002Z</time></trkpt></trkseg><trkseg><trkpt lat="39.419213583759806" lon="9.244806161131766"><ele>506.0</ele><time>2026-04-09T11:14:59Z</time></trkpt><trkpt lat="39.419295814625606" lon="9.244799498225314"><ele>506.0</ele><time>2026-04-09T11:15:01Z</time></trkpt><trkpt lat="39.419381568193536" lon="9.244818001468442"><ele>506.0</ele><time>2026-04-09T11:15:03Z</time></trkpt><trkpt lat="39.41949401223932" lon="9.244850520084224"><ele>506.0</ele><time>2026-04-09T11:15:05Z</time></trkpt><trkpt lat="39.419586384086166" lon="9.24484919780213"><ele>506.0</ele><time>2026-04-09T11:15:07Z</time></trkpt><trkpt lat="39.4196596816645" lon="9.244764833133225"><ele>506.66666666666663</ele><time>2026-04-09T11:15:41Z</time></trkpt><trkpt lat="39.41971771449345" lon="9.244716246770473"><ele>507.3333333333333</ele><time>2026-04-09T11:15:42Z</time></trkpt><trkpt lat="39.419779384205896" lon="9.244657772112161"><ele>508.0</ele><time>2026-04-09T11:15:43Z</time></trkpt><trkpt lat="39.4198377226416" lon="9.244583863555494"><ele>508.66666666666663</ele><time>2026-04-09T11:15:44Z</time></trkpt><trkpt lat="39.419901867695806" lon="9.24449472997278"><ele>509.3333333333333</ele><time>2026-04-09T11:15:45Z</time></trkpt><trkpt lat="39.41996856743047" lon="9.244395710166753"><ele>510.0</ele><time>2026-04-09T11:15:46Z</time></trkpt><trkpt lat="39.42003918838226" lon="9.244295764458673"><ele>510.0</ele><time>2026-04-09T11:15:47Z</time></trkpt><trkpt lat="39.420115388146996" lon="9.24419745186189"><ele>510.0</ele><time>2026-04-09T11:15:48Z</time></trkpt><trkpt lat="39.4201888411088" lon="9.244109843768031"><ele>510.0</ele><time>2026-04-09T11:15:49Z</time></trkpt><trkpt lat="39.420258163235594" lon="9.244032587878799"><ele>510.0</ele><time>2026-04-09T11:15:50Z</time></trkpt><trkpt lat="39.42032131421921" lon="9.243950126490482"><ele>510.0</ele><time>2026-04-09T11:15:51Z</time></trkpt><trkpt lat="39.42039434333854" lon="9.24386666182153"><ele>507.8</ele><time>2026-04-09T11:15:51.999Z</time></trkpt><trkpt lat="39.42046624113993" lon="9.243776228930233"><ele>505.6</ele><time>2026-04-09T11:15:52.999Z</time></trkpt><trkpt lat="39.42053506767331" lon="9.243692103476041"><ele>503.4</ele><time>2026-04-09T11:15:53.999Z</time></trkpt><trkpt lat="39.42060250895715" lon="9.24362119460718"><ele>501.2</ele><time>2026-04-09T11:15:54.999Z</time></trkpt><trkpt lat="39.42067098224993" lon="9.24355297626147"><ele>499.0</ele><time>2026-04-09T11:15:55.999Z</time></trkpt><trkpt lat="39.42074400711659" lon="9.243481370498827"><ele>499.0</ele><time>2026-04-09T11:15:56.999Z</time></trkpt><trkpt lat="39.42081991648104" lon="9.243413898863738"><ele>499.0</ele><time>2026-04-09T11:15:57.999Z</time></trkpt><trkpt lat="39.420896801638825" lon="9.243343387339593"><ele>499.0</ele><time>2026-04-09T11:15:58.999Z</time></trkpt><trkpt lat="39.42097640166869" lon="9.243273535621853"><ele>499.0</ele><time>2026-04-09T11:15:59.999Z</time></trkpt><trkpt lat="39.42104810842603" lon="9.24319524641664"><ele>499.0</ele><time>2026-04-09T11:16:00.999Z</time></trkpt><trkpt lat="39.42110104980084" lon="9.243094138621766"><ele>502.0</ele><time>2026-04-09T11:16:01.999Z</time></trkpt><trkpt lat="39.421135475326984" lon="9.242977370557217"><ele>505.0</ele><time>2026-04-09T11:16:02.999Z</time></trkpt><trkpt lat="39.4211480848848" lon="9.242840619910934"><ele>508.0</ele><time>2026-04-09T11:16:03.999Z</time></trkpt><trkpt lat="39.42115043899671" lon="9.242690664666142"><ele>511.0</ele><time>2026-04-09T11:16:04.999Z</time></trkpt><trkpt lat="39.42114308266932" lon="9.242526962640685"><ele>514.0</ele><time>2026-04-09T11:16:05.999Z</time></trkpt><trkpt lat="39.42114024771167" lon="9.242353106960824"><ele>512.75</ele><time>2026-04-09T11:16:06.999Z</time></trkpt><trkpt lat="39.42114124445025" lon="9.242177937127348"><ele>511.5</ele><time>2026-04-09T11:16:07.999Z</time></trkpt><trkpt lat="39.42113888128789" lon="9.241989409369928"><ele>510.25</ele><time>2026-04-09T11:16:08.999Z</time></trkpt><trkpt lat="39.42113857720104" lon="9.241796983074941"><ele>509.0</ele><time>2026-04-09T11:16:09.999Z</time></trkpt><trkpt lat="39.421133322609805" lon="9.241617665701806"><ele>508.25</ele><time>2026-04-09T11:16:10.999Z</time></trkpt><trkpt lat="39.42112352222375" lon="9.241446049358112"><ele>507.5</ele><time>2026-04-09T11:16:11.999Z</time></trkpt><trkpt lat="39.42111304953115" lon="9.241285004911601"><ele>506.75</ele><time>2026-04-09T11:16:12.999Z</time></trkpt><trkpt lat="39.421105594291014" lon="9.241131497205743"><ele>506.0</ele><time>2026-04-09T11:16:13.999Z</time></trkpt><trkpt lat="39.42109517377501" lon="9.24099200347629"><ele>506.0</ele><time>2026-04-09T11:16:14.999Z</time></trkpt><trkpt lat="39.42108447970015" lon="9.240859289822417"><ele>506.0</ele><time>2026-04-09T11:16:15.999Z</time></trkpt><trkpt lat="39.42108359755261" lon="9.240728847130336"><ele>506.0</ele><time>2026-04-09T11:16:16.999Z</time></trkpt><trkpt lat="39.42110059324016" lon="9.240599701537729"><ele>506.0</ele><time>2026-04-09T11:16:17.999Z</time></trkpt><trkpt lat="39.42113626010008" lon="9.240478115666884"><ele>506.0</ele><time>2026-04-09T11:16:18.999Z</time></trkpt><trkpt lat="39.421220444085215" lon="9.24038080704602"><ele>501.0</ele><time>2026-04-09T11:16:19.999Z</time></trkpt><trkpt lat="39.42132722421982" lon="9.240308617431026"><ele>496.0</ele><time>2026-04-09T11:16:20.999Z</time></trkpt><trkpt lat="39.4214381080221" lon="9.240247566705287"><ele>491.0</ele><time>2026-04-09T11:16:22Z</time></trkpt><trkpt lat="39.42155315904824" lon="9.240199240837914"><ele>486.0</ele><time>2026-04-09T11:16:23Z</time></trkpt><trkpt lat="39.42166030732542" lon="9.240123440714658"><ele>486.0</ele><time>2026-04-09T11:16:24Z</time></trkpt><trkpt lat="39.42175008421189" lon="9.239992876829122"><ele>486.0</ele><time>2026-04-09T11:16:25Z</time></trkpt><trkpt lat="39.421827003564275" lon="9.239840276877118"><ele>486.0</ele><time>2026-04-09T11:16:26Z</time></trkpt><trkpt lat="39.421876603825446" lon="9.239682207678971"><ele>486.0</ele><time>2026-04-09T11:16:27Z</time></trkpt><trkpt lat="39.42188140062015" lon="9.239530376197617"><ele>489.0</ele><time>2026-04-09T11:16:28Z</time></trkpt><trkpt lat="39.421827468663054" lon="9.239384205476009"><ele>492.0</ele><time>2026-04-09T11:16:29Z</time></trkpt><trkpt lat="39.42177359778953" lon="9.239224585066927"><ele>495.0</ele><time>2026-04-09T11:16:30Z</time></trkpt><trkpt lat="39.42171176755674" lon="9.239087683967346"><ele>498.0</ele><time>2026-04-09T11:16:31Z</time></trkpt><trkpt lat="39.42168140803091" lon="9.23895198570424"><ele>500.59999999999997</ele><time>2026-04-09T11:16:32Z</time></trkpt><trkpt lat="39.42168631316499" lon="9.238820454672055"><ele>503.19999999999993</ele><time>2026-04-09T11:16:33Z</time></trkpt><trkpt lat="39.421735595256756" lon="9.238703236394366"><ele>505.8</ele><time>2026-04-09T11:16:34Z</time></trkpt><trkpt lat="39.42180267281331" lon="9.23860416708177"><ele>508.4</ele><time>2026-04-09T11:16:35Z</time></trkpt><trkpt lat="39.421896460787615" lon="9.23853737786151"><ele>511.0</ele><time>2026-04-09T11:16:36Z</time></trkpt><trkpt lat="39.42200651831384" lon="9.238515268540647"><ele>511.0</ele><time>2026-04-09T11:16:37Z</time></trkpt><trkpt lat="39.42214817620353" lon="9.238551096248491"><ele>511.0</ele><time>2026-04-09T11:16:38Z</time></trkpt><trkpt lat="39.422280644147754" lon="9.238573469757405"><ele>511.0</ele><time>2026-04-09T11:16:39Z</time></trkpt><trkpt lat="39.422399717361785" lon="9.238585399058444"><ele>511.0</ele><time>2026-04-09T11:16:40Z</time></trkpt><trkpt lat="39.4225073243628" lon="9.238588885253678"><ele>508.6</ele><time>2026-04-09T11:16:41Z</time></trkpt><trkpt lat="39.422609441347134" lon="9.238580912691955"><ele>506.20000000000005</ele><time>2026-04-09T11:16:42Z</time></trkpt><trkpt lat="39.422703618151246" lon="9.23854000492927"><ele>503.79999999999995</ele><time>2026-04-09T11:16:43Z</time></trkpt><trkpt lat="39.42279256035846" lon="9.2384508976282"><ele>501.4</ele><time>2026-04-09T11:16:44Z</time></trkpt><trkpt lat="39.4228591621969" lon="9.238313446735065"><ele>499.0</ele><time>2026-04-09T11:16:45Z</time></trkpt><trkpt lat="39.42289279046911" lon="9.238136139228773"><ele>496.5</ele><time>2026-04-09T11:16:46Z</time></trkpt><trkpt lat="39.42291968521714" lon="9.237949006485412"><ele>494.0</ele><time>2026-04-09T11:16:47Z</time></trkpt><trkpt lat="39.42295543402263" lon="9.23776761380718"><ele>491.5</ele><time>2026-04-09T11:16:48Z</time></trkpt><trkpt lat="39.42300272823772" lon="9.237593053951235"><ele>489.0</ele><time>2026-04-09T11:16:49Z</time></trkpt><trkpt lat="39.42306451288772" lon="9.237438684856244"><ele>492.0</ele><time>2026-04-09T11:16:50Z</time></trkpt><trkpt lat="39.42314681222299" lon="9.237300705562602"><ele>495.0</ele><time>2026-04-09T11:16:51Z</time></trkpt><trkpt lat="39.42324587278994" lon="9.237162879407501"><ele>498.0</ele><time>2026-04-09T11:16:52Z</time></trkpt><trkpt lat="39.42334802422647" lon="9.237019438239058"><ele>501.0</ele><time>2026-04-09T11:16:53Z</time></trkpt><trkpt lat="39.42343916810686" lon="9.236874190698103"><ele>501.0</ele><time>2026-04-09T11:16:54Z</time></trkpt><trkpt lat="39.42353460023024" lon="9.236729327508806"><ele>501.0</ele><time>2026-04-09T11:16:55Z</time></trkpt><trkpt lat="39.42363024364538" lon="9.236582540174252"><ele>501.0</ele><time>2026-04-09T11:16:56Z</time></trkpt><trkpt lat="39.42372488957921" lon="9.23643381256185"><ele>501.0</ele><time>2026-04-09T11:16:57Z</time></trkpt><trkpt lat="39.42381024185913" lon="9.236291963916708"><ele>500.0</ele><time>2026-04-09T11:16:58Z</time></trkpt><trkpt lat="39.423893074416455" lon="9.236154355040219"><ele>499.0</ele><time>2026-04-09T11:16:59Z</time></trkpt><trkpt lat="39.42398955619029" lon="9.23600580763043"><ele>498.0</ele><time>2026-04-09T11:17:00Z</time></trkpt><trkpt lat="39.42409309285916" lon="9.235848707041914"><ele>497.0</ele><time>2026-04-09T11:17:01Z</time></trkpt><trkpt lat="39.42419999746289" lon="9.23568729506324"><ele>504.66666666666663</ele><time>2026-04-09T11:17:02Z</time></trkpt><trkpt lat="39.42430352727528" lon="9.23551795028598"><ele>512.3333333333334</ele><time>2026-04-09T11:17:03Z</time></trkpt><trkpt lat="39.42441077068482" lon="9.235346038437514"><ele>520.0</ele><time>2026-04-09T11:17:04Z</time></trkpt><trkpt lat="39.4244986690674" lon="9.23518395652375"><ele>520.0</ele><time>2026-04-09T11:17:05Z</time></trkpt><trkpt lat="39.424559334839444" lon="9.235026820421126"><ele>520.0</ele><time>2026-04-09T11:17:06Z</time></trkpt><trkpt lat="39.42460020132278" lon="9.234844069082063"><ele>520.0</ele><time>2026-04-09T11:17:07Z</time></trkpt><trkpt lat="39.42463703067133" lon="9.234603041618357"><ele>513.0</ele><time>2026-04-09T11:17:08Z</time></trkpt><trkpt lat="39.424689716382204" lon="9.23434220902178"><ele>506.0</ele><time>2026-04-09T11:17:09Z</time></trkpt><trkpt lat="39.42477231756379" lon="9.234080656683561"><ele>499.0</ele><time>2026-04-09T11:17:10Z</time></trkpt><trkpt lat="39.42484154505211" lon="9.23384763550278"><ele>499.0</ele><time>2026-04-09T11:17:11Z</time></trkpt><trkpt lat="39.4248920116968" lon="9.233639283628442"><ele>499.0</ele><time>2026-04-09T11:17:12Z</time></trkpt><trkpt lat="39.42492597730835" lon="9.233446500507192"><ele>499.0</ele><time>2026-04-09T11:17:13Z</time></trkpt><trkpt lat="39.42492781718256" lon="9.233253307707631"><ele>499.33333333333337</ele><time>2026-04-09T11:17:14Z</time></trkpt><trkpt lat="39.42489561475838" lon="9.23302300507336"><ele>499.66666666666663</ele><time>2026-04-09T11:17:15Z</time></trkpt><trkpt lat="39.42483592364361" lon="9.232772796341429"><ele>500.0</ele><time>2026-04-09T11:17:16Z</time></trkpt><trkpt lat="39.42477888843164" lon="9.232530493481079"><ele>500.0</ele><time>2026-04-09T11:17:17Z</time></trkpt><trkpt lat="39.42474954770718" lon="9.232310818472174"><ele>500.0</ele><time>2026-04-09T11:17:18Z</time></trkpt><trkpt lat="39.4247504431903" lon="9.232094360324435"><ele>500.0</ele><time>2026-04-09T11:17:19Z</time></trkpt><trkpt lat="39.42476100120787" lon="9.231886500241819"><ele>500.0</ele><time>2026-04-09T11:17:20Z</time></trkpt><trkpt lat="39.42475698519706" lon="9.231677488899148"><ele>500.0</ele><time>2026-04-09T11:17:21Z</time></trkpt><trkpt lat="39.42472263113775" lon="9.231489208333368"><ele>500.0</ele><time>2026-04-09T11:17:22Z</time></trkpt><trkpt lat="39.424670506513095" lon="9.231321297097214"><ele>501.25</ele><time>2026-04-09T11:17:23Z</time></trkpt><trkpt lat="39.424617174679994" lon="9.23116923461408"><ele>502.5</ele><time>2026-04-09T11:17:24Z</time></trkpt><trkpt lat="39.424594810043224" lon="9.231019602851502"><ele>503.75</ele><time>2026-04-09T11:17:25Z</time></trkpt><trkpt lat="39.424613268164535" lon="9.230872157057881"><ele>505.0</ele><time>2026-04-09T11:17:26Z</time></trkpt><trkpt lat="39.42466096922078" lon="9.230725618951858"><ele>510.5</ele><time>2026-04-09T11:17:27Z</time></trkpt><trkpt lat="39.42472168108989" lon="9.230598864768742"><ele>516.0</ele><time>2026-04-09T11:17:28Z</time></trkpt><trkpt lat="39.42480527699266" lon="9.23050241315036"><ele>521.5</ele><time>2026-04-09T11:17:29Z</time></trkpt><trkpt lat="39.424922941198574" lon="9.230437715855551"><ele>527.0</ele><time>2026-04-09T11:17:30Z</time></trkpt><trkpt lat="39.425075155397714" lon="9.230417817226705"><ele>527.0</ele><time>2026-04-09T11:17:31Z</time></trkpt><trkpt lat="39.425232843301906" lon="9.230428446684897"><ele>527.0</ele><time>2026-04-09T11:17:32Z</time></trkpt><trkpt lat="39.42536671876729" lon="9.230421192994738"><ele>527.0</ele><time>2026-04-09T11:17:33Z</time></trkpt><trkpt lat="39.42547882936226" lon="9.230358826362218"><ele>527.0</ele><time>2026-04-09T11:17:34Z</time></trkpt><trkpt lat="39.42557457019874" lon="9.23023422183554"><ele>523.3333333333333</ele><time>2026-04-09T11:17:35Z</time></trkpt><trkpt lat="39.42566214926008" lon="9.230054790738887"><ele>519.6666666666666</ele><time>2026-04-09T11:17:36Z</time></trkpt><trkpt lat="39.42573613104333" lon="9.22984755523106"><ele>516.0</ele><time>2026-04-09T11:17:37Z</time></trkpt><trkpt lat="39.42580260725318" lon="9.229642368588435"><ele>516.0</ele><time>2026-04-09T11:17:38Z</time></trkpt><trkpt lat="39.42586099887028" lon="9.229443125034845"><ele>516.0</ele><time>2026-04-09T11:17:39Z</time></trkpt><trkpt lat="39.42592950852836" lon="9.229284075375944"><ele>516.0</ele><time>2026-04-09T11:17:40Z</time></trkpt><trkpt lat="39.42599913559149" lon="9.229142897196363"><ele>516.0</ele><time>2026-04-09T11:17:41Z</time></trkpt><trkpt lat="39.42606160841476" lon="9.228994718829611"><ele>517.3333333333334</ele><time>2026-04-09T11:17:42Z</time></trkpt><trkpt lat="39.42610102228166" lon="9.228810547371355"><ele>518.6666666666667</ele><time>2026-04-09T11:17:43Z</time></trkpt><trkpt lat="39.42609796089452" lon="9.228590220547073"><ele>520.0</ele><time>2026-04-09T11:17:44Z</time></trkpt><trkpt lat="39.426047280897514" lon="9.228371099894037"><ele>520.0</ele><time>2026-04-09T11:17:45Z</time></trkpt><trkpt lat="39.42596308170694" lon="9.228170198361305"><ele>520.0</ele><time>2026-04-09T11:17:46Z</time></trkpt><trkpt lat="39.4258665372143" lon="9.22799521995058"><ele>520.0</ele><time>2026-04-09T11:17:47Z</time></trkpt><trkpt lat="39.42577574897273" lon="9.227846004118884"><ele>517.0</ele><time>2026-04-09T11:17:48Z</time></trkpt><trkpt lat="39.425719393061655" lon="9.2276850732362"><ele>514.0</ele><time>2026-04-09T11:17:49Z</time></trkpt><trkpt lat="39.42570301403166" lon="9.227483405095505"><ele>511.0</ele><time>2026-04-09T11:17:50Z</time></trkpt><trkpt lat="39.42572141796242" lon="9.227254367036961"><ele>510.0</ele><time>2026-04-09T11:17:51Z</time></trkpt><trkpt lat="39.42575078203737" lon="9.227003222441205"><ele>509.0</ele><time>2026-04-09T11:17:52Z</time></trkpt><trkpt lat="39.42577011332073" lon="9.226762682418423"><ele>508.0</ele><time>2026-04-09T11:17:53Z</time></trkpt><trkpt lat="39.42577150911137" lon="9.226550571066264"><ele>506.0</ele><time>2026-04-09T11:17:54Z</time></trkpt><trkpt lat="39.42575593482758" lon="9.22637246945162"><ele>504.0</ele><time>2026-04-09T11:17:55Z</time></trkpt><trkpt lat="39.42570602077723" lon="9.22621659181908"><ele>502.0</ele><time>2026-04-09T11:17:56Z</time></trkpt><trkpt lat="39.42561681580815" lon="9.226068260908836"><ele>500.0</ele><time>2026-04-09T11:17:57Z</time></trkpt><trkpt lat="39.4255026897352" lon="9.225938010156312"><ele>509.0</ele><time>2026-04-09T11:17:57.997Z</time></trkpt><trkpt lat="39.4253972034083" lon="9.225817540522417"><ele>518.0</ele><time>2026-04-09T11:17:58.997Z</time></trkpt><trkpt lat="39.4253181729508" lon="9.22569490931878"><ele>527.0</ele><time>2026-04-09T11:17:59.997Z</time></trkpt><trkpt lat="39.42527299271423" lon="9.225558644269308"><ele>536.0</ele><time>2026-04-09T11:18:00.997Z</time></trkpt><trkpt lat="39.42527770487999" lon="9.225414572538591"><ele>536.25</ele><time>2026-04-09T11:18:01.997Z</time></trkpt><trkpt lat="39.42533597070917" lon="9.225273358703637"><ele>536.5</ele><time>2026-04-09T11:18:02.997Z</time></trkpt><trkpt lat="39.42543726547707" lon="9.22512875938349"><ele>536.75</ele><time>2026-04-09T11:18:03.997Z</time></trkpt><trkpt lat="39.42555341025381" lon="9.22497234976771"><ele>537.0</ele><time>2026-04-09T11:18:04.997Z</time></trkpt><trkpt lat="39.42565802879096" lon="9.224797181421579"><ele>530.6666666666666</ele><time>2026-04-09T11:18:05.997Z</time></trkpt><trkpt lat="39.4257421801638" lon="9.224609512761742"><ele>524.3333333333333</ele><time>2026-04-09T11:18:06.997Z</time></trkpt><trkpt lat="39.42581768968239" lon="9.22442574292306"><ele>518.0</ele><time>2026-04-09T11:18:07.997Z</time></trkpt><trkpt lat="39.42588096294391" lon="9.224266834958726"><ele>518.0</ele><time>2026-04-09T11:18:08.998Z</time></trkpt><trkpt lat="39.425939521336986" lon="9.224123442119584"><ele>518.0</ele><time>2026-04-09T11:18:09.998Z</time></trkpt><trkpt lat="39.425991782516064" lon="9.223987654905956"><ele>518.0</ele><time>2026-04-09T11:18:10.998Z</time></trkpt><trkpt lat="39.426028397476394" lon="9.223843001160914"><ele>518.0</ele><time>2026-04-09T11:18:11.998Z</time></trkpt><trkpt lat="39.42603441402265" lon="9.223680775268729"><ele>517.75</ele><time>2026-04-09T11:18:12.998Z</time></trkpt><trkpt lat="39.42599147852377" lon="9.223511802170133"><ele>517.5</ele><time>2026-04-09T11:18:13.998Z</time></trkpt><trkpt lat="39.425934252586046" lon="9.223337915508456"><ele>517.25</ele><time>2026-04-09T11:18:14.998Z</time></trkpt><trkpt lat="39.42588511496095" lon="9.22316951476556"><ele>517.0</ele><time>2026-04-09T11:18:15.998Z</time></trkpt><trkpt lat="39.425833134662255" lon="9.222999749065826"><ele>516.0</ele><time>2026-04-09T11:18:16.998Z</time></trkpt><trkpt lat="39.42577687104372" lon="9.222797946795422"><ele>515.0</ele><time>2026-04-09T11:18:17.998Z</time></trkpt><trkpt lat="39.425713998999754" lon="9.222579015681037"><ele>514.0</ele><time>2026-04-09T11:18:18.998Z</time></trkpt><trkpt lat="39.42565658062688" lon="9.22236554620336"><ele>513.0</ele><time>2026-04-09T11:18:19.998Z</time></trkpt><trkpt lat="39.42560160936852" lon="9.222141138462002"><ele>512.0</ele><time>2026-04-09T11:18:20.998Z</time></trkpt><trkpt lat="39.42554486190761" lon="9.22191768577317"><ele>511.0</ele><time>2026-04-09T11:18:21.998Z</time></trkpt><trkpt lat="39.425482003132466" lon="9.221691600351981"><ele>509.0</ele><time>2026-04-09T11:18:22.999Z</time></trkpt><trkpt lat="39.42543138821589" lon="9.22145197422089"><ele>507.0</ele><time>2026-04-09T11:18:23.999Z</time></trkpt><trkpt lat="39.425366647724175" lon="9.221213410749225"><ele>505.0</ele><time>2026-04-09T11:18:24.999Z</time></trkpt><trkpt lat="39.4253018349619" lon="9.220974646987646"><ele>505.0</ele><time>2026-04-09T11:18:25.999Z</time></trkpt><trkpt lat="39.425225402574505" lon="9.220751695554616"><ele>505.0</ele><time>2026-04-09T11:18:26.999Z</time></trkpt><trkpt lat="39.42517023557081" lon="9.220528259065926"><ele>505.0</ele><time>2026-04-09T11:18:27.999Z</time></trkpt><trkpt lat="39.42511048402422" lon="9.220319427904768"><ele>501.75</ele><time>2026-04-09T11:18:28.999Z</time></trkpt><trkpt lat="39.4250355603087" lon="9.220141275781662"><ele>498.5</ele><time>2026-04-09T11:18:29.999Z</time></trkpt><trkpt lat="39.42494594140317" lon="9.220005967303011"><ele>495.25</ele><time>2026-04-09T11:18:30.999Z</time></trkpt><trkpt lat="39.4248529191833" lon="9.219914971595701"><ele>492.0</ele><time>2026-04-09T11:18:31.999Z</time></trkpt><trkpt lat="39.42478905278608" lon="9.219852964044192"><ele>492.0</ele><time>2026-04-09T11:18:32.999Z</time></trkpt><trkpt lat="39.4249043194373" lon="9.219862057729852"><ele>492.00000000000006</ele><time>2026-04-09T11:18:38.999Z</time></trkpt><trkpt lat="39.424980043290205" lon="9.21991432721595"><ele>492.00000000000006</ele><time>2026-04-09T11:18:39.999Z</time></trkpt><trkpt lat="39.425056256247515" lon="9.22001715849944"><ele>492.0</ele><time>2026-04-09T11:18:40.999Z</time></trkpt><trkpt lat="39.42512708203992" lon="9.220124212196458"><ele>492.0</ele><time>2026-04-09T11:18:41.999Z</time></trkpt><trkpt lat="39.42518526978138" lon="9.220205683353777"><ele>492.0</ele><time>2026-04-09T11:18:42.999Z</time></trkpt><trkpt lat="39.42523634117407" lon="9.220258472489785"><ele>492.0</ele><time>2026-04-09T11:18:43.999Z</time></trkpt><trkpt lat="39.425345277360975" lon="9.220310072291353"><ele>492.0</ele><time>2026-04-09T11:18:45.999Z</time></trkpt><trkpt lat="39.42544548048479" lon="9.220227194108023"><ele>492.0</ele><time>2026-04-09T11:18:47.999Z</time></trkpt><trkpt lat="39.42549272135566" lon="9.220166195253352"><ele>492.0</ele><time>2026-04-09T11:18:48.999Z</time></trkpt><trkpt lat="39.42553939294702" lon="9.22009452440512"><ele>492.0</ele><time>2026-04-09T11:18:50Z</time></trkpt><trkpt lat="39.42557695966865" lon="9.2200166471332"><ele>492.3333333333333</ele><time>2026-04-09T11:18:51Z</time></trkpt><trkpt lat="39.42560163519563" lon="9.219925807889142"><ele>492.66666666666663</ele><time>2026-04-09T11:18:52Z</time></trkpt><trkpt lat="39.425626834715146" lon="9.219820567259452"><ele>493.0</ele><time>2026-04-09T11:18:53Z</time></trkpt><trkpt lat="39.42564235099433" lon="9.219709720886776"><ele>493.3333333333333</ele><time>2026-04-09T11:18:54Z</time></trkpt><trkpt lat="39.4256508586761" lon="9.21959482311867"><ele>493.66666666666663</ele><time>2026-04-09T11:18:55Z</time></trkpt><trkpt lat="39.42565848572485" lon="9.219482304635092"><ele>494.0</ele><time>2026-04-09T11:18:56Z</time></trkpt><trkpt lat="39.425669119438" lon="9.219389462274625"><ele>492.99999999999994</ele><time>2026-04-09T11:18:57Z</time></trkpt><trkpt lat="39.42569277829625" lon="9.219228967585039"><ele>492.0</ele><time>2026-04-09T11:18:59Z</time></trkpt><trkpt lat="39.42570668144696" lon="9.219145622388554"><ele>491.0</ele><time>2026-04-09T11:19:00Z</time></trkpt><trkpt lat="39.42575054768969" lon="9.218998411826997"><ele>490.0</ele><time>2026-04-09T11:19:02Z</time></trkpt><trkpt lat="39.42580116513754" lon="9.21894524026888"><ele>488.99999999999994</ele><time>2026-04-09T11:19:03Z</time></trkpt><trkpt lat="39.42586695909169" lon="9.218917327697257"><ele>488.0</ele><time>2026-04-09T11:19:04Z</time></trkpt><trkpt lat="39.42594728469372" lon="9.218937970057116"><ele>486.0</ele><time>2026-04-09T11:19:05Z</time></trkpt><trkpt lat="39.42604349607508" lon="9.218945673444718"><ele>483.99999999999994</ele><time>2026-04-09T11:19:06Z</time></trkpt><trkpt lat="39.426141561701776" lon="9.218939248045018"><ele>481.99999999999994</ele><time>2026-04-09T11:19:07Z</time></trkpt><trkpt lat="39.42624559655901" lon="9.218945286474753"><ele>480.0</ele><time>2026-04-09T11:19:08Z</time></trkpt><trkpt lat="39.42636170805039" lon="9.2189644695453"><ele>478.0</ele><time>2026-04-09T11:19:09Z</time></trkpt><trkpt lat="39.42647237218593" lon="9.218984254072954"><ele>478.0</ele><time>2026-04-09T11:19:10Z</time></trkpt><trkpt lat="39.42657855856627" lon="9.218991532340635"><ele>477.99999999999994</ele><time>2026-04-09T11:19:11Z</time></trkpt><trkpt lat="39.426677959816715" lon="9.219012783800485"><ele>477.99999999999994</ele><time>2026-04-09T11:19:12Z</time></trkpt><trkpt lat="39.4267756591015" lon="9.219006667186408"><ele>478.0</ele><time>2026-04-09T11:19:13Z</time></trkpt><trkpt lat="39.426864100060634" lon="9.21896481065117"><ele>478.0</ele><time>2026-04-09T11:19:14Z</time></trkpt><trkpt lat="39.42693834789715" lon="9.218938176836541"><ele>476.50000000000006</ele><time>2026-04-09T11:19:15Z</time></trkpt><trkpt lat="39.42701181152309" lon="9.218904635292514"><ele>475.0</ele><time>2026-04-09T11:19:16Z</time></trkpt><trkpt lat="39.42707596997199" lon="9.218873070900747"><ele>473.5</ele><time>2026-04-09T11:19:17Z</time></trkpt><trkpt lat="39.427160124714426" lon="9.218785845400859"><ele>472.0</ele><time>2026-04-09T11:19:19Z</time></trkpt><trkpt lat="39.42719623767499" lon="9.218707234533575"><ele>470.50000000000006</ele><time>2026-04-09T11:19:20Z</time></trkpt><trkpt lat="39.42723076164468" lon="9.218613574471119"><ele>469.0</ele><time>2026-04-09T11:19:21Z</time></trkpt><trkpt lat="39.42727161575692" lon="9.218515084201698"><ele>466.83333333333337</ele><time>2026-04-09T11:19:22Z</time></trkpt><trkpt lat="39.42731742447067" lon="9.218431616027031"><ele>464.6666666666667</ele><time>2026-04-09T11:19:23Z</time></trkpt><trkpt lat="39.427356696713936" lon="9.218346704307654"><ele>462.5</ele><time>2026-04-09T11:19:24Z</time></trkpt><trkpt lat="39.42739533618127" lon="9.218265339033918"><ele>460.33333333333337</ele><time>2026-04-09T11:19:25Z</time></trkpt><trkpt lat="39.42743952429154" lon="9.218179237559465"><ele>458.1666666666667</ele><time>2026-04-09T11:19:26Z</time></trkpt><trkpt lat="39.42748149278368" lon="9.21810674180627"><ele>456.0</ele><time>2026-04-09T11:19:27Z</time></trkpt><trkpt lat="39.42752519193472" lon="9.218034405164065"><ele>455.57142857142856</ele><time>2026-04-09T11:19:28Z</time></trkpt><trkpt lat="39.42756659850363" lon="9.217964367826706"><ele>455.1428571428571</ele><time>2026-04-09T11:19:29Z</time></trkpt><trkpt lat="39.42760722252032" lon="9.217891138718151"><ele>454.71428571428567</ele><time>2026-04-09T11:19:30Z</time></trkpt><trkpt lat="39.427646211608135" lon="9.217825894977725"><ele>454.2857142857142</ele><time>2026-04-09T11:19:31Z</time></trkpt><trkpt lat="39.427694643021496" lon="9.217754679744992"><ele>453.85714285714283</ele><time>2026-04-09T11:19:33Z</time></trkpt><trkpt lat="39.42772484772548" lon="9.21785009322525"><ele>453.42857142857133</ele><time>2026-04-09T11:19:37Z</time></trkpt><trkpt lat="39.427687751142585" lon="9.217929004440292"><ele>452.99999999999994</ele><time>2026-04-09T11:19:39Z</time></trkpt><trkpt lat="39.42766526862655" lon="9.218078235556707"><ele>453.59999999999997</ele><time>2026-04-09T11:19:41.001Z</time></trkpt><trkpt lat="39.427610943259566" lon="9.218211308419406"><ele>454.19999999999993</ele><time>2026-04-09T11:19:43.001Z</time></trkpt><trkpt lat="39.42757262124717" lon="9.21836687780264"><ele>454.8</ele><time>2026-04-09T11:19:45.001Z</time></trkpt><trkpt lat="39.427572944552395" lon="9.218454748435512"><ele>455.4</ele><time>2026-04-09T11:19:46.001Z</time></trkpt><trkpt lat="39.42756080503069" lon="9.218536174383818"><ele>456.0</ele><time>2026-04-09T11:19:47.001Z</time></trkpt><trkpt lat="39.42754165856175" lon="9.218635137506762"><ele>456.0</ele><time>2026-04-09T11:19:48.001Z</time></trkpt><trkpt lat="39.42752748056318" lon="9.218730533482313"><ele>456.0</ele><time>2026-04-09T11:19:49.001Z</time></trkpt><trkpt lat="39.427517017325194" lon="9.218839468038281"><ele>456.0</ele><time>2026-04-09T11:19:50.001Z</time></trkpt><trkpt lat="39.427498276383915" lon="9.218951368534196"><ele>456.0</ele><time>2026-04-09T11:19:51.001Z</time></trkpt><trkpt lat="39.42744650367793" lon="9.219042563020341"><ele>456.0</ele><time>2026-04-09T11:19:52.001Z</time></trkpt><trkpt lat="39.42741116917007" lon="9.219133767190336"><ele>456.0</ele><time>2026-04-09T11:19:53.001Z</time></trkpt><trkpt lat="39.42740076070718" lon="9.219217473761079"><ele>456.20000000000005</ele><time>2026-04-09T11:19:54.001Z</time></trkpt><trkpt lat="39.42738348524756" lon="9.219351587937346"><ele>456.40000000000003</ele><time>2026-04-09T11:19:56.001Z</time></trkpt><trkpt lat="39.427434944119966" lon="9.219493187309208"><ele>456.6</ele><time>2026-04-09T11:19:58.001Z</time></trkpt><trkpt lat="39.42751564304425" lon="9.2195112580655"><ele>456.8</ele><time>2026-04-09T11:19:59.001Z</time></trkpt><trkpt lat="39.42758680380504" lon="9.219547512620933"><ele>457.0</ele><time>2026-04-09T11:20:00.001Z</time></trkpt><trkpt lat="39.427650403128105" lon="9.219602782568971"><ele>457.0</ele><time>2026-04-09T11:20:01.001Z</time></trkpt><trkpt lat="39.42772906718771" lon="9.219641587345023"><ele>457.00000000000006</ele><time>2026-04-09T11:20:02.001Z</time></trkpt><trkpt lat="39.427796672698065" lon="9.21965542536998"><ele>457.00000000000006</ele><time>2026-04-09T11:20:03.001Z</time></trkpt><trkpt lat="39.42789911322316" lon="9.219562255896426"><ele>457.0</ele><time>2026-04-09T11:20:04.997Z</time></trkpt><trkpt lat="39.427999955692435" lon="9.219499128269712"><ele>457.0</ele><time>2026-04-09T11:20:05.997Z</time></trkpt><trkpt lat="39.42810875077699" lon="9.219446261131885"><ele>454.6</ele><time>2026-04-09T11:20:06.997Z</time></trkpt><trkpt lat="39.42821585115887" lon="9.219440447701743"><ele>452.20000000000005</ele><time>2026-04-09T11:20:07.998Z</time></trkpt><trkpt lat="39.428331117543834" lon="9.219440669117864"><ele>449.8</ele><time>2026-04-09T11:20:08.998Z</time></trkpt><trkpt lat="39.42842942803563" lon="9.219386546911021"><ele>447.4</ele><time>2026-04-09T11:20:09.998Z</time></trkpt><trkpt lat="39.4285305290166" lon="9.219352170855808"><ele>445.0</ele><time>2026-04-09T11:20:10.998Z</time></trkpt><trkpt lat="39.42862804334648" lon="9.219319716269325"><ele>445.0</ele><time>2026-04-09T11:20:11.998Z</time></trkpt><trkpt lat="39.42872771894266" lon="9.219284603502885"><ele>445.0</ele><time>2026-04-09T11:20:12.998Z</time></trkpt><trkpt lat="39.42883119042549" lon="9.219261383595803"><ele>445.0</ele><time>2026-04-09T11:20:13.998Z</time></trkpt><trkpt lat="39.42893602922113" lon="9.219244988501474"><ele>445.0</ele><time>2026-04-09T11:20:14.998Z</time></trkpt><trkpt lat="39.429040921175606" lon="9.219237650812623"><ele>445.0</ele><time>2026-04-09T11:20:15.998Z</time></trkpt><trkpt lat="39.42914906977222" lon="9.219245195229668"><ele>445.6</ele><time>2026-04-09T11:20:16.998Z</time></trkpt><trkpt lat="39.42925193759482" lon="9.219276150143214"><ele>446.2</ele><time>2026-04-09T11:20:17.998Z</time></trkpt><trkpt lat="39.42934639224807" lon="9.21930232728415"><ele>446.79999999999995</ele><time>2026-04-09T11:20:18.998Z</time></trkpt><trkpt lat="39.429425215286265" lon="9.219303035071134"><ele>447.4</ele><time>2026-04-09T11:20:19.998Z</time></trkpt><trkpt lat="39.429516589929015" lon="9.219280282204098"><ele>448.0</ele><time>2026-04-09T11:20:20.998Z</time></trkpt><trkpt lat="39.429622069468195" lon="9.21924543795125"><ele>447.2</ele><time>2026-04-09T11:20:21.999Z</time></trkpt><trkpt lat="39.42973329168315" lon="9.219208486318669"><ele>446.4</ele><time>2026-04-09T11:20:22.999Z</time></trkpt><trkpt lat="39.429822529961555" lon="9.219167851293328"><ele>445.59999999999997</ele><time>2026-04-09T11:20:23.999Z</time></trkpt><trkpt lat="39.42991689490397" lon="9.219109240937764"><ele>444.79999999999995</ele><time>2026-04-09T11:20:24.999Z</time></trkpt><trkpt lat="39.43000170821473" lon="9.219036566896389"><ele>444.0</ele><time>2026-04-09T11:20:25.999Z</time></trkpt><trkpt lat="39.43007024273875" lon="9.218979917222379"><ele>444.0</ele><time>2026-04-09T11:20:26.999Z</time></trkpt><trkpt lat="39.43013378548652" lon="9.218988105609274"><ele>444.0</ele><time>2026-04-09T11:20:27.999Z</time></trkpt><trkpt lat="39.43022214697655" lon="9.218962114337598"><ele>444.0</ele><time>2026-04-09T11:20:29.999Z</time></trkpt><trkpt lat="39.430184094694035" lon="9.219117175330055"><ele>444.0</ele><time>2026-04-09T11:20:34.999Z</time></trkpt><trkpt lat="39.43013634717821" lon="9.219252562471532"><ele>444.0</ele><time>2026-04-09T11:20:36.999Z</time></trkpt><trkpt lat="39.430107957419516" lon="9.219390159507597"><ele>444.0</ele><time>2026-04-09T11:20:38.999Z</time></trkpt><trkpt lat="39.430088537669356" lon="9.219468648837031"><ele>444.0</ele><time>2026-04-09T11:20:39.999Z</time></trkpt><trkpt lat="39.430038509135585" lon="9.219594497056212"><ele>444.0</ele><time>2026-04-09T11:20:42Z</time></trkpt><trkpt lat="39.429948666435074" lon="9.219703723222263"><ele>444.0</ele><time>2026-04-09T11:20:44Z</time></trkpt><trkpt lat="39.42989080914099" lon="9.219769410600039"><ele>444.0</ele><time>2026-04-09T11:20:45Z</time></trkpt><trkpt lat="39.42981442284443" lon="9.219849200069183"><ele>442.6666666666667</ele><time>2026-04-09T11:20:46Z</time></trkpt><trkpt lat="39.42974101373494" lon="9.219921626750708"><ele>441.33333333333337</ele><time>2026-04-09T11:20:47Z</time></trkpt><trkpt lat="39.42967432315598" lon="9.220010592926137"><ele>440.0</ele><time>2026-04-09T11:20:48Z</time></trkpt><trkpt lat="39.42961863329965" lon="9.220106829104614"><ele>438.6666666666667</ele><time>2026-04-09T11:20:49Z</time></trkpt><trkpt lat="39.42957074929133" lon="9.220199271029966"><ele>437.33333333333337</ele><time>2026-04-09T11:20:50Z</time></trkpt><trkpt lat="39.429526239707336" lon="9.220280272244805"><ele>436.0</ele><time>2026-04-09T11:20:51Z</time></trkpt><trkpt lat="39.42946880572925" lon="9.220343505313567"><ele>439.00000000000006</ele><time>2026-04-09T11:20:52Z</time></trkpt><trkpt lat="39.42943441858405" lon="9.220440279341828"><ele>442.0</ele><time>2026-04-09T11:20:53Z</time></trkpt><trkpt lat="39.4293856328689" lon="9.220506151495371"><ele>445.0</ele><time>2026-04-09T11:20:54Z</time></trkpt><trkpt lat="39.42938833633138" lon="9.220626072990713"><ele>448.0</ele><time>2026-04-09T11:20:55Z</time></trkpt><trkpt lat="39.42937962318" lon="9.220749666275069"><ele>451.00000000000006</ele><time>2026-04-09T11:20:56Z</time></trkpt><trkpt lat="39.42936677104469" lon="9.220855142541772"><ele>454.0</ele><time>2026-04-09T11:20:57Z</time></trkpt><trkpt lat="39.42936593802987" lon="9.220953139884063"><ele>454.0</ele><time>2026-04-09T11:20:58Z</time></trkpt><trkpt lat="39.42938868609705" lon="9.221035247737701"><ele>454.0</ele><time>2026-04-09T11:20:59Z</time></trkpt><trkpt lat="39.42941609245576" lon="9.22116569144912"><ele>454.0</ele><time>2026-04-09T11:21:01Z</time></trkpt><trkpt lat="39.42954533517278" lon="9.221191528252819"><ele>454.0</ele><time>2026-04-09T11:21:03Z</time></trkpt><trkpt lat="39.429649395683114" lon="9.221185578075676"><ele>454.0</ele><time>2026-04-09T11:21:05Z</time></trkpt><trkpt lat="39.42971851260594" lon="9.22118165696876"><ele>449.6666666666667</ele><time>2026-04-09T11:21:06Z</time></trkpt><trkpt lat="39.4297899351376" lon="9.221177605067734"><ele>445.33333333333337</ele><time>2026-04-09T11:21:07Z</time></trkpt><trkpt lat="39.42985950148114" lon="9.22118209582465"><ele>441.0</ele><time>2026-04-09T11:21:08Z</time></trkpt><trkpt lat="39.42994141243108" lon="9.22119633963923"><ele>436.66666666666663</ele><time>2026-04-09T11:21:09Z</time></trkpt><trkpt lat="39.43002882327037" lon="9.221220172004156"><ele>432.3333333333333</ele><time>2026-04-09T11:21:10Z</time></trkpt><trkpt lat="39.43011222823174" lon="9.221245560033928"><ele>428.0</ele><time>2026-04-09T11:21:11Z</time></trkpt><trkpt lat="39.43019103044501" lon="9.22127288869963"><ele>427.99999999999994</ele><time>2026-04-09T11:21:12Z</time></trkpt><trkpt lat="39.430256228595994" lon="9.221303498261104"><ele>428.0</ele><time>2026-04-09T11:21:13Z</time></trkpt><trkpt lat="39.43032403576412" lon="9.221338553320162"><ele>428.0</ele><time>2026-04-09T11:21:14Z</time></trkpt><trkpt lat="39.43039842646441" lon="9.221381004834841"><ele>428.0</ele><time>2026-04-09T11:21:15.001Z</time></trkpt><trkpt lat="39.430474275198385" lon="9.221433019079106"><ele>427.99999999999994</ele><time>2026-04-09T11:21:16.001Z</time></trkpt><trkpt lat="39.43053452223932" lon="9.221479618931527"><ele>428.0</ele><time>2026-04-09T11:21:17.001Z</time></trkpt><trkpt lat="39.43061555401468" lon="9.22158347591303"><ele>425.79999999999995</ele><time>2026-04-09T11:21:19.001Z</time></trkpt><trkpt lat="39.430648626157165" lon="9.221658770179172"><ele>423.59999999999997</ele><time>2026-04-09T11:21:20.001Z</time></trkpt><trkpt lat="39.43068676248809" lon="9.221740030280367"><ele>421.4</ele><time>2026-04-09T11:21:21.001Z</time></trkpt><trkpt lat="39.43071395453551" lon="9.221813777391452"><ele>419.20000000000005</ele><time>2026-04-09T11:21:22.001Z</time></trkpt><trkpt lat="39.430794451773345" lon="9.221941302136486"><ele>417.0</ele><time>2026-04-09T11:21:24.001Z</time></trkpt><trkpt lat="39.430911220480155" lon="9.222022669446364"><ele>417.0</ele><time>2026-04-09T11:21:26.001Z</time></trkpt><trkpt lat="39.43098760001477" lon="9.222010081901162"><ele>417.0</ele><time>2026-04-09T11:21:27.001Z</time></trkpt><trkpt lat="39.431058945902954" lon="9.22200574317811"><ele>417.0</ele><time>2026-04-09T11:21:28.001Z</time></trkpt><trkpt lat="39.43113136657147" lon="9.22198176967335"><ele>417.0</ele><time>2026-04-09T11:21:29.001Z</time></trkpt><trkpt lat="39.431197227690184" lon="9.221979640714482"><ele>417.0</ele><time>2026-04-09T11:21:30.001Z</time></trkpt><trkpt lat="39.43126427492751" lon="9.22197940598371"><ele>417.0</ele><time>2026-04-09T11:21:31.001Z</time></trkpt><trkpt lat="39.43132826690695" lon="9.221991329376335"><ele>417.0</ele><time>2026-04-09T11:21:32.001Z</time></trkpt><trkpt lat="39.43140100381767" lon="9.22202138163723"><ele>416.5</ele><time>2026-04-09T11:21:33.001Z</time></trkpt><trkpt lat="39.4314665607632" lon="9.22206967148816"><ele>416.0</ele><time>2026-04-09T11:21:34.001Z</time></trkpt><trkpt lat="39.431544392195576" lon="9.22212104221012"><ele>415.5</ele><time>2026-04-09T11:21:35.001Z</time></trkpt><trkpt lat="39.43162010847809" lon="9.222172841378947"><ele>415.0</ele><time>2026-04-09T11:21:36.001Z</time></trkpt><trkpt lat="39.43169380965991" lon="9.22220686970319"><ele>414.5</ele><time>2026-04-09T11:21:37.001Z</time></trkpt><trkpt lat="39.43177462052167" lon="9.222317176544179"><ele>414.0</ele><time>2026-04-09T11:21:39.001Z</time></trkpt><trkpt lat="39.431766388322984" lon="9.222413615316835"><ele>414.0</ele><time>2026-04-09T11:21:40.001Z</time></trkpt><trkpt lat="39.43174642699003" lon="9.222581443390581"><ele>414.0</ele><time>2026-04-09T11:21:42.001Z</time></trkpt><trkpt lat="39.43173821326746" lon="9.2226704832536"><ele>414.0</ele><time>2026-04-09T11:21:43.001Z</time></trkpt><trkpt lat="39.431772308862335" lon="9.222823917199374"><ele>414.0</ele><time>2026-04-09T11:21:45.001Z</time></trkpt><trkpt lat="39.43180337677486" lon="9.222905245044005"><ele>414.0</ele><time>2026-04-09T11:21:46.001Z</time></trkpt><trkpt lat="39.4318571912554" lon="9.222972527670239"><ele>414.0</ele><time>2026-04-09T11:21:47.001Z</time></trkpt><trkpt lat="39.43192087360825" lon="9.223024643944235"><ele>414.0</ele><time>2026-04-09T11:21:48.001Z</time></trkpt><trkpt lat="39.4319790787437" lon="9.223070912691938"><ele>414.0</ele><time>2026-04-09T11:21:49.001Z</time></trkpt><trkpt lat="39.43204436225354" lon="9.223131350570247"><ele>414.0</ele><time>2026-04-09T11:21:50.001Z</time></trkpt><trkpt lat="39.432119818004175" lon="9.223210510211507"><ele>414.0</ele><time>2026-04-09T11:21:51.001Z</time></trkpt><trkpt lat="39.43218204479168" lon="9.223290391643916"><ele>414.0</ele><time>2026-04-09T11:21:52.001Z</time></trkpt><trkpt lat="39.43221132051601" lon="9.223390248392992"><ele>409.6666666666667</ele><time>2026-04-09T11:21:53.001Z</time></trkpt><trkpt lat="39.43224066954761" lon="9.223468317110049"><ele>405.33333333333337</ele><time>2026-04-09T11:21:54.001Z</time></trkpt><trkpt lat="39.43225181978402" lon="9.223612302612295"><ele>401.0</ele><time>2026-04-09T11:21:56.002Z</time></trkpt><trkpt lat="39.432283687961785" lon="9.223713494417535"><ele>396.6666666666667</ele><time>2026-04-09T11:21:58.002Z</time></trkpt><trkpt lat="39.43236316267282" lon="9.223735170455333"><ele>392.33333333333337</ele><time>2026-04-09T11:22:00.002Z</time></trkpt><trkpt lat="39.43240816923541" lon="9.223656271122364"><ele>388.0</ele><time>2026-04-09T11:22:01.002Z</time></trkpt><trkpt lat="39.432420982030955" lon="9.223506548548924"><ele>388.00000000000006</ele><time>2026-04-09T11:22:03.002Z</time></trkpt><trkpt lat="39.432388646628674" lon="9.223401644713976"><ele>388.0</ele><time>2026-04-09T11:22:04.002Z</time></trkpt><trkpt lat="39.43236578930843" lon="9.223287240894328"><ele>388.0</ele><time>2026-04-09T11:22:05.002Z</time></trkpt><trkpt lat="39.43233940555672" lon="9.223175200580418"><ele>388.0</ele><time>2026-04-09T11:22:06.002Z</time></trkpt><trkpt lat="39.43231183855509" lon="9.223064620901493"><ele>388.00000000000006</ele><time>2026-04-09T11:22:07.002Z</time></trkpt><trkpt lat="39.43227821306735" lon="9.222979715194324"><ele>388.0</ele><time>2026-04-09T11:22:08.002Z</time></trkpt><trkpt lat="39.432208403787534" lon="9.222890893322411"><ele>386.79999999999995</ele><time>2026-04-09T11:22:09.999Z</time></trkpt><trkpt lat="39.432167401685504" lon="9.222793964180063"><ele>385.6</ele><time>2026-04-09T11:22:11.999Z</time></trkpt><trkpt lat="39.4321662297072" lon="9.222663680931472"><ele>384.4</ele><time>2026-04-09T11:22:13.999Z</time></trkpt><trkpt lat="39.43217403554368" lon="9.222521184066366"><ele>383.20000000000005</ele><time>2026-04-09T11:22:15.999Z</time></trkpt><trkpt lat="39.43223275957763" lon="9.222420764270582"><ele>382.0</ele><time>2026-04-09T11:22:18.999Z</time></trkpt><trkpt lat="39.43228352837176" lon="9.222317670311897"><ele>380.6</ele><time>2026-04-09T11:22:20.999Z</time></trkpt><trkpt lat="39.43235348139914" lon="9.222190834815127"><ele>379.20000000000005</ele><time>2026-04-09T11:22:22.999Z</time></trkpt><trkpt lat="39.43239824164296" lon="9.222117541861255"><ele>377.8</ele><time>2026-04-09T11:22:23.999Z</time></trkpt><trkpt lat="39.43245288718306" lon="9.221971030351327"><ele>376.4</ele><time>2026-04-09T11:22:26Z</time></trkpt><trkpt lat="39.43245366459641" lon="9.221881251469231"><ele>375.0</ele><time>2026-04-09T11:22:27Z</time></trkpt><trkpt lat="39.43242105077632" lon="9.22172561882272"><ele>375.0</ele><time>2026-04-09T11:22:29Z</time></trkpt><trkpt lat="39.43238203513535" lon="9.221661397564901"><ele>375.0</ele><time>2026-04-09T11:22:30Z</time></trkpt><trkpt lat="39.43228045780294" lon="9.221562152378747"><ele>375.0</ele><time>2026-04-09T11:22:32Z</time></trkpt><trkpt lat="39.4321952526938" lon="9.221510058407516"><ele>375.0</ele><time>2026-04-09T11:22:33Z</time></trkpt><trkpt lat="39.43210869138017" lon="9.221453739310062"><ele>375.0</ele><time>2026-04-09T11:22:34Z</time></trkpt><trkpt lat="39.432032003353065" lon="9.22140292709285"><ele>376.2</ele><time>2026-04-09T11:22:35Z</time></trkpt><trkpt lat="39.43195359283505" lon="9.221346740945972"><ele>377.4</ele><time>2026-04-09T11:22:36Z</time></trkpt><trkpt lat="39.43190048370927" lon="9.221300094020732"><ele>378.6</ele><time>2026-04-09T11:22:37Z</time></trkpt><trkpt lat="39.43182509444925" lon="9.221193997932017"><ele>379.8</ele><time>2026-04-09T11:22:39Z</time></trkpt><trkpt lat="39.43177875316496" lon="9.221074663564586"><ele>381.0</ele><time>2026-04-09T11:22:41Z</time></trkpt><trkpt lat="39.431728460915586" lon="9.220933017037426"><ele>381.0</ele><time>2026-04-09T11:22:43Z</time></trkpt><trkpt lat="39.43172112770717" lon="9.220840356053513"><ele>381.0</ele><time>2026-04-09T11:22:44Z</time></trkpt><trkpt lat="39.431713356195054" lon="9.220758262212529"><ele>381.0</ele><time>2026-04-09T11:22:45Z</time></trkpt><trkpt lat="39.43171154001023" lon="9.220645384834425"><ele>381.0</ele><time>2026-04-09T11:22:47Z</time></trkpt><trkpt lat="39.43176932571927" lon="9.220571842415046"><ele>381.0</ele><time>2026-04-09T11:22:49Z</time></trkpt><trkpt lat="39.43187123293008" lon="9.220552681008376"><ele>381.0</ele><time>2026-04-09T11:22:51Z</time></trkpt><trkpt lat="39.43200132063389" lon="9.220555655605184"><ele>381.20000000000005</ele><time>2026-04-09T11:22:53Z</time></trkpt><trkpt lat="39.43206773620711" lon="9.220555840714251"><ele>381.40000000000003</ele><time>2026-04-09T11:22:54.001Z</time></trkpt><trkpt lat="39.432191598858054" lon="9.220558747730795"><ele>381.6</ele><time>2026-04-09T11:22:56.001Z</time></trkpt><trkpt lat="39.43230481740401" lon="9.220512428389892"><ele>381.8</ele><time>2026-04-09T11:22:58.001Z</time></trkpt><trkpt lat="39.43239545802606" lon="9.220444023592872"><ele>382.0</ele><time>2026-04-09T11:23:00.001Z</time></trkpt><trkpt lat="39.432468549855216" lon="9.220412153108745"><ele>382.0</ele><time>2026-04-09T11:23:02.001Z</time></trkpt><trkpt lat="39.43255084640962" lon="9.220495013077176"><ele>382.0</ele><time>2026-04-09T11:23:04.001Z</time></trkpt><trkpt lat="39.43261583157779" lon="9.220535236713703"><ele>382.0</ele><time>2026-04-09T11:23:05.001Z</time></trkpt><trkpt lat="39.43269843348349" lon="9.220539476261662"><ele>382.0</ele><time>2026-04-09T11:23:06.001Z</time></trkpt><trkpt lat="39.432779575825265" lon="9.22054006805083"><ele>382.0</ele><time>2026-04-09T11:23:07.001Z</time></trkpt><trkpt lat="39.43286582353179" lon="9.220550385752388"><ele>382.0</ele><time>2026-04-09T11:23:08.001Z</time></trkpt><trkpt lat="39.43294833078086" lon="9.220545569840983"><ele>378.66666666666663</ele><time>2026-04-09T11:23:09.001Z</time></trkpt><trkpt lat="39.43302578195503" lon="9.220540105635319"><ele>375.3333333333333</ele><time>2026-04-09T11:23:10.001Z</time></trkpt><trkpt lat="39.43313233718528" lon="9.220499752381158"><ele>372.0</ele><time>2026-04-09T11:23:12.001Z</time></trkpt><trkpt lat="39.43319223801357" lon="9.220458477869405"><ele>368.6666666666667</ele><time>2026-04-09T11:23:13.001Z</time></trkpt><trkpt lat="39.43324708577095" lon="9.220406097956513"><ele>365.33333333333337</ele><time>2026-04-09T11:23:14.001Z</time></trkpt><trkpt lat="39.433314183217234" lon="9.220320256998745"><ele>362.0</ele><time>2026-04-09T11:23:15.001Z</time></trkpt><trkpt lat="39.433392340385716" lon="9.220215791083534"><ele>362.0</ele><time>2026-04-09T11:23:16.001Z</time></trkpt><trkpt lat="39.43346332971967" lon="9.220164239415665"><ele>362.0</ele><time>2026-04-09T11:23:17.001Z</time></trkpt><trkpt lat="39.433571449992556" lon="9.220102066464099"><ele>362.0</ele><time>2026-04-09T11:23:19.001Z</time></trkpt><trkpt lat="39.433647434410894" lon="9.220073894020432"><ele>362.0</ele><time>2026-04-09T11:23:20.001Z</time></trkpt><trkpt lat="39.4337515359201" lon="9.220072053532173"><ele>362.0</ele><time>2026-04-09T11:23:21.001Z</time></trkpt><trkpt lat="39.433855484186616" lon="9.220060299749193"><ele>360.1666666666667</ele><time>2026-04-09T11:23:22.001Z</time></trkpt><trkpt lat="39.43394225945487" lon="9.220058476432806"><ele>358.33333333333337</ele><time>2026-04-09T11:23:23.001Z</time></trkpt><trkpt lat="39.434006106899545" lon="9.220062100324645"><ele>356.5</ele><time>2026-04-09T11:23:24.001Z</time></trkpt><trkpt lat="39.434079691065335" lon="9.220110131055998"><ele>354.6666666666667</ele><time>2026-04-09T11:23:26.001Z</time></trkpt><trkpt lat="39.43413554984844" lon="9.220161171438217"><ele>352.8333333333333</ele><time>2026-04-09T11:23:28.001Z</time></trkpt><trkpt lat="39.434073820735605" lon="9.2202477551986"><ele>351.0</ele><time>2026-04-09T11:23:31.002Z</time></trkpt><trkpt lat="39.43397200638187" lon="9.220264519558004"><ele>351.0</ele><time>2026-04-09T11:23:33.002Z</time></trkpt><trkpt lat="39.43390694514211" lon="9.220307462226279"><ele>351.0</ele><time>2026-04-09T11:23:34.002Z</time></trkpt><trkpt lat="39.43382826203924" lon="9.220432373813026"><ele>351.0</ele><time>2026-04-09T11:23:36.002Z</time></trkpt><trkpt lat="39.43379943868862" lon="9.220518293274553"><ele>351.0</ele><time>2026-04-09T11:23:37.002Z</time></trkpt><trkpt lat="39.43377560060045" lon="9.220627973823884"><ele>351.0</ele><time>2026-04-09T11:23:38.002Z</time></trkpt><trkpt lat="39.43376576308528" lon="9.220711775324851"><ele>351.0</ele><time>2026-04-09T11:23:39.002Z</time></trkpt><trkpt lat="39.43377537215561" lon="9.220847983944571"><ele>347.0</ele><time>2026-04-09T11:23:41.002Z</time></trkpt><trkpt lat="39.43388764373831" lon="9.220919318352161"><ele>343.0</ele><time>2026-04-09T11:23:43.002Z</time></trkpt><trkpt lat="39.433960465314584" lon="9.220885289504784"><ele>339.0</ele><time>2026-04-09T11:23:44.002Z</time></trkpt><trkpt lat="39.43402584840346" lon="9.2208511144807"><ele>335.0</ele><time>2026-04-09T11:23:45.002Z</time></trkpt><trkpt lat="39.43410524995751" lon="9.220780664747291"><ele>331.0</ele><time>2026-04-09T11:23:46.002Z</time></trkpt><trkpt lat="39.43421428586" lon="9.220756050654439"><ele>331.0</ele><time>2026-04-09T11:23:47.002Z</time></trkpt><trkpt lat="39.434322648265095" lon="9.22072180074357"><ele>331.0</ele><time>2026-04-09T11:23:48.002Z</time></trkpt><trkpt lat="39.43441762664722" lon="9.220675675270568"><ele>331.0</ele><time>2026-04-09T11:23:49.002Z</time></trkpt><trkpt lat="39.434507903548756" lon="9.220650124963042"><ele>331.0</ele><time>2026-04-09T11:23:50.002Z</time></trkpt><trkpt lat="39.43457700657408" lon="9.220599763964199"><ele>331.0</ele><time>2026-04-09T11:23:51.002Z</time></trkpt><trkpt lat="39.434644417296944" lon="9.22053116382754"><ele>332.3333333333333</ele><time>2026-04-09T11:23:52.002Z</time></trkpt><trkpt lat="39.4347009588226" lon="9.220444798235876"><ele>333.66666666666663</ele><time>2026-04-09T11:23:53.002Z</time></trkpt><trkpt lat="39.43475113433982" lon="9.220353807991998"><ele>335.0</ele><time>2026-04-09T11:23:54.002Z</time></trkpt><trkpt lat="39.43479703584664" lon="9.22028665190769"><ele>336.3333333333333</ele><time>2026-04-09T11:23:55.002Z</time></trkpt><trkpt lat="39.434858219981656" lon="9.220241244657307"><ele>337.6666666666667</ele><time>2026-04-09T11:23:56.002Z</time></trkpt><trkpt lat="39.434942174109175" lon="9.220195131301633"><ele>339.0</ele><time>2026-04-09T11:23:57.002Z</time></trkpt><trkpt lat="39.4350288447553" lon="9.220166858799471"><ele>339.0</ele><time>2026-04-09T11:23:58.002Z</time></trkpt><trkpt lat="39.43512377663687" lon="9.220158576082154"><ele>339.0</ele><time>2026-04-09T11:23:59.002Z</time></trkpt><trkpt lat="39.43521239198494" lon="9.220181448689994"><ele>339.0</ele><time>2026-04-09T11:24:00.002Z</time></trkpt><trkpt lat="39.435302784102554" lon="9.220179001710601"><ele>339.0</ele><time>2026-04-09T11:24:01.002Z</time></trkpt><trkpt lat="39.435393603092244" lon="9.220157785909647"><ele>339.0</ele><time>2026-04-09T11:24:02.002Z</time></trkpt><trkpt lat="39.43546708157376" lon="9.220147541554583"><ele>339.0</ele><time>2026-04-09T11:24:03.002Z</time></trkpt><trkpt lat="39.435538425381104" lon="9.220156883517024"><ele>337.5</ele><time>2026-04-09T11:24:04.002Z</time></trkpt><trkpt lat="39.43560727796202" lon="9.220134659915884"><ele>336.0</ele><time>2026-04-09T11:24:05.002Z</time></trkpt><trkpt lat="39.43567685974" lon="9.22009326494338"><ele>334.5</ele><time>2026-04-09T11:24:06.003Z</time></trkpt><trkpt lat="39.435734466274866" lon="9.220047805427114"><ele>333.0</ele><time>2026-04-09T11:24:07.003Z</time></trkpt><trkpt lat="39.43577836885613" lon="9.219960251546967"><ele>331.5</ele><time>2026-04-09T11:24:08.003Z</time></trkpt><trkpt lat="39.43582931755489" lon="9.219879105857673"><ele>330.0</ele><time>2026-04-09T11:24:09.003Z</time></trkpt><trkpt lat="39.43587016417265" lon="9.21979649044662"><ele>330.0</ele><time>2026-04-09T11:24:10.003Z</time></trkpt><trkpt lat="39.435894229593835" lon="9.21971724261443"><ele>330.0</ele><time>2026-04-09T11:24:11.003Z</time></trkpt><trkpt lat="39.43590671685654" lon="9.219634025234036"><ele>330.0</ele><time>2026-04-09T11:24:12.003Z</time></trkpt><trkpt lat="39.43593965527457" lon="9.219507558339139"><ele>330.0</ele><time>2026-04-09T11:24:14.003Z</time></trkpt><trkpt lat="39.43595514199682" lon="9.219424831514527"><ele>330.0</ele><time>2026-04-09T11:24:16Z</time></trkpt><trkpt lat="39.43598227531192" lon="9.219339893763136"><ele>330.0</ele><time>2026-04-09T11:24:18Z</time></trkpt><trkpt lat="39.435992420431255" lon="9.219226714041458"><ele>330.0</ele><time>2026-04-09T11:24:20Z</time></trkpt><trkpt lat="39.43598639429274" lon="9.219144248603346"><ele>330.0</ele><time>2026-04-09T11:24:21Z</time></trkpt><trkpt lat="39.435990093078786" lon="9.219047275688999"><ele>330.0</ele><time>2026-04-09T11:24:22Z</time></trkpt><trkpt lat="39.436005735750925" lon="9.218934893772822"><ele>330.0</ele><time>2026-04-09T11:24:23Z</time></trkpt><trkpt lat="39.436026374372595" lon="9.218819376687556"><ele>330.0</ele><time>2026-04-09T11:24:24Z</time></trkpt><trkpt lat="39.436033919029526" lon="9.218716963011973"><ele>330.0</ele><time>2026-04-09T11:24:25Z</time></trkpt><trkpt lat="39.436022532403754" lon="9.218617410274408"><ele>330.2</ele><time>2026-04-09T11:24:26Z</time></trkpt><trkpt lat="39.435997415610714" lon="9.218501025992497"><ele>330.4</ele><time>2026-04-09T11:24:27Z</time></trkpt><trkpt lat="39.43595734511079" lon="9.218386749423567"><ele>330.6</ele><time>2026-04-09T11:24:28Z</time></trkpt><trkpt lat="39.435919718156" lon="9.218261030493785"><ele>330.8</ele><time>2026-04-09T11:24:29Z</time></trkpt><trkpt lat="39.43591605315074" lon="9.218129207752135"><ele>331.0</ele><time>2026-04-09T11:24:30Z</time></trkpt><trkpt lat="39.43588586686655" lon="9.218001972893006"><ele>331.0</ele><time>2026-04-09T11:24:31Z</time></trkpt><trkpt lat="39.435885702842675" lon="9.217883871066197"><ele>331.0</ele><time>2026-04-09T11:24:32Z</time></trkpt><trkpt lat="39.43587759185449" lon="9.217777929207596"><ele>331.0</ele><time>2026-04-09T11:24:33Z</time></trkpt><trkpt lat="39.435891891847064" lon="9.217653388180064"><ele>331.0</ele><time>2026-04-09T11:24:35Z</time></trkpt><trkpt lat="39.43599813090323" lon="9.217575762192135"><ele>331.0</ele><time>2026-04-09T11:24:37.001Z</time></trkpt><trkpt lat="39.43607953926052" lon="9.217503266105844"><ele>331.0</ele><time>2026-04-09T11:24:38.001Z</time></trkpt><trkpt lat="39.436158227596756" lon="9.217446041387138"><ele>331.0</ele><time>2026-04-09T11:24:39.001Z</time></trkpt><trkpt lat="39.43623713990923" lon="9.217377413481502"><ele>331.0</ele><time>2026-04-09T11:24:40.001Z</time></trkpt><trkpt lat="39.436309573915295" lon="9.21730548117403"><ele>331.0</ele><time>2026-04-09T11:24:41.001Z</time></trkpt><trkpt lat="39.436369229914035" lon="9.217278262086207"><ele>331.0</ele><time>2026-04-09T11:24:42.001Z</time></trkpt><trkpt lat="39.43649991878198" lon="9.217278449551905"><ele>332.0</ele><time>2026-04-09T11:24:44.001Z</time></trkpt><trkpt lat="39.43660159010606" lon="9.217265504470827"><ele>333.0</ele><time>2026-04-09T11:24:45.001Z</time></trkpt><trkpt lat="39.43671719713863" lon="9.217267485749339"><ele>334.0</ele><time>2026-04-09T11:24:46.001Z</time></trkpt><trkpt lat="39.43683074123782" lon="9.21726879015939"><ele>335.0</ele><time>2026-04-09T11:24:47.001Z</time></trkpt><trkpt lat="39.436938977839084" lon="9.217264638196433"><ele>336.0</ele><time>2026-04-09T11:24:48.001Z</time></trkpt><trkpt lat="39.43704201937602" lon="9.217256885095816"><ele>334.8333333333333</ele><time>2026-04-09T11:24:49.001Z</time></trkpt><trkpt lat="39.437140589989475" lon="9.217252910473443"><ele>333.6666666666667</ele><time>2026-04-09T11:24:50.001Z</time></trkpt><trkpt lat="39.43722136416468" lon="9.21725719913795"><ele>332.5</ele><time>2026-04-09T11:24:51.001Z</time></trkpt><trkpt lat="39.43730297232437" lon="9.217276639828784"><ele>331.33333333333337</ele><time>2026-04-09T11:24:52.001Z</time></trkpt><trkpt lat="39.437386072076755" lon="9.217306556154153"><ele>330.1666666666667</ele><time>2026-04-09T11:24:53.001Z</time></trkpt><trkpt lat="39.43746200433259" lon="9.217328275280371"><ele>329.0</ele><time>2026-04-09T11:24:54.001Z</time></trkpt><trkpt lat="39.437540378523344" lon="9.217321401981595"><ele>329.0</ele><time>2026-04-09T11:24:55.001Z</time></trkpt><trkpt lat="39.437628745736625" lon="9.21729850290996"><ele>329.0</ele><time>2026-04-09T11:24:56.001Z</time></trkpt><trkpt lat="39.43771741217925" lon="9.21727196233652"><ele>329.0</ele><time>2026-04-09T11:24:57.001Z</time></trkpt><trkpt lat="39.43780831846894" lon="9.2172447159255"><ele>329.0</ele><time>2026-04-09T11:24:58.001Z</time></trkpt><trkpt lat="39.43788016620119" lon="9.217222085757093"><ele>329.0</ele><time>2026-04-09T11:24:59.001Z</time></trkpt><trkpt lat="39.43794720326857" lon="9.217213556989794"><ele>329.0</ele><time>2026-04-09T11:25:00.001Z</time></trkpt><trkpt lat="39.43801507500183" lon="9.217233017548935"><ele>327.33333333333337</ele><time>2026-04-09T11:25:01.001Z</time></trkpt><trkpt lat="39.438081888449666" lon="9.217271623187589"><ele>325.6666666666667</ele><time>2026-04-09T11:25:02.001Z</time></trkpt><trkpt lat="39.438140664741574" lon="9.217304325533112"><ele>324.0</ele><time>2026-04-09T11:25:03.001Z</time></trkpt><trkpt lat="39.43825454343374" lon="9.217319308088825"><ele>322.3333333333333</ele><time>2026-04-09T11:25:05.001Z</time></trkpt><trkpt lat="39.43837557571541" lon="9.217327379323601"><ele>320.66666666666663</ele><time>2026-04-09T11:25:07.001Z</time></trkpt><trkpt lat="39.438444435819676" lon="9.217331801302706"><ele>319.0</ele><time>2026-04-09T11:25:08.001Z</time></trkpt><trkpt lat="39.43854376779946" lon="9.21735896642854"><ele>316.0</ele><time>2026-04-09T11:25:10.001Z</time></trkpt><trkpt lat="39.43865915439097" lon="9.217414362580818"><ele>313.0</ele><time>2026-04-09T11:25:12.001Z</time></trkpt><trkpt lat="39.43878781189679" lon="9.217442957241941"><ele>310.0</ele><time>2026-04-09T11:25:14.001Z</time></trkpt><trkpt lat="39.438872988111854" lon="9.217441342957857"><ele>307.0</ele><time>2026-04-09T11:25:15.001Z</time></trkpt><trkpt lat="39.4389625146457" lon="9.21742781610559"><ele>304.0</ele><time>2026-04-09T11:25:16.001Z</time></trkpt><trkpt lat="39.439046159370335" lon="9.217398430573272"><ele>302.0</ele><time>2026-04-09T11:25:17.001Z</time></trkpt><trkpt lat="39.439122289202054" lon="9.217362092281846"><ele>300.0</ele><time>2026-04-09T11:25:18.002Z</time></trkpt><trkpt lat="39.43918482558163" lon="9.217333125797818"><ele>298.0</ele><time>2026-04-09T11:25:19.002Z</time></trkpt><trkpt lat="39.439285479517366" lon="9.217334396189434"><ele>296.0</ele><time>2026-04-09T11:25:21.002Z</time></trkpt><trkpt lat="39.43934892208787" lon="9.217447304154714"><ele>294.0</ele><time>2026-04-09T11:25:23.002Z</time></trkpt><trkpt lat="39.43935329426041" lon="9.217528893349172"><ele>292.0</ele><time>2026-04-09T11:25:24.002Z</time></trkpt><trkpt lat="39.4393327037981" lon="9.217615201535846"><ele>292.0</ele><time>2026-04-09T11:25:25.002Z</time></trkpt><trkpt lat="39.439313108024" lon="9.217695902940376"><ele>292.0</ele><time>2026-04-09T11:25:26.002Z</time></trkpt><trkpt lat="39.43931196340717" lon="9.21781438578367"><ele>292.0</ele><time>2026-04-09T11:25:28.002Z</time></trkpt><trkpt lat="39.43933811517526" lon="9.217913755653312"><ele>292.0</ele><time>2026-04-09T11:25:30.002Z</time></trkpt><trkpt lat="39.43936615926985" lon="9.218032257706005"><ele>292.0</ele><time>2026-04-09T11:25:32.002Z</time></trkpt><trkpt lat="39.439378223555956" lon="9.218144245060408"><ele>292.0</ele><time>2026-04-09T11:25:34.002Z</time></trkpt><trkpt lat="39.43933113823074" lon="9.218258085844198"><ele>292.4</ele><time>2026-04-09T11:25:36.002Z</time></trkpt><trkpt lat="39.439251757140944" lon="9.218406362838174"><ele>292.79999999999995</ele><time>2026-04-09T11:25:38.002Z</time></trkpt><trkpt lat="39.43921106891473" lon="9.218511779758993"><ele>293.2</ele><time>2026-04-09T11:25:39.002Z</time></trkpt><trkpt lat="39.439171697862704" lon="9.218630446505815"><ele>293.59999999999997</ele><time>2026-04-09T11:25:40.002Z</time></trkpt><trkpt lat="39.43912077312" lon="9.218767561181568"><ele>294.0</ele><time>2026-04-09T11:25:41.002Z</time></trkpt><trkpt lat="39.43906625311575" lon="9.21889227365747"><ele>295.0</ele><time>2026-04-09T11:25:42.002Z</time></trkpt><trkpt lat="39.43901463112297" lon="9.21901196405733"><ele>296.0</ele><time>2026-04-09T11:25:43.002Z</time></trkpt><trkpt lat="39.43898137547465" lon="9.21913054270488"><ele>297.0</ele><time>2026-04-09T11:25:44.002Z</time></trkpt><trkpt lat="39.43896559807939" lon="9.219237345537426"><ele>298.0</ele><time>2026-04-09T11:25:45.002Z</time></trkpt><trkpt lat="39.43896428180481" lon="9.219337107080552"><ele>299.0</ele><time>2026-04-09T11:25:46.002Z</time></trkpt><trkpt lat="39.43898214370442" lon="9.219434174167889"><ele>300.0</ele><time>2026-04-09T11:25:47.002Z</time></trkpt><trkpt lat="39.43902358776964" lon="9.219529182767994"><ele>300.0</ele><time>2026-04-09T11:25:48.002Z</time></trkpt><trkpt lat="39.439083145563444" lon="9.219604555120176"><ele>300.0</ele><time>2026-04-09T11:25:49.002Z</time></trkpt><trkpt lat="39.439149176671194" lon="9.219663203052086"><ele>300.0</ele><time>2026-04-09T11:25:50.002Z</time></trkpt><trkpt lat="39.439230901829475" lon="9.219733952364232"><ele>300.0</ele><time>2026-04-09T11:25:51.002Z</time></trkpt><trkpt lat="39.439317477914294" lon="9.219805907319062"><ele>300.0</ele><time>2026-04-09T11:25:52.002Z</time></trkpt><trkpt lat="39.43939842752185" lon="9.219899609850101"><ele>300.0</ele><time>2026-04-09T11:25:53.002Z</time></trkpt><trkpt lat="39.43946337731738" lon="9.220012880858935"><ele>300.0</ele><time>2026-04-09T11:25:54.002Z</time></trkpt><trkpt lat="39.439504230115936" lon="9.220134381748847"><ele>300.0</ele><time>2026-04-09T11:25:55.002Z</time></trkpt><trkpt lat="39.43952896958534" lon="9.220278119478515"><ele>300.0</ele><time>2026-04-09T11:25:56.003Z</time></trkpt><trkpt lat="39.43955691747427" lon="9.220419121966707"><ele>300.0</ele><time>2026-04-09T11:25:57.003Z</time></trkpt><trkpt lat="39.439587415992456" lon="9.22053188921203"><ele>300.0</ele><time>2026-04-09T11:25:58.003Z</time></trkpt><trkpt lat="39.43961709384005" lon="9.220632080350867"><ele>300.0</ele><time>2026-04-09T11:25:59.003Z</time></trkpt><trkpt lat="39.43965143358281" lon="9.220724519338912"><ele>300.0</ele><time>2026-04-09T11:26:01.003Z</time></trkpt><trkpt lat="39.439645944283775" lon="9.220853637141552"><ele>300.0</ele><time>2026-04-09T11:26:03.003Z</time></trkpt><trkpt lat="39.439624309205456" lon="9.220993755983708"><ele>300.0</ele><time>2026-04-09T11:26:05.003Z</time></trkpt><trkpt lat="39.43960534661916" lon="9.221077418864024"><ele>300.0</ele><time>2026-04-09T11:26:06.003Z</time></trkpt><trkpt lat="39.43957830920095" lon="9.221157302807732"><ele>299.8333333333333</ele><time>2026-04-09T11:26:07.003Z</time></trkpt><trkpt lat="39.43954875654039" lon="9.221244144577106"><ele>299.6666666666667</ele><time>2026-04-09T11:26:08.003Z</time></trkpt><trkpt lat="39.43952250199373" lon="9.22134423548351"><ele>299.5</ele><time>2026-04-09T11:26:09.003Z</time></trkpt><trkpt lat="39.439498471701995" lon="9.22143759120412"><ele>299.33333333333337</ele><time>2026-04-09T11:26:10.003Z</time></trkpt><trkpt lat="39.43947883917408" lon="9.221537528567463"><ele>299.1666666666667</ele><time>2026-04-09T11:26:11.003Z</time></trkpt><trkpt lat="39.43945884685847" lon="9.221638084384983"><ele>299.0</ele><time>2026-04-09T11:26:12.003Z</time></trkpt><trkpt lat="39.43944414720037" lon="9.22172963250781"><ele>299.0</ele><time>2026-04-09T11:26:13.003Z</time></trkpt><trkpt lat="39.43944651933533" lon="9.22182001877497"><ele>299.0</ele><time>2026-04-09T11:26:14.003Z</time></trkpt><trkpt lat="39.4394618869932" lon="9.221907967035596"><ele>299.0</ele><time>2026-04-09T11:26:15.003Z</time></trkpt><trkpt lat="39.43949639273189" lon="9.22199405260608"><ele>299.0</ele><time>2026-04-09T11:26:16.003Z</time></trkpt><trkpt lat="39.43954298390742" lon="9.2220569820279"><ele>299.0</ele><time>2026-04-09T11:26:17.003Z</time></trkpt><trkpt lat="39.439605432235034" lon="9.222109557329773"><ele>299.0</ele><time>2026-04-09T11:26:18.003Z</time></trkpt><trkpt lat="39.43967831905292" lon="9.22215760969708"><ele>299.0</ele><time>2026-04-09T11:26:19.003Z</time></trkpt><trkpt lat="39.43975045583429" lon="9.222213896937738"><ele>301.2857142857143</ele><time>2026-04-09T11:26:20.003Z</time></trkpt><trkpt lat="39.43981067540412" lon="9.222287362970548"><ele>303.57142857142856</ele><time>2026-04-09T11:26:21.003Z</time></trkpt><trkpt lat="39.43986154388699" lon="9.222371682525477"><ele>305.8571428571429</ele><time>2026-04-09T11:26:22.001Z</time></trkpt><trkpt lat="39.43989999914081" lon="9.222450600453033"><ele>308.1428571428571</ele><time>2026-04-09T11:26:23.001Z</time></trkpt><trkpt lat="39.439938122809465" lon="9.222528597331056"><ele>310.42857142857144</ele><time>2026-04-09T11:26:24.001Z</time></trkpt><trkpt lat="39.43996709871327" lon="9.22260547273124"><ele>312.7142857142857</ele><time>2026-04-09T11:26:25.001Z</time></trkpt><trkpt lat="39.439994023882996" lon="9.222679356823896"><ele>315.0</ele><time>2026-04-09T11:26:26.001Z</time></trkpt><trkpt lat="39.44002768556935" lon="9.222749022708197"><ele>315.5</ele><time>2026-04-09T11:26:27.001Z</time></trkpt><trkpt lat="39.440099847338" lon="9.222868450987832"><ele>316.0</ele><time>2026-04-09T11:26:29.001Z</time></trkpt><trkpt lat="39.44014666689313" lon="9.222937724593507"><ele>316.5</ele><time>2026-04-09T11:26:30.001Z</time></trkpt><trkpt lat="39.44018967792428" lon="9.223014601743804"><ele>317.0</ele><time>2026-04-09T11:26:31.001Z</time></trkpt><trkpt lat="39.440208205925884" lon="9.223097815755471"><ele>317.5</ele><time>2026-04-09T11:26:32.001Z</time></trkpt><trkpt lat="39.440207428293185" lon="9.223182998302809"><ele>318.0</ele><time>2026-04-09T11:26:33.001Z</time></trkpt><trkpt lat="39.44019372702661" lon="9.223277655825031"><ele>318.0</ele><time>2026-04-09T11:26:34.001Z</time></trkpt><trkpt lat="39.44017075176292" lon="9.223375971510169"><ele>318.0</ele><time>2026-04-09T11:26:35.001Z</time></trkpt><trkpt lat="39.44015588021141" lon="9.223469053422876"><ele>318.0</ele><time>2026-04-09T11:26:36.001Z</time></trkpt><trkpt lat="39.44015480416012" lon="9.223555664870627"><ele>318.0</ele><time>2026-04-09T11:26:37.001Z</time></trkpt><trkpt lat="39.44018425214232" lon="9.22372524486361"><ele>318.0</ele><time>2026-04-09T11:26:39.001Z</time></trkpt><trkpt lat="39.440193859636835" lon="9.22380992397116"><ele>318.0</ele><time>2026-04-09T11:26:40.001Z</time></trkpt><trkpt lat="39.44021150540286" lon="9.223893691021432"><ele>319.7142857142857</ele><time>2026-04-09T11:26:41.001Z</time></trkpt><trkpt lat="39.44020874602366" lon="9.223980196142305"><ele>321.42857142857144</ele><time>2026-04-09T11:26:42.001Z</time></trkpt><trkpt lat="39.44017804397848" lon="9.224052702597305"><ele>323.14285714285717</ele><time>2026-04-09T11:26:43.001Z</time></trkpt><trkpt lat="39.44012472554367" lon="9.224101809325514"><ele>324.8571428571429</ele><time>2026-04-09T11:26:44.001Z</time></trkpt><trkpt lat="39.44007973224581" lon="9.224160723397707"><ele>326.57142857142856</ele><time>2026-04-09T11:26:45.001Z</time></trkpt><trkpt lat="39.44004589350323" lon="9.224236538173507"><ele>328.28571428571433</ele><time>2026-04-09T11:26:46.001Z</time></trkpt><trkpt lat="39.44002953287663" lon="9.224328981942808"><ele>330.0</ele><time>2026-04-09T11:26:47.001Z</time></trkpt><trkpt lat="39.44002334532858" lon="9.224424670736619"><ele>330.0</ele><time>2026-04-09T11:26:48.001Z</time></trkpt><trkpt lat="39.44004193862067" lon="9.224526909346292"><ele>330.0</ele><time>2026-04-09T11:26:49.001Z</time></trkpt><trkpt lat="39.44006064890729" lon="9.224618218519879"><ele>330.0</ele><time>2026-04-09T11:26:50.001Z</time></trkpt><trkpt lat="39.44005356890463" lon="9.224715388254692"><ele>330.0</ele><time>2026-04-09T11:26:51.001Z</time></trkpt><trkpt lat="39.440016986250534" lon="9.22480375131479"><ele>330.0</ele><time>2026-04-09T11:26:52.001Z</time></trkpt><trkpt lat="39.439938067830056" lon="9.224953990542183"><ele>330.0</ele><time>2026-04-09T11:26:54.001Z</time></trkpt><trkpt lat="39.439919903455504" lon="9.22505666252063"><ele>332.2</ele><time>2026-04-09T11:26:55.001Z</time></trkpt><trkpt lat="39.43992427814725" lon="9.22517936290624"><ele>334.4</ele><time>2026-04-09T11:26:56.001Z</time></trkpt><trkpt lat="39.43994438117323" lon="9.2253389038032"><ele>336.6</ele><time>2026-04-09T11:26:57.001Z</time></trkpt><trkpt lat="39.43996302205004" lon="9.225465185247177"><ele>338.8</ele><time>2026-04-09T11:26:58.001Z</time></trkpt><trkpt lat="39.43997525339565" lon="9.225567362877023"><ele>341.0</ele><time>2026-04-09T11:26:59.001Z</time></trkpt><trkpt lat="39.43998183036938" lon="9.22567967556558"><ele>342.8</ele><time>2026-04-09T11:27:00.001Z</time></trkpt><trkpt lat="39.43998239129644" lon="9.225794386524399"><ele>344.6</ele><time>2026-04-09T11:27:01.001Z</time></trkpt><trkpt lat="39.43998654753657" lon="9.22592982989262"><ele>346.4</ele><time>2026-04-09T11:27:02.001Z</time></trkpt><trkpt lat="39.43997618992364" lon="9.226061600660564"><ele>348.2</ele><time>2026-04-09T11:27:03.001Z</time></trkpt><trkpt lat="39.43996547298011" lon="9.226184981206853"><ele>350.0</ele><time>2026-04-09T11:27:04.001Z</time></trkpt><trkpt lat="39.43995912606401" lon="9.226309557515794"><ele>350.0</ele><time>2026-04-09T11:27:05.001Z</time></trkpt><trkpt lat="39.43995428359995" lon="9.226437116116088"><ele>350.0</ele><time>2026-04-09T11:27:06.001Z</time></trkpt><trkpt lat="39.43994883119888" lon="9.22656073258537"><ele>350.0</ele><time>2026-04-09T11:27:07.001Z</time></trkpt><trkpt lat="39.439930072414" lon="9.226666004796849"><ele>350.0</ele><time>2026-04-09T11:27:08.001Z</time></trkpt><trkpt lat="39.43991059318427" lon="9.226766818546979"><ele>350.0</ele><time>2026-04-09T11:27:09.001Z</time></trkpt><trkpt lat="39.43989112485627" lon="9.226861277263062"><ele>350.0</ele><time>2026-04-09T11:27:10.001Z</time></trkpt><trkpt lat="39.43986895496072" lon="9.226952148143218"><ele>352.0</ele><time>2026-04-09T11:27:11.001Z</time></trkpt><trkpt lat="39.439828761151894" lon="9.227054117647182"><ele>354.0</ele><time>2026-04-09T11:27:12.001Z</time></trkpt><trkpt lat="39.43980360264432" lon="9.22713325983761"><ele>356.0</ele><time>2026-04-09T11:27:13.001Z</time></trkpt><trkpt lat="39.4397919311692" lon="9.227241972597946"><ele>358.0</ele><time>2026-04-09T11:27:14.001Z</time></trkpt><trkpt lat="39.43979808176649" lon="9.227390980036567"><ele>360.0</ele><time>2026-04-09T11:27:15.001Z</time></trkpt><trkpt lat="39.43981355238613" lon="9.227547123102067"><ele>362.0</ele><time>2026-04-09T11:27:16.001Z</time></trkpt><trkpt lat="39.43982964371435" lon="9.227691305651453"><ele>364.0</ele><time>2026-04-09T11:27:17.001Z</time></trkpt><trkpt lat="39.4398598808373" lon="9.227814352678232"><ele>366.0</ele><time>2026-04-09T11:27:18.001Z</time></trkpt><trkpt lat="39.43989470804099" lon="9.227917239220947"><ele>368.0</ele><time>2026-04-09T11:27:19.001Z</time></trkpt><trkpt lat="39.43993968943804" lon="9.228025615538119"><ele>370.0</ele><time>2026-04-09T11:27:20.001Z</time></trkpt><trkpt lat="39.439978791766556" lon="9.228123630500749"><ele>368.8333333333333</ele><time>2026-04-09T11:27:21.001Z</time></trkpt><trkpt lat="39.44001933539944" lon="9.228231965040603"><ele>367.66666666666663</ele><time>2026-04-09T11:27:22.002Z</time></trkpt><trkpt lat="39.44005349087162" lon="9.228333909929358"><ele>366.5</ele><time>2026-04-09T11:27:23.002Z</time></trkpt><trkpt lat="39.4400808282814" lon="9.228414666389162"><ele>365.3333333333333</ele><time>2026-04-09T11:27:24.002Z</time></trkpt><trkpt lat="39.44015290753366" lon="9.228501368021268"><ele>364.1666666666667</ele><time>2026-04-09T11:27:27.002Z</time></trkpt><trkpt lat="39.440218751819515" lon="9.228431491941294"><ele>363.0</ele><time>2026-04-09T11:27:30.002Z</time></trkpt><trkpt lat="39.440165379423334" lon="9.228288022469986"><ele>363.0</ele><time>2026-04-09T11:27:32.002Z</time></trkpt><trkpt lat="39.44013427275027" lon="9.228199132097895"><ele>363.0</ele><time>2026-04-09T11:27:33.002Z</time></trkpt><trkpt lat="39.440123737205276" lon="9.228106851308384"><ele>363.0</ele><time>2026-04-09T11:27:34.002Z</time></trkpt><trkpt lat="39.44012332894041" lon="9.228004713317873"><ele>363.0</ele><time>2026-04-09T11:27:35.002Z</time></trkpt><trkpt lat="39.440127172163436" lon="9.227894388126774"><ele>363.0</ele><time>2026-04-09T11:27:36.002Z</time></trkpt><trkpt lat="39.44013616853557" lon="9.227749895316654"><ele>363.0</ele><time>2026-04-09T11:27:37.002Z</time></trkpt><trkpt lat="39.4401469992077" lon="9.227601229495939"><ele>362.4</ele><time>2026-04-09T11:27:38.002Z</time></trkpt><trkpt lat="39.44015784584406" lon="9.227459848948717"><ele>361.79999999999995</ele><time>2026-04-09T11:27:39.002Z</time></trkpt><trkpt lat="39.440184574784666" lon="9.227339216151035"><ele>361.2</ele><time>2026-04-09T11:27:40.002Z</time></trkpt><trkpt lat="39.440223959642" lon="9.227229648370747"><ele>360.6</ele><time>2026-04-09T11:27:41.002Z</time></trkpt><trkpt lat="39.440270102911356" lon="9.227131017537769"><ele>360.0</ele><time>2026-04-09T11:27:42.002Z</time></trkpt><trkpt lat="39.44032260398817" lon="9.227041938055981"><ele>360.0</ele><time>2026-04-09T11:27:43.002Z</time></trkpt><trkpt lat="39.440389066693186" lon="9.226954897315169"><ele>360.0</ele><time>2026-04-09T11:27:44.002Z</time></trkpt><trkpt lat="39.44045422690774" lon="9.22687547538343"><ele>360.0</ele><time>2026-04-09T11:27:45.002Z</time></trkpt><trkpt lat="39.44053661154572" lon="9.226737132371827"><ele>360.0</ele><time>2026-04-09T11:27:47.002Z</time></trkpt><trkpt lat="39.44058346920074" lon="9.226623113456494"><ele>360.0</ele><time>2026-04-09T11:27:48.002Z</time></trkpt><trkpt lat="39.440596689568345" lon="9.226500578652075"><ele>366.0</ele><time>2026-04-09T11:27:49.002Z</time></trkpt><trkpt lat="39.440613131416704" lon="9.226364944867429"><ele>372.0</ele><time>2026-04-09T11:27:50.002Z</time></trkpt><trkpt lat="39.4406202398476" lon="9.22624973251196"><ele>378.0</ele><time>2026-04-09T11:27:51.002Z</time></trkpt><trkpt lat="39.44064626346466" lon="9.22615102705536"><ele>384.0</ele><time>2026-04-09T11:27:52.002Z</time></trkpt><trkpt lat="39.44068664452025" lon="9.226058039728484"><ele>390.0</ele><time>2026-04-09T11:27:53.002Z</time></trkpt><trkpt lat="39.44072101546501" lon="9.225972262514103"><ele>396.0</ele><time>2026-04-09T11:27:54.002Z</time></trkpt><trkpt lat="39.44074837149914" lon="9.225864927162709"><ele>396.0</ele><time>2026-04-09T11:27:55.002Z</time></trkpt><trkpt lat="39.44077320676596" lon="9.225753161069326"><ele>396.0</ele><time>2026-04-09T11:27:56.002Z</time></trkpt><trkpt lat="39.440802869455894" lon="9.225659957996683"><ele>396.0</ele><time>2026-04-09T11:27:57.002Z</time></trkpt><trkpt lat="39.44085593695851" lon="9.225592093829077"><ele>396.0</ele><time>2026-04-09T11:27:58.002Z</time></trkpt><trkpt lat="39.440929988542415" lon="9.22553099046325"><ele>396.0</ele><time>2026-04-09T11:27:59.002Z</time></trkpt><trkpt lat="39.44101172757067" lon="9.225492154765677"><ele>396.0</ele><time>2026-04-09T11:28:00.002Z</time></trkpt><trkpt lat="39.44110032693472" lon="9.225462225087362"><ele>393.8333333333333</ele><time>2026-04-09T11:28:01.002Z</time></trkpt><trkpt lat="39.44118437322494" lon="9.225434119054277"><ele>391.6666666666667</ele><time>2026-04-09T11:28:02.002Z</time></trkpt><trkpt lat="39.44126130690302" lon="9.225315847856605"><ele>389.5</ele><time>2026-04-09T11:28:04.002Z</time></trkpt><trkpt lat="39.441282893770634" lon="9.2252204738141"><ele>387.33333333333337</ele><time>2026-04-09T11:28:05.003Z</time></trkpt><trkpt lat="39.44129345661942" lon="9.225115563872308"><ele>385.1666666666667</ele><time>2026-04-09T11:28:06.003Z</time></trkpt><trkpt lat="39.44131897023205" lon="9.225024878170336"><ele>383.0</ele><time>2026-04-09T11:28:07.003Z</time></trkpt><trkpt lat="39.441352506989155" lon="9.224948155699856"><ele>388.33333333333337</ele><time>2026-04-09T11:28:08.003Z</time></trkpt><trkpt lat="39.44139355321844" lon="9.224867490555225"><ele>393.6666666666667</ele><time>2026-04-09T11:28:09.003Z</time></trkpt><trkpt lat="39.441431894804644" lon="9.224785925976185"><ele>399.0</ele><time>2026-04-09T11:28:10.003Z</time></trkpt><trkpt lat="39.4414658593186" lon="9.224679595651713"><ele>404.33333333333337</ele><time>2026-04-09T11:28:11.003Z</time></trkpt><trkpt lat="39.44148848239688" lon="9.224573946374475"><ele>409.6666666666667</ele><time>2026-04-09T11:28:12.003Z</time></trkpt><trkpt lat="39.44150757359385" lon="9.224465654336372"><ele>415.0</ele><time>2026-04-09T11:28:13.003Z</time></trkpt><trkpt lat="39.44152210851004" lon="9.224357657606962"><ele>415.0</ele><time>2026-04-09T11:28:14.003Z</time></trkpt><trkpt lat="39.44154722963248" lon="9.22423099904064"><ele>415.0</ele><time>2026-04-09T11:28:15.003Z</time></trkpt><trkpt lat="39.441584306342996" lon="9.224107089312279"><ele>415.0</ele><time>2026-04-09T11:28:16.003Z</time></trkpt><trkpt lat="39.441630840052454" lon="9.223979857088587"><ele>415.0</ele><time>2026-04-09T11:28:17.003Z</time></trkpt><trkpt lat="39.44168991650965" lon="9.223858992017"><ele>415.0</ele><time>2026-04-09T11:28:18.003Z</time></trkpt><trkpt lat="39.44175062508042" lon="9.223744770536191"><ele>412.6</ele><time>2026-04-09T11:28:19.003Z</time></trkpt><trkpt lat="39.44180120650831" lon="9.223633238063977"><ele>410.2</ele><time>2026-04-09T11:28:20.003Z</time></trkpt><trkpt lat="39.44184313322107" lon="9.223515117190138"><ele>407.79999999999995</ele><time>2026-04-09T11:28:21.003Z</time></trkpt><trkpt lat="39.44187603861607" lon="9.223403186554597"><ele>405.4</ele><time>2026-04-09T11:28:22.003Z</time></trkpt><trkpt lat="39.441902150107175" lon="9.223312491867686"><ele>403.0</ele><time>2026-04-09T11:28:23.003Z</time></trkpt><trkpt lat="39.44193980157722" lon="9.223203802662093"><ele>403.00000000000006</ele><time>2026-04-09T11:28:25.003Z</time></trkpt><trkpt lat="39.44200130103485" lon="9.223151835823511"><ele>403.0</ele><time>2026-04-09T11:28:27.003Z</time></trkpt><trkpt lat="39.44206967868513" lon="9.223195412395947"><ele>403.0</ele><time>2026-04-09T11:28:29.001Z</time></trkpt><trkpt lat="39.44197977851244" lon="9.223339424988968"><ele>403.0</ele><time>2026-04-09T11:28:32.001Z</time></trkpt><trkpt lat="39.44195707058521" lon="9.223427521533809"><ele>403.00000000000006</ele><time>2026-04-09T11:28:33.001Z</time></trkpt><trkpt lat="39.44196523606901" lon="9.22351163443992"><ele>403.0</ele><time>2026-04-09T11:28:34.001Z</time></trkpt><trkpt lat="39.44196528422855" lon="9.223658713584573"><ele>403.00000000000006</ele><time>2026-04-09T11:28:36.001Z</time></trkpt><trkpt lat="39.44196500264014" lon="9.223753497000027"><ele>403.0</ele><time>2026-04-09T11:28:37.001Z</time></trkpt><trkpt lat="39.441964683815314" lon="9.223860814516227"><ele>403.0</ele><time>2026-04-09T11:28:38.001Z</time></trkpt><trkpt lat="39.44195850980929" lon="9.223973587306416"><ele>403.0</ele><time>2026-04-09T11:28:39.001Z</time></trkpt><trkpt lat="39.44195112679912" lon="9.224073893135596"><ele>403.00000000000006</ele><time>2026-04-09T11:28:40.001Z</time></trkpt><trkpt lat="39.44194240484951" lon="9.224184546388674"><ele>403.0</ele><time>2026-04-09T11:28:41.001Z</time></trkpt><trkpt lat="39.44193288898246" lon="9.224297233807441"><ele>405.00000000000006</ele><time>2026-04-09T11:28:42.001Z</time></trkpt><trkpt lat="39.441923337517636" lon="9.224407962978217"><ele>407.0</ele><time>2026-04-09T11:28:43.001Z</time></trkpt><trkpt lat="39.44191972014563" lon="9.224526442548425"><ele>409.0</ele><time>2026-04-09T11:28:44.001Z</time></trkpt><trkpt lat="39.44193598427117" lon="9.22463705256969"><ele>411.0</ele><time>2026-04-09T11:28:45.001Z</time></trkpt><trkpt lat="39.4419319883695" lon="9.224736439747081"><ele>413.00000000000006</ele><time>2026-04-09T11:28:46.001Z</time></trkpt><trkpt lat="39.44195891190966" lon="9.224823901168563"><ele>415.0</ele><time>2026-04-09T11:28:47.001Z</time></trkpt><trkpt lat="39.44197417148047" lon="9.224911027112299"><ele>416.33333333333337</ele><time>2026-04-09T11:28:48.001Z</time></trkpt><trkpt lat="39.44198962511383" lon="9.225031720328857"><ele>417.6666666666667</ele><time>2026-04-09T11:28:49.001Z</time></trkpt><trkpt lat="39.441991722336304" lon="9.225149384685363"><ele>419.0</ele><time>2026-04-09T11:28:50.001Z</time></trkpt><trkpt lat="39.441998003641125" lon="9.22525774278029"><ele>420.33333333333337</ele><time>2026-04-09T11:28:51.001Z</time></trkpt><trkpt lat="39.44200253433038" lon="9.225365259645988"><ele>421.6666666666667</ele><time>2026-04-09T11:28:52.001Z</time></trkpt><trkpt lat="39.44202301850407" lon="9.225448011972166"><ele>423.0</ele><time>2026-04-09T11:28:53.001Z</time></trkpt><trkpt lat="39.44204424899731" lon="9.22553750344291"><ele>423.0</ele><time>2026-04-09T11:28:54.001Z</time></trkpt><trkpt lat="39.44208154863805" lon="9.225622337125136"><ele>423.0</ele><time>2026-04-09T11:28:55.001Z</time></trkpt><trkpt lat="39.44212739413745" lon="9.225704352574374"><ele>423.0</ele><time>2026-04-09T11:28:56.001Z</time></trkpt><trkpt lat="39.44212466157937" lon="9.225797626012081"><ele>423.0</ele><time>2026-04-09T11:28:57.001Z</time></trkpt><trkpt lat="39.442109279515165" lon="9.225921656328348"><ele>423.0</ele><time>2026-04-09T11:28:59.001Z</time></trkpt><trkpt lat="39.4420476690006" lon="9.226069385237246"><ele>425.0</ele><time>2026-04-09T11:29:01.001Z</time></trkpt><trkpt lat="39.44202806846411" lon="9.226217585778823"><ele>427.0</ele><time>2026-04-09T11:29:03.001Z</time></trkpt><trkpt lat="39.44203440741449" lon="9.226374009552542"><ele>428.99999999999994</ele><time>2026-04-09T11:29:05.001Z</time></trkpt><trkpt lat="39.44204775162411" lon="9.226482538645472"><ele>431.0</ele><time>2026-04-09T11:29:07.001Z</time></trkpt><trkpt lat="39.44211358600134" lon="9.226540993884033"><ele>433.0</ele><time>2026-04-09T11:29:09.001Z</time></trkpt><trkpt lat="39.442180584599775" lon="9.22647165073777"><ele>439.2</ele><time>2026-04-09T11:29:11.001Z</time></trkpt><trkpt lat="39.44220143423278" lon="9.22631921841308"><ele>445.4</ele><time>2026-04-09T11:29:13.001Z</time></trkpt><trkpt lat="39.44226824545205" lon="9.226190315964732"><ele>451.59999999999997</ele><time>2026-04-09T11:29:15.001Z</time></trkpt><trkpt lat="39.44232289008917" lon="9.226137059626817"><ele>457.79999999999995</ele><time>2026-04-09T11:29:16.001Z</time></trkpt><trkpt lat="39.442355097128576" lon="9.226055386032748"><ele>464.0</ele><time>2026-04-09T11:29:17.001Z</time></trkpt><trkpt lat="39.442405953543755" lon="9.225982070659528"><ele>463.99999999999994</ele><time>2026-04-09T11:29:18.001Z</time></trkpt><trkpt lat="39.442461154172115" lon="9.225819018909897"><ele>464.0</ele><time>2026-04-09T11:29:20.001Z</time></trkpt><trkpt lat="39.44248097162947" lon="9.225732475587858"><ele>464.0</ele><time>2026-04-09T11:29:21.001Z</time></trkpt><trkpt lat="39.44250385701922" lon="9.225647689094288"><ele>464.0</ele><time>2026-04-09T11:29:22.001Z</time></trkpt><trkpt lat="39.44252243079106" lon="9.225543740806728"><ele>463.99999999999994</ele><time>2026-04-09T11:29:23.001Z</time></trkpt><trkpt lat="39.442542174183295" lon="9.225437723997295"><ele>464.0</ele><time>2026-04-09T11:29:24.001Z</time></trkpt><trkpt lat="39.442563329216796" lon="9.225339947525171"><ele>463.3333333333333</ele><time>2026-04-09T11:29:25.001Z</time></trkpt><trkpt lat="39.44258631506649" lon="9.225262007013557"><ele>462.66666666666663</ele><time>2026-04-09T11:29:26.001Z</time></trkpt><trkpt lat="39.44259951915353" lon="9.225148511947745"><ele>462.0</ele><time>2026-04-09T11:29:28.001Z</time></trkpt><trkpt lat="39.44267154954355" lon="9.225150150518157"><ele>461.33333333333337</ele><time>2026-04-09T11:29:30.001Z</time></trkpt><trkpt lat="39.44266351650395" lon="9.22526459616832"><ele>460.6666666666667</ele><time>2026-04-09T11:29:32.001Z</time></trkpt><trkpt lat="39.44265704637071" lon="9.22537310478383"><ele>460.0</ele><time>2026-04-09T11:29:34.001Z</time></trkpt><trkpt lat="39.442680909166135" lon="9.225493801980951"><ele>460.8</ele><time>2026-04-09T11:29:36.001Z</time></trkpt><trkpt lat="39.442708177383196" lon="9.225666227348976"><ele>461.6</ele><time>2026-04-09T11:29:38.001Z</time></trkpt><trkpt lat="39.4427539849246" lon="9.225759856710624"><ele>462.4</ele><time>2026-04-09T11:29:39.001Z</time></trkpt><trkpt lat="39.44280555235807" lon="9.225864552095485"><ele>463.2</ele><time>2026-04-09T11:29:40.002Z</time></trkpt><trkpt lat="39.44287290636226" lon="9.225952381079564"><ele>464.0</ele><time>2026-04-09T11:29:41.002Z</time></trkpt><trkpt lat="39.44294572980284" lon="9.226028822791136"><ele>467.8333333333333</ele><time>2026-04-09T11:29:42.002Z</time></trkpt><trkpt lat="39.44303053437548" lon="9.22610022769869"><ele>471.66666666666663</ele><time>2026-04-09T11:29:43.002Z</time></trkpt><trkpt lat="39.4431125053656" lon="9.22617237687393"><ele>475.5</ele><time>2026-04-09T11:29:44.002Z</time></trkpt><trkpt lat="39.44318069296712" lon="9.226238553094223"><ele>479.33333333333337</ele><time>2026-04-09T11:29:45.002Z</time></trkpt><trkpt lat="39.443228185223155" lon="9.226303502295064"><ele>483.1666666666667</ele><time>2026-04-09T11:29:46.002Z</time></trkpt><trkpt lat="39.443280437432065" lon="9.226369951883463"><ele>487.0</ele><time>2026-04-09T11:29:47.002Z</time></trkpt><trkpt lat="39.44334389244055" lon="9.226456358886788"><ele>486.33333333333337</ele><time>2026-04-09T11:29:48.002Z</time></trkpt><trkpt lat="39.44341403307074" lon="9.226532437110196"><ele>485.6666666666667</ele><time>2026-04-09T11:29:49.002Z</time></trkpt><trkpt lat="39.443490544432976" lon="9.226586822578748"><ele>485.0</ele><time>2026-04-09T11:29:50.002Z</time></trkpt><trkpt lat="39.44357428329248" lon="9.226609717465397"><ele>484.33333333333337</ele><time>2026-04-09T11:29:51.002Z</time></trkpt><trkpt lat="39.443640922879766" lon="9.226661623673607"><ele>483.6666666666667</ele><time>2026-04-09T11:29:52.002Z</time></trkpt><trkpt lat="39.443712198143864" lon="9.22674938456128"><ele>483.0</ele><time>2026-04-09T11:29:54.002Z</time></trkpt><trkpt lat="39.4437794580655" lon="9.226862585326886"><ele>485.5</ele><time>2026-04-09T11:29:56.002Z</time></trkpt><trkpt lat="39.44381880827183" lon="9.226943251783732"><ele>488.0</ele><time>2026-04-09T11:29:57.002Z</time></trkpt><trkpt lat="39.443847906672346" lon="9.227039107186929"><ele>490.5</ele><time>2026-04-09T11:29:58.002Z</time></trkpt><trkpt lat="39.44387942773961" lon="9.227139006653807"><ele>493.0</ele><time>2026-04-09T11:29:59.002Z</time></trkpt><trkpt lat="39.44390782640805" lon="9.227235477017611"><ele>495.5</ele><time>2026-04-09T11:30:00.002Z</time></trkpt><trkpt lat="39.44393352681852" lon="9.227310715009343"><ele>498.0</ele><time>2026-04-09T11:30:01.002Z</time></trkpt><trkpt lat="39.4439836482206" lon="9.22738982440085"><ele>499.0</ele><time>2026-04-09T11:30:03.002Z</time></trkpt><trkpt lat="39.444031249535044" lon="9.227464954313284"><ele>500.0</ele><time>2026-04-09T11:30:05.002Z</time></trkpt><trkpt lat="39.44399383823378" lon="9.227578192549707"><ele>501.0</ele><time>2026-04-09T11:30:07.002Z</time></trkpt><trkpt lat="39.4439938382424" lon="9.227665046902942"><ele>502.0</ele><time>2026-04-09T11:32:23.002Z</time></trkpt><trkpt lat="39.443994710447164" lon="9.227778463071935"><ele>503.0</ele><time>2026-04-09T11:32:25.002Z</time></trkpt><trkpt lat="39.443997064772105" lon="9.227869440919443"><ele>504.0</ele><time>2026-04-09T11:32:26.002Z</time></trkpt><trkpt lat="39.443998038238654" lon="9.227977375576245"><ele>504.0</ele><time>2026-04-09T11:32:27.002Z</time></trkpt><trkpt lat="39.44399492286917" lon="9.228096137660494"><ele>504.0</ele><time>2026-04-09T11:32:28.002Z</time></trkpt><trkpt lat="39.44399907845733" lon="9.228223102175036"><ele>504.0</ele><time>2026-04-09T11:32:29.002Z</time></trkpt><trkpt lat="39.44399183263575" lon="9.228362810370347"><ele>504.0</ele><time>2026-04-09T11:32:30.002Z</time></trkpt><trkpt lat="39.44395094874328" lon="9.22850024538621"><ele>504.0</ele><time>2026-04-09T11:32:31.002Z</time></trkpt><trkpt lat="39.443913756771046" lon="9.228638882179572"><ele>505.2</ele><time>2026-04-09T11:32:32.002Z</time></trkpt><trkpt lat="39.44386637437503" lon="9.228780190528195"><ele>506.4</ele><time>2026-04-09T11:32:33.002Z</time></trkpt><trkpt lat="39.44383579271649" lon="9.228922965538985"><ele>507.6</ele><time>2026-04-09T11:32:34.002Z</time></trkpt><trkpt lat="39.44383632772585" lon="9.229061373410996"><ele>508.8</ele><time>2026-04-09T11:32:35.002Z</time></trkpt><trkpt lat="39.44381823153936" lon="9.22919669462343"><ele>510.0</ele><time>2026-04-09T11:32:36.002Z</time></trkpt><trkpt lat="39.44380833205961" lon="9.229335907990212"><ele>510.4</ele><time>2026-04-09T11:32:37.002Z</time></trkpt><trkpt lat="39.44379125018975" lon="9.229475706034258"><ele>510.8</ele><time>2026-04-09T11:32:38.002Z</time></trkpt><trkpt lat="39.4437846478292" lon="9.229610633200311"><ele>511.20000000000005</ele><time>2026-04-09T11:32:39.002Z</time></trkpt><trkpt lat="39.44380820029129" lon="9.22973296140025"><ele>511.6</ele><time>2026-04-09T11:32:40Z</time></trkpt><trkpt lat="39.443835372801495" lon="9.229845793076212"><ele>512.0</ele><time>2026-04-09T11:32:41Z</time></trkpt><trkpt lat="39.443855998598636" lon="9.229954311572284"><ele>510.3333333333333</ele><time>2026-04-09T11:32:42Z</time></trkpt><trkpt lat="39.44393021339129" lon="9.230032031198885"><ele>508.66666666666663</ele><time>2026-04-09T11:32:43Z</time></trkpt><trkpt lat="39.44398954004354" lon="9.230106654348813"><ele>507.0</ele><time>2026-04-09T11:32:44Z</time></trkpt><trkpt lat="39.4440795436649" lon="9.23011025654796"><ele>505.33333333333337</ele><time>2026-04-09T11:32:45Z</time></trkpt><trkpt lat="39.44416266757366" lon="9.23012429194651"><ele>503.6666666666667</ele><time>2026-04-09T11:32:46Z</time></trkpt><trkpt lat="39.44424244030635" lon="9.230150965783848"><ele>502.0</ele><time>2026-04-09T11:32:47Z</time></trkpt><trkpt lat="39.4442883154384" lon="9.230227877188263"><ele>501.99999999999994</ele><time>2026-04-09T11:32:48Z</time></trkpt><trkpt lat="39.44432646793917" lon="9.230304285568506"><ele>502.0</ele><time>2026-04-09T11:32:49Z</time></trkpt><trkpt lat="39.444347646596036" lon="9.230403103887825"><ele>501.99999999999994</ele><time>2026-04-09T11:32:50Z</time></trkpt><trkpt lat="39.44434559020877" lon="9.230499570876836"><ele>501.99999999999994</ele><time>2026-04-09T11:32:51Z</time></trkpt><trkpt lat="39.44434005035235" lon="9.23059415846871"><ele>502.0</ele><time>2026-04-09T11:32:52Z</time></trkpt><trkpt lat="39.44431789532828" lon="9.230675154562817"><ele>501.99999999999994</ele><time>2026-04-09T11:32:53Z</time></trkpt><trkpt lat="39.44428449662441" lon="9.230754080328948"><ele>501.99999999999994</ele><time>2026-04-09T11:32:54Z</time></trkpt><trkpt lat="39.444231830271214" lon="9.23086740098767"><ele>500.0</ele><time>2026-04-09T11:32:55Z</time></trkpt><trkpt lat="39.44417782009867" lon="9.230964730314254"><ele>498.00000000000006</ele><time>2026-04-09T11:32:56Z</time></trkpt><trkpt lat="39.44412678967914" lon="9.23105398920709"><ele>496.00000000000006</ele><time>2026-04-09T11:32:57Z</time></trkpt><trkpt lat="39.44407161642041" lon="9.231164668303089"><ele>494.0</ele><time>2026-04-09T11:32:58Z</time></trkpt><trkpt lat="39.44401429229923" lon="9.23127262597393"><ele>492.0</ele><time>2026-04-09T11:32:59Z</time></trkpt><trkpt lat="39.443961703421145" lon="9.231375821667555"><ele>491.8333333333333</ele><time>2026-04-09T11:33:00Z</time></trkpt><trkpt lat="39.44391806617026" lon="9.231477439834434"><ele>491.66666666666663</ele><time>2026-04-09T11:33:01Z</time></trkpt><trkpt lat="39.443889529817376" lon="9.231574658710933"><ele>491.5</ele><time>2026-04-09T11:33:02Z</time></trkpt><trkpt lat="39.443872389239395" lon="9.231676714219741"><ele>491.3333333333333</ele><time>2026-04-09T11:33:03Z</time></trkpt><trkpt lat="39.4438685040193" lon="9.231778796312986"><ele>491.16666666666663</ele><time>2026-04-09T11:33:04Z</time></trkpt><trkpt lat="39.44387884009079" lon="9.231869998079787"><ele>491.0</ele><time>2026-04-09T11:33:05Z</time></trkpt><trkpt lat="39.44391537729873" lon="9.231971677366342"><ele>491.0</ele><time>2026-04-09T11:33:06Z</time></trkpt><trkpt lat="39.44398042724266" lon="9.232080287327893"><ele>491.0</ele><time>2026-04-09T11:33:07Z</time></trkpt><trkpt lat="39.44405023790669" lon="9.232191674659093"><ele>491.0</ele><time>2026-04-09T11:33:08Z</time></trkpt><trkpt lat="39.444077020687786" lon="9.23229465187756"><ele>491.0</ele><time>2026-04-09T11:33:09Z</time></trkpt><trkpt lat="39.44402867568666" lon="9.232386329480594"><ele>491.0</ele><time>2026-04-09T11:33:10Z</time></trkpt><trkpt lat="39.444002354588235" lon="9.232474053485332"><ele>489.8</ele><time>2026-04-09T11:33:11Z</time></trkpt><trkpt lat="39.443961760355464" lon="9.232586735250205"><ele>488.6</ele><time>2026-04-09T11:33:12Z</time></trkpt><trkpt lat="39.443927141956294" lon="9.232710562249085"><ele>487.4</ele><time>2026-04-09T11:33:13Z</time></trkpt><trkpt lat="39.44390224278829" lon="9.232835069571857"><ele>486.2</ele><time>2026-04-09T11:33:14Z</time></trkpt><trkpt lat="39.443867661185294" lon="9.23295792458736"><ele>485.0</ele><time>2026-04-09T11:33:15Z</time></trkpt><trkpt lat="39.44382137838835" lon="9.23307871825116"><ele>479.0</ele><time>2026-04-09T11:33:16Z</time></trkpt><trkpt lat="39.44377796040991" lon="9.233205499697625"><ele>473.0</ele><time>2026-04-09T11:33:17Z</time></trkpt><trkpt lat="39.44372465176918" lon="9.233312106745307"><ele>467.0</ele><time>2026-04-09T11:33:18.001Z</time></trkpt><trkpt lat="39.443685075560126" lon="9.233398046662579"><ele>461.0</ele><time>2026-04-09T11:33:19.001Z</time></trkpt><trkpt lat="39.443617242349305" lon="9.233481270730488"><ele>455.0</ele><time>2026-04-09T11:33:21.001Z</time></trkpt><trkpt lat="39.443544949879005" lon="9.233571373045898"><ele>455.0</ele><time>2026-04-09T11:33:23.001Z</time></trkpt><trkpt lat="39.44346866816221" lon="9.233668822115083"><ele>455.0</ele><time>2026-04-09T11:33:25.001Z</time></trkpt><trkpt lat="39.44337845547937" lon="9.233711754107087"><ele>455.0</ele><time>2026-04-09T11:33:27.001Z</time></trkpt><trkpt lat="39.44325050589073" lon="9.233711726141244"><ele>455.0</ele><time>2026-04-09T11:33:29.001Z</time></trkpt><trkpt lat="39.44317465946471" lon="9.233706969957938"><ele>455.0</ele><time>2026-04-09T11:33:30.001Z</time></trkpt><trkpt lat="39.443093228557245" lon="9.233718342444584"><ele>455.0</ele><time>2026-04-09T11:33:31.001Z</time></trkpt><trkpt lat="39.44299567057345" lon="9.233703015225869"><ele>455.0</ele><time>2026-04-09T11:33:32.001Z</time></trkpt><trkpt lat="39.44288825364595" lon="9.233704778397152"><ele>455.0</ele><time>2026-04-09T11:33:33.001Z</time></trkpt><trkpt lat="39.44278406911953" lon="9.233695136696282"><ele>455.0</ele><time>2026-04-09T11:33:34.001Z</time></trkpt><trkpt lat="39.44268667888121" lon="9.233704130027437"><ele>455.0</ele><time>2026-04-09T11:33:35.001Z</time></trkpt><trkpt lat="39.44259255852454" lon="9.233695948627775"><ele>453.6</ele><time>2026-04-09T11:33:36.001Z</time></trkpt><trkpt lat="39.44250272359062" lon="9.233663869010579"><ele>452.2</ele><time>2026-04-09T11:33:37.001Z</time></trkpt><trkpt lat="39.44240798207513" lon="9.233612332794548"><ele>450.79999999999995</ele><time>2026-04-09T11:33:38.001Z</time></trkpt><trkpt lat="39.44232009922785" lon="9.233561981669594"><ele>449.4</ele><time>2026-04-09T11:33:39.001Z</time></trkpt><trkpt lat="39.442236564306306" lon="9.233542082210668"><ele>448.0</ele><time>2026-04-09T11:33:40.001Z</time></trkpt><trkpt lat="39.44215544276483" lon="9.233541712756713"><ele>446.59999999999997</ele><time>2026-04-09T11:33:41.001Z</time></trkpt><trkpt lat="39.44208614108248" lon="9.233567023779747"><ele>445.19999999999993</ele><time>2026-04-09T11:33:42.001Z</time></trkpt><trkpt lat="39.44201316546215" lon="9.233603885860797"><ele>443.8</ele><time>2026-04-09T11:33:43.001Z</time></trkpt><trkpt lat="39.44194772391201" lon="9.233697324483332"><ele>442.4</ele><time>2026-04-09T11:33:44.001Z</time></trkpt><trkpt lat="39.4418740110328" lon="9.233786154567436"><ele>441.0</ele><time>2026-04-09T11:33:45.001Z</time></trkpt><trkpt lat="39.44179852006862" lon="9.233894755062314"><ele>441.25</ele><time>2026-04-09T11:33:46.001Z</time></trkpt><trkpt lat="39.44175018358336" lon="9.234028837854906"><ele>441.5</ele><time>2026-04-09T11:33:47.001Z</time></trkpt><trkpt lat="39.4416801531354" lon="9.234143891787987"><ele>441.75</ele><time>2026-04-09T11:33:48.001Z</time></trkpt><trkpt lat="39.4416281796938" lon="9.234282799729488"><ele>442.0</ele><time>2026-04-09T11:33:49.001Z</time></trkpt><trkpt lat="39.441590482566525" lon="9.234420527980351"><ele>442.0</ele><time>2026-04-09T11:33:50.001Z</time></trkpt><trkpt lat="39.44156627889334" lon="9.234563068693522"><ele>442.00000000000006</ele><time>2026-04-09T11:33:51.001Z</time></trkpt><trkpt lat="39.44155244427082" lon="9.23468554898714"><ele>442.00000000000006</ele><time>2026-04-09T11:33:52.001Z</time></trkpt><trkpt lat="39.44155083212498" lon="9.234806768654982"><ele>442.0</ele><time>2026-04-09T11:33:53.001Z</time></trkpt><trkpt lat="39.44155855409529" lon="9.234910423129614"><ele>442.0</ele><time>2026-04-09T11:33:54.001Z</time></trkpt><trkpt lat="39.4416190981293" lon="9.235008125642107"><ele>441.6</ele><time>2026-04-09T11:33:55.001Z</time></trkpt><trkpt lat="39.44163159957926" lon="9.235101233945116"><ele>441.20000000000005</ele><time>2026-04-09T11:33:56.001Z</time></trkpt><trkpt lat="39.44161485837216" lon="9.235209491513002"><ele>440.8</ele><time>2026-04-09T11:33:57.001Z</time></trkpt><trkpt lat="39.441558199132" lon="9.235333829900926"><ele>440.4</ele><time>2026-04-09T11:33:58.001Z</time></trkpt><trkpt lat="39.44153081885639" lon="9.23546532683055"><ele>440.0</ele><time>2026-04-09T11:33:59.001Z</time></trkpt><trkpt lat="39.44148646070565" lon="9.235582242993695"><ele>438.0</ele><time>2026-04-09T11:34:00.001Z</time></trkpt><trkpt lat="39.44145532051993" lon="9.235702821260302"><ele>436.0</ele><time>2026-04-09T11:34:01.001Z</time></trkpt><trkpt lat="39.44141989362968" lon="9.235832032064831"><ele>434.0</ele><time>2026-04-09T11:34:02.001Z</time></trkpt><trkpt lat="39.441389267807516" lon="9.235945853677014"><ele>432.0</ele><time>2026-04-09T11:34:03.001Z</time></trkpt><trkpt lat="39.44137005729916" lon="9.236049569916311"><ele>430.0</ele><time>2026-04-09T11:34:04.001Z</time></trkpt><trkpt lat="39.441354345569756" lon="9.236143706895017"><ele>430.00000000000006</ele><time>2026-04-09T11:34:05.001Z</time></trkpt><trkpt lat="39.44133502861674" lon="9.23623158915241"><ele>430.0</ele><time>2026-04-09T11:34:06.002Z</time></trkpt><trkpt lat="39.44130247737841" lon="9.236325054451733"><ele>430.0</ele><time>2026-04-09T11:34:07.002Z</time></trkpt><trkpt lat="39.441259185851884" lon="9.236406173845435"><ele>430.0</ele><time>2026-04-09T11:34:08.002Z</time></trkpt><trkpt lat="39.44120472484398" lon="9.236473255507784"><ele>430.00000000000006</ele><time>2026-04-09T11:34:09.002Z</time></trkpt><trkpt lat="39.44115921236656" lon="9.236554483245031"><ele>430.0</ele><time>2026-04-09T11:34:10.002Z</time></trkpt><trkpt lat="39.44111519681266" lon="9.236646378891368"><ele>427.85714285714283</ele><time>2026-04-09T11:34:11.002Z</time></trkpt><trkpt lat="39.44107794598351" lon="9.236738044990283"><ele>425.7142857142857</ele><time>2026-04-09T11:34:12.002Z</time></trkpt><trkpt lat="39.4410404565159" lon="9.236827095181928"><ele>423.57142857142856</ele><time>2026-04-09T11:34:13.002Z</time></trkpt><trkpt lat="39.44100272877496" lon="9.236911534059844"><ele>421.42857142857144</ele><time>2026-04-09T11:34:14.002Z</time></trkpt><trkpt lat="39.44096797842021" lon="9.236990718908729"><ele>419.28571428571433</ele><time>2026-04-09T11:34:15.002Z</time></trkpt><trkpt lat="39.44092747999854" lon="9.237062349517622"><ele>417.14285714285717</ele><time>2026-04-09T11:34:16.002Z</time></trkpt><trkpt lat="39.44087770750047" lon="9.237133672942981"><ele>415.0</ele><time>2026-04-09T11:34:17.002Z</time></trkpt><trkpt lat="39.44082841086246" lon="9.237199216987179"><ele>415.00000000000006</ele><time>2026-04-09T11:34:18.002Z</time></trkpt><trkpt lat="39.440778570286824" lon="9.237257868386045"><ele>415.0</ele><time>2026-04-09T11:34:19.002Z</time></trkpt><trkpt lat="39.44073907721174" lon="9.23736499219892"><ele>415.0</ele><time>2026-04-09T11:34:21.002Z</time></trkpt><trkpt lat="39.44080481191927" lon="9.237438398040348"><ele>415.0</ele><time>2026-04-09T11:34:23.002Z</time></trkpt><trkpt lat="39.44091723452043" lon="9.237441035359316"><ele>415.00000000000006</ele><time>2026-04-09T11:34:25.002Z</time></trkpt><trkpt lat="39.44099271297656" lon="9.237392524849486"><ele>415.0</ele><time>2026-04-09T11:34:26.002Z</time></trkpt><trkpt lat="39.441076216012895" lon="9.237329606561152"><ele>415.0</ele><time>2026-04-09T11:34:27.002Z</time></trkpt><trkpt lat="39.44117443811747" lon="9.237245609885735"><ele>415.0</ele><time>2026-04-09T11:34:28.002Z</time></trkpt><trkpt lat="39.441272149215436" lon="9.237147651482037"><ele>415.0</ele><time>2026-04-09T11:34:29.002Z</time></trkpt><trkpt lat="39.44136050466421" lon="9.237041513118694"><ele>415.0</ele><time>2026-04-09T11:34:30.002Z</time></trkpt><trkpt lat="39.44144950869267" lon="9.236969015801456"><ele>414.6666666666667</ele><time>2026-04-09T11:34:31.002Z</time></trkpt><trkpt lat="39.441527079352035" lon="9.236910660040508"><ele>414.33333333333337</ele><time>2026-04-09T11:34:32.002Z</time></trkpt><trkpt lat="39.4415940691366" lon="9.23688245294895"><ele>414.0</ele><time>2026-04-09T11:34:33.002Z</time></trkpt><trkpt lat="39.44169176292002" lon="9.236904971048759"><ele>413.66666666666663</ele><time>2026-04-09T11:34:35.002Z</time></trkpt><trkpt lat="39.44172419905539" lon="9.237039672419696"><ele>413.3333333333333</ele><time>2026-04-09T11:34:37.002Z</time></trkpt><trkpt lat="39.44176187976323" lon="9.237131206037361"><ele>413.0</ele><time>2026-04-09T11:34:38.002Z</time></trkpt><trkpt lat="39.4417763915073" lon="9.237215389532874"><ele>413.0</ele><time>2026-04-09T11:34:39.002Z</time></trkpt><trkpt lat="39.441822974821804" lon="9.237328352951543"><ele>413.0</ele><time>2026-04-09T11:34:41.002Z</time></trkpt><trkpt lat="39.44193978541249" lon="9.237362280510194"><ele>413.0</ele><time>2026-04-09T11:34:43.002Z</time></trkpt><trkpt lat="39.44200889145476" lon="9.237343100648278"><ele>413.0</ele><time>2026-04-09T11:34:44.002Z</time></trkpt><trkpt lat="39.442092080983414" lon="9.237296789273005"><ele>413.0</ele><time>2026-04-09T11:34:45.002Z</time></trkpt><trkpt lat="39.44219987700251" lon="9.237251747280988"><ele>411.59999999999997</ele><time>2026-04-09T11:34:45.999Z</time></trkpt><trkpt lat="39.442294097939296" lon="9.237175055874076"><ele>410.2</ele><time>2026-04-09T11:34:46.999Z</time></trkpt><trkpt lat="39.44239784124576" lon="9.237132908382153"><ele>408.8</ele><time>2026-04-09T11:34:47.999Z</time></trkpt><trkpt lat="39.44248814479639" lon="9.23707985398456"><ele>407.4</ele><time>2026-04-09T11:34:48.999Z</time></trkpt><trkpt lat="39.442579448332665" lon="9.237034216657538"><ele>406.0</ele><time>2026-04-09T11:34:49.999Z</time></trkpt><trkpt lat="39.44266659255307" lon="9.23700176920181"><ele>406.00000000000006</ele><time>2026-04-09T11:34:50.999Z</time></trkpt><trkpt lat="39.44274182898529" lon="9.236971953264668"><ele>406.0</ele><time>2026-04-09T11:34:51.999Z</time></trkpt><trkpt lat="39.44282236937299" lon="9.236988111901592"><ele>406.0</ele><time>2026-04-09T11:34:53.999Z</time></trkpt><trkpt lat="39.442863682736025" lon="9.237051204101341"><ele>406.0</ele><time>2026-04-09T11:34:55.999Z</time></trkpt><trkpt lat="39.44284137269539" lon="9.237199662054442"><ele>406.00000000000006</ele><time>2026-04-09T11:34:57.999Z</time></trkpt><trkpt lat="39.442771951169874" lon="9.2372404849514"><ele>406.0</ele><time>2026-04-09T11:34:58.999Z</time></trkpt><trkpt lat="39.442702159013194" lon="9.237292929527523"><ele>403.4</ele><time>2026-04-09T11:34:59.999Z</time></trkpt><trkpt lat="39.44262265243401" lon="9.237389473778942"><ele>400.8</ele><time>2026-04-09T11:35:00.999Z</time></trkpt><trkpt lat="39.44255818321803" lon="9.23750183843271"><ele>398.2</ele><time>2026-04-09T11:35:01.999Z</time></trkpt><trkpt lat="39.44249547577179" lon="9.237619035861739"><ele>395.59999999999997</ele><time>2026-04-09T11:35:02.999Z</time></trkpt><trkpt lat="39.44245177319933" lon="9.237735726125504"><ele>393.0</ele><time>2026-04-09T11:35:04Z</time></trkpt><trkpt lat="39.442427202316445" lon="9.237845671174464"><ele>393.0</ele><time>2026-04-09T11:35:05Z</time></trkpt><trkpt lat="39.44242792487186" lon="9.237956126988696"><ele>393.0</ele><time>2026-04-09T11:35:06Z</time></trkpt><trkpt lat="39.442439622245324" lon="9.238067597124862"><ele>393.0</ele><time>2026-04-09T11:35:07Z</time></trkpt><trkpt lat="39.442429974172065" lon="9.238195922800765"><ele>393.0</ele><time>2026-04-09T11:35:08Z</time></trkpt><trkpt lat="39.442417689582356" lon="9.238330301398207"><ele>393.0</ele><time>2026-04-09T11:35:09Z</time></trkpt><trkpt lat="39.442411195600535" lon="9.2384535556933"><ele>392.3333333333333</ele><time>2026-04-09T11:35:10Z</time></trkpt><trkpt lat="39.442414797118964" lon="9.238560387072404"><ele>391.66666666666663</ele><time>2026-04-09T11:35:11Z</time></trkpt><trkpt lat="39.442421596267906" lon="9.238668396222968"><ele>391.0</ele><time>2026-04-09T11:35:12Z</time></trkpt><trkpt lat="39.44245539460675" lon="9.238748103717521"><ele>390.3333333333333</ele><time>2026-04-09T11:35:13Z</time></trkpt><trkpt lat="39.44247874968311" lon="9.238831040678395"><ele>389.66666666666663</ele><time>2026-04-09T11:35:14Z</time></trkpt><trkpt lat="39.44253866389023" lon="9.238894798459505"><ele>389.0</ele><time>2026-04-09T11:35:15Z</time></trkpt><trkpt lat="39.442621190318555" lon="9.238945155533287"><ele>387.2</ele><time>2026-04-09T11:35:16Z</time></trkpt><trkpt lat="39.44272880606624" lon="9.239002617095773"><ele>385.4</ele><time>2026-04-09T11:35:17Z</time></trkpt><trkpt lat="39.44283344813908" lon="9.239064057444224"><ele>383.6</ele><time>2026-04-09T11:35:18Z</time></trkpt><trkpt lat="39.442899573281004" lon="9.239119230470527"><ele>381.8</ele><time>2026-04-09T11:35:19Z</time></trkpt><trkpt lat="39.44293311088953" lon="9.239254349718376"><ele>380.0</ele><time>2026-04-09T11:35:21Z</time></trkpt><trkpt lat="39.44288465760966" lon="9.239314439070352"><ele>380.0</ele><time>2026-04-09T11:35:22Z</time></trkpt><trkpt lat="39.44278723409599" lon="9.239441124945051"><ele>380.0</ele><time>2026-04-09T11:35:24Z</time></trkpt><trkpt lat="39.44268748420274" lon="9.23951578812864"><ele>380.0</ele><time>2026-04-09T11:35:25Z</time></trkpt><trkpt lat="39.44258369200195" lon="9.239596722020162"><ele>380.0</ele><time>2026-04-09T11:35:26Z</time></trkpt><trkpt lat="39.44248304583419" lon="9.239665032856234"><ele>380.0</ele><time>2026-04-09T11:35:27Z</time></trkpt><trkpt lat="39.44236932738379" lon="9.239741884691375"><ele>380.0</ele><time>2026-04-09T11:35:28Z</time></trkpt><trkpt lat="39.44225843793864" lon="9.23980863333406"><ele>380.0</ele><time>2026-04-09T11:35:29Z</time></trkpt><trkpt lat="39.442140978240666" lon="9.239865800679677"><ele>380.0</ele><time>2026-04-09T11:35:30Z</time></trkpt><trkpt lat="39.44202231252191" lon="9.239924205810125"><ele>379.8</ele><time>2026-04-09T11:35:31Z</time></trkpt><trkpt lat="39.44190572802316" lon="9.239985794601717"><ele>379.6</ele><time>2026-04-09T11:35:32Z</time></trkpt><trkpt lat="39.44179895719686" lon="9.240054017198306"><ele>379.4</ele><time>2026-04-09T11:35:33Z</time></trkpt><trkpt lat="39.44170506940811" lon="9.240123483452967"><ele>379.2</ele><time>2026-04-09T11:35:34Z</time></trkpt><trkpt lat="39.441624704775364" lon="9.240185260506115"><ele>379.0</ele><time>2026-04-09T11:35:35Z</time></trkpt><trkpt lat="39.44156849811046" lon="9.240258018639908"><ele>379.00000000000006</ele><time>2026-04-09T11:35:36Z</time></trkpt><trkpt lat="39.44153618768964" lon="9.24033518663562"><ele>379.0</ele><time>2026-04-09T11:35:37.001Z</time></trkpt><trkpt lat="39.441507645604354" lon="9.240415434341868"><ele>379.0</ele><time>2026-04-09T11:35:38.001Z</time></trkpt><trkpt lat="39.44147269175413" lon="9.240511706974257"><ele>379.0</ele><time>2026-04-09T11:35:39.001Z</time></trkpt><trkpt lat="39.44145951451786" lon="9.240594920304357"><ele>379.0</ele><time>2026-04-09T11:35:40.001Z</time></trkpt><trkpt lat="39.44145489089339" lon="9.240694809754665"><ele>379.00000000000006</ele><time>2026-04-09T11:35:41.001Z</time></trkpt><trkpt lat="39.44147386800553" lon="9.240801841730475"><ele>379.0</ele><time>2026-04-09T11:35:42.001Z</time></trkpt><trkpt lat="39.441523041648864" lon="9.240926426146732"><ele>382.0</ele><time>2026-04-09T11:35:43.001Z</time></trkpt><trkpt lat="39.441591909562305" lon="9.241048122130614"><ele>385.0</ele><time>2026-04-09T11:35:44.001Z</time></trkpt><trkpt lat="39.44164410381242" lon="9.241162097599936"><ele>388.0</ele><time>2026-04-09T11:35:45.001Z</time></trkpt><trkpt lat="39.441681403076956" lon="9.241294162567854"><ele>391.0</ele><time>2026-04-09T11:35:46.001Z</time></trkpt><trkpt lat="39.44171009533739" lon="9.241409882227977"><ele>394.0</ele><time>2026-04-09T11:35:47.001Z</time></trkpt><trkpt lat="39.4417353192258" lon="9.241514367721146"><ele>394.00000000000006</ele><time>2026-04-09T11:35:48.001Z</time></trkpt><trkpt lat="39.44175035998953" lon="9.241609941080656"><ele>394.0</ele><time>2026-04-09T11:35:49.001Z</time></trkpt><trkpt lat="39.44173877616305" lon="9.241709966393195"><ele>394.0</ele><time>2026-04-09T11:35:50.001Z</time></trkpt><trkpt lat="39.44169377778315" lon="9.241821004291449"><ele>394.0</ele><time>2026-04-09T11:35:51.001Z</time></trkpt><trkpt lat="39.44164113859653" lon="9.241908554566338"><ele>394.00000000000006</ele><time>2026-04-09T11:35:52.001Z</time></trkpt><trkpt lat="39.44161349923705" lon="9.241990695329083"><ele>394.0</ele><time>2026-04-09T11:35:53.001Z</time></trkpt><trkpt lat="39.441603536801566" lon="9.242084104807287"><ele>394.00000000000006</ele><time>2026-04-09T11:35:54.001Z</time></trkpt><trkpt lat="39.4415816919583" lon="9.242178172978301"><ele>394.0</ele><time>2026-04-09T11:35:55.001Z</time></trkpt><trkpt lat="39.44155565122834" lon="9.242270741906164"><ele>394.0</ele><time>2026-04-09T11:35:56.001Z</time></trkpt><trkpt lat="39.44154586790714" lon="9.242389541395536"><ele>394.0</ele><time>2026-04-09T11:35:57.001Z</time></trkpt><trkpt lat="39.44155561952212" lon="9.242516629100077"><ele>394.00000000000006</ele><time>2026-04-09T11:35:58.001Z</time></trkpt><trkpt lat="39.44157578198032" lon="9.242635696119974"><ele>394.0</ele><time>2026-04-09T11:35:59.001Z</time></trkpt><trkpt lat="39.441620664539265" lon="9.242741747310527"><ele>393.4</ele><time>2026-04-09T11:36:00.001Z</time></trkpt><trkpt lat="39.441688273415586" lon="9.242829540404164"><ele>392.79999999999995</ele><time>2026-04-09T11:36:01.001Z</time></trkpt><trkpt lat="39.44176677562013" lon="9.242907684109735"><ele>392.20000000000005</ele><time>2026-04-09T11:36:02.001Z</time></trkpt><trkpt lat="39.44185542494834" lon="9.242963463755725"><ele>391.6</ele><time>2026-04-09T11:36:03.001Z</time></trkpt><trkpt lat="39.44194703103854" lon="9.243008812464346"><ele>391.0</ele><time>2026-04-09T11:36:04.001Z</time></trkpt><trkpt lat="39.44203168194278" lon="9.243064738213176"><ele>388.6</ele><time>2026-04-09T11:36:05.001Z</time></trkpt><trkpt lat="39.44209582596465" lon="9.243147991125019"><ele>386.20000000000005</ele><time>2026-04-09T11:36:06.001Z</time></trkpt><trkpt lat="39.44213234120905" lon="9.243254777445443"><ele>383.79999999999995</ele><time>2026-04-09T11:36:07.001Z</time></trkpt><trkpt lat="39.44214535258863" lon="9.24337999194845"><ele>381.4</ele><time>2026-04-09T11:36:08.001Z</time></trkpt><trkpt lat="39.44215969144589" lon="9.243504500736552"><ele>379.0</ele><time>2026-04-09T11:36:09.001Z</time></trkpt><trkpt lat="39.44218816224967" lon="9.243638082994776"><ele>381.75</ele><time>2026-04-09T11:36:10.001Z</time></trkpt><trkpt lat="39.44222330465845" lon="9.24377779611517"><ele>384.5</ele><time>2026-04-09T11:36:11.001Z</time></trkpt><trkpt lat="39.442269592722184" lon="9.243930893669944"><ele>387.25</ele><time>2026-04-09T11:36:12.001Z</time></trkpt><trkpt lat="39.44230979795897" lon="9.244084446934448"><ele>390.0</ele><time>2026-04-09T11:36:13.001Z</time></trkpt><trkpt lat="39.44232642042894" lon="9.244221185742827"><ele>390.0</ele><time>2026-04-09T11:36:14.001Z</time></trkpt><trkpt lat="39.44232151502359" lon="9.244339481908481"><ele>390.0</ele><time>2026-04-09T11:36:15.001Z</time></trkpt><trkpt lat="39.4423266858769" lon="9.244430638305937"><ele>390.0</ele><time>2026-04-09T11:36:16.001Z</time></trkpt><trkpt lat="39.442357038944145" lon="9.244505618723325"><ele>390.0</ele><time>2026-04-09T11:36:17.001Z</time></trkpt><trkpt lat="39.44247274482814" lon="9.244562461511594"><ele>390.0</ele><time>2026-04-09T11:36:19.002Z</time></trkpt><trkpt lat="39.44255763627179" lon="9.244551699046252"><ele>390.0</ele><time>2026-04-09T11:36:20.002Z</time></trkpt><trkpt lat="39.44264481362784" lon="9.244529073548934"><ele>390.0</ele><time>2026-04-09T11:36:21.002Z</time></trkpt><trkpt lat="39.442730910491534" lon="9.24448421184685"><ele>390.0</ele><time>2026-04-09T11:36:22.002Z</time></trkpt><trkpt lat="39.44280762749523" lon="9.24443715197593"><ele>390.0</ele><time>2026-04-09T11:36:23.002Z</time></trkpt><trkpt lat="39.44286714950784" lon="9.24438004812574"><ele>390.0</ele><time>2026-04-09T11:36:24.002Z</time></trkpt><trkpt lat="39.44291686584102" lon="9.244320879848487"><ele>390.0</ele><time>2026-04-09T11:36:25.002Z</time></trkpt><trkpt lat="39.44295918968576" lon="9.244260485746214"><ele>390.0</ele><time>2026-04-09T11:36:26.002Z</time></trkpt><trkpt lat="39.44304093686357" lon="9.24416057671843"><ele>390.0</ele><time>2026-04-09T11:36:28.002Z</time></trkpt><trkpt lat="39.443118251159845" lon="9.244148167657402"><ele>390.0</ele><time>2026-04-09T11:36:30.002Z</time></trkpt><trkpt lat="39.443140477676494" lon="9.244262383624942"><ele>390.0</ele><time>2026-04-09T11:36:32.002Z</time></trkpt><trkpt lat="39.44307688928274" lon="9.24439942909776"><ele>390.0</ele><time>2026-04-09T11:36:34.002Z</time></trkpt><trkpt lat="39.443013426341786" lon="9.244496627695607"><ele>390.0</ele><time>2026-04-09T11:36:35.002Z</time></trkpt><trkpt lat="39.442946113844286" lon="9.244592580109495"><ele>390.0</ele><time>2026-04-09T11:36:36.002Z</time></trkpt><trkpt lat="39.44287589251134" lon="9.244681629419048"><ele>390.0</ele><time>2026-04-09T11:36:37.002Z</time></trkpt><trkpt lat="39.44279901046759" lon="9.2447663422091"><ele>390.0</ele><time>2026-04-09T11:36:38.002Z</time></trkpt><trkpt lat="39.442727934130524" lon="9.244834234178322"><ele>390.0</ele><time>2026-04-09T11:36:39.002Z</time></trkpt><trkpt lat="39.44265859105582" lon="9.244905988899827"><ele>390.0</ele><time>2026-04-09T11:36:40.002Z</time></trkpt><trkpt lat="39.44259206841045" lon="9.244978833693688"><ele>387.6666666666667</ele><time>2026-04-09T11:36:41.002Z</time></trkpt><trkpt lat="39.442508379862105" lon="9.245037841070399"><ele>385.3333333333333</ele><time>2026-04-09T11:36:42.002Z</time></trkpt><trkpt lat="39.44242758810226" lon="9.245068501389904"><ele>383.0</ele><time>2026-04-09T11:36:43.002Z</time></trkpt><trkpt lat="39.44234440223008" lon="9.245090266350088"><ele>380.66666666666663</ele><time>2026-04-09T11:36:44.002Z</time></trkpt><trkpt lat="39.442271105319826" lon="9.245124572994472"><ele>378.3333333333333</ele><time>2026-04-09T11:36:45.002Z</time></trkpt><trkpt lat="39.44218722506159" lon="9.24513272491268"><ele>376.0</ele><time>2026-04-09T11:36:46.002Z</time></trkpt><trkpt lat="39.44210594567927" lon="9.24512805046652"><ele>373.3333333333333</ele><time>2026-04-09T11:36:47.002Z</time></trkpt><trkpt lat="39.442023429907294" lon="9.245126336153575"><ele>370.66666666666663</ele><time>2026-04-09T11:36:48.002Z</time></trkpt><trkpt lat="39.4419281226838" lon="9.245122900183881"><ele>368.0</ele><time>2026-04-09T11:36:49.002Z</time></trkpt><trkpt lat="39.441838446477234" lon="9.245116306493642"><ele>365.3333333333333</ele><time>2026-04-09T11:36:50.002Z</time></trkpt><trkpt lat="39.44175571451615" lon="9.245100835182791"><ele>362.6666666666667</ele><time>2026-04-09T11:36:51.002Z</time></trkpt><trkpt lat="39.44169233294808" lon="9.24507360096226"><ele>360.0</ele><time>2026-04-09T11:36:51.999Z</time></trkpt><trkpt lat="39.441606985709264" lon="9.24502027697935"><ele>360.0</ele><time>2026-04-09T11:36:53.999Z</time></trkpt><trkpt lat="39.44152383212155" lon="9.244986959759897"><ele>360.0</ele><time>2026-04-09T11:36:55.999Z</time></trkpt><trkpt lat="39.44144323963343" lon="9.245000144674904"><ele>360.0</ele><time>2026-04-09T11:36:58Z</time></trkpt><trkpt lat="39.441382818123266" lon="9.245071748554818"><ele>360.0</ele><time>2026-04-09T11:37:00Z</time></trkpt><trkpt lat="39.44137010588643" lon="9.24521396620785"><ele>360.0</ele><time>2026-04-09T11:37:02Z</time></trkpt><trkpt lat="39.4413561763352" lon="9.245310448494548"><ele>360.0</ele><time>2026-04-09T11:37:04Z</time></trkpt><trkpt lat="39.44129621716558" lon="9.24534053254587"><ele>360.0</ele><time>2026-04-09T11:37:06Z</time></trkpt><trkpt lat="39.44122251774213" lon="9.245259881955006"><ele>360.0</ele><time>2026-04-09T11:37:08Z</time></trkpt><trkpt lat="39.44124168041225" lon="9.245111393106319"><ele>360.0</ele><time>2026-04-09T11:37:10Z</time></trkpt><trkpt lat="39.44126975812205" lon="9.245013125307405"><ele>360.0</ele><time>2026-04-09T11:37:11Z</time></trkpt><trkpt lat="39.44128987129169" lon="9.244906229062746"><ele>360.0</ele><time>2026-04-09T11:37:12Z</time></trkpt><trkpt lat="39.44130336189581" lon="9.24481515124363"><ele>360.1666666666667</ele><time>2026-04-09T11:37:13Z</time></trkpt><trkpt lat="39.441313977619586" lon="9.244723653871226"><ele>360.3333333333333</ele><time>2026-04-09T11:37:14Z</time></trkpt><trkpt lat="39.44132300219474" lon="9.244613907428368"><ele>360.5</ele><time>2026-04-09T11:37:15Z</time></trkpt><trkpt lat="39.44131658336851" lon="9.244517766676106"><ele>360.66666666666663</ele><time>2026-04-09T11:37:16Z</time></trkpt><trkpt lat="39.44129059757985" lon="9.244438471148174"><ele>360.8333333333333</ele><time>2026-04-09T11:37:17Z</time></trkpt><trkpt lat="39.441243559168676" lon="9.244361823467129"><ele>361.0</ele><time>2026-04-09T11:37:18Z</time></trkpt><trkpt lat="39.441175023430546" lon="9.244304262905063"><ele>361.0</ele><time>2026-04-09T11:37:19Z</time></trkpt><trkpt lat="39.44109109128444" lon="9.244246347763339"><ele>361.0</ele><time>2026-04-09T11:37:20Z</time></trkpt><trkpt lat="39.44099548870142" lon="9.24419728128784"><ele>361.0</ele><time>2026-04-09T11:37:21Z</time></trkpt><trkpt lat="39.440911043909345" lon="9.244183962855136"><ele>361.0</ele><time>2026-04-09T11:37:22Z</time></trkpt><trkpt lat="39.440799125218504" lon="9.24426504007444"><ele>361.0</ele><time>2026-04-09T11:37:24Z</time></trkpt><trkpt lat="39.44076153820153" lon="9.244342741921635"><ele>361.0</ele><time>2026-04-09T11:37:25Z</time></trkpt><trkpt lat="39.44073478988786" lon="9.244432998406985"><ele>361.0</ele><time>2026-04-09T11:37:26Z</time></trkpt><trkpt lat="39.44071577133457" lon="9.24453465876786"><ele>361.0</ele><time>2026-04-09T11:37:27Z</time></trkpt><trkpt lat="39.440697640083926" lon="9.244637556878532"><ele>361.0</ele><time>2026-04-09T11:37:28Z</time></trkpt><trkpt lat="39.44066547392838" lon="9.244764770040854"><ele>361.0</ele><time>2026-04-09T11:37:29Z</time></trkpt><trkpt lat="39.44062120151744" lon="9.244882569993468"><ele>361.0</ele><time>2026-04-09T11:37:30Z</time></trkpt><trkpt lat="39.44057839708278" lon="9.244971798531207"><ele>363.0</ele><time>2026-04-09T11:37:31Z</time></trkpt><trkpt lat="39.440542359565335" lon="9.24504719943839"><ele>365.0</ele><time>2026-04-09T11:37:32Z</time></trkpt><trkpt lat="39.44052571662493" lon="9.245148722041625"><ele>367.0</ele><time>2026-04-09T11:37:35.001Z</time></trkpt><trkpt lat="39.44059434953391" lon="9.24522978759132"><ele>369.0</ele><time>2026-04-09T11:37:38.001Z</time></trkpt><trkpt lat="39.44066068610399" lon="9.2452048203022"><ele>371.0</ele><time>2026-04-09T11:37:40.001Z</time></trkpt><trkpt lat="39.44074302401381" lon="9.245261310358874"><ele>373.0</ele><time>2026-04-09T11:40:08.002Z</time></trkpt><trkpt lat="39.440789102419224" lon="9.245328672748366"><ele>373.0</ele><time>2026-04-09T11:40:09.002Z</time></trkpt><trkpt lat="39.44084950568781" lon="9.245413436974625"><ele>373.0</ele><time>2026-04-09T11:40:10.002Z</time></trkpt><trkpt lat="39.44091455396185" lon="9.245509321508017"><ele>373.0</ele><time>2026-04-09T11:40:11.002Z</time></trkpt><trkpt lat="39.44097706735075" lon="9.24563654538812"><ele>373.0</ele><time>2026-04-09T11:40:12.002Z</time></trkpt><trkpt lat="39.44102974648545" lon="9.245782262616837"><ele>373.0</ele><time>2026-04-09T11:40:13.002Z</time></trkpt><trkpt lat="39.441076712421996" lon="9.245943298135158"><ele>376.0</ele><time>2026-04-09T11:40:14.002Z</time></trkpt><trkpt lat="39.44111284897931" lon="9.24610713073811"><ele>379.0</ele><time>2026-04-09T11:40:15.002Z</time></trkpt><trkpt lat="39.44114253536899" lon="9.246260572970645"><ele>382.0</ele><time>2026-04-09T11:40:16.002Z</time></trkpt><trkpt lat="39.44117297173585" lon="9.246406212870708"><ele>385.0</ele><time>2026-04-09T11:40:17.002Z</time></trkpt><trkpt lat="39.441204994668134" lon="9.24654697750956"><ele>382.6</ele><time>2026-04-09T11:40:18.002Z</time></trkpt><trkpt lat="39.44124240368086" lon="9.246681553319434"><ele>380.2</ele><time>2026-04-09T11:40:19.002Z</time></trkpt><trkpt lat="39.44129149095402" lon="9.246810606075064"><ele>377.79999999999995</ele><time>2026-04-09T11:40:20.002Z</time></trkpt><trkpt lat="39.441356972669006" lon="9.246923171037984"><ele>375.4</ele><time>2026-04-09T11:40:21.002Z</time></trkpt><trkpt lat="39.44142841764834" lon="9.247029283248045"><ele>373.0</ele><time>2026-04-09T11:40:22.002Z</time></trkpt><trkpt lat="39.4415005608351" lon="9.247127001734006"><ele>373.0</ele><time>2026-04-09T11:40:23.002Z</time></trkpt><trkpt lat="39.44156112658727" lon="9.247213114287469"><ele>373.0</ele><time>2026-04-09T11:40:24.002Z</time></trkpt><trkpt lat="39.4416130276602" lon="9.24729286723514"><ele>373.0</ele><time>2026-04-09T11:40:25.002Z</time></trkpt><trkpt lat="39.44165176607962" lon="9.247383950780305"><ele>373.0</ele><time>2026-04-09T11:40:26.002Z</time></trkpt><trkpt lat="39.44167633964735" lon="9.24749591272615"><ele>373.0</ele><time>2026-04-09T11:40:27.002Z</time></trkpt><trkpt lat="39.44167793405535" lon="9.247622517906386"><ele>373.0</ele><time>2026-04-09T11:40:28.002Z</time></trkpt><trkpt lat="39.44166236545462" lon="9.247756048310398"><ele>376.0</ele><time>2026-04-09T11:40:29.002Z</time></trkpt><trkpt lat="39.441636437362575" lon="9.247894497501662"><ele>379.0</ele><time>2026-04-09T11:40:30.002Z</time></trkpt><trkpt lat="39.44161067941774" lon="9.24804428426111"><ele>382.0</ele><time>2026-04-09T11:40:31.002Z</time></trkpt><trkpt lat="39.44158478883705" lon="9.248199870963658"><ele>385.0</ele><time>2026-04-09T11:40:32.002Z</time></trkpt><trkpt lat="39.44156985035728" lon="9.248359567009954"><ele>385.75</ele><time>2026-04-09T11:40:33.002Z</time></trkpt><trkpt lat="39.441572664948744" lon="9.248524427149537"><ele>386.5</ele><time>2026-04-09T11:40:34.002Z</time></trkpt><trkpt lat="39.441599039712514" lon="9.248683431072074"><ele>387.25</ele><time>2026-04-09T11:40:35.002Z</time></trkpt><trkpt lat="39.44165116229328" lon="9.248839792252737"><ele>388.0</ele><time>2026-04-09T11:40:36.002Z</time></trkpt><trkpt lat="39.44171244558417" lon="9.248993794630191"><ele>388.75</ele><time>2026-04-09T11:40:37.002Z</time></trkpt><trkpt lat="39.44179226148603" lon="9.249144676447832"><ele>389.5</ele><time>2026-04-09T11:40:38.002Z</time></trkpt><trkpt lat="39.441874699178804" lon="9.249301954756545"><ele>390.25</ele><time>2026-04-09T11:40:39.002Z</time></trkpt><trkpt lat="39.44195518121372" lon="9.249463107407703"><ele>391.0</ele><time>2026-04-09T11:40:40.002Z</time></trkpt><trkpt lat="39.442034048124455" lon="9.249623546608298"><ele>391.0</ele><time>2026-04-09T11:40:41.002Z</time></trkpt><trkpt lat="39.4421051761426" lon="9.249770538648509"><ele>391.0</ele><time>2026-04-09T11:40:42.002Z</time></trkpt><trkpt lat="39.44217051603449" lon="9.24991094623158"><ele>391.0</ele><time>2026-04-09T11:40:43.002Z</time></trkpt><trkpt lat="39.44222940145907" lon="9.250043734113719"><ele>391.0</ele><time>2026-04-09T11:40:44.002Z</time></trkpt><trkpt lat="39.44228184935186" lon="9.250171445168633"><ele>389.75</ele><time>2026-04-09T11:40:45.002Z</time></trkpt><trkpt lat="39.44233758159252" lon="9.250301128335119"><ele>388.5</ele><time>2026-04-09T11:40:46.002Z</time></trkpt><trkpt lat="39.44239578195121" lon="9.250435503810095"><ele>387.25</ele><time>2026-04-09T11:40:47.002Z</time></trkpt><trkpt lat="39.44245418979151" lon="9.25056840882944"><ele>386.0</ele><time>2026-04-09T11:40:48.002Z</time></trkpt><trkpt lat="39.44251503305244" lon="9.250699369681021"><ele>386.0</ele><time>2026-04-09T11:40:49.002Z</time></trkpt><trkpt lat="39.44257631359045" lon="9.2508297178831"><ele>386.0</ele><time>2026-04-09T11:40:50.003Z</time></trkpt><trkpt lat="39.4426444495035" lon="9.250963028768314"><ele>386.0</ele><time>2026-04-09T11:40:51.003Z</time></trkpt><trkpt lat="39.44272571474027" lon="9.251094907826136"><ele>386.0</ele><time>2026-04-09T11:40:52.003Z</time></trkpt><trkpt lat="39.44282721079199" lon="9.251213417589357"><ele>386.0</ele><time>2026-04-09T11:40:53.003Z</time></trkpt><trkpt lat="39.44294721919166" lon="9.251310263395125"><ele>386.0</ele><time>2026-04-09T11:40:54.003Z</time></trkpt><trkpt lat="39.443071166982406" lon="9.251399632212216"><ele>386.0</ele><time>2026-04-09T11:40:55.003Z</time></trkpt><trkpt lat="39.44319643622212" lon="9.251477741975862"><ele>386.0</ele><time>2026-04-09T11:40:56.003Z</time></trkpt><trkpt lat="39.44331558924363" lon="9.251562840282556"><ele>385.0</ele><time>2026-04-09T11:40:57.003Z</time></trkpt><trkpt lat="39.443435197487695" lon="9.251647569517592"><ele>384.0</ele><time>2026-04-09T11:40:58.003Z</time></trkpt><trkpt lat="39.44355992272766" lon="9.251718023610884"><ele>383.0</ele><time>2026-04-09T11:40:59.003Z</time></trkpt><trkpt lat="39.44369310193073" lon="9.251764877713553"><ele>382.0</ele><time>2026-04-09T11:41:00.003Z</time></trkpt><trkpt lat="39.44383390338964" lon="9.251789073677505"><ele>382.0</ele><time>2026-04-09T11:41:01.003Z</time></trkpt><trkpt lat="39.44397961384735" lon="9.251806275056824"><ele>382.0</ele><time>2026-04-09T11:41:02.003Z</time></trkpt><trkpt lat="39.444125300501774" lon="9.251825550153367"><ele>382.0</ele><time>2026-04-09T11:41:03.003Z</time></trkpt><trkpt lat="39.44427430061492" lon="9.251850075222483"><ele>382.0</ele><time>2026-04-09T11:41:04.001Z</time></trkpt><trkpt lat="39.44442699194864" lon="9.251877851983998"><ele>382.0</ele><time>2026-04-09T11:41:05.001Z</time></trkpt><trkpt lat="39.44457879025975" lon="9.251901361538078"><ele>382.0</ele><time>2026-04-09T11:41:06.001Z</time></trkpt><trkpt lat="39.4447256706321" lon="9.251924768115384"><ele>382.0</ele><time>2026-04-09T11:41:07.001Z</time></trkpt><trkpt lat="39.4448734466732" lon="9.251948122411047"><ele>381.66666666666663</ele><time>2026-04-09T11:41:08.001Z</time></trkpt><trkpt lat="39.44502313406861" lon="9.251976393972146"><ele>381.3333333333333</ele><time>2026-04-09T11:41:09.001Z</time></trkpt><trkpt lat="39.44517389866615" lon="9.252011107800756"><ele>381.0</ele><time>2026-04-09T11:41:10.001Z</time></trkpt><trkpt lat="39.445320104125855" lon="9.25206333452825"><ele>381.0</ele><time>2026-04-09T11:41:11.001Z</time></trkpt><trkpt lat="39.44545244977947" lon="9.252122680273722"><ele>381.0</ele><time>2026-04-09T11:41:12.001Z</time></trkpt><trkpt lat="39.44557285167572" lon="9.252188047784335"><ele>381.0</ele><time>2026-04-09T11:41:13.001Z</time></trkpt><trkpt lat="39.445682332664255" lon="9.252260372771916"><ele>381.0</ele><time>2026-04-09T11:41:14.001Z</time></trkpt><trkpt lat="39.44578367596607" lon="9.252358763558817"><ele>382.75</ele><time>2026-04-09T11:41:15.001Z</time></trkpt><trkpt lat="39.445877372053396" lon="9.252487608437164"><ele>384.5</ele><time>2026-04-09T11:41:16.001Z</time></trkpt><trkpt lat="39.445962277352294" lon="9.252635141919658"><ele>386.25</ele><time>2026-04-09T11:41:17.001Z</time></trkpt><trkpt lat="39.44604495243531" lon="9.252778311682688"><ele>388.0</ele><time>2026-04-09T11:41:18.001Z</time></trkpt><trkpt lat="39.44612502122245" lon="9.252925038888641"><ele>388.0</ele><time>2026-04-09T11:41:19.001Z</time></trkpt><trkpt lat="39.44620365111571" lon="9.253084045781932"><ele>388.0</ele><time>2026-04-09T11:41:20.001Z</time></trkpt><trkpt lat="39.446278585018106" lon="9.253259281465807"><ele>388.0</ele><time>2026-04-09T11:41:21.001Z</time></trkpt><trkpt lat="39.44635250401902" lon="9.253441997669738"><ele>387.33333333333337</ele><time>2026-04-09T11:41:22.001Z</time></trkpt><trkpt lat="39.44643183815359" lon="9.253624110277574"><ele>386.66666666666663</ele><time>2026-04-09T11:41:23.001Z</time></trkpt><trkpt lat="39.44652622167148" lon="9.253813525297245"><ele>386.0</ele><time>2026-04-09T11:41:24.001Z</time></trkpt><trkpt lat="39.44664173454244" lon="9.253998698257591"><ele>386.0</ele><time>2026-04-09T11:41:25.001Z</time></trkpt><trkpt lat="39.446775687413364" lon="9.25417115510597"><ele>386.0</ele><time>2026-04-09T11:41:26.001Z</time></trkpt><trkpt lat="39.4469168969053" lon="9.25434678361951"><ele>386.0</ele><time>2026-04-09T11:41:27.001Z</time></trkpt><trkpt lat="39.447057342117354" lon="9.254530304788132"><ele>387.3333333333333</ele><time>2026-04-09T11:41:28.001Z</time></trkpt><trkpt lat="39.44720340820504" lon="9.25472205261543"><ele>388.66666666666663</ele><time>2026-04-09T11:41:29.001Z</time></trkpt><trkpt lat="39.447335879909105" lon="9.254896679881282"><ele>390.0</ele><time>2026-04-09T11:41:30.001Z</time></trkpt><trkpt lat="39.44745606819936" lon="9.255060029690627"><ele>391.0</ele><time>2026-04-09T11:41:31.001Z</time></trkpt><trkpt lat="39.44756796772862" lon="9.255212018936795"><ele>392.0</ele><time>2026-04-09T11:41:32.001Z</time></trkpt><trkpt lat="39.44767915107134" lon="9.255362931476132"><ele>393.0</ele><time>2026-04-09T11:41:33.001Z</time></trkpt><trkpt lat="39.44779052190825" lon="9.255513279622193"><ele>391.33333333333337</ele><time>2026-04-09T11:41:34.001Z</time></trkpt><trkpt lat="39.447895161526674" lon="9.255672620204368"><ele>389.6666666666667</ele><time>2026-04-09T11:41:35.001Z</time></trkpt><trkpt lat="39.4479815994702" lon="9.255837988619978"><ele>388.0</ele><time>2026-04-09T11:41:36.001Z</time></trkpt><trkpt lat="39.448055349918434" lon="9.256005403447867"><ele>388.0</ele><time>2026-04-09T11:41:37.001Z</time></trkpt><trkpt lat="39.44811198590031" lon="9.256186108601923"><ele>388.0</ele><time>2026-04-09T11:41:38.001Z</time></trkpt><trkpt lat="39.44814621506443" lon="9.256380642585064"><ele>388.0</ele><time>2026-04-09T11:41:39.001Z</time></trkpt><trkpt lat="39.448162022878" lon="9.25658561035925"><ele>389.6666666666667</ele><time>2026-04-09T11:41:40.001Z</time></trkpt><trkpt lat="39.44816908514135" lon="9.25678795736914"><ele>391.33333333333337</ele><time>2026-04-09T11:41:41.001Z</time></trkpt><trkpt lat="39.44817766928679" lon="9.256991097797815"><ele>393.0</ele><time>2026-04-09T11:41:42.001Z</time></trkpt><trkpt lat="39.44821696761031" lon="9.257177012465144"><ele>395.33333333333337</ele><time>2026-04-09T11:41:43.001Z</time></trkpt><trkpt lat="39.44828913632449" lon="9.25737493821548"><ele>397.6666666666667</ele><time>2026-04-09T11:41:44.001Z</time></trkpt><trkpt lat="39.44838251785365" lon="9.257565422220791"><ele>400.0</ele><time>2026-04-09T11:41:45.001Z</time></trkpt><trkpt lat="39.44848826453901" lon="9.25775687585538"><ele>400.0</ele><time>2026-04-09T11:41:46.001Z</time></trkpt><trkpt lat="39.44859353900151" lon="9.257961886295293"><ele>400.0</ele><time>2026-04-09T11:41:47.001Z</time></trkpt><trkpt lat="39.44868590081136" lon="9.258166033022556"><ele>400.0</ele><time>2026-04-09T11:41:48.001Z</time></trkpt><trkpt lat="39.44876296782747" lon="9.258390600948063"><ele>400.33333333333337</ele><time>2026-04-09T11:41:49.001Z</time></trkpt><trkpt lat="39.44882966357866" lon="9.25863584734727"><ele>400.66666666666663</ele><time>2026-04-09T11:41:50.001Z</time></trkpt><trkpt lat="39.44889416222446" lon="9.258885837734207"><ele>401.0</ele><time>2026-04-09T11:41:51.001Z</time></trkpt><trkpt lat="39.44896300433623" lon="9.259127403398702"><ele>401.0</ele><time>2026-04-09T11:41:52.001Z</time></trkpt><trkpt lat="39.4490350562239" lon="9.259368649195103"><ele>401.0</ele><time>2026-04-09T11:41:53.001Z</time></trkpt><trkpt lat="39.44910970895235" lon="9.259609041658964"><ele>401.0</ele><time>2026-04-09T11:41:54.001Z</time></trkpt><trkpt lat="39.449179784444276" lon="9.259849018436945"><ele>403.0</ele><time>2026-04-09T11:41:55.001Z</time></trkpt><trkpt lat="39.44924651819265" lon="9.260072370720268"><ele>405.0</ele><time>2026-04-09T11:41:56.001Z</time></trkpt><trkpt lat="39.4493078372029" lon="9.26028101040627"><ele>407.0</ele><time>2026-04-09T11:41:57.001Z</time></trkpt><trkpt lat="39.44936251639239" lon="9.26048043519479"><ele>410.0</ele><time>2026-04-09T11:41:58.001Z</time></trkpt><trkpt lat="39.44941538602565" lon="9.26066811673469"><ele>413.0</ele><time>2026-04-09T11:41:59.001Z</time></trkpt><trkpt lat="39.44946496215592" lon="9.260830269380074"><ele>416.0</ele><time>2026-04-09T11:42:00.001Z</time></trkpt><trkpt lat="39.44951320565059" lon="9.260961679323396"><ele>419.0</ele><time>2026-04-09T11:42:01.001Z</time></trkpt><trkpt lat="39.44956497476827" lon="9.26107166036117"><ele>418.99999999999994</ele><time>2026-04-09T11:42:02.001Z</time></trkpt><trkpt lat="39.44960636671897" lon="9.261134523481424"><ele>419.0</ele><time>2026-04-09T11:42:03.001Z</time></trkpt><trkpt lat="39.44969308968836" lon="9.261172122717031"><ele>419.0</ele><time>2026-04-09T11:42:07.001Z</time></trkpt><trkpt lat="39.4497956258941" lon="9.26120214770442"><ele>419.0</ele><time>2026-04-09T11:42:09.001Z</time></trkpt><trkpt lat="39.449895741718045" lon="9.261241924851733"><ele>418.99999999999994</ele><time>2026-04-09T11:42:11.001Z</time></trkpt><trkpt lat="39.44995502130397" lon="9.261271108050492"><ele>419.0</ele><time>2026-04-09T11:42:12.002Z</time></trkpt><trkpt lat="39.45002954711964" lon="9.261294475811408"><ele>416.3333333333333</ele><time>2026-04-09T11:42:13.002Z</time></trkpt><trkpt lat="39.45011286103411" lon="9.261319017229326"><ele>413.66666666666663</ele><time>2026-04-09T11:42:14.002Z</time></trkpt><trkpt lat="39.45020566478859" lon="9.26134246180333"><ele>411.0</ele><time>2026-04-09T11:42:15.002Z</time></trkpt><trkpt lat="39.45029986902317" lon="9.261362800651707"><ele>408.33333333333337</ele><time>2026-04-09T11:42:16.002Z</time></trkpt><trkpt lat="39.45038558406611" lon="9.261383302761823"><ele>405.6666666666667</ele><time>2026-04-09T11:42:17.002Z</time></trkpt><trkpt lat="39.4504552505536" lon="9.261413465899803"><ele>403.0</ele><time>2026-04-09T11:42:18.002Z</time></trkpt><trkpt lat="39.45051957676213" lon="9.261459678150569"><ele>403.0</ele><time>2026-04-09T11:42:19.002Z</time></trkpt><trkpt lat="39.45058939944624" lon="9.261520577231884"><ele>403.0</ele><time>2026-04-09T11:42:20.002Z</time></trkpt><trkpt lat="39.450649039178174" lon="9.261605040174825"><ele>403.0</ele><time>2026-04-09T11:42:21.002Z</time></trkpt><trkpt lat="39.450702261236025" lon="9.261718693839422"><ele>403.0</ele><time>2026-04-09T11:42:22.002Z</time></trkpt><trkpt lat="39.45075812286887" lon="9.261842178570365"><ele>403.0</ele><time>2026-04-09T11:42:23.002Z</time></trkpt><trkpt lat="39.45082115537085" lon="9.26198132873676"><ele>403.0</ele><time>2026-04-09T11:42:24.002Z</time></trkpt><trkpt lat="39.450893352453484" lon="9.262115151126586"><ele>403.0</ele><time>2026-04-09T11:42:25.002Z</time></trkpt><trkpt lat="39.45097530890765" lon="9.262232530454032"><ele>403.0</ele><time>2026-04-09T11:42:26.002Z</time></trkpt><trkpt lat="39.451054361333476" lon="9.262348331040643"><ele>403.0</ele><time>2026-04-09T11:42:27.002Z</time></trkpt><trkpt lat="39.451125230089644" lon="9.26243918464321"><ele>404.50000000000006</ele><time>2026-04-09T11:42:28.002Z</time></trkpt><trkpt lat="39.451185178155086" lon="9.262502063914452"><ele>406.0</ele><time>2026-04-09T11:42:29.002Z</time></trkpt><trkpt lat="39.4512493922352" lon="9.262548672487336"><ele>407.5</ele><time>2026-04-09T11:42:30.002Z</time></trkpt><trkpt lat="39.45132904926878" lon="9.262587947687027"><ele>409.0</ele><time>2026-04-09T11:42:31.002Z</time></trkpt><trkpt lat="39.45140444592252" lon="9.262621072644318"><ele>410.50000000000006</ele><time>2026-04-09T11:42:32.002Z</time></trkpt><trkpt lat="39.45147639140955" lon="9.26266701813033"><ele>412.0</ele><time>2026-04-09T11:42:33.002Z</time></trkpt><trkpt lat="39.4515560092327" lon="9.26273198651821"><ele>412.00000000000006</ele><time>2026-04-09T11:42:34.002Z</time></trkpt><trkpt lat="39.45162847131796" lon="9.262789891371225"><ele>412.0</ele><time>2026-04-09T11:42:35.002Z</time></trkpt><trkpt lat="39.45171000988354" lon="9.262841459024962"><ele>412.0</ele><time>2026-04-09T11:42:36.002Z</time></trkpt><trkpt lat="39.451778875093744" lon="9.262881458291705"><ele>412.0</ele><time>2026-04-09T11:42:37.002Z</time></trkpt><trkpt lat="39.45185417952967" lon="9.262904567437825"><ele>412.00000000000006</ele><time>2026-04-09T11:42:38.002Z</time></trkpt><trkpt lat="39.45193291989544" lon="9.262900153915652"><ele>412.0</ele><time>2026-04-09T11:42:39.002Z</time></trkpt><trkpt lat="39.452003213527504" lon="9.262896729670851"><ele>412.00000000000006</ele><time>2026-04-09T11:42:40.002Z</time></trkpt><trkpt lat="39.45205441697072" lon="9.26294472116365"><ele>412.0</ele><time>2026-04-09T11:42:41.002Z</time></trkpt><trkpt lat="39.45208679515095" lon="9.263045008085951"><ele>412.0</ele><time>2026-04-09T11:42:42.002Z</time></trkpt><trkpt lat="39.452098126175024" lon="9.263169062477555"><ele>412.0</ele><time>2026-04-09T11:42:43.002Z</time></trkpt><trkpt lat="39.45209981064581" lon="9.263296496571769"><ele>412.00000000000006</ele><time>2026-04-09T11:42:44.002Z</time></trkpt><trkpt lat="39.452095885511035" lon="9.263428917585669"><ele>412.0</ele><time>2026-04-09T11:42:45.002Z</time></trkpt><trkpt lat="39.45208635276846" lon="9.263557643460766"><ele>412.1666666666667</ele><time>2026-04-09T11:42:46.002Z</time></trkpt><trkpt lat="39.45207711057953" lon="9.263675822933553"><ele>412.33333333333337</ele><time>2026-04-09T11:42:47.002Z</time></trkpt><trkpt lat="39.45206994466706" lon="9.263780876357469"><ele>412.5</ele><time>2026-04-09T11:42:48.002Z</time></trkpt><trkpt lat="39.45206501191738" lon="9.26386458914978"><ele>412.66666666666663</ele><time>2026-04-09T11:42:49.002Z</time></trkpt><trkpt lat="39.45206045046767" lon="9.263960689076077"><ele>412.8333333333333</ele><time>2026-04-09T11:42:51.002Z</time></trkpt><trkpt lat="39.45204443195693" lon="9.264051066511035"><ele>413.0</ele><time>2026-04-09T11:42:53.002Z</time></trkpt><trkpt lat="39.4520276648746" lon="9.264154512068185"><ele>413.99999999999994</ele><time>2026-04-09T11:42:55.002Z</time></trkpt><trkpt lat="39.45203656332097" lon="9.264258275510159"><ele>415.0</ele><time>2026-04-09T11:42:57.002Z</time></trkpt><trkpt lat="39.45204335452398" lon="9.264401009992916"><ele>416.0</ele><time>2026-04-09T11:42:59.002Z</time></trkpt><trkpt lat="39.45203222610579" lon="9.26449647119206"><ele>417.0</ele><time>2026-04-09T11:43:00.003Z</time></trkpt><trkpt lat="39.45202870380085" lon="9.264606860873302"><ele>417.99999999999994</ele><time>2026-04-09T11:43:01.003Z</time></trkpt><trkpt lat="39.45203928006628" lon="9.264716674025284"><ele>419.0</ele><time>2026-04-09T11:43:02.003Z</time></trkpt><trkpt lat="39.45205995413324" lon="9.264819473868569"><ele>419.79999999999995</ele><time>2026-04-09T11:43:03.003Z</time></trkpt><trkpt lat="39.4520808717228" lon="9.26493723599975"><ele>420.59999999999997</ele><time>2026-04-09T11:43:04.003Z</time></trkpt><trkpt lat="39.45210162962289" lon="9.26504817029807"><ele>421.4</ele><time>2026-04-09T11:43:05.003Z</time></trkpt><trkpt lat="39.45212762700897" lon="9.265127061109057"><ele>422.2</ele><time>2026-04-09T11:43:06.003Z</time></trkpt><trkpt lat="39.45220280089853" lon="9.265200027357253"><ele>423.0</ele><time>2026-04-09T11:43:08.003Z</time></trkpt><trkpt lat="39.45231502206983" lon="9.26515547851619"><ele>424.8333333333333</ele><time>2026-04-09T11:43:10Z</time></trkpt><trkpt lat="39.45239214168957" lon="9.265101407740321"><ele>426.66666666666663</ele><time>2026-04-09T11:43:11Z</time></trkpt><trkpt lat="39.45248038346005" lon="9.265054953601176"><ele>428.5</ele><time>2026-04-09T11:43:12Z</time></trkpt><trkpt lat="39.452567277645166" lon="9.265033204764121"><ele>430.3333333333333</ele><time>2026-04-09T11:43:13Z</time></trkpt><trkpt lat="39.45265360625118" lon="9.265016614422308"><ele>432.16666666666663</ele><time>2026-04-09T11:43:14Z</time></trkpt><trkpt lat="39.45272784684041" lon="9.264997046424792"><ele>434.0</ele><time>2026-04-09T11:43:15Z</time></trkpt><trkpt lat="39.452801770258745" lon="9.264983090552693"><ele>433.99999999999994</ele><time>2026-04-09T11:43:16Z</time></trkpt><trkpt lat="39.4528816020467" lon="9.26497002780901"><ele>434.0</ele><time>2026-04-09T11:43:17Z</time></trkpt><trkpt lat="39.45296476858298" lon="9.264955395115757"><ele>434.0</ele><time>2026-04-09T11:43:18Z</time></trkpt><trkpt lat="39.45305275958356" lon="9.264943233682205"><ele>434.0</ele><time>2026-04-09T11:43:19Z</time></trkpt><trkpt lat="39.453131080595114" lon="9.264925690931188"><ele>433.99999999999994</ele><time>2026-04-09T11:43:20Z</time></trkpt><trkpt lat="39.45320854946539" lon="9.26490771050849"><ele>434.0</ele><time>2026-04-09T11:43:21Z</time></trkpt><trkpt lat="39.4532793840784" lon="9.264874036826189"><ele>435.2</ele><time>2026-04-09T11:43:22Z</time></trkpt><trkpt lat="39.45334555319451" lon="9.264821606842824"><ele>436.4</ele><time>2026-04-09T11:43:23Z</time></trkpt><trkpt lat="39.45340761416714" lon="9.264745913841255"><ele>437.6</ele><time>2026-04-09T11:43:24Z</time></trkpt><trkpt lat="39.45347830300948" lon="9.264640090495304"><ele>438.8</ele><time>2026-04-09T11:43:25Z</time></trkpt><trkpt lat="39.45355737181951" lon="9.264537237309963"><ele>440.0</ele><time>2026-04-09T11:43:26Z</time></trkpt><trkpt lat="39.453642380046325" lon="9.264455710568063"><ele>440.0</ele><time>2026-04-09T11:43:27Z</time></trkpt><trkpt lat="39.45373915783079" lon="9.264388336233438"><ele>440.0</ele><time>2026-04-09T11:43:28Z</time></trkpt><trkpt lat="39.4538374806408" lon="9.264341813670852"><ele>440.0</ele><time>2026-04-09T11:43:29Z</time></trkpt><trkpt lat="39.45392821996694" lon="9.264321163027551"><ele>440.0</ele><time>2026-04-09T11:43:30Z</time></trkpt><trkpt lat="39.45400438827689" lon="9.2643173495996"><ele>440.0</ele><time>2026-04-09T11:43:31Z</time></trkpt><trkpt lat="39.45409035049319" lon="9.264298620448008"><ele>443.5</ele><time>2026-04-09T11:43:32Z</time></trkpt><trkpt lat="39.454207805199076" lon="9.264280205742779"><ele>447.0</ele><time>2026-04-09T11:43:33Z</time></trkpt><trkpt lat="39.45433403281885" lon="9.264271925406113"><ele>450.5</ele><time>2026-04-09T11:43:34Z</time></trkpt><trkpt lat="39.4544565409338" lon="9.264267777105795"><ele>454.0</ele><time>2026-04-09T11:43:35Z</time></trkpt><trkpt lat="39.45457342131456" lon="9.264279512829356"><ele>458.75</ele><time>2026-04-09T11:43:36Z</time></trkpt><trkpt lat="39.45468674037416" lon="9.264308102553528"><ele>463.5</ele><time>2026-04-09T11:43:37Z</time></trkpt><trkpt lat="39.454799801164135" lon="9.26434237090957"><ele>468.25</ele><time>2026-04-09T11:43:38Z</time></trkpt><trkpt lat="39.4549101600416" lon="9.264364461276182"><ele>473.0</ele><time>2026-04-09T11:43:39Z</time></trkpt><trkpt lat="39.45502085111658" lon="9.264373571261025"><ele>473.0</ele><time>2026-04-09T11:43:40Z</time></trkpt><trkpt lat="39.45512996725026" lon="9.264359315973488"><ele>472.99999999999994</ele><time>2026-04-09T11:43:41Z</time></trkpt><trkpt lat="39.455235055152265" lon="9.264325698055107"><ele>472.99999999999994</ele><time>2026-04-09T11:43:42.001Z</time></trkpt><trkpt lat="39.45533608620384" lon="9.264288480990489"><ele>473.0</ele><time>2026-04-09T11:43:43.001Z</time></trkpt><trkpt lat="39.45542327241734" lon="9.26425909378583"><ele>473.0</ele><time>2026-04-09T11:43:44.001Z</time></trkpt><trkpt lat="39.4555103144632" lon="9.2642276049741"><ele>476.66666666666663</ele><time>2026-04-09T11:43:45.001Z</time></trkpt><trkpt lat="39.455589350775575" lon="9.264194153884242"><ele>480.3333333333333</ele><time>2026-04-09T11:43:46.001Z</time></trkpt><trkpt lat="39.455656874998475" lon="9.264157493807941"><ele>484.0</ele><time>2026-04-09T11:43:47.001Z</time></trkpt><trkpt lat="39.45571467887656" lon="9.264116322898008"><ele>487.66666666666663</ele><time>2026-04-09T11:43:48.001Z</time></trkpt><trkpt lat="39.45575794264889" lon="9.264052063739863"><ele>491.3333333333333</ele><time>2026-04-09T11:43:49.001Z</time></trkpt><trkpt lat="39.45579067410847" lon="9.263967910092232"><ele>495.0</ele><time>2026-04-09T11:43:50.001Z</time></trkpt><trkpt lat="39.4558110180219" lon="9.263853099220558"><ele>496.0</ele><time>2026-04-09T11:43:51.001Z</time></trkpt><trkpt lat="39.45583642921347" lon="9.263736012622767"><ele>497.0</ele><time>2026-04-09T11:43:52.001Z</time></trkpt><trkpt lat="39.455881243384454" lon="9.26364266645138"><ele>498.0</ele><time>2026-04-09T11:43:53.001Z</time></trkpt><trkpt lat="39.45593038363466" lon="9.26356271226903"><ele>499.0</ele><time>2026-04-09T11:43:54.001Z</time></trkpt><trkpt lat="39.45594423907672" lon="9.263417768739709"><ele>500.0</ele><time>2026-04-09T11:43:56.001Z</time></trkpt><trkpt lat="39.455900453588505" lon="9.263353385971337"><ele>501.0</ele><time>2026-04-09T11:43:57.001Z</time></trkpt><trkpt lat="39.4558303867131" lon="9.263305576879514"><ele>501.0</ele><time>2026-04-09T11:43:58.001Z</time></trkpt><trkpt lat="39.45572640989076" lon="9.263268145098209"><ele>501.0</ele><time>2026-04-09T11:43:59.001Z</time></trkpt><trkpt lat="39.45560108409154" lon="9.263231194862945"><ele>501.0</ele><time>2026-04-09T11:44:00.001Z</time></trkpt><trkpt lat="39.455518913985024" lon="9.263176734041707"><ele>501.0</ele><time>2026-04-09T11:44:01.001Z</time></trkpt><trkpt lat="39.45546637042371" lon="9.263088966073894"><ele>501.0</ele><time>2026-04-09T11:44:02.001Z</time></trkpt><trkpt lat="39.455424061130294" lon="9.26299428924441"><ele>503.1666666666667</ele><time>2026-04-09T11:44:03.001Z</time></trkpt><trkpt lat="39.45540216994009" lon="9.262894968168753"><ele>505.33333333333337</ele><time>2026-04-09T11:44:04.001Z</time></trkpt><trkpt lat="39.455399638813056" lon="9.262797390084527"><ele>507.5</ele><time>2026-04-09T11:44:05.001Z</time></trkpt><trkpt lat="39.45541152094207" lon="9.262676162000778"><ele>509.6666666666667</ele><time>2026-04-09T11:44:06.001Z</time></trkpt><trkpt lat="39.45543689375347" lon="9.262572342495886"><ele>511.83333333333337</ele><time>2026-04-09T11:44:07.001Z</time></trkpt><trkpt lat="39.455471727850856" lon="9.262480709910246"><ele>514.0</ele><time>2026-04-09T11:44:08.001Z</time></trkpt><trkpt lat="39.4555130027282" lon="9.262398392529164"><ele>514.0</ele><time>2026-04-09T11:44:09.001Z</time></trkpt><trkpt lat="39.45553633061314" lon="9.262291364774132"><ele>514.0</ele><time>2026-04-09T11:44:11.001Z</time></trkpt><trkpt lat="39.455598383333346" lon="9.262220917873755"><ele>514.0</ele><time>2026-04-09T11:44:14.001Z</time></trkpt><trkpt lat="39.455669971319935" lon="9.262309081536928"><ele>514.0</ele><time>2026-04-09T11:44:16.001Z</time></trkpt><trkpt lat="39.45565216263214" lon="9.262454752470532"><ele>514.0</ele><time>2026-04-09T11:44:18.001Z</time></trkpt><trkpt lat="39.45565582217293" lon="9.2625580683388"><ele>514.0</ele><time>2026-04-09T11:44:19.001Z</time></trkpt><trkpt lat="39.455683612993994" lon="9.262650584487627"><ele>514.0</ele><time>2026-04-09T11:44:20.001Z</time></trkpt><trkpt lat="39.455729278173855" lon="9.262712768447406"><ele>514.0</ele><time>2026-04-09T11:44:21.001Z</time></trkpt><trkpt lat="39.45579183330905" lon="9.26276067199249"><ele>514.0</ele><time>2026-04-09T11:44:22.001Z</time></trkpt><trkpt lat="39.455864779367275" lon="9.262781339888122"><ele>514.0</ele><time>2026-04-09T11:44:23.001Z</time></trkpt><trkpt lat="39.455939046649576" lon="9.262810645290399"><ele>514.0</ele><time>2026-04-09T11:44:24.001Z</time></trkpt><trkpt lat="39.456036541664176" lon="9.26284253780351"><ele>514.0</ele><time>2026-04-09T11:44:25.001Z</time></trkpt><trkpt lat="39.4561397700217" lon="9.262878505146839"><ele>514.0</ele><time>2026-04-09T11:44:26.001Z</time></trkpt><trkpt lat="39.456223146237406" lon="9.26292620709004"><ele>514.0</ele><time>2026-04-09T11:44:27.001Z</time></trkpt><trkpt lat="39.45628959051233" lon="9.262973965558912"><ele>514.0</ele><time>2026-04-09T11:44:28.001Z</time></trkpt><trkpt lat="39.45635653122244" lon="9.26302494240377"><ele>514.0</ele><time>2026-04-09T11:44:29.001Z</time></trkpt><trkpt lat="39.45643283908228" lon="9.263094948923605"><ele>514.0</ele><time>2026-04-09T11:44:30.001Z</time></trkpt><trkpt lat="39.45650513207574" lon="9.263175541502635"><ele>517.8333333333334</ele><time>2026-04-09T11:44:31.002Z</time></trkpt><trkpt lat="39.45656913652375" lon="9.263268582812692"><ele>521.6666666666667</ele><time>2026-04-09T11:44:32.002Z</time></trkpt><trkpt lat="39.45660892576627" lon="9.263363318221888"><ele>525.5</ele><time>2026-04-09T11:44:33.002Z</time></trkpt><trkpt lat="39.45662016110628" lon="9.26346044741966"><ele>529.3333333333334</ele><time>2026-04-09T11:44:34.002Z</time></trkpt><trkpt lat="39.45660935621738" lon="9.263570619052242"><ele>533.1666666666666</ele><time>2026-04-09T11:44:35.002Z</time></trkpt><trkpt lat="39.45657378358412" lon="9.263681611527355"><ele>537.0</ele><time>2026-04-09T11:44:36.002Z</time></trkpt><trkpt lat="39.456532674099805" lon="9.263769179703893"><ele>537.0</ele><time>2026-04-09T11:44:37.002Z</time></trkpt><trkpt lat="39.45655112170567" lon="9.263936122893575"><ele>537.0</ele><time>2026-04-09T11:44:39.002Z</time></trkpt><trkpt lat="39.45659892539076" lon="9.264022486225509"><ele>537.0</ele><time>2026-04-09T11:44:40.002Z</time></trkpt><trkpt lat="39.45665160996792" lon="9.264116162380095"><ele>537.0</ele><time>2026-04-09T11:44:41.002Z</time></trkpt><trkpt lat="39.45669731498132" lon="9.264222387956114"><ele>537.0</ele><time>2026-04-09T11:44:42.002Z</time></trkpt><trkpt lat="39.45674095739875" lon="9.264323578693144"><ele>536.3333333333334</ele><time>2026-04-09T11:44:43.002Z</time></trkpt><trkpt lat="39.456767227463445" lon="9.264424008361358"><ele>535.6666666666666</ele><time>2026-04-09T11:44:44.002Z</time></trkpt><trkpt lat="39.456780238763464" lon="9.26450892052393"><ele>535.0</ele><time>2026-04-09T11:44:45.002Z</time></trkpt><trkpt lat="39.456794320800086" lon="9.264606957900215"><ele>534.3333333333333</ele><time>2026-04-09T11:44:47.002Z</time></trkpt><trkpt lat="39.456871121396794" lon="9.264633102282241"><ele>533.6666666666666</ele><time>2026-04-09T11:44:49.002Z</time></trkpt><trkpt lat="39.456933175164906" lon="9.264518528275325"><ele>533.0</ele><time>2026-04-09T11:44:51.002Z</time></trkpt><trkpt lat="39.45694803865308" lon="9.264417882439185"><ele>533.0</ele><time>2026-04-09T11:44:52.002Z</time></trkpt><trkpt lat="39.45695021345568" lon="9.26429758688523"><ele>533.0</ele><time>2026-04-09T11:44:53.002Z</time></trkpt><trkpt lat="39.45695048158259" lon="9.26419018628682"><ele>533.0</ele><time>2026-04-09T11:44:54.002Z</time></trkpt><trkpt lat="39.456960772600084" lon="9.264084625238905"><ele>533.0</ele><time>2026-04-09T11:44:55.002Z</time></trkpt><trkpt lat="39.456985607327745" lon="9.263966205288057"><ele>533.0</ele><time>2026-04-09T11:44:56.002Z</time></trkpt><trkpt lat="39.45701610674503" lon="9.263853346343085"><ele>533.0</ele><time>2026-04-09T11:44:57.002Z</time></trkpt><trkpt lat="39.45704879122505" lon="9.263758131844444"><ele>533.8</ele><time>2026-04-09T11:44:58.002Z</time></trkpt><trkpt lat="39.45709425535334" lon="9.263682300297253"><ele>534.5999999999999</ele><time>2026-04-09T11:44:59.002Z</time></trkpt><trkpt lat="39.45715017921743" lon="9.263569960582153"><ele>535.4000000000001</ele><time>2026-04-09T11:45:00.002Z</time></trkpt><trkpt lat="39.45719937553031" lon="9.263458953320923"><ele>536.2</ele><time>2026-04-09T11:45:01.002Z</time></trkpt><trkpt lat="39.45723887158478" lon="9.263339308534293"><ele>537.0</ele><time>2026-04-09T11:45:02.002Z</time></trkpt><trkpt lat="39.45727976851339" lon="9.263222110208302"><ele>541.5</ele><time>2026-04-09T11:45:03.002Z</time></trkpt><trkpt lat="39.457307148002" lon="9.263124643240138"><ele>546.0</ele><time>2026-04-09T11:45:04.002Z</time></trkpt><trkpt lat="39.457316391146094" lon="9.263033768702767"><ele>550.5</ele><time>2026-04-09T11:45:05.002Z</time></trkpt><trkpt lat="39.457308342400935" lon="9.262952303869264"><ele>555.0</ele><time>2026-04-09T11:45:06.002Z</time></trkpt><trkpt lat="39.457272598399975" lon="9.262842986727373"><ele>559.5</ele><time>2026-04-09T11:45:08.002Z</time></trkpt><trkpt lat="39.457329039046684" lon="9.262793085866157"><ele>564.0</ele><time>2026-04-09T11:45:10.002Z</time></trkpt><trkpt lat="39.45741115037512" lon="9.262862917184057"><ele>564.0</ele><time>2026-04-09T11:45:12.002Z</time></trkpt><trkpt lat="39.45744186648117" lon="9.262954932359817"><ele>564.0</ele><time>2026-04-09T11:45:13.002Z</time></trkpt><trkpt lat="39.45747358680454" lon="9.263080189888647"><ele>564.0</ele><time>2026-04-09T11:45:14.002Z</time></trkpt><trkpt lat="39.45752131407583" lon="9.263218610992814"><ele>564.0</ele><time>2026-04-09T11:45:15.002Z</time></trkpt><trkpt lat="39.45757669641598" lon="9.263371626355909"><ele>564.0</ele><time>2026-04-09T11:45:16Z</time></trkpt><trkpt lat="39.4576184687813" lon="9.263522790283126"><ele>565.2</ele><time>2026-04-09T11:45:17Z</time></trkpt><trkpt lat="39.457649948890165" lon="9.263662209834699"><ele>566.4</ele><time>2026-04-09T11:45:18Z</time></trkpt><trkpt lat="39.45767023525313" lon="9.263795303210797"><ele>567.6</ele><time>2026-04-09T11:45:19Z</time></trkpt><trkpt lat="39.45767638653403" lon="9.263922918201592"><ele>568.8</ele><time>2026-04-09T11:45:20Z</time></trkpt><trkpt lat="39.45767343197381" lon="9.264036837104308"><ele>570.0</ele><time>2026-04-09T11:45:21Z</time></trkpt><trkpt lat="39.45767909909548" lon="9.264151996960676"><ele>570.0</ele><time>2026-04-09T11:45:22Z</time></trkpt><trkpt lat="39.45769444330617" lon="9.264267050635539"><ele>570.0</ele><time>2026-04-09T11:45:23Z</time></trkpt><trkpt lat="39.45772470951202" lon="9.26437959710859"><ele>570.0</ele><time>2026-04-09T11:45:24Z</time></trkpt><trkpt lat="39.4577643822687" lon="9.264476506771958"><ele>570.0</ele><time>2026-04-09T11:45:25Z</time></trkpt><trkpt lat="39.45782285243377" lon="9.264546434945464"><ele>570.0</ele><time>2026-04-09T11:45:26Z</time></trkpt><trkpt lat="39.45790208751303" lon="9.264593801856458"><ele>570.0</ele><time>2026-04-09T11:45:27Z</time></trkpt><trkpt lat="39.457990197798814" lon="9.264629240822142"><ele>574.0</ele><time>2026-04-09T11:45:28Z</time></trkpt><trkpt lat="39.458078292537614" lon="9.264662190594896"><ele>578.0</ele><time>2026-04-09T11:45:29Z</time></trkpt><trkpt lat="39.458145452827196" lon="9.264713583001049"><ele>582.0</ele><time>2026-04-09T11:45:30Z</time></trkpt><trkpt lat="39.458199731330424" lon="9.264789310528107"><ele>586.0</ele><time>2026-04-09T11:45:31Z</time></trkpt><trkpt lat="39.458228927178446" lon="9.264891607158036"><ele>590.0</ele><time>2026-04-09T11:45:32Z</time></trkpt><trkpt lat="39.458242257072115" lon="9.265015764599193"><ele>594.0</ele><time>2026-04-09T11:45:33Z</time></trkpt><trkpt lat="39.45824542167521" lon="9.265162427564835"><ele>594.0</ele><time>2026-04-09T11:45:34Z</time></trkpt><trkpt lat="39.45826189303278" lon="9.265303803478224"><ele>594.0</ele><time>2026-04-09T11:45:35Z</time></trkpt><trkpt lat="39.45830358113246" lon="9.26544002769507"><ele>594.0</ele><time>2026-04-09T11:45:36Z</time></trkpt><trkpt lat="39.45836964480522" lon="9.265561984750201"><ele>594.0</ele><time>2026-04-09T11:45:37Z</time></trkpt><trkpt lat="39.45844857748162" lon="9.26566826710589"><ele>590.25</ele><time>2026-04-09T11:45:38Z</time></trkpt><trkpt lat="39.458536212198794" lon="9.265773976798226"><ele>586.5</ele><time>2026-04-09T11:45:39Z</time></trkpt><trkpt lat="39.458620530282126" lon="9.265871321246179"><ele>582.75</ele><time>2026-04-09T11:45:40Z</time></trkpt><trkpt lat="39.458701771700184" lon="9.265966178761522"><ele>579.0</ele><time>2026-04-09T11:45:41Z</time></trkpt><trkpt lat="39.4587797426034" lon="9.26606498883905"><ele>584.75</ele><time>2026-04-09T11:45:42Z</time></trkpt><trkpt lat="39.45884265043327" lon="9.266177074503858"><ele>590.5</ele><time>2026-04-09T11:45:43Z</time></trkpt><trkpt lat="39.458886747406396" lon="9.266308890095226"><ele>596.25</ele><time>2026-04-09T11:45:44Z</time></trkpt><trkpt lat="39.45892172170706" lon="9.26645231574365"><ele>602.0</ele><time>2026-04-09T11:45:45Z</time></trkpt><trkpt lat="39.45895848261988" lon="9.266599331232195"><ele>602.0</ele><time>2026-04-09T11:45:46Z</time></trkpt><trkpt lat="39.45900958925693" lon="9.266742310949217"><ele>602.0</ele><time>2026-04-09T11:45:47Z</time></trkpt><trkpt lat="39.45907479572133" lon="9.266869917987773"><ele>602.0</ele><time>2026-04-09T11:45:48Z</time></trkpt><trkpt lat="39.4591399531646" lon="9.266975130336546"><ele>602.0</ele><time>2026-04-09T11:45:49Z</time></trkpt><trkpt lat="39.45918044776909" lon="9.267075025415854"><ele>602.0</ele><time>2026-04-09T11:45:50Z</time></trkpt><trkpt lat="39.45919263690932" lon="9.267172770197375"><ele>601.6</ele><time>2026-04-09T11:45:51Z</time></trkpt><trkpt lat="39.459176638474" lon="9.26728006867043"><ele>601.2</ele><time>2026-04-09T11:45:52Z</time></trkpt><trkpt lat="39.45914215462046" lon="9.267392525094929"><ele>600.8</ele><time>2026-04-09T11:45:53Z</time></trkpt><trkpt lat="39.4590929928832" lon="9.26750355576432"><ele>600.4</ele><time>2026-04-09T11:45:54Z</time></trkpt><trkpt lat="39.45902863079758" lon="9.267614990259073"><ele>600.0</ele><time>2026-04-09T11:45:55Z</time></trkpt><trkpt lat="39.45894802413837" lon="9.267727114743533"><ele>600.0</ele><time>2026-04-09T11:45:56Z</time></trkpt><trkpt lat="39.45886405180178" lon="9.267822102813346"><ele>600.0</ele><time>2026-04-09T11:45:57Z</time></trkpt><trkpt lat="39.45881103713423" lon="9.267900801801055"><ele>600.0</ele><time>2026-04-09T11:45:58Z</time></trkpt><trkpt lat="39.458778631658014" lon="9.267992366335735"><ele>600.0</ele><time>2026-04-09T11:45:59Z</time></trkpt><trkpt lat="39.458767223765214" lon="9.26808899062459"><ele>600.0</ele><time>2026-04-09T11:46:00.001Z</time></trkpt><trkpt lat="39.45880494337332" lon="9.268242216754045"><ele>599.5</ele><time>2026-04-09T11:46:02.001Z</time></trkpt><trkpt lat="39.45885624989435" lon="9.268313729374134"><ele>599.0</ele><time>2026-04-09T11:46:03.001Z</time></trkpt><trkpt lat="39.45892305575679" lon="9.268359852115076"><ele>598.5</ele><time>2026-04-09T11:46:04.001Z</time></trkpt><trkpt lat="39.45899171172388" lon="9.268380558397224"><ele>598.0</ele><time>2026-04-09T11:46:05.001Z</time></trkpt><trkpt lat="39.459066390234334" lon="9.26836996018766"><ele>597.5</ele><time>2026-04-09T11:46:06.001Z</time></trkpt><trkpt lat="39.45916300623835" lon="9.268321970012817"><ele>597.0</ele><time>2026-04-09T11:46:07.001Z</time></trkpt><trkpt lat="39.45928270169171" lon="9.268235337701011"><ele>597.0</ele><time>2026-04-09T11:46:08.001Z</time></trkpt><trkpt lat="39.45937972089279" lon="9.268175154087784"><ele>597.0</ele><time>2026-04-09T11:46:09.001Z</time></trkpt><trkpt lat="39.459458814399525" lon="9.268143204612883"><ele>597.0</ele><time>2026-04-09T11:46:10.001Z</time></trkpt><trkpt lat="39.45953914500651" lon="9.268109871618025"><ele>597.0</ele><time>2026-04-09T11:46:11.001Z</time></trkpt><trkpt lat="39.45962719826256" lon="9.268064024930098"><ele>597.0</ele><time>2026-04-09T11:46:12.001Z</time></trkpt><trkpt lat="39.45970735355386" lon="9.268013505540525"><ele>599.8333333333334</ele><time>2026-04-09T11:46:13.001Z</time></trkpt><trkpt lat="39.45979140329113" lon="9.2679709197532"><ele>602.6666666666666</ele><time>2026-04-09T11:46:14.001Z</time></trkpt><trkpt lat="39.459879890580375" lon="9.267939457970776"><ele>605.5</ele><time>2026-04-09T11:46:15.001Z</time></trkpt><trkpt lat="39.459964586808724" lon="9.267920593569128"><ele>608.3333333333333</ele><time>2026-04-09T11:46:16.001Z</time></trkpt><trkpt lat="39.4600407172496" lon="9.267917165090667"><ele>611.1666666666666</ele><time>2026-04-09T11:46:17.001Z</time></trkpt><trkpt lat="39.460106131014385" lon="9.267923358804286"><ele>614.0</ele><time>2026-04-09T11:46:18.001Z</time></trkpt><trkpt lat="39.46017221264276" lon="9.267926851459567"><ele>614.0</ele><time>2026-04-09T11:46:19.001Z</time></trkpt><trkpt lat="39.46025450127972" lon="9.26794720730307"><ele>614.0</ele><time>2026-04-09T11:46:20.001Z</time></trkpt><trkpt lat="39.4603188972279" lon="9.267997044859555"><ele>614.0</ele><time>2026-04-09T11:46:21.001Z</time></trkpt><trkpt lat="39.4603790054969" lon="9.26808029884583"><ele>614.0</ele><time>2026-04-09T11:46:22.001Z</time></trkpt><trkpt lat="39.46043133197897" lon="9.268182968246732"><ele>614.0</ele><time>2026-04-09T11:46:23.001Z</time></trkpt><trkpt lat="39.46050920710639" lon="9.268258040463929"><ele>614.0</ele><time>2026-04-09T11:46:24.001Z</time></trkpt><trkpt lat="39.46059147460318" lon="9.268295565882083"><ele>616.0</ele><time>2026-04-09T11:46:25.001Z</time></trkpt><trkpt lat="39.460692882575216" lon="9.268292385465791"><ele>618.0</ele><time>2026-04-09T11:46:26.001Z</time></trkpt><trkpt lat="39.46080806940727" lon="9.268271801347945"><ele>620.0</ele><time>2026-04-09T11:46:27.001Z</time></trkpt><trkpt lat="39.460905823921394" lon="9.268227485118981"><ele>622.0</ele><time>2026-04-09T11:46:28.001Z</time></trkpt><trkpt lat="39.460996351029635" lon="9.268149671823826"><ele>624.0</ele><time>2026-04-09T11:46:29.001Z</time></trkpt><trkpt lat="39.46108859690151" lon="9.268063610133915"><ele>624.0</ele><time>2026-04-09T11:46:30.001Z</time></trkpt><trkpt lat="39.46118956911967" lon="9.267987782957752"><ele>624.0</ele><time>2026-04-09T11:46:31.001Z</time></trkpt><trkpt lat="39.46129268658855" lon="9.267927653217493"><ele>624.0</ele><time>2026-04-09T11:46:32.001Z</time></trkpt><trkpt lat="39.46139832124442" lon="9.267874397049972"><ele>624.0</ele><time>2026-04-09T11:46:33.001Z</time></trkpt><trkpt lat="39.46150495423719" lon="9.267822497037763"><ele>623.0</ele><time>2026-04-09T11:46:34.001Z</time></trkpt><trkpt lat="39.46159344243154" lon="9.267762731335196"><ele>622.0</ele><time>2026-04-09T11:46:35.001Z</time></trkpt><trkpt lat="39.46166684075057" lon="9.267681087675165"><ele>621.0</ele><time>2026-04-09T11:46:36.001Z</time></trkpt><trkpt lat="39.46172782816716" lon="9.267591339518736"><ele>620.0</ele><time>2026-04-09T11:46:37.001Z</time></trkpt><trkpt lat="39.46177168103942" lon="9.267512139199008"><ele>619.0</ele><time>2026-04-09T11:46:38.001Z</time></trkpt><trkpt lat="39.461857896042126" lon="9.267434642314793"><ele>619.0</ele><time>2026-04-09T11:46:40.001Z</time></trkpt><trkpt lat="39.46195423045314" lon="9.267512696758427"><ele>619.0</ele><time>2026-04-09T11:46:42.001Z</time></trkpt><trkpt lat="39.46197812342706" lon="9.267590780419946"><ele>619.0</ele><time>2026-04-09T11:46:43.002Z</time></trkpt><trkpt lat="39.46198032892244" lon="9.267683538571664"><ele>619.0</ele><time>2026-04-09T11:46:44.002Z</time></trkpt><trkpt lat="39.461977674139156" lon="9.267782864920111"><ele>619.0</ele><time>2026-04-09T11:46:45.002Z</time></trkpt><trkpt lat="39.46198252547885" lon="9.267864905142536"><ele>619.0</ele><time>2026-04-09T11:46:46.002Z</time></trkpt><trkpt lat="39.46198310278586" lon="9.268032319998621"><ele>615.5</ele><time>2026-04-09T11:46:48.002Z</time></trkpt><trkpt lat="39.461969827530304" lon="9.268131105415696"><ele>612.0</ele><time>2026-04-09T11:46:49.002Z</time></trkpt><trkpt lat="39.46195607796164" lon="9.268223623933421"><ele>608.5</ele><time>2026-04-09T11:46:50.002Z</time></trkpt><trkpt lat="39.46194398426075" lon="9.268321065532316"><ele>605.0</ele><time>2026-04-09T11:46:51.002Z</time></trkpt><trkpt lat="39.46193842102042" lon="9.268422948110098"><ele>601.5</ele><time>2026-04-09T11:46:52.002Z</time></trkpt><trkpt lat="39.461941314676224" lon="9.26852140664333"><ele>598.0</ele><time>2026-04-09T11:46:53.002Z</time></trkpt><trkpt lat="39.461945336456104" lon="9.268623192849812"><ele>598.0</ele><time>2026-04-09T11:46:54.002Z</time></trkpt><trkpt lat="39.461954538150586" lon="9.2687280041879"><ele>598.0</ele><time>2026-04-09T11:46:55.002Z</time></trkpt><trkpt lat="39.46196551516381" lon="9.268837416310722"><ele>598.0</ele><time>2026-04-09T11:46:56.002Z</time></trkpt><trkpt lat="39.4619774029293" lon="9.268938648096226"><ele>598.0</ele><time>2026-04-09T11:46:57.002Z</time></trkpt><trkpt lat="39.46198932056571" lon="9.26903972368241"><ele>598.0</ele><time>2026-04-09T11:46:58.002Z</time></trkpt><trkpt lat="39.461979012042775" lon="9.269154615030159"><ele>598.0</ele><time>2026-04-09T11:46:59.002Z</time></trkpt><trkpt lat="39.46194243606504" lon="9.269259977690604"><ele>597.4</ele><time>2026-04-09T11:47:00.002Z</time></trkpt><trkpt lat="39.461878632345446" lon="9.269355373031784"><ele>596.8</ele><time>2026-04-09T11:47:01.002Z</time></trkpt><trkpt lat="39.461799707584376" lon="9.269433331088402"><ele>596.2</ele><time>2026-04-09T11:47:02.002Z</time></trkpt><trkpt lat="39.4617227297243" lon="9.269516216171334"><ele>595.6</ele><time>2026-04-09T11:47:03.002Z</time></trkpt><trkpt lat="39.46165324136163" lon="9.269623936839174"><ele>595.0</ele><time>2026-04-09T11:47:04.002Z</time></trkpt><trkpt lat="39.46159124513086" lon="9.269741346832909"><ele>596.8</ele><time>2026-04-09T11:47:05.002Z</time></trkpt><trkpt lat="39.461524724368694" lon="9.269857385806803"><ele>598.6</ele><time>2026-04-09T11:47:06.002Z</time></trkpt><trkpt lat="39.46146070950338" lon="9.269951589360035"><ele>600.4</ele><time>2026-04-09T11:47:07.002Z</time></trkpt><trkpt lat="39.461407190505696" lon="9.270039447266376"><ele>602.2</ele><time>2026-04-09T11:47:08.002Z</time></trkpt><trkpt lat="39.46137097280359" lon="9.27013483151286"><ele>604.0</ele><time>2026-04-09T11:47:09.002Z</time></trkpt><trkpt lat="39.46135384732832" lon="9.270235723005658"><ele>604.0</ele><time>2026-04-09T11:47:10.002Z</time></trkpt><trkpt lat="39.461362979945" lon="9.270360445682995"><ele>604.0</ele><time>2026-04-09T11:47:11.002Z</time></trkpt><trkpt lat="39.461384396119605" lon="9.270484547322374"><ele>604.0</ele><time>2026-04-09T11:47:12.002Z</time></trkpt><trkpt lat="39.46142134415069" lon="9.270607770035083"><ele>604.0</ele><time>2026-04-09T11:47:13.002Z</time></trkpt><trkpt lat="39.461490457972324" lon="9.270711242615677"><ele>604.0</ele><time>2026-04-09T11:47:14.002Z</time></trkpt><trkpt lat="39.46158695049616" lon="9.270804838939519"><ele>603.5</ele><time>2026-04-09T11:47:15.002Z</time></trkpt><trkpt lat="39.46171420003341" lon="9.270896764112859"><ele>603.0</ele><time>2026-04-09T11:47:16.002Z</time></trkpt><trkpt lat="39.46182305212586" lon="9.270968086198096"><ele>602.5</ele><time>2026-04-09T11:47:17.002Z</time></trkpt><trkpt lat="39.46189819814549" lon="9.27105033004121"><ele>602.0</ele><time>2026-04-09T11:47:18.002Z</time></trkpt><trkpt lat="39.46193780569407" lon="9.271147441150354"><ele>602.0</ele><time>2026-04-09T11:47:19.002Z</time></trkpt><trkpt lat="39.46194920807713" lon="9.271278901778965"><ele>602.0</ele><time>2026-04-09T11:47:20.002Z</time></trkpt><trkpt lat="39.461958405488524" lon="9.271418435799058"><ele>602.0</ele><time>2026-04-09T11:47:21.002Z</time></trkpt><trkpt lat="39.46199690703506" lon="9.27154066518546"><ele>602.0</ele><time>2026-04-09T11:47:21.999Z</time></trkpt><trkpt lat="39.46206579193562" lon="9.271635711303489"><ele>602.0</ele><time>2026-04-09T11:47:22.999Z</time></trkpt><trkpt lat="39.46213810006864" lon="9.27169716871852"><ele>602.5</ele><time>2026-04-09T11:47:23.999Z</time></trkpt><trkpt lat="39.462217212722614" lon="9.27173564496654"><ele>603.0</ele><time>2026-04-09T11:47:24.999Z</time></trkpt><trkpt lat="39.46229912819758" lon="9.271752022125654"><ele>603.5</ele><time>2026-04-09T11:47:25.999Z</time></trkpt><trkpt lat="39.46238461544417" lon="9.271742001740435"><ele>604.0</ele><time>2026-04-09T11:47:26.999Z</time></trkpt><trkpt lat="39.46247403053879" lon="9.271721186940072"><ele>604.5</ele><time>2026-04-09T11:47:27.999Z</time></trkpt><trkpt lat="39.46255703168233" lon="9.271705048337063"><ele>605.0</ele><time>2026-04-09T11:47:28.999Z</time></trkpt><trkpt lat="39.462631549013174" lon="9.271700049672393"><ele>605.0</ele><time>2026-04-09T11:47:29.999Z</time></trkpt><trkpt lat="39.46271617004902" lon="9.271713744740973"><ele>605.0</ele><time>2026-04-09T11:47:30.999Z</time></trkpt><trkpt lat="39.46280255182507" lon="9.271746695915551"><ele>605.0</ele><time>2026-04-09T11:47:31.999Z</time></trkpt><trkpt lat="39.46288057675921" lon="9.271780352559869"><ele>605.0</ele><time>2026-04-09T11:47:32.999Z</time></trkpt><trkpt lat="39.46294250880567" lon="9.271828312014948"><ele>605.0</ele><time>2026-04-09T11:47:33.999Z</time></trkpt><trkpt lat="39.462977264257574" lon="9.271899338181974"><ele>605.0</ele><time>2026-04-09T11:47:34.999Z</time></trkpt><trkpt lat="39.46299590059808" lon="9.271995485371455"><ele>605.0</ele><time>2026-04-09T11:47:35.999Z</time></trkpt><trkpt lat="39.46298377213208" lon="9.272111734204527"><ele>605.0</ele><time>2026-04-09T11:47:36.999Z</time></trkpt><trkpt lat="39.46296053795178" lon="9.272243033258444"><ele>605.0</ele><time>2026-04-09T11:47:37.999Z</time></trkpt><trkpt lat="39.4629523020921" lon="9.272377001391876"><ele>605.0</ele><time>2026-04-09T11:47:38.999Z</time></trkpt><trkpt lat="39.462965053546924" lon="9.272502579583435"><ele>605.0</ele><time>2026-04-09T11:47:40Z</time></trkpt><trkpt lat="39.46298207696397" lon="9.272612412961239"><ele>605.0</ele><time>2026-04-09T11:47:41Z</time></trkpt><trkpt lat="39.463018703871725" lon="9.27271522648593"><ele>605.0</ele><time>2026-04-09T11:47:42Z</time></trkpt><trkpt lat="39.46308644022668" lon="9.272810185741013"><ele>605.0</ele><time>2026-04-09T11:47:43Z</time></trkpt><trkpt lat="39.46316860841501" lon="9.272872914079198"><ele>605.0</ele><time>2026-04-09T11:47:44Z</time></trkpt><trkpt lat="39.46324948346018" lon="9.272897254890415"><ele>605.0</ele><time>2026-04-09T11:47:45Z</time></trkpt><trkpt lat="39.463331457911316" lon="9.272895441067655"><ele>605.0</ele><time>2026-04-09T11:47:46Z</time></trkpt><trkpt lat="39.463437781479584" lon="9.272862176332582"><ele>605.0</ele><time>2026-04-09T11:47:47Z</time></trkpt><trkpt lat="39.463530287429116" lon="9.272840402201261"><ele>605.0</ele><time>2026-04-09T11:47:48Z</time></trkpt><trkpt lat="39.463597592504186" lon="9.272868273015328"><ele>605.0</ele><time>2026-04-09T11:47:49Z</time></trkpt><trkpt lat="39.46364734743167" lon="9.27293120829927"><ele>605.0</ele><time>2026-04-09T11:47:50Z</time></trkpt><trkpt lat="39.463691136017125" lon="9.273021341727796"><ele>605.0</ele><time>2026-04-09T11:47:51Z</time></trkpt><trkpt lat="39.46374734639048" lon="9.27308426965177"><ele>605.0</ele><time>2026-04-09T11:47:52Z</time></trkpt><trkpt lat="39.463816648498046" lon="9.273107311420482"><ele>604.8</ele><time>2026-04-09T11:47:53Z</time></trkpt><trkpt lat="39.46390065334164" lon="9.273099693561587"><ele>604.6</ele><time>2026-04-09T11:47:54Z</time></trkpt><trkpt lat="39.46398235452031" lon="9.273056336658811"><ele>604.4</ele><time>2026-04-09T11:47:55Z</time></trkpt><trkpt lat="39.464055175266395" lon="9.272976792786752"><ele>604.2</ele><time>2026-04-09T11:47:56Z</time></trkpt><trkpt lat="39.46413840352592" lon="9.272861503199652"><ele>604.0</ele><time>2026-04-09T11:47:57Z</time></trkpt><trkpt lat="39.46420684584044" lon="9.272745243513842"><ele>604.0</ele><time>2026-04-09T11:47:58Z</time></trkpt><trkpt lat="39.46426721629793" lon="9.272660504244513"><ele>604.0</ele><time>2026-04-09T11:47:59Z</time></trkpt><trkpt lat="39.464334556308785" lon="9.27260765618099"><ele>604.0</ele><time>2026-04-09T11:48:00Z</time></trkpt><trkpt lat="39.464403716056516" lon="9.272587540245004"><ele>604.0</ele><time>2026-04-09T11:48:01Z</time></trkpt><trkpt lat="39.46447325473306" lon="9.272603839591705"><ele>604.0</ele><time>2026-04-09T11:48:02Z</time></trkpt><trkpt lat="39.46455188811492" lon="9.272645844393068"><ele>604.0</ele><time>2026-04-09T11:48:03Z</time></trkpt><trkpt lat="39.46463914859714" lon="9.27267443538449"><ele>603.5</ele><time>2026-04-09T11:48:04Z</time></trkpt><trkpt lat="39.46471813371471" lon="9.272660895117099"><ele>603.0</ele><time>2026-04-09T11:48:05Z</time></trkpt><trkpt lat="39.46478224694037" lon="9.27261857976881"><ele>602.5</ele><time>2026-04-09T11:48:06Z</time></trkpt><trkpt lat="39.46488478110633" lon="9.272605868442735"><ele>602.0</ele><time>2026-04-09T11:48:08Z</time></trkpt><trkpt lat="39.46494075079844" lon="9.272658535379897"><ele>601.5</ele><time>2026-04-09T11:48:09Z</time></trkpt><trkpt lat="39.464980079654616" lon="9.272746507876048"><ele>601.0</ele><time>2026-04-09T11:48:10Z</time></trkpt><trkpt lat="39.465012628826" lon="9.272874948120396"><ele>601.0</ele><time>2026-04-09T11:48:11Z</time></trkpt><trkpt lat="39.46503460866755" lon="9.273001857688898"><ele>601.0</ele><time>2026-04-09T11:48:12.001Z</time></trkpt><trkpt lat="39.46505800469258" lon="9.27309538452662"><ele>601.0</ele><time>2026-04-09T11:48:13.001Z</time></trkpt><trkpt lat="39.46509894804772" lon="9.273179959925674"><ele>601.0</ele><time>2026-04-09T11:48:14.001Z</time></trkpt><trkpt lat="39.46515823895297" lon="9.273264137037737"><ele>601.0</ele><time>2026-04-09T11:48:15.001Z</time></trkpt><trkpt lat="39.46522945619724" lon="9.273330045879996"><ele>601.0</ele><time>2026-04-09T11:48:16.001Z</time></trkpt><trkpt lat="39.46530260346857" lon="9.273401976820896"><ele>600.3333333333334</ele><time>2026-04-09T11:48:17.001Z</time></trkpt><trkpt lat="39.465357772227996" lon="9.273488972104719"><ele>599.6666666666667</ele><time>2026-04-09T11:48:18.001Z</time></trkpt><trkpt lat="39.46539297772015" lon="9.273566202338953"><ele>599.0</ele><time>2026-04-09T11:48:19.001Z</time></trkpt><trkpt lat="39.465433978966345" lon="9.273632638944637"><ele>598.3333333333334</ele><time>2026-04-09T11:48:20.001Z</time></trkpt><trkpt lat="39.46548774034091" lon="9.273678542258041"><ele>597.6666666666666</ele><time>2026-04-09T11:48:21.001Z</time></trkpt><trkpt lat="39.46555756219069" lon="9.273716798437206"><ele>597.0</ele><time>2026-04-09T11:48:22.001Z</time></trkpt><trkpt lat="39.465648951246244" lon="9.273740648412627"><ele>597.0</ele><time>2026-04-09T11:48:23.001Z</time></trkpt><trkpt lat="39.46574368762278" lon="9.273739798605478"><ele>597.0</ele><time>2026-04-09T11:48:24.001Z</time></trkpt><trkpt lat="39.46583621357401" lon="9.273717047541947"><ele>597.0</ele><time>2026-04-09T11:48:25.001Z</time></trkpt><trkpt lat="39.46591682002083" lon="9.273679944574516"><ele>597.0</ele><time>2026-04-09T11:48:26.001Z</time></trkpt><trkpt lat="39.465989264264245" lon="9.273649894980297"><ele>597.0</ele><time>2026-04-09T11:48:27.001Z</time></trkpt><trkpt lat="39.46605866609977" lon="9.27367619555641"><ele>597.0</ele><time>2026-04-09T11:48:28.001Z</time></trkpt><trkpt lat="39.4661133077423" lon="9.273733719732036"><ele>597.0</ele><time>2026-04-09T11:48:29.001Z</time></trkpt><trkpt lat="39.46616761735155" lon="9.273805557691821"><ele>597.0</ele><time>2026-04-09T11:48:30.001Z</time></trkpt><trkpt lat="39.46623603360285" lon="9.273887990839656"><ele>597.0</ele><time>2026-04-09T11:48:31.001Z</time></trkpt><trkpt lat="39.46631140729337" lon="9.273947087176232"><ele>597.0</ele><time>2026-04-09T11:48:32.001Z</time></trkpt><trkpt lat="39.46637414746168" lon="9.27401326649816"><ele>597.0</ele><time>2026-04-09T11:48:33.001Z</time></trkpt><trkpt lat="39.4664377342346" lon="9.274044542686692"><ele>597.0</ele><time>2026-04-09T11:48:34.001Z</time></trkpt><trkpt lat="39.46657052038841" lon="9.274043509368099"><ele>593.6</ele><time>2026-04-09T11:48:36.001Z</time></trkpt><trkpt lat="39.46665049384139" lon="9.27403559348787"><ele>590.2</ele><time>2026-04-09T11:48:37.001Z</time></trkpt><trkpt lat="39.46672258806213" lon="9.273960041645992"><ele>586.8</ele><time>2026-04-09T11:48:38.001Z</time></trkpt><trkpt lat="39.46679114253878" lon="9.273882649525918"><ele>583.4</ele><time>2026-04-09T11:48:39.001Z</time></trkpt><trkpt lat="39.466848648342435" lon="9.273782765320576"><ele>580.0</ele><time>2026-04-09T11:48:40.001Z</time></trkpt><trkpt lat="39.466902200317115" lon="9.273652304062649"><ele>580.0</ele><time>2026-04-09T11:48:41.001Z</time></trkpt><trkpt lat="39.46693674326291" lon="9.273526949158613"><ele>580.0</ele><time>2026-04-09T11:48:42.001Z</time></trkpt><trkpt lat="39.46697685078636" lon="9.273436361922862"><ele>580.0</ele><time>2026-04-09T11:48:43.001Z</time></trkpt><trkpt lat="39.466995551994344" lon="9.273344804194505"><ele>580.0</ele><time>2026-04-09T11:48:44.001Z</time></trkpt><trkpt lat="39.46699788545172" lon="9.273258467070521"><ele>580.0</ele><time>2026-04-09T11:48:45.001Z</time></trkpt><trkpt lat="39.467011259942964" lon="9.273178303661824"><ele>580.0</ele><time>2026-04-09T11:48:46.001Z</time></trkpt><trkpt lat="39.46703762674862" lon="9.273039363864463"><ele>581.6</ele><time>2026-04-09T11:48:48.001Z</time></trkpt><trkpt lat="39.467056566034124" lon="9.272906810135218"><ele>583.2</ele><time>2026-04-09T11:48:50.001Z</time></trkpt><trkpt lat="39.46708617856766" lon="9.272773622496539"><ele>584.8</ele><time>2026-04-09T11:48:52.001Z</time></trkpt><trkpt lat="39.46711182851517" lon="9.272664426238407"><ele>586.4</ele><time>2026-04-09T11:48:54.002Z</time></trkpt><trkpt lat="39.467138915806665" lon="9.272563824352412"><ele>588.0</ele><time>2026-04-09T11:48:56.002Z</time></trkpt><trkpt lat="39.467169448234806" lon="9.27245314567537"><ele>581.3333333333334</ele><time>2026-04-09T11:48:58.002Z</time></trkpt><trkpt lat="39.467194340992464" lon="9.27234539432065"><ele>574.6666666666666</ele><time>2026-04-09T11:49:00.002Z</time></trkpt><trkpt lat="39.46721822643427" lon="9.272226053358175"><ele>568.0</ele><time>2026-04-09T11:49:02.002Z</time></trkpt><trkpt lat="39.46724067010364" lon="9.272124873446606"><ele>561.3333333333333</ele><time>2026-04-09T11:49:04.002Z</time></trkpt><trkpt lat="39.46726312412335" lon="9.272025612713927"><ele>554.6666666666666</ele><time>2026-04-09T11:49:06.002Z</time></trkpt><trkpt lat="39.46729641608722" lon="9.271899614158912"><ele>548.0</ele><time>2026-04-09T11:49:08.002Z</time></trkpt><trkpt lat="39.467319414961665" lon="9.271800982416453"><ele>547.8333333333333</ele><time>2026-04-09T11:49:10.002Z</time></trkpt><trkpt lat="39.4673381347719" lon="9.271706535718742"><ele>547.6666666666666</ele><time>2026-04-09T11:49:12.002Z</time></trkpt><trkpt lat="39.467359967581615" lon="9.271618641147377"><ele>547.5</ele><time>2026-04-09T11:49:14.002Z</time></trkpt><trkpt lat="39.46736139253296" lon="9.271494914413946"><ele>547.3333333333334</ele><time>2026-04-09T11:49:16.002Z</time></trkpt><trkpt lat="39.46733595363186" lon="9.27139237592593"><ele>547.1666666666667</ele><time>2026-04-09T11:49:18.002Z</time></trkpt><trkpt lat="39.46730358169233" lon="9.27131874277554"><ele>547.0</ele><time>2026-04-09T11:49:21.002Z</time></trkpt><trkpt lat="39.467252498947396" lon="9.27121227204178"><ele>548.5</ele><time>2026-04-09T11:49:36Z</time></trkpt><trkpt lat="39.46721739442399" lon="9.271136822194725"><ele>550.0</ele><time>2026-04-09T11:49:38Z</time></trkpt><trkpt lat="39.46719120179802" lon="9.271036839851357"><ele>551.5</ele><time>2026-04-09T11:49:40Z</time></trkpt><trkpt lat="39.46720453537781" lon="9.270942398682253"><ele>553.0</ele><time>2026-04-09T11:49:42Z</time></trkpt><trkpt lat="39.46724859450546" lon="9.270881203821181"><ele>554.5</ele><time>2026-04-09T11:49:44Z</time></trkpt><trkpt lat="39.46731684853288" lon="9.27086807925461"><ele>556.0</ele><time>2026-04-09T11:49:46Z</time></trkpt><trkpt lat="39.467418228063906" lon="9.270834445692625"><ele>556.0</ele><time>2026-04-09T11:49:48Z</time></trkpt><trkpt lat="39.46752335024695" lon="9.270834306000543"><ele>556.0</ele><time>2026-04-09T11:49:50Z</time></trkpt><trkpt lat="39.467624429290844" lon="9.270832737967943"><ele>556.0</ele><time>2026-04-09T11:49:52Z</time></trkpt><trkpt lat="39.46773204913342" lon="9.270812699099764"><ele>556.0</ele><time>2026-04-09T11:49:54Z</time></trkpt><trkpt lat="39.467819599564095" lon="9.270792087355812"><ele>556.0</ele><time>2026-04-09T11:49:56Z</time></trkpt><trkpt lat="39.46789370738688" lon="9.270770974739188"><ele>553.2</ele><time>2026-04-09T11:49:58Z</time></trkpt><trkpt lat="39.467965475430766" lon="9.270733424468446"><ele>550.4000000000001</ele><time>2026-04-09T11:50:01Z</time></trkpt><trkpt lat="39.46804260920945" lon="9.27062676646825"><ele>547.6</ele><time>2026-04-09T11:50:11.001Z</time></trkpt><trkpt lat="39.46810064708605" lon="9.27052109367096"><ele>544.8000000000001</ele><time>2026-04-09T11:50:13.001Z</time></trkpt><trkpt lat="39.46814041129392" lon="9.270434439389865"><ele>542.0</ele><time>2026-04-09T11:50:15.001Z</time></trkpt><trkpt lat="39.46818544287253" lon="9.270336306493775"><ele>542.0</ele><time>2026-04-09T11:50:17.001Z</time></trkpt><trkpt lat="39.46822843979897" lon="9.270234742039761"><ele>542.0</ele><time>2026-04-09T11:50:19.001Z</time></trkpt><trkpt lat="39.46826899333982" lon="9.270127892407352"><ele>542.0</ele><time>2026-04-09T11:50:22.001Z</time></trkpt><trkpt lat="39.46829550487181" lon="9.270039799194372"><ele>542.0</ele><time>2026-04-09T11:50:24.001Z</time></trkpt><trkpt lat="39.46832055082319" lon="9.269934094904333"><ele>542.0</ele><time>2026-04-09T11:50:26.001Z</time></trkpt><trkpt lat="39.4683407456372" lon="9.26984134597953"><ele>542.0</ele><time>2026-04-09T11:50:28.001Z</time></trkpt><trkpt lat="39.46835290423984" lon="9.269758126675073"><ele>542.0</ele><time>2026-04-09T11:50:30.001Z</time></trkpt><trkpt lat="39.46836066162596" lon="9.26964555132079"><ele>542.0</ele><time>2026-04-09T11:50:32.001Z</time></trkpt><trkpt lat="39.46842514916084" lon="9.26966221570567"><ele>542.0</ele><time>2026-04-09T11:50:34.001Z</time></trkpt><trkpt lat="39.46846283569763" lon="9.269742327956207"><ele>542.0</ele><time>2026-04-09T11:50:36.001Z</time></trkpt><trkpt lat="39.4684366238224" lon="9.26984152340636"><ele>542.0</ele><time>2026-04-09T11:50:38.001Z</time></trkpt><trkpt lat="39.468456780291646" lon="9.26992925623026"><ele>542.0</ele><time>2026-04-09T11:50:40.001Z</time></trkpt><trkpt lat="39.46844704904313" lon="9.270056422283668"><ele>542.0</ele><time>2026-04-09T11:50:42.001Z</time></trkpt><trkpt lat="39.46845427917938" lon="9.270175429190378"><ele>542.0</ele><time>2026-04-09T11:50:44.001Z</time></trkpt><trkpt lat="39.46846650321952" lon="9.270291415534265"><ele>542.0</ele><time>2026-04-09T11:50:46.002Z</time></trkpt><trkpt lat="39.46847525727852" lon="9.270420355837528"><ele>542.0</ele><time>2026-04-09T11:50:48.002Z</time></trkpt><trkpt lat="39.468489732191635" lon="9.270558965028055"><ele>542.0</ele><time>2026-04-09T11:50:50.002Z</time></trkpt><trkpt lat="39.46849221752226" lon="9.270647145828766"><ele>539.4</ele><time>2026-04-09T11:50:51.002Z</time></trkpt><trkpt lat="39.468509042929625" lon="9.270726118377963"><ele>536.8000000000001</ele><time>2026-04-09T11:50:52.002Z</time></trkpt><trkpt lat="39.468523118178084" lon="9.270885701174194"><ele>534.2</ele><time>2026-04-09T11:50:54.002Z</time></trkpt><trkpt lat="39.46852829319518" lon="9.27099105354987"><ele>531.6</ele><time>2026-04-09T11:50:55.002Z</time></trkpt><trkpt lat="39.46855068610328" lon="9.271138475727009"><ele>529.0</ele><time>2026-04-09T11:50:56.002Z</time></trkpt><trkpt lat="39.46857562991458" lon="9.271328816985275"><ele>526.6</ele><time>2026-04-09T11:50:57.002Z</time></trkpt><trkpt lat="39.468605445395305" lon="9.271484408012899"><ele>524.2</ele><time>2026-04-09T11:50:58.002Z</time></trkpt><trkpt lat="39.46862554708444" lon="9.271616441355835"><ele>521.8000000000001</ele><time>2026-04-09T11:50:59.002Z</time></trkpt><trkpt lat="39.468622470227274" lon="9.27174274426864"><ele>519.4</ele><time>2026-04-09T11:51:00.002Z</time></trkpt><trkpt lat="39.468640531197366" lon="9.27186724908837"><ele>517.0</ele><time>2026-04-09T11:51:01.002Z</time></trkpt><trkpt lat="39.46861189633362" lon="9.271982340050556"><ele>517.0</ele><time>2026-04-09T11:51:02.002Z</time></trkpt><trkpt lat="39.46856915297303" lon="9.272083886010794"><ele>517.0</ele><time>2026-04-09T11:51:03.002Z</time></trkpt><trkpt lat="39.468561461652314" lon="9.272194667282067"><ele>517.0</ele><time>2026-04-09T11:51:04.002Z</time></trkpt><trkpt lat="39.46854151221675" lon="9.272306392408732"><ele>517.0</ele><time>2026-04-09T11:51:05.002Z</time></trkpt><trkpt lat="39.468542179662464" lon="9.272412957817961"><ele>517.0</ele><time>2026-04-09T11:51:06.002Z</time></trkpt><trkpt lat="39.46855670601883" lon="9.27251984687341"><ele>517.0</ele><time>2026-04-09T11:51:07.002Z</time></trkpt><trkpt lat="39.46856547604973" lon="9.27263582862562"><ele>515.3333333333334</ele><time>2026-04-09T11:51:08.002Z</time></trkpt><trkpt lat="39.46858795978656" lon="9.272745651940513"><ele>513.6666666666667</ele><time>2026-04-09T11:51:09.002Z</time></trkpt><trkpt lat="39.46862466445114" lon="9.272847587873338"><ele>512.0</ele><time>2026-04-09T11:51:10.002Z</time></trkpt><trkpt lat="39.468671137347286" lon="9.272926147449567"><ele>510.33333333333337</ele><time>2026-04-09T11:51:11.002Z</time></trkpt><trkpt lat="39.468723064276794" lon="9.272994495256567"><ele>508.6666666666667</ele><time>2026-04-09T11:51:12.002Z</time></trkpt><trkpt lat="39.46875583283827" lon="9.273089163231141"><ele>507.0</ele><time>2026-04-09T11:51:13.002Z</time></trkpt><trkpt lat="39.46879972133604" lon="9.273178614275903"><ele>505.6</ele><time>2026-04-09T11:51:14.002Z</time></trkpt><trkpt lat="39.46877278631776" lon="9.273303334627975"><ele>504.20000000000005</ele><time>2026-04-09T11:51:15.002Z</time></trkpt><trkpt lat="39.46878052397164" lon="9.273451091448146"><ele>502.8</ele><time>2026-04-09T11:51:16.002Z</time></trkpt><trkpt lat="39.46878419134933" lon="9.273571083959574"><ele>501.4</ele><time>2026-04-09T11:51:17.002Z</time></trkpt><trkpt lat="39.46881410516605" lon="9.273670240329428"><ele>500.0</ele><time>2026-04-09T11:51:18.002Z</time></trkpt><trkpt lat="39.4688765189397" lon="9.273770598960516"><ele>496.2</ele><time>2026-04-09T11:51:19.002Z</time></trkpt><trkpt lat="39.468960950588716" lon="9.273847602100592"><ele>492.4</ele><time>2026-04-09T11:51:20.002Z</time></trkpt><trkpt lat="39.469031695527335" lon="9.273936560553466"><ele>488.6</ele><time>2026-04-09T11:51:21.002Z</time></trkpt><trkpt lat="39.46911146653088" lon="9.27397610580674"><ele>484.8</ele><time>2026-04-09T11:51:22.002Z</time></trkpt><trkpt lat="39.46918539558397" lon="9.274051229309533"><ele>481.0</ele><time>2026-04-09T11:51:23.002Z</time></trkpt><trkpt lat="39.46923135569375" lon="9.274153381122465"><ele>479.8</ele><time>2026-04-09T11:51:24.002Z</time></trkpt><trkpt lat="39.46928725058979" lon="9.274260703657733"><ele>478.6</ele><time>2026-04-09T11:51:25.002Z</time></trkpt><trkpt lat="39.46934781095629" lon="9.274374340091192"><ele>477.4</ele><time>2026-04-09T11:51:26.003Z</time></trkpt><trkpt lat="39.46941232877586" lon="9.274486728843431"><ele>476.2</ele><time>2026-04-09T11:51:27.003Z</time></trkpt><trkpt lat="39.46947632813917" lon="9.274577594700013"><ele>475.0</ele><time>2026-04-09T11:51:28.003Z</time></trkpt><trkpt lat="39.469575011025164" lon="9.274637948170536"><ele>473.8</ele><time>2026-04-09T11:51:29.003Z</time></trkpt><trkpt lat="39.46965065994851" lon="9.274731742305558"><ele>472.6</ele><time>2026-04-09T11:51:30.003Z</time></trkpt><trkpt lat="39.4697225050347" lon="9.274818500094232"><ele>471.4</ele><time>2026-04-09T11:51:31.003Z</time></trkpt><trkpt lat="39.46976720224097" lon="9.274929564208467"><ele>470.2</ele><time>2026-04-09T11:51:32.003Z</time></trkpt><trkpt lat="39.46981829953553" lon="9.275062915742247"><ele>469.0</ele><time>2026-04-09T11:51:33.003Z</time></trkpt><trkpt lat="39.46986583551827" lon="9.275210098411453"><ele>467.0</ele><time>2026-04-09T11:51:34Z</time></trkpt><trkpt lat="39.46992042389945" lon="9.275366539235828"><ele>465.0</ele><time>2026-04-09T11:51:35Z</time></trkpt><trkpt lat="39.46997976622561" lon="9.275507549074739"><ele>463.0</ele><time>2026-04-09T11:51:36Z</time></trkpt><trkpt lat="39.47004881115339" lon="9.275610546815795"><ele>461.0</ele><time>2026-04-09T11:51:37Z</time></trkpt><trkpt lat="39.47012859602564" lon="9.275678918985447"><ele>461.0</ele><time>2026-04-09T11:51:38Z</time></trkpt><trkpt lat="39.47019157288922" lon="9.275753262056897"><ele>461.0</ele><time>2026-04-09T11:51:39Z</time></trkpt><trkpt lat="39.47028962912557" lon="9.275799134843757"><ele>461.0</ele><time>2026-04-09T11:51:40Z</time></trkpt><trkpt lat="39.47036664323267" lon="9.275862575265325"><ele>461.0</ele><time>2026-04-09T11:51:41Z</time></trkpt><trkpt lat="39.47044859397824" lon="9.275911486734259"><ele>461.0</ele><time>2026-04-09T11:51:42Z</time></trkpt><trkpt lat="39.47053469383493" lon="9.27596741499376"><ele>456.99999999999994</ele><time>2026-04-09T11:51:43Z</time></trkpt><trkpt lat="39.47060612325792" lon="9.276045971527193"><ele>453.0</ele><time>2026-04-09T11:51:44Z</time></trkpt><trkpt lat="39.47068535698092" lon="9.276094575669122"><ele>449.0</ele><time>2026-04-09T11:51:45Z</time></trkpt><trkpt lat="39.47075997076631" lon="9.2761599751426"><ele>445.0</ele><time>2026-04-09T11:51:46Z</time></trkpt><trkpt lat="39.47082284906743" lon="9.276218639059312"><ele>440.99999999999994</ele><time>2026-04-09T11:51:47Z</time></trkpt><trkpt lat="39.47088159556501" lon="9.276271655699297"><ele>437.0</ele><time>2026-04-09T11:51:48Z</time></trkpt><trkpt lat="39.47094744368385" lon="9.276315239005925"><ele>437.0</ele><time>2026-04-09T11:51:49Z</time></trkpt><trkpt lat="39.471003591884035" lon="9.276357537262685"><ele>437.0</ele><time>2026-04-09T11:51:50Z</time></trkpt><trkpt lat="39.47105900952656" lon="9.27640848819645"><ele>437.0</ele><time>2026-04-09T11:51:51Z</time></trkpt><trkpt lat="39.47111916746351" lon="9.276457186778423"><ele>437.0</ele><time>2026-04-09T11:51:52Z</time></trkpt><trkpt lat="39.4711862662908" lon="9.276512364816218"><ele>437.0</ele><time>2026-04-09T11:51:53Z</time></trkpt><trkpt lat="39.47125604593787" lon="9.276557839696718"><ele>437.0</ele><time>2026-04-09T11:51:54Z</time></trkpt><trkpt lat="39.471327597533005" lon="9.276593701745401"><ele>437.0</ele><time>2026-04-09T11:51:55Z</time></trkpt><trkpt lat="39.47140114401924" lon="9.276624645424183"><ele>435.3333333333333</ele><time>2026-04-09T11:51:56Z</time></trkpt><trkpt lat="39.471482194284285" lon="9.276671275600364"><ele>433.66666666666663</ele><time>2026-04-09T11:51:57Z</time></trkpt><trkpt lat="39.471546434583125" lon="9.276709462984606"><ele>432.0</ele><time>2026-04-09T11:51:58Z</time></trkpt><trkpt lat="39.471633712565" lon="9.276766204451919"><ele>430.33333333333337</ele><time>2026-04-09T11:51:59Z</time></trkpt><trkpt lat="39.47171246327636" lon="9.276799110309629"><ele>428.6666666666667</ele><time>2026-04-09T11:52:00Z</time></trkpt><trkpt lat="39.471774860820126" lon="9.276817172789633"><ele>427.0</ele><time>2026-04-09T11:52:01Z</time></trkpt><trkpt lat="39.47182884257671" lon="9.276914844892461"><ele>427.00000000000006</ele><time>2026-04-09T11:52:03Z</time></trkpt><trkpt lat="39.47179610601505" lon="9.27699230452587"><ele>427.0</ele><time>2026-04-09T11:52:04Z</time></trkpt><trkpt lat="39.47179204342908" lon="9.27709156115062"><ele>427.0</ele><time>2026-04-09T11:52:05.001Z</time></trkpt><trkpt lat="39.471806839921044" lon="9.277197650021101"><ele>427.0</ele><time>2026-04-09T11:52:06.001Z</time></trkpt><trkpt lat="39.47180926793879" lon="9.277311978606502"><ele>427.00000000000006</ele><time>2026-04-09T11:52:07.001Z</time></trkpt><trkpt lat="39.4718239948034" lon="9.277412287366703"><ele>427.0</ele><time>2026-04-09T11:52:08.001Z</time></trkpt><trkpt lat="39.471816740374486" lon="9.277496914886258"><ele>426.20000000000005</ele><time>2026-04-09T11:52:09.001Z</time></trkpt><trkpt lat="39.471789717110696" lon="9.277595852572112"><ele>425.40000000000003</ele><time>2026-04-09T11:52:11.001Z</time></trkpt><trkpt lat="39.471770230814016" lon="9.277689760012368"><ele>424.6</ele><time>2026-04-09T11:52:13.001Z</time></trkpt><trkpt lat="39.47170527443549" lon="9.27781169737378"><ele>423.79999999999995</ele><time>2026-04-09T11:52:15.001Z</time></trkpt><trkpt lat="39.4716389206644" lon="9.27795905706912"><ele>423.0</ele><time>2026-04-09T11:52:17.001Z</time></trkpt><trkpt lat="39.47157902888444" lon="9.278068690871102"><ele>422.1666666666667</ele><time>2026-04-09T11:52:19.001Z</time></trkpt><trkpt lat="39.471527389495606" lon="9.27817557153195"><ele>421.33333333333337</ele><time>2026-04-09T11:52:21.001Z</time></trkpt><trkpt lat="39.47148445016587" lon="9.278268222620191"><ele>420.5</ele><time>2026-04-09T11:52:23.001Z</time></trkpt><trkpt lat="39.471445005066" lon="9.278358991448155"><ele>419.6666666666667</ele><time>2026-04-09T11:52:25.001Z</time></trkpt><trkpt lat="39.47140978427415" lon="9.278440039660262"><ele>418.83333333333337</ele><time>2026-04-09T11:52:26.001Z</time></trkpt><trkpt lat="39.471390873773515" lon="9.27853060219054"><ele>418.0</ele><time>2026-04-09T11:52:27.001Z</time></trkpt><trkpt lat="39.47137526726644" lon="9.278621966397111"><ele>418.0</ele><time>2026-04-09T11:52:28.001Z</time></trkpt><trkpt lat="39.47137915145034" lon="9.27871838125738"><ele>418.0</ele><time>2026-04-09T11:52:29.001Z</time></trkpt><trkpt lat="39.471370878937684" lon="9.278849234623769"><ele>418.0</ele><time>2026-04-09T11:52:30.001Z</time></trkpt><trkpt lat="39.471374856278786" lon="9.279009889174139"><ele>418.0</ele><time>2026-04-09T11:52:31.001Z</time></trkpt><trkpt lat="39.47139342008391" lon="9.279167060004724"><ele>418.0</ele><time>2026-04-09T11:52:32.001Z</time></trkpt><trkpt lat="39.47139060940019" lon="9.279310299920505"><ele>417.1666666666667</ele><time>2026-04-09T11:52:33.001Z</time></trkpt><trkpt lat="39.471396417935836" lon="9.279452958922551"><ele>416.33333333333337</ele><time>2026-04-09T11:52:34.001Z</time></trkpt><trkpt lat="39.471390687864606" lon="9.279594705273185"><ele>415.5</ele><time>2026-04-09T11:52:35.001Z</time></trkpt><trkpt lat="39.471387086103476" lon="9.279710635702633"><ele>414.66666666666663</ele><time>2026-04-09T11:52:36.001Z</time></trkpt><trkpt lat="39.47137806556553" lon="9.279808031969772"><ele>413.8333333333333</ele><time>2026-04-09T11:52:37.001Z</time></trkpt><trkpt lat="39.471383445974496" lon="9.279890241872815"><ele>413.0</ele><time>2026-04-09T11:52:38.001Z</time></trkpt><trkpt lat="39.471428857243936" lon="9.28006611743482"><ele>412.2</ele><time>2026-04-09T11:52:40.001Z</time></trkpt><trkpt lat="39.471467237791295" lon="9.280198258918766"><ele>411.4</ele><time>2026-04-09T11:52:41.001Z</time></trkpt><trkpt lat="39.47149343160259" lon="9.28029694747339"><ele>410.59999999999997</ele><time>2026-04-09T11:52:42.001Z</time></trkpt><trkpt lat="39.471498609858564" lon="9.280435954591638"><ele>409.79999999999995</ele><time>2026-04-09T11:52:44.001Z</time></trkpt><trkpt lat="39.471519230374874" lon="9.280532772227929"><ele>409.0</ele><time>2026-04-09T11:52:46.002Z</time></trkpt><trkpt lat="39.471524032670736" lon="9.280643216614942"><ele>408.2</ele><time>2026-04-09T11:52:48.002Z</time></trkpt><trkpt lat="39.471527675018" lon="9.280790372881158"><ele>407.4</ele><time>2026-04-09T11:52:50.002Z</time></trkpt><trkpt lat="39.471549007299515" lon="9.280942291505582"><ele>406.6</ele><time>2026-04-09T11:52:52.002Z</time></trkpt><trkpt lat="39.47157038491036" lon="9.281036335709166"><ele>405.8</ele><time>2026-04-09T11:52:53.002Z</time></trkpt><trkpt lat="39.47158342075132" lon="9.281125494081085"><ele>405.0</ele><time>2026-04-09T11:52:54.002Z</time></trkpt><trkpt lat="39.4715961115727" lon="9.281232634843802"><ele>405.0</ele><time>2026-04-09T11:52:55.002Z</time></trkpt><trkpt lat="39.47160449195043" lon="9.281339823726213"><ele>405.0</ele><time>2026-04-09T11:52:56.002Z</time></trkpt><trkpt lat="39.471591948947996" lon="9.281460595220697"><ele>405.0</ele><time>2026-04-09T11:52:57.002Z</time></trkpt><trkpt lat="39.47157683591633" lon="9.281579061102125"><ele>405.0</ele><time>2026-04-09T11:52:58.002Z</time></trkpt><trkpt lat="39.47154748172091" lon="9.28169147357707"><ele>405.0</ele><time>2026-04-09T11:52:59.002Z</time></trkpt><trkpt lat="39.471544660759726" lon="9.281803022461457"><ele>405.0</ele><time>2026-04-09T11:53:00.002Z</time></trkpt><trkpt lat="39.47153503275752" lon="9.281894852431648"><ele>404.0</ele><time>2026-04-09T11:53:01.002Z</time></trkpt><trkpt lat="39.471536398939115" lon="9.281976697226574"><ele>403.0</ele><time>2026-04-09T11:53:02.002Z</time></trkpt><trkpt lat="39.47155082586372" lon="9.28211945492346"><ele>402.0</ele><time>2026-04-09T11:53:04.002Z</time></trkpt><trkpt lat="39.471569048773674" lon="9.282230061749704"><ele>401.0</ele><time>2026-04-09T11:53:05.002Z</time></trkpt><trkpt lat="39.47158964470003" lon="9.282363060478263"><ele>400.0</ele><time>2026-04-09T11:53:06.002Z</time></trkpt><trkpt lat="39.47160825216883" lon="9.282489881432406"><ele>399.0</ele><time>2026-04-09T11:53:07.002Z</time></trkpt><trkpt lat="39.471631803576656" lon="9.282622410571099"><ele>398.0</ele><time>2026-04-09T11:53:08.002Z</time></trkpt><trkpt lat="39.471660025688955" lon="9.282758837246242"><ele>397.0</ele><time>2026-04-09T11:53:09.002Z</time></trkpt><trkpt lat="39.4716790517846" lon="9.282914721142005"><ele>396.0</ele><time>2026-04-09T11:53:10.002Z</time></trkpt><trkpt lat="39.47170301939315" lon="9.283060489528632"><ele>395.0</ele><time>2026-04-09T11:53:11.002Z</time></trkpt><trkpt lat="39.47172701314096" lon="9.283207039028795"><ele>394.0</ele><time>2026-04-09T11:53:12.002Z</time></trkpt><trkpt lat="39.47174767783574" lon="9.283351099180463"><ele>393.0</ele><time>2026-04-09T11:53:13.002Z</time></trkpt><trkpt lat="39.471765275681584" lon="9.283500683630196"><ele>392.0</ele><time>2026-04-09T11:53:14.002Z</time></trkpt><trkpt lat="39.471778085004836" lon="9.283650391847113"><ele>391.99999999999994</ele><time>2026-04-09T11:53:15.002Z</time></trkpt><trkpt lat="39.47175881892527" lon="9.283769694774541"><ele>392.0</ele><time>2026-04-09T11:53:16.002Z</time></trkpt><trkpt lat="39.47174123547601" lon="9.28386897042071"><ele>392.0</ele><time>2026-04-09T11:53:17.002Z</time></trkpt><trkpt lat="39.471737311226775" lon="9.283977502765454"><ele>392.0</ele><time>2026-04-09T11:53:18.002Z</time></trkpt><trkpt lat="39.4717165937018" lon="9.284084655273517"><ele>391.99999999999994</ele><time>2026-04-09T11:53:19.002Z</time></trkpt><trkpt lat="39.47173936216095" lon="9.284215258838826"><ele>392.0</ele><time>2026-04-09T11:53:20.002Z</time></trkpt><trkpt lat="39.471748406433115" lon="9.284336148582652"><ele>391.8333333333333</ele><time>2026-04-09T11:53:21.002Z</time></trkpt><trkpt lat="39.47175523101133" lon="9.284458402042661"><ele>391.66666666666663</ele><time>2026-04-09T11:53:22.002Z</time></trkpt><trkpt lat="39.47175860849644" lon="9.284566130426349"><ele>391.5</ele><time>2026-04-09T11:53:23.002Z</time></trkpt><trkpt lat="39.47175732989775" lon="9.28465559226783"><ele>391.33333333333337</ele><time>2026-04-09T11:53:24.002Z</time></trkpt><trkpt lat="39.47175558016433" lon="9.284777377084833"><ele>391.1666666666667</ele><time>2026-04-09T11:53:26.003Z</time></trkpt><trkpt lat="39.4717450768184" lon="9.284898038237394"><ele>391.0</ele><time>2026-04-09T11:53:29.003Z</time></trkpt><trkpt lat="39.47182147122231" lon="9.28494125964545"><ele>391.4</ele><time>2026-04-09T11:53:30.003Z</time></trkpt><trkpt lat="39.471893990531214" lon="9.28503634997498"><ele>391.8</ele><time>2026-04-09T11:53:32.003Z</time></trkpt><trkpt lat="39.47193874281326" lon="9.285113443423242"><ele>392.2</ele><time>2026-04-09T11:53:34.003Z</time></trkpt><trkpt lat="39.47199977563011" lon="9.285152835731548"><ele>392.59999999999997</ele><time>2026-04-09T11:54:31.001Z</time></trkpt><trkpt lat="39.4721122227235" lon="9.285239559652776"><ele>393.0</ele><time>2026-04-09T11:54:33.001Z</time></trkpt><trkpt lat="39.472190749324845" lon="9.28531550492129"><ele>393.0</ele><time>2026-04-09T11:54:34.001Z</time></trkpt><trkpt lat="39.47227900987502" lon="9.285400493887586"><ele>393.0</ele><time>2026-04-09T11:54:35.001Z</time></trkpt><trkpt lat="39.47240377090425" lon="9.285518676343235"><ele>393.0</ele><time>2026-04-09T11:54:36.001Z</time></trkpt><trkpt lat="39.47255210845202" lon="9.28565452184378"><ele>393.0</ele><time>2026-04-09T11:54:37.001Z</time></trkpt><trkpt lat="39.472700626071415" lon="9.285796028658735"><ele>389.6666666666667</ele><time>2026-04-09T11:54:38.001Z</time></trkpt><trkpt lat="39.47283844576566" lon="9.285932693257363"><ele>386.33333333333337</ele><time>2026-04-09T11:54:39.001Z</time></trkpt><trkpt lat="39.47298332516277" lon="9.286077574635913"><ele>383.0</ele><time>2026-04-09T11:54:40.001Z</time></trkpt><trkpt lat="39.473125273572336" lon="9.286211955553915"><ele>382.75</ele><time>2026-04-09T11:54:41.001Z</time></trkpt><trkpt lat="39.47325249107331" lon="9.286334373857816"><ele>382.5</ele><time>2026-04-09T11:54:42.001Z</time></trkpt><trkpt lat="39.47335831196494" lon="9.286439031036023"><ele>382.25</ele><time>2026-04-09T11:54:43.001Z</time></trkpt><trkpt lat="39.47346428157227" lon="9.286540558506342"><ele>382.0</ele><time>2026-04-09T11:54:44.001Z</time></trkpt><trkpt lat="39.47357379646621" lon="9.286640787495482"><ele>381.25</ele><time>2026-04-09T11:54:45.001Z</time></trkpt><trkpt lat="39.47368579236744" lon="9.286745348383684"><ele>380.5</ele><time>2026-04-09T11:54:46.001Z</time></trkpt><trkpt lat="39.4737990479964" lon="9.28685236682437"><ele>379.75</ele><time>2026-04-09T11:54:47.001Z</time></trkpt><trkpt lat="39.47390823471793" lon="9.286956063960323"><ele>379.0</ele><time>2026-04-09T11:54:48.001Z</time></trkpt><trkpt lat="39.47401538617917" lon="9.287075262440124"><ele>379.0</ele><time>2026-04-09T11:54:49.001Z</time></trkpt><trkpt lat="39.474097133415086" lon="9.287224108338279"><ele>379.0</ele><time>2026-04-09T11:54:50.001Z</time></trkpt><trkpt lat="39.474175908539216" lon="9.287360480315039"><ele>379.0</ele><time>2026-04-09T11:54:51.001Z</time></trkpt><trkpt lat="39.47426870944739" lon="9.287496279811934"><ele>379.0</ele><time>2026-04-09T11:54:52.001Z</time></trkpt><trkpt lat="39.47435153767439" lon="9.2876464030814"><ele>379.0</ele><time>2026-04-09T11:54:53.001Z</time></trkpt><trkpt lat="39.47443874722345" lon="9.287799331757164"><ele>379.0</ele><time>2026-04-09T11:54:54.001Z</time></trkpt><trkpt lat="39.474527291504366" lon="9.287956570339112"><ele>379.0</ele><time>2026-04-09T11:54:55.001Z</time></trkpt><trkpt lat="39.47460833283833" lon="9.288107408262944"><ele>379.0</ele><time>2026-04-09T11:54:56.002Z</time></trkpt><trkpt lat="39.47468585706749" lon="9.28825132706642"><ele>379.75</ele><time>2026-04-09T11:54:57.002Z</time></trkpt><trkpt lat="39.47476954966535" lon="9.288403849698463"><ele>380.5</ele><time>2026-04-09T11:54:58.002Z</time></trkpt><trkpt lat="39.47485754644854" lon="9.288558004259759"><ele>381.25</ele><time>2026-04-09T11:54:59.002Z</time></trkpt><trkpt lat="39.47493929744029" lon="9.288708625590003"><ele>382.0</ele><time>2026-04-09T11:55:00.002Z</time></trkpt><trkpt lat="39.4750177847831" lon="9.28885221057049"><ele>380.25</ele><time>2026-04-09T11:55:01.002Z</time></trkpt><trkpt lat="39.47509961125721" lon="9.289001055849337"><ele>378.5</ele><time>2026-04-09T11:55:02.002Z</time></trkpt><trkpt lat="39.47517952667046" lon="9.289152488790585"><ele>376.75</ele><time>2026-04-09T11:55:03.002Z</time></trkpt><trkpt lat="39.4752547639077" lon="9.289309871637771"><ele>375.0</ele><time>2026-04-09T11:55:04.002Z</time></trkpt><trkpt lat="39.47532543048604" lon="9.289473906613368"><ele>375.0</ele><time>2026-04-09T11:55:05.002Z</time></trkpt><trkpt lat="39.47539139683321" lon="9.289639165920473"><ele>375.0</ele><time>2026-04-09T11:55:06.002Z</time></trkpt><trkpt lat="39.47545688628405" lon="9.289814361186263"><ele>375.0</ele><time>2026-04-09T11:55:07.002Z</time></trkpt><trkpt lat="39.475522063207926" lon="9.28999265255085"><ele>375.0</ele><time>2026-04-09T11:55:08.002Z</time></trkpt><trkpt lat="39.47558778682182" lon="9.290176381935492"><ele>376.6666666666667</ele><time>2026-04-09T11:55:09.002Z</time></trkpt><trkpt lat="39.475655166108126" lon="9.290355829048346"><ele>378.33333333333337</ele><time>2026-04-09T11:55:10.002Z</time></trkpt><trkpt lat="39.47571963782254" lon="9.290544064931769"><ele>380.0</ele><time>2026-04-09T11:55:11.002Z</time></trkpt><trkpt lat="39.47577856637973" lon="9.290733362106069"><ele>380.0</ele><time>2026-04-09T11:55:12.002Z</time></trkpt><trkpt lat="39.475833506092584" lon="9.290920313578267"><ele>380.0</ele><time>2026-04-09T11:55:13.002Z</time></trkpt><trkpt lat="39.47588847924373" lon="9.291109881891193"><ele>380.0</ele><time>2026-04-09T11:55:14.002Z</time></trkpt><trkpt lat="39.47594223169196" lon="9.291291734005682"><ele>378.0</ele><time>2026-04-09T11:55:15.002Z</time></trkpt><trkpt lat="39.47599733367555" lon="9.291472756931174"><ele>376.0</ele><time>2026-04-09T11:55:16.002Z</time></trkpt><trkpt lat="39.476056699463825" lon="9.291668056804236"><ele>374.0</ele><time>2026-04-09T11:55:17.002Z</time></trkpt><trkpt lat="39.47612222716741" lon="9.291898363726771"><ele>374.0</ele><time>2026-04-09T11:55:18.002Z</time></trkpt><trkpt lat="39.47617863562586" lon="9.292098370807082"><ele>374.0</ele><time>2026-04-09T11:55:19.002Z</time></trkpt><trkpt lat="39.47623658266637" lon="9.292301543223745"><ele>374.0</ele><time>2026-04-09T11:55:20.002Z</time></trkpt><trkpt lat="39.47629117799571" lon="9.292522376328161"><ele>380.0</ele><time>2026-04-09T11:55:21.002Z</time></trkpt><trkpt lat="39.47633042675968" lon="9.292795801615727"><ele>386.0</ele><time>2026-04-09T11:55:22.002Z</time></trkpt><trkpt lat="39.476318158408844" lon="9.293097120514535"><ele>392.0</ele><time>2026-04-09T11:55:23.002Z</time></trkpt><trkpt lat="39.47632551988332" lon="9.293411785222256"><ele>392.0</ele><time>2026-04-09T11:55:24.002Z</time></trkpt><trkpt lat="39.47630805009333" lon="9.293695508046849"><ele>392.0</ele><time>2026-04-09T11:55:25.002Z</time></trkpt><trkpt lat="39.476293961447745" lon="9.29395206748127"><ele>392.0</ele><time>2026-04-09T11:55:26.002Z</time></trkpt><trkpt lat="39.47628479772534" lon="9.294183074244778"><ele>393.66666666666663</ele><time>2026-04-09T11:55:27.002Z</time></trkpt><trkpt lat="39.4762926682428" lon="9.29442275654403"><ele>395.33333333333337</ele><time>2026-04-09T11:55:28.002Z</time></trkpt><trkpt lat="39.47631077154129" lon="9.294731605753308"><ele>397.0</ele><time>2026-04-09T11:55:29.002Z</time></trkpt><trkpt lat="39.476354637289134" lon="9.295080956328787"><ele>397.0</ele><time>2026-04-09T11:55:30.002Z</time></trkpt><trkpt lat="39.47640170505968" lon="9.29546442230836"><ele>397.0</ele><time>2026-04-09T11:55:31.002Z</time></trkpt><trkpt lat="39.47644583245508" lon="9.295838802812163"><ele>393.5</ele><time>2026-04-09T11:55:32.002Z</time></trkpt><trkpt lat="39.47649892290015" lon="9.296155147069042"><ele>390.0</ele><time>2026-04-09T11:55:33.002Z</time></trkpt><trkpt lat="39.47652810070422" lon="9.296441500585107"><ele>389.33333333333337</ele><time>2026-04-09T11:55:34.002Z</time></trkpt><trkpt lat="39.47655341420393" lon="9.296702020079406"><ele>388.6666666666667</ele><time>2026-04-09T11:55:35.003Z</time></trkpt><trkpt lat="39.4765637229911" lon="9.296940389347188"><ele>388.0</ele><time>2026-04-09T11:55:36.003Z</time></trkpt><trkpt lat="39.4765251356619" lon="9.297156823976145"><ele>388.6666666666667</ele><time>2026-04-09T11:55:37.003Z</time></trkpt><trkpt lat="39.47645729914225" lon="9.297380779084287"><ele>389.33333333333337</ele><time>2026-04-09T11:55:38.003Z</time></trkpt><trkpt lat="39.47637493116837" lon="9.29762637573056"><ele>390.0</ele><time>2026-04-09T11:55:39.003Z</time></trkpt><trkpt lat="39.476303643552406" lon="9.297843346584129"><ele>384.6666666666667</ele><time>2026-04-09T11:55:40.003Z</time></trkpt><trkpt lat="39.47617281538044" lon="9.29799549642364"><ele>379.33333333333337</ele><time>2026-04-09T11:55:41.003Z</time></trkpt><trkpt lat="39.47601156015332" lon="9.298155962636569"><ele>374.0</ele><time>2026-04-09T11:55:42.003Z</time></trkpt><trkpt lat="39.47585071786657" lon="9.298306780024033"><ele>374.0</ele><time>2026-04-09T11:55:43.003Z</time></trkpt><trkpt lat="39.47573299551759" lon="9.298444432579593"><ele>374.0</ele><time>2026-04-09T11:55:44.003Z</time></trkpt><trkpt lat="39.475638736869" lon="9.29855473410419"><ele>374.0</ele><time>2026-04-09T11:55:45.003Z</time></trkpt><trkpt lat="39.47557267463436" lon="9.29868074034795"><ele>374.0</ele><time>2026-04-09T11:55:46Z</time></trkpt><trkpt lat="39.47553658485548" lon="9.298844724668715"><ele>374.5</ele><time>2026-04-09T11:55:47Z</time></trkpt><trkpt lat="39.47555692381531" lon="9.29902808402446"><ele>375.0</ele><time>2026-04-09T11:55:48Z</time></trkpt><trkpt lat="39.47561857417664" lon="9.299187113705424"><ele>375.5</ele><time>2026-04-09T11:55:49Z</time></trkpt><trkpt lat="39.47572693116657" lon="9.29931206551055"><ele>376.0</ele><time>2026-04-09T11:55:50Z</time></trkpt><trkpt lat="39.475853209161066" lon="9.29937290547302"><ele>376.0</ele><time>2026-04-09T11:55:51Z</time></trkpt><trkpt lat="39.476023852778006" lon="9.29938895568851"><ele>376.0</ele><time>2026-04-09T11:55:52Z</time></trkpt><trkpt lat="39.476258894994004" lon="9.299390783732361"><ele>376.0</ele><time>2026-04-09T11:55:53Z</time></trkpt><trkpt lat="39.4765350865711" lon="9.29939926697839"><ele>375.5</ele><time>2026-04-09T11:55:54Z</time></trkpt><trkpt lat="39.476834785662156" lon="9.299427424251807"><ele>375.0</ele><time>2026-04-09T11:55:55Z</time></trkpt><trkpt lat="39.47715895253827" lon="9.299460577038175"><ele>373.0</ele><time>2026-04-09T11:55:56Z</time></trkpt><trkpt lat="39.477485569000706" lon="9.299493015761223"><ele>371.0</ele><time>2026-04-09T11:55:57Z</time></trkpt><trkpt lat="39.47777525983794" lon="9.299515082165549"><ele>368.0</ele><time>2026-04-09T11:55:58Z</time></trkpt><trkpt lat="39.478028820296764" lon="9.299529613812075"><ele>365.0</ele><time>2026-04-09T11:55:59Z</time></trkpt><trkpt lat="39.47824479324155" lon="9.299532414455003"><ele>365.0</ele><time>2026-04-09T11:56:00Z</time></trkpt><trkpt lat="39.478448177296336" lon="9.299529650394907"><ele>365.0</ele><time>2026-04-09T11:56:01Z</time></trkpt><trkpt lat="39.478632187060235" lon="9.299512036388212"><ele>365.0</ele><time>2026-04-09T11:56:02Z</time></trkpt><trkpt lat="39.4788129296517" lon="9.299469805462405"><ele>359.0</ele><time>2026-04-09T11:56:03Z</time></trkpt><trkpt lat="39.47898276592334" lon="9.29940822806191"><ele>353.0</ele><time>2026-04-09T11:56:04Z</time></trkpt><trkpt lat="39.479135204953145" lon="9.299325338923943"><ele>347.0</ele><time>2026-04-09T11:56:05Z</time></trkpt><trkpt lat="39.47927032269641" lon="9.299233799571445"><ele>347.0</ele><time>2026-04-09T11:56:06Z</time></trkpt><trkpt lat="39.47939556855226" lon="9.299156284606468"><ele>347.0</ele><time>2026-04-09T11:56:07Z</time></trkpt><trkpt lat="39.47950847031059" lon="9.29910827258655"><ele>347.0</ele><time>2026-04-09T11:56:08Z</time></trkpt><trkpt lat="39.479605980500445" lon="9.299117327866965"><ele>347.0</ele><time>2026-04-09T11:56:09Z</time></trkpt><trkpt lat="39.479685667877526" lon="9.299123649264574"><ele>347.0</ele><time>2026-04-09T11:56:10Z</time></trkpt><trkpt lat="39.47975078916285" lon="9.299140371112664"><ele>347.0</ele><time>2026-04-09T11:56:11Z</time></trkpt><trkpt lat="39.47981721986655" lon="9.299156244763426"><ele>347.0</ele><time>2026-04-09T11:56:13Z</time></trkpt><trkpt lat="39.47975898192606" lon="9.299338301621896"><ele>347.0</ele><time>2026-04-09T11:56:56.001Z</time></trkpt><trkpt lat="39.479662558859175" lon="9.299352107093421"><ele>347.0</ele><time>2026-04-09T11:57:13.002Z</time></trkpt><trkpt lat="39.479590959595804" lon="9.29935743593442"><ele>347.0</ele><time>2026-04-09T11:57:15.002Z</time></trkpt><trkpt lat="39.47952458541258" lon="9.299366684763257"><ele>347.0</ele><time>2026-04-09T11:57:19.002Z</time></trkpt><trkpt lat="39.47945137207371" lon="9.299395993432682"><ele>347.0</ele><time>2026-04-09T11:57:21.002Z</time></trkpt><trkpt lat="39.47937119741019" lon="9.299461359504626"><ele>347.0</ele><time>2026-04-09T11:57:23.002Z</time></trkpt><trkpt lat="39.47933699166164" lon="9.29956220046919"><ele>347.0</ele><time>2026-04-09T11:57:24.002Z</time></trkpt><trkpt lat="39.4793343379133" lon="9.299699261742669"><ele>347.0</ele><time>2026-04-09T11:57:25.002Z</time></trkpt><trkpt lat="39.47935933563807" lon="9.299803754762927"><ele>347.0</ele><time>2026-04-09T11:57:26.002Z</time></trkpt><trkpt lat="39.47944390896757" lon="9.299863006973807"><ele>342.25</ele><time>2026-04-09T11:57:27.002Z</time></trkpt><trkpt lat="39.47953720275431" lon="9.299928081671139"><ele>337.5</ele><time>2026-04-09T11:57:28.002Z</time></trkpt><trkpt lat="39.47965124394543" lon="9.300013065201156"><ele>332.75</ele><time>2026-04-09T11:57:29.002Z</time></trkpt><trkpt lat="39.47976244030647" lon="9.300115525506259"><ele>328.0</ele><time>2026-04-09T11:57:30.002Z</time></trkpt><trkpt lat="39.4798623397" lon="9.300215200717593"><ele>328.0</ele><time>2026-04-09T11:57:31.002Z</time></trkpt><trkpt lat="39.47994081998692" lon="9.300299368960792"><ele>328.0</ele><time>2026-04-09T11:57:32.002Z</time></trkpt><trkpt lat="39.47999264205065" lon="9.300357058714992"><ele>328.0</ele><time>2026-04-09T11:57:33.002Z</time></trkpt><trkpt lat="39.47999739435248" lon="9.300450083103"><ele>328.0</ele><time>2026-04-09T11:57:36.002Z</time></trkpt><trkpt lat="39.47989252566056" lon="9.30033559942791"><ele>328.0</ele><time>2026-04-09T11:57:40.003Z</time></trkpt><trkpt lat="39.47982576394936" lon="9.30024958316434"><ele>328.0</ele><time>2026-04-09T11:57:41.003Z</time></trkpt><trkpt lat="39.47973832490309" lon="9.300204989237955"><ele>328.0</ele><time>2026-04-09T11:57:42.003Z</time></trkpt><trkpt lat="39.47966255565805" lon="9.300135326477974"><ele>328.0</ele><time>2026-04-09T11:57:43.003Z</time></trkpt><trkpt lat="39.47955122742914" lon="9.300089775765317"><ele>328.0</ele><time>2026-04-09T11:57:44.003Z</time></trkpt><trkpt lat="39.47943142276212" lon="9.300074827764332"><ele>328.0</ele><time>2026-04-09T11:57:45.003Z</time></trkpt><trkpt lat="39.479338456791936" lon="9.300067297798947"><ele>328.0</ele><time>2026-04-09T11:57:46.003Z</time></trkpt><trkpt lat="39.47924646282968" lon="9.300265490116164"><ele>328.0</ele><time>2026-04-09T11:57:47.003Z</time></trkpt><trkpt lat="39.47914980286227" lon="9.300225242880073"><ele>328.0</ele><time>2026-04-09T11:57:49.003Z</time></trkpt><trkpt lat="39.47905194832738" lon="9.300267422958205"><ele>328.0</ele><time>2026-04-09T11:57:51.003Z</time></trkpt><trkpt lat="39.4789809959211" lon="9.300293211772022"><ele>328.0</ele><time>2026-04-09T11:57:52Z</time></trkpt><trkpt lat="39.4789052434731" lon="9.300328615658206"><ele>328.0</ele><time>2026-04-09T11:57:53Z</time></trkpt><trkpt lat="39.47882510815373" lon="9.300359031500617"><ele>328.0</ele><time>2026-04-09T11:57:54Z</time></trkpt><trkpt lat="39.47874038566691" lon="9.300383118458042"><ele>328.0</ele><time>2026-04-09T11:57:55Z</time></trkpt><trkpt lat="39.47864740373889" lon="9.300407094592742"><ele>328.0</ele><time>2026-04-09T11:57:56Z</time></trkpt><trkpt lat="39.478551965404044" lon="9.30043130795113"><ele>328.0</ele><time>2026-04-09T11:57:57Z</time></trkpt><trkpt lat="39.478453794956934" lon="9.300452368098817"><ele>329.75</ele><time>2026-04-09T11:57:58Z</time></trkpt><trkpt lat="39.47834747974281" lon="9.300463658918593"><ele>331.5</ele><time>2026-04-09T11:57:59Z</time></trkpt><trkpt lat="39.478227391179416" lon="9.300475364686971"><ele>333.25</ele><time>2026-04-09T11:58:00Z</time></trkpt><trkpt lat="39.47810719439604" lon="9.300522103154021"><ele>335.0</ele><time>2026-04-09T11:58:01Z</time></trkpt><trkpt lat="39.47799834995637" lon="9.300549106266331"><ele>334.4</ele><time>2026-04-09T11:58:02Z</time></trkpt><trkpt lat="39.47789875029572" lon="9.300597469889194"><ele>333.8</ele><time>2026-04-09T11:58:03Z</time></trkpt><trkpt lat="39.47779681228805" lon="9.300629142136591"><ele>333.20000000000005</ele><time>2026-04-09T11:58:04Z</time></trkpt><trkpt lat="39.47770727753307" lon="9.300706779535227"><ele>332.6</ele><time>2026-04-09T11:58:05Z</time></trkpt><trkpt lat="39.477620667698496" lon="9.300774835408454"><ele>332.0</ele><time>2026-04-09T11:58:06Z</time></trkpt><trkpt lat="39.47755055711802" lon="9.300841571583899"><ele>332.0</ele><time>2026-04-09T11:58:07Z</time></trkpt><trkpt lat="39.47748916850519" lon="9.300915265402425"><ele>332.0</ele><time>2026-04-09T11:58:08Z</time></trkpt><trkpt lat="39.4774187936602" lon="9.301000055874175"><ele>332.0</ele><time>2026-04-09T11:58:09Z</time></trkpt><trkpt lat="39.477356378870894" lon="9.301089336482782"><ele>332.0</ele><time>2026-04-09T11:58:10Z</time></trkpt><trkpt lat="39.477308799474464" lon="9.301178841990794"><ele>332.0</ele><time>2026-04-09T11:58:11Z</time></trkpt><trkpt lat="39.47728524267021" lon="9.301301619932904"><ele>334.6</ele><time>2026-04-09T11:58:12Z</time></trkpt><trkpt lat="39.4772603242432" lon="9.301434128273181"><ele>337.20000000000005</ele><time>2026-04-09T11:58:13Z</time></trkpt><trkpt lat="39.47723948139006" lon="9.301570239972502"><ele>339.8</ele><time>2026-04-09T11:58:14Z</time></trkpt><trkpt lat="39.477207123663526" lon="9.301697402132213"><ele>342.4</ele><time>2026-04-09T11:58:15Z</time></trkpt><trkpt lat="39.477151166059585" lon="9.301814036967896"><ele>345.0</ele><time>2026-04-09T11:58:16Z</time></trkpt><trkpt lat="39.477082259818026" lon="9.301938797676435"><ele>345.75</ele><time>2026-04-09T11:58:17Z</time></trkpt><trkpt lat="39.47701291083995" lon="9.302079219011132"><ele>346.5</ele><time>2026-04-09T11:58:18Z</time></trkpt><trkpt lat="39.476943516835114" lon="9.302225145547066"><ele>347.25</ele><time>2026-04-09T11:58:19.001Z</time></trkpt><trkpt lat="39.476874038626526" lon="9.302365963556078"><ele>348.0</ele><time>2026-04-09T11:58:20.001Z</time></trkpt><trkpt lat="39.476801763376805" lon="9.30250194909779"><ele>350.75</ele><time>2026-04-09T11:58:21.001Z</time></trkpt><trkpt lat="39.47671753594377" lon="9.302629916880377"><ele>353.5</ele><time>2026-04-09T11:58:22.001Z</time></trkpt><trkpt lat="39.476619749548" lon="9.302739843716145"><ele>356.25</ele><time>2026-04-09T11:58:23.001Z</time></trkpt><trkpt lat="39.47652033622339" lon="9.30284999064562"><ele>359.0</ele><time>2026-04-09T11:58:24.001Z</time></trkpt><trkpt lat="39.476425585935864" lon="9.302951343760146"><ele>359.0</ele><time>2026-04-09T11:58:25.001Z</time></trkpt><trkpt lat="39.476336684588986" lon="9.303014593551339"><ele>359.0</ele><time>2026-04-09T11:58:26.001Z</time></trkpt><trkpt lat="39.476249061338436" lon="9.303031157030981"><ele>359.0</ele><time>2026-04-09T11:58:27.001Z</time></trkpt><trkpt lat="39.4761894836802" lon="9.303062100518886"><ele>359.0</ele><time>2026-04-09T11:58:28.001Z</time></trkpt><trkpt lat="39.47616273332765" lon="9.303143165332733"><ele>359.0</ele><time>2026-04-09T11:58:29.001Z</time></trkpt><trkpt lat="39.47621531933301" lon="9.30329029468015"><ele>359.0</ele><time>2026-04-09T11:58:31.001Z</time></trkpt><trkpt lat="39.47633774459507" lon="9.303271229279133"><ele>363.75</ele><time>2026-04-09T11:58:32.001Z</time></trkpt><trkpt lat="39.47645527207416" lon="9.303246807546802"><ele>368.5</ele><time>2026-04-09T11:58:33.001Z</time></trkpt><trkpt lat="39.47660537102196" lon="9.303216664128946"><ele>373.25</ele><time>2026-04-09T11:58:34.001Z</time></trkpt><trkpt lat="39.47675406186954" lon="9.303205183951222"><ele>378.0</ele><time>2026-04-09T11:58:35.001Z</time></trkpt><trkpt lat="39.47688929081531" lon="9.30318747418212"><ele>378.0</ele><time>2026-04-09T11:58:36.001Z</time></trkpt><trkpt lat="39.47699995626428" lon="9.30321504418285"><ele>378.0</ele><time>2026-04-09T11:58:37.001Z</time></trkpt><trkpt lat="39.47708343594517" lon="9.303243336353068"><ele>378.0</ele><time>2026-04-09T11:58:38.001Z</time></trkpt><trkpt lat="39.47716600221679" lon="9.303300473610367"><ele>378.0</ele><time>2026-04-09T11:58:39.001Z</time></trkpt><trkpt lat="39.47725727380843" lon="9.303408406043989"><ele>378.0</ele><time>2026-04-09T11:58:40.001Z</time></trkpt><trkpt lat="39.47735416314423" lon="9.30354532464731"><ele>377.25</ele><time>2026-04-09T11:58:41.001Z</time></trkpt><trkpt lat="39.477458410689074" lon="9.30367822458653"><ele>376.5</ele><time>2026-04-09T11:58:42.001Z</time></trkpt><trkpt lat="39.47753039496607" lon="9.303837061909748"><ele>375.75</ele><time>2026-04-09T11:58:43.001Z</time></trkpt><trkpt lat="39.47759566093756" lon="9.303980473318228"><ele>375.0</ele><time>2026-04-09T11:58:44.001Z</time></trkpt><trkpt lat="39.47764897518562" lon="9.304107461004662"><ele>379.2</ele><time>2026-04-09T11:58:45.001Z</time></trkpt><trkpt lat="39.47767882596544" lon="9.304215001707396"><ele>383.4</ele><time>2026-04-09T11:58:46.001Z</time></trkpt><trkpt lat="39.47768325520902" lon="9.304336541785327"><ele>387.6</ele><time>2026-04-09T11:58:47.001Z</time></trkpt><trkpt lat="39.47765336034331" lon="9.304459693933502"><ele>391.8</ele><time>2026-04-09T11:58:48.001Z</time></trkpt><trkpt lat="39.477596318672305" lon="9.304572382219302"><ele>396.0</ele><time>2026-04-09T11:58:49.001Z</time></trkpt><trkpt lat="39.47750823519334" lon="9.304668909470466"><ele>395.66666666666663</ele><time>2026-04-09T11:58:50.001Z</time></trkpt><trkpt lat="39.477389320223594" lon="9.304783749126104"><ele>395.3333333333333</ele><time>2026-04-09T11:58:51.001Z</time></trkpt><trkpt lat="39.47726110864968" lon="9.304899663729161"><ele>395.0</ele><time>2026-04-09T11:58:52.001Z</time></trkpt><trkpt lat="39.477139329603595" lon="9.30500147798909"><ele>400.25</ele><time>2026-04-09T11:58:53.001Z</time></trkpt><trkpt lat="39.47703550448445" lon="9.30509373241669"><ele>405.5</ele><time>2026-04-09T11:58:54.001Z</time></trkpt><trkpt lat="39.47696591855558" lon="9.305218579946176"><ele>410.75</ele><time>2026-04-09T11:58:55.001Z</time></trkpt><trkpt lat="39.47688386863432" lon="9.305348910921984"><ele>416.0</ele><time>2026-04-09T11:58:56.001Z</time></trkpt><trkpt lat="39.476820759277246" lon="9.305511601254652"><ele>416.25</ele><time>2026-04-09T11:58:57.001Z</time></trkpt><trkpt lat="39.47676589348607" lon="9.305676383923675"><ele>416.5</ele><time>2026-04-09T11:58:58.001Z</time></trkpt><trkpt lat="39.476713242245346" lon="9.305837202710338"><ele>416.75</ele><time>2026-04-09T11:58:59.001Z</time></trkpt><trkpt lat="39.4766741420684" lon="9.306004394407195"><ele>417.0</ele><time>2026-04-09T11:59:00.001Z</time></trkpt><trkpt lat="39.47662536309388" lon="9.30617375578191"><ele>417.0</ele><time>2026-04-09T11:59:01.001Z</time></trkpt><trkpt lat="39.47660571618963" lon="9.306348051590387"><ele>417.0</ele><time>2026-04-09T11:59:02.002Z</time></trkpt><trkpt lat="39.4765752332164" lon="9.306519672085898"><ele>417.0</ele><time>2026-04-09T11:59:03.002Z</time></trkpt><trkpt lat="39.47654859232063" lon="9.306685370267227"><ele>417.0</ele><time>2026-04-09T11:59:04.002Z</time></trkpt><trkpt lat="39.476515379322876" lon="9.306845514591666"><ele>417.40000000000003</ele><time>2026-04-09T11:59:05.002Z</time></trkpt><trkpt lat="39.47647873592842" lon="9.306995464621533"><ele>417.8</ele><time>2026-04-09T11:59:06.002Z</time></trkpt><trkpt lat="39.476445367517336" lon="9.30712170740028"><ele>418.2</ele><time>2026-04-09T11:59:07.002Z</time></trkpt><trkpt lat="39.47642357702" lon="9.307221503008412"><ele>418.6</ele><time>2026-04-09T11:59:08.002Z</time></trkpt><trkpt lat="39.47646324814252" lon="9.307369873887106"><ele>419.0</ele><time>2026-04-09T11:59:10.002Z</time></trkpt><trkpt lat="39.476530449509326" lon="9.307425917198767"><ele>421.75</ele><time>2026-04-09T11:59:11.002Z</time></trkpt><trkpt lat="39.47661353778977" lon="9.30751731713433"><ele>424.5</ele><time>2026-04-09T11:59:12.002Z</time></trkpt><trkpt lat="39.47667553972881" lon="9.307635030200023"><ele>427.25</ele><time>2026-04-09T11:59:13.002Z</time></trkpt><trkpt lat="39.47672196287356" lon="9.307770521416161"><ele>430.0</ele><time>2026-04-09T11:59:14.002Z</time></trkpt><trkpt lat="39.47680392024973" lon="9.307892712101014"><ele>430.0</ele><time>2026-04-09T11:59:15.002Z</time></trkpt><trkpt lat="39.476862555422755" lon="9.30803351649669"><ele>430.0</ele><time>2026-04-09T11:59:16.002Z</time></trkpt><trkpt lat="39.47692596114906" lon="9.308171351681857"><ele>430.0</ele><time>2026-04-09T11:59:17.002Z</time></trkpt><trkpt lat="39.47697288148634" lon="9.30831184127094"><ele>430.0</ele><time>2026-04-09T11:59:18.002Z</time></trkpt><trkpt lat="39.47700153307609" lon="9.308435235450357"><ele>431.83333333333337</ele><time>2026-04-09T11:59:19.002Z</time></trkpt><trkpt lat="39.477015794119055" lon="9.30855061949266"><ele>433.6666666666667</ele><time>2026-04-09T11:59:20.002Z</time></trkpt><trkpt lat="39.47700986578507" lon="9.308648548433824"><ele>435.5</ele><time>2026-04-09T11:59:21.002Z</time></trkpt><trkpt lat="39.47698353047665" lon="9.308728577758595"><ele>437.33333333333337</ele><time>2026-04-09T11:59:22.002Z</time></trkpt><trkpt lat="39.47693256027425" lon="9.308777186768962"><ele>439.1666666666667</ele><time>2026-04-09T11:59:23.002Z</time></trkpt><trkpt lat="39.47684097501158" lon="9.30874695587567"><ele>441.0</ele><time>2026-04-09T11:59:24.002Z</time></trkpt><trkpt lat="39.47671773157742" lon="9.308767794512134"><ele>441.0</ele><time>2026-04-09T11:59:25.002Z</time></trkpt><trkpt lat="39.47660214941505" lon="9.308801275466292"><ele>441.0</ele><time>2026-04-09T11:59:26.002Z</time></trkpt><trkpt lat="39.4764933549838" lon="9.308828511718405"><ele>441.0</ele><time>2026-04-09T11:59:27.002Z</time></trkpt><trkpt lat="39.47640758960367" lon="9.308860850590856"><ele>441.0</ele><time>2026-04-09T11:59:28.002Z</time></trkpt><trkpt lat="39.47634310071324" lon="9.308884941060683"><ele>441.0</ele><time>2026-04-09T11:59:29.002Z</time></trkpt><trkpt lat="39.476273007228016" lon="9.308886762927711"><ele>442.75</ele><time>2026-04-09T11:59:35.002Z</time></trkpt><trkpt lat="39.47617367940786" lon="9.30894770654539"><ele>444.5</ele><time>2026-04-09T12:06:53.001Z</time></trkpt><trkpt lat="39.47602924087219" lon="9.309062233500008"><ele>446.25</ele><time>2026-04-09T12:06:55.001Z</time></trkpt><trkpt lat="39.4759242196519" lon="9.309100827127978"><ele>448.0</ele><time>2026-04-09T12:06:56.001Z</time></trkpt><trkpt lat="39.47584101405504" lon="9.30912616084793"><ele>448.0</ele><time>2026-04-09T12:06:57.001Z</time></trkpt><trkpt lat="39.47575087948911" lon="9.309154926443812"><ele>447.99999999999994</ele><time>2026-04-09T12:06:58.001Z</time></trkpt><trkpt lat="39.475642960553074" lon="9.309191456139445"><ele>447.99999999999994</ele><time>2026-04-09T12:06:59.001Z</time></trkpt><trkpt lat="39.475584142812146" lon="9.309237308965578"><ele>448.0</ele><time>2026-04-09T12:07:01.001Z</time></trkpt><trkpt lat="39.47550347309099" lon="9.30924739799432"><ele>448.0</ele><time>2026-04-09T12:07:04.001Z</time></trkpt><trkpt lat="39.47491377847154" lon="9.308748324343256"><ele>453.0</ele><time>2026-04-09T12:08:16.002Z</time></trkpt><trkpt lat="39.47479136334912" lon="9.308727759113857"><ele>457.99999999999994</ele><time>2026-04-09T12:08:18.002Z</time></trkpt><trkpt lat="39.474722852717754" lon="9.308711894936398"><ele>462.99999999999994</ele><time>2026-04-09T12:08:19.002Z</time></trkpt><trkpt lat="39.474615314709794" lon="9.308661836546802"><ele>468.0</ele><time>2026-04-09T12:08:21.002Z</time></trkpt><trkpt lat="39.474499969134" lon="9.308657840342356"><ele>473.0</ele><time>2026-04-09T12:08:23.001Z</time></trkpt><trkpt lat="39.474405080019295" lon="9.308660744625923"><ele>477.3333333333333</ele><time>2026-04-09T12:08:25.001Z</time></trkpt><trkpt lat="39.47431439302918" lon="9.308683431469392"><ele>481.66666666666663</ele><time>2026-04-09T12:08:27.001Z</time></trkpt><trkpt lat="39.47423128786188" lon="9.308691752171514"><ele>486.0</ele><time>2026-04-09T12:08:29.001Z</time></trkpt><trkpt lat="39.474151130033945" lon="9.308661349266472"><ele>490.33333333333337</ele><time>2026-04-09T12:08:31.001Z</time></trkpt><trkpt lat="39.47409274108967" lon="9.30860916856395"><ele>494.6666666666667</ele><time>2026-04-09T12:08:33.001Z</time></trkpt><trkpt lat="39.474045351478" lon="9.30855528111067"><ele>499.0</ele><time>2026-04-09T12:08:34.001Z</time></trkpt><trkpt lat="39.47399933170235" lon="9.308491860866908"><ele>499.0</ele><time>2026-04-09T12:08:35.001Z</time></trkpt><trkpt lat="39.47394641037735" lon="9.308439607625811"><ele>499.0</ele><time>2026-04-09T12:08:36.001Z</time></trkpt><trkpt lat="39.47383755392856" lon="9.308403273575276"><ele>499.0</ele><time>2026-04-09T12:08:38.001Z</time></trkpt><trkpt lat="39.47372657334914" lon="9.30838850559001"><ele>499.0</ele><time>2026-04-09T12:08:40.001Z</time></trkpt><trkpt lat="39.47359842459291" lon="9.308407977577367"><ele>499.0</ele><time>2026-04-09T12:08:42.001Z</time></trkpt><trkpt lat="39.4735288927123" lon="9.308425345357849"><ele>502.0</ele><time>2026-04-09T12:08:43.001Z</time></trkpt><trkpt lat="39.47346342243023" lon="9.308447615346081"><ele>505.0</ele><time>2026-04-09T12:08:44.001Z</time></trkpt><trkpt lat="39.47334875781894" lon="9.30847292760797"><ele>508.0</ele><time>2026-04-09T12:08:46.001Z</time></trkpt><trkpt lat="39.473249108433016" lon="9.308479285418302"><ele>511.0</ele><time>2026-04-09T12:08:48.001Z</time></trkpt><trkpt lat="39.47312109414561" lon="9.308484353697805"><ele>514.0</ele><time>2026-04-09T12:08:50.001Z</time></trkpt><trkpt lat="39.473053152969975" lon="9.308485186422217"><ele>514.0</ele><time>2026-04-09T12:08:51.001Z</time></trkpt><trkpt lat="39.47299036948359" lon="9.308493105286297"><ele>514.0</ele><time>2026-04-09T12:08:52.001Z</time></trkpt><trkpt lat="39.47286006075474" lon="9.308504387977958"><ele>514.0</ele><time>2026-04-09T12:08:54.001Z</time></trkpt><trkpt lat="39.472794204314006" lon="9.308509930278863"><ele>514.0</ele><time>2026-04-09T12:08:55.001Z</time></trkpt><trkpt lat="39.47271938881332" lon="9.308503913445135"><ele>514.0</ele><time>2026-04-09T12:08:56.001Z</time></trkpt><trkpt lat="39.47264080819465" lon="9.308483647100374"><ele>514.0</ele><time>2026-04-09T12:08:57.001Z</time></trkpt><trkpt lat="39.47256904883429" lon="9.308455214747807"><ele>514.5</ele><time>2026-04-09T12:08:58.001Z</time></trkpt><trkpt lat="39.472505452293056" lon="9.308436908126072"><ele>515.0</ele><time>2026-04-09T12:08:59.001Z</time></trkpt><trkpt lat="39.47244693296464" lon="9.30846912258335"><ele>515.5</ele><time>2026-04-09T12:09:00.001Z</time></trkpt><trkpt lat="39.47232914710463" lon="9.308499514200749"><ele>516.0</ele><time>2026-04-09T12:09:02.001Z</time></trkpt><trkpt lat="39.47221939002204" lon="9.308533156187337"><ele>516.5</ele><time>2026-04-09T12:09:04.001Z</time></trkpt><trkpt lat="39.47214324002255" lon="9.30855725483043"><ele>517.0</ele><time>2026-04-09T12:09:05.001Z</time></trkpt><trkpt lat="39.47207832736299" lon="9.308564105347129"><ele>517.0</ele><time>2026-04-09T12:09:06.001Z</time></trkpt><trkpt lat="39.471935237259494" lon="9.308631225470569"><ele>517.0</ele><time>2026-04-09T12:09:08.001Z</time></trkpt><trkpt lat="39.471844219467584" lon="9.308664974608867"><ele>517.0</ele><time>2026-04-09T12:09:09.001Z</time></trkpt><trkpt lat="39.471773033826246" lon="9.30868514002161"><ele>517.0</ele><time>2026-04-09T12:09:10.001Z</time></trkpt><trkpt lat="39.47171273769761" lon="9.308710910682677"><ele>517.0</ele><time>2026-04-09T12:09:11.001Z</time></trkpt><trkpt lat="39.4716429917416" lon="9.308756649283687"><ele>517.0</ele><time>2026-04-09T12:09:13.001Z</time></trkpt><trkpt lat="39.47154468277273" lon="9.308847128495138"><ele>517.0</ele><time>2026-04-09T12:09:46.001Z</time></trkpt><trkpt lat="39.47148649833616" lon="9.30888571205522"><ele>517.0</ele><time>2026-04-09T12:09:47.001Z</time></trkpt><trkpt lat="39.47142415421365" lon="9.308922297859892"><ele>517.0</ele><time>2026-04-09T12:09:48.001Z</time></trkpt><trkpt lat="39.47136826555229" lon="9.308960414316298"><ele>517.0</ele><time>2026-04-09T12:09:49.001Z</time></trkpt><trkpt lat="39.47131178397619" lon="9.309002263836124"><ele>517.0</ele><time>2026-04-09T12:09:50.001Z</time></trkpt><trkpt lat="39.471246563673915" lon="9.309045539933981"><ele>520.8333333333334</ele><time>2026-04-09T12:09:51.001Z</time></trkpt><trkpt lat="39.471178305228136" lon="9.309093110514816"><ele>524.6666666666667</ele><time>2026-04-09T12:09:52.001Z</time></trkpt><trkpt lat="39.47110294465223" lon="9.309145175359372"><ele>528.5</ele><time>2026-04-09T12:09:53.001Z</time></trkpt><trkpt lat="39.47103920215964" lon="9.309183410904598"><ele>532.3333333333334</ele><time>2026-04-09T12:09:54.001Z</time></trkpt><trkpt lat="39.47096602702118" lon="9.309216121912195"><ele>536.1666666666666</ele><time>2026-04-09T12:09:55.001Z</time></trkpt><trkpt lat="39.47088404542583" lon="9.30925881238447"><ele>540.0</ele><time>2026-04-09T12:09:56.001Z</time></trkpt><trkpt lat="39.470817053843156" lon="9.309296177285699"><ele>540.0</ele><time>2026-04-09T12:09:57.001Z</time></trkpt><trkpt lat="39.470718793989796" lon="9.309330091085464"><ele>540.0</ele><time>2026-04-09T12:09:59.001Z</time></trkpt><trkpt lat="39.47065968591245" lon="9.309360183669067"><ele>540.0</ele><time>2026-04-09T12:10:00.001Z</time></trkpt><trkpt lat="39.47059010186982" lon="9.309365489271341"><ele>540.0</ele><time>2026-04-09T12:10:02.001Z</time></trkpt><trkpt lat="39.47051083670005" lon="9.309386992587024"><ele>540.0</ele><time>2026-04-09T12:10:04.001Z</time></trkpt><trkpt lat="39.47041163590906" lon="9.30946000775579"><ele>540.0</ele><time>2026-04-09T12:10:06.001Z</time></trkpt><trkpt lat="39.47035634004467" lon="9.309513011437673"><ele>542.7142857142857</ele><time>2026-04-09T12:10:07.001Z</time></trkpt><trkpt lat="39.47029391321109" lon="9.309536449213509"><ele>545.4285714285713</ele><time>2026-04-09T12:10:08.001Z</time></trkpt><trkpt lat="39.470233318165505" lon="9.309562521834366"><ele>548.1428571428571</ele><time>2026-04-09T12:10:09.001Z</time></trkpt><trkpt lat="39.470167749329164" lon="9.309586069014511"><ele>550.8571428571429</ele><time>2026-04-09T12:10:10.001Z</time></trkpt><trkpt lat="39.4701029157079" lon="9.309607995223448"><ele>553.5714285714287</ele><time>2026-04-09T12:10:11.001Z</time></trkpt><trkpt lat="39.47003161293093" lon="9.30963612233498"><ele>556.2857142857143</ele><time>2026-04-09T12:10:12.001Z</time></trkpt><trkpt lat="39.46995916405005" lon="9.30966144235987"><ele>559.0</ele><time>2026-04-09T12:10:13.001Z</time></trkpt><trkpt lat="39.46988039653002" lon="9.30968617157059"><ele>559.0</ele><time>2026-04-09T12:10:14.001Z</time></trkpt><trkpt lat="39.46981211002958" lon="9.309682750104406"><ele>559.0</ele><time>2026-04-09T12:10:15.001Z</time></trkpt><trkpt lat="39.46973711372894" lon="9.309690117773869"><ele>559.0</ele><time>2026-04-09T12:10:16.001Z</time></trkpt><trkpt lat="39.469662670849665" lon="9.30970316507572"><ele>559.0</ele><time>2026-04-09T12:10:17.001Z</time></trkpt><trkpt lat="39.46958296778566" lon="9.309711699139635"><ele>559.0</ele><time>2026-04-09T12:10:18.001Z</time></trkpt><trkpt lat="39.46951828493047" lon="9.309724769716555"><ele>559.0</ele><time>2026-04-09T12:10:19.001Z</time></trkpt><trkpt lat="39.469400129792525" lon="9.30974662225255"><ele>563.3333333333334</ele><time>2026-04-09T12:10:21.001Z</time></trkpt><trkpt lat="39.46933703134342" lon="9.309765132948007"><ele>567.6666666666667</ele><time>2026-04-09T12:10:22.001Z</time></trkpt><trkpt lat="39.46926670773221" lon="9.30980919410982"><ele>572.0</ele><time>2026-04-09T12:10:24.001Z</time></trkpt><trkpt lat="39.469193985829406" lon="9.309798559061614"><ele>576.3333333333334</ele><time>2026-04-09T12:10:26.001Z</time></trkpt><trkpt lat="39.469125328157844" lon="9.309773197803407"><ele>580.6666666666666</ele><time>2026-04-09T12:10:27.999Z</time></trkpt><trkpt lat="39.46901527039059" lon="9.309777194978588"><ele>585.0</ele><time>2026-04-09T12:10:29.999Z</time></trkpt><trkpt lat="39.46892144938882" lon="9.309790628882244"><ele>585.0</ele><time>2026-04-09T12:10:31.999Z</time></trkpt><trkpt lat="39.46884548855733" lon="9.30977518592445"><ele>585.0</ele><time>2026-04-09T12:10:33.999Z</time></trkpt><trkpt lat="39.468746593196094" lon="9.309760887061335"><ele>585.0</ele><time>2026-04-09T12:10:35.999Z</time></trkpt><trkpt lat="39.468622731183345" lon="9.30974801361161"><ele>585.0</ele><time>2026-04-09T12:10:37.999Z</time></trkpt><trkpt lat="39.46852769327112" lon="9.309721687601467"><ele>585.0</ele><time>2026-04-09T12:10:39.999Z</time></trkpt><trkpt lat="39.468445092859334" lon="9.309678313342614"><ele>585.0</ele><time>2026-04-09T12:10:42.999Z</time></trkpt><trkpt lat="39.4685611169083" lon="9.3097535939459"><ele>585.0</ele><time>2026-04-09T12:11:41Z</time></trkpt><trkpt lat="39.46863980621005" lon="9.309751004807875"><ele>585.0</ele><time>2026-04-09T12:11:45Z</time></trkpt><trkpt lat="39.468699950610635" lon="9.309782775669268"><ele>585.0</ele><time>2026-04-09T12:11:52Z</time></trkpt><trkpt lat="39.46876352287061" lon="9.309810683375716"><ele>585.0</ele><time>2026-04-09T12:12:09.001Z</time></trkpt><trkpt lat="39.46879931738083" lon="9.309887814195502"><ele>585.0</ele><time>2026-04-09T12:15:01.998Z</time></trkpt><trkpt lat="39.46886223770081" lon="9.309815240045983"><ele>585.0</ele><time>2026-04-09T12:18:17.002Z</time></trkpt></trkseg><trkseg><trkpt lat="39.468366997533245" lon="9.309689291531296"><ele>607.0</ele><time>2026-04-09T12:33:20.002Z</time></trkpt><trkpt lat="39.46824437255822" lon="9.309671420866643"><ele>607.0</ele><time>2026-04-09T12:33:22.002Z</time></trkpt><trkpt lat="39.46816459328782" lon="9.309666247351464"><ele>607.0</ele><time>2026-04-09T12:33:23.002Z</time></trkpt><trkpt lat="39.468090246071924" lon="9.309653970783087"><ele>607.0</ele><time>2026-04-09T12:33:24.002Z</time></trkpt><trkpt lat="39.46801058538764" lon="9.309643161104288"><ele>607.0</ele><time>2026-04-09T12:33:25.002Z</time></trkpt><trkpt lat="39.4679149716683" lon="9.309635762048613"><ele>610.1666666666667</ele><time>2026-04-09T12:33:26.002Z</time></trkpt><trkpt lat="39.46782458914264" lon="9.309630115931224"><ele>613.3333333333334</ele><time>2026-04-09T12:33:27.002Z</time></trkpt><trkpt lat="39.46773433588674" lon="9.309631493480786"><ele>616.5</ele><time>2026-04-09T12:33:28.002Z</time></trkpt><trkpt lat="39.46761701602327" lon="9.30966719581587"><ele>619.6666666666666</ele><time>2026-04-09T12:33:30.002Z</time></trkpt><trkpt lat="39.467557141818375" lon="9.309719955570959"><ele>622.8333333333333</ele><time>2026-04-09T12:33:32.003Z</time></trkpt><trkpt lat="39.467493770678885" lon="9.30976281902743"><ele>626.0</ele><time>2026-04-09T12:33:35.003Z</time></trkpt><trkpt lat="39.467425649359654" lon="9.309788667406323"><ele>626.8333333333333</ele><time>2026-04-09T12:37:36.002Z</time></trkpt><trkpt lat="39.467359378458575" lon="9.30981581610463"><ele>627.6666666666666</ele><time>2026-04-09T12:37:37.002Z</time></trkpt><trkpt lat="39.467283964445684" lon="9.309853955276271"><ele>628.5</ele><time>2026-04-09T12:37:38.002Z</time></trkpt><trkpt lat="39.46722317779191" lon="9.309884593688547"><ele>629.3333333333334</ele><time>2026-04-09T12:37:39.002Z</time></trkpt><trkpt lat="39.46711148262253" lon="9.309937828983278"><ele>630.1666666666667</ele><time>2026-04-09T12:37:41.002Z</time></trkpt><trkpt lat="39.46704361727925" lon="9.3099701188095"><ele>631.0</ele><time>2026-04-09T12:37:42.002Z</time></trkpt><trkpt lat="39.46698296301284" lon="9.309997191467849"><ele>634.5</ele><time>2026-04-09T12:37:43.002Z</time></trkpt><trkpt lat="39.466924041309994" lon="9.310035250651392"><ele>638.0</ele><time>2026-04-09T12:37:44.002Z</time></trkpt><trkpt lat="39.46686198259624" lon="9.31009408550916"><ele>641.5</ele><time>2026-04-09T12:37:45.002Z</time></trkpt><trkpt lat="39.466797363772066" lon="9.310149514671034"><ele>645.0</ele><time>2026-04-09T12:37:46.002Z</time></trkpt><trkpt lat="39.46673845022912" lon="9.310196519289832"><ele>648.5</ele><time>2026-04-09T12:37:47.002Z</time></trkpt><trkpt lat="39.46662573452281" lon="9.310278612766925"><ele>652.0</ele><time>2026-04-09T12:37:49.002Z</time></trkpt><trkpt lat="39.46653840884952" lon="9.310343839331757"><ele>652.0</ele><time>2026-04-09T12:37:51.002Z</time></trkpt><trkpt lat="39.466453202559705" lon="9.31042707719909"><ele>652.0</ele><time>2026-04-09T12:37:53.002Z</time></trkpt><trkpt lat="39.46640013450403" lon="9.310477091118397"><ele>652.0</ele><time>2026-04-09T12:37:54.002Z</time></trkpt><trkpt lat="39.466306765078315" lon="9.310528234289938"><ele>652.0</ele><time>2026-04-09T12:37:56.002Z</time></trkpt><trkpt lat="39.46619513708865" lon="9.310543460803785"><ele>652.0</ele><time>2026-04-09T12:37:58.002Z</time></trkpt><trkpt lat="39.46610782560262" lon="9.310514347726112"><ele>655.8</ele><time>2026-04-09T12:38:01.002Z</time></trkpt><trkpt lat="39.466016123443744" lon="9.310458719926695"><ele>659.6</ele><time>2026-04-09T12:38:03.002Z</time></trkpt><trkpt lat="39.465946516940335" lon="9.310408843726556"><ele>663.4</ele><time>2026-04-09T12:38:04.002Z</time></trkpt><trkpt lat="39.46586214282335" lon="9.310345281539265"><ele>667.1999999999999</ele><time>2026-04-09T12:38:05.002Z</time></trkpt><trkpt lat="39.46575766345079" lon="9.310266241544689"><ele>671.0</ele><time>2026-04-09T12:38:06.002Z</time></trkpt><trkpt lat="39.46564834544931" lon="9.31018380898758"><ele>671.0</ele><time>2026-04-09T12:38:07.002Z</time></trkpt><trkpt lat="39.46555047973966" lon="9.310118345572706"><ele>671.0</ele><time>2026-04-09T12:38:08.002Z</time></trkpt><trkpt lat="39.465439637002106" lon="9.310060034646126"><ele>671.0</ele><time>2026-04-09T12:38:09.002Z</time></trkpt><trkpt lat="39.46533588782296" lon="9.310012273330505"><ele>671.0</ele><time>2026-04-09T12:38:10.002Z</time></trkpt><trkpt lat="39.46526669156321" lon="9.309967812017042"><ele>671.0</ele><time>2026-04-09T12:38:11.002Z</time></trkpt><trkpt lat="39.46519967314245" lon="9.309908158277981"><ele>675.0</ele><time>2026-04-09T12:38:12.002Z</time></trkpt><trkpt lat="39.465119218726294" lon="9.309848615123745"><ele>679.0</ele><time>2026-04-09T12:38:13.002Z</time></trkpt><trkpt lat="39.46501722169318" lon="9.309792283016431"><ele>683.0</ele><time>2026-04-09T12:38:14.002Z</time></trkpt><trkpt lat="39.46490893439328" lon="9.3097348991745"><ele>687.0</ele><time>2026-04-09T12:38:15.002Z</time></trkpt><trkpt lat="39.46479791639457" lon="9.309675570659097"><ele>691.0</ele><time>2026-04-09T12:38:16.001Z</time></trkpt><trkpt lat="39.46470234340062" lon="9.309616026567772"><ele>692.3333333333334</ele><time>2026-04-09T12:38:17.001Z</time></trkpt><trkpt lat="39.46464171101016" lon="9.309587659327628"><ele>693.6666666666667</ele><time>2026-04-09T12:38:18.001Z</time></trkpt><trkpt lat="39.464575570391304" lon="9.309622615854002"><ele>695.0</ele><time>2026-04-09T12:38:20Z</time></trkpt><trkpt lat="39.46450494742624" lon="9.309668241879962"><ele>696.3333333333334</ele><time>2026-04-09T12:38:21Z</time></trkpt><trkpt lat="39.46442539081645" lon="9.309713613020726"><ele>697.6666666666666</ele><time>2026-04-09T12:38:22Z</time></trkpt><trkpt lat="39.464336342047524" lon="9.309740063888906"><ele>699.0</ele><time>2026-04-09T12:38:23Z</time></trkpt><trkpt lat="39.46424572167406" lon="9.30977519623023"><ele>701.5</ele><time>2026-04-09T12:38:24Z</time></trkpt><trkpt lat="39.464168336620084" lon="9.309809771727895"><ele>704.0</ele><time>2026-04-09T12:38:25Z</time></trkpt><trkpt lat="39.4641082636161" lon="9.309837056594787"><ele>706.5</ele><time>2026-04-09T12:38:26Z</time></trkpt><trkpt lat="39.4640260168959" lon="9.309864113450748"><ele>709.0</ele><time>2026-04-09T12:38:27Z</time></trkpt><trkpt lat="39.46392845957888" lon="9.309900813823578"><ele>711.5</ele><time>2026-04-09T12:38:28Z</time></trkpt><trkpt lat="39.463833555864056" lon="9.309934628220292"><ele>714.0</ele><time>2026-04-09T12:38:29Z</time></trkpt><trkpt lat="39.46375423978545" lon="9.309956117414947"><ele>715.6</ele><time>2026-04-09T12:38:30Z</time></trkpt><trkpt lat="39.46362659484417" lon="9.309969722490298"><ele>717.2</ele><time>2026-04-09T12:38:32Z</time></trkpt><trkpt lat="39.46353283099667" lon="9.309978948208787"><ele>718.8000000000001</ele><time>2026-04-09T12:38:33Z</time></trkpt><trkpt lat="39.463455579034616" lon="9.309982713052365"><ele>720.4000000000001</ele><time>2026-04-09T12:38:34Z</time></trkpt><trkpt lat="39.46338600536467" lon="9.30993020108646"><ele>722.0</ele><time>2026-04-09T12:38:36Z</time></trkpt><trkpt lat="39.46329486977744" lon="9.3098084755312"><ele>722.5</ele><time>2026-04-09T12:38:38Z</time></trkpt><trkpt lat="39.463226517941564" lon="9.309725820007904"><ele>723.0</ele><time>2026-04-09T12:38:39Z</time></trkpt><trkpt lat="39.463157514630446" lon="9.309658743591905"><ele>723.5</ele><time>2026-04-09T12:38:40Z</time></trkpt><trkpt lat="39.4630906575045" lon="9.309620887729283"><ele>724.0</ele><time>2026-04-09T12:38:41Z</time></trkpt><trkpt lat="39.46301368460919" lon="9.309617085713727"><ele>724.5</ele><time>2026-04-09T12:38:42Z</time></trkpt><trkpt lat="39.46293819287877" lon="9.309630876673465"><ele>725.0</ele><time>2026-04-09T12:38:43Z</time></trkpt><trkpt lat="39.46287307465481" lon="9.309660961962075"><ele>725.2</ele><time>2026-04-09T12:38:44Z</time></trkpt><trkpt lat="39.46279327085633" lon="9.309701144010011"><ele>725.4</ele><time>2026-04-09T12:38:45Z</time></trkpt><trkpt lat="39.46271351845772" lon="9.309752214570954"><ele>725.5999999999999</ele><time>2026-04-09T12:38:46Z</time></trkpt><trkpt lat="39.462610234358586" lon="9.309823124485126"><ele>725.8</ele><time>2026-04-09T12:38:47Z</time></trkpt><trkpt lat="39.46249301059146" lon="9.30990871435631"><ele>726.0</ele><time>2026-04-09T12:38:48.001Z</time></trkpt><trkpt lat="39.46238699356827" lon="9.309986920636398"><ele>726.1666666666666</ele><time>2026-04-09T12:38:49.001Z</time></trkpt><trkpt lat="39.46231541454535" lon="9.310045984661746"><ele>726.3333333333334</ele><time>2026-04-09T12:38:50.001Z</time></trkpt><trkpt lat="39.46225601373934" lon="9.310106542623942"><ele>726.5</ele><time>2026-04-09T12:38:51.001Z</time></trkpt><trkpt lat="39.4621986296388" lon="9.310188890156818"><ele>726.6666666666667</ele><time>2026-04-09T12:38:52.001Z</time></trkpt><trkpt lat="39.462157733800176" lon="9.310298365495875"><ele>726.8333333333334</ele><time>2026-04-09T12:38:53.001Z</time></trkpt><trkpt lat="39.462138198101165" lon="9.310430538492453"><ele>727.0</ele><time>2026-04-09T12:38:54.001Z</time></trkpt><trkpt lat="39.462118583933375" lon="9.31058370463685"><ele>727.0</ele><time>2026-04-09T12:38:55.001Z</time></trkpt><trkpt lat="39.462097248973606" lon="9.310739510315843"><ele>727.0</ele><time>2026-04-09T12:38:56.001Z</time></trkpt><trkpt lat="39.46206631710682" lon="9.31085871765493"><ele>727.0</ele><time>2026-04-09T12:38:57.001Z</time></trkpt><trkpt lat="39.4620038836303" lon="9.310977073925311"><ele>727.0</ele><time>2026-04-09T12:38:58.001Z</time></trkpt><trkpt lat="39.46191510247221" lon="9.311088035777903"><ele>727.0</ele><time>2026-04-09T12:38:59.001Z</time></trkpt><trkpt lat="39.461793850242245" lon="9.311227784030732"><ele>727.0</ele><time>2026-04-09T12:39:00.001Z</time></trkpt><trkpt lat="39.461665012878356" lon="9.311374652656555"><ele>727.0</ele><time>2026-04-09T12:39:01.001Z</time></trkpt><trkpt lat="39.46152975106484" lon="9.311556764182432"><ele>727.5</ele><time>2026-04-09T12:39:02.001Z</time></trkpt><trkpt lat="39.461417305422025" lon="9.311730445660366"><ele>728.0</ele><time>2026-04-09T12:39:03.001Z</time></trkpt><trkpt lat="39.46134205720445" lon="9.311847389929971"><ele>728.5</ele><time>2026-04-09T12:39:04.001Z</time></trkpt><trkpt lat="39.46127015866937" lon="9.311951183258094"><ele>729.0</ele><time>2026-04-09T12:39:05.001Z</time></trkpt><trkpt lat="39.46116620398931" lon="9.312098743679227"><ele>727.0</ele><time>2026-04-09T12:39:06.001Z</time></trkpt><trkpt lat="39.4610560392127" lon="9.312255379812147"><ele>725.0</ele><time>2026-04-09T12:39:07.001Z</time></trkpt><trkpt lat="39.460957829531154" lon="9.312386938345783"><ele>723.0</ele><time>2026-04-09T12:39:08.001Z</time></trkpt><trkpt lat="39.46087981469379" lon="9.312503339180527"><ele>721.0</ele><time>2026-04-09T12:39:09.001Z</time></trkpt><trkpt lat="39.46080241608837" lon="9.312614105471246"><ele>721.0</ele><time>2026-04-09T12:39:10.001Z</time></trkpt><trkpt lat="39.460712806699064" lon="9.312729864542971"><ele>721.0</ele><time>2026-04-09T12:39:11.001Z</time></trkpt><trkpt lat="39.460614421242155" lon="9.312844594776372"><ele>721.0</ele><time>2026-04-09T12:39:12.001Z</time></trkpt><trkpt lat="39.46053314813874" lon="9.312965675798791"><ele>721.0</ele><time>2026-04-09T12:39:13.001Z</time></trkpt><trkpt lat="39.460463361543894" lon="9.313106170280987"><ele>718.75</ele><time>2026-04-09T12:39:14.001Z</time></trkpt><trkpt lat="39.46039112841526" lon="9.313258400823226"><ele>716.5</ele><time>2026-04-09T12:39:15.001Z</time></trkpt><trkpt lat="39.46032898994532" lon="9.313383471092386"><ele>714.25</ele><time>2026-04-09T12:39:16.001Z</time></trkpt><trkpt lat="39.46026893099405" lon="9.313490419630442"><ele>712.0</ele><time>2026-04-09T12:39:17.001Z</time></trkpt><trkpt lat="39.460216207724365" lon="9.313592757930492"><ele>712.0</ele><time>2026-04-09T12:39:18.001Z</time></trkpt><trkpt lat="39.46016895745995" lon="9.313686603210336"><ele>712.0</ele><time>2026-04-09T12:39:19.001Z</time></trkpt><trkpt lat="39.46011867623896" lon="9.313782172231758"><ele>712.0</ele><time>2026-04-09T12:39:20.001Z</time></trkpt><trkpt lat="39.4600651279921" lon="9.313884506875857"><ele>712.0</ele><time>2026-04-09T12:39:21.001Z</time></trkpt><trkpt lat="39.46001163768721" lon="9.313993073295443"><ele>712.0</ele><time>2026-04-09T12:39:22.001Z</time></trkpt><trkpt lat="39.45996439625332" lon="9.314112735573067"><ele>710.75</ele><time>2026-04-09T12:39:23.001Z</time></trkpt><trkpt lat="39.45993079094364" lon="9.31425116323048"><ele>709.5</ele><time>2026-04-09T12:39:24.001Z</time></trkpt><trkpt lat="39.45990386842095" lon="9.314403650984985"><ele>708.25</ele><time>2026-04-09T12:39:25.001Z</time></trkpt><trkpt lat="39.45988124395057" lon="9.314553595708121"><ele>707.0</ele><time>2026-04-09T12:39:26.001Z</time></trkpt><trkpt lat="39.459849193206196" lon="9.31468378445591"><ele>706.0</ele><time>2026-04-09T12:39:27.001Z</time></trkpt><trkpt lat="39.45980548044704" lon="9.314828431851504"><ele>705.0</ele><time>2026-04-09T12:39:28.001Z</time></trkpt><trkpt lat="39.45975776951619" lon="9.314971439311616"><ele>704.0</ele><time>2026-04-09T12:39:29.001Z</time></trkpt><trkpt lat="39.45970731277988" lon="9.315115005770984"><ele>703.0</ele><time>2026-04-09T12:39:30.001Z</time></trkpt><trkpt lat="39.45965521067646" lon="9.315270653725975"><ele>702.0</ele><time>2026-04-09T12:39:31.001Z</time></trkpt><trkpt lat="39.45960915225702" lon="9.315421910568332"><ele>701.0</ele><time>2026-04-09T12:39:32.001Z</time></trkpt><trkpt lat="39.45956149228694" lon="9.315568038656188"><ele>700.0</ele><time>2026-04-09T12:39:33.001Z</time></trkpt><trkpt lat="39.459509471018976" lon="9.315726845725225"><ele>699.0</ele><time>2026-04-09T12:39:34.001Z</time></trkpt><trkpt lat="39.45946373454442" lon="9.315880144827997"><ele>697.75</ele><time>2026-04-09T12:39:35.001Z</time></trkpt><trkpt lat="39.45943378950534" lon="9.316032520698897"><ele>696.5</ele><time>2026-04-09T12:39:36.001Z</time></trkpt><trkpt lat="39.459407644725445" lon="9.316202731707408"><ele>695.25</ele><time>2026-04-09T12:39:37.001Z</time></trkpt><trkpt lat="39.459385836187884" lon="9.316383377548139"><ele>694.0</ele><time>2026-04-09T12:39:38.001Z</time></trkpt><trkpt lat="39.45937570135591" lon="9.316552321442895"><ele>692.25</ele><time>2026-04-09T12:39:39.001Z</time></trkpt><trkpt lat="39.45937538877094" lon="9.31671001920848"><ele>690.5</ele><time>2026-04-09T12:39:40.001Z</time></trkpt><trkpt lat="39.45936767978427" lon="9.316861230809327"><ele>688.75</ele><time>2026-04-09T12:39:41.001Z</time></trkpt><trkpt lat="39.45935705655873" lon="9.317002816298984"><ele>687.0</ele><time>2026-04-09T12:39:42.001Z</time></trkpt><trkpt lat="39.45934862611341" lon="9.31713898523629"><ele>685.0</ele><time>2026-04-09T12:39:43.001Z</time></trkpt><trkpt lat="39.459340132148654" lon="9.317279875719365"><ele>683.0</ele><time>2026-04-09T12:39:44.001Z</time></trkpt><trkpt lat="39.45933161290071" lon="9.317417897425356"><ele>681.0</ele><time>2026-04-09T12:39:45.001Z</time></trkpt><trkpt lat="39.459324179806885" lon="9.317556669226994"><ele>679.0</ele><time>2026-04-09T12:39:46.001Z</time></trkpt><trkpt lat="39.45931498494219" lon="9.317694962894748"><ele>677.0</ele><time>2026-04-09T12:39:47.002Z</time></trkpt><trkpt lat="39.4593095426083" lon="9.3178250412035"><ele>677.0</ele><time>2026-04-09T12:39:48.002Z</time></trkpt><trkpt lat="39.45930204461189" lon="9.317944705069337"><ele>677.0</ele><time>2026-04-09T12:39:49.002Z</time></trkpt><trkpt lat="39.459293049946865" lon="9.318063985661523"><ele>677.0</ele><time>2026-04-09T12:39:50.002Z</time></trkpt><trkpt lat="39.459282144825416" lon="9.318173289674851"><ele>677.0</ele><time>2026-04-09T12:39:51.002Z</time></trkpt><trkpt lat="39.45926910825006" lon="9.318279838141882"><ele>677.0</ele><time>2026-04-09T12:39:52.002Z</time></trkpt><trkpt lat="39.459255046739884" lon="9.31838226278648"><ele>677.0</ele><time>2026-04-09T12:39:53.002Z</time></trkpt><trkpt lat="39.45926046204531" lon="9.318473287315042"><ele>675.5</ele><time>2026-04-09T12:39:54.002Z</time></trkpt><trkpt lat="39.45929236975805" lon="9.318554673208027"><ele>674.0</ele><time>2026-04-09T12:39:55.002Z</time></trkpt><trkpt lat="39.459341659125684" lon="9.318630212649735"><ele>672.5</ele><time>2026-04-09T12:39:56.002Z</time></trkpt><trkpt lat="39.45940105979509" lon="9.318709273664378"><ele>671.0</ele><time>2026-04-09T12:39:57.002Z</time></trkpt><trkpt lat="39.459444397421315" lon="9.318805759514213"><ele>669.5</ele><time>2026-04-09T12:39:58.002Z</time></trkpt><trkpt lat="39.45947423629682" lon="9.318910379069969"><ele>668.0</ele><time>2026-04-09T12:39:59.002Z</time></trkpt><trkpt lat="39.459508289832876" lon="9.319010374756864"><ele>667.4</ele><time>2026-04-09T12:40:00.002Z</time></trkpt><trkpt lat="39.45955156522849" lon="9.319111613380285"><ele>666.8</ele><time>2026-04-09T12:40:01.002Z</time></trkpt><trkpt lat="39.45959123271734" lon="9.319222724901099"><ele>666.2</ele><time>2026-04-09T12:40:02.002Z</time></trkpt><trkpt lat="39.4596336393236" lon="9.319327553841612"><ele>665.6</ele><time>2026-04-09T12:40:03.002Z</time></trkpt><trkpt lat="39.45969133598055" lon="9.319423261685463"><ele>665.0</ele><time>2026-04-09T12:40:04.002Z</time></trkpt><trkpt lat="39.459753670060486" lon="9.319527923306627"><ele>664.5</ele><time>2026-04-09T12:40:05.002Z</time></trkpt><trkpt lat="39.459805373603324" lon="9.319647675106498"><ele>664.0</ele><time>2026-04-09T12:40:06.002Z</time></trkpt><trkpt lat="39.459858267248435" lon="9.31979109850265"><ele>663.5</ele><time>2026-04-09T12:40:07.002Z</time></trkpt><trkpt lat="39.459931054815975" lon="9.319974175120155"><ele>663.0</ele><time>2026-04-09T12:40:08.002Z</time></trkpt><trkpt lat="39.46000622532809" lon="9.320173042685404"><ele>663.0</ele><time>2026-04-09T12:40:09.002Z</time></trkpt><trkpt lat="39.46006204948363" lon="9.320353249926661"><ele>663.0</ele><time>2026-04-09T12:40:10.002Z</time></trkpt><trkpt lat="39.46010499115585" lon="9.320528705479665"><ele>663.0</ele><time>2026-04-09T12:40:11.002Z</time></trkpt><trkpt lat="39.460139102516784" lon="9.32071565834399"><ele>663.0</ele><time>2026-04-09T12:40:12.002Z</time></trkpt><trkpt lat="39.46017390437387" lon="9.32089795579245"><ele>662.75</ele><time>2026-04-09T12:40:13.002Z</time></trkpt><trkpt lat="39.460215823672634" lon="9.321072770866179"><ele>662.5</ele><time>2026-04-09T12:40:14.002Z</time></trkpt><trkpt lat="39.46026832860353" lon="9.321244779240692"><ele>662.25</ele><time>2026-04-09T12:40:15.002Z</time></trkpt><trkpt lat="39.460322192689404" lon="9.321424542157331"><ele>662.0</ele><time>2026-04-09T12:40:16.002Z</time></trkpt><trkpt lat="39.46036981087786" lon="9.321581231826341"><ele>661.4000000000001</ele><time>2026-04-09T12:40:17.002Z</time></trkpt><trkpt lat="39.46042248820875" lon="9.321718720952532"><ele>660.8000000000001</ele><time>2026-04-09T12:40:18.002Z</time></trkpt><trkpt lat="39.46048325108753" lon="9.321843593437478"><ele>660.2</ele><time>2026-04-09T12:40:19.002Z</time></trkpt><trkpt lat="39.46054767979623" lon="9.321957208825712"><ele>659.6</ele><time>2026-04-09T12:40:20.002Z</time></trkpt><trkpt lat="39.46061518548157" lon="9.322056691317307"><ele>659.0</ele><time>2026-04-09T12:40:21.002Z</time></trkpt><trkpt lat="39.46069087376771" lon="9.322144294123019"><ele>657.8000000000001</ele><time>2026-04-09T12:40:21.999Z</time></trkpt><trkpt lat="39.460778271048476" lon="9.322211842244212"><ele>656.6</ele><time>2026-04-09T12:40:22.999Z</time></trkpt><trkpt lat="39.460876215586616" lon="9.322288282932528"><ele>655.4</ele><time>2026-04-09T12:40:23.999Z</time></trkpt><trkpt lat="39.460969369780805" lon="9.322375936708454"><ele>654.2</ele><time>2026-04-09T12:40:24.999Z</time></trkpt><trkpt lat="39.46103568166452" lon="9.322458356850921"><ele>653.0</ele><time>2026-04-09T12:40:25.999Z</time></trkpt><trkpt lat="39.461099265367466" lon="9.322547529225155"><ele>653.0000000000001</ele><time>2026-04-09T12:40:26.999Z</time></trkpt><trkpt lat="39.461147415258814" lon="9.322621306782333"><ele>653.0</ele><time>2026-04-09T12:40:27.999Z</time></trkpt><trkpt lat="39.461193380253256" lon="9.322685431812058"><ele>653.0</ele><time>2026-04-09T12:40:28.999Z</time></trkpt><trkpt lat="39.461249516615666" lon="9.322725580420334"><ele>653.0</ele><time>2026-04-09T12:40:29.999Z</time></trkpt><trkpt lat="39.461310923636425" lon="9.322747354217112"><ele>653.0</ele><time>2026-04-09T12:40:30.999Z</time></trkpt><trkpt lat="39.46141832246283" lon="9.322758243636278"><ele>653.0000000000001</ele><time>2026-04-09T12:40:32.999Z</time></trkpt><trkpt lat="39.46148167545157" lon="9.32276090908592"><ele>653.0</ele><time>2026-04-09T12:40:33.999Z</time></trkpt><trkpt lat="39.46154569347016" lon="9.322756478825301"><ele>651.8333333333333</ele><time>2026-04-09T12:40:34.999Z</time></trkpt><trkpt lat="39.46165850459476" lon="9.322737725027437"><ele>650.6666666666666</ele><time>2026-04-09T12:40:36.999Z</time></trkpt><trkpt lat="39.46173398149291" lon="9.322744673335283"><ele>649.5</ele><time>2026-04-09T12:40:37.999Z</time></trkpt><trkpt lat="39.46180949084689" lon="9.32275152251932"><ele>648.3333333333334</ele><time>2026-04-09T12:40:38.999Z</time></trkpt><trkpt lat="39.46188549509915" lon="9.322765085058396"><ele>647.1666666666667</ele><time>2026-04-09T12:40:39.999Z</time></trkpt><trkpt lat="39.461958782740034" lon="9.322803874889297"><ele>646.0</ele><time>2026-04-09T12:40:40.999Z</time></trkpt><trkpt lat="39.462036017218125" lon="9.322861612039159"><ele>646.0</ele><time>2026-04-09T12:40:41.999Z</time></trkpt><trkpt lat="39.462111186942494" lon="9.322921796121841"><ele>646.0</ele><time>2026-04-09T12:40:42.999Z</time></trkpt><trkpt lat="39.4621910969626" lon="9.322986728757922"><ele>646.0</ele><time>2026-04-09T12:40:43.999Z</time></trkpt><trkpt lat="39.462263558238845" lon="9.32304594407467"><ele>646.0</ele><time>2026-04-09T12:40:44.999Z</time></trkpt><trkpt lat="39.4623332066" lon="9.323107543262847"><ele>646.0</ele><time>2026-04-09T12:40:46Z</time></trkpt><trkpt lat="39.46239136083222" lon="9.323160406322366"><ele>646.0</ele><time>2026-04-09T12:40:47Z</time></trkpt><trkpt lat="39.46244427803658" lon="9.323217863506535"><ele>645.5999999999999</ele><time>2026-04-09T12:40:48Z</time></trkpt><trkpt lat="39.46250969271032" lon="9.323295363727539"><ele>645.2</ele><time>2026-04-09T12:40:49Z</time></trkpt><trkpt lat="39.4625727314333" lon="9.323380274066203"><ele>644.8</ele><time>2026-04-09T12:40:50Z</time></trkpt><trkpt lat="39.462634085350906" lon="9.323496739710158"><ele>644.4000000000001</ele><time>2026-04-09T12:40:51Z</time></trkpt><trkpt lat="39.4626967208859" lon="9.323614368461017"><ele>644.0</ele><time>2026-04-09T12:40:52Z</time></trkpt><trkpt lat="39.462771608391144" lon="9.32374915870873"><ele>644.0</ele><time>2026-04-09T12:40:53Z</time></trkpt><trkpt lat="39.46285580064932" lon="9.32389611680026"><ele>644.0</ele><time>2026-04-09T12:40:54Z</time></trkpt><trkpt lat="39.46292980229788" lon="9.324006800144495"><ele>644.0</ele><time>2026-04-09T12:40:55Z</time></trkpt><trkpt lat="39.4629951440486" lon="9.324100130850848"><ele>644.0</ele><time>2026-04-09T12:40:56Z</time></trkpt><trkpt lat="39.463058731465026" lon="9.324179895972673"><ele>644.0</ele><time>2026-04-09T12:40:57Z</time></trkpt><trkpt lat="39.46312150464748" lon="9.324245749680706"><ele>643.0</ele><time>2026-04-09T12:40:58Z</time></trkpt><trkpt lat="39.463191639453676" lon="9.324322934983138"><ele>642.0</ele><time>2026-04-09T12:40:59Z</time></trkpt><trkpt lat="39.46327246364126" lon="9.324409693816477"><ele>641.0</ele><time>2026-04-09T12:41:00Z</time></trkpt><trkpt lat="39.46335565276014" lon="9.324507308152437"><ele>640.0</ele><time>2026-04-09T12:41:01Z</time></trkpt><trkpt lat="39.463445635249045" lon="9.324611211745637"><ele>639.0</ele><time>2026-04-09T12:41:02Z</time></trkpt><trkpt lat="39.46354396542164" lon="9.324701255177068"><ele>639.5</ele><time>2026-04-09T12:41:03Z</time></trkpt><trkpt lat="39.46364779370866" lon="9.324792298214804"><ele>640.0</ele><time>2026-04-09T12:41:04Z</time></trkpt><trkpt lat="39.46375213649241" lon="9.324875130757922"><ele>640.5</ele><time>2026-04-09T12:41:05Z</time></trkpt><trkpt lat="39.463854130951034" lon="9.324955505850932"><ele>641.0</ele><time>2026-04-09T12:41:06Z</time></trkpt><trkpt lat="39.46395696847557" lon="9.325033030835211"><ele>641.75</ele><time>2026-04-09T12:41:07Z</time></trkpt><trkpt lat="39.46405746936635" lon="9.325114429354853"><ele>642.5</ele><time>2026-04-09T12:41:08Z</time></trkpt><trkpt lat="39.46416317100608" lon="9.325196819080588"><ele>643.25</ele><time>2026-04-09T12:41:09Z</time></trkpt><trkpt lat="39.464272027134854" lon="9.325282150457149"><ele>644.0</ele><time>2026-04-09T12:41:10Z</time></trkpt><trkpt lat="39.464380012071175" lon="9.325361592701844"><ele>644.0</ele><time>2026-04-09T12:41:11Z</time></trkpt><trkpt lat="39.464470108041404" lon="9.325431869310266"><ele>644.0</ele><time>2026-04-09T12:41:12Z</time></trkpt><trkpt lat="39.464558619246404" lon="9.325516564457185"><ele>644.0</ele><time>2026-04-09T12:41:13Z</time></trkpt><trkpt lat="39.46464408667906" lon="9.325603399111777"><ele>644.0</ele><time>2026-04-09T12:41:14Z</time></trkpt><trkpt lat="39.46472105583854" lon="9.32568564755745"><ele>644.0</ele><time>2026-04-09T12:41:15Z</time></trkpt><trkpt lat="39.46478870790281" lon="9.325746451582344"><ele>643.6666666666666</ele><time>2026-04-09T12:41:16Z</time></trkpt><trkpt lat="39.46484916615514" lon="9.325782799522726"><ele>643.3333333333333</ele><time>2026-04-09T12:41:17Z</time></trkpt><trkpt lat="39.46494532468391" lon="9.325861329188767"><ele>643.0</ele><time>2026-04-09T12:41:19Z</time></trkpt><trkpt lat="39.465001500110496" lon="9.325901960748713"><ele>642.6666666666666</ele><time>2026-04-09T12:41:20Z</time></trkpt><trkpt lat="39.46508308371202" lon="9.32593871756646"><ele>642.3333333333334</ele><time>2026-04-09T12:41:21Z</time></trkpt><trkpt lat="39.4651653329536" lon="9.325989837719577"><ele>642.0</ele><time>2026-04-09T12:41:22Z</time></trkpt><trkpt lat="39.46524893334275" lon="9.326034868231313"><ele>642.0</ele><time>2026-04-09T12:41:23Z</time></trkpt><trkpt lat="39.46532143958768" lon="9.32609198447123"><ele>642.0</ele><time>2026-04-09T12:41:24.001Z</time></trkpt><trkpt lat="39.46537237229456" lon="9.326147486600188"><ele>642.0</ele><time>2026-04-09T12:41:25.001Z</time></trkpt><trkpt lat="39.465418934298334" lon="9.326203027439739"><ele>642.0</ele><time>2026-04-09T12:41:26.001Z</time></trkpt><trkpt lat="39.465463808106875" lon="9.326261690369419"><ele>642.0</ele><time>2026-04-09T12:41:27.001Z</time></trkpt><trkpt lat="39.465543044220624" lon="9.326376423487808"><ele>642.0</ele><time>2026-04-09T12:41:29.001Z</time></trkpt><trkpt lat="39.46558160696607" lon="9.326461586910643"><ele>641.6666666666666</ele><time>2026-04-09T12:41:31.001Z</time></trkpt><trkpt lat="39.46559713236488" lon="9.326557061721857"><ele>641.3333333333334</ele><time>2026-04-09T12:41:34.001Z</time></trkpt><trkpt lat="39.46555777039624" lon="9.32662744202598"><ele>641.0</ele><time>2026-04-09T13:05:22.001Z</time></trkpt><trkpt lat="39.46552954652218" lon="9.326711779711289"><ele>640.6666666666667</ele><time>2026-04-09T13:05:25.001Z</time></trkpt><trkpt lat="39.465461064039935" lon="9.326761033212723"><ele>640.3333333333334</ele><time>2026-04-09T13:07:12.001Z</time></trkpt><trkpt lat="39.46535713487401" lon="9.326806852586497"><ele>640.0</ele><time>2026-04-09T13:07:14.001Z</time></trkpt><trkpt lat="39.46528826811876" lon="9.326843609792672"><ele>639.3333333333334</ele><time>2026-04-09T13:07:15.001Z</time></trkpt><trkpt lat="39.46521644143279" lon="9.326876446969772"><ele>638.6666666666667</ele><time>2026-04-09T13:07:16.001Z</time></trkpt><trkpt lat="39.46514915460206" lon="9.326906053396334"><ele>638.0</ele><time>2026-04-09T13:07:17.001Z</time></trkpt><trkpt lat="39.465082059817725" lon="9.32693531696988"><ele>637.3333333333334</ele><time>2026-04-09T13:07:18.001Z</time></trkpt><trkpt lat="39.46497900614204" lon="9.326984832983491"><ele>636.6666666666666</ele><time>2026-04-09T13:07:20.001Z</time></trkpt><trkpt lat="39.46491203907856" lon="9.327023282382711"><ele>636.0</ele><time>2026-04-09T13:07:23.001Z</time></trkpt><trkpt lat="39.464826697360905" lon="9.326906651800119"><ele>636.0</ele><time>2026-04-09T13:07:26.001Z</time></trkpt><trkpt lat="39.46477086968246" lon="9.326829513173646"><ele>636.0</ele><time>2026-04-09T13:07:27.001Z</time></trkpt><trkpt lat="39.46472613402983" lon="9.326725708897632"><ele>636.0</ele><time>2026-04-09T13:07:28.001Z</time></trkpt><trkpt lat="39.4646730689828" lon="9.326622352151215"><ele>636.0</ele><time>2026-04-09T13:07:29.001Z</time></trkpt><trkpt lat="39.4646057605277" lon="9.326513049981507"><ele>636.0</ele><time>2026-04-09T13:07:30.001Z</time></trkpt><trkpt lat="39.46453077580239" lon="9.32639479074318"><ele>637.25</ele><time>2026-04-09T13:07:31.001Z</time></trkpt><trkpt lat="39.46444898519168" lon="9.326283790310644"><ele>638.5</ele><time>2026-04-09T13:07:32.001Z</time></trkpt><trkpt lat="39.464357476632934" lon="9.326158266889069"><ele>639.75</ele><time>2026-04-09T13:07:33.001Z</time></trkpt><trkpt lat="39.46425708197496" lon="9.326025224507356"><ele>641.0</ele><time>2026-04-09T13:07:34.001Z</time></trkpt><trkpt lat="39.46414389609138" lon="9.325883262145968"><ele>641.0</ele><time>2026-04-09T13:07:35.001Z</time></trkpt><trkpt lat="39.46402626848534" lon="9.325744508165856"><ele>641.0</ele><time>2026-04-09T13:07:36.001Z</time></trkpt><trkpt lat="39.46390181230529" lon="9.325609957408217"><ele>641.0</ele><time>2026-04-09T13:07:37.001Z</time></trkpt><trkpt lat="39.463764542406594" lon="9.325474790736825"><ele>641.0</ele><time>2026-04-09T13:07:38.001Z</time></trkpt><trkpt lat="39.46361543801242" lon="9.325343069123555"><ele>641.0</ele><time>2026-04-09T13:07:39.001Z</time></trkpt><trkpt lat="39.46345586066898" lon="9.32521620379447"><ele>641.0</ele><time>2026-04-09T13:07:39.999Z</time></trkpt><trkpt lat="39.4632907955604" lon="9.32508863171686"><ele>641.0</ele><time>2026-04-09T13:07:40.999Z</time></trkpt><trkpt lat="39.46311359114012" lon="9.324948310195051"><ele>641.0</ele><time>2026-04-09T13:07:41.999Z</time></trkpt><trkpt lat="39.462930059728876" lon="9.324797153061445"><ele>641.0</ele><time>2026-04-09T13:07:42.999Z</time></trkpt><trkpt lat="39.46274031486958" lon="9.324646118184658"><ele>642.5</ele><time>2026-04-09T13:07:43.999Z</time></trkpt><trkpt lat="39.46255036090366" lon="9.324496186067565"><ele>644.0</ele><time>2026-04-09T13:07:44.999Z</time></trkpt><trkpt lat="39.462352372999774" lon="9.324312828092745"><ele>644.0</ele><time>2026-04-09T13:07:45.999Z</time></trkpt><trkpt lat="39.46213758962122" lon="9.324164809891249"><ele>644.0</ele><time>2026-04-09T13:07:46.999Z</time></trkpt><trkpt lat="39.461948858057795" lon="9.324007548233558"><ele>645.6666666666666</ele><time>2026-04-09T13:07:47.999Z</time></trkpt><trkpt lat="39.46176477064615" lon="9.323855489800941"><ele>647.3333333333334</ele><time>2026-04-09T13:07:48.999Z</time></trkpt><trkpt lat="39.46158664189056" lon="9.3237125478529"><ele>649.0</ele><time>2026-04-09T13:07:49.999Z</time></trkpt><trkpt lat="39.46139988818802" lon="9.323562406909042"><ele>651.5</ele><time>2026-04-09T13:07:50.999Z</time></trkpt><trkpt lat="39.46120650266491" lon="9.3234063452477"><ele>654.0</ele><time>2026-04-09T13:07:51.999Z</time></trkpt><trkpt lat="39.46100014157328" lon="9.323238256005142"><ele>654.0</ele><time>2026-04-09T13:07:52.999Z</time></trkpt><trkpt lat="39.46079945420805" lon="9.323075671070566"><ele>654.0</ele><time>2026-04-09T13:07:53.999Z</time></trkpt><trkpt lat="39.460604316744494" lon="9.322923056915307"><ele>655.0</ele><time>2026-04-09T13:07:54.999Z</time></trkpt><trkpt lat="39.460412295032405" lon="9.322773818539378"><ele>656.0</ele><time>2026-04-09T13:07:55.999Z</time></trkpt><trkpt lat="39.4602341189656" lon="9.322636247965752"><ele>657.0</ele><time>2026-04-09T13:07:56.999Z</time></trkpt><trkpt lat="39.46007578663338" lon="9.322505434815218"><ele>657.0</ele><time>2026-04-09T13:07:57.999Z</time></trkpt><trkpt lat="39.45992522732597" lon="9.322377970122872"><ele>657.0</ele><time>2026-04-09T13:07:58.999Z</time></trkpt><trkpt lat="39.45979137929583" lon="9.32226722970791"><ele>657.0</ele><time>2026-04-09T13:07:59.999Z</time></trkpt><trkpt lat="39.45966646483164" lon="9.322163444382776"><ele>657.2</ele><time>2026-04-09T13:08:01Z</time></trkpt><trkpt lat="39.459560618190565" lon="9.322077272684789"><ele>657.4000000000001</ele><time>2026-04-09T13:08:02Z</time></trkpt><trkpt lat="39.45946443497253" lon="9.322003766814937"><ele>657.5999999999999</ele><time>2026-04-09T13:08:03Z</time></trkpt><trkpt lat="39.45937189766849" lon="9.32193506060701"><ele>657.8</ele><time>2026-04-09T13:08:04Z</time></trkpt><trkpt lat="39.45929310758649" lon="9.321871259417502"><ele>658.0</ele><time>2026-04-09T13:08:05Z</time></trkpt><trkpt lat="39.459219536294135" lon="9.32180843147646"><ele>658.0</ele><time>2026-04-09T13:08:06Z</time></trkpt><trkpt lat="39.45914936392974" lon="9.321747674920367"><ele>658.0</ele><time>2026-04-09T13:08:07Z</time></trkpt><trkpt lat="39.459076878230086" lon="9.321682031189107"><ele>658.0</ele><time>2026-04-09T13:08:08Z</time></trkpt><trkpt lat="39.45899949441717" lon="9.32161615987533"><ele>658.0</ele><time>2026-04-09T13:08:09Z</time></trkpt><trkpt lat="39.45891911490488" lon="9.321553428721925"><ele>658.0</ele><time>2026-04-09T13:08:10Z</time></trkpt><trkpt lat="39.458834069364336" lon="9.321486653820056"><ele>658.0</ele><time>2026-04-09T13:08:11Z</time></trkpt><trkpt lat="39.45874901645654" lon="9.32141917237497"><ele>658.0</ele><time>2026-04-09T13:08:12Z</time></trkpt><trkpt lat="39.45865832343281" lon="9.321347199851786"><ele>658.0</ele><time>2026-04-09T13:08:13Z</time></trkpt><trkpt lat="39.45856416809058" lon="9.321267028458548"><ele>658.0</ele><time>2026-04-09T13:08:14Z</time></trkpt><trkpt lat="39.45846431385744" lon="9.321185800757883"><ele>658.0</ele><time>2026-04-09T13:08:15Z</time></trkpt><trkpt lat="39.45835798548691" lon="9.321099898629171"><ele>658.0</ele><time>2026-04-09T13:08:16Z</time></trkpt><trkpt lat="39.45824411863485" lon="9.321008972934532"><ele>658.0</ele><time>2026-04-09T13:08:17Z</time></trkpt><trkpt lat="39.45812492558616" lon="9.320913827688791"><ele>658.0</ele><time>2026-04-09T13:08:18Z</time></trkpt><trkpt lat="39.45800253577499" lon="9.320815693203096"><ele>658.0</ele><time>2026-04-09T13:08:19Z</time></trkpt><trkpt lat="39.457881574794506" lon="9.320719714438154"><ele>657.25</ele><time>2026-04-09T13:08:20Z</time></trkpt><trkpt lat="39.45775706938397" lon="9.320619418634111"><ele>656.5</ele><time>2026-04-09T13:08:21Z</time></trkpt><trkpt lat="39.45762796093049" lon="9.320517308758832"><ele>655.75</ele><time>2026-04-09T13:08:22Z</time></trkpt><trkpt lat="39.45750179870661" lon="9.320420470605908"><ele>655.0</ele><time>2026-04-09T13:08:23Z</time></trkpt><trkpt lat="39.4573788944991" lon="9.320325518287099"><ele>655.0</ele><time>2026-04-09T13:08:24Z</time></trkpt><trkpt lat="39.45726235423491" lon="9.320206068519981"><ele>655.0</ele><time>2026-04-09T13:08:25Z</time></trkpt><trkpt lat="39.45712658059964" lon="9.320117929070953"><ele>655.0</ele><time>2026-04-09T13:08:26Z</time></trkpt><trkpt lat="39.45699549871635" lon="9.320022438858055"><ele>657.0</ele><time>2026-04-09T13:08:27Z</time></trkpt><trkpt lat="39.45685870329689" lon="9.319933026124605"><ele>659.0</ele><time>2026-04-09T13:08:28Z</time></trkpt><trkpt lat="39.456711101514834" lon="9.319848759159047"><ele>661.0</ele><time>2026-04-09T13:08:29Z</time></trkpt><trkpt lat="39.456552771435845" lon="9.31977274770647"><ele>662.3333333333334</ele><time>2026-04-09T13:08:30Z</time></trkpt><trkpt lat="39.45638323048452" lon="9.319704083186101"><ele>663.6666666666666</ele><time>2026-04-09T13:08:31Z</time></trkpt><trkpt lat="39.45619977529377" lon="9.319646608294564"><ele>665.0</ele><time>2026-04-09T13:08:32Z</time></trkpt><trkpt lat="39.4560185399627" lon="9.31960652153681"><ele>665.0</ele><time>2026-04-09T13:08:33Z</time></trkpt><trkpt lat="39.45582431411186" lon="9.319575158632402"><ele>665.0</ele><time>2026-04-09T13:08:34Z</time></trkpt><trkpt lat="39.455629333907254" lon="9.31955089014299"><ele>665.0</ele><time>2026-04-09T13:08:35Z</time></trkpt><trkpt lat="39.45543101028725" lon="9.319543347871058"><ele>664.3333333333333</ele><time>2026-04-09T13:08:36Z</time></trkpt><trkpt lat="39.45522751964773" lon="9.319558189296371"><ele>663.6666666666666</ele><time>2026-04-09T13:08:37Z</time></trkpt><trkpt lat="39.45502412446106" lon="9.319584677061275"><ele>663.0</ele><time>2026-04-09T13:08:38Z</time></trkpt><trkpt lat="39.45482551814785" lon="9.319596417176573"><ele>663.0</ele><time>2026-04-09T13:08:39Z</time></trkpt><trkpt lat="39.45463002994253" lon="9.31960634999818"><ele>663.0</ele><time>2026-04-09T13:08:40Z</time></trkpt><trkpt lat="39.45443566495219" lon="9.319618108369655"><ele>663.0</ele><time>2026-04-09T13:08:41Z</time></trkpt><trkpt lat="39.454236434723754" lon="9.319631476184007"><ele>664.3333333333334</ele><time>2026-04-09T13:08:42Z</time></trkpt><trkpt lat="39.454040064665854" lon="9.319644111083425"><ele>665.6666666666667</ele><time>2026-04-09T13:08:43Z</time></trkpt><trkpt lat="39.45384470474637" lon="9.319658799308637"><ele>667.0</ele><time>2026-04-09T13:08:44Z</time></trkpt><trkpt lat="39.45364947230779" lon="9.31967343035833"><ele>668.3333333333334</ele><time>2026-04-09T13:08:45Z</time></trkpt><trkpt lat="39.45345491907194" lon="9.319689219481495"><ele>669.6666666666666</ele><time>2026-04-09T13:08:46Z</time></trkpt><trkpt lat="39.453263254891255" lon="9.319702119067811"><ele>671.0</ele><time>2026-04-09T13:08:47Z</time></trkpt><trkpt lat="39.45307395125081" lon="9.319713785644595"><ele>670.6666666666666</ele><time>2026-04-09T13:08:48Z</time></trkpt><trkpt lat="39.45289414887434" lon="9.319726496284824"><ele>670.3333333333334</ele><time>2026-04-09T13:08:49Z</time></trkpt><trkpt lat="39.45271572581474" lon="9.319738283144673"><ele>670.0</ele><time>2026-04-09T13:08:50Z</time></trkpt><trkpt lat="39.45253878407898" lon="9.319753572956692"><ele>670.0</ele><time>2026-04-09T13:08:51Z</time></trkpt><trkpt lat="39.452358154872144" lon="9.319767081515442"><ele>670.0</ele><time>2026-04-09T13:08:52Z</time></trkpt><trkpt lat="39.452190226284706" lon="9.3197762442376"><ele>670.0</ele><time>2026-04-09T13:08:53Z</time></trkpt><trkpt lat="39.4520397497583" lon="9.319785818177513"><ele>670.5</ele><time>2026-04-09T13:08:54Z</time></trkpt><trkpt lat="39.45190189016305" lon="9.31979897599919"><ele>671.0</ele><time>2026-04-09T13:08:55Z</time></trkpt><trkpt lat="39.45176099220053" lon="9.319811867824905"><ele>671.5</ele><time>2026-04-09T13:08:56Z</time></trkpt><trkpt lat="39.45162487007871" lon="9.319824974218664"><ele>672.0</ele><time>2026-04-09T13:08:57Z</time></trkpt><trkpt lat="39.45150565519817" lon="9.319836589036722"><ele>672.0</ele><time>2026-04-09T13:08:58Z</time></trkpt><trkpt lat="39.45140082448221" lon="9.319835531465568"><ele>672.0</ele><time>2026-04-09T13:08:59Z</time></trkpt><trkpt lat="39.451306151779605" lon="9.31984268714013"><ele>672.0</ele><time>2026-04-09T13:09:00Z</time></trkpt><trkpt lat="39.451215168612165" lon="9.319851326557632"><ele>672.0</ele><time>2026-04-09T13:09:01Z</time></trkpt><trkpt lat="39.45112651433164" lon="9.31985662145181"><ele>672.0</ele><time>2026-04-09T13:09:02Z</time></trkpt><trkpt lat="39.451033699255206" lon="9.319861621853336"><ele>672.6</ele><time>2026-04-09T13:09:03Z</time></trkpt><trkpt lat="39.450950889110466" lon="9.319865439063385"><ele>673.2</ele><time>2026-04-09T13:09:04Z</time></trkpt><trkpt lat="39.450878589710086" lon="9.319872838709522"><ele>673.8</ele><time>2026-04-09T13:09:05Z</time></trkpt><trkpt lat="39.45076539930962" lon="9.319863497059613"><ele>674.4</ele><time>2026-04-09T13:09:07Z</time></trkpt><trkpt lat="39.45071698587323" lon="9.320079907098751"><ele>675.0</ele><time>2026-04-09T13:09:10Z</time></trkpt><trkpt lat="39.45067344118689" lon="9.320191707039413"><ele>675.0</ele><time>2026-04-09T13:09:12Z</time></trkpt><trkpt lat="39.45063679862803" lon="9.320293686439252"><ele>675.0</ele><time>2026-04-09T13:09:14Z</time></trkpt><trkpt lat="39.4506040188703" lon="9.320377009559166"><ele>675.0</ele><time>2026-04-09T13:09:16Z</time></trkpt><trkpt lat="39.45057101384093" lon="9.3204470058604"><ele>675.0</ele><time>2026-04-09T13:09:18Z</time></trkpt><trkpt lat="39.45052432197105" lon="9.320512482427027"><ele>675.0</ele><time>2026-04-09T13:09:53.998Z</time></trkpt><trkpt lat="39.450490534993996" lon="9.320614930358184"><ele>675.0</ele><time>2026-04-09T13:09:55.999Z</time></trkpt><trkpt lat="39.450486718004875" lon="9.320699770751506"><ele>675.0</ele><time>2026-04-09T13:09:56.999Z</time></trkpt><trkpt lat="39.45048001384635" lon="9.320809835958539"><ele>674.5</ele><time>2026-04-09T13:09:57.999Z</time></trkpt><trkpt lat="39.45050544050989" lon="9.320936370485144"><ele>674.0</ele><time>2026-04-09T13:09:58.999Z</time></trkpt><trkpt lat="39.45053883795422" lon="9.321104667427065"><ele>673.5</ele><time>2026-04-09T13:09:59.999Z</time></trkpt><trkpt lat="39.45058818764936" lon="9.321314369355095"><ele>673.0</ele><time>2026-04-09T13:10:00.999Z</time></trkpt><trkpt lat="39.450647545748694" lon="9.321497074740593"><ele>672.75</ele><time>2026-04-09T13:10:01.999Z</time></trkpt><trkpt lat="39.45068382374822" lon="9.32167996552072"><ele>672.5</ele><time>2026-04-09T13:10:02.999Z</time></trkpt><trkpt lat="39.450725440004014" lon="9.32184558611329"><ele>672.25</ele><time>2026-04-09T13:10:03.999Z</time></trkpt><trkpt lat="39.450761122917505" lon="9.321998128977373"><ele>672.0</ele><time>2026-04-09T13:10:04.999Z</time></trkpt><trkpt lat="39.45079253094898" lon="9.322139526337045"><ele>672.0</ele><time>2026-04-09T13:10:05.999Z</time></trkpt><trkpt lat="39.45082812715635" lon="9.32228672221059"><ele>672.0</ele><time>2026-04-09T13:10:06.999Z</time></trkpt><trkpt lat="39.450868604341515" lon="9.32244747356536"><ele>672.0</ele><time>2026-04-09T13:10:07.999Z</time></trkpt><trkpt lat="39.450909709118264" lon="9.32260924032937"><ele>672.0</ele><time>2026-04-09T13:10:08.999Z</time></trkpt><trkpt lat="39.45095543715963" lon="9.322768969217961"><ele>672.0</ele><time>2026-04-09T13:10:09.999Z</time></trkpt><trkpt lat="39.45101332486275" lon="9.32293718365604"><ele>672.0</ele><time>2026-04-09T13:10:10.999Z</time></trkpt><trkpt lat="39.45107165819265" lon="9.323096601025881"><ele>672.0</ele><time>2026-04-09T13:10:11.999Z</time></trkpt><trkpt lat="39.45112520616822" lon="9.323245636612855"><ele>672.0</ele><time>2026-04-09T13:10:12.999Z</time></trkpt><trkpt lat="39.4511748317954" lon="9.323409971636336"><ele>672.3333333333334</ele><time>2026-04-09T13:10:13.999Z</time></trkpt><trkpt lat="39.4512376213098" lon="9.32359794355409"><ele>672.6666666666667</ele><time>2026-04-09T13:10:14.999Z</time></trkpt><trkpt lat="39.451303882809576" lon="9.323793856531983"><ele>673.0</ele><time>2026-04-09T13:10:15.999Z</time></trkpt><trkpt lat="39.45137572547157" lon="9.324002408020508"><ele>672.0</ele><time>2026-04-09T13:10:16.999Z</time></trkpt><trkpt lat="39.451455085884774" lon="9.324215192190039"><ele>671.0</ele><time>2026-04-09T13:10:17.999Z</time></trkpt><trkpt lat="39.45153446973041" lon="9.324413812903526"><ele>670.0</ele><time>2026-04-09T13:10:18.999Z</time></trkpt><trkpt lat="39.451603031257896" lon="9.324581208953523"><ele>669.5</ele><time>2026-04-09T13:10:20Z</time></trkpt><trkpt lat="39.451650197772224" lon="9.324736797175584"><ele>669.0</ele><time>2026-04-09T13:10:21Z</time></trkpt><trkpt lat="39.45168182634861" lon="9.32490190590411"><ele>668.5</ele><time>2026-04-09T13:10:22Z</time></trkpt><trkpt lat="39.45166863870202" lon="9.325088534244465"><ele>668.0</ele><time>2026-04-09T13:10:23Z</time></trkpt><trkpt lat="39.451660776217764" lon="9.325289794454143"><ele>668.0</ele><time>2026-04-09T13:10:24Z</time></trkpt><trkpt lat="39.45165383979204" lon="9.32550460010529"><ele>668.0</ele><time>2026-04-09T13:10:25Z</time></trkpt><trkpt lat="39.451667034109455" lon="9.325707388788983"><ele>668.0</ele><time>2026-04-09T13:10:26Z</time></trkpt><trkpt lat="39.45167074112368" lon="9.325903237751286"><ele>667.0</ele><time>2026-04-09T13:10:27Z</time></trkpt><trkpt lat="39.45169555081889" lon="9.32611932406514"><ele>666.0</ele><time>2026-04-09T13:10:28Z</time></trkpt><trkpt lat="39.45173350415816" lon="9.326354263897151"><ele>665.0</ele><time>2026-04-09T13:10:29Z</time></trkpt><trkpt lat="39.451769193036164" lon="9.326588519166782"><ele>663.6666666666666</ele><time>2026-04-09T13:10:30Z</time></trkpt><trkpt lat="39.451798506657816" lon="9.32682886922811"><ele>662.3333333333334</ele><time>2026-04-09T13:10:31Z</time></trkpt><trkpt lat="39.451826599103825" lon="9.3270684730058"><ele>661.0</ele><time>2026-04-09T13:10:32Z</time></trkpt><trkpt lat="39.45185606572552" lon="9.32730681299515"><ele>660.0</ele><time>2026-04-09T13:10:33Z</time></trkpt><trkpt lat="39.45188300270819" lon="9.327528170626188"><ele>659.0</ele><time>2026-04-09T13:10:34Z</time></trkpt><trkpt lat="39.45190465441082" lon="9.327742638618798"><ele>658.0</ele><time>2026-04-09T13:10:35Z</time></trkpt><trkpt lat="39.45191338201628" lon="9.32796365481036"><ele>656.6666666666667</ele><time>2026-04-09T13:10:36Z</time></trkpt><trkpt lat="39.45190450623067" lon="9.328192431018884"><ele>655.3333333333334</ele><time>2026-04-09T13:10:37Z</time></trkpt><trkpt lat="39.45188909061536" lon="9.328420482423155"><ele>654.0</ele><time>2026-04-09T13:10:38Z</time></trkpt><trkpt lat="39.45187165130873" lon="9.328648558629697"><ele>654.0</ele><time>2026-04-09T13:10:39Z</time></trkpt><trkpt lat="39.451852436576964" lon="9.328882321184398"><ele>654.0</ele><time>2026-04-09T13:10:40Z</time></trkpt><trkpt lat="39.45179766504069" lon="9.3291065391556"><ele>654.0</ele><time>2026-04-09T13:10:41Z</time></trkpt><trkpt lat="39.4517325054684" lon="9.329322059072181"><ele>654.3333333333334</ele><time>2026-04-09T13:10:42Z</time></trkpt><trkpt lat="39.4516676814875" lon="9.32954461232112"><ele>654.6666666666667</ele><time>2026-04-09T13:10:43Z</time></trkpt><trkpt lat="39.45161331435013" lon="9.32977413770387"><ele>655.0</ele><time>2026-04-09T13:10:44Z</time></trkpt><trkpt lat="39.451546925869124" lon="9.330003075339848"><ele>655.6666666666667</ele><time>2026-04-09T13:10:45Z</time></trkpt><trkpt lat="39.45148417405864" lon="9.330241426601185"><ele>656.3333333333334</ele><time>2026-04-09T13:10:46Z</time></trkpt><trkpt lat="39.451424979066594" lon="9.330475309236045"><ele>657.0</ele><time>2026-04-09T13:10:47Z</time></trkpt><trkpt lat="39.45137039771534" lon="9.330694932457018"><ele>657.3333333333334</ele><time>2026-04-09T13:10:48Z</time></trkpt><trkpt lat="39.451318262653636" lon="9.330896705307582"><ele>657.6666666666667</ele><time>2026-04-09T13:10:49Z</time></trkpt><trkpt lat="39.45127002575156" lon="9.331083572986518"><ele>658.0</ele><time>2026-04-09T13:10:50Z</time></trkpt><trkpt lat="39.451225370039865" lon="9.331249520255707"><ele>656.75</ele><time>2026-04-09T13:10:51Z</time></trkpt><trkpt lat="39.45118544928054" lon="9.331401356445916"><ele>655.5</ele><time>2026-04-09T13:10:52Z</time></trkpt><trkpt lat="39.45114608189424" lon="9.331542989162049"><ele>654.25</ele><time>2026-04-09T13:10:53Z</time></trkpt><trkpt lat="39.45110685947383" lon="9.33167721350028"><ele>653.0</ele><time>2026-04-09T13:10:54Z</time></trkpt><trkpt lat="39.45103739100326" lon="9.331801128125868"><ele>653.0</ele><time>2026-04-09T13:10:55Z</time></trkpt><trkpt lat="39.45096815938645" lon="9.331931088408092"><ele>653.0</ele><time>2026-04-09T13:10:56Z</time></trkpt><trkpt lat="39.45090096123249" lon="9.332059773999145"><ele>653.0</ele><time>2026-04-09T13:10:57Z</time></trkpt><trkpt lat="39.45083723577393" lon="9.332173577962552"><ele>653.0</ele><time>2026-04-09T13:10:58Z</time></trkpt><trkpt lat="39.45077283639173" lon="9.332286951305854"><ele>653.5</ele><time>2026-04-09T13:10:59Z</time></trkpt><trkpt lat="39.45069717633849" lon="9.332416437540633"><ele>654.0</ele><time>2026-04-09T13:11:00Z</time></trkpt><trkpt lat="39.4506156574725" lon="9.332554842476736"><ele>654.5</ele><time>2026-04-09T13:11:01Z</time></trkpt><trkpt lat="39.45052471436794" lon="9.33269024059287"><ele>655.0</ele><time>2026-04-09T13:11:02Z</time></trkpt><trkpt lat="39.45043396299805" lon="9.332808000178945"><ele>653.75</ele><time>2026-04-09T13:11:03Z</time></trkpt><trkpt lat="39.45033668612883" lon="9.332890484761364"><ele>652.5</ele><time>2026-04-09T13:11:04Z</time></trkpt><trkpt lat="39.45021738202667" lon="9.33290859114341"><ele>651.25</ele><time>2026-04-09T13:11:05Z</time></trkpt><trkpt lat="39.45006931795459" lon="9.332945179713073"><ele>650.0</ele><time>2026-04-09T13:11:06Z</time></trkpt><trkpt lat="39.44990726429812" lon="9.332985955636605"><ele>650.0</ele><time>2026-04-09T13:11:07Z</time></trkpt><trkpt lat="39.44973542642291" lon="9.333021007372109"><ele>650.0</ele><time>2026-04-09T13:11:08Z</time></trkpt><trkpt lat="39.44956603936476" lon="9.33304725725272"><ele>650.0</ele><time>2026-04-09T13:11:09Z</time></trkpt><trkpt lat="39.44941087857259" lon="9.333060909660682"><ele>649.5</ele><time>2026-04-09T13:11:10Z</time></trkpt><trkpt lat="39.44927515857712" lon="9.333055416609858"><ele>649.0</ele><time>2026-04-09T13:11:11Z</time></trkpt><trkpt lat="39.449149092425344" lon="9.333039613002484"><ele>648.5</ele><time>2026-04-09T13:11:12Z</time></trkpt><trkpt lat="39.44902690612257" lon="9.333044682020512"><ele>648.0</ele><time>2026-04-09T13:11:13Z</time></trkpt><trkpt lat="39.44889995240518" lon="9.333022736357053"><ele>648.75</ele><time>2026-04-09T13:11:14Z</time></trkpt><trkpt lat="39.44876506396909" lon="9.333001074484667"><ele>649.5</ele><time>2026-04-09T13:11:15Z</time></trkpt><trkpt lat="39.44864342791135" lon="9.33298240660222"><ele>650.25</ele><time>2026-04-09T13:11:16Z</time></trkpt><trkpt lat="39.44852923055701" lon="9.332934139995967"><ele>651.0</ele><time>2026-04-09T13:11:17Z</time></trkpt><trkpt lat="39.44841379555156" lon="9.332890843154601"><ele>651.0</ele><time>2026-04-09T13:11:18Z</time></trkpt><trkpt lat="39.448302594427815" lon="9.33283301097734"><ele>651.0</ele><time>2026-04-09T13:11:19Z</time></trkpt><trkpt lat="39.4481869567643" lon="9.332780602424961"><ele>651.0</ele><time>2026-04-09T13:11:20.001Z</time></trkpt><trkpt lat="39.44805304376844" lon="9.332766092614914"><ele>651.0</ele><time>2026-04-09T13:11:21.001Z</time></trkpt><trkpt lat="39.44791202428244" lon="9.332747247461464"><ele>652.25</ele><time>2026-04-09T13:11:22.001Z</time></trkpt><trkpt lat="39.44775996364487" lon="9.332731433755352"><ele>653.5</ele><time>2026-04-09T13:11:23.001Z</time></trkpt><trkpt lat="39.44760977155846" lon="9.332717413514796"><ele>654.75</ele><time>2026-04-09T13:11:24.001Z</time></trkpt><trkpt lat="39.44746826629128" lon="9.332689212978536"><ele>656.0</ele><time>2026-04-09T13:11:25.001Z</time></trkpt><trkpt lat="39.447335423409115" lon="9.332658643221338"><ele>656.0</ele><time>2026-04-09T13:11:26.001Z</time></trkpt><trkpt lat="39.447214502878104" lon="9.332632517723205"><ele>656.0</ele><time>2026-04-09T13:11:27.001Z</time></trkpt><trkpt lat="39.44710377568177" lon="9.332610049703096"><ele>656.0</ele><time>2026-04-09T13:11:28.001Z</time></trkpt><trkpt lat="39.446998615864246" lon="9.332591149386843"><ele>656.0</ele><time>2026-04-09T13:11:29.001Z</time></trkpt><trkpt lat="39.4468925043362" lon="9.332573558572468"><ele>656.0</ele><time>2026-04-09T13:11:30.001Z</time></trkpt><trkpt lat="39.44678101047452" lon="9.332556954745346"><ele>655.75</ele><time>2026-04-09T13:11:31.001Z</time></trkpt><trkpt lat="39.44666373839321" lon="9.332534678315037"><ele>655.5</ele><time>2026-04-09T13:11:32.001Z</time></trkpt><trkpt lat="39.44654396204946" lon="9.332508426978265"><ele>655.25</ele><time>2026-04-09T13:11:33.001Z</time></trkpt><trkpt lat="39.44641797292386" lon="9.332491241546629"><ele>655.0</ele><time>2026-04-09T13:11:34.001Z</time></trkpt><trkpt lat="39.44629569677136" lon="9.332466698524524"><ele>654.75</ele><time>2026-04-09T13:11:35.001Z</time></trkpt><trkpt lat="39.44616569470784" lon="9.332437446461416"><ele>654.5</ele><time>2026-04-09T13:11:36.001Z</time></trkpt><trkpt lat="39.44602886007618" lon="9.33239939484738"><ele>654.25</ele><time>2026-04-09T13:11:37.001Z</time></trkpt><trkpt lat="39.44588329894433" lon="9.332354724888933"><ele>654.0</ele><time>2026-04-09T13:11:38.001Z</time></trkpt><trkpt lat="39.445732978990456" lon="9.332302795350536"><ele>654.0</ele><time>2026-04-09T13:11:39.001Z</time></trkpt><trkpt lat="39.44558904423076" lon="9.332247870268843"><ele>654.0</ele><time>2026-04-09T13:11:40.001Z</time></trkpt><trkpt lat="39.44546121659873" lon="9.332191632926142"><ele>654.0</ele><time>2026-04-09T13:11:41.001Z</time></trkpt><trkpt lat="39.4453328425853" lon="9.33213541129145"><ele>654.0</ele><time>2026-04-09T13:11:42.001Z</time></trkpt><trkpt lat="39.445205797561215" lon="9.33205864353809"><ele>653.25</ele><time>2026-04-09T13:11:43.001Z</time></trkpt><trkpt lat="39.44509406969113" lon="9.331939176139235"><ele>652.5</ele><time>2026-04-09T13:11:44.001Z</time></trkpt><trkpt lat="39.44498564366731" lon="9.331818548290755"><ele>651.75</ele><time>2026-04-09T13:11:45.001Z</time></trkpt><trkpt lat="39.44488784605794" lon="9.33168552620686"><ele>651.0</ele><time>2026-04-09T13:11:46.001Z</time></trkpt><trkpt lat="39.4447869423046" lon="9.331552713872265"><ele>651.0</ele><time>2026-04-09T13:11:47.001Z</time></trkpt><trkpt lat="39.44468124665976" lon="9.331443073561225"><ele>651.0</ele><time>2026-04-09T13:11:48.001Z</time></trkpt><trkpt lat="39.44459451931192" lon="9.331321132953143"><ele>651.0</ele><time>2026-04-09T13:11:49.001Z</time></trkpt><trkpt lat="39.4445122590386" lon="9.331216636036034"><ele>651.0</ele><time>2026-04-09T13:11:50.001Z</time></trkpt><trkpt lat="39.444438635325454" lon="9.331133957924711"><ele>649.3333333333334</ele><time>2026-04-09T13:11:51.001Z</time></trkpt><trkpt lat="39.44437190537755" lon="9.331070520723696"><ele>647.6666666666666</ele><time>2026-04-09T13:11:51.999Z</time></trkpt><trkpt lat="39.44429906551706" lon="9.331031988790219"><ele>646.0</ele><time>2026-04-09T13:11:52.999Z</time></trkpt><trkpt lat="39.44423308499625" lon="9.331011464508991"><ele>644.3333333333333</ele><time>2026-04-09T13:11:53.999Z</time></trkpt><trkpt lat="39.44415766651943" lon="9.331078384868064"><ele>642.6666666666666</ele><time>2026-04-09T13:11:54.999Z</time></trkpt><trkpt lat="39.444112242814064" lon="9.33122433387563"><ele>641.0</ele><time>2026-04-09T13:11:55.999Z</time></trkpt><trkpt lat="39.44403890298483" lon="9.331368552368195"><ele>641.75</ele><time>2026-04-09T13:11:56.999Z</time></trkpt><trkpt lat="39.44397578542369" lon="9.331508353469642"><ele>642.5</ele><time>2026-04-09T13:11:57.999Z</time></trkpt><trkpt lat="39.44391379556491" lon="9.331646918751279"><ele>643.25</ele><time>2026-04-09T13:11:58.999Z</time></trkpt><trkpt lat="39.44386469040354" lon="9.33177433878591"><ele>644.0</ele><time>2026-04-09T13:11:59.999Z</time></trkpt><trkpt lat="39.44380570759777" lon="9.331869595478977"><ele>641.8000000000001</ele><time>2026-04-09T13:12:00.999Z</time></trkpt><trkpt lat="39.44373146869494" lon="9.33193772838209"><ele>639.6</ele><time>2026-04-09T13:12:01.999Z</time></trkpt><trkpt lat="39.4436486350713" lon="9.33195051666696"><ele>637.4</ele><time>2026-04-09T13:12:02.999Z</time></trkpt><trkpt lat="39.44357618332077" lon="9.331889507405188"><ele>635.2</ele><time>2026-04-09T13:12:03.999Z</time></trkpt><trkpt lat="39.44349189037052" lon="9.331808891704252"><ele>633.0</ele><time>2026-04-09T13:12:04.999Z</time></trkpt><trkpt lat="39.44343836463956" lon="9.33169818024609"><ele>633.0</ele><time>2026-04-09T13:12:05.999Z</time></trkpt><trkpt lat="39.44338582489666" lon="9.331596431459891"><ele>633.0</ele><time>2026-04-09T13:12:06.999Z</time></trkpt><trkpt lat="39.44337532111797" lon="9.331480579098596"><ele>633.0</ele><time>2026-04-09T13:12:07.999Z</time></trkpt><trkpt lat="39.44342848487693" lon="9.33138526138145"><ele>633.0</ele><time>2026-04-09T13:12:08.999Z</time></trkpt><trkpt lat="39.4434409127134" lon="9.3312958415815"><ele>633.0</ele><time>2026-04-09T13:12:09.999Z</time></trkpt><trkpt lat="39.443424419211134" lon="9.331208480176398"><ele>633.0</ele><time>2026-04-09T13:12:10.999Z</time></trkpt><trkpt lat="39.4433624514089" lon="9.331134583995818"><ele>631.5</ele><time>2026-04-09T13:12:11.999Z</time></trkpt><trkpt lat="39.44324158283381" lon="9.331176270825438"><ele>630.0</ele><time>2026-04-09T13:12:12.999Z</time></trkpt><trkpt lat="39.44313715183004" lon="9.331191901161533"><ele>628.5</ele><time>2026-04-09T13:12:13.999Z</time></trkpt><trkpt lat="39.443023738461974" lon="9.331186614326553"><ele>627.0</ele><time>2026-04-09T13:12:14.999Z</time></trkpt><trkpt lat="39.44291113114719" lon="9.3312025026804"><ele>626.0</ele><time>2026-04-09T13:12:15.999Z</time></trkpt><trkpt lat="39.442789389918964" lon="9.331256605040041"><ele>625.0</ele><time>2026-04-09T13:12:16.999Z</time></trkpt><trkpt lat="39.44268978499013" lon="9.331335407143463"><ele>624.0</ele><time>2026-04-09T13:12:17.999Z</time></trkpt><trkpt lat="39.44260212164222" lon="9.331435665156304"><ele>623.0</ele><time>2026-04-09T13:12:19Z</time></trkpt><trkpt lat="39.44255323261676" lon="9.331574966090367"><ele>623.0</ele><time>2026-04-09T13:12:20Z</time></trkpt><trkpt lat="39.442500178818186" lon="9.33170487676205"><ele>623.0</ele><time>2026-04-09T13:12:21Z</time></trkpt><trkpt lat="39.44249346227298" lon="9.331846315732042"><ele>623.0</ele><time>2026-04-09T13:12:22Z</time></trkpt><trkpt lat="39.442469857851364" lon="9.331970165631986"><ele>623.0</ele><time>2026-04-09T13:12:23Z</time></trkpt><trkpt lat="39.442419954264665" lon="9.33206365888119"><ele>623.0</ele><time>2026-04-09T13:12:24Z</time></trkpt><trkpt lat="39.442342240828154" lon="9.332129565261535"><ele>623.0</ele><time>2026-04-09T13:12:25Z</time></trkpt><trkpt lat="39.44221925708511" lon="9.332129775939505"><ele>623.0</ele><time>2026-04-09T13:12:26Z</time></trkpt><trkpt lat="39.44208358442432" lon="9.33216828458786"><ele>623.0</ele><time>2026-04-09T13:12:27Z</time></trkpt><trkpt lat="39.441937543577524" lon="9.332209650376335"><ele>623.0</ele><time>2026-04-09T13:12:28Z</time></trkpt><trkpt lat="39.441795513594535" lon="9.332276256355346"><ele>620.0</ele><time>2026-04-09T13:12:29Z</time></trkpt><trkpt lat="39.44164641886397" lon="9.33231194535681"><ele>617.0</ele><time>2026-04-09T13:12:30Z</time></trkpt><trkpt lat="39.44148548943518" lon="9.332308017218828"><ele>614.0</ele><time>2026-04-09T13:12:31Z</time></trkpt><trkpt lat="39.44132050925401" lon="9.332305962618829"><ele>611.6666666666666</ele><time>2026-04-09T13:12:32Z</time></trkpt><trkpt lat="39.441151605437334" lon="9.332301762550376"><ele>609.3333333333334</ele><time>2026-04-09T13:12:33Z</time></trkpt><trkpt lat="39.44098096522243" lon="9.332302849959815"><ele>607.0</ele><time>2026-04-09T13:12:34Z</time></trkpt><trkpt lat="39.44081379012111" lon="9.332320633009298"><ele>607.0</ele><time>2026-04-09T13:12:35Z</time></trkpt><trkpt lat="39.44066036101118" lon="9.332294124910543"><ele>607.0</ele><time>2026-04-09T13:12:36Z</time></trkpt><trkpt lat="39.44051467944677" lon="9.33230781952341"><ele>607.0</ele><time>2026-04-09T13:12:37Z</time></trkpt><trkpt lat="39.44038992911483" lon="9.332300968542219"><ele>607.0</ele><time>2026-04-09T13:12:38Z</time></trkpt><trkpt lat="39.4402672496846" lon="9.33230357881291"><ele>605.75</ele><time>2026-04-09T13:12:39Z</time></trkpt><trkpt lat="39.44014791520363" lon="9.332312388007283"><ele>604.5</ele><time>2026-04-09T13:12:40Z</time></trkpt><trkpt lat="39.4400331112" lon="9.332362656376205"><ele>603.25</ele><time>2026-04-09T13:12:41Z</time></trkpt><trkpt lat="39.4399205260343" lon="9.332444878870534"><ele>602.0</ele><time>2026-04-09T13:12:42Z</time></trkpt><trkpt lat="39.43984173748798" lon="9.33255269651087"><ele>602.0</ele><time>2026-04-09T13:12:43Z</time></trkpt><trkpt lat="39.43980690439717" lon="9.332685577715385"><ele>602.0</ele><time>2026-04-09T13:12:44Z</time></trkpt><trkpt lat="39.439769285328715" lon="9.332804544507285"><ele>602.0</ele><time>2026-04-09T13:12:45Z</time></trkpt><trkpt lat="39.439712311619935" lon="9.332912494619363"><ele>602.0</ele><time>2026-04-09T13:12:46Z</time></trkpt><trkpt lat="39.439617829647965" lon="9.332972711669088"><ele>602.0</ele><time>2026-04-09T13:12:47Z</time></trkpt><trkpt lat="39.439506206749826" lon="9.333032303162053"><ele>601.0</ele><time>2026-04-09T13:12:48Z</time></trkpt><trkpt lat="39.43939215291517" lon="9.333027938226584"><ele>600.0</ele><time>2026-04-09T13:12:49Z</time></trkpt><trkpt lat="39.43929519719336" lon="9.333008070669793"><ele>599.0</ele><time>2026-04-09T13:12:50Z</time></trkpt><trkpt lat="39.439185182310965" lon="9.332947267273312"><ele>598.0</ele><time>2026-04-09T13:12:51Z</time></trkpt><trkpt lat="39.43907142576664" lon="9.332911268232378"><ele>597.0</ele><time>2026-04-09T13:12:52Z</time></trkpt><trkpt lat="39.43894236495205" lon="9.33292012435627"><ele>597.0</ele><time>2026-04-09T13:12:53Z</time></trkpt><trkpt lat="39.43881165149952" lon="9.33294398203084"><ele>597.0</ele><time>2026-04-09T13:12:54Z</time></trkpt><trkpt lat="39.43867768283421" lon="9.33297394241473"><ele>597.0</ele><time>2026-04-09T13:12:55Z</time></trkpt><trkpt lat="39.438539162730734" lon="9.333007950448835"><ele>597.0</ele><time>2026-04-09T13:12:56Z</time></trkpt><trkpt lat="39.43839739956773" lon="9.33304443626357"><ele>594.75</ele><time>2026-04-09T13:12:57Z</time></trkpt><trkpt lat="39.438253340447424" lon="9.333093421985106"><ele>592.5</ele><time>2026-04-09T13:12:58Z</time></trkpt><trkpt lat="39.43812076724557" lon="9.333159433480654"><ele>590.25</ele><time>2026-04-09T13:12:59Z</time></trkpt><trkpt lat="39.43799406157698" lon="9.333244072261529"><ele>588.0</ele><time>2026-04-09T13:13:00Z</time></trkpt><trkpt lat="39.43786626331807" lon="9.333334237273638"><ele>588.0</ele><time>2026-04-09T13:13:01Z</time></trkpt><trkpt lat="39.43773478376208" lon="9.333428518625361"><ele>588.0</ele><time>2026-04-09T13:13:02Z</time></trkpt><trkpt lat="39.43761218409292" lon="9.333523836363474"><ele>588.0</ele><time>2026-04-09T13:13:03Z</time></trkpt><trkpt lat="39.43749981071782" lon="9.333628707459173"><ele>588.0</ele><time>2026-04-09T13:13:04Z</time></trkpt><trkpt lat="39.437396185454446" lon="9.333733402495962"><ele>588.0</ele><time>2026-04-09T13:13:05Z</time></trkpt><trkpt lat="39.43731121600139" lon="9.333844916704368"><ele>588.0</ele><time>2026-04-09T13:13:06Z</time></trkpt><trkpt lat="39.43721901611401" lon="9.333927517866854"><ele>588.0</ele><time>2026-04-09T13:13:07Z</time></trkpt><trkpt lat="39.437125364014456" lon="9.333987429070424"><ele>588.0</ele><time>2026-04-09T13:13:08Z</time></trkpt><trkpt lat="39.43702987315134" lon="9.33401652598601"><ele>588.0</ele><time>2026-04-09T13:13:09.001Z</time></trkpt><trkpt lat="39.43694621266252" lon="9.333961068939248"><ele>585.8</ele><time>2026-04-09T13:13:10.001Z</time></trkpt><trkpt lat="39.43685343725053" lon="9.333912514551095"><ele>583.5999999999999</ele><time>2026-04-09T13:13:11.001Z</time></trkpt><trkpt lat="39.436745274531745" lon="9.333871150086352"><ele>581.4000000000001</ele><time>2026-04-09T13:13:12.001Z</time></trkpt><trkpt lat="39.436637230484436" lon="9.333801657282981"><ele>579.2</ele><time>2026-04-09T13:13:13.001Z</time></trkpt><trkpt lat="39.43653465682327" lon="9.333741752801528"><ele>577.0</ele><time>2026-04-09T13:13:14.001Z</time></trkpt><trkpt lat="39.436454501474095" lon="9.333650784917634"><ele>577.0</ele><time>2026-04-09T13:13:15.001Z</time></trkpt><trkpt lat="39.436392512591404" lon="9.333555449131497"><ele>577.0</ele><time>2026-04-09T13:13:16.001Z</time></trkpt><trkpt lat="39.43634482544478" lon="9.33345053420366"><ele>577.0</ele><time>2026-04-09T13:13:17.001Z</time></trkpt><trkpt lat="39.43630644044013" lon="9.333344365790675"><ele>577.0</ele><time>2026-04-09T13:13:18.001Z</time></trkpt><trkpt lat="39.43626031895452" lon="9.333244367341637"><ele>577.0</ele><time>2026-04-09T13:13:19.001Z</time></trkpt><trkpt lat="39.43623161615414" lon="9.333138111468047"><ele>572.6</ele><time>2026-04-09T13:13:20.001Z</time></trkpt><trkpt lat="39.436207952557154" lon="9.333025089736767"><ele>568.2</ele><time>2026-04-09T13:13:21.001Z</time></trkpt><trkpt lat="39.43618832479934" lon="9.332888901391696"><ele>563.8</ele><time>2026-04-09T13:13:22.001Z</time></trkpt><trkpt lat="39.43617806627336" lon="9.332756906348807"><ele>559.4</ele><time>2026-04-09T13:13:23.001Z</time></trkpt><trkpt lat="39.43617636818637" lon="9.33262968104501"><ele>555.0</ele><time>2026-04-09T13:13:24.001Z</time></trkpt><trkpt lat="39.43617768669202" lon="9.33250381521936"><ele>555.0</ele><time>2026-04-09T13:13:25.001Z</time></trkpt><trkpt lat="39.4361845744792" lon="9.332377438682906"><ele>555.0</ele><time>2026-04-09T13:13:26.001Z</time></trkpt><trkpt lat="39.43619487618041" lon="9.332263811303996"><ele>555.0</ele><time>2026-04-09T13:13:27.001Z</time></trkpt><trkpt lat="39.43618954808869" lon="9.332157959515396"><ele>555.0</ele><time>2026-04-09T13:13:28.001Z</time></trkpt><trkpt lat="39.43614666501891" lon="9.332079273204934"><ele>555.0</ele><time>2026-04-09T13:13:29.001Z</time></trkpt><trkpt lat="39.436076854618044" lon="9.332036758121358"><ele>555.0</ele><time>2026-04-09T13:13:30.001Z</time></trkpt><trkpt lat="39.43597878025948" lon="9.332023164066628"><ele>555.0</ele><time>2026-04-09T13:13:31.001Z</time></trkpt><trkpt lat="39.435861881593375" lon="9.332039333713642"><ele>555.0</ele><time>2026-04-09T13:13:32.001Z</time></trkpt><trkpt lat="39.4357413992039" lon="9.332088725415423"><ele>555.0</ele><time>2026-04-09T13:13:33.001Z</time></trkpt><trkpt lat="39.43561945927949" lon="9.332194065551954"><ele>555.0</ele><time>2026-04-09T13:13:34.001Z</time></trkpt><trkpt lat="39.43549525720444" lon="9.332335269146924"><ele>552.0</ele><time>2026-04-09T13:13:35.001Z</time></trkpt><trkpt lat="39.43537941889567" lon="9.33249035736962"><ele>549.0</ele><time>2026-04-09T13:13:36.001Z</time></trkpt><trkpt lat="39.43526932162492" lon="9.332673477644741"><ele>546.0</ele><time>2026-04-09T13:13:37.001Z</time></trkpt><trkpt lat="39.43515831169838" lon="9.332870214246816"><ele>546.6666666666666</ele><time>2026-04-09T13:13:38.001Z</time></trkpt><trkpt lat="39.435042733699234" lon="9.333071076854138"><ele>547.3333333333333</ele><time>2026-04-09T13:13:39.001Z</time></trkpt><trkpt lat="39.4349165912469" lon="9.333257507347762"><ele>548.0</ele><time>2026-04-09T13:13:40.001Z</time></trkpt><trkpt lat="39.43477915453033" lon="9.333429342055712"><ele>546.6666666666666</ele><time>2026-04-09T13:13:41.001Z</time></trkpt><trkpt lat="39.43462411547952" lon="9.333578207796286"><ele>545.3333333333334</ele><time>2026-04-09T13:13:42.001Z</time></trkpt><trkpt lat="39.43445411845884" lon="9.333714369113666"><ele>544.0</ele><time>2026-04-09T13:13:43.001Z</time></trkpt><trkpt lat="39.43427431716535" lon="9.333843349406251"><ele>543.6666666666667</ele><time>2026-04-09T13:13:44.001Z</time></trkpt><trkpt lat="39.43409322011171" lon="9.33397246128975"><ele>543.3333333333334</ele><time>2026-04-09T13:13:45.001Z</time></trkpt><trkpt lat="39.43393441975334" lon="9.334096188369806"><ele>543.0</ele><time>2026-04-09T13:13:46.001Z</time></trkpt><trkpt lat="39.433791348720014" lon="9.334211990647646"><ele>543.0</ele><time>2026-04-09T13:13:47.001Z</time></trkpt><trkpt lat="39.43366330227929" lon="9.334322438803364"><ele>543.0</ele><time>2026-04-09T13:13:48.001Z</time></trkpt><trkpt lat="39.433532652547456" lon="9.334442346629306"><ele>543.0</ele><time>2026-04-09T13:13:49.001Z</time></trkpt><trkpt lat="39.43340471827522" lon="9.334601575074952"><ele>543.6666666666666</ele><time>2026-04-09T13:13:50.001Z</time></trkpt><trkpt lat="39.433278656907454" lon="9.33478222510188"><ele>544.3333333333333</ele><time>2026-04-09T13:13:51.001Z</time></trkpt><trkpt lat="39.433156863104806" lon="9.334967829628173"><ele>545.0</ele><time>2026-04-09T13:13:52.001Z</time></trkpt><trkpt lat="39.433040005355664" lon="9.335138365435428"><ele>544.3333333333333</ele><time>2026-04-09T13:13:53.001Z</time></trkpt><trkpt lat="39.43292598106416" lon="9.335298248731224"><ele>543.6666666666666</ele><time>2026-04-09T13:13:54.001Z</time></trkpt><trkpt lat="39.43281557584538" lon="9.335442820079368"><ele>543.0</ele><time>2026-04-09T13:13:55.001Z</time></trkpt><trkpt lat="39.43270910754531" lon="9.335584145655123"><ele>543.0</ele><time>2026-04-09T13:13:56.001Z</time></trkpt><trkpt lat="39.43260578119205" lon="9.335725044772746"><ele>543.0</ele><time>2026-04-09T13:13:57.001Z</time></trkpt><trkpt lat="39.43250281105723" lon="9.335872240912723"><ele>543.0</ele><time>2026-04-09T13:13:57.999Z</time></trkpt><trkpt lat="39.43239392225895" lon="9.336023433731736"><ele>543.0</ele><time>2026-04-09T13:13:58.999Z</time></trkpt><trkpt lat="39.43227894839473" lon="9.336165216736559"><ele>543.0</ele><time>2026-04-09T13:13:59.999Z</time></trkpt><trkpt lat="39.432149516894796" lon="9.33628206960628"><ele>543.0</ele><time>2026-04-09T13:14:00.999Z</time></trkpt><trkpt lat="39.43200515178587" lon="9.336395600819435"><ele>543.6666666666666</ele><time>2026-04-09T13:14:01.999Z</time></trkpt><trkpt lat="39.431857780798836" lon="9.33650408338601"><ele>544.3333333333333</ele><time>2026-04-09T13:14:03Z</time></trkpt><trkpt lat="39.43171316951968" lon="9.336614896951199"><ele>545.0</ele><time>2026-04-09T13:14:04Z</time></trkpt><trkpt lat="39.431578544325234" lon="9.336723844052587"><ele>545.0</ele><time>2026-04-09T13:14:05Z</time></trkpt><trkpt lat="39.431451539164826" lon="9.336824502387628"><ele>545.0</ele><time>2026-04-09T13:14:06Z</time></trkpt><trkpt lat="39.43132120777743" lon="9.3369283208242"><ele>545.0</ele><time>2026-04-09T13:14:07Z</time></trkpt><trkpt lat="39.431184553020636" lon="9.337037861898958"><ele>543.6666666666666</ele><time>2026-04-09T13:14:08Z</time></trkpt><trkpt lat="39.43104119439579" lon="9.33714312878462"><ele>542.3333333333334</ele><time>2026-04-09T13:14:09Z</time></trkpt><trkpt lat="39.430893548330936" lon="9.337234603957672"><ele>541.0</ele><time>2026-04-09T13:14:10Z</time></trkpt><trkpt lat="39.43074494495707" lon="9.337309856322548"><ele>541.0</ele><time>2026-04-09T13:14:11Z</time></trkpt><trkpt lat="39.43060494187886" lon="9.337382610093979"><ele>541.0</ele><time>2026-04-09T13:14:12Z</time></trkpt><trkpt lat="39.430476546563106" lon="9.337473336709255"><ele>541.0</ele><time>2026-04-09T13:14:13Z</time></trkpt><trkpt lat="39.43035683233262" lon="9.337592117244496"><ele>541.0</ele><time>2026-04-09T13:14:14Z</time></trkpt><trkpt lat="39.4302417662009" lon="9.337727024035077"><ele>540.5</ele><time>2026-04-09T13:14:15Z</time></trkpt><trkpt lat="39.43012882014882" lon="9.337864427750032"><ele>540.0</ele><time>2026-04-09T13:14:16Z</time></trkpt><trkpt lat="39.43003417733459" lon="9.33799540185509"><ele>539.5</ele><time>2026-04-09T13:14:17Z</time></trkpt><trkpt lat="39.429963133921305" lon="9.338111989312102"><ele>539.0</ele><time>2026-04-09T13:14:18Z</time></trkpt><trkpt lat="39.42991005949275" lon="9.338202919094725"><ele>539.0</ele><time>2026-04-09T13:14:19Z</time></trkpt><trkpt lat="39.429856460225736" lon="9.33824834639146"><ele>539.0</ele><time>2026-04-09T13:14:20Z</time></trkpt><trkpt lat="39.42979074364298" lon="9.33825594792374"><ele>539.0</ele><time>2026-04-09T13:14:21Z</time></trkpt><trkpt lat="39.429721964385784" lon="9.33820113897073"><ele>539.0</ele><time>2026-04-09T13:14:22Z</time></trkpt><trkpt lat="39.42964574427707" lon="9.338081026500245"><ele>539.0</ele><time>2026-04-09T13:14:23Z</time></trkpt><trkpt lat="39.42957911975348" lon="9.337939236952662"><ele>540.3333333333333</ele><time>2026-04-09T13:14:24Z</time></trkpt><trkpt lat="39.42952170128203" lon="9.33782537495742"><ele>541.6666666666666</ele><time>2026-04-09T13:14:25Z</time></trkpt><trkpt lat="39.42944941758842" lon="9.337775532269813"><ele>543.0</ele><time>2026-04-09T13:14:26Z</time></trkpt><trkpt lat="39.42936935160777" lon="9.337777568860915"><ele>544.3333333333334</ele><time>2026-04-09T13:14:27Z</time></trkpt><trkpt lat="39.429302760555636" lon="9.337843175454491"><ele>545.6666666666667</ele><time>2026-04-09T13:14:28Z</time></trkpt><trkpt lat="39.4292555360848" lon="9.33794113063999"><ele>547.0</ele><time>2026-04-09T13:14:29Z</time></trkpt><trkpt lat="39.42923889368414" lon="9.33806625919833"><ele>547.0</ele><time>2026-04-09T13:14:30Z</time></trkpt><trkpt lat="39.429257704448" lon="9.338233959408658"><ele>547.0</ele><time>2026-04-09T13:14:31Z</time></trkpt><trkpt lat="39.429281143638974" lon="9.338398995159466"><ele>547.0</ele><time>2026-04-09T13:14:32Z</time></trkpt><trkpt lat="39.42927651127574" lon="9.338544173396679"><ele>547.0</ele><time>2026-04-09T13:14:33Z</time></trkpt><trkpt lat="39.4292520569763" lon="9.33864603818363"><ele>547.0</ele><time>2026-04-09T13:14:34Z</time></trkpt><trkpt lat="39.42914633037682" lon="9.338685633724372"><ele>547.0</ele><time>2026-04-09T13:14:36Z</time></trkpt><trkpt lat="39.42909499113187" lon="9.338617469187158"><ele>547.0</ele><time>2026-04-09T13:14:37Z</time></trkpt><trkpt lat="39.42905430006423" lon="9.338494303654363"><ele>547.0</ele><time>2026-04-09T13:14:38Z</time></trkpt><trkpt lat="39.42900829972283" lon="9.338346418233566"><ele>547.0</ele><time>2026-04-09T13:14:39Z</time></trkpt><trkpt lat="39.42895793218102" lon="9.338211631101123"><ele>547.0</ele><time>2026-04-09T13:14:40Z</time></trkpt><trkpt lat="39.42891775123051" lon="9.33811327412415"><ele>547.0</ele><time>2026-04-09T13:14:41Z</time></trkpt><trkpt lat="39.42887294078555" lon="9.33805599321211"><ele>547.0</ele><time>2026-04-09T13:14:42Z</time></trkpt><trkpt lat="39.42874438871883" lon="9.3381214928949"><ele>547.0</ele><time>2026-04-09T13:14:44Z</time></trkpt><trkpt lat="39.42870853159784" lon="9.338236261037773"><ele>547.0</ele><time>2026-04-09T13:14:45Z</time></trkpt><trkpt lat="39.428676707866025" lon="9.338422739897403"><ele>550.75</ele><time>2026-04-09T13:14:46Z</time></trkpt><trkpt lat="39.42864503819612" lon="9.33862600858379"><ele>554.5</ele><time>2026-04-09T13:14:47Z</time></trkpt><trkpt lat="39.428616397897365" lon="9.338790199386535"><ele>558.25</ele><time>2026-04-09T13:14:48Z</time></trkpt><trkpt lat="39.42859205022024" lon="9.338923943841188"><ele>562.0</ele><time>2026-04-09T13:14:49.001Z</time></trkpt><trkpt lat="39.42856274311915" lon="9.339059569338382"><ele>562.0</ele><time>2026-04-09T13:14:50.001Z</time></trkpt><trkpt lat="39.42851690580894" lon="9.339196488346007"><ele>562.0</ele><time>2026-04-09T13:14:51.001Z</time></trkpt><trkpt lat="39.428440355684955" lon="9.339311494019784"><ele>562.0</ele><time>2026-04-09T13:14:52.001Z</time></trkpt><trkpt lat="39.42833640284386" lon="9.339407639587474"><ele>562.0</ele><time>2026-04-09T13:14:53.001Z</time></trkpt><trkpt lat="39.42821600582811" lon="9.33948534131986"><ele>562.0</ele><time>2026-04-09T13:14:54.001Z</time></trkpt><trkpt lat="39.42808644857921" lon="9.339561477291502"><ele>562.0</ele><time>2026-04-09T13:14:55.001Z</time></trkpt><trkpt lat="39.42795505913463" lon="9.339632235613818"><ele>562.0</ele><time>2026-04-09T13:14:56.001Z</time></trkpt><trkpt lat="39.42781672489276" lon="9.339683563744286"><ele>562.0</ele><time>2026-04-09T13:14:57.001Z</time></trkpt><trkpt lat="39.427665709823316" lon="9.339721343762942"><ele>560.3333333333334</ele><time>2026-04-09T13:14:58.001Z</time></trkpt><trkpt lat="39.42751099110323" lon="9.33974732901716"><ele>558.6666666666666</ele><time>2026-04-09T13:14:59.001Z</time></trkpt><trkpt lat="39.42735289288257" lon="9.339770808829359"><ele>557.0</ele><time>2026-04-09T13:15:00.001Z</time></trkpt><trkpt lat="39.427200464792925" lon="9.339795679627779"><ele>560.0</ele><time>2026-04-09T13:15:01.001Z</time></trkpt><trkpt lat="39.42705400519574" lon="9.339822780814"><ele>563.0</ele><time>2026-04-09T13:15:02.001Z</time></trkpt><trkpt lat="39.426906036063606" lon="9.339851720795936"><ele>566.0</ele><time>2026-04-09T13:15:03.001Z</time></trkpt><trkpt lat="39.426754822254125" lon="9.339876488307272"><ele>566.0</ele><time>2026-04-09T13:15:04.001Z</time></trkpt><trkpt lat="39.42661358341391" lon="9.339899127096649"><ele>566.0</ele><time>2026-04-09T13:15:05.001Z</time></trkpt><trkpt lat="39.42648164352141" lon="9.339927633948626"><ele>566.0</ele><time>2026-04-09T13:15:06.001Z</time></trkpt><trkpt lat="39.42635600537873" lon="9.33995988455586"><ele>566.0</ele><time>2026-04-09T13:15:07.001Z</time></trkpt><trkpt lat="39.42622693845311" lon="9.340003528278622"><ele>568.25</ele><time>2026-04-09T13:15:08.001Z</time></trkpt><trkpt lat="39.42609733851272" lon="9.34006112858685"><ele>570.5</ele><time>2026-04-09T13:15:09.001Z</time></trkpt><trkpt lat="39.42596846488701" lon="9.340131182990104"><ele>572.75</ele><time>2026-04-09T13:15:10.001Z</time></trkpt><trkpt lat="39.42584807038974" lon="9.34022548429371"><ele>575.0</ele><time>2026-04-09T13:15:11.001Z</time></trkpt><trkpt lat="39.425732707657055" lon="9.34033872438143"><ele>575.0</ele><time>2026-04-09T13:15:12.001Z</time></trkpt><trkpt lat="39.42562018527355" lon="9.340460064043766"><ele>575.0</ele><time>2026-04-09T13:15:13.001Z</time></trkpt><trkpt lat="39.425503653103206" lon="9.34056012964038"><ele>575.0</ele><time>2026-04-09T13:15:14.001Z</time></trkpt><trkpt lat="39.42537948132378" lon="9.340639248556508"><ele>575.0</ele><time>2026-04-09T13:15:15.001Z</time></trkpt><trkpt lat="39.42523457481309" lon="9.340685790373385"><ele>573.0</ele><time>2026-04-09T13:15:16.001Z</time></trkpt><trkpt lat="39.42508825504388" lon="9.340717098031798"><ele>571.0</ele><time>2026-04-09T13:15:17.001Z</time></trkpt><trkpt lat="39.42495779628216" lon="9.340749511498169"><ele>569.0</ele><time>2026-04-09T13:15:18.001Z</time></trkpt><trkpt lat="39.42484173525824" lon="9.340782216445158"><ele>567.0</ele><time>2026-04-09T13:15:19.001Z</time></trkpt><trkpt lat="39.42473289218489" lon="9.340813047700845"><ele>568.75</ele><time>2026-04-09T13:15:20.001Z</time></trkpt><trkpt lat="39.424628549096084" lon="9.340839860097693"><ele>570.5</ele><time>2026-04-09T13:15:21.001Z</time></trkpt><trkpt lat="39.424525644003296" lon="9.340854974102406"><ele>572.25</ele><time>2026-04-09T13:15:22.001Z</time></trkpt><trkpt lat="39.42439804846054" lon="9.340858044669304"><ele>574.0</ele><time>2026-04-09T13:15:23.001Z</time></trkpt><trkpt lat="39.424261658417755" lon="9.34083708495556"><ele>574.0</ele><time>2026-04-09T13:15:24.001Z</time></trkpt><trkpt lat="39.42413866932293" lon="9.340802780351734"><ele>574.0</ele><time>2026-04-09T13:15:25.001Z</time></trkpt><trkpt lat="39.42402782622079" lon="9.340800678860452"><ele>574.0</ele><time>2026-04-09T13:15:26.001Z</time></trkpt><trkpt lat="39.42392820338319" lon="9.340842668504054"><ele>574.0</ele><time>2026-04-09T13:15:27.001Z</time></trkpt><trkpt lat="39.42386619020504" lon="9.340940641371253"><ele>574.0</ele><time>2026-04-09T13:15:28.001Z</time></trkpt><trkpt lat="39.42383698222501" lon="9.341069952509597"><ele>574.0</ele><time>2026-04-09T13:15:29.001Z</time></trkpt><trkpt lat="39.42384083248282" lon="9.34120145684948"><ele>574.0</ele><time>2026-04-09T13:15:30.001Z</time></trkpt><trkpt lat="39.42382664047199" lon="9.341312730178936"><ele>574.0</ele><time>2026-04-09T13:15:31.001Z</time></trkpt><trkpt lat="39.42376488690484" lon="9.341393312525824"><ele>574.0</ele><time>2026-04-09T13:15:32.001Z</time></trkpt><trkpt lat="39.42366794170625" lon="9.341426640963377"><ele>574.0</ele><time>2026-04-09T13:15:33.001Z</time></trkpt><trkpt lat="39.42354947460382" lon="9.341427592984786"><ele>572.0</ele><time>2026-04-09T13:15:34.001Z</time></trkpt><trkpt lat="39.4234123203998" lon="9.34143373003913"><ele>570.0</ele><time>2026-04-09T13:15:35.001Z</time></trkpt><trkpt lat="39.42326924753833" lon="9.341475623895299"><ele>568.0</ele><time>2026-04-09T13:15:36.001Z</time></trkpt><trkpt lat="39.42311190910265" lon="9.34155613140884"><ele>569.5</ele><time>2026-04-09T13:15:37.001Z</time></trkpt><trkpt lat="39.42296783977942" lon="9.341653355179133"><ele>571.0</ele><time>2026-04-09T13:15:38.001Z</time></trkpt><trkpt lat="39.422835660233815" lon="9.341732223089997"><ele>572.5</ele><time>2026-04-09T13:15:39.001Z</time></trkpt><trkpt lat="39.422708948461555" lon="9.341774021211474"><ele>574.0</ele><time>2026-04-09T13:15:40.001Z</time></trkpt><trkpt lat="39.42258528158627" lon="9.341767921040006"><ele>574.0</ele><time>2026-04-09T13:15:41.001Z</time></trkpt><trkpt lat="39.42246603131894" lon="9.34174624149474"><ele>574.0</ele><time>2026-04-09T13:15:42.001Z</time></trkpt><trkpt lat="39.42235485914121" lon="9.341754493559115"><ele>574.0</ele><time>2026-04-09T13:15:43.001Z</time></trkpt><trkpt lat="39.42225703961565" lon="9.341794355834907"><ele>574.0</ele><time>2026-04-09T13:15:44.002Z</time></trkpt><trkpt lat="39.42218905350397" lon="9.341833705783898"><ele>574.0</ele><time>2026-04-09T13:15:45.002Z</time></trkpt><trkpt lat="39.42210576075552" lon="9.341895935848518"><ele>575.1666666666667</ele><time>2026-04-09T13:15:47.002Z</time></trkpt><trkpt lat="39.4220412448684" lon="9.341954335941725"><ele>576.3333333333334</ele><time>2026-04-09T13:15:50.002Z</time></trkpt><trkpt lat="39.42199334183608" lon="9.342009372654243"><ele>577.5</ele><time>2026-04-09T13:15:52.002Z</time></trkpt><trkpt lat="39.42193929137204" lon="9.34208235779195"><ele>578.6666666666666</ele><time>2026-04-09T13:15:54.002Z</time></trkpt><trkpt lat="39.42187172291545" lon="9.342125689230388"><ele>579.8333333333333</ele><time>2026-04-09T13:15:57.002Z</time></trkpt><trkpt lat="39.421742339338905" lon="9.342148863464592"><ele>581.0</ele><time>2026-04-09T13:17:04.001Z</time></trkpt><trkpt lat="39.421658674232845" lon="9.342168429188654"><ele>581.0</ele><time>2026-04-09T13:17:05.001Z</time></trkpt><trkpt lat="39.421565887877506" lon="9.342186026868482"><ele>581.0</ele><time>2026-04-09T13:17:06.001Z</time></trkpt><trkpt lat="39.42147762283014" lon="9.3421891187674"><ele>581.0</ele><time>2026-04-09T13:17:07.001Z</time></trkpt><trkpt lat="39.421397108667605" lon="9.342183519968994"><ele>581.0</ele><time>2026-04-09T13:17:08.001Z</time></trkpt><trkpt lat="39.421330092133154" lon="9.34217222970595"><ele>581.0</ele><time>2026-04-09T13:17:09.001Z</time></trkpt><trkpt lat="39.42121018019128" lon="9.342217202914483"><ele>580.4</ele><time>2026-04-09T13:17:11.001Z</time></trkpt><trkpt lat="39.42113830985361" lon="9.342282062471375"><ele>579.8</ele><time>2026-04-09T13:17:12.001Z</time></trkpt><trkpt lat="39.42105870269245" lon="9.342354239721766"><ele>579.1999999999999</ele><time>2026-04-09T13:17:13.001Z</time></trkpt><trkpt lat="39.420979713564066" lon="9.342399279515105"><ele>578.6</ele><time>2026-04-09T13:17:14.001Z</time></trkpt><trkpt lat="39.42089143171859" lon="9.342422316310325"><ele>578.0</ele><time>2026-04-09T13:17:15.001Z</time></trkpt><trkpt lat="39.420800888674" lon="9.342433279298316"><ele>578.0</ele><time>2026-04-09T13:17:16.001Z</time></trkpt><trkpt lat="39.42070293094494" lon="9.342420739915163"><ele>578.0</ele><time>2026-04-09T13:17:17.001Z</time></trkpt><trkpt lat="39.42059776386586" lon="9.342396335795543"><ele>578.0</ele><time>2026-04-09T13:17:18.001Z</time></trkpt><trkpt lat="39.42048372240586" lon="9.342370631163673"><ele>578.0</ele><time>2026-04-09T13:17:19.001Z</time></trkpt><trkpt lat="39.420370321024286" lon="9.342352047221809"><ele>578.0</ele><time>2026-04-09T13:17:20.001Z</time></trkpt><trkpt lat="39.420242390416874" lon="9.34232719595177"><ele>580.0</ele><time>2026-04-09T13:17:21.001Z</time></trkpt><trkpt lat="39.42011378373462" lon="9.34229157766304"><ele>582.0</ele><time>2026-04-09T13:17:22.001Z</time></trkpt><trkpt lat="39.41999408482599" lon="9.342244193109424"><ele>584.0</ele><time>2026-04-09T13:17:23.001Z</time></trkpt><trkpt lat="39.41987843812476" lon="9.342189551908788"><ele>586.0</ele><time>2026-04-09T13:17:24.001Z</time></trkpt><trkpt lat="39.41977652233956" lon="9.342132265727887"><ele>588.0</ele><time>2026-04-09T13:17:25.001Z</time></trkpt><trkpt lat="39.41969171297207" lon="9.342092715509215"><ele>590.0</ele><time>2026-04-09T13:17:26.001Z</time></trkpt><trkpt lat="39.41960516821949" lon="9.342073081219539"><ele>592.0</ele><time>2026-04-09T13:17:27.001Z</time></trkpt><trkpt lat="39.419505428650254" lon="9.342063413129445"><ele>594.0</ele><time>2026-04-09T13:17:28.001Z</time></trkpt><trkpt lat="39.41940498758457" lon="9.342066088743747"><ele>596.0</ele><time>2026-04-09T13:17:29.001Z</time></trkpt><trkpt lat="39.41930981120331" lon="9.342079051838892"><ele>597.0</ele><time>2026-04-09T13:17:30.001Z</time></trkpt><trkpt lat="39.419210527634576" lon="9.342100264315132"><ele>598.0</ele><time>2026-04-09T13:17:31.001Z</time></trkpt><trkpt lat="39.41912014333021" lon="9.342128712873595"><ele>599.0</ele><time>2026-04-09T13:17:32.001Z</time></trkpt><trkpt lat="39.41904256636744" lon="9.34215538750374"><ele>600.0</ele><time>2026-04-09T13:17:33.001Z</time></trkpt><trkpt lat="39.41894875646685" lon="9.34218291574321"><ele>601.0</ele><time>2026-04-09T13:17:35.001Z</time></trkpt><trkpt lat="39.41887989171075" lon="9.34218771531539"><ele>602.0</ele><time>2026-04-09T13:17:42.002Z</time></trkpt><trkpt lat="39.41880453763248" lon="9.342235960335959"><ele>602.0</ele><time>2026-04-09T13:17:49.002Z</time></trkpt><trkpt lat="39.418785953377615" lon="9.342355672552763"><ele>602.0</ele><time>2026-04-09T13:17:52.002Z</time></trkpt><trkpt lat="39.418725964646825" lon="9.342416336698193"><ele>602.0</ele><time>2026-04-09T13:17:55.002Z</time></trkpt><trkpt lat="39.41866336203844" lon="9.342434747175119"><ele>602.0</ele><time>2026-04-09T13:19:02.001Z</time></trkpt><trkpt lat="39.418538608176114" lon="9.342495777317545"><ele>602.0</ele><time>2026-04-09T13:19:04.001Z</time></trkpt><trkpt lat="39.418473486287155" lon="9.342512553711082"><ele>602.0</ele><time>2026-04-09T13:19:05.001Z</time></trkpt><trkpt lat="39.41840961150851" lon="9.342516722465188"><ele>602.0</ele><time>2026-04-09T13:19:06.001Z</time></trkpt><trkpt lat="39.41834233809497" lon="9.342501908040898"><ele>602.0</ele><time>2026-04-09T13:19:07.001Z</time></trkpt><trkpt lat="39.41827074928191" lon="9.342475492163443"><ele>602.0</ele><time>2026-04-09T13:19:08.001Z</time></trkpt><trkpt lat="39.4181975754111" lon="9.342442984733813"><ele>602.0</ele><time>2026-04-09T13:19:09.001Z</time></trkpt><trkpt lat="39.418109872939546" lon="9.342410252278617"><ele>602.0</ele><time>2026-04-09T13:19:10.001Z</time></trkpt><trkpt lat="39.4180028606992" lon="9.342389145650737"><ele>602.0</ele><time>2026-04-09T13:19:11.001Z</time></trkpt><trkpt lat="39.41788560416578" lon="9.34238120683377"><ele>603.0</ele><time>2026-04-09T13:19:12.001Z</time></trkpt><trkpt lat="39.41778653746925" lon="9.342364157729802"><ele>604.0</ele><time>2026-04-09T13:19:13.001Z</time></trkpt><trkpt lat="39.41769728802701" lon="9.342328862517206"><ele>605.0</ele><time>2026-04-09T13:19:14.001Z</time></trkpt><trkpt lat="39.41760846434337" lon="9.342291083069453"><ele>606.0</ele><time>2026-04-09T13:19:15.001Z</time></trkpt><trkpt lat="39.417523191110455" lon="9.342263995035152"><ele>607.0</ele><time>2026-04-09T13:19:16.001Z</time></trkpt><trkpt lat="39.4174633593819" lon="9.342232558390082"><ele>608.0</ele><time>2026-04-09T13:19:17.001Z</time></trkpt><trkpt lat="39.41739873351101" lon="9.342196402816642"><ele>608.5</ele><time>2026-04-09T13:19:18.001Z</time></trkpt><trkpt lat="39.41732559418708" lon="9.342163855911394"><ele>609.0</ele><time>2026-04-09T13:19:19.001Z</time></trkpt><trkpt lat="39.41725452015992" lon="9.34213353734879"><ele>609.5</ele><time>2026-04-09T13:19:20.001Z</time></trkpt><trkpt lat="39.41719595081536" lon="9.342103419221994"><ele>610.0</ele><time>2026-04-09T13:19:21.001Z</time></trkpt><trkpt lat="39.41707199617166" lon="9.342032253111684"><ele>610.5</ele><time>2026-04-09T13:19:23.001Z</time></trkpt><trkpt lat="39.41699516078911" lon="9.341998046826895"><ele>611.0</ele><time>2026-04-09T13:19:24.001Z</time></trkpt><trkpt lat="39.41693010443423" lon="9.341984483066325"><ele>609.6</ele><time>2026-04-09T13:19:25.001Z</time></trkpt><trkpt lat="39.41685252192762" lon="9.341968921739696"><ele>608.2</ele><time>2026-04-09T13:19:26.001Z</time></trkpt><trkpt lat="39.416771215719386" lon="9.341949127322755"><ele>606.8</ele><time>2026-04-09T13:19:27.001Z</time></trkpt><trkpt lat="39.41668970610232" lon="9.341904431389592"><ele>605.4</ele><time>2026-04-09T13:19:28.001Z</time></trkpt><trkpt lat="39.41658899819824" lon="9.341842915547064"><ele>604.0</ele><time>2026-04-09T13:19:29.001Z</time></trkpt><trkpt lat="39.416501950782816" lon="9.341779342297423"><ele>604.0</ele><time>2026-04-09T13:19:30.001Z</time></trkpt><trkpt lat="39.416426350243505" lon="9.341745817199884"><ele>604.0</ele><time>2026-04-09T13:19:31.001Z</time></trkpt><trkpt lat="39.41634475304315" lon="9.341713912306291"><ele>604.0</ele><time>2026-04-09T13:19:32.001Z</time></trkpt><trkpt lat="39.41625741175687" lon="9.34168123598736"><ele>604.0</ele><time>2026-04-09T13:19:33.001Z</time></trkpt><trkpt lat="39.41618389629596" lon="9.341661653999012"><ele>604.0</ele><time>2026-04-09T13:19:34.001Z</time></trkpt><trkpt lat="39.41610153942508" lon="9.34165871827294"><ele>604.0</ele><time>2026-04-09T13:19:35.001Z</time></trkpt><trkpt lat="39.41601157595851" lon="9.341661616851907"><ele>602.4</ele><time>2026-04-09T13:19:36.001Z</time></trkpt><trkpt lat="39.41592140430865" lon="9.3416654178391"><ele>600.8</ele><time>2026-04-09T13:19:37.001Z</time></trkpt><trkpt lat="39.41582306166257" lon="9.341659624734156"><ele>599.2</ele><time>2026-04-09T13:19:38.001Z</time></trkpt><trkpt lat="39.415734245266805" lon="9.341642805159966"><ele>597.6</ele><time>2026-04-09T13:19:39.002Z</time></trkpt><trkpt lat="39.41564032383275" lon="9.341636629962935"><ele>596.0</ele><time>2026-04-09T13:19:40.002Z</time></trkpt><trkpt lat="39.415543659917844" lon="9.341641753155475"><ele>594.2</ele><time>2026-04-09T13:19:41.002Z</time></trkpt><trkpt lat="39.41544667324659" lon="9.341655898391691"><ele>592.4000000000001</ele><time>2026-04-09T13:19:42.002Z</time></trkpt><trkpt lat="39.4153698477335" lon="9.34166175287276"><ele>590.6</ele><time>2026-04-09T13:19:43.002Z</time></trkpt><trkpt lat="39.41522346773293" lon="9.341672768176949"><ele>588.8000000000001</ele><time>2026-04-09T13:19:45.002Z</time></trkpt><trkpt lat="39.415126411655635" lon="9.341680159834675"><ele>587.0</ele><time>2026-04-09T13:19:46.002Z</time></trkpt><trkpt lat="39.41505351264611" lon="9.34168008394274"><ele>587.0</ele><time>2026-04-09T13:19:47.002Z</time></trkpt><trkpt lat="39.414978624854015" lon="9.341678974115197"><ele>587.0</ele><time>2026-04-09T13:19:48.002Z</time></trkpt><trkpt lat="39.414878372983075" lon="9.34169520455915"><ele>587.0</ele><time>2026-04-09T13:19:49.002Z</time></trkpt><trkpt lat="39.41478382498139" lon="9.341719600534269"><ele>587.0</ele><time>2026-04-09T13:19:50.002Z</time></trkpt><trkpt lat="39.41470355038045" lon="9.341741499492882"><ele>587.0</ele><time>2026-04-09T13:19:51.002Z</time></trkpt><trkpt lat="39.41462904323671" lon="9.341752657773323"><ele>587.0</ele><time>2026-04-09T13:19:52.002Z</time></trkpt><trkpt lat="39.41455047820952" lon="9.341760979587947"><ele>586.1666666666666</ele><time>2026-04-09T13:19:53.002Z</time></trkpt><trkpt lat="39.41446331415774" lon="9.34178623074515"><ele>585.3333333333333</ele><time>2026-04-09T13:19:54.002Z</time></trkpt><trkpt lat="39.41437019295445" lon="9.3418106178661"><ele>584.5</ele><time>2026-04-09T13:19:55.002Z</time></trkpt><trkpt lat="39.414284134757104" lon="9.341833318423312"><ele>583.6666666666666</ele><time>2026-04-09T13:19:56.002Z</time></trkpt><trkpt lat="39.414199129960316" lon="9.34185032989176"><ele>582.8333333333334</ele><time>2026-04-09T13:19:57.002Z</time></trkpt><trkpt lat="39.41412129716613" lon="9.341858650162626"><ele>582.0</ele><time>2026-04-09T13:19:58.002Z</time></trkpt><trkpt lat="39.414050896181486" lon="9.341863371465116"><ele>582.0</ele><time>2026-04-09T13:19:59.002Z</time></trkpt><trkpt lat="39.41398266551968" lon="9.341874874678368"><ele>582.0</ele><time>2026-04-09T13:20:00.002Z</time></trkpt><trkpt lat="39.41391754141031" lon="9.341900574987966"><ele>582.0</ele><time>2026-04-09T13:20:01.002Z</time></trkpt><trkpt lat="39.41385330200926" lon="9.341921837988883"><ele>582.0</ele><time>2026-04-09T13:20:02.002Z</time></trkpt><trkpt lat="39.413751294820806" lon="9.341924849890024"><ele>582.0</ele><time>2026-04-09T13:20:04.002Z</time></trkpt><trkpt lat="39.41369636650757" lon="9.342009633644716"><ele>582.0</ele><time>2026-04-09T13:20:07.002Z</time></trkpt><trkpt lat="39.41374207458689" lon="9.34210067999522"><ele>582.0</ele><time>2026-04-09T13:20:09.002Z</time></trkpt><trkpt lat="39.41379519691851" lon="9.34217089650126"><ele>582.0</ele><time>2026-04-09T13:20:10.002Z</time></trkpt><trkpt lat="39.41387671543302" lon="9.342210258508535"><ele>582.0</ele><time>2026-04-09T13:20:11.002Z</time></trkpt><trkpt lat="39.41396404068258" lon="9.342228501716942"><ele>582.0</ele><time>2026-04-09T13:20:12.002Z</time></trkpt><trkpt lat="39.41404903405627" lon="9.342246378981462"><ele>582.0</ele><time>2026-04-09T13:20:13.002Z</time></trkpt><trkpt lat="39.41414023973324" lon="9.342266391453343"><ele>582.0</ele><time>2026-04-09T13:20:14.002Z</time></trkpt><trkpt lat="39.414230773375316" lon="9.342270997357375"><ele>580.4285714285714</ele><time>2026-04-09T13:20:15.002Z</time></trkpt><trkpt lat="39.414305885782056" lon="9.342322227082219"><ele>578.8571428571428</ele><time>2026-04-09T13:20:16.001Z</time></trkpt><trkpt lat="39.414380503895735" lon="9.342368107807975"><ele>577.2857142857142</ele><time>2026-04-09T13:20:17.001Z</time></trkpt><trkpt lat="39.41443871491698" lon="9.342419597335578"><ele>575.7142857142857</ele><time>2026-04-09T13:20:18.001Z</time></trkpt><trkpt lat="39.414494357385934" lon="9.342472339652371"><ele>574.1428571428571</ele><time>2026-04-09T13:20:19.001Z</time></trkpt><trkpt lat="39.41454548028133" lon="9.342520872019026"><ele>572.5714285714286</ele><time>2026-04-09T13:20:20.001Z</time></trkpt><trkpt lat="39.41460432572475" lon="9.34257086550799"><ele>571.0</ele><time>2026-04-09T13:20:21.001Z</time></trkpt><trkpt lat="39.414676720537" lon="9.342616813103056"><ele>571.0</ele><time>2026-04-09T13:20:22.001Z</time></trkpt><trkpt lat="39.414757913903756" lon="9.342680267326672"><ele>571.0</ele><time>2026-04-09T13:20:24.001Z</time></trkpt><trkpt lat="39.414835444774546" lon="9.342709463571861"><ele>571.0</ele><time>2026-04-09T13:20:26.001Z</time></trkpt><trkpt lat="39.414911540732305" lon="9.342750903610971"><ele>571.0</ele><time>2026-04-09T13:20:28.001Z</time></trkpt><trkpt lat="39.414951265300836" lon="9.342820725552112"><ele>571.0</ele><time>2026-04-09T13:20:30.001Z</time></trkpt><trkpt lat="39.41483960392403" lon="9.342871659577801"><ele>571.0</ele><time>2026-04-09T13:20:33.001Z</time></trkpt><trkpt lat="39.41472680163755" lon="9.342874622854488"><ele>570.2857142857143</ele><time>2026-04-09T13:20:35.001Z</time></trkpt><trkpt lat="39.41464987993813" lon="9.342882206118281"><ele>569.5714285714286</ele><time>2026-04-09T13:20:36.001Z</time></trkpt><trkpt lat="39.41456410863557" lon="9.342894207446914"><ele>568.8571428571429</ele><time>2026-04-09T13:20:37.001Z</time></trkpt><trkpt lat="39.41449837206552" lon="9.342926791839785"><ele>568.1428571428571</ele><time>2026-04-09T13:20:38.001Z</time></trkpt><trkpt lat="39.41442981047631" lon="9.342937616147758"><ele>567.4285714285714</ele><time>2026-04-09T13:20:39.001Z</time></trkpt><trkpt lat="39.41436349859093" lon="9.342939797628354"><ele>566.7142857142858</ele><time>2026-04-09T13:20:40.001Z</time></trkpt><trkpt lat="39.4142917539691" lon="9.342949540018912"><ele>566.0</ele><time>2026-04-09T13:20:41.001Z</time></trkpt><trkpt lat="39.41422399685008" lon="9.34297185896643"><ele>566.0</ele><time>2026-04-09T13:20:42.001Z</time></trkpt><trkpt lat="39.41415381532617" lon="9.343007685141684"><ele>566.0</ele><time>2026-04-09T13:20:43.001Z</time></trkpt><trkpt lat="39.41408316121944" lon="9.343007978215834"><ele>566.0</ele><time>2026-04-09T13:20:44.001Z</time></trkpt><trkpt lat="39.41401129904833" lon="9.343014218636752"><ele>566.0</ele><time>2026-04-09T13:20:45.001Z</time></trkpt><trkpt lat="39.4139249481593" lon="9.343020702148774"><ele>566.0</ele><time>2026-04-09T13:20:46.001Z</time></trkpt><trkpt lat="39.413856822046704" lon="9.34303379543274"><ele>566.0</ele><time>2026-04-09T13:20:47.001Z</time></trkpt><trkpt lat="39.413780810037544" lon="9.343045157287895"><ele>563.1666666666666</ele><time>2026-04-09T13:20:48.001Z</time></trkpt><trkpt lat="39.41370517743249" lon="9.34305599040952"><ele>560.3333333333333</ele><time>2026-04-09T13:20:49.001Z</time></trkpt><trkpt lat="39.413630217330976" lon="9.343077806156852"><ele>557.5</ele><time>2026-04-09T13:20:50.001Z</time></trkpt><trkpt lat="39.413568004482755" lon="9.343108294424487"><ele>554.6666666666666</ele><time>2026-04-09T13:20:51.001Z</time></trkpt><trkpt lat="39.41350579077251" lon="9.343152788546904"><ele>551.8333333333334</ele><time>2026-04-09T13:20:52.001Z</time></trkpt><trkpt lat="39.41342621144502" lon="9.3432045249895"><ele>549.0</ele><time>2026-04-09T13:20:53.001Z</time></trkpt><trkpt lat="39.41335684063477" lon="9.34325332785984"><ele>549.0</ele><time>2026-04-09T13:20:54.001Z</time></trkpt><trkpt lat="39.41328540761811" lon="9.343292721359713"><ele>549.0</ele><time>2026-04-09T13:20:55.001Z</time></trkpt><trkpt lat="39.413213461149475" lon="9.343301917693607"><ele>549.0</ele><time>2026-04-09T13:20:56.001Z</time></trkpt><trkpt lat="39.413131365447505" lon="9.343288011200546"><ele>549.0</ele><time>2026-04-09T13:20:57.001Z</time></trkpt><trkpt lat="39.41306244988131" lon="9.34327930376943"><ele>549.0</ele><time>2026-04-09T13:20:58.001Z</time></trkpt><trkpt lat="39.412990121534" lon="9.343289142436785"><ele>549.0</ele><time>2026-04-09T13:20:59.001Z</time></trkpt><trkpt lat="39.4129167042818" lon="9.343301318754984"><ele>549.0</ele><time>2026-04-09T13:21:00.001Z</time></trkpt><trkpt lat="39.41283473554399" lon="9.343324784080501"><ele>548.0</ele><time>2026-04-09T13:21:01.001Z</time></trkpt><trkpt lat="39.41275180694623" lon="9.343364492632888"><ele>547.0</ele><time>2026-04-09T13:21:02.001Z</time></trkpt><trkpt lat="39.41268295214342" lon="9.34340593439015"><ele>546.0</ele><time>2026-04-09T13:21:03.001Z</time></trkpt><trkpt lat="39.412614679064426" lon="9.343443407387088"><ele>545.0</ele><time>2026-04-09T13:21:04.001Z</time></trkpt><trkpt lat="39.412540156483594" lon="9.34344424301105"><ele>544.0</ele><time>2026-04-09T13:21:05.001Z</time></trkpt><trkpt lat="39.41248231287125" lon="9.343385157539991"><ele>543.0</ele><time>2026-04-09T13:21:06.001Z</time></trkpt><trkpt lat="39.41240953340719" lon="9.343322588464392"><ele>543.0</ele><time>2026-04-09T13:21:07.001Z</time></trkpt><trkpt lat="39.41233320518717" lon="9.343284895338593"><ele>543.0</ele><time>2026-04-09T13:21:08.001Z</time></trkpt><trkpt lat="39.41225553676972" lon="9.343237262195787"><ele>543.0</ele><time>2026-04-09T13:21:09.001Z</time></trkpt><trkpt lat="39.412172564756226" lon="9.343214022772342"><ele>543.0</ele><time>2026-04-09T13:21:10.001Z</time></trkpt><trkpt lat="39.4120382560368" lon="9.343225842001019"><ele>543.0</ele><time>2026-04-09T13:21:12.001Z</time></trkpt><trkpt lat="39.41197982598953" lon="9.343265178153668"><ele>542.0</ele><time>2026-04-09T13:21:13.001Z</time></trkpt><trkpt lat="39.41189521899715" lon="9.343297319422135"><ele>541.0</ele><time>2026-04-09T13:21:14.001Z</time></trkpt><trkpt lat="39.411803985938164" lon="9.343267988456532"><ele>540.0</ele><time>2026-04-09T13:21:15.001Z</time></trkpt><trkpt lat="39.41172387945961" lon="9.343255810388271"><ele>539.0</ele><time>2026-04-09T13:21:16.001Z</time></trkpt><trkpt lat="39.41165945710019" lon="9.343258860358189"><ele>538.0</ele><time>2026-04-09T13:21:17.001Z</time></trkpt><trkpt lat="39.411563578582225" lon="9.343246087872988"><ele>537.0</ele><time>2026-04-09T13:21:19.001Z</time></trkpt><trkpt lat="39.41144378290166" lon="9.343240534780147"><ele>537.0</ele><time>2026-04-09T13:21:21.001Z</time></trkpt><trkpt lat="39.4113288155375" lon="9.343253390315358"><ele>537.0</ele><time>2026-04-09T13:21:23.001Z</time></trkpt><trkpt lat="39.41125552629203" lon="9.343246766813149"><ele>537.0</ele><time>2026-04-09T13:21:24.001Z</time></trkpt><trkpt lat="39.41119439679121" lon="9.343221220419789"><ele>537.0</ele><time>2026-04-09T13:21:25.001Z</time></trkpt><trkpt lat="39.411146701133454" lon="9.343151561847662"><ele>537.0</ele><time>2026-04-09T13:21:26.001Z</time></trkpt><trkpt lat="39.41105963303628" lon="9.343123185016484"><ele>537.0</ele><time>2026-04-09T13:21:28.001Z</time></trkpt><trkpt lat="39.41098992610911" lon="9.343084495470917"><ele>535.8333333333334</ele><time>2026-04-09T13:21:30.001Z</time></trkpt><trkpt lat="39.41090187991748" lon="9.34316399942996"><ele>534.6666666666666</ele><time>2026-04-09T13:21:32.001Z</time></trkpt><trkpt lat="39.41083507482718" lon="9.343204319405759"><ele>533.5</ele><time>2026-04-09T13:21:33.001Z</time></trkpt><trkpt lat="39.41076826984954" lon="9.34325184570761"><ele>532.3333333333333</ele><time>2026-04-09T13:21:34.001Z</time></trkpt><trkpt lat="39.41071066388096" lon="9.343293844514761"><ele>531.1666666666666</ele><time>2026-04-09T13:21:35.001Z</time></trkpt><trkpt lat="39.41065006832834" lon="9.343360630141904"><ele>530.0</ele><time>2026-04-09T13:21:36.001Z</time></trkpt><trkpt lat="39.41057160202695" lon="9.343399001464034"><ele>530.0</ele><time>2026-04-09T13:21:37.001Z</time></trkpt><trkpt lat="39.41049846252382" lon="9.343460133725426"><ele>530.0</ele><time>2026-04-09T13:21:38.001Z</time></trkpt><trkpt lat="39.410426047622046" lon="9.343527544112092"><ele>530.0</ele><time>2026-04-09T13:21:39.001Z</time></trkpt><trkpt lat="39.41033714932058" lon="9.343616677973948"><ele>530.0</ele><time>2026-04-09T13:21:40.001Z</time></trkpt><trkpt lat="39.410245400806964" lon="9.343699959756648"><ele>530.0</ele><time>2026-04-09T13:21:41.001Z</time></trkpt><trkpt lat="39.410166808181835" lon="9.343760354554963"><ele>532.0</ele><time>2026-04-09T13:21:42.001Z</time></trkpt><trkpt lat="39.4100994249375" lon="9.34378811044705"><ele>534.0</ele><time>2026-04-09T13:21:43.001Z</time></trkpt><trkpt lat="39.41002264311512" lon="9.34381173438525"><ele>536.0</ele><time>2026-04-09T13:21:44.001Z</time></trkpt><trkpt lat="39.40994698109558" lon="9.34382417974944"><ele>538.0</ele><time>2026-04-09T13:21:45.001Z</time></trkpt><trkpt lat="39.40986971032894" lon="9.343842162718634"><ele>540.0</ele><time>2026-04-09T13:21:46.001Z</time></trkpt><trkpt lat="39.40978961515126" lon="9.34388035572025"><ele>542.0</ele><time>2026-04-09T13:21:47.001Z</time></trkpt><trkpt lat="39.40970399798317" lon="9.34392426165517"><ele>537.5</ele><time>2026-04-09T13:21:48.001Z</time></trkpt><trkpt lat="39.40961834830826" lon="9.343964239821595"><ele>533.0</ele><time>2026-04-09T13:21:49.001Z</time></trkpt><trkpt lat="39.40954052363439" lon="9.344000558524558"><ele>528.5</ele><time>2026-04-09T13:21:50.001Z</time></trkpt><trkpt lat="39.4094265911192" lon="9.344043739595673"><ele>524.0</ele><time>2026-04-09T13:21:52.001Z</time></trkpt><trkpt lat="39.40935397701596" lon="9.344070589426272"><ele>519.5</ele><time>2026-04-09T13:21:53.001Z</time></trkpt><trkpt lat="39.40928324791339" lon="9.344068920472523"><ele>515.0</ele><time>2026-04-09T13:21:54.001Z</time></trkpt><trkpt lat="39.40920684596188" lon="9.344107852353805"><ele>515.0</ele><time>2026-04-09T13:21:55.001Z</time></trkpt><trkpt lat="39.4091389860219" lon="9.344100442158625"><ele>515.0</ele><time>2026-04-09T13:21:56.001Z</time></trkpt><trkpt lat="39.40906480567737" lon="9.344106013942142"><ele>515.0</ele><time>2026-04-09T13:21:57.001Z</time></trkpt><trkpt lat="39.40898922039435" lon="9.344111362373276"><ele>515.0</ele><time>2026-04-09T13:21:58.001Z</time></trkpt><trkpt lat="39.4089088992661" lon="9.344137448654434"><ele>515.0</ele><time>2026-04-09T13:21:59.001Z</time></trkpt><trkpt lat="39.40879279561958" lon="9.344171983589288"><ele>515.0</ele><time>2026-04-09T13:22:01.001Z</time></trkpt><trkpt lat="39.40873288019889" lon="9.344237815018802"><ele>518.0</ele><time>2026-04-09T13:22:02.001Z</time></trkpt><trkpt lat="39.4086519609408" lon="9.344296007809918"><ele>521.0</ele><time>2026-04-09T13:22:03.001Z</time></trkpt><trkpt lat="39.40859401894166" lon="9.344350894074378"><ele>524.0</ele><time>2026-04-09T13:22:04.001Z</time></trkpt><trkpt lat="39.40849814807755" lon="9.344439165380264"><ele>527.0</ele><time>2026-04-09T13:22:06.001Z</time></trkpt><trkpt lat="39.40844099959947" lon="9.344551612929722"><ele>530.0</ele><time>2026-04-09T13:22:08.002Z</time></trkpt><trkpt lat="39.40840802913123" lon="9.344677884905485"><ele>523.6</ele><time>2026-04-09T13:22:10.002Z</time></trkpt><trkpt lat="39.40837138795545" lon="9.344828832319541"><ele>517.2</ele><time>2026-04-09T13:22:12.002Z</time></trkpt><trkpt lat="39.408318264268466" lon="9.344937370087251"><ele>510.79999999999995</ele><time>2026-04-09T13:22:14.002Z</time></trkpt><trkpt lat="39.4082224712435" lon="9.344973921176353"><ele>504.4</ele><time>2026-04-09T13:22:16.002Z</time></trkpt><trkpt lat="39.408102367121785" lon="9.345028473860166"><ele>498.0</ele><time>2026-04-09T13:22:18.002Z</time></trkpt><trkpt lat="39.40803548140919" lon="9.345057659665647"><ele>499.2</ele><time>2026-04-09T13:22:19.002Z</time></trkpt><trkpt lat="39.407981408961746" lon="9.34510220982719"><ele>500.4</ele><time>2026-04-09T13:22:20.002Z</time></trkpt><trkpt lat="39.407849985936146" lon="9.345144410433823"><ele>501.59999999999997</ele><time>2026-04-09T13:22:22Z</time></trkpt><trkpt lat="39.40772641729573" lon="9.345165019515546"><ele>502.79999999999995</ele><time>2026-04-09T13:22:24Z</time></trkpt><trkpt lat="39.407633239170714" lon="9.34521384100323"><ele>504.0</ele><time>2026-04-09T13:22:26Z</time></trkpt><trkpt lat="39.40753673157625" lon="9.34521480279029"><ele>504.0</ele><time>2026-04-09T13:22:28Z</time></trkpt><trkpt lat="39.407468790661106" lon="9.345264927823655"><ele>504.0</ele><time>2026-04-09T13:22:31Z</time></trkpt><trkpt lat="39.40749238696777" lon="9.345348999400564"><ele>504.0</ele><time>2026-04-09T13:22:33Z</time></trkpt><trkpt lat="39.40755318565471" lon="9.345401923930497"><ele>504.0</ele><time>2026-04-09T13:22:36Z</time></trkpt><trkpt lat="39.40761081603839" lon="9.345439911114381"><ele>504.0</ele><time>2026-04-09T13:22:38Z</time></trkpt><trkpt lat="39.40763685382727" lon="9.345515869708237"><ele>504.0</ele><time>2026-04-09T13:22:41Z</time></trkpt><trkpt lat="39.4076585317823" lon="9.345596935692445"><ele>504.0</ele><time>2026-04-09T13:22:43Z</time></trkpt><trkpt lat="39.40767416098162" lon="9.345682655262951"><ele>500.1666666666667</ele><time>2026-04-09T13:22:51Z</time></trkpt><trkpt lat="39.40765049756721" lon="9.345759318549431"><ele>496.33333333333337</ele><time>2026-04-09T13:22:53Z</time></trkpt><trkpt lat="39.407610732262306" lon="9.345857549161066"><ele>492.5</ele><time>2026-04-09T13:23:19Z</time></trkpt><trkpt lat="39.40757105630335" lon="9.345948837130441"><ele>488.6666666666667</ele><time>2026-04-09T13:23:20Z</time></trkpt><trkpt lat="39.407521217379305" lon="9.346057613502847"><ele>484.83333333333337</ele><time>2026-04-09T13:23:21Z</time></trkpt><trkpt lat="39.407479644718194" lon="9.346177747033005"><ele>481.0</ele><time>2026-04-09T13:23:22.001Z</time></trkpt><trkpt lat="39.40743434507055" lon="9.346281501161991"><ele>481.00000000000006</ele><time>2026-04-09T13:23:23.001Z</time></trkpt><trkpt lat="39.407366418646575" lon="9.346317670201302"><ele>481.0</ele><time>2026-04-09T13:23:24.001Z</time></trkpt><trkpt lat="39.407309637877106" lon="9.346362814325856"><ele>481.0</ele><time>2026-04-09T13:23:25.001Z</time></trkpt><trkpt lat="39.40722601906729" lon="9.346325921371553"><ele>481.0</ele><time>2026-04-09T13:23:26.001Z</time></trkpt><trkpt lat="39.40714913419272" lon="9.346328148209423"><ele>481.00000000000006</ele><time>2026-04-09T13:23:27.001Z</time></trkpt><trkpt lat="39.407046033621825" lon="9.346385565927216"><ele>481.0</ele><time>2026-04-09T13:23:29.001Z</time></trkpt><trkpt lat="39.40699037814989" lon="9.346430392948502"><ele>479.83333333333337</ele><time>2026-04-09T13:23:30.001Z</time></trkpt><trkpt lat="39.4069415554516" lon="9.346502928667766"><ele>478.6666666666667</ele><time>2026-04-09T13:23:31.001Z</time></trkpt><trkpt lat="39.406892306661945" lon="9.346569330975226"><ele>477.5</ele><time>2026-04-09T13:23:32.001Z</time></trkpt><trkpt lat="39.406852856577274" lon="9.346634679804426"><ele>476.33333333333337</ele><time>2026-04-09T13:23:33.001Z</time></trkpt><trkpt lat="39.406812248988366" lon="9.346780598583946"><ele>475.1666666666667</ele><time>2026-04-09T13:23:35.001Z</time></trkpt><trkpt lat="39.4067706902473" lon="9.346896400637474"><ele>474.0</ele><time>2026-04-09T13:23:37.001Z</time></trkpt><trkpt lat="39.40672199669957" lon="9.346778893725423"><ele>474.0</ele><time>2026-04-09T13:23:41.001Z</time></trkpt><trkpt lat="39.406728861968375" lon="9.346685582136303"><ele>474.0</ele><time>2026-04-09T13:23:43.001Z</time></trkpt><trkpt lat="39.406671966436114" lon="9.346609144125543"><ele>474.0</ele><time>2026-04-09T13:23:45.001Z</time></trkpt><trkpt lat="39.40653773233557" lon="9.34674631738542"><ele>474.0</ele><time>2026-04-09T13:23:48.001Z</time></trkpt><trkpt lat="39.40649233385323" lon="9.346842446840936"><ele>474.0</ele><time>2026-04-09T13:23:49.001Z</time></trkpt><trkpt lat="39.4064459408365" lon="9.346940086380602"><ele>474.0</ele><time>2026-04-09T13:23:50.001Z</time></trkpt><trkpt lat="39.40638586634088" lon="9.347003720659238"><ele>474.0</ele><time>2026-04-09T13:23:51.001Z</time></trkpt><trkpt lat="39.40628190143432" lon="9.347063838966735"><ele>474.0</ele><time>2026-04-09T13:23:52.001Z</time></trkpt><trkpt lat="39.40615025802608" lon="9.347138749927069"><ele>474.0</ele><time>2026-04-09T13:23:53.001Z</time></trkpt><trkpt lat="39.40601555534142" lon="9.347230878376648"><ele>473.2</ele><time>2026-04-09T13:23:54.001Z</time></trkpt><trkpt lat="39.40590620399602" lon="9.347328053109095"><ele>472.4</ele><time>2026-04-09T13:23:55.001Z</time></trkpt><trkpt lat="39.40582575249873" lon="9.34740818863952"><ele>471.6</ele><time>2026-04-09T13:23:56.001Z</time></trkpt><trkpt lat="39.405779423302185" lon="9.347485574681963"><ele>470.8</ele><time>2026-04-09T13:23:57.001Z</time></trkpt><trkpt lat="39.40575669899302" lon="9.347589044257573"><ele>470.0</ele><time>2026-04-09T13:23:58.001Z</time></trkpt><trkpt lat="39.40576081877613" lon="9.34769538487349"><ele>470.0</ele><time>2026-04-09T13:23:59.001Z</time></trkpt><trkpt lat="39.40575415271498" lon="9.347859370573545"><ele>470.0</ele><time>2026-04-09T13:24:00.001Z</time></trkpt><trkpt lat="39.40573468565131" lon="9.348023815412786"><ele>470.0</ele><time>2026-04-09T13:24:01.001Z</time></trkpt><trkpt lat="39.40568193495513" lon="9.348155390764067"><ele>470.0</ele><time>2026-04-09T13:24:02.001Z</time></trkpt><trkpt lat="39.40561501997127" lon="9.348287076814916"><ele>467.75</ele><time>2026-04-09T13:24:03.001Z</time></trkpt><trkpt lat="39.40552903858904" lon="9.348421817987669"><ele>465.5</ele><time>2026-04-09T13:24:04.001Z</time></trkpt><trkpt lat="39.40544390456358" lon="9.348559858567002"><ele>463.25</ele><time>2026-04-09T13:24:05.001Z</time></trkpt><trkpt lat="39.405382335165" lon="9.348696889868878"><ele>461.0</ele><time>2026-04-09T13:24:06.001Z</time></trkpt><trkpt lat="39.40533904792294" lon="9.348824643707308"><ele>459.0</ele><time>2026-04-09T13:24:07.001Z</time></trkpt><trkpt lat="39.40528848498142" lon="9.348932692977863"><ele>457.0</ele><time>2026-04-09T13:24:08.001Z</time></trkpt><trkpt lat="39.40522599659007" lon="9.349000212117748"><ele>455.0</ele><time>2026-04-09T13:24:09.001Z</time></trkpt><trkpt lat="39.40514029612053" lon="9.349044075204635"><ele>453.0</ele><time>2026-04-09T13:24:10.001Z</time></trkpt><trkpt lat="39.405028831274755" lon="9.349082048592127"><ele>451.0</ele><time>2026-04-09T13:24:11.001Z</time></trkpt><trkpt lat="39.40491410199279" lon="9.349124727179488"><ele>451.0</ele><time>2026-04-09T13:24:12.001Z</time></trkpt><trkpt lat="39.40480357031354" lon="9.349161152329478"><ele>451.0</ele><time>2026-04-09T13:24:13.001Z</time></trkpt><trkpt lat="39.404707423622" lon="9.349193056351227"><ele>451.0</ele><time>2026-04-09T13:24:14.001Z</time></trkpt><trkpt lat="39.404613527534345" lon="9.34920364685203"><ele>451.0</ele><time>2026-04-09T13:24:15.001Z</time></trkpt><trkpt lat="39.40452189463439" lon="9.349219894304769"><ele>451.0</ele><time>2026-04-09T13:24:16.001Z</time></trkpt><trkpt lat="39.40442109805887" lon="9.349254273237307"><ele>448.8</ele><time>2026-04-09T13:24:17.001Z</time></trkpt><trkpt lat="39.40433217876214" lon="9.349287483034514"><ele>446.6</ele><time>2026-04-09T13:24:18.001Z</time></trkpt><trkpt lat="39.404242498569815" lon="9.349305972891761"><ele>444.4</ele><time>2026-04-09T13:24:19.001Z</time></trkpt><trkpt lat="39.4041555682517" lon="9.349342205836708"><ele>442.2</ele><time>2026-04-09T13:24:20.001Z</time></trkpt><trkpt lat="39.40404845336143" lon="9.349366004096861"><ele>440.0</ele><time>2026-04-09T13:24:21.001Z</time></trkpt><trkpt lat="39.40394487198845" lon="9.349389775909113"><ele>440.0</ele><time>2026-04-09T13:24:22.001Z</time></trkpt><trkpt lat="39.40383933160226" lon="9.349413976125321"><ele>440.0</ele><time>2026-04-09T13:24:23.001Z</time></trkpt><trkpt lat="39.40374169282554" lon="9.349430653890957"><ele>440.0</ele><time>2026-04-09T13:24:24.001Z</time></trkpt><trkpt lat="39.403641316442354" lon="9.349446895071457"><ele>440.0</ele><time>2026-04-09T13:24:25.001Z</time></trkpt><trkpt lat="39.40353880531847" lon="9.349464437715238"><ele>440.0</ele><time>2026-04-09T13:24:26.001Z</time></trkpt><trkpt lat="39.403435840259235" lon="9.349488682465505"><ele>439.66666666666663</ele><time>2026-04-09T13:24:27.001Z</time></trkpt><trkpt lat="39.4033229154619" lon="9.349518909267616"><ele>439.3333333333333</ele><time>2026-04-09T13:24:28Z</time></trkpt><trkpt lat="39.403224504940745" lon="9.34955233739691"><ele>439.0</ele><time>2026-04-09T13:24:28.999Z</time></trkpt><trkpt lat="39.40314394608816" lon="9.349574284676299"><ele>438.66666666666663</ele><time>2026-04-09T13:24:30Z</time></trkpt><trkpt lat="39.40307714259325" lon="9.34960723846886"><ele>438.3333333333333</ele><time>2026-04-09T13:24:30.999Z</time></trkpt><trkpt lat="39.40302801303546" lon="9.349665345294191"><ele>438.0</ele><time>2026-04-09T13:24:31.999Z</time></trkpt><trkpt lat="39.4029934468803" lon="9.349745439800639"><ele>437.79999999999995</ele><time>2026-04-09T13:24:33Z</time></trkpt><trkpt lat="39.40297701050447" lon="9.349866187178431"><ele>437.59999999999997</ele><time>2026-04-09T13:24:34Z</time></trkpt><trkpt lat="39.402979991897425" lon="9.34999016944698"><ele>437.40000000000003</ele><time>2026-04-09T13:24:35Z</time></trkpt><trkpt lat="39.40301202022151" lon="9.3501258826417"><ele>437.20000000000005</ele><time>2026-04-09T13:24:36Z</time></trkpt><trkpt lat="39.40306531550799" lon="9.35025295315957"><ele>437.0</ele><time>2026-04-09T13:24:37Z</time></trkpt><trkpt lat="39.40312951903487" lon="9.35037872387931"><ele>436.99999999999994</ele><time>2026-04-09T13:24:38Z</time></trkpt><trkpt lat="39.403167505386286" lon="9.350498672086458"><ele>437.0</ele><time>2026-04-09T13:24:39Z</time></trkpt><trkpt lat="39.40318575102722" lon="9.350610750756102"><ele>437.0</ele><time>2026-04-09T13:24:40Z</time></trkpt><trkpt lat="39.40322123397342" lon="9.350711752003399"><ele>437.0</ele><time>2026-04-09T13:24:41Z</time></trkpt><trkpt lat="39.403260766228456" lon="9.350827623864603"><ele>436.99999999999994</ele><time>2026-04-09T13:24:42Z</time></trkpt><trkpt lat="39.403260118402805" lon="9.35091969417675"><ele>437.0</ele><time>2026-04-09T13:24:44Z</time></trkpt><trkpt lat="39.40316213425247" lon="9.350985377549042"><ele>435.99999999999994</ele><time>2026-04-09T13:24:47Z</time></trkpt><trkpt lat="39.40309097819621" lon="9.35108721447542"><ele>435.0</ele><time>2026-04-09T13:24:49Z</time></trkpt><trkpt lat="39.40305455134926" lon="9.351158720594327"><ele>434.0</ele><time>2026-04-09T13:24:50Z</time></trkpt><trkpt lat="39.40301049173678" lon="9.351251075131517"><ele>433.0</ele><time>2026-04-09T13:24:51Z</time></trkpt><trkpt lat="39.40295487270226" lon="9.351319210977001"><ele>431.99999999999994</ele><time>2026-04-09T13:24:52Z</time></trkpt><trkpt lat="39.402887966951745" lon="9.351342888623266"><ele>431.0</ele><time>2026-04-09T13:24:53Z</time></trkpt><trkpt lat="39.40278873199087" lon="9.351353597271613"><ele>430.66666666666663</ele><time>2026-04-09T13:24:54Z</time></trkpt><trkpt lat="39.402652021905915" lon="9.351358807835465"><ele>430.33333333333337</ele><time>2026-04-09T13:24:55Z</time></trkpt><trkpt lat="39.40248959505729" lon="9.351363414394054"><ele>430.0</ele><time>2026-04-09T13:24:56Z</time></trkpt><trkpt lat="39.402315382313404" lon="9.351378944613886"><ele>430.0</ele><time>2026-04-09T13:24:57Z</time></trkpt><trkpt lat="39.402180906402194" lon="9.351391183865202"><ele>430.0</ele><time>2026-04-09T13:24:58Z</time></trkpt><trkpt lat="39.4020740551094" lon="9.351415667737799"><ele>430.0</ele><time>2026-04-09T13:24:59Z</time></trkpt><trkpt lat="39.40198904250782" lon="9.351451273485704"><ele>430.0</ele><time>2026-04-09T13:25:00Z</time></trkpt><trkpt lat="39.40190432713793" lon="9.351521393073321"><ele>430.0</ele><time>2026-04-09T13:25:01Z</time></trkpt><trkpt lat="39.40180971000396" lon="9.351616209982277"><ele>432.2</ele><time>2026-04-09T13:25:02Z</time></trkpt><trkpt lat="39.401720087142294" lon="9.351709259208178"><ele>434.4</ele><time>2026-04-09T13:25:03Z</time></trkpt><trkpt lat="39.401647790094856" lon="9.351794078520923"><ele>436.6</ele><time>2026-04-09T13:25:04Z</time></trkpt><trkpt lat="39.4015727490145" lon="9.351893213723612"><ele>438.8</ele><time>2026-04-09T13:25:05Z</time></trkpt><trkpt lat="39.40149023344474" lon="9.35199533630179"><ele>441.0</ele><time>2026-04-09T13:25:06Z</time></trkpt><trkpt lat="39.40142808731751" lon="9.352076143586329"><ele>441.0</ele><time>2026-04-09T13:25:07Z</time></trkpt><trkpt lat="39.40139588243707" lon="9.352168924125907"><ele>441.0</ele><time>2026-04-09T13:25:08Z</time></trkpt><trkpt lat="39.40136078760554" lon="9.352304371336663"><ele>441.0</ele><time>2026-04-09T13:25:09Z</time></trkpt><trkpt lat="39.40132464371544" lon="9.352420405655142"><ele>441.0</ele><time>2026-04-09T13:25:10Z</time></trkpt><trkpt lat="39.401266482833755" lon="9.35249037814569"><ele>441.0</ele><time>2026-04-09T13:25:11Z</time></trkpt><trkpt lat="39.40117316933121" lon="9.352574271925372"><ele>438.20000000000005</ele><time>2026-04-09T13:25:12Z</time></trkpt><trkpt lat="39.401064146145174" lon="9.352660776689405"><ele>435.40000000000003</ele><time>2026-04-09T13:25:13Z</time></trkpt><trkpt lat="39.40099236974672" lon="9.352725507681754"><ele>432.6</ele><time>2026-04-09T13:25:14Z</time></trkpt><trkpt lat="39.40093660352065" lon="9.352798055818669"><ele>429.8</ele><time>2026-04-09T13:25:15Z</time></trkpt><trkpt lat="39.40085836831095" lon="9.35291568514534"><ele>427.0</ele><time>2026-04-09T13:25:17Z</time></trkpt><trkpt lat="39.400778875434156" lon="9.352934821703588"><ele>427.00000000000006</ele><time>2026-04-09T13:25:18Z</time></trkpt><trkpt lat="39.40067923562309" lon="9.352925283883152"><ele>427.0</ele><time>2026-04-09T13:25:19Z</time></trkpt><trkpt lat="39.4005976220333" lon="9.352888896855703"><ele>427.0</ele><time>2026-04-09T13:25:20Z</time></trkpt><trkpt lat="39.40050228056632" lon="9.35285711127783"><ele>427.0</ele><time>2026-04-09T13:25:22Z</time></trkpt><trkpt lat="39.400476268166244" lon="9.35294306080165"><ele>427.00000000000006</ele><time>2026-04-09T13:25:24Z</time></trkpt><trkpt lat="39.40048815989487" lon="9.353056872798307"><ele>427.0</ele><time>2026-04-09T13:25:26Z</time></trkpt><trkpt lat="39.400532886072256" lon="9.35315337038803"><ele>425.85714285714283</ele><time>2026-04-09T13:25:27Z</time></trkpt><trkpt lat="39.40054681383905" lon="9.353250645908531"><ele>424.7142857142857</ele><time>2026-04-09T13:25:28Z</time></trkpt><trkpt lat="39.40053335473407" lon="9.353340546522306"><ele>423.57142857142856</ele><time>2026-04-09T13:25:29Z</time></trkpt><trkpt lat="39.40051626082541" lon="9.353421762041979"><ele>422.42857142857144</ele><time>2026-04-09T13:25:30Z</time></trkpt><trkpt lat="39.400483971719574" lon="9.353514970114501"><ele>421.2857142857143</ele><time>2026-04-09T13:25:32Z</time></trkpt><trkpt lat="39.400444005857054" lon="9.353580237387728"><ele>420.1428571428571</ele><time>2026-04-09T13:30:58.001Z</time></trkpt><trkpt lat="39.40038388666148" lon="9.353654948194837"><ele>419.0</ele><time>2026-04-09T13:31:00.001Z</time></trkpt><trkpt lat="39.40035816864382" lon="9.353739075330301"><ele>422.49999999999994</ele><time>2026-04-09T13:31:01.001Z</time></trkpt><trkpt lat="39.40033769635713" lon="9.35382311286719"><ele>426.0</ele><time>2026-04-09T13:31:02.001Z</time></trkpt><trkpt lat="39.4003192047662" lon="9.35391017665221"><ele>429.5</ele><time>2026-04-09T13:31:03.001Z</time></trkpt><trkpt lat="39.40032837977418" lon="9.354054030056254"><ele>433.0</ele><time>2026-04-09T13:31:05.001Z</time></trkpt><trkpt lat="39.40027873770084" lon="9.354136160484849"><ele>436.49999999999994</ele><time>2026-04-09T13:31:09.001Z</time></trkpt><trkpt lat="39.40021113409908" lon="9.354048320093332"><ele>440.0</ele><time>2026-04-09T13:31:11.001Z</time></trkpt><trkpt lat="39.400244600459075" lon="9.353916746893749"><ele>441.3333333333333</ele><time>2026-04-09T13:31:13.001Z</time></trkpt><trkpt lat="39.4002476731204" lon="9.353835046529031"><ele>442.66666666666663</ele><time>2026-04-09T13:31:14.001Z</time></trkpt><trkpt lat="39.40023147532665" lon="9.353718043657743"><ele>444.0</ele><time>2026-04-09T13:31:15.001Z</time></trkpt><trkpt lat="39.400212851711274" lon="9.35359708754295"><ele>445.33333333333337</ele><time>2026-04-09T13:31:16.001Z</time></trkpt><trkpt lat="39.40021478480542" lon="9.35349714789474"><ele>446.6666666666667</ele><time>2026-04-09T13:31:17.001Z</time></trkpt><trkpt lat="39.40023548216556" lon="9.353384596905245"><ele>448.0</ele><time>2026-04-09T13:31:18.001Z</time></trkpt><trkpt lat="39.400243750918825" lon="9.353268825685781"><ele>448.0</ele><time>2026-04-09T13:31:19.001Z</time></trkpt><trkpt lat="39.40023751250376" lon="9.353134793400264"><ele>447.99999999999994</ele><time>2026-04-09T13:31:20.001Z</time></trkpt><trkpt lat="39.4002222968993" lon="9.353021471761394"><ele>447.99999999999994</ele><time>2026-04-09T13:31:21.001Z</time></trkpt><trkpt lat="39.40021079754456" lon="9.352897731618231"><ele>448.0</ele><time>2026-04-09T13:31:22.001Z</time></trkpt><trkpt lat="39.40020438357067" lon="9.35275119902909"><ele>448.0</ele><time>2026-04-09T13:31:23.001Z</time></trkpt><trkpt lat="39.40019587471194" lon="9.35263317264043"><ele>447.83333333333337</ele><time>2026-04-09T13:31:24.001Z</time></trkpt><trkpt lat="39.40018028379602" lon="9.352516012091384"><ele>447.6666666666667</ele><time>2026-04-09T13:31:25.001Z</time></trkpt><trkpt lat="39.40017921219442" lon="9.352411150775628"><ele>447.5</ele><time>2026-04-09T13:31:26.001Z</time></trkpt><trkpt lat="39.400169830781365" lon="9.352319799789477"><ele>447.33333333333337</ele><time>2026-04-09T13:31:27.001Z</time></trkpt><trkpt lat="39.400145046374035" lon="9.352183160311906"><ele>447.1666666666667</ele><time>2026-04-09T13:31:29.001Z</time></trkpt><trkpt lat="39.4001055191208" lon="9.352111832428204"><ele>447.0</ele><time>2026-04-09T13:31:30.001Z</time></trkpt><trkpt lat="39.40005513713435" lon="9.35202730088144"><ele>446.3333333333333</ele><time>2026-04-09T13:31:31.001Z</time></trkpt><trkpt lat="39.39999067295515" lon="9.351954685239143"><ele>445.66666666666663</ele><time>2026-04-09T13:31:32.001Z</time></trkpt><trkpt lat="39.39992376833562" lon="9.351888269832282"><ele>445.0</ele><time>2026-04-09T13:31:33.001Z</time></trkpt><trkpt lat="39.39986816470493" lon="9.351821329242222"><ele>444.3333333333333</ele><time>2026-04-09T13:31:34.001Z</time></trkpt><trkpt lat="39.3998197435026" lon="9.351745839400374"><ele>443.66666666666663</ele><time>2026-04-09T13:31:35.001Z</time></trkpt><trkpt lat="39.399777931497155" lon="9.351638484007825"><ele>443.0</ele><time>2026-04-09T13:31:36.001Z</time></trkpt><trkpt lat="39.399736927873626" lon="9.35151543252878"><ele>442.99999999999994</ele><time>2026-04-09T13:31:37.001Z</time></trkpt><trkpt lat="39.39968993800373" lon="9.351401476910521"><ele>443.0</ele><time>2026-04-09T13:31:38.001Z</time></trkpt><trkpt lat="39.399655300235636" lon="9.351324094745149"><ele>443.0</ele><time>2026-04-09T13:31:39.001Z</time></trkpt><trkpt lat="39.39961420261857" lon="9.351261341022035"><ele>443.0</ele><time>2026-04-09T13:31:40.001Z</time></trkpt><trkpt lat="39.39954519486729" lon="9.35120071964758"><ele>442.99999999999994</ele><time>2026-04-09T13:31:41.001Z</time></trkpt><trkpt lat="39.39947501593309" lon="9.351117517151092"><ele>443.0</ele><time>2026-04-09T13:31:43.001Z</time></trkpt><trkpt lat="39.39948037336583" lon="9.350956824205106"><ele>445.0</ele><time>2026-04-09T13:31:45.001Z</time></trkpt><trkpt lat="39.399386926774525" lon="9.350812173295843"><ele>446.99999999999994</ele><time>2026-04-09T13:31:47.001Z</time></trkpt><trkpt lat="39.399337780206785" lon="9.350715089198687"><ele>448.99999999999994</ele><time>2026-04-09T13:31:48.001Z</time></trkpt><trkpt lat="39.39929315046805" lon="9.350620306560108"><ele>451.0</ele><time>2026-04-09T13:31:49.001Z</time></trkpt><trkpt lat="39.39924551187269" lon="9.350546197798014"><ele>453.0</ele><time>2026-04-09T13:31:50.001Z</time></trkpt><trkpt lat="39.399193788606" lon="9.350470272978486"><ele>453.0</ele><time>2026-04-09T13:31:51.001Z</time></trkpt><trkpt lat="39.399151570595414" lon="9.350390720660368"><ele>453.0</ele><time>2026-04-09T13:31:52.001Z</time></trkpt><trkpt lat="39.39910728340391" lon="9.350320850703465"><ele>453.0</ele><time>2026-04-09T13:31:54.001Z</time></trkpt><trkpt lat="39.399031313219666" lon="9.350315721318907"><ele>453.0</ele><time>2026-04-09T13:31:56.001Z</time></trkpt><trkpt lat="39.399014602985545" lon="9.350426323020113"><ele>453.0</ele><time>2026-04-09T13:31:58.001Z</time></trkpt><trkpt lat="39.39909726709552" lon="9.350546415286436"><ele>453.0</ele><time>2026-04-09T13:32:00.001Z</time></trkpt><trkpt lat="39.39914442814494" lon="9.350642929513178"><ele>454.79999999999995</ele><time>2026-04-09T13:32:01.001Z</time></trkpt><trkpt lat="39.399170133033486" lon="9.350753176292736"><ele>456.59999999999997</ele><time>2026-04-09T13:32:02.001Z</time></trkpt><trkpt lat="39.39918983991094" lon="9.350877510283446"><ele>458.40000000000003</ele><time>2026-04-09T13:32:03.001Z</time></trkpt><trkpt lat="39.39920050747868" lon="9.351010894354108"><ele>460.20000000000005</ele><time>2026-04-09T13:32:04.001Z</time></trkpt><trkpt lat="39.39919949398532" lon="9.351129049365259"><ele>462.0</ele><time>2026-04-09T13:32:05.001Z</time></trkpt><trkpt lat="39.39918726767641" lon="9.351219244950903"><ele>462.0</ele><time>2026-04-09T13:32:06.001Z</time></trkpt><trkpt lat="39.39916480912855" lon="9.351301177760318"><ele>462.0</ele><time>2026-04-09T13:32:07.001Z</time></trkpt><trkpt lat="39.39913052627837" lon="9.351406832235257"><ele>462.0</ele><time>2026-04-09T13:32:08.001Z</time></trkpt><trkpt lat="39.39909952129846" lon="9.351501117931093"><ele>462.0</ele><time>2026-04-09T13:32:09.001Z</time></trkpt><trkpt lat="39.39911997846391" lon="9.351586989427151"><ele>462.0</ele><time>2026-04-09T13:32:11.001Z</time></trkpt><trkpt lat="39.39921364286193" lon="9.351674538399848"><ele>462.0</ele><time>2026-04-09T13:32:13.001Z</time></trkpt><trkpt lat="39.3992631817654" lon="9.351738439944397"><ele>463.8</ele><time>2026-04-09T13:32:14.001Z</time></trkpt><trkpt lat="39.39932269237612" lon="9.351844810512102"><ele>465.6</ele><time>2026-04-09T13:32:15.001Z</time></trkpt><trkpt lat="39.39936642225396" lon="9.35196183737187"><ele>467.40000000000003</ele><time>2026-04-09T13:32:16.001Z</time></trkpt><trkpt lat="39.39940247002473" lon="9.352085539390863"><ele>469.20000000000005</ele><time>2026-04-09T13:32:17.001Z</time></trkpt><trkpt lat="39.39943722330332" lon="9.352220799957058"><ele>471.0</ele><time>2026-04-09T13:32:18.001Z</time></trkpt><trkpt lat="39.399463683341516" lon="9.352313768945377"><ele>471.0</ele><time>2026-04-09T13:32:19.001Z</time></trkpt><trkpt lat="39.39949377987823" lon="9.352412506823992"><ele>471.0</ele><time>2026-04-09T13:32:21.001Z</time></trkpt><trkpt lat="39.39944185711369" lon="9.35246458480121"><ele>471.0</ele><time>2026-04-09T13:32:23.001Z</time></trkpt><trkpt lat="39.39937550470401" lon="9.352449752793865"><ele>471.0</ele><time>2026-04-09T13:32:25.001Z</time></trkpt><trkpt lat="39.39934361972836" lon="9.352312529661088"><ele>471.0</ele><time>2026-04-09T13:32:27.001Z</time></trkpt><trkpt lat="39.39931674673668" lon="9.352218223337022"><ele>471.0</ele><time>2026-04-09T13:32:28.001Z</time></trkpt><trkpt lat="39.39926856879228" lon="9.352149952131331"><ele>471.0</ele><time>2026-04-09T13:32:29.001Z</time></trkpt><trkpt lat="39.399190947696454" lon="9.352086581552262"><ele>471.0</ele><time>2026-04-09T13:32:30.001Z</time></trkpt><trkpt lat="39.39910080065295" lon="9.352031962342116"><ele>471.0</ele><time>2026-04-09T13:32:31.001Z</time></trkpt><trkpt lat="39.39902126471808" lon="9.351988838065772"><ele>471.0</ele><time>2026-04-09T13:32:32.002Z</time></trkpt><trkpt lat="39.39895215642122" lon="9.351947874882454"><ele>471.0</ele><time>2026-04-09T13:32:33.002Z</time></trkpt><trkpt lat="39.39888021595663" lon="9.351911951211065"><ele>471.0</ele><time>2026-04-09T13:32:34.002Z</time></trkpt><trkpt lat="39.398810254505854" lon="9.351853304518905"><ele>474.20000000000005</ele><time>2026-04-09T13:32:35.002Z</time></trkpt><trkpt lat="39.39875612948577" lon="9.351780507215556"><ele>477.40000000000003</ele><time>2026-04-09T13:32:36.002Z</time></trkpt><trkpt lat="39.398718818444124" lon="9.35170425890987"><ele>480.6</ele><time>2026-04-09T13:32:37.002Z</time></trkpt><trkpt lat="39.39869150088454" lon="9.351619130400938"><ele>483.8</ele><time>2026-04-09T13:32:38.002Z</time></trkpt><trkpt lat="39.398642771430346" lon="9.351476355809801"><ele>487.0</ele><time>2026-04-09T13:32:40.002Z</time></trkpt><trkpt lat="39.398653330277085" lon="9.351326693881695"><ele>487.0</ele><time>2026-04-09T13:32:42.002Z</time></trkpt><trkpt lat="39.39865236352039" lon="9.351192553470822"><ele>487.00000000000006</ele><time>2026-04-09T13:32:44.002Z</time></trkpt><trkpt lat="39.398627814755656" lon="9.35102377650568"><ele>487.00000000000006</ele><time>2026-04-09T13:32:46.002Z</time></trkpt><trkpt lat="39.39859816211945" lon="9.350943314648067"><ele>487.0</ele><time>2026-04-09T13:32:47.002Z</time></trkpt><trkpt lat="39.39856381943143" lon="9.350873552144844"><ele>487.0</ele><time>2026-04-09T13:32:48.002Z</time></trkpt><trkpt lat="39.398470607876995" lon="9.350774035798514"><ele>487.0</ele><time>2026-04-09T13:32:50.002Z</time></trkpt><trkpt lat="39.39836597840014" lon="9.350682243709656"><ele>487.00000000000006</ele><time>2026-04-09T13:32:52Z</time></trkpt><trkpt lat="39.39829715659924" lon="9.350648871726369"><ele>487.00000000000006</ele><time>2026-04-09T13:32:53Z</time></trkpt><trkpt lat="39.39822089280369" lon="9.350612981295583"><ele>487.0</ele><time>2026-04-09T13:32:54Z</time></trkpt><trkpt lat="39.398138056104926" lon="9.350567159197784"><ele>487.0</ele><time>2026-04-09T13:32:55Z</time></trkpt><trkpt lat="39.39806725915984" lon="9.350516438001666"><ele>486.1666666666667</ele><time>2026-04-09T13:32:56Z</time></trkpt><trkpt lat="39.398015566437145" lon="9.350456748196667"><ele>485.33333333333337</ele><time>2026-04-09T13:32:57Z</time></trkpt><trkpt lat="39.397972346371965" lon="9.350383636987827"><ele>484.5</ele><time>2026-04-09T13:32:58Z</time></trkpt><trkpt lat="39.39792012609294" lon="9.350291791759203"><ele>483.66666666666663</ele><time>2026-04-09T13:32:59Z</time></trkpt><trkpt lat="39.39787618465033" lon="9.350199759193412"><ele>482.8333333333333</ele><time>2026-04-09T13:33:00Z</time></trkpt><trkpt lat="39.39782386670363" lon="9.350110373422462"><ele>482.0</ele><time>2026-04-09T13:33:01Z</time></trkpt><trkpt lat="39.39773962950773" lon="9.34999978012652"><ele>484.66666666666663</ele><time>2026-04-09T13:33:02Z</time></trkpt><trkpt lat="39.39765889753104" lon="9.349896464104877"><ele>487.3333333333333</ele><time>2026-04-09T13:33:03Z</time></trkpt><trkpt lat="39.397595055337504" lon="9.349817644606365"><ele>490.0</ele><time>2026-04-09T13:33:04Z</time></trkpt><trkpt lat="39.39752849480172" lon="9.349755338246913"><ele>492.66666666666663</ele><time>2026-04-09T13:33:05Z</time></trkpt><trkpt lat="39.39746368254517" lon="9.349702267791086"><ele>495.3333333333333</ele><time>2026-04-09T13:33:06Z</time></trkpt><trkpt lat="39.397402445601124" lon="9.349635044253867"><ele>498.0</ele><time>2026-04-09T13:33:07Z</time></trkpt><trkpt lat="39.397357545482684" lon="9.349554884020504"><ele>498.6666666666667</ele><time>2026-04-09T13:33:08Z</time></trkpt><trkpt lat="39.397343967107886" lon="9.349431047734756"><ele>499.33333333333337</ele><time>2026-04-09T13:33:10Z</time></trkpt><trkpt lat="39.39735408973691" lon="9.349344640588443"><ele>500.0</ele><time>2026-04-09T13:33:11Z</time></trkpt><trkpt lat="39.3973778560276" lon="9.349250202614828"><ele>500.6666666666667</ele><time>2026-04-09T13:33:12Z</time></trkpt><trkpt lat="39.39739914936503" lon="9.349166492474321"><ele>501.33333333333337</ele><time>2026-04-09T13:33:13Z</time></trkpt><trkpt lat="39.39735595656642" lon="9.349060275862362"><ele>502.0</ele><time>2026-04-09T13:33:15Z</time></trkpt><trkpt lat="39.39724766377201" lon="9.349025329940558"><ele>504.8</ele><time>2026-04-09T13:33:17Z</time></trkpt><trkpt lat="39.39712828087584" lon="9.349056474122104"><ele>507.6</ele><time>2026-04-09T13:33:19Z</time></trkpt><trkpt lat="39.39706502500919" lon="9.349090191623338"><ele>510.40000000000003</ele><time>2026-04-09T13:33:20Z</time></trkpt><trkpt lat="39.39695795517385" lon="9.34915441781364"><ele>513.2</ele><time>2026-04-09T13:33:22Z</time></trkpt><trkpt lat="39.39686391604721" lon="9.349213007217218"><ele>516.0</ele><time>2026-04-09T13:33:24Z</time></trkpt><trkpt lat="39.39676994526145" lon="9.34920189292394"><ele>516.0</ele><time>2026-04-09T13:33:26Z</time></trkpt><trkpt lat="39.39667756814272" lon="9.349112064419055"><ele>516.0</ele><time>2026-04-09T13:33:28Z</time></trkpt><trkpt lat="39.396600980504246" lon="9.349025559385861"><ele>516.0</ele><time>2026-04-09T13:33:30Z</time></trkpt><trkpt lat="39.39651117128295" lon="9.349044001361092"><ele>516.0</ele><time>2026-04-09T13:33:32Z</time></trkpt><trkpt lat="39.39642838210396" lon="9.349160564934106"><ele>516.0</ele><time>2026-04-09T13:33:34Z</time></trkpt><trkpt lat="39.39635471941712" lon="9.349283013710254"><ele>518.8</ele><time>2026-04-09T13:33:36Z</time></trkpt><trkpt lat="39.39631637055267" lon="9.34935037136577"><ele>521.6</ele><time>2026-04-09T13:33:37Z</time></trkpt><trkpt lat="39.396270514251604" lon="9.349417837682013"><ele>524.4</ele><time>2026-04-09T13:33:38Z</time></trkpt><trkpt lat="39.396190234086205" lon="9.349505974473326"><ele>527.2</ele><time>2026-04-09T13:33:40Z</time></trkpt><trkpt lat="39.39610050892794" lon="9.34959719626894"><ele>530.0</ele><time>2026-04-09T13:33:42Z</time></trkpt><trkpt lat="39.39599578834037" lon="9.349688810847503"><ele>530.0</ele><time>2026-04-09T13:33:44Z</time></trkpt><trkpt lat="39.395935004997924" lon="9.349722378034924"><ele>530.0</ele><time>2026-04-09T13:33:45Z</time></trkpt><trkpt lat="39.3958703294155" lon="9.349740465317836"><ele>530.0</ele><time>2026-04-09T13:33:46.001Z</time></trkpt><trkpt lat="39.39580568777259" lon="9.349757494485882"><ele>530.0</ele><time>2026-04-09T13:33:47.001Z</time></trkpt><trkpt lat="39.395706195062196" lon="9.349711398680066"><ele>530.0</ele><time>2026-04-09T13:33:49.001Z</time></trkpt><trkpt lat="39.3956513096041" lon="9.349579597350752"><ele>530.0</ele><time>2026-04-09T13:33:51.001Z</time></trkpt><trkpt lat="39.39564801271876" lon="9.34949622018488"><ele>530.0</ele><time>2026-04-09T13:33:52.001Z</time></trkpt><trkpt lat="39.395656071270736" lon="9.349398523788302"><ele>530.0</ele><time>2026-04-09T13:33:53.001Z</time></trkpt><trkpt lat="39.39566932503324" lon="9.349288281663949"><ele>530.0</ele><time>2026-04-09T13:33:54.001Z</time></trkpt><trkpt lat="39.395677315572364" lon="9.349178024286996"><ele>530.0</ele><time>2026-04-09T13:33:55.001Z</time></trkpt><trkpt lat="39.39568370174652" lon="9.349061646205262"><ele>530.0</ele><time>2026-04-09T13:33:56.001Z</time></trkpt><trkpt lat="39.39568912991885" lon="9.348929376526318"><ele>530.0</ele><time>2026-04-09T13:33:57.001Z</time></trkpt><trkpt lat="39.39570454428072" lon="9.348820889671627"><ele>531.1666666666666</ele><time>2026-04-09T13:33:58.001Z</time></trkpt><trkpt lat="39.395722693982975" lon="9.348717329015118"><ele>532.3333333333333</ele><time>2026-04-09T13:33:59.001Z</time></trkpt><trkpt lat="39.39574936602742" lon="9.348625988081498"><ele>533.5</ele><time>2026-04-09T13:34:00.001Z</time></trkpt><trkpt lat="39.3957828342349" lon="9.348537519529511"><ele>534.6666666666666</ele><time>2026-04-09T13:34:01.001Z</time></trkpt><trkpt lat="39.39581964339886" lon="9.348431736561688"><ele>535.8333333333334</ele><time>2026-04-09T13:34:02.001Z</time></trkpt><trkpt lat="39.395849590148764" lon="9.348354492257137"><ele>537.0</ele><time>2026-04-09T13:34:03.001Z</time></trkpt><trkpt lat="39.39588654202662" lon="9.348268428604648"><ele>537.0</ele><time>2026-04-09T13:34:04.001Z</time></trkpt><trkpt lat="39.395927529311145" lon="9.348193421870885"><ele>537.0</ele><time>2026-04-09T13:34:05.001Z</time></trkpt><trkpt lat="39.39596716576935" lon="9.348124228300152"><ele>537.0</ele><time>2026-04-09T13:34:06.001Z</time></trkpt><trkpt lat="39.39600417269419" lon="9.348027757856126"><ele>537.0</ele><time>2026-04-09T13:34:07.001Z</time></trkpt><trkpt lat="39.396045659375" lon="9.347915116738166"><ele>537.0</ele><time>2026-04-09T13:34:08.001Z</time></trkpt><trkpt lat="39.396070242151154" lon="9.347802565264411"><ele>537.0</ele><time>2026-04-09T13:34:09.001Z</time></trkpt><trkpt lat="39.39608772000913" lon="9.347702714451682"><ele>537.3333333333334</ele><time>2026-04-09T13:34:10.001Z</time></trkpt><trkpt lat="39.396108566911195" lon="9.347598486889641"><ele>537.6666666666666</ele><time>2026-04-09T13:34:11.001Z</time></trkpt><trkpt lat="39.39612948050236" lon="9.347498243302542"><ele>538.0</ele><time>2026-04-09T13:34:12.001Z</time></trkpt><trkpt lat="39.39615462889685" lon="9.347395020825397"><ele>538.3333333333333</ele><time>2026-04-09T13:34:13.001Z</time></trkpt><trkpt lat="39.39618685386002" lon="9.347278007336415"><ele>538.6666666666666</ele><time>2026-04-09T13:34:14.001Z</time></trkpt><trkpt lat="39.39622846553668" lon="9.347170234611857"><ele>539.0</ele><time>2026-04-09T13:34:15.001Z</time></trkpt><trkpt lat="39.396269390716405" lon="9.347076044098834"><ele>540.0</ele><time>2026-04-09T13:34:16.001Z</time></trkpt><trkpt lat="39.39631948494223" lon="9.346960612736888"><ele>541.0</ele><time>2026-04-09T13:34:17.001Z</time></trkpt><trkpt lat="39.396352285720226" lon="9.346867085354429"><ele>542.0</ele><time>2026-04-09T13:34:18.001Z</time></trkpt><trkpt lat="39.39637794510102" lon="9.346780073446913"><ele>543.0</ele><time>2026-04-09T13:34:19.001Z</time></trkpt><trkpt lat="39.39639791169117" lon="9.34669046238295"><ele>544.0</ele><time>2026-04-09T13:34:20.001Z</time></trkpt><trkpt lat="39.39641872563611" lon="9.346587947210073"><ele>545.0</ele><time>2026-04-09T13:34:21.001Z</time></trkpt><trkpt lat="39.39644166031629" lon="9.346483911072438"><ele>545.1666666666666</ele><time>2026-04-09T13:34:22.001Z</time></trkpt><trkpt lat="39.39645463395714" lon="9.346388598717992"><ele>545.3333333333333</ele><time>2026-04-09T13:34:23.001Z</time></trkpt><trkpt lat="39.39645074680143" lon="9.346286896752313"><ele>545.5</ele><time>2026-04-09T13:34:24.001Z</time></trkpt><trkpt lat="39.3964401910686" lon="9.346172654164532"><ele>545.6666666666666</ele><time>2026-04-09T13:34:25.001Z</time></trkpt><trkpt lat="39.39643370721378" lon="9.346049706117892"><ele>545.8333333333334</ele><time>2026-04-09T13:34:26.001Z</time></trkpt><trkpt lat="39.396428861845735" lon="9.345939326022167"><ele>546.0</ele><time>2026-04-09T13:34:27.001Z</time></trkpt><trkpt lat="39.39642385727154" lon="9.345834781734824"><ele>545.3333333333334</ele><time>2026-04-09T13:34:28.001Z</time></trkpt><trkpt lat="39.39641659171893" lon="9.34572914114758"><ele>544.6666666666666</ele><time>2026-04-09T13:34:29.001Z</time></trkpt><trkpt lat="39.39640095793368" lon="9.345646083479888"><ele>544.0</ele><time>2026-04-09T13:34:30.001Z</time></trkpt><trkpt lat="39.39637461497014" lon="9.345542164295603"><ele>543.3333333333333</ele><time>2026-04-09T13:34:31.001Z</time></trkpt><trkpt lat="39.39633093215084" lon="9.345435338251312"><ele>542.6666666666666</ele><time>2026-04-09T13:34:32.001Z</time></trkpt><trkpt lat="39.39627528917322" lon="9.345342439647782"><ele>542.0</ele><time>2026-04-09T13:34:33.001Z</time></trkpt><trkpt lat="39.39622663414591" lon="9.345225281429418"><ele>544.6666666666666</ele><time>2026-04-09T13:34:34.001Z</time></trkpt><trkpt lat="39.39620331551006" lon="9.345105789814248"><ele>547.3333333333333</ele><time>2026-04-09T13:34:35.001Z</time></trkpt><trkpt lat="39.39619134906404" lon="9.344988071525266"><ele>550.0</ele><time>2026-04-09T13:34:36.001Z</time></trkpt><trkpt lat="39.39616676441089" lon="9.344888026333448"><ele>552.6666666666666</ele><time>2026-04-09T13:34:37.001Z</time></trkpt><trkpt lat="39.39613131143196" lon="9.344808337521114"><ele>555.3333333333334</ele><time>2026-04-09T13:34:38.001Z</time></trkpt><trkpt lat="39.39607850135448" lon="9.344753246456197"><ele>558.0</ele><time>2026-04-09T13:34:39.001Z</time></trkpt><trkpt lat="39.39601829958148" lon="9.344728894740786"><ele>558.0</ele><time>2026-04-09T13:34:40.001Z</time></trkpt><trkpt lat="39.395954294281246" lon="9.344739909052516"><ele>558.0</ele><time>2026-04-09T13:34:41.001Z</time></trkpt><trkpt lat="39.39584796057233" lon="9.344826590287274"><ele>558.0</ele><time>2026-04-09T13:34:43.001Z</time></trkpt><trkpt lat="39.39579421744361" lon="9.34489879504474"><ele>558.0</ele><time>2026-04-09T13:34:44.001Z</time></trkpt><trkpt lat="39.39572527824832" lon="9.345016956547443"><ele>558.0</ele><time>2026-04-09T13:34:46.001Z</time></trkpt><trkpt lat="39.395677427005715" lon="9.345077054301782"><ele>558.0</ele><time>2026-04-09T13:34:47.001Z</time></trkpt><trkpt lat="39.39561163987816" lon="9.345085171844078"><ele>558.0</ele><time>2026-04-09T13:34:48.001Z</time></trkpt><trkpt lat="39.395532518540634" lon="9.345074893843922"><ele>558.0</ele><time>2026-04-09T13:34:49.001Z</time></trkpt><trkpt lat="39.39544700342842" lon="9.345080486628829"><ele>558.0</ele><time>2026-04-09T13:34:50.001Z</time></trkpt><trkpt lat="39.395372539702464" lon="9.34510769088969"><ele>558.0</ele><time>2026-04-09T13:34:51.001Z</time></trkpt><trkpt lat="39.39530766817523" lon="9.345142537927872"><ele>558.0</ele><time>2026-04-09T13:34:52.001Z</time></trkpt><trkpt lat="39.39524150761039" lon="9.345175003331116"><ele>558.0</ele><time>2026-04-09T13:34:53.001Z</time></trkpt><trkpt lat="39.395167617403814" lon="9.345208568709232"><ele>560.3333333333334</ele><time>2026-04-09T13:34:54.001Z</time></trkpt><trkpt lat="39.395107404807" lon="9.345243875903888"><ele>562.6666666666666</ele><time>2026-04-09T13:34:55.001Z</time></trkpt><trkpt lat="39.39504562612449" lon="9.345272829316386"><ele>565.0</ele><time>2026-04-09T13:34:56.001Z</time></trkpt><trkpt lat="39.3949777871712" lon="9.345309013535477"><ele>567.3333333333333</ele><time>2026-04-09T13:34:57.001Z</time></trkpt><trkpt lat="39.39491594952315" lon="9.345351779581842"><ele>569.6666666666666</ele><time>2026-04-09T13:34:58Z</time></trkpt><trkpt lat="39.39479845480142" lon="9.345376206197743"><ele>572.0</ele><time>2026-04-09T13:35:00Z</time></trkpt><trkpt lat="39.394719571597335" lon="9.345371737742383"><ele>574.8333333333333</ele><time>2026-04-09T13:35:01Z</time></trkpt><trkpt lat="39.39465210144841" lon="9.345366799521038"><ele>577.6666666666666</ele><time>2026-04-09T13:35:02Z</time></trkpt><trkpt lat="39.39455732056352" lon="9.345379627049967"><ele>580.5</ele><time>2026-04-09T13:35:04Z</time></trkpt><trkpt lat="39.39449200717988" lon="9.345406741454116"><ele>583.3333333333334</ele><time>2026-04-09T13:35:05Z</time></trkpt><trkpt lat="39.39440539189528" lon="9.345449986256854"><ele>586.1666666666667</ele><time>2026-04-09T13:35:06Z</time></trkpt><trkpt lat="39.394300007711486" lon="9.345510333260808"><ele>589.0</ele><time>2026-04-09T13:35:08Z</time></trkpt><trkpt lat="39.394239229774925" lon="9.345544201668947"><ele>585.4</ele><time>2026-04-09T13:35:10Z</time></trkpt><trkpt lat="39.39415430255971" lon="9.345639778559725"><ele>581.8</ele><time>2026-04-09T13:39:51.001Z</time></trkpt><trkpt lat="39.39409483217607" lon="9.345691145439025"><ele>578.2</ele><time>2026-04-09T13:39:52.001Z</time></trkpt><trkpt lat="39.3940391274646" lon="9.34575060122107"><ele>574.6</ele><time>2026-04-09T13:39:53.001Z</time></trkpt><trkpt lat="39.39395618107692" lon="9.345856408316834"><ele>571.0</ele><time>2026-04-09T13:39:55.001Z</time></trkpt><trkpt lat="39.39388293003137" lon="9.345992967599852"><ele>571.0</ele><time>2026-04-09T13:39:57.001Z</time></trkpt><trkpt lat="39.39384225591726" lon="9.346083468695761"><ele>571.0</ele><time>2026-04-09T13:39:58.001Z</time></trkpt><trkpt lat="39.393795548383004" lon="9.346172401841844"><ele>571.0</ele><time>2026-04-09T13:39:59.001Z</time></trkpt><trkpt lat="39.393742093597425" lon="9.346273699195757"><ele>571.0</ele><time>2026-04-09T13:40:00.001Z</time></trkpt><trkpt lat="39.3936903253353" lon="9.346383867579247"><ele>571.0</ele><time>2026-04-09T13:40:01.001Z</time></trkpt><trkpt lat="39.39365711460096" lon="9.346461956745037"><ele>571.0</ele><time>2026-04-09T13:40:02.001Z</time></trkpt><trkpt lat="39.393614093995396" lon="9.34656995390886"><ele>574.75</ele><time>2026-04-09T13:40:04.001Z</time></trkpt><trkpt lat="39.39352101107318" lon="9.346690862843843"><ele>578.5</ele><time>2026-04-09T13:40:06.001Z</time></trkpt><trkpt lat="39.393450036561916" lon="9.346828230600254"><ele>582.25</ele><time>2026-04-09T13:40:08.001Z</time></trkpt><trkpt lat="39.3934095942906" lon="9.346946431821166"><ele>586.0</ele><time>2026-04-09T13:40:09.001Z</time></trkpt><trkpt lat="39.39337421472477" lon="9.347069329243514"><ele>586.0</ele><time>2026-04-09T13:40:10.001Z</time></trkpt><trkpt lat="39.3933470194548" lon="9.347186238888154"><ele>586.0</ele><time>2026-04-09T13:40:11.001Z</time></trkpt><trkpt lat="39.393314310442896" lon="9.34727366472535"><ele>586.0</ele><time>2026-04-09T13:40:12.001Z</time></trkpt><trkpt lat="39.39327137404995" lon="9.347338699247572"><ele>586.0</ele><time>2026-04-09T13:40:13.001Z</time></trkpt><trkpt lat="39.393218400563036" lon="9.347406323086952"><ele>586.0</ele><time>2026-04-09T13:40:14.001Z</time></trkpt><trkpt lat="39.393151608103615" lon="9.34748778253733"><ele>586.0</ele><time>2026-04-09T13:40:15.001Z</time></trkpt><trkpt lat="39.39309677415835" lon="9.347574582315373"><ele>587.5</ele><time>2026-04-09T13:40:16.001Z</time></trkpt><trkpt lat="39.39304260861" lon="9.347668652565769"><ele>589.0</ele><time>2026-04-09T13:40:17.001Z</time></trkpt><trkpt lat="39.392986402392026" lon="9.347757321553024"><ele>590.5</ele><time>2026-04-09T13:40:18.001Z</time></trkpt><trkpt lat="39.39293209317911" lon="9.347842056557777"><ele>592.0</ele><time>2026-04-09T13:40:19.001Z</time></trkpt><trkpt lat="39.39287535886272" lon="9.347926600906366"><ele>593.5</ele><time>2026-04-09T13:40:20.001Z</time></trkpt><trkpt lat="39.392813026391174" lon="9.348014144382631"><ele>595.0</ele><time>2026-04-09T13:40:21.001Z</time></trkpt><trkpt lat="39.39275268809801" lon="9.348092522773413"><ele>591.0</ele><time>2026-04-09T13:40:22.001Z</time></trkpt><trkpt lat="39.392687354061856" lon="9.348171178162495"><ele>587.0</ele><time>2026-04-09T13:40:23.001Z</time></trkpt><trkpt lat="39.39261169026693" lon="9.348260186448533"><ele>583.0</ele><time>2026-04-09T13:40:24.001Z</time></trkpt><trkpt lat="39.39253444877276" lon="9.34834266020432"><ele>579.0</ele><time>2026-04-09T13:40:25.001Z</time></trkpt><trkpt lat="39.392457878315724" lon="9.34842743889229"><ele>575.0</ele><time>2026-04-09T13:40:26.001Z</time></trkpt><trkpt lat="39.39238752742984" lon="9.348493329197195"><ele>575.0</ele><time>2026-04-09T13:40:27.001Z</time></trkpt><trkpt lat="39.39231130820482" lon="9.348569009717162"><ele>575.0</ele><time>2026-04-09T13:40:28.001Z</time></trkpt><trkpt lat="39.392243473666724" lon="9.348646873925523"><ele>575.0</ele><time>2026-04-09T13:40:29.001Z</time></trkpt><trkpt lat="39.39217511342625" lon="9.348719937068207"><ele>575.0</ele><time>2026-04-09T13:40:30.001Z</time></trkpt><trkpt lat="39.39209721126995" lon="9.348794615530888"><ele>575.0</ele><time>2026-04-09T13:40:31.001Z</time></trkpt><trkpt lat="39.3920174878649" lon="9.348873394916899"><ele>573.0</ele><time>2026-04-09T13:40:32.001Z</time></trkpt><trkpt lat="39.39194445558534" lon="9.348949894041223"><ele>571.0</ele><time>2026-04-09T13:40:33.001Z</time></trkpt><trkpt lat="39.39187281297947" lon="9.349017670850598"><ele>569.0</ele><time>2026-04-09T13:40:34.001Z</time></trkpt><trkpt lat="39.391788693942935" lon="9.34909185743877"><ele>567.0</ele><time>2026-04-09T13:40:35.001Z</time></trkpt><trkpt lat="39.391708687398754" lon="9.349162389556266"><ele>565.0</ele><time>2026-04-09T13:40:36.001Z</time></trkpt><trkpt lat="39.39164283321487" lon="9.349208125133762"><ele>565.0</ele><time>2026-04-09T13:40:37.001Z</time></trkpt><trkpt lat="39.39156641084353" lon="9.349237505033667"><ele>565.0</ele><time>2026-04-09T13:40:38.001Z</time></trkpt><trkpt lat="39.39147494109593" lon="9.34925317402553"><ele>565.0</ele><time>2026-04-09T13:40:39.001Z</time></trkpt><trkpt lat="39.391364581528556" lon="9.349256266507656"><ele>565.0</ele><time>2026-04-09T13:40:40.001Z</time></trkpt><trkpt lat="39.39125771840953" lon="9.34926326837356"><ele>565.0</ele><time>2026-04-09T13:40:41.001Z</time></trkpt><trkpt lat="39.39115595208036" lon="9.349274286351564"><ele>564.5</ele><time>2026-04-09T13:40:42.001Z</time></trkpt><trkpt lat="39.39106314695573" lon="9.349293626305338"><ele>564.0</ele><time>2026-04-09T13:40:43.001Z</time></trkpt><trkpt lat="39.39097848000054" lon="9.349320638197126"><ele>563.5</ele><time>2026-04-09T13:40:44.001Z</time></trkpt><trkpt lat="39.39090026377494" lon="9.349347629383635"><ele>563.0</ele><time>2026-04-09T13:40:45.001Z</time></trkpt><trkpt lat="39.39081280564044" lon="9.349372174900706"><ele>562.5</ele><time>2026-04-09T13:40:46.001Z</time></trkpt><trkpt lat="39.39072208474042" lon="9.349403832063514"><ele>562.0</ele><time>2026-04-09T13:40:47.001Z</time></trkpt><trkpt lat="39.39064022293586" lon="9.349445534610695"><ele>562.0</ele><time>2026-04-09T13:40:48.001Z</time></trkpt><trkpt lat="39.390578324039005" lon="9.349503514816405"><ele>562.0</ele><time>2026-04-09T13:40:49.001Z</time></trkpt><trkpt lat="39.39052398208808" lon="9.349575747019394"><ele>562.0</ele><time>2026-04-09T13:40:50.001Z</time></trkpt><trkpt lat="39.39047402563143" lon="9.349630671456852"><ele>562.0</ele><time>2026-04-09T13:40:51.001Z</time></trkpt><trkpt lat="39.39037248784145" lon="9.349667340124803"><ele>562.0</ele><time>2026-04-09T13:40:53.001Z</time></trkpt><trkpt lat="39.39028120721727" lon="9.349719353984016"><ele>562.0</ele><time>2026-04-09T13:40:55.002Z</time></trkpt><trkpt lat="39.39021610881878" lon="9.349816974719403"><ele>557.2</ele><time>2026-04-09T13:40:57.002Z</time></trkpt><trkpt lat="39.3901747010023" lon="9.349987387707872"><ele>552.4000000000001</ele><time>2026-04-09T13:40:59.002Z</time></trkpt><trkpt lat="39.39012387648037" lon="9.350084887595434"><ele>547.5999999999999</ele><time>2026-04-09T13:41:00.002Z</time></trkpt><trkpt lat="39.39008500467741" lon="9.35018667774679"><ele>542.8</ele><time>2026-04-09T13:41:01.002Z</time></trkpt><trkpt lat="39.39004180911276" lon="9.350290017247652"><ele>538.0</ele><time>2026-04-09T13:41:02.002Z</time></trkpt><trkpt lat="39.38998481969906" lon="9.350405642329664"><ele>538.0</ele><time>2026-04-09T13:41:03.002Z</time></trkpt><trkpt lat="39.38992301597163" lon="9.350512575381044"><ele>538.0</ele><time>2026-04-09T13:41:04.002Z</time></trkpt><trkpt lat="39.38986010967966" lon="9.350595694000539"><ele>538.0</ele><time>2026-04-09T13:41:05.002Z</time></trkpt><trkpt lat="39.38979012660309" lon="9.350665414433076"><ele>538.0</ele><time>2026-04-09T13:41:06.002Z</time></trkpt><trkpt lat="39.38971343118668" lon="9.350745434391088"><ele>538.0</ele><time>2026-04-09T13:41:07.002Z</time></trkpt><trkpt lat="39.38964722279975" lon="9.35082933488546"><ele>532.6</ele><time>2026-04-09T13:41:08.002Z</time></trkpt><trkpt lat="39.38958799502359" lon="9.350935486934421"><ele>527.1999999999999</ele><time>2026-04-09T13:41:09.002Z</time></trkpt><trkpt lat="39.38952953902952" lon="9.351058088438188"><ele>521.8</ele><time>2026-04-09T13:41:10.002Z</time></trkpt><trkpt lat="39.38947085886158" lon="9.351180084403584"><ele>516.4</ele><time>2026-04-09T13:41:11.002Z</time></trkpt><trkpt lat="39.38941335642749" lon="9.351291287451915"><ele>511.0</ele><time>2026-04-09T13:41:12.002Z</time></trkpt><trkpt lat="39.38935625293113" lon="9.351373489850918"><ele>515.2</ele><time>2026-04-09T13:41:13.002Z</time></trkpt><trkpt lat="39.389299718358984" lon="9.351429510298743"><ele>519.4000000000001</ele><time>2026-04-09T13:41:14.002Z</time></trkpt><trkpt lat="39.38917328199385" lon="9.351432696867535"><ele>523.6</ele><time>2026-04-09T13:41:16Z</time></trkpt><trkpt lat="39.38907858614438" lon="9.351468998784794"><ele>527.8000000000001</ele><time>2026-04-09T13:41:17Z</time></trkpt><trkpt lat="39.38898814053823" lon="9.35153126577402"><ele>532.0</ele><time>2026-04-09T13:41:18Z</time></trkpt><trkpt lat="39.38891021435167" lon="9.351594771121867"><ele>526.0</ele><time>2026-04-09T13:41:19Z</time></trkpt><trkpt lat="39.38884119285095" lon="9.351686756025858"><ele>520.0</ele><time>2026-04-09T13:41:20Z</time></trkpt><trkpt lat="39.38879215972935" lon="9.351779937255046"><ele>514.0</ele><time>2026-04-09T13:41:21Z</time></trkpt><trkpt lat="39.38876618915087" lon="9.35189599139238"><ele>508.0</ele><time>2026-04-09T13:41:22Z</time></trkpt><trkpt lat="39.38873484554547" lon="9.352011930308576"><ele>502.0</ele><time>2026-04-09T13:41:23Z</time></trkpt><trkpt lat="39.38870008860915" lon="9.35210749617979"><ele>502.00000000000006</ele><time>2026-04-09T13:41:24Z</time></trkpt><trkpt lat="39.38868064732431" lon="9.352195581362379"><ele>502.0</ele><time>2026-04-09T13:41:25Z</time></trkpt><trkpt lat="39.388658531271034" lon="9.352275101005185"><ele>502.0</ele><time>2026-04-09T13:41:26Z</time></trkpt><trkpt lat="39.38857879412588" lon="9.352379873550273"><ele>502.0</ele><time>2026-04-09T13:41:28Z</time></trkpt><trkpt lat="39.38850677046467" lon="9.352337994215166"><ele>502.00000000000006</ele><time>2026-04-09T13:41:29Z</time></trkpt><trkpt lat="39.38844309744247" lon="9.352279557693038"><ele>502.0</ele><time>2026-04-09T13:41:30Z</time></trkpt><trkpt lat="39.38834337874106" lon="9.352232408791517"><ele>502.00000000000006</ele><time>2026-04-09T13:41:31Z</time></trkpt><trkpt lat="39.3882659243742" lon="9.352200873785995"><ele>502.0</ele><time>2026-04-09T13:41:32Z</time></trkpt><trkpt lat="39.38819341598492" lon="9.352186381099248"><ele>502.0</ele><time>2026-04-09T13:41:33Z</time></trkpt><trkpt lat="39.38812602328243" lon="9.352174879990553"><ele>502.0</ele><time>2026-04-09T13:41:34Z</time></trkpt><trkpt lat="39.38805261582286" lon="9.352169721732256"><ele>502.00000000000006</ele><time>2026-04-09T13:41:35Z</time></trkpt><trkpt lat="39.38796528368441" lon="9.352192355863368"><ele>502.0</ele><time>2026-04-09T13:41:36Z</time></trkpt><trkpt lat="39.3878893245657" lon="9.352223876531419"><ele>503.33333333333337</ele><time>2026-04-09T13:41:37Z</time></trkpt><trkpt lat="39.387819812846196" lon="9.352224328363985"><ele>504.6666666666667</ele><time>2026-04-09T13:41:38Z</time></trkpt><trkpt lat="39.38775573399715" lon="9.352205618564659"><ele>506.0</ele><time>2026-04-09T13:41:39Z</time></trkpt><trkpt lat="39.38771001063615" lon="9.352144267121961"><ele>507.33333333333337</ele><time>2026-04-09T13:41:40Z</time></trkpt><trkpt lat="39.38764641566443" lon="9.352102663505356"><ele>508.6666666666667</ele><time>2026-04-09T13:41:41Z</time></trkpt><trkpt lat="39.38753966037466" lon="9.35207846437835"><ele>510.0</ele><time>2026-04-09T13:41:43Z</time></trkpt><trkpt lat="39.38746022665935" lon="9.35210634778129"><ele>508.14285714285717</ele><time>2026-04-09T13:41:44Z</time></trkpt><trkpt lat="39.38739128431483" lon="9.352121540530735"><ele>506.28571428571433</ele><time>2026-04-09T13:41:45Z</time></trkpt><trkpt lat="39.387313419958076" lon="9.35212244661956"><ele>504.42857142857144</ele><time>2026-04-09T13:41:46Z</time></trkpt><trkpt lat="39.387242618919345" lon="9.352135028851492"><ele>502.57142857142856</ele><time>2026-04-09T13:41:47Z</time></trkpt><trkpt lat="39.38718164527103" lon="9.352171830686885"><ele>500.7142857142857</ele><time>2026-04-09T13:41:48Z</time></trkpt><trkpt lat="39.3871323028048" lon="9.352236138277906"><ele>498.8571428571429</ele><time>2026-04-09T13:41:49Z</time></trkpt><trkpt lat="39.38709494890065" lon="9.352325626329332"><ele>497.0</ele><time>2026-04-09T13:41:50Z</time></trkpt><trkpt lat="39.387078543153336" lon="9.352428640404131"><ele>497.0</ele><time>2026-04-09T13:41:51Z</time></trkpt><trkpt lat="39.38704087451093" lon="9.35249796543965"><ele>497.00000000000006</ele><time>2026-04-09T13:41:52Z</time></trkpt><trkpt lat="39.38692466665124" lon="9.35254204574607"><ele>497.00000000000006</ele><time>2026-04-09T13:41:54Z</time></trkpt><trkpt lat="39.38684805520971" lon="9.352531230755027"><ele>497.0</ele><time>2026-04-09T13:41:55Z</time></trkpt><trkpt lat="39.386754884244006" lon="9.352533437288574"><ele>497.0</ele><time>2026-04-09T13:41:56Z</time></trkpt><trkpt lat="39.38666034962601" lon="9.352535261731056"><ele>497.0</ele><time>2026-04-09T13:41:57Z</time></trkpt><trkpt lat="39.38657123587579" lon="9.352536536806568"><ele>497.00000000000006</ele><time>2026-04-09T13:41:58Z</time></trkpt><trkpt lat="39.38647658171916" lon="9.352539290399884"><ele>497.00000000000006</ele><time>2026-04-09T13:41:59Z</time></trkpt><trkpt lat="39.386393969876934" lon="9.35254683042086"><ele>497.0</ele><time>2026-04-09T13:42:00Z</time></trkpt><trkpt lat="39.38632060218045" lon="9.352553218841372"><ele>497.0</ele><time>2026-04-09T13:42:01Z</time></trkpt><trkpt lat="39.38620624702551" lon="9.352520500007897"><ele>497.49999999999994</ele><time>2026-04-09T13:42:03Z</time></trkpt><trkpt lat="39.38614430793635" lon="9.3524208448647"><ele>498.0</ele><time>2026-04-09T13:42:05.001Z</time></trkpt><trkpt lat="39.38612783598572" lon="9.352330034780096"><ele>498.5</ele><time>2026-04-09T13:42:06.001Z</time></trkpt><trkpt lat="39.38611409351012" lon="9.352230050226627"><ele>499.0</ele><time>2026-04-09T13:42:07.001Z</time></trkpt><trkpt lat="39.386081473968005" lon="9.352127471885181"><ele>499.49999999999994</ele><time>2026-04-09T13:42:08.001Z</time></trkpt><trkpt lat="39.3860470193828" lon="9.352038253452983"><ele>500.0</ele><time>2026-04-09T13:42:09.001Z</time></trkpt><trkpt lat="39.38600540158415" lon="9.35194982505562"><ele>495.66666666666663</ele><time>2026-04-09T13:42:10.001Z</time></trkpt><trkpt lat="39.38596555599313" lon="9.351883272910035"><ele>491.3333333333333</ele><time>2026-04-09T13:42:11.001Z</time></trkpt><trkpt lat="39.38589099025373" lon="9.351795072657568"><ele>487.0</ele><time>2026-04-09T13:42:13.001Z</time></trkpt><trkpt lat="39.38582402301939" lon="9.351772550353463"><ele>482.66666666666663</ele><time>2026-04-09T13:42:14.001Z</time></trkpt><trkpt lat="39.385757596069766" lon="9.351786595436307"><ele>478.3333333333333</ele><time>2026-04-09T13:42:15.001Z</time></trkpt><trkpt lat="39.38569203618247" lon="9.35186394582279"><ele>474.0</ele><time>2026-04-09T13:42:16.001Z</time></trkpt><trkpt lat="39.38563684070192" lon="9.35193298211814"><ele>474.0</ele><time>2026-04-09T13:42:17.001Z</time></trkpt><trkpt lat="39.38557365653297" lon="9.351970965762767"><ele>474.0</ele><time>2026-04-09T13:42:18.001Z</time></trkpt><trkpt lat="39.38546946583794" lon="9.351942457558911"><ele>474.0</ele><time>2026-04-09T13:42:20.001Z</time></trkpt><trkpt lat="39.38539860077679" lon="9.35190597565085"><ele>474.0</ele><time>2026-04-09T13:42:21.001Z</time></trkpt><trkpt lat="39.38532732677409" lon="9.351838201017102"><ele>474.0</ele><time>2026-04-09T13:42:22.001Z</time></trkpt><trkpt lat="39.38526006988207" lon="9.351768386680343"><ele>474.0</ele><time>2026-04-09T13:42:23.001Z</time></trkpt><trkpt lat="39.38520059479501" lon="9.351708638451123"><ele>473.4</ele><time>2026-04-09T13:42:24.001Z</time></trkpt><trkpt lat="39.38509621906443" lon="9.351641607751931"><ele>472.79999999999995</ele><time>2026-04-09T13:42:26.001Z</time></trkpt><trkpt lat="39.38497518190112" lon="9.351657607272674"><ele>472.20000000000005</ele><time>2026-04-09T13:42:28.001Z</time></trkpt><trkpt lat="39.38491798620248" lon="9.35172750500519"><ele>471.6</ele><time>2026-04-09T13:42:29.001Z</time></trkpt><trkpt lat="39.38486676176437" lon="9.351795828462201"><ele>471.0</ele><time>2026-04-09T13:42:30.001Z</time></trkpt><trkpt lat="39.38481998806182" lon="9.351874234881082"><ele>471.0</ele><time>2026-04-09T13:42:31.001Z</time></trkpt><trkpt lat="39.38477120033438" lon="9.351976437836711"><ele>471.0</ele><time>2026-04-09T13:42:32.001Z</time></trkpt><trkpt lat="39.38472109082616" lon="9.352163234586717"><ele>471.0</ele><time>2026-04-09T13:42:34.001Z</time></trkpt><trkpt lat="39.38466794099769" lon="9.352241880220056"><ele>471.0</ele><time>2026-04-09T13:42:35.001Z</time></trkpt><trkpt lat="39.38461785275483" lon="9.35230348205113"><ele>471.0</ele><time>2026-04-09T13:42:36.001Z</time></trkpt><trkpt lat="39.38455542763206" lon="9.352370936484704"><ele>468.6666666666667</ele><time>2026-04-09T13:42:37.001Z</time></trkpt><trkpt lat="39.38449281302333" lon="9.352432270473807"><ele>466.33333333333337</ele><time>2026-04-09T13:42:38.001Z</time></trkpt><trkpt lat="39.38442038797597" lon="9.352495603601778"><ele>464.0</ele><time>2026-04-09T13:42:39.001Z</time></trkpt><trkpt lat="39.38434939029491" lon="9.35254627438004"><ele>461.6666666666667</ele><time>2026-04-09T13:42:40.001Z</time></trkpt><trkpt lat="39.38428328062994" lon="9.3525830851191"><ele>459.33333333333337</ele><time>2026-04-09T13:42:41.001Z</time></trkpt><trkpt lat="39.384215290378044" lon="9.352604620287542"><ele>457.0</ele><time>2026-04-09T13:42:42.001Z</time></trkpt><trkpt lat="39.38411923030481" lon="9.352666668831002"><ele>457.00000000000006</ele><time>2026-04-09T13:42:44.001Z</time></trkpt><trkpt lat="39.38407878639392" lon="9.352793245806394"><ele>457.0</ele><time>2026-04-09T13:42:46.001Z</time></trkpt><trkpt lat="39.384113623583275" lon="9.352884446473428"><ele>457.0</ele><time>2026-04-09T13:42:47.001Z</time></trkpt><trkpt lat="39.384158341468975" lon="9.352967822907134"><ele>457.0</ele><time>2026-04-09T13:42:48.001Z</time></trkpt><trkpt lat="39.3841883650736" lon="9.353077682236904"><ele>457.00000000000006</ele><time>2026-04-09T13:42:49.001Z</time></trkpt><trkpt lat="39.38423059585124" lon="9.35318362990415"><ele>457.0</ele><time>2026-04-09T13:42:50.001Z</time></trkpt><trkpt lat="39.384255313373174" lon="9.353275450928445"><ele>458.6</ele><time>2026-04-09T13:42:51.001Z</time></trkpt><trkpt lat="39.38425381873235" lon="9.353416412600994"><ele>460.20000000000005</ele><time>2026-04-09T13:42:53.001Z</time></trkpt><trkpt lat="39.38418395412559" lon="9.35347764734871"><ele>461.8</ele><time>2026-04-09T13:42:55.001Z</time></trkpt><trkpt lat="39.38411647248143" lon="9.353473103095967"><ele>463.4</ele><time>2026-04-09T13:42:56.001Z</time></trkpt><trkpt lat="39.384019869990425" lon="9.353460237900006"><ele>465.0</ele><time>2026-04-09T13:42:57.001Z</time></trkpt><trkpt lat="39.38391761152418" lon="9.353483636622132"><ele>459.4</ele><time>2026-04-09T13:42:58.001Z</time></trkpt><trkpt lat="39.38383303671928" lon="9.353538357950901"><ele>453.8</ele><time>2026-04-09T13:42:59.001Z</time></trkpt><trkpt lat="39.38375575937161" lon="9.35358176098637"><ele>448.20000000000005</ele><time>2026-04-09T13:43:00.001Z</time></trkpt><trkpt lat="39.38365947712741" lon="9.353605805195372"><ele>442.6</ele><time>2026-04-09T13:43:01.001Z</time></trkpt><trkpt lat="39.383568698170315" lon="9.353669503346856"><ele>437.0</ele><time>2026-04-09T13:43:02.001Z</time></trkpt><trkpt lat="39.383468579890874" lon="9.353683150018101"><ele>437.0</ele><time>2026-04-09T13:43:03.001Z</time></trkpt><trkpt lat="39.383359969431865" lon="9.353698718086907"><ele>437.00000000000006</ele><time>2026-04-09T13:43:04.001Z</time></trkpt><trkpt lat="39.383256812436485" lon="9.353695271921175"><ele>437.00000000000006</ele><time>2026-04-09T13:43:05.001Z</time></trkpt><trkpt lat="39.38315185941059" lon="9.353685341798164"><ele>437.0</ele><time>2026-04-09T13:43:06.001Z</time></trkpt><trkpt lat="39.383043925174356" lon="9.353658186629955"><ele>437.0</ele><time>2026-04-09T13:43:07.001Z</time></trkpt><trkpt lat="39.38294515705767" lon="9.353637966321475"><ele>438.0</ele><time>2026-04-09T13:43:08.001Z</time></trkpt><trkpt lat="39.38285090847149" lon="9.353642198397168"><ele>439.00000000000006</ele><time>2026-04-09T13:43:09.001Z</time></trkpt><trkpt lat="39.38276976228255" lon="9.353604943204122"><ele>440.00000000000006</ele><time>2026-04-09T13:43:10.001Z</time></trkpt><trkpt lat="39.382709036043266" lon="9.353518930191743"><ele>441.0</ele><time>2026-04-09T13:43:11.001Z</time></trkpt><trkpt lat="39.382645615966595" lon="9.353432193364762"><ele>442.0</ele><time>2026-04-09T13:43:12.001Z</time></trkpt><trkpt lat="39.382574833869704" lon="9.353343026521026"><ele>442.0</ele><time>2026-04-09T13:43:13.001Z</time></trkpt><trkpt lat="39.38249899931394" lon="9.353259450148915"><ele>442.00000000000006</ele><time>2026-04-09T13:43:14.001Z</time></trkpt><trkpt lat="39.38242273882541" lon="9.353192395064807"><ele>442.00000000000006</ele><time>2026-04-09T13:43:15.001Z</time></trkpt><trkpt lat="39.3823364664721" lon="9.353139653977474"><ele>442.0</ele><time>2026-04-09T13:43:16.001Z</time></trkpt><trkpt lat="39.382253579155616" lon="9.353101417862918"><ele>442.0</ele><time>2026-04-09T13:43:17.001Z</time></trkpt><trkpt lat="39.38216644197357" lon="9.35307423288542"><ele>441.83333333333337</ele><time>2026-04-09T13:43:18.001Z</time></trkpt><trkpt lat="39.38207339355488" lon="9.353058616694591"><ele>441.6666666666667</ele><time>2026-04-09T13:43:19.001Z</time></trkpt><trkpt lat="39.38197981406203" lon="9.353051415195834"><ele>441.5</ele><time>2026-04-09T13:43:20.001Z</time></trkpt><trkpt lat="39.38188183206682" lon="9.353024579776541"><ele>441.33333333333337</ele><time>2026-04-09T13:43:21.001Z</time></trkpt><trkpt lat="39.38181453377665" lon="9.352973493198572"><ele>441.1666666666667</ele><time>2026-04-09T13:43:21.999Z</time></trkpt><trkpt lat="39.381746778790244" lon="9.352911048528968"><ele>441.0</ele><time>2026-04-09T13:43:22.999Z</time></trkpt><trkpt lat="39.38167674828333" lon="9.352850628075055"><ele>437.0</ele><time>2026-04-09T13:43:23.999Z</time></trkpt><trkpt lat="39.38159108389802" lon="9.35281276387107"><ele>433.0</ele><time>2026-04-09T13:43:24.999Z</time></trkpt><trkpt lat="39.38150994241609" lon="9.352801965939987"><ele>429.0</ele><time>2026-04-09T13:43:25.999Z</time></trkpt><trkpt lat="39.38142805243514" lon="9.352797763195644"><ele>425.0</ele><time>2026-04-09T13:43:26.999Z</time></trkpt><trkpt lat="39.38134277730985" lon="9.352821248722702"><ele>421.0</ele><time>2026-04-09T13:43:27.999Z</time></trkpt><trkpt lat="39.381272349004405" lon="9.352824529146588"><ele>417.0</ele><time>2026-04-09T13:43:28.999Z</time></trkpt><trkpt lat="39.38116512790596" lon="9.352876384754005"><ele>416.6</ele><time>2026-04-09T13:43:30.999Z</time></trkpt><trkpt lat="39.38111590565533" lon="9.352929288316782"><ele>416.20000000000005</ele><time>2026-04-09T13:43:31.999Z</time></trkpt><trkpt lat="39.381073889904194" lon="9.353000803937924"><ele>415.8</ele><time>2026-04-09T13:43:32.999Z</time></trkpt><trkpt lat="39.381034188740244" lon="9.353105952617778"><ele>415.4</ele><time>2026-04-09T13:43:33.999Z</time></trkpt><trkpt lat="39.38098269135148" lon="9.353276773938846"><ele>415.0</ele><time>2026-04-09T13:43:34.999Z</time></trkpt><trkpt lat="39.3809511318558" lon="9.353432107102579"><ele>415.00000000000006</ele><time>2026-04-09T13:43:35.999Z</time></trkpt><trkpt lat="39.38093255222898" lon="9.353542614278854"><ele>415.0</ele><time>2026-04-09T13:43:36.999Z</time></trkpt><trkpt lat="39.38091031623307" lon="9.353630158760513"><ele>415.0</ele><time>2026-04-09T13:43:37.999Z</time></trkpt><trkpt lat="39.38088445673597" lon="9.353722063656791"><ele>415.0</ele><time>2026-04-09T13:43:38.999Z</time></trkpt><trkpt lat="39.38088337226625" lon="9.353820325793748"><ele>415.00000000000006</ele><time>2026-04-09T13:43:39.999Z</time></trkpt><trkpt lat="39.3808628608379" lon="9.353915434261136"><ele>415.0</ele><time>2026-04-09T13:43:40.999Z</time></trkpt><trkpt lat="39.38084377108413" lon="9.354031376399496"><ele>416.0</ele><time>2026-04-09T13:43:41.999Z</time></trkpt><trkpt lat="39.38084320521938" lon="9.354139653267493"><ele>417.0</ele><time>2026-04-09T13:43:42.999Z</time></trkpt><trkpt lat="39.38086587267303" lon="9.35423850060102"><ele>418.0</ele><time>2026-04-09T13:43:44Z</time></trkpt><trkpt lat="39.38091200664062" lon="9.354359857996394"><ele>419.0</ele><time>2026-04-09T13:43:45Z</time></trkpt><trkpt lat="39.380975682767776" lon="9.354503761978048"><ele>420.0</ele><time>2026-04-09T13:43:46Z</time></trkpt><trkpt lat="39.381033994187696" lon="9.354632184609612"><ele>416.0</ele><time>2026-04-09T13:43:47Z</time></trkpt><trkpt lat="39.38107045071643" lon="9.354770183727302"><ele>412.0</ele><time>2026-04-09T13:43:48Z</time></trkpt><trkpt lat="39.381121398955386" lon="9.354900865696372"><ele>408.0</ele><time>2026-04-09T13:43:49Z</time></trkpt><trkpt lat="39.381168639459304" lon="9.355036270088208"><ele>404.0</ele><time>2026-04-09T13:43:50Z</time></trkpt><trkpt lat="39.38122229407209" lon="9.355161931869054"><ele>404.0</ele><time>2026-04-09T13:43:51Z</time></trkpt><trkpt lat="39.38127741752855" lon="9.355270378786956"><ele>404.0</ele><time>2026-04-09T13:43:52Z</time></trkpt><trkpt lat="39.38132987104354" lon="9.355377539565172"><ele>404.0</ele><time>2026-04-09T13:43:53Z</time></trkpt><trkpt lat="39.381373951411554" lon="9.355472746690975"><ele>404.0</ele><time>2026-04-09T13:43:54Z</time></trkpt><trkpt lat="39.38139143241863" lon="9.355556199151025"><ele>404.0</ele><time>2026-04-09T13:43:55Z</time></trkpt><trkpt lat="39.38134022381215" lon="9.355712649532997"><ele>402.6</ele><time>2026-04-09T13:43:57Z</time></trkpt><trkpt lat="39.3812845034302" lon="9.355795878457583"><ele>401.2</ele><time>2026-04-09T13:43:58Z</time></trkpt><trkpt lat="39.38123343273205" lon="9.355927116094595"><ele>399.8</ele><time>2026-04-09T13:43:59Z</time></trkpt><trkpt lat="39.3811666996518" lon="9.356049922174765"><ele>398.40000000000003</ele><time>2026-04-09T13:44:00Z</time></trkpt><trkpt lat="39.381116261307874" lon="9.356155077091683"><ele>397.0</ele><time>2026-04-09T13:44:01Z</time></trkpt><trkpt lat="39.38106259729818" lon="9.35623798686718"><ele>397.00000000000006</ele><time>2026-04-09T13:44:02Z</time></trkpt><trkpt lat="39.38100759564006" lon="9.356301270110738"><ele>397.0</ele><time>2026-04-09T13:44:03Z</time></trkpt><trkpt lat="39.38093827512098" lon="9.356314405045898"><ele>397.0</ele><time>2026-04-09T13:44:04Z</time></trkpt><trkpt lat="39.380871353251" lon="9.356312286693424"><ele>397.0</ele><time>2026-04-09T13:44:05Z</time></trkpt><trkpt lat="39.38079973392211" lon="9.356267200555116"><ele>397.00000000000006</ele><time>2026-04-09T13:44:06Z</time></trkpt><trkpt lat="39.38071748016727" lon="9.35622250903535"><ele>397.0</ele><time>2026-04-09T13:44:07Z</time></trkpt><trkpt lat="39.38063713226852" lon="9.356195769851517"><ele>397.0</ele><time>2026-04-09T13:44:08Z</time></trkpt><trkpt lat="39.38056280169459" lon="9.356197092064921"><ele>397.0</ele><time>2026-04-09T13:44:09Z</time></trkpt><trkpt lat="39.38047595396378" lon="9.35619581915144"><ele>397.0</ele><time>2026-04-09T13:44:10Z</time></trkpt><trkpt lat="39.38037452249563" lon="9.35621005623118"><ele>397.0</ele><time>2026-04-09T13:44:11Z</time></trkpt><trkpt lat="39.380270651312564" lon="9.356211117719809"><ele>397.0</ele><time>2026-04-09T13:44:12Z</time></trkpt><trkpt lat="39.38016389394081" lon="9.35623510191893"><ele>398.0</ele><time>2026-04-09T13:44:13Z</time></trkpt><trkpt lat="39.38005727402925" lon="9.356277778890357"><ele>399.0</ele><time>2026-04-09T13:44:14Z</time></trkpt><trkpt lat="39.379965225918575" lon="9.356281781532418"><ele>400.0</ele><time>2026-04-09T13:44:15Z</time></trkpt><trkpt lat="39.379886237302586" lon="9.356293477352523"><ele>401.0</ele><time>2026-04-09T13:44:16Z</time></trkpt><trkpt lat="39.37981606781403" lon="9.356304930578927"><ele>402.0</ele><time>2026-04-09T13:44:17Z</time></trkpt><trkpt lat="39.3796996022344" lon="9.356379489331191"><ele>397.0</ele><time>2026-04-09T13:44:19Z</time></trkpt><trkpt lat="39.37964171336633" lon="9.356459242523409"><ele>392.0</ele><time>2026-04-09T13:44:20Z</time></trkpt><trkpt lat="39.37958965389023" lon="9.356564725657341"><ele>387.0</ele><time>2026-04-09T13:44:21Z</time></trkpt><trkpt lat="39.379550852343684" lon="9.356679540342661"><ele>382.0</ele><time>2026-04-09T13:44:22Z</time></trkpt><trkpt lat="39.379527671501485" lon="9.356790490490337"><ele>377.0</ele><time>2026-04-09T13:44:23Z</time></trkpt><trkpt lat="39.379516997016474" lon="9.356894810617167"><ele>372.0</ele><time>2026-04-09T13:44:24Z</time></trkpt><trkpt lat="39.37950163089714" lon="9.356998246087183"><ele>372.0</ele><time>2026-04-09T13:44:25Z</time></trkpt><trkpt lat="39.379466261912725" lon="9.357083832156627"><ele>372.0</ele><time>2026-04-09T13:44:26Z</time></trkpt><trkpt lat="39.37937987045616" lon="9.357114879940987"><ele>372.0</ele><time>2026-04-09T13:44:27Z</time></trkpt><trkpt lat="39.379296737175956" lon="9.35716833938895"><ele>372.0</ele><time>2026-04-09T13:44:28Z</time></trkpt><trkpt lat="39.37921176475015" lon="9.357232853240946"><ele>372.0</ele><time>2026-04-09T13:44:29Z</time></trkpt><trkpt lat="39.379120967823035" lon="9.357307628663985"><ele>375.0</ele><time>2026-04-09T13:44:30Z</time></trkpt><trkpt lat="39.379028613132085" lon="9.357308757664025"><ele>378.0</ele><time>2026-04-09T13:44:31Z</time></trkpt><trkpt lat="39.37896840785613" lon="9.357339660651949"><ele>381.0</ele><time>2026-04-09T13:44:32Z</time></trkpt><trkpt lat="39.37886765813446" lon="9.35740615915982"><ele>384.0</ele><time>2026-04-09T13:44:34Z</time></trkpt><trkpt lat="39.378818714299946" lon="9.357465688594806"><ele>387.0</ele><time>2026-04-09T13:44:35.001Z</time></trkpt><trkpt lat="39.378794950757396" lon="9.357544098322782"><ele>390.0</ele><time>2026-04-09T13:44:36.001Z</time></trkpt><trkpt lat="39.37876232975643" lon="9.357665211533034"><ele>384.2</ele><time>2026-04-09T13:44:38.001Z</time></trkpt><trkpt lat="39.37874295974847" lon="9.357807234931144"><ele>378.4</ele><time>2026-04-09T13:44:40.001Z</time></trkpt><trkpt lat="39.37871929747366" lon="9.357887097476702"><ele>372.6</ele><time>2026-04-09T13:44:54.001Z</time></trkpt><trkpt lat="39.37867068141346" lon="9.358019951817225"><ele>366.8</ele><time>2026-04-09T13:44:56.001Z</time></trkpt><trkpt lat="39.37863259849405" lon="9.358117412923981"><ele>361.0</ele><time>2026-04-09T13:44:57.001Z</time></trkpt><trkpt lat="39.37859174569516" lon="9.358217728320623"><ele>361.0</ele><time>2026-04-09T13:44:58.001Z</time></trkpt><trkpt lat="39.378556681063806" lon="9.358322198043899"><ele>361.0</ele><time>2026-04-09T13:44:59.001Z</time></trkpt><trkpt lat="39.3785389263441" lon="9.35842241645065"><ele>361.0</ele><time>2026-04-09T13:45:00.001Z</time></trkpt><trkpt lat="39.378516246176375" lon="9.358505876308172"><ele>361.0</ele><time>2026-04-09T13:45:01.001Z</time></trkpt><trkpt lat="39.37851503353733" lon="9.358603273192703"><ele>361.0</ele><time>2026-04-09T13:45:02.001Z</time></trkpt><trkpt lat="39.37853149580708" lon="9.358723630205827"><ele>361.0</ele><time>2026-04-09T13:45:03.001Z</time></trkpt><trkpt lat="39.37857751763914" lon="9.358893628540573"><ele>358.25</ele><time>2026-04-09T13:45:04.001Z</time></trkpt><trkpt lat="39.378631165534074" lon="9.35908947210403"><ele>355.5</ele><time>2026-04-09T13:45:05.001Z</time></trkpt><trkpt lat="39.378656575997375" lon="9.359249902205597"><ele>352.75</ele><time>2026-04-09T13:45:06.001Z</time></trkpt><trkpt lat="39.37869691011758" lon="9.359356301614602"><ele>350.0</ele><time>2026-04-09T13:45:07.001Z</time></trkpt><trkpt lat="39.3787607220528" lon="9.359417248596015"><ele>350.0</ele><time>2026-04-09T13:45:08.001Z</time></trkpt><trkpt lat="39.378824981940106" lon="9.35947003914493"><ele>350.0</ele><time>2026-04-09T13:45:09.001Z</time></trkpt><trkpt lat="39.378918909602085" lon="9.359519027413365"><ele>350.0</ele><time>2026-04-09T13:45:10.001Z</time></trkpt><trkpt lat="39.37905300328373" lon="9.359568781883029"><ele>350.0</ele><time>2026-04-09T13:45:11.001Z</time></trkpt><trkpt lat="39.37915202791742" lon="9.359614477670695"><ele>350.0</ele><time>2026-04-09T13:45:12.001Z</time></trkpt><trkpt lat="39.37921175568741" lon="9.359671361449063"><ele>351.8</ele><time>2026-04-09T13:45:13.001Z</time></trkpt><trkpt lat="39.37922709181161" lon="9.359765866416794"><ele>353.6</ele><time>2026-04-09T13:45:14.001Z</time></trkpt><trkpt lat="39.37923747003082" lon="9.359864202938073"><ele>355.4</ele><time>2026-04-09T13:45:15.001Z</time></trkpt><trkpt lat="39.379271258398276" lon="9.360010856230309"><ele>357.2</ele><time>2026-04-09T13:45:16.001Z</time></trkpt><trkpt lat="39.37931263654804" lon="9.360153258033147"><ele>359.0</ele><time>2026-04-09T13:45:17.001Z</time></trkpt><trkpt lat="39.379354488638796" lon="9.36024391317141"><ele>359.0</ele><time>2026-04-09T13:45:18.001Z</time></trkpt><trkpt lat="39.3794042986602" lon="9.360301522366735"><ele>359.0</ele><time>2026-04-09T13:45:19.001Z</time></trkpt><trkpt lat="39.37947049712595" lon="9.360311198846121"><ele>359.0</ele><time>2026-04-09T13:45:20.001Z</time></trkpt><trkpt lat="39.37946315758176" lon="9.360402756069915"><ele>359.0</ele><time>2026-04-09T13:45:23.001Z</time></trkpt><trkpt lat="39.379352585637356" lon="9.360307294316343"><ele>359.0</ele><time>2026-04-09T13:45:27.001Z</time></trkpt><trkpt lat="39.37931302682562" lon="9.360240833822083"><ele>359.0</ele><time>2026-04-09T13:45:27.999Z</time></trkpt><trkpt lat="39.37925555332279" lon="9.360165618794763"><ele>359.0</ele><time>2026-04-09T13:45:28.999Z</time></trkpt><trkpt lat="39.37920547839338" lon="9.360059568184187"><ele>359.0</ele><time>2026-04-09T13:45:29.999Z</time></trkpt><trkpt lat="39.379153784759446" lon="9.359969311047655"><ele>359.0</ele><time>2026-04-09T13:45:30.999Z</time></trkpt><trkpt lat="39.37910105696332" lon="9.359887976739296"><ele>359.0</ele><time>2026-04-09T13:45:31.999Z</time></trkpt><trkpt lat="39.37905047692539" lon="9.35982744935"><ele>359.0</ele><time>2026-04-09T13:45:32.999Z</time></trkpt><trkpt lat="39.378969344843775" lon="9.359825719282686"><ele>359.0</ele><time>2026-04-09T13:45:33.999Z</time></trkpt><trkpt lat="39.3788714377121" lon="9.359779869323507"><ele>355.0</ele><time>2026-04-09T13:45:34.999Z</time></trkpt><trkpt lat="39.3787483058183" lon="9.359776835966677"><ele>351.0</ele><time>2026-04-09T13:45:35.999Z</time></trkpt><trkpt lat="39.37865700458794" lon="9.359807202595313"><ele>347.0</ele><time>2026-04-09T13:45:36.999Z</time></trkpt><trkpt lat="39.37857191681226" lon="9.359822881920836"><ele>343.0</ele><time>2026-04-09T13:45:37.999Z</time></trkpt><trkpt lat="39.37850286243743" lon="9.359794073954415"><ele>339.0</ele><time>2026-04-09T13:45:38.999Z</time></trkpt><trkpt lat="39.37842860490662" lon="9.359777932399163"><ele>341.2</ele><time>2026-04-09T13:45:39.999Z</time></trkpt><trkpt lat="39.3783970287513" lon="9.359671236530597"><ele>343.4</ele><time>2026-04-09T13:45:40.999Z</time></trkpt><trkpt lat="39.37834783803104" lon="9.359572781715485"><ele>345.6</ele><time>2026-04-09T13:45:41.999Z</time></trkpt><trkpt lat="39.378320483594464" lon="9.359433446647722"><ele>347.8</ele><time>2026-04-09T13:45:42.999Z</time></trkpt><trkpt lat="39.37827959266512" lon="9.359297560768578"><ele>350.0</ele><time>2026-04-09T13:45:43.999Z</time></trkpt><trkpt lat="39.37825031172712" lon="9.359181186479372"><ele>350.0</ele><time>2026-04-09T13:45:44.999Z</time></trkpt><trkpt lat="39.37821559120978" lon="9.359058912523682"><ele>350.0</ele><time>2026-04-09T13:45:45.999Z</time></trkpt><trkpt lat="39.37815074831898" lon="9.358956911559543"><ele>350.0</ele><time>2026-04-09T13:45:46.999Z</time></trkpt><trkpt lat="39.37807035739767" lon="9.358866030727357"><ele>350.0</ele><time>2026-04-09T13:45:47.999Z</time></trkpt><trkpt lat="39.377962144094475" lon="9.358838170133916"><ele>350.0</ele><time>2026-04-09T13:45:48.999Z</time></trkpt><trkpt lat="39.377874166742885" lon="9.358788274804576"><ele>347.1666666666667</ele><time>2026-04-09T13:45:49.999Z</time></trkpt><trkpt lat="39.37779327815567" lon="9.35878280160414"><ele>344.33333333333337</ele><time>2026-04-09T13:45:50.999Z</time></trkpt><trkpt lat="39.37772948533618" lon="9.358767333727407"><ele>341.5</ele><time>2026-04-09T13:45:51.999Z</time></trkpt><trkpt lat="39.377666885262144" lon="9.358708955424232"><ele>338.6666666666667</ele><time>2026-04-09T13:45:53.999Z</time></trkpt><trkpt lat="39.377699893501074" lon="9.358592238235596"><ele>335.8333333333333</ele><time>2026-04-09T13:45:55.999Z</time></trkpt><trkpt lat="39.377786780995216" lon="9.358526210312068"><ele>333.0</ele><time>2026-04-09T13:45:57Z</time></trkpt><trkpt lat="39.377843828980325" lon="9.35840215712002"><ele>333.0</ele><time>2026-04-09T13:45:58Z</time></trkpt><trkpt lat="39.37789691999794" lon="9.358299191220013"><ele>333.0</ele><time>2026-04-09T13:45:59Z</time></trkpt><trkpt lat="39.37793393034454" lon="9.358197170252105"><ele>333.0</ele><time>2026-04-09T13:46:00Z</time></trkpt><trkpt lat="39.37796671673367" lon="9.35807453190156"><ele>333.0</ele><time>2026-04-09T13:46:01Z</time></trkpt><trkpt lat="39.37799437944371" lon="9.357962735650322"><ele>333.0</ele><time>2026-04-09T13:46:02Z</time></trkpt><trkpt lat="39.378036251010954" lon="9.357851560130642"><ele>336.59999999999997</ele><time>2026-04-09T13:46:03Z</time></trkpt><trkpt lat="39.37804283731269" lon="9.357722559534983"><ele>340.2</ele><time>2026-04-09T13:46:04Z</time></trkpt><trkpt lat="39.37804988674914" lon="9.357602122985284"><ele>343.8</ele><time>2026-04-09T13:46:05Z</time></trkpt><trkpt lat="39.37804916208627" lon="9.357486396823896"><ele>347.4</ele><time>2026-04-09T13:46:06Z</time></trkpt><trkpt lat="39.37805771677966" lon="9.357373274779356"><ele>351.0</ele><time>2026-04-09T13:46:07Z</time></trkpt><trkpt lat="39.37805544554585" lon="9.357250546355791"><ele>348.4</ele><time>2026-04-09T13:46:08Z</time></trkpt><trkpt lat="39.37806675722084" lon="9.357126482287127"><ele>345.8</ele><time>2026-04-09T13:46:09Z</time></trkpt><trkpt lat="39.378078157456805" lon="9.35700366952557"><ele>343.2</ele><time>2026-04-09T13:46:10Z</time></trkpt><trkpt lat="39.37809329837197" lon="9.356882085500493"><ele>340.59999999999997</ele><time>2026-04-09T13:46:11Z</time></trkpt><trkpt lat="39.37811159631016" lon="9.356746478678179"><ele>338.0</ele><time>2026-04-09T13:46:12Z</time></trkpt><trkpt lat="39.378133165362584" lon="9.35659836020064"><ele>338.0</ele><time>2026-04-09T13:46:13Z</time></trkpt><trkpt lat="39.378164173866615" lon="9.356448918212378"><ele>338.0</ele><time>2026-04-09T13:46:14Z</time></trkpt><trkpt lat="39.37820980524528" lon="9.356309851365388"><ele>338.0</ele><time>2026-04-09T13:46:15Z</time></trkpt><trkpt lat="39.378246872475756" lon="9.356183694477684"><ele>338.0</ele><time>2026-04-09T13:46:16Z</time></trkpt><trkpt lat="39.3782864114485" lon="9.3560559319346"><ele>338.0</ele><time>2026-04-09T13:46:17Z</time></trkpt><trkpt lat="39.37831183735956" lon="9.355921357406055"><ele>337.2</ele><time>2026-04-09T13:46:18Z</time></trkpt><trkpt lat="39.378331153133175" lon="9.355784602448626"><ele>336.4</ele><time>2026-04-09T13:46:19Z</time></trkpt><trkpt lat="39.37833435541761" lon="9.355650788262004"><ele>335.59999999999997</ele><time>2026-04-09T13:46:20Z</time></trkpt><trkpt lat="39.37833402592569" lon="9.355520591973274"><ele>334.79999999999995</ele><time>2026-04-09T13:46:21Z</time></trkpt><trkpt lat="39.37831763711359" lon="9.35539135853999"><ele>334.0</ele><time>2026-04-09T13:46:22Z</time></trkpt><trkpt lat="39.3782979890171" lon="9.35526892141986"><ele>334.0</ele><time>2026-04-09T13:46:23Z</time></trkpt><trkpt lat="39.378287587450956" lon="9.35514253659671"><ele>334.0</ele><time>2026-04-09T13:46:24Z</time></trkpt><trkpt lat="39.37826693765152" lon="9.355019011577903"><ele>334.0</ele><time>2026-04-09T13:46:25Z</time></trkpt><trkpt lat="39.37824436187898" lon="9.354898879794476"><ele>334.0</ele><time>2026-04-09T13:46:26Z</time></trkpt><trkpt lat="39.37821907431755" lon="9.354820801075482"><ele>334.0</ele><time>2026-04-09T13:46:27Z</time></trkpt><trkpt lat="39.3781570669859" lon="9.354725893454136"><ele>334.0</ele><time>2026-04-09T13:46:29Z</time></trkpt><trkpt lat="39.3780922409495" lon="9.354722365095522"><ele>334.0</ele><time>2026-04-09T13:46:30Z</time></trkpt><trkpt lat="39.378023469825166" lon="9.354743112232022"><ele>334.0</ele><time>2026-04-09T13:46:31Z</time></trkpt><trkpt lat="39.37795912084919" lon="9.354766803951641"><ele>334.0</ele><time>2026-04-09T13:46:32Z</time></trkpt><trkpt lat="39.37789924648742" lon="9.354804484201454"><ele>334.0</ele><time>2026-04-09T13:46:34Z</time></trkpt><trkpt lat="39.37787732255376" lon="9.35493727099977"><ele>334.0</ele><time>2026-04-09T13:46:38Z</time></trkpt><trkpt lat="39.37785485492217" lon="9.355072428035054"><ele>335.6</ele><time>2026-04-09T13:46:40Z</time></trkpt><trkpt lat="39.377829814467326" lon="9.355233152240118"><ele>337.2</ele><time>2026-04-09T13:46:42.001Z</time></trkpt><trkpt lat="39.37779012396058" lon="9.355304157526973"><ele>338.8</ele><time>2026-04-09T13:46:43.001Z</time></trkpt><trkpt lat="39.37774958813533" lon="9.355396593457444"><ele>340.40000000000003</ele><time>2026-04-09T13:46:44.001Z</time></trkpt><trkpt lat="39.377700420822926" lon="9.35549357877304"><ele>342.0</ele><time>2026-04-09T13:46:45.001Z</time></trkpt><trkpt lat="39.3776464444643" lon="9.355586703813751"><ele>342.0</ele><time>2026-04-09T13:46:46.001Z</time></trkpt><trkpt lat="39.377578337276034" lon="9.355666641287058"><ele>342.0</ele><time>2026-04-09T13:46:47.001Z</time></trkpt><trkpt lat="39.37750927342867" lon="9.355761224795028"><ele>342.0</ele><time>2026-04-09T13:46:48.001Z</time></trkpt><trkpt lat="39.377471601503814" lon="9.35586245158318"><ele>342.0</ele><time>2026-04-09T13:46:49.001Z</time></trkpt><trkpt lat="39.3774471875211" lon="9.355963278408604"><ele>342.0</ele><time>2026-04-09T13:46:50.001Z</time></trkpt><trkpt lat="39.37744085915978" lon="9.356098806588555"><ele>342.0</ele><time>2026-04-09T13:46:51.001Z</time></trkpt><trkpt lat="39.377410357659784" lon="9.356178085532711"><ele>342.0</ele><time>2026-04-09T13:46:52.001Z</time></trkpt><trkpt lat="39.37737052013191" lon="9.356304040832704"><ele>342.0</ele><time>2026-04-09T13:46:54.001Z</time></trkpt><trkpt lat="39.37731190121449" lon="9.356418802926674"><ele>342.0</ele><time>2026-04-09T13:46:56.001Z</time></trkpt><trkpt lat="39.37726231768039" lon="9.356539067138115"><ele>342.0</ele><time>2026-04-09T13:46:58.001Z</time></trkpt><trkpt lat="39.37718433617651" lon="9.35663828248139"><ele>345.40000000000003</ele><time>2026-04-09T13:47:00.001Z</time></trkpt><trkpt lat="39.377145687312606" lon="9.35675709487442"><ele>348.8</ele><time>2026-04-09T13:47:02.001Z</time></trkpt><trkpt lat="39.37706981318813" lon="9.356843100412759"><ele>352.2</ele><time>2026-04-09T13:47:04.001Z</time></trkpt><trkpt lat="39.37696382546597" lon="9.356862454215603"><ele>355.6</ele><time>2026-04-09T13:47:06.001Z</time></trkpt><trkpt lat="39.376897546174916" lon="9.356847955979976"><ele>359.0</ele><time>2026-04-09T13:47:07.001Z</time></trkpt><trkpt lat="39.376817787393755" lon="9.356826791688333"><ele>359.0</ele><time>2026-04-09T13:47:08.001Z</time></trkpt><trkpt lat="39.376723980032466" lon="9.356816198199882"><ele>359.0</ele><time>2026-04-09T13:47:09.001Z</time></trkpt><trkpt lat="39.37663545797557" lon="9.356842029271254"><ele>359.0</ele><time>2026-04-09T13:47:10.001Z</time></trkpt><trkpt lat="39.37654537900851" lon="9.356837352909306"><ele>359.0</ele><time>2026-04-09T13:47:11.001Z</time></trkpt><trkpt lat="39.376437243304885" lon="9.356848270391872"><ele>359.0</ele><time>2026-04-09T13:47:12.001Z</time></trkpt><trkpt lat="39.37633400467593" lon="9.356876298414706"><ele>360.83333333333337</ele><time>2026-04-09T13:47:13.001Z</time></trkpt><trkpt lat="39.37625238632124" lon="9.356927003564541"><ele>362.6666666666667</ele><time>2026-04-09T13:47:14.001Z</time></trkpt><trkpt lat="39.37617726611564" lon="9.356994603567832"><ele>364.5</ele><time>2026-04-09T13:47:15.001Z</time></trkpt><trkpt lat="39.37611621282793" lon="9.357033591814343"><ele>366.3333333333333</ele><time>2026-04-09T13:47:16.001Z</time></trkpt><trkpt lat="39.376043354624194" lon="9.357080920851201"><ele>368.16666666666663</ele><time>2026-04-09T13:47:17.001Z</time></trkpt><trkpt lat="39.37597943020908" lon="9.357133239929388"><ele>370.0</ele><time>2026-04-09T13:47:18.001Z</time></trkpt><trkpt lat="39.37594043621971" lon="9.357206923831049"><ele>370.0</ele><time>2026-04-09T13:47:19.001Z</time></trkpt><trkpt lat="39.37591235886618" lon="9.357302938329427"><ele>370.0</ele><time>2026-04-09T13:47:20.001Z</time></trkpt><trkpt lat="39.375897842742745" lon="9.357408677474364"><ele>370.0</ele><time>2026-04-09T13:47:21.001Z</time></trkpt><trkpt lat="39.3758707128535" lon="9.357528501571911"><ele>370.0</ele><time>2026-04-09T13:47:22.001Z</time></trkpt><trkpt lat="39.37584081667266" lon="9.357638021882853"><ele>370.0</ele><time>2026-04-09T13:47:23.001Z</time></trkpt><trkpt lat="39.37581605448165" lon="9.357737352476443"><ele>370.0</ele><time>2026-04-09T13:47:24.001Z</time></trkpt><trkpt lat="39.37577836945604" lon="9.357836490201677"><ele>370.0</ele><time>2026-04-09T13:47:25.001Z</time></trkpt><trkpt lat="39.375725580470096" lon="9.35791484975145"><ele>370.0</ele><time>2026-04-09T13:47:26.001Z</time></trkpt><trkpt lat="39.37564691388446" lon="9.357949126232352"><ele>370.0</ele><time>2026-04-09T13:47:27.001Z</time></trkpt><trkpt lat="39.375570567061736" lon="9.357969707893323"><ele>370.0</ele><time>2026-04-09T13:47:28.001Z</time></trkpt><trkpt lat="39.37549481774796" lon="9.357969084574403"><ele>370.0</ele><time>2026-04-09T13:47:29.001Z</time></trkpt><trkpt lat="39.37541449180327" lon="9.358016208568115"><ele>370.0</ele><time>2026-04-09T13:47:30.001Z</time></trkpt><trkpt lat="39.37534008753077" lon="9.358054099158212"><ele>373.8333333333333</ele><time>2026-04-09T13:47:31.001Z</time></trkpt><trkpt lat="39.37528707771241" lon="9.358121553128482"><ele>377.66666666666663</ele><time>2026-04-09T13:47:32.001Z</time></trkpt><trkpt lat="39.37525601278808" lon="9.358196712438797"><ele>381.5</ele><time>2026-04-09T13:47:33.001Z</time></trkpt><trkpt lat="39.375221339726934" lon="9.358301968280822"><ele>385.3333333333333</ele><time>2026-04-09T13:47:33.999Z</time></trkpt><trkpt lat="39.375190472105466" lon="9.358442882372122"><ele>389.1666666666667</ele><time>2026-04-09T13:47:34.999Z</time></trkpt><trkpt lat="39.37517020439688" lon="9.358535958355077"><ele>393.0</ele><time>2026-04-09T13:47:35.999Z</time></trkpt><trkpt lat="39.37515141356661" lon="9.358614746671721"><ele>393.0</ele><time>2026-04-09T13:47:36.999Z</time></trkpt><trkpt lat="39.375135798122294" lon="9.358707994827789"><ele>393.0</ele><time>2026-04-09T13:47:37.999Z</time></trkpt><trkpt lat="39.37512203820855" lon="9.358805683113065"><ele>393.0</ele><time>2026-04-09T13:47:38.999Z</time></trkpt><trkpt lat="39.375113078508406" lon="9.358901783895353"><ele>393.0</ele><time>2026-04-09T13:47:39.999Z</time></trkpt><trkpt lat="39.375119376706465" lon="9.359002963392895"><ele>393.0</ele><time>2026-04-09T13:47:40.999Z</time></trkpt><trkpt lat="39.375143854759365" lon="9.359104610289673"><ele>393.0</ele><time>2026-04-09T13:47:41.999Z</time></trkpt><trkpt lat="39.37517761914962" lon="9.359199831162654"><ele>393.59999999999997</ele><time>2026-04-09T13:47:42.999Z</time></trkpt><trkpt lat="39.37521967721899" lon="9.35929109894098"><ele>394.2</ele><time>2026-04-09T13:47:43.999Z</time></trkpt><trkpt lat="39.375280724577685" lon="9.35937784894021"><ele>394.8</ele><time>2026-04-09T13:47:44.999Z</time></trkpt><trkpt lat="39.37535047567258" lon="9.359471192077226"><ele>395.4</ele><time>2026-04-09T13:47:45.999Z</time></trkpt><trkpt lat="39.375394877156246" lon="9.359582371918904"><ele>396.0</ele><time>2026-04-09T13:47:46.999Z</time></trkpt><trkpt lat="39.37543789626822" lon="9.359675511213744"><ele>398.5</ele><time>2026-04-09T13:47:47.999Z</time></trkpt><trkpt lat="39.3754731550642" lon="9.35977711019773"><ele>401.0</ele><time>2026-04-09T13:47:48.999Z</time></trkpt><trkpt lat="39.37548922038785" lon="9.359874632574272"><ele>403.5</ele><time>2026-04-09T13:47:49.999Z</time></trkpt><trkpt lat="39.375493577105395" lon="9.359977474569504"><ele>406.0</ele><time>2026-04-09T13:47:50.999Z</time></trkpt><trkpt lat="39.37549050228686" lon="9.360088081401344"><ele>408.5</ele><time>2026-04-09T13:47:51.999Z</time></trkpt><trkpt lat="39.37547593336582" lon="9.3602019555685"><ele>411.0</ele><time>2026-04-09T13:47:52.999Z</time></trkpt><trkpt lat="39.37544950613093" lon="9.3603104110721"><ele>411.0</ele><time>2026-04-09T13:47:53.999Z</time></trkpt><trkpt lat="39.37541644109864" lon="9.360418043141442"><ele>411.0</ele><time>2026-04-09T13:47:54.999Z</time></trkpt><trkpt lat="39.37537281419693" lon="9.360532846240705"><ele>411.0</ele><time>2026-04-09T13:47:55.999Z</time></trkpt><trkpt lat="39.37532246638893" lon="9.360630675494678"><ele>411.0</ele><time>2026-04-09T13:47:57Z</time></trkpt><trkpt lat="39.375279702918625" lon="9.360706212597456"><ele>411.0</ele><time>2026-04-09T13:47:58Z</time></trkpt><trkpt lat="39.37521836025551" lon="9.360819763711772"><ele>409.8</ele><time>2026-04-09T13:48:00Z</time></trkpt><trkpt lat="39.375159216624205" lon="9.360903129370955"><ele>408.6</ele><time>2026-04-09T13:48:02Z</time></trkpt><trkpt lat="39.37508529940555" lon="9.361025275355411"><ele>407.4</ele><time>2026-04-09T13:48:04Z</time></trkpt><trkpt lat="39.37498219853565" lon="9.36110228837604"><ele>406.2</ele><time>2026-04-09T13:48:06Z</time></trkpt><trkpt lat="39.37492699917353" lon="9.361145452918308"><ele>405.0</ele><time>2026-04-09T13:48:07Z</time></trkpt><trkpt lat="39.3748662451245" lon="9.361192061478581"><ele>405.0</ele><time>2026-04-09T13:48:08Z</time></trkpt><trkpt lat="39.37480816678031" lon="9.361242477949027"><ele>405.0</ele><time>2026-04-09T13:48:09Z</time></trkpt><trkpt lat="39.37474357140405" lon="9.361298040429707"><ele>405.0</ele><time>2026-04-09T13:48:10Z</time></trkpt><trkpt lat="39.37468548573324" lon="9.361350736302464"><ele>405.0</ele><time>2026-04-09T13:48:11Z</time></trkpt><trkpt lat="39.37463448698239" lon="9.36140376850813"><ele>405.0</ele><time>2026-04-09T13:48:12Z</time></trkpt><trkpt lat="39.374585351420876" lon="9.361457271638436"><ele>405.0</ele><time>2026-04-09T13:48:13Z</time></trkpt><trkpt lat="39.3744840714383" lon="9.361553489626994"><ele>405.3333333333333</ele><time>2026-04-09T13:48:15Z</time></trkpt><trkpt lat="39.374421395529325" lon="9.361602126019974"><ele>405.66666666666663</ele><time>2026-04-09T13:48:16Z</time></trkpt><trkpt lat="39.37434920982494" lon="9.361659998630397"><ele>406.0</ele><time>2026-04-09T13:48:17Z</time></trkpt><trkpt lat="39.37427748531611" lon="9.361724123011424"><ele>406.3333333333333</ele><time>2026-04-09T13:48:18Z</time></trkpt><trkpt lat="39.37421343468016" lon="9.361801782133954"><ele>406.66666666666663</ele><time>2026-04-09T13:48:19Z</time></trkpt><trkpt lat="39.374160232864334" lon="9.361879626179965"><ele>407.0</ele><time>2026-04-09T13:48:20Z</time></trkpt><trkpt lat="39.37404375169012" lon="9.36192194172702"><ele>407.0</ele><time>2026-04-09T13:48:22Z</time></trkpt><trkpt lat="39.37397487341044" lon="9.36190530255111"><ele>407.0</ele><time>2026-04-09T13:48:23Z</time></trkpt><trkpt lat="39.373917994258385" lon="9.361843928142209"><ele>407.0</ele><time>2026-04-09T13:48:24Z</time></trkpt><trkpt lat="39.37380572375142" lon="9.361774884358924"><ele>407.0</ele><time>2026-04-09T13:48:25Z</time></trkpt><trkpt lat="39.37370328727318" lon="9.361723062904941"><ele>407.0</ele><time>2026-04-09T13:48:26Z</time></trkpt><trkpt lat="39.37360399162108" lon="9.361741996544497"><ele>405.8</ele><time>2026-04-09T13:48:27Z</time></trkpt><trkpt lat="39.373511700095364" lon="9.361768021695566"><ele>404.6</ele><time>2026-04-09T13:48:28Z</time></trkpt><trkpt lat="39.37338685252678" lon="9.361794013568998"><ele>403.40000000000003</ele><time>2026-04-09T13:48:29Z</time></trkpt><trkpt lat="39.373270613394865" lon="9.36185020215181"><ele>402.20000000000005</ele><time>2026-04-09T13:48:30Z</time></trkpt><trkpt lat="39.373187215022014" lon="9.361927821840732"><ele>401.0</ele><time>2026-04-09T13:48:31Z</time></trkpt><trkpt lat="39.37311212087368" lon="9.361955768045526"><ele>393.6</ele><time>2026-04-09T13:48:32Z</time></trkpt><trkpt lat="39.37300311540043" lon="9.361912070050465"><ele>386.20000000000005</ele><time>2026-04-09T13:48:34.001Z</time></trkpt><trkpt lat="39.37298185223815" lon="9.361813839919865"><ele>378.79999999999995</ele><time>2026-04-09T13:48:35.001Z</time></trkpt><trkpt lat="39.372978011625285" lon="9.361699486446343"><ele>371.4</ele><time>2026-04-09T13:48:36.001Z</time></trkpt><trkpt lat="39.37296071770574" lon="9.361564336205525"><ele>364.0</ele><time>2026-04-09T13:48:37.001Z</time></trkpt><trkpt lat="39.3729445541184" lon="9.361425720679255"><ele>365.5</ele><time>2026-04-09T13:48:38.001Z</time></trkpt><trkpt lat="39.37291480861809" lon="9.36130448477668"><ele>367.0</ele><time>2026-04-09T13:48:39.001Z</time></trkpt><trkpt lat="39.372874379273945" lon="9.3611960143413"><ele>368.5</ele><time>2026-04-09T13:48:40.001Z</time></trkpt><trkpt lat="39.37283202339859" lon="9.361083439129137"><ele>370.0</ele><time>2026-04-09T13:48:41.001Z</time></trkpt><trkpt lat="39.37280396733134" lon="9.360985939490144"><ele>371.5</ele><time>2026-04-09T13:48:42.001Z</time></trkpt><trkpt lat="39.372781860130566" lon="9.360903886214532"><ele>373.0</ele><time>2026-04-09T13:48:43.001Z</time></trkpt><trkpt lat="39.372764222928474" lon="9.360750336474673"><ele>373.0</ele><time>2026-04-09T13:48:45.001Z</time></trkpt><trkpt lat="39.37278362783007" lon="9.360668056537955"><ele>373.0</ele><time>2026-04-09T13:48:46.001Z</time></trkpt><trkpt lat="39.372847505393196" lon="9.360596462582086"><ele>373.0</ele><time>2026-04-09T13:48:47.001Z</time></trkpt><trkpt lat="39.372913088207376" lon="9.360513501752102"><ele>373.0</ele><time>2026-04-09T13:48:48.001Z</time></trkpt><trkpt lat="39.37299665549795" lon="9.36043582171225"><ele>373.0</ele><time>2026-04-09T13:48:49.001Z</time></trkpt><trkpt lat="39.37307434705724" lon="9.360348158135642"><ele>373.0</ele><time>2026-04-09T13:48:50.001Z</time></trkpt><trkpt lat="39.37315284388518" lon="9.360281063195735"><ele>378.59999999999997</ele><time>2026-04-09T13:48:51.001Z</time></trkpt><trkpt lat="39.37323163578599" lon="9.360189049767003"><ele>384.2</ele><time>2026-04-09T13:48:52.001Z</time></trkpt><trkpt lat="39.37330053410832" lon="9.36008531442237"><ele>389.8</ele><time>2026-04-09T13:48:53.001Z</time></trkpt><trkpt lat="39.373348976187685" lon="9.35999566333475"><ele>395.4</ele><time>2026-04-09T13:48:54.001Z</time></trkpt><trkpt lat="39.37339741978324" lon="9.359901948651466"><ele>401.0</ele><time>2026-04-09T13:48:55.001Z</time></trkpt><trkpt lat="39.373420326961984" lon="9.359801716508013"><ele>400.8</ele><time>2026-04-09T13:48:56.001Z</time></trkpt><trkpt lat="39.37343419866591" lon="9.359698406533273"><ele>400.6</ele><time>2026-04-09T13:48:57.001Z</time></trkpt><trkpt lat="39.37339309514812" lon="9.359578056410477"><ele>400.4</ele><time>2026-04-09T13:48:58.001Z</time></trkpt><trkpt lat="39.37337215369301" lon="9.359459325572937"><ele>400.2</ele><time>2026-04-09T13:48:59.001Z</time></trkpt><trkpt lat="39.37333818497797" lon="9.359339208161911"><ele>400.0</ele><time>2026-04-09T13:49:00.001Z</time></trkpt><trkpt lat="39.37330747202929" lon="9.359216580733523"><ele>400.0</ele><time>2026-04-09T13:49:01.001Z</time></trkpt><trkpt lat="39.373271854077466" lon="9.359091052994913"><ele>400.0</ele><time>2026-04-09T13:49:02.001Z</time></trkpt><trkpt lat="39.373249284172715" lon="9.358948676163578"><ele>400.0</ele><time>2026-04-09T13:49:03.001Z</time></trkpt><trkpt lat="39.373224084477705" lon="9.358801606915053"><ele>400.0</ele><time>2026-04-09T13:49:04.001Z</time></trkpt><trkpt lat="39.37319134982621" lon="9.358666025310097"><ele>400.0</ele><time>2026-04-09T13:49:05.001Z</time></trkpt><trkpt lat="39.373152379046935" lon="9.35854865593577"><ele>402.6</ele><time>2026-04-09T13:49:06.001Z</time></trkpt><trkpt lat="39.37311678966364" lon="9.358423209140605"><ele>405.2</ele><time>2026-04-09T13:49:07.001Z</time></trkpt><trkpt lat="39.37307799461133" lon="9.3583074026195"><ele>407.79999999999995</ele><time>2026-04-09T13:49:08.001Z</time></trkpt><trkpt lat="39.373035442695596" lon="9.358196876165021"><ele>410.4</ele><time>2026-04-09T13:49:09.001Z</time></trkpt><trkpt lat="39.372998098634746" lon="9.358095240723989"><ele>413.0</ele><time>2026-04-09T13:49:10.001Z</time></trkpt><trkpt lat="39.37296076032471" lon="9.357992219207798"><ele>407.59999999999997</ele><time>2026-04-09T13:49:11.001Z</time></trkpt><trkpt lat="39.37292058203253" lon="9.357893933105892"><ele>402.2</ele><time>2026-04-09T13:49:12.001Z</time></trkpt><trkpt lat="39.372868021554524" lon="9.357788220948231"><ele>396.8</ele><time>2026-04-09T13:49:13.001Z</time></trkpt><trkpt lat="39.37281269044038" lon="9.357698949961883"><ele>391.4</ele><time>2026-04-09T13:49:14.001Z</time></trkpt><trkpt lat="39.37274563916113" lon="9.357611259070293"><ele>386.0</ele><time>2026-04-09T13:49:15.001Z</time></trkpt><trkpt lat="39.372671409483694" lon="9.357487598949488"><ele>385.99999999999994</ele><time>2026-04-09T13:49:16.001Z</time></trkpt><trkpt lat="39.37260718380535" lon="9.357378730192885"><ele>386.0</ele><time>2026-04-09T13:49:17.001Z</time></trkpt><trkpt lat="39.37256685445696" lon="9.357273458646754"><ele>386.0</ele><time>2026-04-09T13:49:18.001Z</time></trkpt><trkpt lat="39.372541839377064" lon="9.357180347565107"><ele>386.0</ele><time>2026-04-09T13:49:19.001Z</time></trkpt><trkpt lat="39.3725496603312" lon="9.35706827404408"><ele>385.99999999999994</ele><time>2026-04-09T13:49:20.001Z</time></trkpt><trkpt lat="39.37253756221046" lon="9.356963263621482"><ele>386.0</ele><time>2026-04-09T13:49:21.002Z</time></trkpt><trkpt lat="39.3725624534114" lon="9.356847992634604"><ele>386.0</ele><time>2026-04-09T13:49:22.002Z</time></trkpt><trkpt lat="39.37258449521307" lon="9.35671899937655"><ele>386.0</ele><time>2026-04-09T13:49:23.002Z</time></trkpt><trkpt lat="39.37262762839586" lon="9.356560790452226"><ele>386.0</ele><time>2026-04-09T13:49:24.002Z</time></trkpt><trkpt lat="39.37268497753686" lon="9.356422624087744"><ele>386.0</ele><time>2026-04-09T13:49:25.002Z</time></trkpt><trkpt lat="39.372754284155974" lon="9.35626391634156"><ele>383.0</ele><time>2026-04-09T13:49:26.002Z</time></trkpt><trkpt lat="39.37280538719825" lon="9.356147899963064"><ele>380.0</ele><time>2026-04-09T13:49:27.002Z</time></trkpt><trkpt lat="39.37285291447206" lon="9.356031030247404"><ele>377.0</ele><time>2026-04-09T13:49:28.002Z</time></trkpt><trkpt lat="39.372903617298846" lon="9.355899769015524"><ele>374.0</ele><time>2026-04-09T13:49:29.002Z</time></trkpt><trkpt lat="39.372963209278744" lon="9.355783869943581"><ele>371.0</ele><time>2026-04-09T13:49:30.002Z</time></trkpt><trkpt lat="39.3730150475905" lon="9.355668729625124"><ele>375.1666666666667</ele><time>2026-04-09T13:49:31.002Z</time></trkpt><trkpt lat="39.37305841307419" lon="9.355574386948089"><ele>379.33333333333337</ele><time>2026-04-09T13:49:32.002Z</time></trkpt><trkpt lat="39.3730841452561" lon="9.355491704552525"><ele>383.5</ele><time>2026-04-09T13:49:33.002Z</time></trkpt><trkpt lat="39.373130617442804" lon="9.355419206171996"><ele>387.6666666666667</ele><time>2026-04-09T13:49:34.002Z</time></trkpt><trkpt lat="39.37320002686364" lon="9.355365623750535"><ele>391.8333333333333</ele><time>2026-04-09T13:49:35.002Z</time></trkpt><trkpt lat="39.37328849512536" lon="9.355315725405662"><ele>396.0</ele><time>2026-04-09T13:49:36.002Z</time></trkpt><trkpt lat="39.373400686962064" lon="9.355274882113967"><ele>396.0</ele><time>2026-04-09T13:49:37.002Z</time></trkpt><trkpt lat="39.373513804857765" lon="9.35524847600238"><ele>396.0</ele><time>2026-04-09T13:49:38.002Z</time></trkpt><trkpt lat="39.37359080425768" lon="9.355231797487617"><ele>396.0</ele><time>2026-04-09T13:49:39.002Z</time></trkpt><trkpt lat="39.37367501410055" lon="9.355136340704028"><ele>396.0</ele><time>2026-04-09T13:49:41Z</time></trkpt><trkpt lat="39.37369127060482" lon="9.354972275841195"><ele>396.0</ele><time>2026-04-09T13:49:43Z</time></trkpt><trkpt lat="39.37367203921412" lon="9.354876596331607"><ele>396.0</ele><time>2026-04-09T13:49:44Z</time></trkpt><trkpt lat="39.373642877844134" lon="9.354777642197066"><ele>396.0</ele><time>2026-04-09T13:49:45Z</time></trkpt><trkpt lat="39.37360613349916" lon="9.354675121076161"><ele>396.0</ele><time>2026-04-09T13:49:46Z</time></trkpt><trkpt lat="39.373562246002614" lon="9.35456778170765"><ele>396.0</ele><time>2026-04-09T13:49:47Z</time></trkpt><trkpt lat="39.373539846041005" lon="9.354460889919341"><ele>396.0</ele><time>2026-04-09T13:49:48Z</time></trkpt><trkpt lat="39.37353562904733" lon="9.354375747586829"><ele>396.0</ele><time>2026-04-09T13:49:49Z</time></trkpt><trkpt lat="39.37353811681095" lon="9.354283684462983"><ele>396.5</ele><time>2026-04-09T13:49:50Z</time></trkpt><trkpt lat="39.373547211800854" lon="9.354183951248702"><ele>397.0</ele><time>2026-04-09T13:49:51Z</time></trkpt><trkpt lat="39.373542883839825" lon="9.354101356955681"><ele>397.5</ele><time>2026-04-09T13:49:52Z</time></trkpt><trkpt lat="39.37351470151655" lon="9.354006263701443"><ele>398.0</ele><time>2026-04-09T13:49:53Z</time></trkpt><trkpt lat="39.37346721421106" lon="9.353901631009437"><ele>398.5</ele><time>2026-04-09T13:49:54Z</time></trkpt><trkpt lat="39.373414750821325" lon="9.353789973593097"><ele>399.0</ele><time>2026-04-09T13:49:55Z</time></trkpt><trkpt lat="39.373348169564295" lon="9.353663474751324"><ele>402.0</ele><time>2026-04-09T13:49:56Z</time></trkpt><trkpt lat="39.37327643481157" lon="9.353545336458387"><ele>405.0</ele><time>2026-04-09T13:49:57Z</time></trkpt><trkpt lat="39.373223304365695" lon="9.353436695066465"><ele>408.0</ele><time>2026-04-09T13:49:58Z</time></trkpt><trkpt lat="39.37314920394032" lon="9.35334663377068"><ele>411.0</ele><time>2026-04-09T13:49:59Z</time></trkpt><trkpt lat="39.37309170662606" lon="9.353234187118261"><ele>414.0</ele><time>2026-04-09T13:50:00Z</time></trkpt><trkpt lat="39.37302375443623" lon="9.353119869297833"><ele>410.5</ele><time>2026-04-09T13:50:01Z</time></trkpt><trkpt lat="39.37295960998209" lon="9.353037556544269"><ele>407.0</ele><time>2026-04-09T13:50:02Z</time></trkpt><trkpt lat="39.372888616080445" lon="9.352962801666273"><ele>403.5</ele><time>2026-04-09T13:50:03Z</time></trkpt><trkpt lat="39.37281434342859" lon="9.352901651277788"><ele>400.0</ele><time>2026-04-09T13:50:04Z</time></trkpt><trkpt lat="39.372736413255126" lon="9.352847775036457"><ele>396.5</ele><time>2026-04-09T13:50:05Z</time></trkpt><trkpt lat="39.37265854414776" lon="9.35279509943211"><ele>393.0</ele><time>2026-04-09T13:50:06Z</time></trkpt><trkpt lat="39.37259438144057" lon="9.352743329082985"><ele>393.0</ele><time>2026-04-09T13:50:07Z</time></trkpt><trkpt lat="39.37251606252575" lon="9.352613699848536"><ele>393.0</ele><time>2026-04-09T13:50:09Z</time></trkpt><trkpt lat="39.37250671817306" lon="9.352508175383907"><ele>393.0</ele><time>2026-04-09T13:50:10Z</time></trkpt><trkpt lat="39.37249475696635" lon="9.352378664626661"><ele>393.0</ele><time>2026-04-09T13:50:11Z</time></trkpt><trkpt lat="39.37248545909157" lon="9.352231413624326"><ele>393.0</ele><time>2026-04-09T13:50:12Z</time></trkpt><trkpt lat="39.37244946671081" lon="9.352099064670554"><ele>394.79999999999995</ele><time>2026-04-09T13:50:13Z</time></trkpt><trkpt lat="39.37241106236119" lon="9.351974004424015"><ele>396.6</ele><time>2026-04-09T13:50:14Z</time></trkpt><trkpt lat="39.37237595782923" lon="9.351849386783487"><ele>398.4</ele><time>2026-04-09T13:50:15Z</time></trkpt><trkpt lat="39.37234724844021" lon="9.35173918752692"><ele>400.20000000000005</ele><time>2026-04-09T13:50:16Z</time></trkpt><trkpt lat="39.37231870325045" lon="9.351637471784311"><ele>402.0</ele><time>2026-04-09T13:50:17Z</time></trkpt><trkpt lat="39.372278701575986" lon="9.351555121279695"><ele>402.0</ele><time>2026-04-09T13:50:18Z</time></trkpt><trkpt lat="39.372232569529714" lon="9.351467794036552"><ele>402.0</ele><time>2026-04-09T13:50:19Z</time></trkpt><trkpt lat="39.37216244530746" lon="9.351407704749654"><ele>402.0</ele><time>2026-04-09T13:50:20Z</time></trkpt><trkpt lat="39.372068332319124" lon="9.351378132326733"><ele>402.0</ele><time>2026-04-09T13:50:21.001Z</time></trkpt><trkpt lat="39.37199021687961" lon="9.351350938035134"><ele>402.0</ele><time>2026-04-09T13:50:22.001Z</time></trkpt><trkpt lat="39.371894461175785" lon="9.351289216415482"><ele>397.40000000000003</ele><time>2026-04-09T13:50:24.001Z</time></trkpt><trkpt lat="39.371858235310086" lon="9.351118890360675"><ele>392.8</ele><time>2026-04-09T13:50:26.001Z</time></trkpt><trkpt lat="39.3718698967842" lon="9.351002393662538"><ele>388.2</ele><time>2026-04-09T13:50:27.001Z</time></trkpt><trkpt lat="39.371882046615504" lon="9.350892134426045"><ele>383.6</ele><time>2026-04-09T13:50:28.001Z</time></trkpt><trkpt lat="39.37189302623332" lon="9.350768385766917"><ele>379.0</ele><time>2026-04-09T13:50:29.001Z</time></trkpt><trkpt lat="39.37187717130726" lon="9.350633150636739"><ele>379.4</ele><time>2026-04-09T13:50:30.001Z</time></trkpt><trkpt lat="39.37184506052745" lon="9.350518022520909"><ele>379.79999999999995</ele><time>2026-04-09T13:50:31.001Z</time></trkpt><trkpt lat="39.37180936932548" lon="9.350386166076792"><ele>380.20000000000005</ele><time>2026-04-09T13:50:32.001Z</time></trkpt><trkpt lat="39.37177749115598" lon="9.350271801916177"><ele>380.6</ele><time>2026-04-09T13:50:33.001Z</time></trkpt><trkpt lat="39.371744129864865" lon="9.350158931155757"><ele>381.0</ele><time>2026-04-09T13:50:34.001Z</time></trkpt><trkpt lat="39.37169722905008" lon="9.350060222884782"><ele>381.0</ele><time>2026-04-09T13:50:35.001Z</time></trkpt><trkpt lat="39.37166761731472" lon="9.349955091804988"><ele>381.0</ele><time>2026-04-09T13:50:36.001Z</time></trkpt><trkpt lat="39.37163400152775" lon="9.34985951642428"><ele>381.0</ele><time>2026-04-09T13:50:37.001Z</time></trkpt><trkpt lat="39.371592907575156" lon="9.349777991917401"><ele>381.0</ele><time>2026-04-09T13:50:38.001Z</time></trkpt><trkpt lat="39.371537855672685" lon="9.349696952589895"><ele>381.0</ele><time>2026-04-09T13:50:39.001Z</time></trkpt><trkpt lat="39.37149804806107" lon="9.349594398472258"><ele>381.0</ele><time>2026-04-09T13:50:40.001Z</time></trkpt><trkpt lat="39.37149136453034" lon="9.349481652232846"><ele>382.5</ele><time>2026-04-09T13:50:41.001Z</time></trkpt><trkpt lat="39.37150021141981" lon="9.349344633335996"><ele>384.0</ele><time>2026-04-09T13:50:42.001Z</time></trkpt><trkpt lat="39.37151093650156" lon="9.34921695853389"><ele>385.5</ele><time>2026-04-09T13:50:43.001Z</time></trkpt><trkpt lat="39.37150140315679" lon="9.349110824875584"><ele>387.0</ele><time>2026-04-09T13:50:44.001Z</time></trkpt><trkpt lat="39.37147692673832" lon="9.34902527507503"><ele>388.5</ele><time>2026-04-09T13:50:45.001Z</time></trkpt><trkpt lat="39.371434317836936" lon="9.348948805778054"><ele>390.0</ele><time>2026-04-09T13:50:46.001Z</time></trkpt><trkpt lat="39.371401363008424" lon="9.348850484020485"><ele>390.6666666666667</ele><time>2026-04-09T13:50:47.001Z</time></trkpt><trkpt lat="39.37133188674881" lon="9.34880412665207"><ele>391.33333333333337</ele><time>2026-04-09T13:50:48.001Z</time></trkpt><trkpt lat="39.37124315344002" lon="9.348815662925784"><ele>392.0</ele><time>2026-04-09T13:50:49.001Z</time></trkpt><trkpt lat="39.37117114758531" lon="9.34887852547514"><ele>392.6666666666667</ele><time>2026-04-09T13:50:50.001Z</time></trkpt><trkpt lat="39.37111281696741" lon="9.348946625586048"><ele>393.33333333333337</ele><time>2026-04-09T13:50:51.001Z</time></trkpt><trkpt lat="39.371076363736734" lon="9.349054088644264"><ele>394.0</ele><time>2026-04-09T13:50:52.001Z</time></trkpt><trkpt lat="39.37103174897684" lon="9.349214246545387"><ele>394.0</ele><time>2026-04-09T13:50:53.001Z</time></trkpt><trkpt lat="39.37098715525226" lon="9.349314124200124"><ele>394.0</ele><time>2026-04-09T13:50:54.001Z</time></trkpt><trkpt lat="39.37093939335552" lon="9.349413030106803"><ele>394.0</ele><time>2026-04-09T13:50:55.001Z</time></trkpt><trkpt lat="39.370884435877784" lon="9.349504002390445"><ele>394.0</ele><time>2026-04-09T13:50:56.001Z</time></trkpt><trkpt lat="39.3708232836215" lon="9.349598638680307"><ele>394.0</ele><time>2026-04-09T13:50:57.001Z</time></trkpt><trkpt lat="39.37078495742609" lon="9.349702424119679"><ele>391.83333333333337</ele><time>2026-04-09T13:50:58.001Z</time></trkpt><trkpt lat="39.37072915330235" lon="9.349781437019049"><ele>389.6666666666667</ele><time>2026-04-09T13:50:59.001Z</time></trkpt><trkpt lat="39.370706229842305" lon="9.349886177410196"><ele>387.5</ele><time>2026-04-09T13:51:00.001Z</time></trkpt><trkpt lat="39.37072384150329" lon="9.349993281885912"><ele>385.33333333333337</ele><time>2026-04-09T13:51:01.001Z</time></trkpt><trkpt lat="39.37070766783633" lon="9.350094827658287"><ele>383.1666666666667</ele><time>2026-04-09T13:51:02.001Z</time></trkpt><trkpt lat="39.370700470110144" lon="9.350198106277531"><ele>381.0</ele><time>2026-04-09T13:51:03.001Z</time></trkpt><trkpt lat="39.37067311495659" lon="9.35027574788873"><ele>381.0</ele><time>2026-04-09T13:51:04.001Z</time></trkpt><trkpt lat="39.370554888999735" lon="9.350334370448614"><ele>381.0</ele><time>2026-04-09T13:51:06.002Z</time></trkpt><trkpt lat="39.37047481569098" lon="9.35035016232387"><ele>381.0</ele><time>2026-04-09T13:51:07.002Z</time></trkpt><trkpt lat="39.37037834626725" lon="9.350356148950096"><ele>381.0</ele><time>2026-04-09T13:51:08.002Z</time></trkpt><trkpt lat="39.37028536771772" lon="9.35034166411853"><ele>381.0</ele><time>2026-04-09T13:51:09.002Z</time></trkpt><trkpt lat="39.3701896758228" lon="9.350330700796297"><ele>386.1666666666667</ele><time>2026-04-09T13:51:10.002Z</time></trkpt><trkpt lat="39.37009852192157" lon="9.350328033757801"><ele>391.33333333333337</ele><time>2026-04-09T13:51:11.002Z</time></trkpt><trkpt lat="39.37000552860245" lon="9.350330538631987"><ele>396.5</ele><time>2026-04-09T13:51:12.002Z</time></trkpt><trkpt lat="39.36990728263618" lon="9.350329940945382"><ele>401.6666666666667</ele><time>2026-04-09T13:51:13.002Z</time></trkpt><trkpt lat="39.369821236433864" lon="9.350337864207436"><ele>406.83333333333337</ele><time>2026-04-09T13:51:14.002Z</time></trkpt><trkpt lat="39.36976085174526" lon="9.350363527161932"><ele>412.0</ele><time>2026-04-09T13:51:15.002Z</time></trkpt><trkpt lat="39.36969901963089" lon="9.350389758987385"><ele>412.83333333333337</ele><time>2026-04-09T13:51:16.002Z</time></trkpt><trkpt lat="39.369664088704205" lon="9.35048578980699"><ele>413.6666666666667</ele><time>2026-04-09T13:51:17.002Z</time></trkpt><trkpt lat="39.369647209626244" lon="9.350581326297872"><ele>414.5</ele><time>2026-04-09T13:51:18.002Z</time></trkpt><trkpt lat="39.36965192027663" lon="9.350687808057794"><ele>415.33333333333337</ele><time>2026-04-09T13:51:19.002Z</time></trkpt><trkpt lat="39.369651542524366" lon="9.35078396947796"><ele>416.1666666666667</ele><time>2026-04-09T13:51:20.002Z</time></trkpt><trkpt lat="39.369608923315724" lon="9.350864373344718"><ele>417.0</ele><time>2026-04-09T13:51:21.002Z</time></trkpt><trkpt lat="39.369573852462224" lon="9.350937227482676"><ele>417.0</ele><time>2026-04-09T13:51:22.002Z</time></trkpt><trkpt lat="39.369532154992775" lon="9.351015786778072"><ele>417.0</ele><time>2026-04-09T13:51:23.002Z</time></trkpt><trkpt lat="39.36949532430396" lon="9.351102443333776"><ele>417.0</ele><time>2026-04-09T13:51:24.002Z</time></trkpt><trkpt lat="39.369436333377266" lon="9.35116052052695"><ele>417.0</ele><time>2026-04-09T13:51:25.002Z</time></trkpt><trkpt lat="39.36935750960814" lon="9.351186488471635"><ele>417.0</ele><time>2026-04-09T13:51:26.002Z</time></trkpt><trkpt lat="39.36928093453986" lon="9.35118815527394"><ele>417.0</ele><time>2026-04-09T13:51:27.002Z</time></trkpt><trkpt lat="39.369197464712386" lon="9.351181632330922"><ele>417.0</ele><time>2026-04-09T13:51:28.002Z</time></trkpt><trkpt lat="39.369094731441955" lon="9.351173961300576"><ele>417.0</ele><time>2026-04-09T13:51:29.002Z</time></trkpt><trkpt lat="39.36899097226297" lon="9.35116796028913"><ele>417.0</ele><time>2026-04-09T13:51:30.002Z</time></trkpt><trkpt lat="39.36889901287512" lon="9.351166532677862"><ele>417.0</ele><time>2026-04-09T13:51:31.002Z</time></trkpt><trkpt lat="39.36882865785153" lon="9.351189496325503"><ele>417.0</ele><time>2026-04-09T13:51:32.002Z</time></trkpt><trkpt lat="39.36874963473826" lon="9.351187288064928"><ele>416.8333333333333</ele><time>2026-04-09T13:51:33.002Z</time></trkpt><trkpt lat="39.36867177120205" lon="9.351234298814814"><ele>416.66666666666663</ele><time>2026-04-09T13:51:34.002Z</time></trkpt><trkpt lat="39.36861994237296" lon="9.35133614000616"><ele>416.5</ele><time>2026-04-09T13:51:35.002Z</time></trkpt><trkpt lat="39.368564142143946" lon="9.351429812985335"><ele>416.3333333333333</ele><time>2026-04-09T13:51:36.002Z</time></trkpt><trkpt lat="39.36850846064631" lon="9.351524070955604"><ele>416.16666666666663</ele><time>2026-04-09T13:51:37.002Z</time></trkpt><trkpt lat="39.36846496088901" lon="9.35161793380748"><ele>416.0</ele><time>2026-04-09T13:51:38.002Z</time></trkpt><trkpt lat="39.368418306329445" lon="9.351734534820409"><ele>416.0</ele><time>2026-04-09T13:51:39.002Z</time></trkpt><trkpt lat="39.36837145293324" lon="9.351856500818908"><ele>416.0</ele><time>2026-04-09T13:51:40.002Z</time></trkpt><trkpt lat="39.36832496723329" lon="9.351968271726838"><ele>416.0</ele><time>2026-04-09T13:51:41.002Z</time></trkpt><trkpt lat="39.36827210812647" lon="9.35205642097183"><ele>416.0</ele><time>2026-04-09T13:51:42.002Z</time></trkpt><trkpt lat="39.368213026652334" lon="9.352130243290624"><ele>416.0</ele><time>2026-04-09T13:51:43.002Z</time></trkpt><trkpt lat="39.36812485847463" lon="9.352162404188206"><ele>413.5</ele><time>2026-04-09T13:51:44.002Z</time></trkpt><trkpt lat="39.36802413168264" lon="9.35220458593861"><ele>411.0</ele><time>2026-04-09T13:51:45.002Z</time></trkpt><trkpt lat="39.36790587694855" lon="9.35227800191234"><ele>408.5</ele><time>2026-04-09T13:51:46Z</time></trkpt><trkpt lat="39.36777021584359" lon="9.352324986180816"><ele>406.0</ele><time>2026-04-09T13:51:47Z</time></trkpt><trkpt lat="39.36763436049245" lon="9.352406336323156"><ele>406.0</ele><time>2026-04-09T13:51:48Z</time></trkpt><trkpt lat="39.36750775269946" lon="9.352478528392373"><ele>406.0</ele><time>2026-04-09T13:51:49Z</time></trkpt><trkpt lat="39.36740253762364" lon="9.352543857612122"><ele>406.0</ele><time>2026-04-09T13:51:50Z</time></trkpt><trkpt lat="39.367299015288786" lon="9.352576457911216"><ele>406.0</ele><time>2026-04-09T13:51:51Z</time></trkpt><trkpt lat="39.367190587396394" lon="9.352557432678498"><ele>405.25</ele><time>2026-04-09T13:51:52Z</time></trkpt><trkpt lat="39.36709133000088" lon="9.352529930944343"><ele>404.5</ele><time>2026-04-09T13:51:53Z</time></trkpt><trkpt lat="39.366981937874485" lon="9.352508970499121"><ele>403.75</ele><time>2026-04-09T13:51:54Z</time></trkpt><trkpt lat="39.36686559665569" lon="9.352456893012329"><ele>403.0</ele><time>2026-04-09T13:51:55Z</time></trkpt><trkpt lat="39.366750994837645" lon="9.352401274694053"><ele>403.0</ele><time>2026-04-09T13:51:56Z</time></trkpt><trkpt lat="39.36667350258497" lon="9.352308173168943"><ele>403.0</ele><time>2026-04-09T13:51:57Z</time></trkpt><trkpt lat="39.36660953964216" lon="9.352212311346216"><ele>403.0</ele><time>2026-04-09T13:51:58Z</time></trkpt><trkpt lat="39.36654591537058" lon="9.35209762078938"><ele>403.0</ele><time>2026-04-09T13:51:59Z</time></trkpt><trkpt lat="39.366471041117194" lon="9.351947521258406"><ele>404.0</ele><time>2026-04-09T13:52:00Z</time></trkpt><trkpt lat="39.366371878851034" lon="9.351803145132905"><ele>405.0</ele><time>2026-04-09T13:52:01Z</time></trkpt><trkpt lat="39.36627945572633" lon="9.351635712824494"><ele>406.0</ele><time>2026-04-09T13:52:02Z</time></trkpt><trkpt lat="39.366187894472" lon="9.351500301301456"><ele>407.0</ele><time>2026-04-09T13:52:03Z</time></trkpt><trkpt lat="39.36608752837107" lon="9.351385477737184"><ele>411.25</ele><time>2026-04-09T13:52:04Z</time></trkpt><trkpt lat="39.3659766541986" lon="9.351287433934699"><ele>415.5</ele><time>2026-04-09T13:52:05Z</time></trkpt><trkpt lat="39.365875809077245" lon="9.351201542565002"><ele>419.75</ele><time>2026-04-09T13:52:06Z</time></trkpt><trkpt lat="39.365769610782046" lon="9.351111447437273"><ele>424.0</ele><time>2026-04-09T13:52:07Z</time></trkpt><trkpt lat="39.365655279412" lon="9.351020698875226"><ele>424.0</ele><time>2026-04-09T13:52:08Z</time></trkpt><trkpt lat="39.36553770857164" lon="9.350931083335487"><ele>424.0</ele><time>2026-04-09T13:52:09Z</time></trkpt><trkpt lat="39.36542048724396" lon="9.350842707152115"><ele>424.0</ele><time>2026-04-09T13:52:10Z</time></trkpt><trkpt lat="39.365296241219234" lon="9.350761239438349"><ele>424.0</ele><time>2026-04-09T13:52:11Z</time></trkpt><trkpt lat="39.36516982522305" lon="9.350688970916323"><ele>424.0</ele><time>2026-04-09T13:52:12Z</time></trkpt><trkpt lat="39.3650363375886" lon="9.350618999972003"><ele>424.0</ele><time>2026-04-09T13:52:13Z</time></trkpt><trkpt lat="39.36490046190669" lon="9.350554411075219"><ele>424.0</ele><time>2026-04-09T13:52:14Z</time></trkpt><trkpt lat="39.36479434376499" lon="9.35047256092928"><ele>424.0</ele><time>2026-04-09T13:52:15Z</time></trkpt><trkpt lat="39.36470200028269" lon="9.350400531946235"><ele>420.75</ele><time>2026-04-09T13:52:16Z</time></trkpt><trkpt lat="39.36461808390539" lon="9.350315181798816"><ele>417.5</ele><time>2026-04-09T13:52:17Z</time></trkpt><trkpt lat="39.36456024046093" lon="9.350202243660279"><ele>414.25</ele><time>2026-04-09T13:52:18Z</time></trkpt><trkpt lat="39.364524177798984" lon="9.350060885031457"><ele>411.0</ele><time>2026-04-09T13:52:19Z</time></trkpt><trkpt lat="39.36447527533461" lon="9.349912925360755"><ele>411.0</ele><time>2026-04-09T13:52:20Z</time></trkpt><trkpt lat="39.36443156951308" lon="9.349759405107703"><ele>411.0</ele><time>2026-04-09T13:52:21Z</time></trkpt><trkpt lat="39.36441004936389" lon="9.349611792447995"><ele>411.0</ele><time>2026-04-09T13:52:22Z</time></trkpt><trkpt lat="39.3643991608344" lon="9.349452641107801"><ele>411.0</ele><time>2026-04-09T13:52:23Z</time></trkpt><trkpt lat="39.364411256036135" lon="9.349306856440268"><ele>412.0</ele><time>2026-04-09T13:52:24Z</time></trkpt><trkpt lat="39.364401496765176" lon="9.349158673093854"><ele>413.0</ele><time>2026-04-09T13:52:25Z</time></trkpt><trkpt lat="39.364409458812126" lon="9.349001576339067"><ele>414.0</ele><time>2026-04-09T13:52:26Z</time></trkpt><trkpt lat="39.36439801873016" lon="9.348852661632518"><ele>415.0</ele><time>2026-04-09T13:52:27.001Z</time></trkpt><trkpt lat="39.36436877211089" lon="9.348725296187702"><ele>415.50000000000006</ele><time>2026-04-09T13:52:28.001Z</time></trkpt><trkpt lat="39.36433031792488" lon="9.34862272153777"><ele>416.0</ele><time>2026-04-09T13:52:29.001Z</time></trkpt><trkpt lat="39.364282001725776" lon="9.348539541526709"><ele>416.5</ele><time>2026-04-09T13:52:30.001Z</time></trkpt><trkpt lat="39.36422087970947" lon="9.348464538082116"><ele>417.0</ele><time>2026-04-09T13:52:31.001Z</time></trkpt><trkpt lat="39.36414421077813" lon="9.348391563792788"><ele>417.50000000000006</ele><time>2026-04-09T13:52:32.001Z</time></trkpt><trkpt lat="39.364060913477935" lon="9.348326709423066"><ele>418.0</ele><time>2026-04-09T13:52:33.001Z</time></trkpt><trkpt lat="39.3639720162897" lon="9.3482553402155"><ele>418.0</ele><time>2026-04-09T13:52:34.001Z</time></trkpt><trkpt lat="39.363878222110436" lon="9.348179591590554"><ele>418.0</ele><time>2026-04-09T13:52:35.001Z</time></trkpt><trkpt lat="39.363783940778234" lon="9.348095372555349"><ele>418.0</ele><time>2026-04-09T13:52:36.001Z</time></trkpt><trkpt lat="39.36368696840968" lon="9.348014511206415"><ele>418.0</ele><time>2026-04-09T13:52:37.001Z</time></trkpt><trkpt lat="39.363594570576225" lon="9.347926506962974"><ele>420.2</ele><time>2026-04-09T13:52:38.001Z</time></trkpt><trkpt lat="39.36351611969462" lon="9.347823538719291"><ele>422.4</ele><time>2026-04-09T13:52:39.001Z</time></trkpt><trkpt lat="39.36346820332622" lon="9.347712702641934"><ele>424.59999999999997</ele><time>2026-04-09T13:52:40.001Z</time></trkpt><trkpt lat="39.36340034789091" lon="9.347665133198625"><ele>426.79999999999995</ele><time>2026-04-09T13:52:41.001Z</time></trkpt><trkpt lat="39.363285478733246" lon="9.347645591184694"><ele>429.0</ele><time>2026-04-09T13:52:43.001Z</time></trkpt><trkpt lat="39.3632311127241" lon="9.347724040519795"><ele>429.0</ele><time>2026-04-09T13:52:44.001Z</time></trkpt><trkpt lat="39.363195318968295" lon="9.347792463343087"><ele>429.0</ele><time>2026-04-09T13:52:45.001Z</time></trkpt><trkpt lat="39.36317263743771" lon="9.347889590493555"><ele>429.0</ele><time>2026-04-09T13:52:46.001Z</time></trkpt><trkpt lat="39.363168247548224" lon="9.348020470393427"><ele>429.0</ele><time>2026-04-09T13:52:47.001Z</time></trkpt><trkpt lat="39.36318323275498" lon="9.348143928004923"><ele>429.0</ele><time>2026-04-09T13:52:48.001Z</time></trkpt><trkpt lat="39.3632173991516" lon="9.348261691640177"><ele>429.0</ele><time>2026-04-09T13:52:49.001Z</time></trkpt><trkpt lat="39.363265673745" lon="9.34834386346271"><ele>428.6</ele><time>2026-04-09T13:52:50.001Z</time></trkpt><trkpt lat="39.36333288203397" lon="9.348419477193033"><ele>428.2</ele><time>2026-04-09T13:52:51.001Z</time></trkpt><trkpt lat="39.36341830201043" lon="9.348498106511776"><ele>427.80000000000007</ele><time>2026-04-09T13:52:52.001Z</time></trkpt><trkpt lat="39.36350580554151" lon="9.34856596379702"><ele>427.40000000000003</ele><time>2026-04-09T13:52:53.001Z</time></trkpt><trkpt lat="39.363583850350246" lon="9.348662523982833"><ele>427.0</ele><time>2026-04-09T13:52:54.001Z</time></trkpt><trkpt lat="39.36363809291912" lon="9.348730936064037"><ele>431.40000000000003</ele><time>2026-04-09T13:52:55.001Z</time></trkpt><trkpt lat="39.36366491993599" lon="9.348878794918791"><ele>435.80000000000007</ele><time>2026-04-09T13:52:57.001Z</time></trkpt><trkpt lat="39.36367930176821" lon="9.348974096470014"><ele>440.2</ele><time>2026-04-09T13:52:58.001Z</time></trkpt><trkpt lat="39.3636703051487" lon="9.349088252979435"><ele>444.6</ele><time>2026-04-09T13:52:59.001Z</time></trkpt><trkpt lat="39.3636761856699" lon="9.349205542636245"><ele>449.0</ele><time>2026-04-09T13:53:00.001Z</time></trkpt><trkpt lat="39.363682441564656" lon="9.349306793399517"><ele>449.0</ele><time>2026-04-09T13:53:01.001Z</time></trkpt><trkpt lat="39.36366819482182" lon="9.349425216163734"><ele>449.0</ele><time>2026-04-09T13:53:02.001Z</time></trkpt><trkpt lat="39.36365902413704" lon="9.349543477513045"><ele>449.0</ele><time>2026-04-09T13:53:03.001Z</time></trkpt><trkpt lat="39.36366068886766" lon="9.349667839305528"><ele>449.0</ele><time>2026-04-09T13:53:04.001Z</time></trkpt><trkpt lat="39.363639101729035" lon="9.349788539222006"><ele>449.0</ele><time>2026-04-09T13:53:05.001Z</time></trkpt><trkpt lat="39.3636202473619" lon="9.349911819893453"><ele>448.16666666666663</ele><time>2026-04-09T13:53:06.001Z</time></trkpt><trkpt lat="39.363583897132145" lon="9.350022713401414"><ele>447.3333333333333</ele><time>2026-04-09T13:53:07.001Z</time></trkpt><trkpt lat="39.36356114454169" lon="9.35012365251494"><ele>446.5</ele><time>2026-04-09T13:53:08.001Z</time></trkpt><trkpt lat="39.36349920897809" lon="9.350196422166265"><ele>445.66666666666663</ele><time>2026-04-09T13:53:09.001Z</time></trkpt><trkpt lat="39.3634226340836" lon="9.350256178624036"><ele>444.8333333333333</ele><time>2026-04-09T13:53:10.001Z</time></trkpt><trkpt lat="39.36334098078345" lon="9.350327372668916"><ele>444.0</ele><time>2026-04-09T13:53:11.002Z</time></trkpt><trkpt lat="39.363258506965735" lon="9.350408544796394"><ele>444.0</ele><time>2026-04-09T13:53:12.002Z</time></trkpt><trkpt lat="39.36317628431234" lon="9.350491378090924"><ele>444.0</ele><time>2026-04-09T13:53:13.002Z</time></trkpt><trkpt lat="39.36310631889285" lon="9.350567272426135"><ele>444.0</ele><time>2026-04-09T13:53:14.002Z</time></trkpt><trkpt lat="39.36303850682387" lon="9.350644742956966"><ele>444.0</ele><time>2026-04-09T13:53:15.002Z</time></trkpt><trkpt lat="39.362962650003716" lon="9.350728065458368"><ele>444.0</ele><time>2026-04-09T13:53:16.002Z</time></trkpt><trkpt lat="39.362889812635736" lon="9.350820779803781"><ele>444.6</ele><time>2026-04-09T13:53:17.002Z</time></trkpt><trkpt lat="39.36283127782076" lon="9.350938075534046"><ele>445.2</ele><time>2026-04-09T13:53:18.002Z</time></trkpt><trkpt lat="39.36278818750965" lon="9.35106454191549"><ele>445.80000000000007</ele><time>2026-04-09T13:53:19.002Z</time></trkpt><trkpt lat="39.3627678653498" lon="9.351191955329886"><ele>446.40000000000003</ele><time>2026-04-09T13:53:20.002Z</time></trkpt><trkpt lat="39.36276119942937" lon="9.351328536563537"><ele>447.0</ele><time>2026-04-09T13:53:21.002Z</time></trkpt><trkpt lat="39.36272753801159" lon="9.351430909217921"><ele>447.0</ele><time>2026-04-09T13:53:22.002Z</time></trkpt><trkpt lat="39.362696661238964" lon="9.351558795560129"><ele>447.0</ele><time>2026-04-09T13:53:24.002Z</time></trkpt><trkpt lat="39.36261189751171" lon="9.351652952472596"><ele>447.0</ele><time>2026-04-09T13:53:26.002Z</time></trkpt><trkpt lat="39.36253829901502" lon="9.351657519160124"><ele>447.0</ele><time>2026-04-09T13:53:27.002Z</time></trkpt><trkpt lat="39.362463600054824" lon="9.35164406249973"><ele>447.0</ele><time>2026-04-09T13:53:28.002Z</time></trkpt><trkpt lat="39.36242392416904" lon="9.351547398887172"><ele>447.0</ele><time>2026-04-09T13:53:29.002Z</time></trkpt><trkpt lat="39.36235795926692" lon="9.35146226513047"><ele>447.0</ele><time>2026-04-09T13:53:30.002Z</time></trkpt><trkpt lat="39.36228179490447" lon="9.351384630535193"><ele>447.00000000000006</ele><time>2026-04-09T13:53:31.002Z</time></trkpt><trkpt lat="39.36220754050556" lon="9.351325577517843"><ele>447.00000000000006</ele><time>2026-04-09T13:53:32.002Z</time></trkpt><trkpt lat="39.36211455957946" lon="9.351331928362537"><ele>447.0</ele><time>2026-04-09T13:53:33.002Z</time></trkpt><trkpt lat="39.362027790984" lon="9.351320368753951"><ele>447.0</ele><time>2026-04-09T13:53:34.002Z</time></trkpt><trkpt lat="39.361941334453405" lon="9.351289846638618"><ele>455.20000000000005</ele><time>2026-04-09T13:53:35.002Z</time></trkpt><trkpt lat="39.36186200371882" lon="9.35127936282071"><ele>463.40000000000003</ele><time>2026-04-09T13:53:36.002Z</time></trkpt><trkpt lat="39.361773778647034" lon="9.351284103497347"><ele>471.59999999999997</ele><time>2026-04-09T13:53:37.002Z</time></trkpt><trkpt lat="39.36168853863053" lon="9.351251473377925"><ele>479.79999999999995</ele><time>2026-04-09T13:53:38.002Z</time></trkpt><trkpt lat="39.36159285303736" lon="9.351239638793118"><ele>488.0</ele><time>2026-04-09T13:53:39.002Z</time></trkpt><trkpt lat="39.3614955515285" lon="9.351233157108014"><ele>488.0</ele><time>2026-04-09T13:53:40.002Z</time></trkpt><trkpt lat="39.36139764504627" lon="9.351225519320165"><ele>487.99999999999994</ele><time>2026-04-09T13:53:41.002Z</time></trkpt><trkpt lat="39.36130173732617" lon="9.351218016022404"><ele>487.99999999999994</ele><time>2026-04-09T13:53:42.002Z</time></trkpt><trkpt lat="39.361204716774786" lon="9.351211436781579"><ele>488.0</ele><time>2026-04-09T13:53:43.002Z</time></trkpt><trkpt lat="39.36110788956243" lon="9.351215546520345"><ele>488.0</ele><time>2026-04-09T13:53:44.002Z</time></trkpt><trkpt lat="39.361016052135625" lon="9.351197744587282"><ele>487.49999999999994</ele><time>2026-04-09T13:53:45.002Z</time></trkpt><trkpt lat="39.36092148917517" lon="9.351222371621901"><ele>487.0</ele><time>2026-04-09T13:53:46.002Z</time></trkpt><trkpt lat="39.360845664672084" lon="9.351241441968092"><ele>486.5</ele><time>2026-04-09T13:53:47.002Z</time></trkpt><trkpt lat="39.360790265378284" lon="9.351287251382473"><ele>486.0</ele><time>2026-04-09T13:53:48.002Z</time></trkpt><trkpt lat="39.36073935609712" lon="9.3514319240836"><ele>485.49999999999994</ele><time>2026-04-09T13:53:50.002Z</time></trkpt><trkpt lat="39.3607630140773" lon="9.351521562913565"><ele>485.0</ele><time>2026-04-09T13:53:51.002Z</time></trkpt><trkpt lat="39.36079964209738" lon="9.35159926723244"><ele>485.0</ele><time>2026-04-09T13:53:52Z</time></trkpt><trkpt lat="39.36085954252113" lon="9.35168478421075"><ele>485.0</ele><time>2026-04-09T13:53:53Z</time></trkpt><trkpt lat="39.360930744597155" lon="9.351776439541874"><ele>485.0</ele><time>2026-04-09T13:53:54Z</time></trkpt><trkpt lat="39.36099756292742" lon="9.351874556475067"><ele>485.0</ele><time>2026-04-09T13:53:55Z</time></trkpt><trkpt lat="39.36104102439001" lon="9.351993504182568"><ele>485.0</ele><time>2026-04-09T13:53:56Z</time></trkpt><trkpt lat="39.361087771465876" lon="9.352082210395617"><ele>485.0</ele><time>2026-04-09T13:53:57Z</time></trkpt><trkpt lat="39.361136155412034" lon="9.352185395672265"><ele>485.0</ele><time>2026-04-09T13:53:58Z</time></trkpt><trkpt lat="39.36117888454405" lon="9.352298548071056"><ele>485.0</ele><time>2026-04-09T13:53:59Z</time></trkpt><trkpt lat="39.361210506754176" lon="9.352417066680689"><ele>485.0</ele><time>2026-04-09T13:54:00Z</time></trkpt><trkpt lat="39.36124755125961" lon="9.352533952137613"><ele>485.0</ele><time>2026-04-09T13:54:01Z</time></trkpt><trkpt lat="39.36128784295582" lon="9.352647664144811"><ele>481.8</ele><time>2026-04-09T13:54:02Z</time></trkpt><trkpt lat="39.36136122434221" lon="9.352740055838485"><ele>478.6</ele><time>2026-04-09T13:54:03Z</time></trkpt><trkpt lat="39.36139910918225" lon="9.352856298408353"><ele>475.4</ele><time>2026-04-09T13:54:04Z</time></trkpt><trkpt lat="39.36144214845039" lon="9.352952630069078"><ele>472.2</ele><time>2026-04-09T13:54:05Z</time></trkpt><trkpt lat="39.36147115744313" lon="9.353034135155914"><ele>469.0</ele><time>2026-04-09T13:54:06Z</time></trkpt><trkpt lat="39.36146915805628" lon="9.35318670119039"><ele>469.00000000000006</ele><time>2026-04-09T13:54:08Z</time></trkpt><trkpt lat="39.36145927285615" lon="9.353270762339676"><ele>469.0</ele><time>2026-04-09T13:54:09Z</time></trkpt><trkpt lat="39.361388898847565" lon="9.353331566754557"><ele>469.0</ele><time>2026-04-09T13:54:10Z</time></trkpt><trkpt lat="39.3613186068305" lon="9.3534169439758"><ele>469.0</ele><time>2026-04-09T13:54:11Z</time></trkpt><trkpt lat="39.36124468760203" lon="9.353494493059879"><ele>469.00000000000006</ele><time>2026-04-09T13:54:12Z</time></trkpt><trkpt lat="39.36116614193364" lon="9.353573596928028"><ele>469.0</ele><time>2026-04-09T13:54:13Z</time></trkpt><trkpt lat="39.361101992851516" lon="9.353660994357208"><ele>475.2</ele><time>2026-04-09T13:54:14Z</time></trkpt><trkpt lat="39.361034631362834" lon="9.353754376743762"><ele>481.4</ele><time>2026-04-09T13:54:15Z</time></trkpt><trkpt lat="39.36097992928576" lon="9.353866642397692"><ele>487.6</ele><time>2026-04-09T13:54:16Z</time></trkpt><trkpt lat="39.360929446353104" lon="9.353981123932542"><ele>493.8</ele><time>2026-04-09T13:54:17Z</time></trkpt><trkpt lat="39.36086453637738" lon="9.35405235610734"><ele>500.0</ele><time>2026-04-09T13:54:18Z</time></trkpt><trkpt lat="39.360796007450276" lon="9.354110629158951"><ele>499.99999999999994</ele><time>2026-04-09T13:54:19Z</time></trkpt><trkpt lat="39.36071479844426" lon="9.354154724472993"><ele>500.0</ele><time>2026-04-09T13:54:20Z</time></trkpt><trkpt lat="39.360643174627825" lon="9.354220476151482"><ele>500.0</ele><time>2026-04-09T13:54:21Z</time></trkpt><trkpt lat="39.360593873793924" lon="9.354287538121667"><ele>500.0</ele><time>2026-04-09T13:54:22Z</time></trkpt><trkpt lat="39.360563812190485" lon="9.354401865717254"><ele>499.99999999999994</ele><time>2026-04-09T13:54:23Z</time></trkpt><trkpt lat="39.36052803331006" lon="9.35449882483008"><ele>500.0</ele><time>2026-04-09T13:54:24Z</time></trkpt><trkpt lat="39.3604680045279" lon="9.354593030203436"><ele>499.99999999999994</ele><time>2026-04-09T13:54:25Z</time></trkpt><trkpt lat="39.36040805136781" lon="9.354687425886167"><ele>500.0</ele><time>2026-04-09T13:54:26Z</time></trkpt><trkpt lat="39.36033784700903" lon="9.35475230733654"><ele>500.0</ele><time>2026-04-09T13:54:27.001Z</time></trkpt><trkpt lat="39.36025951149893" lon="9.354783712461508"><ele>500.0</ele><time>2026-04-09T13:54:28.001Z</time></trkpt><trkpt lat="39.360178731493065" lon="9.354809455461861"><ele>499.99999999999994</ele><time>2026-04-09T13:54:29.001Z</time></trkpt><trkpt lat="39.36010496235059" lon="9.354809435979046"><ele>500.0</ele><time>2026-04-09T13:54:30.001Z</time></trkpt><trkpt lat="39.360016761373764" lon="9.35472584345979"><ele>504.1428571428571</ele><time>2026-04-09T13:54:32.001Z</time></trkpt><trkpt lat="39.3599616600351" lon="9.35466784711417"><ele>508.28571428571433</ele><time>2026-04-09T13:54:33.001Z</time></trkpt><trkpt lat="39.35990211745071" lon="9.354613472638563"><ele>512.4285714285714</ele><time>2026-04-09T13:54:34.001Z</time></trkpt><trkpt lat="39.3598391591726" lon="9.354563323510016"><ele>516.5714285714286</ele><time>2026-04-09T13:54:35.001Z</time></trkpt><trkpt lat="39.359768980660014" lon="9.354525888442943"><ele>520.7142857142857</ele><time>2026-04-09T13:54:36.001Z</time></trkpt><trkpt lat="39.35969205904616" lon="9.354510467308744"><ele>524.8571428571429</ele><time>2026-04-09T13:54:37.001Z</time></trkpt><trkpt lat="39.359616517432585" lon="9.354504183198713"><ele>529.0</ele><time>2026-04-09T13:54:38.001Z</time></trkpt><trkpt lat="39.35953345648806" lon="9.354512114631724"><ele>529.6</ele><time>2026-04-09T13:54:39.001Z</time></trkpt><trkpt lat="39.35944537080347" lon="9.354577265441648"><ele>530.2</ele><time>2026-04-09T13:54:40.001Z</time></trkpt><trkpt lat="39.35932816793869" lon="9.354634962626294"><ele>530.8000000000001</ele><time>2026-04-09T13:54:41.001Z</time></trkpt><trkpt lat="39.35923727109809" lon="9.354685534682606"><ele>531.4</ele><time>2026-04-09T13:54:42.001Z</time></trkpt><trkpt lat="39.35917501065507" lon="9.354705793119876"><ele>532.0</ele><time>2026-04-09T13:54:43.001Z</time></trkpt><trkpt lat="39.35910786867776" lon="9.354717355401505"><ele>532.0</ele><time>2026-04-09T13:54:44.001Z</time></trkpt><trkpt lat="39.35902920312585" lon="9.354706167515253"><ele>532.0</ele><time>2026-04-09T13:54:45.001Z</time></trkpt><trkpt lat="39.35894896284747" lon="9.354685557924768"><ele>532.0</ele><time>2026-04-09T13:54:46.001Z</time></trkpt><trkpt lat="39.3588642836455" lon="9.354652966339621"><ele>532.0</ele><time>2026-04-09T13:54:47.001Z</time></trkpt><trkpt lat="39.358785296287024" lon="9.35459559291539"><ele>532.0</ele><time>2026-04-09T13:54:48.001Z</time></trkpt><trkpt lat="39.35870367715486" lon="9.354532041236068"><ele>532.0</ele><time>2026-04-09T13:54:49.001Z</time></trkpt><trkpt lat="39.35862136372659" lon="9.354460423450002"><ele>531.3333333333334</ele><time>2026-04-09T13:54:50.001Z</time></trkpt><trkpt lat="39.35855547720735" lon="9.354389661014697"><ele>530.6666666666667</ele><time>2026-04-09T13:54:51.001Z</time></trkpt><trkpt lat="39.35849882323682" lon="9.354311484442093"><ele>530.0</ele><time>2026-04-09T13:54:52.001Z</time></trkpt><trkpt lat="39.35847820882203" lon="9.354210096649956"><ele>529.3333333333334</ele><time>2026-04-09T13:54:53.001Z</time></trkpt><trkpt lat="39.35844887285387" lon="9.354091774400544"><ele>528.6666666666666</ele><time>2026-04-09T13:54:54.001Z</time></trkpt><trkpt lat="39.35840446564683" lon="9.353985542362098"><ele>528.0</ele><time>2026-04-09T13:54:55.001Z</time></trkpt><trkpt lat="39.35838175875325" lon="9.353866915396454"><ele>530.0</ele><time>2026-04-09T13:54:56.001Z</time></trkpt><trkpt lat="39.3583502519487" lon="9.353745439616418"><ele>532.0</ele><time>2026-04-09T13:54:57.001Z</time></trkpt><trkpt lat="39.35831998813522" lon="9.353626343247935"><ele>534.0</ele><time>2026-04-09T13:54:58.001Z</time></trkpt><trkpt lat="39.3582945541981" lon="9.353500481770025"><ele>536.0</ele><time>2026-04-09T13:54:59.001Z</time></trkpt><trkpt lat="39.35828103446129" lon="9.353375590366095"><ele>538.0</ele><time>2026-04-09T13:55:00.001Z</time></trkpt><trkpt lat="39.35826906583883" lon="9.353263899711772"><ele>538.0</ele><time>2026-04-09T13:55:01.001Z</time></trkpt><trkpt lat="39.35825522391015" lon="9.353134271334394"><ele>538.0</ele><time>2026-04-09T13:55:02.001Z</time></trkpt><trkpt lat="39.35823203081018" lon="9.353017469594862"><ele>538.0</ele><time>2026-04-09T13:55:03.001Z</time></trkpt><trkpt lat="39.35821468487302" lon="9.352899134709284"><ele>538.0</ele><time>2026-04-09T13:55:04.001Z</time></trkpt><trkpt lat="39.35817931337849" lon="9.352773402799993"><ele>538.0</ele><time>2026-04-09T13:55:05.001Z</time></trkpt><trkpt lat="39.35812503503516" lon="9.35266451464611"><ele>539.0</ele><time>2026-04-09T13:55:06.001Z</time></trkpt><trkpt lat="39.358094668339845" lon="9.35254792787751"><ele>540.0</ele><time>2026-04-09T13:55:07.001Z</time></trkpt><trkpt lat="39.35805184797885" lon="9.352445794482868"><ele>541.0</ele><time>2026-04-09T13:55:08.001Z</time></trkpt><trkpt lat="39.358012064519656" lon="9.352353000014748"><ele>542.0</ele><time>2026-04-09T13:55:09.001Z</time></trkpt><trkpt lat="39.3579681029557" lon="9.352292087021254"><ele>543.0</ele><time>2026-04-09T13:55:10.002Z</time></trkpt><trkpt lat="39.357904704851485" lon="9.352200871363408"><ele>544.0</ele><time>2026-04-09T13:55:12.002Z</time></trkpt><trkpt lat="39.35782460750771" lon="9.35216771255582"><ele>546.1666666666667</ele><time>2026-04-09T13:55:13.002Z</time></trkpt><trkpt lat="39.35771910840686" lon="9.352150083914177"><ele>548.3333333333334</ele><time>2026-04-09T13:55:14.002Z</time></trkpt><trkpt lat="39.35763833847971" lon="9.352146835666947"><ele>550.5</ele><time>2026-04-09T13:55:15.002Z</time></trkpt><trkpt lat="39.35756559668541" lon="9.35214660548565"><ele>552.6666666666666</ele><time>2026-04-09T13:55:16.002Z</time></trkpt><trkpt lat="39.357476898998435" lon="9.352150436856752"><ele>554.8333333333333</ele><time>2026-04-09T13:55:17.002Z</time></trkpt><trkpt lat="39.357380005336395" lon="9.352155206639372"><ele>557.0</ele><time>2026-04-09T13:55:18.002Z</time></trkpt><trkpt lat="39.35728056751566" lon="9.35215986548611"><ele>557.8000000000001</ele><time>2026-04-09T13:55:19.002Z</time></trkpt><trkpt lat="39.35719002800427" lon="9.35218004791847"><ele>558.6</ele><time>2026-04-09T13:55:20.002Z</time></trkpt><trkpt lat="39.357085967556316" lon="9.352162836024856"><ele>559.4000000000001</ele><time>2026-04-09T13:55:21.002Z</time></trkpt><trkpt lat="39.3569853808027" lon="9.352147118750477"><ele>560.2</ele><time>2026-04-09T13:55:22.002Z</time></trkpt><trkpt lat="39.356881570632304" lon="9.352117844564384"><ele>561.0</ele><time>2026-04-09T13:55:23.002Z</time></trkpt><trkpt lat="39.356788639494724" lon="9.352104849903816"><ele>561.0</ele><time>2026-04-09T13:55:24.002Z</time></trkpt><trkpt lat="39.35671551238914" lon="9.352066670412743"><ele>561.0</ele><time>2026-04-09T13:55:25.002Z</time></trkpt><trkpt lat="39.356647915045045" lon="9.352045299215089"><ele>561.0</ele><time>2026-04-09T13:55:26.002Z</time></trkpt><trkpt lat="39.35656800915566" lon="9.35203547960043"><ele>561.0</ele><time>2026-04-09T13:55:27.002Z</time></trkpt><trkpt lat="39.35648897867059" lon="9.352047850687704"><ele>561.0</ele><time>2026-04-09T13:55:28.002Z</time></trkpt><trkpt lat="39.356402023220156" lon="9.352073171318954"><ele>561.0</ele><time>2026-04-09T13:55:29.002Z</time></trkpt><trkpt lat="39.35632161700213" lon="9.352096655944592"><ele>561.6</ele><time>2026-04-09T13:55:30.002Z</time></trkpt><trkpt lat="39.35623897976646" lon="9.352110786304825"><ele>562.2</ele><time>2026-04-09T13:55:31.002Z</time></trkpt><trkpt lat="39.35615836598106" lon="9.352122509969437"><ele>562.8</ele><time>2026-04-09T13:55:32.002Z</time></trkpt><trkpt lat="39.35607210777453" lon="9.352134629116708"><ele>563.4</ele><time>2026-04-09T13:55:33.002Z</time></trkpt><trkpt lat="39.3559722901828" lon="9.352153609133607"><ele>564.0</ele><time>2026-04-09T13:55:34.002Z</time></trkpt><trkpt lat="39.355870421113046" lon="9.35217668738653"><ele>564.0</ele><time>2026-04-09T13:55:35.002Z</time></trkpt><trkpt lat="39.35575854764913" lon="9.352197962999192"><ele>564.0</ele><time>2026-04-09T13:55:36.002Z</time></trkpt><trkpt lat="39.35565242251976" lon="9.352223628764808"><ele>564.0</ele><time>2026-04-09T13:55:37.002Z</time></trkpt><trkpt lat="39.355564802562576" lon="9.352249792609342"><ele>564.0</ele><time>2026-04-09T13:55:38.002Z</time></trkpt><trkpt lat="39.355484565245554" lon="9.352279718588775"><ele>564.0</ele><time>2026-04-09T13:55:39.002Z</time></trkpt><trkpt lat="39.35538329544478" lon="9.352314133614064"><ele>562.8</ele><time>2026-04-09T13:55:40.002Z</time></trkpt><trkpt lat="39.35529988586417" lon="9.352334399493587"><ele>561.5999999999999</ele><time>2026-04-09T13:55:41.002Z</time></trkpt><trkpt lat="39.35519972578518" lon="9.352371978105058"><ele>560.4</ele><time>2026-04-09T13:55:42.002Z</time></trkpt><trkpt lat="39.355096984549235" lon="9.352409446030302"><ele>559.1999999999999</ele><time>2026-04-09T13:55:43.002Z</time></trkpt><trkpt lat="39.354993314786896" lon="9.352449192186151"><ele>558.0</ele><time>2026-04-09T13:55:44.002Z</time></trkpt><trkpt lat="39.354891132152225" lon="9.352490559047748"><ele>558.0</ele><time>2026-04-09T13:55:45.002Z</time></trkpt><trkpt lat="39.35480012697766" lon="9.352538583783103"><ele>558.0</ele><time>2026-04-09T13:55:46.002Z</time></trkpt><trkpt lat="39.354720876518314" lon="9.352606016812391"><ele>558.0</ele><time>2026-04-09T13:55:47.002Z</time></trkpt><trkpt lat="39.354642836068194" lon="9.35267603282128"><ele>558.0</ele><time>2026-04-09T13:55:48.002Z</time></trkpt><trkpt lat="39.35455054535223" lon="9.35273559938753"><ele>558.0</ele><time>2026-04-09T13:55:49.002Z</time></trkpt><trkpt lat="39.35446747065848" lon="9.352805770003814"><ele>559.0</ele><time>2026-04-09T13:55:50.002Z</time></trkpt><trkpt lat="39.35438955346682" lon="9.35288093191003"><ele>560.0</ele><time>2026-04-09T13:55:51.002Z</time></trkpt><trkpt lat="39.354310898889175" lon="9.352960770417598"><ele>561.0</ele><time>2026-04-09T13:55:52.002Z</time></trkpt><trkpt lat="39.354234232266116" lon="9.353033564920821"><ele>562.0</ele><time>2026-04-09T13:55:53.002Z</time></trkpt><trkpt lat="39.354158271615496" lon="9.353101349895848"><ele>563.0</ele><time>2026-04-09T13:55:54.003Z</time></trkpt><trkpt lat="39.354084802682365" lon="9.353167312895163"><ele>563.0</ele><time>2026-04-09T13:55:55.003Z</time></trkpt><trkpt lat="39.35402054743321" lon="9.353217985281887"><ele>563.0</ele><time>2026-04-09T13:55:56.003Z</time></trkpt><trkpt lat="39.35395521451021" lon="9.353260069109465"><ele>563.0</ele><time>2026-04-09T13:55:57.003Z</time></trkpt><trkpt lat="39.35389330225586" lon="9.353295996068121"><ele>563.0</ele><time>2026-04-09T13:55:58Z</time></trkpt><trkpt lat="39.35382234599041" lon="9.353331073734351"><ele>563.0</ele><time>2026-04-09T13:56:00Z</time></trkpt><trkpt lat="39.35375923117396" lon="9.353364683544541"><ele>563.0</ele><time>2026-04-09T13:56:04Z</time></trkpt><trkpt lat="39.35369157428187" lon="9.353403349293012"><ele>563.0</ele><time>2026-04-09T13:58:46.001Z</time></trkpt><trkpt lat="39.35361179580895" lon="9.35349267408083"><ele>566.6</ele><time>2026-04-09T13:58:48.001Z</time></trkpt><trkpt lat="39.35356845566567" lon="9.353552373076571"><ele>570.1999999999999</ele><time>2026-04-09T13:58:49.001Z</time></trkpt><trkpt lat="39.35353900178712" lon="9.353624672807197"><ele>573.8</ele><time>2026-04-09T13:58:50.001Z</time></trkpt><trkpt lat="39.353497169249806" lon="9.353773633793544"><ele>577.4</ele><time>2026-04-09T13:58:52.001Z</time></trkpt><trkpt lat="39.35344873205876" lon="9.353945969374562"><ele>581.0</ele><time>2026-04-09T13:58:54.001Z</time></trkpt><trkpt lat="39.35340863085185" lon="9.354055345333924"><ele>581.0</ele><time>2026-04-09T13:58:55.001Z</time></trkpt><trkpt lat="39.353357401943235" lon="9.354158696932256"><ele>581.0</ele><time>2026-04-09T13:58:56.001Z</time></trkpt><trkpt lat="39.35328603797743" lon="9.354259769493128"><ele>581.0</ele><time>2026-04-09T13:58:57.001Z</time></trkpt><trkpt lat="39.35319517543109" lon="9.354321555371767"><ele>581.0</ele><time>2026-04-09T13:58:58.001Z</time></trkpt><trkpt lat="39.35313322030367" lon="9.35438704553401"><ele>581.0</ele><time>2026-04-09T13:58:59.001Z</time></trkpt><trkpt lat="39.35310117340913" lon="9.354495551509725"><ele>581.0</ele><time>2026-04-09T13:59:00.001Z</time></trkpt><trkpt lat="39.3531108568826" lon="9.354615056317131"><ele>581.0</ele><time>2026-04-09T13:59:01.001Z</time></trkpt><trkpt lat="39.35312216121651" lon="9.35474877550441"><ele>581.0</ele><time>2026-04-09T13:59:02.001Z</time></trkpt><trkpt lat="39.35315223160439" lon="9.354903695237677"><ele>581.0</ele><time>2026-04-09T13:59:03.002Z</time></trkpt><trkpt lat="39.35320763341983" lon="9.355087056375814"><ele>581.5</ele><time>2026-04-09T13:59:04.002Z</time></trkpt><trkpt lat="39.353246343559825" lon="9.355256547235456"><ele>582.0</ele><time>2026-04-09T13:59:05.002Z</time></trkpt><trkpt lat="39.353286533515934" lon="9.355424871489374"><ele>582.5</ele><time>2026-04-09T13:59:06.002Z</time></trkpt><trkpt lat="39.35330818866627" lon="9.355632421901772"><ele>583.0</ele><time>2026-04-09T13:59:07.002Z</time></trkpt><trkpt lat="39.353323270700464" lon="9.35587954052147"><ele>586.3333333333334</ele><time>2026-04-09T13:59:08.002Z</time></trkpt><trkpt lat="39.35333530504059" lon="9.356149834334154"><ele>589.6666666666666</ele><time>2026-04-09T13:59:09.002Z</time></trkpt><trkpt lat="39.35335488723599" lon="9.356417850731546"><ele>593.0</ele><time>2026-04-09T13:59:10.002Z</time></trkpt><trkpt lat="39.353374701323105" lon="9.356698325945"><ele>595.3333333333333</ele><time>2026-04-09T13:59:11.002Z</time></trkpt><trkpt lat="39.35339513460438" lon="9.356987566346437"><ele>597.6666666666666</ele><time>2026-04-09T13:59:12.002Z</time></trkpt><trkpt lat="39.353413509066606" lon="9.357229548745133"><ele>600.0</ele><time>2026-04-09T13:59:13.002Z</time></trkpt><trkpt lat="39.353429679107705" lon="9.357432956752733"><ele>602.4</ele><time>2026-04-09T13:59:14.002Z</time></trkpt><trkpt lat="39.35344446321062" lon="9.357598930473054"><ele>604.8</ele><time>2026-04-09T13:59:15.002Z</time></trkpt><trkpt lat="39.35348188033683" lon="9.357740972840647"><ele>607.2</ele><time>2026-04-09T13:59:16.002Z</time></trkpt><trkpt lat="39.35351596945163" lon="9.357860817067225"><ele>609.6</ele><time>2026-04-09T13:59:17.002Z</time></trkpt><trkpt lat="39.35356815713416" lon="9.357962096473688"><ele>612.0</ele><time>2026-04-09T13:59:18.002Z</time></trkpt><trkpt lat="39.353640621416254" lon="9.35804948522401"><ele>613.5</ele><time>2026-04-09T13:59:19.002Z</time></trkpt><trkpt lat="39.35373886778274" lon="9.358114561116082"><ele>615.0</ele><time>2026-04-09T13:59:20.002Z</time></trkpt><trkpt lat="39.35386016555953" lon="9.358159579884754"><ele>616.5</ele><time>2026-04-09T13:59:21.002Z</time></trkpt><trkpt lat="39.354019363996365" lon="9.358204108160281"><ele>618.0</ele><time>2026-04-09T13:59:22.002Z</time></trkpt><trkpt lat="39.35418459231755" lon="9.358252572084803"><ele>618.0</ele><time>2026-04-09T13:59:23.002Z</time></trkpt><trkpt lat="39.354317055242404" lon="9.358323153196135"><ele>618.0</ele><time>2026-04-09T13:59:24.002Z</time></trkpt><trkpt lat="39.35440755168317" lon="9.358385687844228"><ele>618.0</ele><time>2026-04-09T13:59:25.002Z</time></trkpt><trkpt lat="39.35448313023031" lon="9.35843902251307"><ele>618.0</ele><time>2026-04-09T13:59:26.002Z</time></trkpt><trkpt lat="39.35448084609604" lon="9.358583678861665"><ele>618.0</ele><time>2026-04-09T13:59:27.002Z</time></trkpt><trkpt lat="39.354506365922866" lon="9.358744969960252"><ele>621.5</ele><time>2026-04-09T13:59:28.002Z</time></trkpt><trkpt lat="39.35452954499754" lon="9.358937181039678"><ele>625.0</ele><time>2026-04-09T13:59:29.002Z</time></trkpt><trkpt lat="39.354537905339924" lon="9.359107883469797"><ele>628.5</ele><time>2026-04-09T13:59:30.002Z</time></trkpt><trkpt lat="39.35450801854408" lon="9.35925505804508"><ele>632.0</ele><time>2026-04-09T13:59:31.002Z</time></trkpt><trkpt lat="39.354448514466824" lon="9.359400344289956"><ele>632.0</ele><time>2026-04-09T13:59:32.002Z</time></trkpt><trkpt lat="39.35437140692597" lon="9.359542568847333"><ele>632.0</ele><time>2026-04-09T13:59:33.002Z</time></trkpt><trkpt lat="39.35426730288501" lon="9.359650823562575"><ele>632.0</ele><time>2026-04-09T13:59:34.002Z</time></trkpt><trkpt lat="39.35414461221599" lon="9.359736536333818"><ele>632.0</ele><time>2026-04-09T13:59:35.002Z</time></trkpt><trkpt lat="39.353986918332495" lon="9.35978798575598"><ele>634.6666666666666</ele><time>2026-04-09T13:59:36.002Z</time></trkpt><trkpt lat="39.35379587473622" lon="9.359871095539317"><ele>637.3333333333334</ele><time>2026-04-09T13:59:37.002Z</time></trkpt><trkpt lat="39.35362539551522" lon="9.359973686801691"><ele>640.0</ele><time>2026-04-09T13:59:38.002Z</time></trkpt><trkpt lat="39.35347904407965" lon="9.360003379195971"><ele>640.0</ele><time>2026-04-09T13:59:39.002Z</time></trkpt><trkpt lat="39.35335922861594" lon="9.36001930223688"><ele>640.0</ele><time>2026-04-09T13:59:40.002Z</time></trkpt><trkpt lat="39.35323114265203" lon="9.360023709610918"><ele>640.0</ele><time>2026-04-09T13:59:41.002Z</time></trkpt><trkpt lat="39.35311130330057" lon="9.359919946007553"><ele>640.0</ele><time>2026-04-09T13:59:42.002Z</time></trkpt><trkpt lat="39.352973354781696" lon="9.359821585320976"><ele>642.75</ele><time>2026-04-09T13:59:43.002Z</time></trkpt><trkpt lat="39.3528428358299" lon="9.35972985333598"><ele>645.5</ele><time>2026-04-09T13:59:44.002Z</time></trkpt><trkpt lat="39.35272984955347" lon="9.359653392213618"><ele>648.25</ele><time>2026-04-09T13:59:45.002Z</time></trkpt><trkpt lat="39.35263216763195" lon="9.359589051137469"><ele>651.0</ele><time>2026-04-09T13:59:46.002Z</time></trkpt><trkpt lat="39.35253226885738" lon="9.359527145958733"><ele>651.0</ele><time>2026-04-09T13:59:47.002Z</time></trkpt><trkpt lat="39.35240931562208" lon="9.359464075269129"><ele>651.0</ele><time>2026-04-09T13:59:48.002Z</time></trkpt><trkpt lat="39.352292164412056" lon="9.359388240492185"><ele>651.0</ele><time>2026-04-09T13:59:49.002Z</time></trkpt><trkpt lat="39.35218077619182" lon="9.359375627743427"><ele>651.0</ele><time>2026-04-09T13:59:50.002Z</time></trkpt><trkpt lat="39.352061305603435" lon="9.359409508238414"><ele>653.5</ele><time>2026-04-09T13:59:51.002Z</time></trkpt><trkpt lat="39.35194180525833" lon="9.35950699151866"><ele>656.0</ele><time>2026-04-09T13:59:52.002Z</time></trkpt><trkpt lat="39.35180273164151" lon="9.359552817359125"><ele>658.5</ele><time>2026-04-09T13:59:53.002Z</time></trkpt><trkpt lat="39.35166908080285" lon="9.359588155452322"><ele>661.0</ele><time>2026-04-09T13:59:54.002Z</time></trkpt><trkpt lat="39.35152242862586" lon="9.359593739333704"><ele>661.0</ele><time>2026-04-09T13:59:55.002Z</time></trkpt><trkpt lat="39.35139026617958" lon="9.359601703038582"><ele>661.0</ele><time>2026-04-09T13:59:56.002Z</time></trkpt><trkpt lat="39.35126784856623" lon="9.35956220142788"><ele>661.0</ele><time>2026-04-09T13:59:57.002Z</time></trkpt><trkpt lat="39.35115137143102" lon="9.359517349471881"><ele>661.0</ele><time>2026-04-09T13:59:58.002Z</time></trkpt><trkpt lat="39.35105033894612" lon="9.359450685570998"><ele>659.5</ele><time>2026-04-09T13:59:59.003Z</time></trkpt><trkpt lat="39.35094899254026" lon="9.359389106201299"><ele>658.0</ele><time>2026-04-09T14:00:00.003Z</time></trkpt><trkpt lat="39.35084184075674" lon="9.359302703830183"><ele>656.5</ele><time>2026-04-09T14:00:01.003Z</time></trkpt><trkpt lat="39.35072452602929" lon="9.359207789282223"><ele>655.0</ele><time>2026-04-09T14:00:02.003Z</time></trkpt><trkpt lat="39.350607319005555" lon="9.359114732840082"><ele>652.5</ele><time>2026-04-09T14:00:03.003Z</time></trkpt><trkpt lat="39.35048497176873" lon="9.359023753852815"><ele>650.0</ele><time>2026-04-09T14:00:04.003Z</time></trkpt><trkpt lat="39.35035164157397" lon="9.35896227474046"><ele>647.5</ele><time>2026-04-09T14:00:05.003Z</time></trkpt><trkpt lat="39.35021379223319" lon="9.358906083487895"><ele>645.0</ele><time>2026-04-09T14:00:06.003Z</time></trkpt><trkpt lat="39.35006857363299" lon="9.358859664737862"><ele>648.0</ele><time>2026-04-09T14:00:07.003Z</time></trkpt><trkpt lat="39.34991886920109" lon="9.358816654289797"><ele>651.0</ele><time>2026-04-09T14:00:08.003Z</time></trkpt><trkpt lat="39.34977650130049" lon="9.3587768382254"><ele>654.0</ele><time>2026-04-09T14:00:09.003Z</time></trkpt><trkpt lat="39.34964241711966" lon="9.358724372061292"><ele>657.0</ele><time>2026-04-09T14:00:10.001Z</time></trkpt><trkpt lat="39.34950826171626" lon="9.35870618955197"><ele>657.0</ele><time>2026-04-09T14:00:11.001Z</time></trkpt><trkpt lat="39.34937428769321" lon="9.358700439321693"><ele>657.0</ele><time>2026-04-09T14:00:12.001Z</time></trkpt><trkpt lat="39.34924908257721" lon="9.35870607010074"><ele>657.0</ele><time>2026-04-09T14:00:13.001Z</time></trkpt><trkpt lat="39.349124170265625" lon="9.358720998000571"><ele>657.0</ele><time>2026-04-09T14:00:14.001Z</time></trkpt><trkpt lat="39.348998956479704" lon="9.358738391556445"><ele>657.0</ele><time>2026-04-09T14:00:15.001Z</time></trkpt><trkpt lat="39.348876141954996" lon="9.358757530097645"><ele>657.0</ele><time>2026-04-09T14:00:16.001Z</time></trkpt><trkpt lat="39.348755502897895" lon="9.358773672128988"><ele>657.0</ele><time>2026-04-09T14:00:17.001Z</time></trkpt><trkpt lat="39.34864449977195" lon="9.358794471255667"><ele>657.0</ele><time>2026-04-09T14:00:18.001Z</time></trkpt><trkpt lat="39.34855896193551" lon="9.35881752223031"><ele>657.0</ele><time>2026-04-09T14:00:19.001Z</time></trkpt><trkpt lat="39.348477072122094" lon="9.35883690250837"><ele>654.25</ele><time>2026-04-09T14:00:20.001Z</time></trkpt><trkpt lat="39.3483954208018" lon="9.358925124751464"><ele>651.5</ele><time>2026-04-09T14:00:21.001Z</time></trkpt><trkpt lat="39.34832040156917" lon="9.35904656013874"><ele>648.75</ele><time>2026-04-09T14:00:22.001Z</time></trkpt><trkpt lat="39.3482449900738" lon="9.359181765486502"><ele>646.0</ele><time>2026-04-09T14:00:23.001Z</time></trkpt><trkpt lat="39.34817340548895" lon="9.359320653195667"><ele>646.0</ele><time>2026-04-09T14:00:24.001Z</time></trkpt><trkpt lat="39.34810674703309" lon="9.35946447747852"><ele>646.0</ele><time>2026-04-09T14:00:25.001Z</time></trkpt><trkpt lat="39.348048498215924" lon="9.35961164179866"><ele>646.0</ele><time>2026-04-09T14:00:26.001Z</time></trkpt><trkpt lat="39.347959544585756" lon="9.359723980485256"><ele>646.0</ele><time>2026-04-09T14:00:27.001Z</time></trkpt><trkpt lat="39.347888588310006" lon="9.359860187933897"><ele>647.1999999999999</ele><time>2026-04-09T14:00:28.001Z</time></trkpt><trkpt lat="39.347791054267354" lon="9.359956099744451"><ele>648.4</ele><time>2026-04-09T14:00:29.001Z</time></trkpt><trkpt lat="39.34770664758822" lon="9.360059840151699"><ele>649.6</ele><time>2026-04-09T14:00:30.001Z</time></trkpt><trkpt lat="39.34764228016333" lon="9.360167118820465"><ele>650.8</ele><time>2026-04-09T14:00:31.001Z</time></trkpt><trkpt lat="39.34757375380599" lon="9.360247494134319"><ele>652.0</ele><time>2026-04-09T14:00:32.001Z</time></trkpt><trkpt lat="39.34751037831587" lon="9.360295458245666"><ele>652.0</ele><time>2026-04-09T14:00:33.001Z</time></trkpt><trkpt lat="39.347448261530864" lon="9.360361800571692"><ele>652.0</ele><time>2026-04-09T14:00:35.001Z</time></trkpt><trkpt lat="39.34737107071973" lon="9.360444198074191"><ele>652.0</ele><time>2026-04-09T14:00:38.001Z</time></trkpt><trkpt lat="39.34731815120564" lon="9.360491738565148"><ele>652.0</ele><time>2026-04-09T14:00:39.001Z</time></trkpt><trkpt lat="39.34724595894303" lon="9.360544898209328"><ele>652.0</ele><time>2026-04-09T14:00:40.001Z</time></trkpt><trkpt lat="39.34716603473115" lon="9.360597931339711"><ele>652.0</ele><time>2026-04-09T14:00:41.001Z</time></trkpt><trkpt lat="39.34708397875258" lon="9.360647462819024"><ele>651.8333333333334</ele><time>2026-04-09T14:00:42.001Z</time></trkpt><trkpt lat="39.34701009177689" lon="9.360698512149291"><ele>651.6666666666667</ele><time>2026-04-09T14:00:43.001Z</time></trkpt><trkpt lat="39.34695056406936" lon="9.360748106632263"><ele>651.5</ele><time>2026-04-09T14:00:44.001Z</time></trkpt><trkpt lat="39.34688447173366" lon="9.360793970746029"><ele>651.3333333333334</ele><time>2026-04-09T14:00:45.001Z</time></trkpt><trkpt lat="39.346800803604886" lon="9.360842833852708"><ele>651.1666666666666</ele><time>2026-04-09T14:00:46.001Z</time></trkpt><trkpt lat="39.34671330370235" lon="9.360916432218616"><ele>651.0</ele><time>2026-04-09T14:00:47.001Z</time></trkpt><trkpt lat="39.34662543929554" lon="9.360995907059328"><ele>651.0</ele><time>2026-04-09T14:00:48.001Z</time></trkpt><trkpt lat="39.346540441059815" lon="9.361064916114861"><ele>651.0</ele><time>2026-04-09T14:00:49.001Z</time></trkpt><trkpt lat="39.346463584201516" lon="9.36112132146098"><ele>651.0</ele><time>2026-04-09T14:00:50.001Z</time></trkpt><trkpt lat="39.34640248139061" lon="9.36117141388542"><ele>651.0</ele><time>2026-04-09T14:00:51.001Z</time></trkpt><trkpt lat="39.346346217212854" lon="9.361211176264339"><ele>651.0</ele><time>2026-04-09T14:00:52.001Z</time></trkpt><trkpt lat="39.34625898407159" lon="9.361294295291255"><ele>651.0</ele><time>2026-04-09T14:00:54.001Z</time></trkpt><trkpt lat="39.34619620360732" lon="9.361340148020181"><ele>649.75</ele><time>2026-04-09T14:00:56.001Z</time></trkpt><trkpt lat="39.346023652238756" lon="9.361169844040077"><ele>648.5</ele><time>2026-04-09T14:00:58.001Z</time></trkpt><trkpt lat="39.34595760374099" lon="9.361112664738414"><ele>647.25</ele><time>2026-04-09T14:00:59.001Z</time></trkpt><trkpt lat="39.345856133023375" lon="9.36104249407508"><ele>646.0</ele><time>2026-04-09T14:01:01.001Z</time></trkpt><trkpt lat="39.345787782019286" lon="9.360986131156737"><ele>646.0</ele><time>2026-04-09T14:01:03.001Z</time></trkpt><trkpt lat="39.345718990564485" lon="9.36095215524645"><ele>646.0</ele><time>2026-04-09T14:01:13.001Z</time></trkpt><trkpt lat="39.34564662631795" lon="9.3609064552437"><ele>646.0</ele><time>2026-04-09T14:03:10.001Z</time></trkpt></trkseg><trkseg><trkpt lat="39.34561894977213" lon="9.360865972308837"><ele>646.0</ele><time>2026-04-09T14:40:22.001Z</time></trkpt><trkpt lat="39.3455556453938" lon="9.360826842385997"><ele>646.0</ele><time>2026-04-09T14:40:29.001Z</time></trkpt><trkpt lat="39.34548854863776" lon="9.360765954281346"><ele>646.0</ele><time>2026-04-09T14:40:33.001Z</time></trkpt><trkpt lat="39.34540902680441" lon="9.360723340393918"><ele>646.0</ele><time>2026-04-09T14:40:36.001Z</time></trkpt><trkpt lat="39.345365660234826" lon="9.360640704008327"><ele>646.0</ele><time>2026-04-09T14:40:39.001Z</time></trkpt><trkpt lat="39.34530085906348" lon="9.36067208558544"><ele>646.0</ele><time>2026-04-09T14:41:02Z</time></trkpt><trkpt lat="39.34519719369478" lon="9.360612264869998"><ele>645.8333333333334</ele><time>2026-04-09T14:41:04Z</time></trkpt><trkpt lat="39.34512685971921" lon="9.3605464656781"><ele>645.6666666666667</ele><time>2026-04-09T14:41:05Z</time></trkpt><trkpt lat="39.34509404408486" lon="9.360430448146214"><ele>645.5</ele><time>2026-04-09T14:41:06Z</time></trkpt><trkpt lat="39.34502872124269" lon="9.360362199380605"><ele>645.3333333333334</ele><time>2026-04-09T14:41:07Z</time></trkpt><trkpt lat="39.34496181236298" lon="9.360295089952057"><ele>645.1666666666666</ele><time>2026-04-09T14:41:08Z</time></trkpt><trkpt lat="39.34489281125922" lon="9.360225975604767"><ele>645.0</ele><time>2026-04-09T14:41:09Z</time></trkpt><trkpt lat="39.34482635351553" lon="9.360159408781415"><ele>645.3333333333334</ele><time>2026-04-09T14:41:10Z</time></trkpt><trkpt lat="39.344752858796596" lon="9.36008743506201"><ele>645.6666666666666</ele><time>2026-04-09T14:41:11Z</time></trkpt><trkpt lat="39.34467202185217" lon="9.360011857526633"><ele>646.0</ele><time>2026-04-09T14:41:12Z</time></trkpt><trkpt lat="39.344591229369236" lon="9.359961164518287"><ele>646.3333333333333</ele><time>2026-04-09T14:41:13Z</time></trkpt><trkpt lat="39.34452510228043" lon="9.359890802503699"><ele>646.6666666666666</ele><time>2026-04-09T14:41:14Z</time></trkpt><trkpt lat="39.34447559602534" lon="9.359833521445765"><ele>647.0</ele><time>2026-04-09T14:41:15Z</time></trkpt><trkpt lat="39.34442822704686" lon="9.35973371473832"><ele>647.0</ele><time>2026-04-09T14:41:17Z</time></trkpt><trkpt lat="39.344244803727825" lon="9.359837278261931"><ele>647.0</ele><time>2026-04-09T14:41:25Z</time></trkpt><trkpt lat="39.344177200998466" lon="9.359875230711493"><ele>647.0</ele><time>2026-04-09T14:41:26Z</time></trkpt><trkpt lat="39.34410672332312" lon="9.359917659478292"><ele>647.0</ele><time>2026-04-09T14:41:27Z</time></trkpt><trkpt lat="39.344039221205435" lon="9.35995018621492"><ele>647.0</ele><time>2026-04-09T14:41:28Z</time></trkpt><trkpt lat="39.343979393954946" lon="9.359986263648482"><ele>646.0</ele><time>2026-04-09T14:41:29Z</time></trkpt><trkpt lat="39.34387073564156" lon="9.360055706989924"><ele>645.0</ele><time>2026-04-09T14:41:31Z</time></trkpt><trkpt lat="39.34380591129554" lon="9.360096877612825"><ele>644.0</ele><time>2026-04-09T14:41:32Z</time></trkpt><trkpt lat="39.34373919946007" lon="9.360136382896648"><ele>643.0</ele><time>2026-04-09T14:41:33Z</time></trkpt><trkpt lat="39.34367906757128" lon="9.360167280412622"><ele>642.0</ele><time>2026-04-09T14:41:34Z</time></trkpt><trkpt lat="39.34359886559866" lon="9.360183939955794"><ele>641.0</ele><time>2026-04-09T14:41:36Z</time></trkpt><trkpt lat="39.34355030893698" lon="9.360258496966175"><ele>641.0</ele><time>2026-04-09T14:41:39Z</time></trkpt><trkpt lat="39.343431743904176" lon="9.360110244470375"><ele>641.0</ele><time>2026-04-09T14:41:40Z</time></trkpt><trkpt lat="39.34334223802031" lon="9.360075850133748"><ele>641.0</ele><time>2026-04-09T14:41:41Z</time></trkpt><trkpt lat="39.343236844411805" lon="9.36004217751492"><ele>641.0</ele><time>2026-04-09T14:41:42Z</time></trkpt><trkpt lat="39.34314100132534" lon="9.360074046924723"><ele>641.0</ele><time>2026-04-09T14:41:43Z</time></trkpt><trkpt lat="39.34305642778631" lon="9.360067477357417"><ele>641.0</ele><time>2026-04-09T14:41:44Z</time></trkpt><trkpt lat="39.34298506839578" lon="9.360118650333828"><ele>641.0</ele><time>2026-04-09T14:41:45Z</time></trkpt><trkpt lat="39.34291662446532" lon="9.360141950058058"><ele>641.0</ele><time>2026-04-09T14:41:46Z</time></trkpt><trkpt lat="39.34281755849873" lon="9.360180447120618"><ele>641.0</ele><time>2026-04-09T14:41:48Z</time></trkpt><trkpt lat="39.342733387648956" lon="9.360199849710387"><ele>641.0</ele><time>2026-04-09T14:42:20.001Z</time></trkpt><trkpt lat="39.34262796550218" lon="9.360239247035462"><ele>640.1428571428571</ele><time>2026-04-09T14:42:22.001Z</time></trkpt><trkpt lat="39.342563713700976" lon="9.36026885017108"><ele>639.2857142857142</ele><time>2026-04-09T14:42:23.001Z</time></trkpt><trkpt lat="39.34249512429063" lon="9.360297997488386"><ele>638.4285714285713</ele><time>2026-04-09T14:42:24.001Z</time></trkpt><trkpt lat="39.34242278400858" lon="9.36032430293068"><ele>637.5714285714286</ele><time>2026-04-09T14:42:25.001Z</time></trkpt><trkpt lat="39.34235260015845" lon="9.360348655109576"><ele>636.7142857142857</ele><time>2026-04-09T14:42:26.001Z</time></trkpt><trkpt lat="39.34228651226566" lon="9.360369615780856"><ele>635.8571428571428</ele><time>2026-04-09T14:42:27.001Z</time></trkpt><trkpt lat="39.342195471109484" lon="9.3603917213283"><ele>635.0</ele><time>2026-04-09T14:42:29.001Z</time></trkpt><trkpt lat="39.342121726647854" lon="9.360424963659856"><ele>634.8333333333333</ele><time>2026-04-09T14:42:32.001Z</time></trkpt><trkpt lat="39.34203787952654" lon="9.360459513625251"><ele>634.6666666666666</ele><time>2026-04-09T14:42:35.001Z</time></trkpt><trkpt lat="39.34197549907649" lon="9.360491094300503"><ele>634.5</ele><time>2026-04-09T14:42:36.001Z</time></trkpt><trkpt lat="39.34189119455488" lon="9.360524047295742"><ele>634.3333333333334</ele><time>2026-04-09T14:42:37.001Z</time></trkpt><trkpt lat="39.34180783835608" lon="9.360555886112785"><ele>634.1666666666667</ele><time>2026-04-09T14:42:38.001Z</time></trkpt><trkpt lat="39.34171113935593" lon="9.360589493099088"><ele>634.0</ele><time>2026-04-09T14:42:39.001Z</time></trkpt><trkpt lat="39.3416256763532" lon="9.36062000160136"><ele>634.2</ele><time>2026-04-09T14:42:40.001Z</time></trkpt><trkpt lat="39.34153956631038" lon="9.360647081480337"><ele>634.4</ele><time>2026-04-09T14:42:41.001Z</time></trkpt><trkpt lat="39.34147451581024" lon="9.360672143761615"><ele>634.6</ele><time>2026-04-09T14:42:42.001Z</time></trkpt><trkpt lat="39.34136853813408" lon="9.360714056107673"><ele>634.8</ele><time>2026-04-09T14:42:44.001Z</time></trkpt><trkpt lat="39.34127205041014" lon="9.360748632209784"><ele>635.0</ele><time>2026-04-09T14:42:45.001Z</time></trkpt><trkpt lat="39.34116759725236" lon="9.360794710996235"><ele>635.0</ele><time>2026-04-09T14:42:46.001Z</time></trkpt><trkpt lat="39.34104400065122" lon="9.360849984887807"><ele>635.0</ele><time>2026-04-09T14:42:47.001Z</time></trkpt><trkpt lat="39.340911991288664" lon="9.360898272083983"><ele>635.0</ele><time>2026-04-09T14:42:48.001Z</time></trkpt><trkpt lat="39.340771581339304" lon="9.360929337254325"><ele>635.0</ele><time>2026-04-09T14:42:49.001Z</time></trkpt><trkpt lat="39.34064039942604" lon="9.360998144469718"><ele>635.25</ele><time>2026-04-09T14:42:50.001Z</time></trkpt><trkpt lat="39.34050206243184" lon="9.361027332487714"><ele>635.5</ele><time>2026-04-09T14:42:51.001Z</time></trkpt><trkpt lat="39.34036691977137" lon="9.361077148633699"><ele>635.75</ele><time>2026-04-09T14:42:52.001Z</time></trkpt><trkpt lat="39.34023302904598" lon="9.361126927052728"><ele>636.0</ele><time>2026-04-09T14:42:53.001Z</time></trkpt><trkpt lat="39.340092743039676" lon="9.361179083037403"><ele>636.0</ele><time>2026-04-09T14:42:54.001Z</time></trkpt><trkpt lat="39.33994878563439" lon="9.361231578874142"><ele>636.0</ele><time>2026-04-09T14:42:55.001Z</time></trkpt><trkpt lat="39.33980237914208" lon="9.361285024984186"><ele>636.0</ele><time>2026-04-09T14:42:56.001Z</time></trkpt><trkpt lat="39.33965521622376" lon="9.361338747253702"><ele>636.3333333333334</ele><time>2026-04-09T14:42:57.001Z</time></trkpt><trkpt lat="39.33950456265955" lon="9.361394438693274"><ele>636.6666666666667</ele><time>2026-04-09T14:42:58.001Z</time></trkpt><trkpt lat="39.33935471983934" lon="9.361450047284032"><ele>637.0</ele><time>2026-04-09T14:42:59.001Z</time></trkpt><trkpt lat="39.339204823329894" lon="9.361505674830074"><ele>637.0</ele><time>2026-04-09T14:43:00.001Z</time></trkpt><trkpt lat="39.33905810435791" lon="9.361560125392806"><ele>637.0</ele><time>2026-04-09T14:43:00.999Z</time></trkpt><trkpt lat="39.338914757614745" lon="9.361611224783953"><ele>637.0</ele><time>2026-04-09T14:43:01.999Z</time></trkpt><trkpt lat="39.338778890616894" lon="9.361660565702026"><ele>637.0</ele><time>2026-04-09T14:43:02.999Z</time></trkpt><trkpt lat="39.33864277534384" lon="9.361710704337675"><ele>636.6666666666667</ele><time>2026-04-09T14:43:03.999Z</time></trkpt><trkpt lat="39.33849610565229" lon="9.361764931324748"><ele>636.3333333333334</ele><time>2026-04-09T14:43:04.999Z</time></trkpt><trkpt lat="39.338346242044885" lon="9.361820339091114"><ele>636.0</ele><time>2026-04-09T14:43:05.999Z</time></trkpt><trkpt lat="39.338184445867725" lon="9.361880158569141"><ele>636.0</ele><time>2026-04-09T14:43:06.999Z</time></trkpt><trkpt lat="39.33801858124768" lon="9.3619634705366"><ele>636.0</ele><time>2026-04-09T14:43:07.999Z</time></trkpt><trkpt lat="39.33784061806627" lon="9.362016283162772"><ele>636.0</ele><time>2026-04-09T14:43:08.999Z</time></trkpt><trkpt lat="39.33767256360269" lon="9.362086593493647"><ele>636.0</ele><time>2026-04-09T14:43:09.999Z</time></trkpt><trkpt lat="39.337522240394264" lon="9.362143364463773"><ele>636.0</ele><time>2026-04-09T14:43:10.999Z</time></trkpt><trkpt lat="39.33735882415427" lon="9.362203652497817"><ele>636.0</ele><time>2026-04-09T14:43:11.999Z</time></trkpt><trkpt lat="39.33717331368571" lon="9.36226740306844"><ele>635.6666666666666</ele><time>2026-04-09T14:43:12.999Z</time></trkpt><trkpt lat="39.33697476378763" lon="9.362338070567708"><ele>635.3333333333333</ele><time>2026-04-09T14:43:13.999Z</time></trkpt><trkpt lat="39.33676987279506" lon="9.362413551530908"><ele>635.0</ele><time>2026-04-09T14:43:14.999Z</time></trkpt><trkpt lat="39.33658300056259" lon="9.362480841518739"><ele>635.0</ele><time>2026-04-09T14:43:15.999Z</time></trkpt><trkpt lat="39.33639778686573" lon="9.362546941950258"><ele>635.0</ele><time>2026-04-09T14:43:16.999Z</time></trkpt><trkpt lat="39.33621413021437" lon="9.362611452376584"><ele>635.0</ele><time>2026-04-09T14:43:17.999Z</time></trkpt><trkpt lat="39.33603638707252" lon="9.36267734519186"><ele>636.3333333333333</ele><time>2026-04-09T14:43:18.999Z</time></trkpt><trkpt lat="39.33586480601623" lon="9.362742098323093"><ele>637.6666666666666</ele><time>2026-04-09T14:43:19.999Z</time></trkpt><trkpt lat="39.33569267762016" lon="9.362808500275198"><ele>639.0</ele><time>2026-04-09T14:43:21Z</time></trkpt><trkpt lat="39.33552525483147" lon="9.362868976070496"><ele>639.3333333333334</ele><time>2026-04-09T14:43:22Z</time></trkpt><trkpt lat="39.33535470345536" lon="9.36293326801123"><ele>639.6666666666667</ele><time>2026-04-09T14:43:23Z</time></trkpt><trkpt lat="39.33517955698095" lon="9.362994788179229"><ele>640.0</ele><time>2026-04-09T14:43:24Z</time></trkpt><trkpt lat="39.33500269714638" lon="9.363056016807601"><ele>639.3333333333334</ele><time>2026-04-09T14:43:25Z</time></trkpt><trkpt lat="39.33482519219764" lon="9.363119137092033"><ele>638.6666666666666</ele><time>2026-04-09T14:43:26Z</time></trkpt><trkpt lat="39.334646632190584" lon="9.36318714281014"><ele>638.0</ele><time>2026-04-09T14:43:27Z</time></trkpt><trkpt lat="39.33446595980595" lon="9.363255151306433"><ele>637.6666666666666</ele><time>2026-04-09T14:43:28Z</time></trkpt><trkpt lat="39.33428453566686" lon="9.363322697093416"><ele>637.3333333333334</ele><time>2026-04-09T14:43:29Z</time></trkpt><trkpt lat="39.33410610501293" lon="9.363384217951962"><ele>637.0</ele><time>2026-04-09T14:43:30Z</time></trkpt><trkpt lat="39.33393125569347" lon="9.36344827334073"><ele>638.3333333333334</ele><time>2026-04-09T14:43:31Z</time></trkpt><trkpt lat="39.333761713031855" lon="9.363511526599066"><ele>639.6666666666666</ele><time>2026-04-09T14:43:32Z</time></trkpt><trkpt lat="39.33359258457003" lon="9.363571951705898"><ele>641.0</ele><time>2026-04-09T14:43:33Z</time></trkpt><trkpt lat="39.33342313184313" lon="9.363632280898614"><ele>641.0</ele><time>2026-04-09T14:43:34Z</time></trkpt><trkpt lat="39.333256911933105" lon="9.363688519434735"><ele>641.0</ele><time>2026-04-09T14:43:35Z</time></trkpt><trkpt lat="39.33309141872686" lon="9.36375007876455"><ele>641.0</ele><time>2026-04-09T14:43:36Z</time></trkpt><trkpt lat="39.3329247053815" lon="9.363812627279989"><ele>642.0</ele><time>2026-04-09T14:43:37Z</time></trkpt><trkpt lat="39.33275845532107" lon="9.363875443361708"><ele>643.0</ele><time>2026-04-09T14:43:38Z</time></trkpt><trkpt lat="39.33259436795246" lon="9.363937067611932"><ele>644.0</ele><time>2026-04-09T14:43:39Z</time></trkpt><trkpt lat="39.33243285845083" lon="9.363999093592684"><ele>644.0</ele><time>2026-04-09T14:43:40Z</time></trkpt><trkpt lat="39.33227852182884" lon="9.364057010026867"><ele>644.0</ele><time>2026-04-09T14:43:41Z</time></trkpt><trkpt lat="39.332123804524606" lon="9.364114638403068"><ele>644.0</ele><time>2026-04-09T14:43:42Z</time></trkpt><trkpt lat="39.33197536917841" lon="9.364172839437998"><ele>646.0</ele><time>2026-04-09T14:43:43Z</time></trkpt><trkpt lat="39.331828198323464" lon="9.364243616182842"><ele>648.0</ele><time>2026-04-09T14:43:44Z</time></trkpt><trkpt lat="39.33168903531342" lon="9.36432739129961"><ele>650.0</ele><time>2026-04-09T14:43:45Z</time></trkpt><trkpt lat="39.33156307146345" lon="9.364443671894406"><ele>650.0</ele><time>2026-04-09T14:43:46Z</time></trkpt><trkpt lat="39.33144382516614" lon="9.364571163060855"><ele>650.0</ele><time>2026-04-09T14:43:47Z</time></trkpt><trkpt lat="39.33133272623858" lon="9.364699401126702"><ele>650.0</ele><time>2026-04-09T14:43:48Z</time></trkpt><trkpt lat="39.331226089077404" lon="9.3648208167124"><ele>650.0</ele><time>2026-04-09T14:43:49Z</time></trkpt><trkpt lat="39.33111839973384" lon="9.364937715780682"><ele>650.5</ele><time>2026-04-09T14:43:50Z</time></trkpt><trkpt lat="39.33100997070967" lon="9.36505298884353"><ele>651.0</ele><time>2026-04-09T14:43:51Z</time></trkpt><trkpt lat="39.33090248183372" lon="9.365167585870713"><ele>651.5</ele><time>2026-04-09T14:43:52Z</time></trkpt><trkpt lat="39.33079496883716" lon="9.365270936768095"><ele>652.0</ele><time>2026-04-09T14:43:53Z</time></trkpt><trkpt lat="39.330694091354204" lon="9.365360998006354"><ele>652.0</ele><time>2026-04-09T14:43:54Z</time></trkpt><trkpt lat="39.33058848055224" lon="9.365428197248825"><ele>652.0</ele><time>2026-04-09T14:43:55Z</time></trkpt><trkpt lat="39.33047472848359" lon="9.365452159307727"><ele>652.0</ele><time>2026-04-09T14:43:56Z</time></trkpt><trkpt lat="39.330352198567084" lon="9.365412434629524"><ele>652.0</ele><time>2026-04-09T14:43:57Z</time></trkpt><trkpt lat="39.33024327969066" lon="9.365323346256426"><ele>651.0</ele><time>2026-04-09T14:43:58Z</time></trkpt><trkpt lat="39.33015187499596" lon="9.365204848585252"><ele>650.0</ele><time>2026-04-09T14:43:59Z</time></trkpt><trkpt lat="39.3300547771377" lon="9.365120328713001"><ele>649.0</ele><time>2026-04-09T14:44:00Z</time></trkpt><trkpt lat="39.32992481655045" lon="9.365094278434121"><ele>648.0</ele><time>2026-04-09T14:44:01Z</time></trkpt><trkpt lat="39.32977908884309" lon="9.365118335388768"><ele>647.0</ele><time>2026-04-09T14:44:02Z</time></trkpt><trkpt lat="39.32965589963402" lon="9.365196233998871"><ele>646.0</ele><time>2026-04-09T14:44:03Z</time></trkpt><trkpt lat="39.32957180109871" lon="9.365318892542893"><ele>645.0</ele><time>2026-04-09T14:44:04Z</time></trkpt><trkpt lat="39.3295159076466" lon="9.365485922948947"><ele>644.0</ele><time>2026-04-09T14:44:05Z</time></trkpt><trkpt lat="39.329474605592594" lon="9.365666301873798"><ele>644.0</ele><time>2026-04-09T14:44:06Z</time></trkpt><trkpt lat="39.329431992906294" lon="9.365829027088946"><ele>644.0</ele><time>2026-04-09T14:44:07Z</time></trkpt><trkpt lat="39.32937442678693" lon="9.365974140896506"><ele>644.0</ele><time>2026-04-09T14:44:08Z</time></trkpt><trkpt lat="39.32928814100629" lon="9.36608685367931"><ele>644.0</ele><time>2026-04-09T14:44:09Z</time></trkpt><trkpt lat="39.329187502444604" lon="9.36617565069532"><ele>644.0</ele><time>2026-04-09T14:44:10Z</time></trkpt><trkpt lat="39.32908343399751" lon="9.366268555923392"><ele>644.0</ele><time>2026-04-09T14:44:11Z</time></trkpt><trkpt lat="39.32899215856498" lon="9.366385112430867"><ele>644.0</ele><time>2026-04-09T14:44:12Z</time></trkpt><trkpt lat="39.32891768472003" lon="9.366519679380962"><ele>644.0</ele><time>2026-04-09T14:44:13Z</time></trkpt><trkpt lat="39.328849724826995" lon="9.366646973109722"><ele>644.5</ele><time>2026-04-09T14:44:14Z</time></trkpt><trkpt lat="39.32876339008802" lon="9.36674408555184"><ele>645.0</ele><time>2026-04-09T14:44:15Z</time></trkpt><trkpt lat="39.32865728243816" lon="9.366792871194802"><ele>645.5</ele><time>2026-04-09T14:44:16Z</time></trkpt><trkpt lat="39.328534755445574" lon="9.366797918013798"><ele>646.0</ele><time>2026-04-09T14:44:17Z</time></trkpt><trkpt lat="39.328405738653814" lon="9.366768860448138"><ele>646.0</ele><time>2026-04-09T14:44:18Z</time></trkpt><trkpt lat="39.32828153757624" lon="9.366724020444648"><ele>646.0</ele><time>2026-04-09T14:44:19Z</time></trkpt><trkpt lat="39.32816251647323" lon="9.366703061204484"><ele>646.0</ele><time>2026-04-09T14:44:20Z</time></trkpt><trkpt lat="39.328040252930734" lon="9.366726882518"><ele>646.0</ele><time>2026-04-09T14:44:21Z</time></trkpt><trkpt lat="39.327908622349" lon="9.366789703566539"><ele>645.6666666666667</ele><time>2026-04-09T14:44:22Z</time></trkpt><trkpt lat="39.3277743575335" lon="9.366883019406508"><ele>645.3333333333334</ele><time>2026-04-09T14:44:23Z</time></trkpt><trkpt lat="39.3276335789712" lon="9.366989093141443"><ele>645.0</ele><time>2026-04-09T14:44:24Z</time></trkpt><trkpt lat="39.327491069781935" lon="9.367089407282599"><ele>645.0</ele><time>2026-04-09T14:44:25.001Z</time></trkpt><trkpt lat="39.32735233301636" lon="9.367183489152149"><ele>645.0</ele><time>2026-04-09T14:44:26.001Z</time></trkpt><trkpt lat="39.32721851244458" lon="9.367261334486228"><ele>645.0</ele><time>2026-04-09T14:44:27.001Z</time></trkpt><trkpt lat="39.32708181413329" lon="9.367299687435473"><ele>645.0</ele><time>2026-04-09T14:44:28.001Z</time></trkpt><trkpt lat="39.326945970560146" lon="9.367277050768704"><ele>646.75</ele><time>2026-04-09T14:44:29.001Z</time></trkpt><trkpt lat="39.32681236912356" lon="9.36721419248966"><ele>648.5</ele><time>2026-04-09T14:44:30.001Z</time></trkpt><trkpt lat="39.326682879524654" lon="9.367151758837137"><ele>650.25</ele><time>2026-04-09T14:44:31.001Z</time></trkpt><trkpt lat="39.326556747520705" lon="9.367123732701533"><ele>652.0</ele><time>2026-04-09T14:44:32.001Z</time></trkpt><trkpt lat="39.326430588732045" lon="9.367136311033311"><ele>654.0</ele><time>2026-04-09T14:44:33.001Z</time></trkpt><trkpt lat="39.326298540668205" lon="9.367181293243295"><ele>656.0</ele><time>2026-04-09T14:44:34.001Z</time></trkpt><trkpt lat="39.326165274892396" lon="9.36724897147596"><ele>658.0</ele><time>2026-04-09T14:44:35.001Z</time></trkpt><trkpt lat="39.32602860157957" lon="9.367320116953985"><ele>660.0</ele><time>2026-04-09T14:44:36.001Z</time></trkpt><trkpt lat="39.32588451668072" lon="9.36739180407592"><ele>655.75</ele><time>2026-04-09T14:44:37.001Z</time></trkpt><trkpt lat="39.325739462423506" lon="9.36746068235399"><ele>651.5</ele><time>2026-04-09T14:44:38.001Z</time></trkpt><trkpt lat="39.32560368450016" lon="9.367513631458264"><ele>647.25</ele><time>2026-04-09T14:44:39.001Z</time></trkpt><trkpt lat="39.325468584676884" lon="9.367534400004802"><ele>643.0</ele><time>2026-04-09T14:44:40.001Z</time></trkpt><trkpt lat="39.32533807319111" lon="9.367514831602678"><ele>641.25</ele><time>2026-04-09T14:44:41.001Z</time></trkpt><trkpt lat="39.32520531790617" lon="9.36744529002715"><ele>639.5</ele><time>2026-04-09T14:44:42.001Z</time></trkpt><trkpt lat="39.32507126255845" lon="9.367361052571985"><ele>637.75</ele><time>2026-04-09T14:44:43.001Z</time></trkpt><trkpt lat="39.32494215524717" lon="9.367274426683153"><ele>636.0</ele><time>2026-04-09T14:44:44.001Z</time></trkpt><trkpt lat="39.32482263778351" lon="9.367188101706619"><ele>634.75</ele><time>2026-04-09T14:44:45.001Z</time></trkpt><trkpt lat="39.324716298155245" lon="9.367089343087141"><ele>633.5</ele><time>2026-04-09T14:44:46.001Z</time></trkpt><trkpt lat="39.32464748960329" lon="9.366948284472457"><ele>632.25</ele><time>2026-04-09T14:44:47.001Z</time></trkpt><trkpt lat="39.32456972517937" lon="9.366796958687871"><ele>631.0</ele><time>2026-04-09T14:44:48.001Z</time></trkpt><trkpt lat="39.324510345843606" lon="9.366625282857738"><ele>631.0</ele><time>2026-04-09T14:44:49.001Z</time></trkpt><trkpt lat="39.32444378182268" lon="9.366455138315553"><ele>631.0</ele><time>2026-04-09T14:44:50.001Z</time></trkpt><trkpt lat="39.32437537196545" lon="9.366291558029946"><ele>631.0</ele><time>2026-04-09T14:44:51.001Z</time></trkpt><trkpt lat="39.324299139555215" lon="9.36614465758431"><ele>631.0</ele><time>2026-04-09T14:44:52.001Z</time></trkpt><trkpt lat="39.324200405576" lon="9.366035555987889"><ele>633.6666666666667</ele><time>2026-04-09T14:44:53.001Z</time></trkpt><trkpt lat="39.32407793644764" lon="9.365965133093155"><ele>636.3333333333334</ele><time>2026-04-09T14:44:54.001Z</time></trkpt><trkpt lat="39.32392322075865" lon="9.36592193870219"><ele>639.0</ele><time>2026-04-09T14:44:55.001Z</time></trkpt><trkpt lat="39.32375221734241" lon="9.365864356454825"><ele>639.0</ele><time>2026-04-09T14:44:56.001Z</time></trkpt><trkpt lat="39.323578312019464" lon="9.365822706330187"><ele>639.0</ele><time>2026-04-09T14:44:57.001Z</time></trkpt><trkpt lat="39.32339441543002" lon="9.365802626206339"><ele>639.0</ele><time>2026-04-09T14:44:58.001Z</time></trkpt><trkpt lat="39.323207461292476" lon="9.365829618293441"><ele>637.6666666666666</ele><time>2026-04-09T14:44:59.001Z</time></trkpt><trkpt lat="39.32302402579282" lon="9.365846558817266"><ele>636.3333333333333</ele><time>2026-04-09T14:45:00.001Z</time></trkpt><trkpt lat="39.32284983725941" lon="9.365840406758966"><ele>635.0</ele><time>2026-04-09T14:45:01.001Z</time></trkpt><trkpt lat="39.322692212161535" lon="9.365853669100115"><ele>635.0</ele><time>2026-04-09T14:45:02.001Z</time></trkpt><trkpt lat="39.322550902949786" lon="9.365857564991105"><ele>635.0</ele><time>2026-04-09T14:45:03.001Z</time></trkpt><trkpt lat="39.32242100734385" lon="9.365834892854199"><ele>635.0</ele><time>2026-04-09T14:45:04.001Z</time></trkpt><trkpt lat="39.32230782218175" lon="9.365777314306781"><ele>635.0</ele><time>2026-04-09T14:45:05.001Z</time></trkpt><trkpt lat="39.322229147579016" lon="9.365669335273726"><ele>634.75</ele><time>2026-04-09T14:45:06.001Z</time></trkpt><trkpt lat="39.32217135181331" lon="9.365534770736202"><ele>634.5</ele><time>2026-04-09T14:45:06.999Z</time></trkpt><trkpt lat="39.32212369413916" lon="9.365370592421737"><ele>634.25</ele><time>2026-04-09T14:45:07.999Z</time></trkpt><trkpt lat="39.32215477788117" lon="9.36520573981525"><ele>634.0</ele><time>2026-04-09T14:45:08.999Z</time></trkpt><trkpt lat="39.32216970907699" lon="9.365047287860857"><ele>634.0</ele><time>2026-04-09T14:45:09.999Z</time></trkpt><trkpt lat="39.322160103614436" lon="9.364906312236798"><ele>634.0</ele><time>2026-04-09T14:45:10.999Z</time></trkpt><trkpt lat="39.32211125467273" lon="9.364752704964209"><ele>634.0</ele><time>2026-04-09T14:45:11.999Z</time></trkpt><trkpt lat="39.32203173661493" lon="9.364627966174739"><ele>634.0</ele><time>2026-04-09T14:45:12.999Z</time></trkpt><trkpt lat="39.32191265448601" lon="9.364538048056245"><ele>634.0</ele><time>2026-04-09T14:45:13.999Z</time></trkpt><trkpt lat="39.321778433294625" lon="9.364505957529783"><ele>634.0</ele><time>2026-04-09T14:45:14.999Z</time></trkpt><trkpt lat="39.32165139335681" lon="9.364545359650844"><ele>634.0</ele><time>2026-04-09T14:45:15.999Z</time></trkpt><trkpt lat="39.321531176276636" lon="9.364629976757195"><ele>634.0</ele><time>2026-04-09T14:45:16.999Z</time></trkpt><trkpt lat="39.32142890457009" lon="9.364760361137295"><ele>637.6666666666667</ele><time>2026-04-09T14:45:17.999Z</time></trkpt><trkpt lat="39.32134468991416" lon="9.364926928879031"><ele>641.3333333333334</ele><time>2026-04-09T14:45:18.999Z</time></trkpt><trkpt lat="39.32128568664742" lon="9.365122471417711"><ele>645.0</ele><time>2026-04-09T14:45:19.999Z</time></trkpt><trkpt lat="39.3212420240691" lon="9.36533943846155"><ele>643.6666666666666</ele><time>2026-04-09T14:45:20.999Z</time></trkpt><trkpt lat="39.32120037897682" lon="9.365555526942721"><ele>642.3333333333333</ele><time>2026-04-09T14:45:21.999Z</time></trkpt><trkpt lat="39.321156385192324" lon="9.36575673894493"><ele>641.0</ele><time>2026-04-09T14:45:22.999Z</time></trkpt><trkpt lat="39.32111097392412" lon="9.365942725918975"><ele>641.0</ele><time>2026-04-09T14:45:23.999Z</time></trkpt><trkpt lat="39.32105067741476" lon="9.366101250398831"><ele>641.0</ele><time>2026-04-09T14:45:24.999Z</time></trkpt><trkpt lat="39.320947753826154" lon="9.366198480111528"><ele>641.0</ele><time>2026-04-09T14:45:25.999Z</time></trkpt><trkpt lat="39.320833953214425" lon="9.366273393138227"><ele>641.0</ele><time>2026-04-09T14:45:26.999Z</time></trkpt><trkpt lat="39.32068462070301" lon="9.366243727603818"><ele>644.3333333333333</ele><time>2026-04-09T14:45:27.999Z</time></trkpt><trkpt lat="39.32052130923322" lon="9.366269200216179"><ele>647.6666666666666</ele><time>2026-04-09T14:45:28.999Z</time></trkpt><trkpt lat="39.32035431205746" lon="9.366311899049673"><ele>651.0</ele><time>2026-04-09T14:45:29.999Z</time></trkpt><trkpt lat="39.32019533326967" lon="9.366375663959365"><ele>639.3333333333334</ele><time>2026-04-09T14:45:30.999Z</time></trkpt><trkpt lat="39.32003988496043" lon="9.366408936959614"><ele>627.6666666666667</ele><time>2026-04-09T14:45:31.999Z</time></trkpt><trkpt lat="39.319897180828356" lon="9.366471755734969"><ele>616.0</ele><time>2026-04-09T14:45:33Z</time></trkpt><trkpt lat="39.31975419463019" lon="9.366483049338903"><ele>613.75</ele><time>2026-04-09T14:45:34Z</time></trkpt><trkpt lat="39.319614898647465" lon="9.36643685330157"><ele>611.5</ele><time>2026-04-09T14:45:35Z</time></trkpt><trkpt lat="39.31947707602779" lon="9.366408334299921"><ele>609.25</ele><time>2026-04-09T14:45:36Z</time></trkpt><trkpt lat="39.31934825989995" lon="9.36634536715218"><ele>607.0</ele><time>2026-04-09T14:45:37Z</time></trkpt><trkpt lat="39.31924182638499" lon="9.366246298823718"><ele>612.75</ele><time>2026-04-09T14:45:38Z</time></trkpt><trkpt lat="39.3191243953277" lon="9.366171405420374"><ele>618.5</ele><time>2026-04-09T14:45:39Z</time></trkpt><trkpt lat="39.31899760233254" lon="9.36617131160918"><ele>624.25</ele><time>2026-04-09T14:45:40Z</time></trkpt><trkpt lat="39.31886943217745" lon="9.366212726734245"><ele>630.0</ele><time>2026-04-09T14:45:41Z</time></trkpt><trkpt lat="39.318745575640946" lon="9.366267203290532"><ele>630.0</ele><time>2026-04-09T14:45:42Z</time></trkpt><trkpt lat="39.31861359631367" lon="9.366267948086762"><ele>630.0</ele><time>2026-04-09T14:45:43Z</time></trkpt><trkpt lat="39.31848551213317" lon="9.36624614431136"><ele>630.0</ele><time>2026-04-09T14:45:44Z</time></trkpt><trkpt lat="39.31835949566885" lon="9.366194595030068"><ele>630.0</ele><time>2026-04-09T14:45:45Z</time></trkpt><trkpt lat="39.31824756270112" lon="9.366089265940927"><ele>630.0</ele><time>2026-04-09T14:45:46Z</time></trkpt><trkpt lat="39.31813260292777" lon="9.365954102719622"><ele>630.0</ele><time>2026-04-09T14:45:47Z</time></trkpt><trkpt lat="39.31801910066515" lon="9.365810903927207"><ele>630.0</ele><time>2026-04-09T14:45:48Z</time></trkpt><trkpt lat="39.31789349617141" lon="9.365682645518284"><ele>626.25</ele><time>2026-04-09T14:45:49Z</time></trkpt><trkpt lat="39.317761359109795" lon="9.36558820366994"><ele>622.5</ele><time>2026-04-09T14:45:50Z</time></trkpt><trkpt lat="39.317628395883496" lon="9.365515137967773"><ele>618.75</ele><time>2026-04-09T14:45:51Z</time></trkpt><trkpt lat="39.317495778784256" lon="9.365460911993154"><ele>615.0</ele><time>2026-04-09T14:45:52Z</time></trkpt><trkpt lat="39.31736721792732" lon="9.36546021249113"><ele>615.0</ele><time>2026-04-09T14:45:53Z</time></trkpt><trkpt lat="39.317247713002175" lon="9.365488134770644"><ele>615.0</ele><time>2026-04-09T14:45:54Z</time></trkpt><trkpt lat="39.31713549851707" lon="9.365646449428093"><ele>615.0</ele><time>2026-04-09T14:45:55Z</time></trkpt><trkpt lat="39.31707523623324" lon="9.365801716046013"><ele>615.0</ele><time>2026-04-09T14:45:56Z</time></trkpt><trkpt lat="39.31704701465439" lon="9.365954688355597"><ele>618.5</ele><time>2026-04-09T14:45:57Z</time></trkpt><trkpt lat="39.31704867657812" lon="9.366118160489881"><ele>622.0</ele><time>2026-04-09T14:45:58Z</time></trkpt><trkpt lat="39.31707804919969" lon="9.366320832234555"><ele>625.5</ele><time>2026-04-09T14:45:59Z</time></trkpt><trkpt lat="39.31709795974425" lon="9.366520568076556"><ele>629.0</ele><time>2026-04-09T14:46:00Z</time></trkpt><trkpt lat="39.31709271084969" lon="9.366714285909136"><ele>629.0</ele><time>2026-04-09T14:46:01Z</time></trkpt><trkpt lat="39.31705940154165" lon="9.366901919513229"><ele>629.0</ele><time>2026-04-09T14:46:02Z</time></trkpt><trkpt lat="39.31701037917986" lon="9.367081111842102"><ele>629.0</ele><time>2026-04-09T14:46:03Z</time></trkpt><trkpt lat="39.31696091632148" lon="9.36724300523517"><ele>629.0</ele><time>2026-04-09T14:46:04Z</time></trkpt><trkpt lat="39.316901340866444" lon="9.367383031524835"><ele>626.0</ele><time>2026-04-09T14:46:05Z</time></trkpt><trkpt lat="39.31681275391864" lon="9.367479900092613"><ele>623.0</ele><time>2026-04-09T14:46:06Z</time></trkpt><trkpt lat="39.316693031552475" lon="9.367524487572995"><ele>620.0</ele><time>2026-04-09T14:46:07Z</time></trkpt><trkpt lat="39.31656944556816" lon="9.367545954516771"><ele>617.0</ele><time>2026-04-09T14:46:08Z</time></trkpt><trkpt lat="39.316450580374635" lon="9.36759862440328"><ele>618.75</ele><time>2026-04-09T14:46:09Z</time></trkpt><trkpt lat="39.31633842299281" lon="9.367722398858328"><ele>620.5</ele><time>2026-04-09T14:46:10Z</time></trkpt><trkpt lat="39.31623954549937" lon="9.367865386005878"><ele>622.25</ele><time>2026-04-09T14:46:11Z</time></trkpt><trkpt lat="39.31615213058283" lon="9.368012750514408"><ele>624.0</ele><time>2026-04-09T14:46:12Z</time></trkpt><trkpt lat="39.31607409946966" lon="9.368150025159121"><ele>624.0</ele><time>2026-04-09T14:46:13Z</time></trkpt><trkpt lat="39.316003481010746" lon="9.368275159480381"><ele>624.0</ele><time>2026-04-09T14:46:14Z</time></trkpt><trkpt lat="39.31596273314673" lon="9.368406523468476"><ele>624.0</ele><time>2026-04-09T14:46:15Z</time></trkpt><trkpt lat="39.315960712125786" lon="9.368559930447327"><ele>624.0</ele><time>2026-04-09T14:46:16Z</time></trkpt><trkpt lat="39.31598830785797" lon="9.368730245667399"><ele>623.0</ele><time>2026-04-09T14:46:17Z</time></trkpt><trkpt lat="39.31603532644786" lon="9.368891435119734"><ele>622.0</ele><time>2026-04-09T14:46:18Z</time></trkpt><trkpt lat="39.31605893509157" lon="9.369046005673066"><ele>621.0</ele><time>2026-04-09T14:46:19Z</time></trkpt><trkpt lat="39.31603110187641" lon="9.369196039077531"><ele>620.0</ele><time>2026-04-09T14:46:20Z</time></trkpt><trkpt lat="39.31596907563397" lon="9.369345442102258"><ele>620.0</ele><time>2026-04-09T14:46:21.001Z</time></trkpt><trkpt lat="39.31590398322982" lon="9.369500201011162"><ele>620.0</ele><time>2026-04-09T14:46:22.001Z</time></trkpt><trkpt lat="39.315873935556944" lon="9.369681709177389"><ele>620.0</ele><time>2026-04-09T14:46:23.001Z</time></trkpt><trkpt lat="39.31586820494402" lon="9.36986734795128"><ele>620.0</ele><time>2026-04-09T14:46:24.001Z</time></trkpt><trkpt lat="39.315875996737674" lon="9.370041767370829"><ele>619.75</ele><time>2026-04-09T14:46:25.001Z</time></trkpt><trkpt lat="39.31590182170916" lon="9.370195563910261"><ele>619.5</ele><time>2026-04-09T14:46:26.001Z</time></trkpt><trkpt lat="39.315961577256225" lon="9.370340583324483"><ele>619.25</ele><time>2026-04-09T14:46:27.001Z</time></trkpt><trkpt lat="39.31605186287391" lon="9.37045859402276"><ele>619.0</ele><time>2026-04-09T14:46:28.001Z</time></trkpt><trkpt lat="39.31615722253918" lon="9.370560747710574"><ele>620.75</ele><time>2026-04-09T14:46:29.001Z</time></trkpt><trkpt lat="39.31623733719298" lon="9.370676402749078"><ele>622.5</ele><time>2026-04-09T14:46:30.001Z</time></trkpt><trkpt lat="39.316268593186535" lon="9.370827694722784"><ele>624.25</ele><time>2026-04-09T14:46:31.001Z</time></trkpt><trkpt lat="39.31628233273996" lon="9.371010507106394"><ele>626.0</ele><time>2026-04-09T14:46:32.001Z</time></trkpt><trkpt lat="39.316285264391325" lon="9.37119576531681"><ele>625.25</ele><time>2026-04-09T14:46:33.001Z</time></trkpt><trkpt lat="39.3162767343873" lon="9.37136824386224"><ele>624.5</ele><time>2026-04-09T14:46:34.001Z</time></trkpt><trkpt lat="39.31625376638778" lon="9.37154103352627"><ele>623.75</ele><time>2026-04-09T14:46:35.001Z</time></trkpt><trkpt lat="39.316209972803854" lon="9.371707980670687"><ele>623.0</ele><time>2026-04-09T14:46:36.001Z</time></trkpt><trkpt lat="39.316130815622245" lon="9.371867560312646"><ele>623.0</ele><time>2026-04-09T14:46:37.001Z</time></trkpt><trkpt lat="39.31598953224357" lon="9.371988709750381"><ele>623.0</ele><time>2026-04-09T14:46:38.001Z</time></trkpt><trkpt lat="39.315818245769925" lon="9.372121708669809"><ele>623.0</ele><time>2026-04-09T14:46:39.001Z</time></trkpt><trkpt lat="39.31565748188155" lon="9.37226410686923"><ele>621.0</ele><time>2026-04-09T14:46:40.001Z</time></trkpt><trkpt lat="39.31550112778857" lon="9.372384248155251"><ele>619.0</ele><time>2026-04-09T14:46:41.001Z</time></trkpt><trkpt lat="39.3153523343047" lon="9.372500463420842"><ele>617.0</ele><time>2026-04-09T14:46:42.001Z</time></trkpt><trkpt lat="39.31521102275951" lon="9.372606912871625"><ele>617.0</ele><time>2026-04-09T14:46:43.001Z</time></trkpt><trkpt lat="39.315089965261066" lon="9.37270579371256"><ele>617.0</ele><time>2026-04-09T14:46:44.001Z</time></trkpt><trkpt lat="39.31499259563641" lon="9.372807974298677"><ele>617.0</ele><time>2026-04-09T14:46:45.001Z</time></trkpt><trkpt lat="39.314922186319386" lon="9.372939360910426"><ele>617.0</ele><time>2026-04-09T14:46:46.001Z</time></trkpt><trkpt lat="39.31487808439177" lon="9.373100188428106"><ele>616.75</ele><time>2026-04-09T14:46:47.001Z</time></trkpt><trkpt lat="39.31485293654623" lon="9.373263343496632"><ele>616.5</ele><time>2026-04-09T14:46:48.001Z</time></trkpt><trkpt lat="39.31480855040736" lon="9.373405069473812"><ele>616.25</ele><time>2026-04-09T14:46:49.001Z</time></trkpt><trkpt lat="39.314729162686454" lon="9.37352054879651"><ele>616.0</ele><time>2026-04-09T14:46:50.001Z</time></trkpt><trkpt lat="39.31460907357842" lon="9.373599645110811"><ele>616.0</ele><time>2026-04-09T14:46:51.001Z</time></trkpt><trkpt lat="39.31445692419608" lon="9.373634327553885"><ele>616.0</ele><time>2026-04-09T14:46:52.001Z</time></trkpt><trkpt lat="39.314299395389654" lon="9.373682233410788"><ele>616.0</ele><time>2026-04-09T14:46:53.001Z</time></trkpt><trkpt lat="39.31414419863961" lon="9.373749062301357"><ele>616.0</ele><time>2026-04-09T14:46:54.001Z</time></trkpt><trkpt lat="39.313992706704155" lon="9.373789995883316"><ele>616.0</ele><time>2026-04-09T14:46:55.001Z</time></trkpt><trkpt lat="39.31384462151604" lon="9.373823835510532"><ele>616.0</ele><time>2026-04-09T14:46:56.001Z</time></trkpt><trkpt lat="39.31369418189358" lon="9.373842767047465"><ele>615.25</ele><time>2026-04-09T14:46:57.001Z</time></trkpt><trkpt lat="39.31354286142645" lon="9.373844590647666"><ele>614.5</ele><time>2026-04-09T14:46:58.001Z</time></trkpt><trkpt lat="39.31339936738163" lon="9.373846096943748"><ele>613.75</ele><time>2026-04-09T14:46:59.001Z</time></trkpt><trkpt lat="39.31326974844338" lon="9.373867623422889"><ele>613.0</ele><time>2026-04-09T14:47:00.001Z</time></trkpt><trkpt lat="39.31314051615181" lon="9.373921715598163"><ele>610.0</ele><time>2026-04-09T14:47:01.001Z</time></trkpt><trkpt lat="39.313025241992726" lon="9.374029560552627"><ele>607.0</ele><time>2026-04-09T14:47:02.001Z</time></trkpt><trkpt lat="39.31293551326661" lon="9.37418777213974"><ele>604.0</ele><time>2026-04-09T14:47:03.001Z</time></trkpt><trkpt lat="39.31286937786955" lon="9.374370985900248"><ele>604.0</ele><time>2026-04-09T14:47:04.001Z</time></trkpt><trkpt lat="39.31284181967796" lon="9.374555979396298"><ele>604.0</ele><time>2026-04-09T14:47:05.001Z</time></trkpt><trkpt lat="39.312851642150235" lon="9.374731668191481"><ele>604.0</ele><time>2026-04-09T14:47:06.001Z</time></trkpt><trkpt lat="39.31290457432642" lon="9.374895542771144"><ele>604.0</ele><time>2026-04-09T14:47:07.001Z</time></trkpt><trkpt lat="39.312997645587195" lon="9.375049884283982"><ele>601.3333333333334</ele><time>2026-04-09T14:47:08.001Z</time></trkpt><trkpt lat="39.31311636720802" lon="9.375190613358125"><ele>598.6666666666666</ele><time>2026-04-09T14:47:09.001Z</time></trkpt><trkpt lat="39.31323479223635" lon="9.37533485763948"><ele>596.0</ele><time>2026-04-09T14:47:10.001Z</time></trkpt><trkpt lat="39.313332256496686" lon="9.375497419092431"><ele>597.5</ele><time>2026-04-09T14:47:11.001Z</time></trkpt><trkpt lat="39.31339404677903" lon="9.375677627691077"><ele>599.0</ele><time>2026-04-09T14:47:12.001Z</time></trkpt><trkpt lat="39.31344348155877" lon="9.375853649155571"><ele>600.5</ele><time>2026-04-09T14:47:12.999Z</time></trkpt><trkpt lat="39.313511162085945" lon="9.375999452737453"><ele>602.0</ele><time>2026-04-09T14:47:13.999Z</time></trkpt><trkpt lat="39.313608565010945" lon="9.376101695434867"><ele>602.0</ele><time>2026-04-09T14:47:14.999Z</time></trkpt><trkpt lat="39.313720082006306" lon="9.376184632761275"><ele>602.0</ele><time>2026-04-09T14:47:15.999Z</time></trkpt><trkpt lat="39.313825666473036" lon="9.376270485067485"><ele>602.0</ele><time>2026-04-09T14:47:16.999Z</time></trkpt><trkpt lat="39.31389987893349" lon="9.37639338253672"><ele>602.0</ele><time>2026-04-09T14:47:17.999Z</time></trkpt><trkpt lat="39.31394177178509" lon="9.37656079167197"><ele>598.5</ele><time>2026-04-09T14:47:18.999Z</time></trkpt><trkpt lat="39.313957425316474" lon="9.37675136086108"><ele>595.0</ele><time>2026-04-09T14:47:19.999Z</time></trkpt><trkpt lat="39.313973787033916" lon="9.376938507096574"><ele>591.5</ele><time>2026-04-09T14:47:20.999Z</time></trkpt><trkpt lat="39.314014968115224" lon="9.377115486725259"><ele>588.0</ele><time>2026-04-09T14:47:21.999Z</time></trkpt><trkpt lat="39.31406337244638" lon="9.377276203657356"><ele>588.0</ele><time>2026-04-09T14:47:22.999Z</time></trkpt><trkpt lat="39.31408252064677" lon="9.377432929475063"><ele>588.0</ele><time>2026-04-09T14:47:23.999Z</time></trkpt><trkpt lat="39.31406175616886" lon="9.377586376462277"><ele>588.0</ele><time>2026-04-09T14:47:24.999Z</time></trkpt><trkpt lat="39.31399403435195" lon="9.377730379200287"><ele>588.0</ele><time>2026-04-09T14:47:25.999Z</time></trkpt><trkpt lat="39.313916359704415" lon="9.377869979642819"><ele>591.5</ele><time>2026-04-09T14:47:26.999Z</time></trkpt><trkpt lat="39.31386738722641" lon="9.378025986145634"><ele>595.0</ele><time>2026-04-09T14:47:27.999Z</time></trkpt><trkpt lat="39.313865155124255" lon="9.378188508602321"><ele>598.5</ele><time>2026-04-09T14:47:28.999Z</time></trkpt><trkpt lat="39.313850308471096" lon="9.378339420506002"><ele>602.0</ele><time>2026-04-09T14:47:29.999Z</time></trkpt><trkpt lat="39.31379516437784" lon="9.378462001844117"><ele>602.0</ele><time>2026-04-09T14:47:30.999Z</time></trkpt><trkpt lat="39.313708543815274" lon="9.378569359929374"><ele>602.0</ele><time>2026-04-09T14:47:31.999Z</time></trkpt><trkpt lat="39.313599458174124" lon="9.378655112710378"><ele>602.0</ele><time>2026-04-09T14:47:32.999Z</time></trkpt><trkpt lat="39.31343706271819" lon="9.37870267471245"><ele>602.0</ele><time>2026-04-09T14:47:34Z</time></trkpt><trkpt lat="39.313237794446685" lon="9.378734707006213"><ele>602.3333333333333</ele><time>2026-04-09T14:47:35Z</time></trkpt><trkpt lat="39.31306145368303" lon="9.378774330694423"><ele>602.6666666666666</ele><time>2026-04-09T14:47:36Z</time></trkpt><trkpt lat="39.31289432552211" lon="9.378826446007716"><ele>603.0</ele><time>2026-04-09T14:47:37Z</time></trkpt><trkpt lat="39.312720699573696" lon="9.378890270695175"><ele>598.0</ele><time>2026-04-09T14:47:38Z</time></trkpt><trkpt lat="39.312550638015466" lon="9.378978168203576"><ele>593.0</ele><time>2026-04-09T14:47:39Z</time></trkpt><trkpt lat="39.312388811653015" lon="9.379086326484936"><ele>588.0</ele><time>2026-04-09T14:47:40Z</time></trkpt><trkpt lat="39.31223406315473" lon="9.37919220645993"><ele>585.75</ele><time>2026-04-09T14:47:41Z</time></trkpt><trkpt lat="39.31208858763823" lon="9.379293308871157"><ele>583.5</ele><time>2026-04-09T14:47:42Z</time></trkpt><trkpt lat="39.31195191277112" lon="9.379369963506004"><ele>581.25</ele><time>2026-04-09T14:47:43Z</time></trkpt><trkpt lat="39.31181693333552" lon="9.379361580528618"><ele>579.0</ele><time>2026-04-09T14:47:44Z</time></trkpt><trkpt lat="39.31168023885046" lon="9.379331039010982"><ele>579.0</ele><time>2026-04-09T14:47:45Z</time></trkpt><trkpt lat="39.311544324430024" lon="9.379312454747256"><ele>579.0</ele><time>2026-04-09T14:47:46Z</time></trkpt><trkpt lat="39.311442877544955" lon="9.379243583960902"><ele>579.0</ele><time>2026-04-09T14:47:47Z</time></trkpt><trkpt lat="39.31136558708493" lon="9.379145910745828"><ele>579.0</ele><time>2026-04-09T14:47:48Z</time></trkpt><trkpt lat="39.31134317194809" lon="9.378989125233295"><ele>578.0</ele><time>2026-04-09T14:47:49Z</time></trkpt><trkpt lat="39.31132954504506" lon="9.378844175451599"><ele>577.0</ele><time>2026-04-09T14:47:50Z</time></trkpt><trkpt lat="39.3112746108356" lon="9.378712987195502"><ele>576.0</ele><time>2026-04-09T14:47:51Z</time></trkpt><trkpt lat="39.31119112197618" lon="9.378591858844402"><ele>575.0</ele><time>2026-04-09T14:47:52Z</time></trkpt><trkpt lat="39.311069494060845" lon="9.37851584774832"><ele>575.0</ele><time>2026-04-09T14:47:53Z</time></trkpt><trkpt lat="39.310902149881336" lon="9.378470403973637"><ele>575.0</ele><time>2026-04-09T14:47:54Z</time></trkpt><trkpt lat="39.310729149734655" lon="9.378436316471197"><ele>575.0</ele><time>2026-04-09T14:47:55Z</time></trkpt><trkpt lat="39.31058198978095" lon="9.378396606568417"><ele>573.25</ele><time>2026-04-09T14:47:56Z</time></trkpt><trkpt lat="39.310440747603955" lon="9.378357733300048"><ele>571.5</ele><time>2026-04-09T14:47:57Z</time></trkpt><trkpt lat="39.310318058725436" lon="9.378357728277551"><ele>569.75</ele><time>2026-04-09T14:47:58Z</time></trkpt><trkpt lat="39.310205818922356" lon="9.378416830429769"><ele>568.0</ele><time>2026-04-09T14:47:59Z</time></trkpt><trkpt lat="39.31011397491774" lon="9.378533198396285"><ele>568.0</ele><time>2026-04-09T14:48:00Z</time></trkpt><trkpt lat="39.310053489504895" lon="9.378694582826407"><ele>568.0</ele><time>2026-04-09T14:48:01Z</time></trkpt><trkpt lat="39.310023861641916" lon="9.378893023928278"><ele>568.0</ele><time>2026-04-09T14:48:02Z</time></trkpt><trkpt lat="39.31000805110996" lon="9.379079903038628"><ele>568.0</ele><time>2026-04-09T14:48:03Z</time></trkpt><trkpt lat="39.30998211325804" lon="9.379253258123745"><ele>566.75</ele><time>2026-04-09T14:48:04Z</time></trkpt><trkpt lat="39.30994781779591" lon="9.379414219498432"><ele>565.5</ele><time>2026-04-09T14:48:05Z</time></trkpt><trkpt lat="39.30988597234323" lon="9.379550858822716"><ele>564.25</ele><time>2026-04-09T14:48:06Z</time></trkpt><trkpt lat="39.309785903902394" lon="9.379648060918468"><ele>563.0</ele><time>2026-04-09T14:48:07Z</time></trkpt><trkpt lat="39.3096455883455" lon="9.379665654210228"><ele>561.5</ele><time>2026-04-09T14:48:08Z</time></trkpt><trkpt lat="39.30951620698382" lon="9.379687738266174"><ele>560.0</ele><time>2026-04-09T14:48:09Z</time></trkpt><trkpt lat="39.309412999282316" lon="9.379771592329861"><ele>558.5</ele><time>2026-04-09T14:48:10Z</time></trkpt><trkpt lat="39.309328467637854" lon="9.379895851730048"><ele>557.0</ele><time>2026-04-09T14:48:11Z</time></trkpt><trkpt lat="39.309267010799736" lon="9.380049049900924"><ele>557.0</ele><time>2026-04-09T14:48:12Z</time></trkpt><trkpt lat="39.30920160710623" lon="9.380183320023994"><ele>557.0</ele><time>2026-04-09T14:48:13Z</time></trkpt><trkpt lat="39.30911153387683" lon="9.380283095036127"><ele>557.0</ele><time>2026-04-09T14:48:14Z</time></trkpt><trkpt lat="39.308993056791465" lon="9.380333505723835"><ele>557.0</ele><time>2026-04-09T14:48:15.001Z</time></trkpt><trkpt lat="39.30888654077411" lon="9.380389719654817"><ele>556.75</ele><time>2026-04-09T14:48:16.001Z</time></trkpt><trkpt lat="39.308790401883535" lon="9.380483655378365"><ele>556.5</ele><time>2026-04-09T14:48:17.001Z</time></trkpt><trkpt lat="39.30872499671569" lon="9.380644916986252"><ele>556.25</ele><time>2026-04-09T14:48:18.001Z</time></trkpt><trkpt lat="39.30864862724732" lon="9.38081146356205"><ele>556.0</ele><time>2026-04-09T14:48:19.001Z</time></trkpt><trkpt lat="39.308574311783175" lon="9.380973525410626"><ele>556.0</ele><time>2026-04-09T14:48:20.001Z</time></trkpt><trkpt lat="39.30850114359184" lon="9.381133085371921"><ele>556.0</ele><time>2026-04-09T14:48:21.001Z</time></trkpt><trkpt lat="39.308583835341" lon="9.381402904860417"><ele>556.0</ele><time>2026-04-09T14:48:22.001Z</time></trkpt><trkpt lat="39.308535200470295" lon="9.38155570506454"><ele>552.25</ele><time>2026-04-09T14:48:23.001Z</time></trkpt><trkpt lat="39.308486076352224" lon="9.38169386250926"><ele>548.5</ele><time>2026-04-09T14:48:24.001Z</time></trkpt><trkpt lat="39.30840954966601" lon="9.381806651947308"><ele>544.75</ele><time>2026-04-09T14:48:25.001Z</time></trkpt><trkpt lat="39.30830204869237" lon="9.381884252990218"><ele>541.0</ele><time>2026-04-09T14:48:26.001Z</time></trkpt><trkpt lat="39.308172563909004" lon="9.381915194687515"><ele>540.25</ele><time>2026-04-09T14:48:27.001Z</time></trkpt><trkpt lat="39.30804498431758" lon="9.381880487445192"><ele>539.5</ele><time>2026-04-09T14:48:28.001Z</time></trkpt><trkpt lat="39.30793462380072" lon="9.38182007911004"><ele>538.75</ele><time>2026-04-09T14:48:29.001Z</time></trkpt><trkpt lat="39.30782746426148" lon="9.381799764382228"><ele>538.0</ele><time>2026-04-09T14:48:30.001Z</time></trkpt><trkpt lat="39.307731785378884" lon="9.38184262242759"><ele>538.0</ele><time>2026-04-09T14:48:31.001Z</time></trkpt><trkpt lat="39.307675319149354" lon="9.381947613361598"><ele>538.0</ele><time>2026-04-09T14:48:32.001Z</time></trkpt><trkpt lat="39.30766474722275" lon="9.382086472380315"><ele>538.0</ele><time>2026-04-09T14:48:33.001Z</time></trkpt><trkpt lat="39.307690678829054" lon="9.382262967518885"><ele>538.0</ele><time>2026-04-09T14:48:34.001Z</time></trkpt><trkpt lat="39.307721275316844" lon="9.382425591859372"><ele>537.0</ele><time>2026-04-09T14:48:35.001Z</time></trkpt><trkpt lat="39.30774631885711" lon="9.382574565879457"><ele>536.0</ele><time>2026-04-09T14:48:36.001Z</time></trkpt><trkpt lat="39.30776437413774" lon="9.382713286980993"><ele>535.0</ele><time>2026-04-09T14:48:37.001Z</time></trkpt><trkpt lat="39.30777499913428" lon="9.382851166128846"><ele>534.0</ele><time>2026-04-09T14:48:38.001Z</time></trkpt><trkpt lat="39.307768190600946" lon="9.382987676323394"><ele>533.0</ele><time>2026-04-09T14:48:39.001Z</time></trkpt><trkpt lat="39.30773036520232" lon="9.383127109211294"><ele>530.25</ele><time>2026-04-09T14:48:40.001Z</time></trkpt><trkpt lat="39.307690888708315" lon="9.383263596960433"><ele>527.5</ele><time>2026-04-09T14:48:41.001Z</time></trkpt><trkpt lat="39.30769321520095" lon="9.383421842803651"><ele>524.75</ele><time>2026-04-09T14:48:42.001Z</time></trkpt><trkpt lat="39.307757150982766" lon="9.383591661325417"><ele>522.0</ele><time>2026-04-09T14:48:43.001Z</time></trkpt><trkpt lat="39.30781971884024" lon="9.383748170578288"><ele>519.5</ele><time>2026-04-09T14:48:44.001Z</time></trkpt><trkpt lat="39.30783133413281" lon="9.383915403049262"><ele>517.0</ele><time>2026-04-09T14:48:45.001Z</time></trkpt><trkpt lat="39.30781431386535" lon="9.384099809823047"><ele>514.5</ele><time>2026-04-09T14:48:46.001Z</time></trkpt><trkpt lat="39.30782880012517" lon="9.384292445552688"><ele>512.0</ele><time>2026-04-09T14:48:47.001Z</time></trkpt><trkpt lat="39.30788775671573" lon="9.384486676937511"><ele>512.0</ele><time>2026-04-09T14:48:48.001Z</time></trkpt><trkpt lat="39.307964198403724" lon="9.384656623358811"><ele>512.0</ele><time>2026-04-09T14:48:49.001Z</time></trkpt><trkpt lat="39.30801937439746" lon="9.384822563488468"><ele>512.0</ele><time>2026-04-09T14:48:50.001Z</time></trkpt><trkpt lat="39.308056144978345" lon="9.384975984807005"><ele>512.0</ele><time>2026-04-09T14:48:51.001Z</time></trkpt><trkpt lat="39.30806629501417" lon="9.385136452520678"><ele>510.75</ele><time>2026-04-09T14:48:52.001Z</time></trkpt><trkpt lat="39.3080423927937" lon="9.385295838765588"><ele>509.5</ele><time>2026-04-09T14:48:53.001Z</time></trkpt><trkpt lat="39.30797355818933" lon="9.385451401083714"><ele>508.25</ele><time>2026-04-09T14:48:54.001Z</time></trkpt><trkpt lat="39.30788184868974" lon="9.385595803395681"><ele>507.0</ele><time>2026-04-09T14:48:55.001Z</time></trkpt><trkpt lat="39.307804266269926" lon="9.385732210919617"><ele>503.5</ele><time>2026-04-09T14:48:56.001Z</time></trkpt><trkpt lat="39.307753485517864" lon="9.38586996302666"><ele>500.0</ele><time>2026-04-09T14:48:57.001Z</time></trkpt><trkpt lat="39.30775283740029" lon="9.386018333856423"><ele>496.5</ele><time>2026-04-09T14:48:58.001Z</time></trkpt><trkpt lat="39.30779620780733" lon="9.386176339701505"><ele>493.0</ele><time>2026-04-09T14:48:59.001Z</time></trkpt><trkpt lat="39.30788381508048" lon="9.386321014077891"><ele>494.25</ele><time>2026-04-09T14:49:00.001Z</time></trkpt><trkpt lat="39.307966040580155" lon="9.38645667871208"><ele>495.5</ele><time>2026-04-09T14:49:01.001Z</time></trkpt><trkpt lat="39.308024648939785" lon="9.386603420669168"><ele>496.75</ele><time>2026-04-09T14:49:02.001Z</time></trkpt><trkpt lat="39.30805195635838" lon="9.38676521168651"><ele>498.0</ele><time>2026-04-09T14:49:03.001Z</time></trkpt><trkpt lat="39.30805105455172" lon="9.38692611058754"><ele>498.0</ele><time>2026-04-09T14:49:04.001Z</time></trkpt><trkpt lat="39.30803389242526" lon="9.387083811674792"><ele>498.0</ele><time>2026-04-09T14:49:05.001Z</time></trkpt><trkpt lat="39.30802678606644" lon="9.387239421841183"><ele>498.0</ele><time>2026-04-09T14:49:06.001Z</time></trkpt><trkpt lat="39.30805014901542" lon="9.38739372184692"><ele>498.0</ele><time>2026-04-09T14:49:07.001Z</time></trkpt><trkpt lat="39.308118359644475" lon="9.387529253029578"><ele>495.59999999999997</ele><time>2026-04-09T14:49:08.001Z</time></trkpt><trkpt lat="39.30820457795259" lon="9.387629836627658"><ele>493.19999999999993</ele><time>2026-04-09T14:49:09.002Z</time></trkpt><trkpt lat="39.308283175242025" lon="9.387729235876886"><ele>490.8</ele><time>2026-04-09T14:49:10.002Z</time></trkpt><trkpt lat="39.30831411195653" lon="9.387842528924295"><ele>488.4</ele><time>2026-04-09T14:49:11.002Z</time></trkpt><trkpt lat="39.30829290586477" lon="9.387964797881708"><ele>486.0</ele><time>2026-04-09T14:49:12.002Z</time></trkpt><trkpt lat="39.30821314914988" lon="9.388079439933637"><ele>484.25</ele><time>2026-04-09T14:49:13.002Z</time></trkpt><trkpt lat="39.30810038615043" lon="9.388179986147147"><ele>482.5</ele><time>2026-04-09T14:49:14.002Z</time></trkpt><trkpt lat="39.30798404699365" lon="9.388268730264413"><ele>480.75</ele><time>2026-04-09T14:49:15.002Z</time></trkpt><trkpt lat="39.30788866288105" lon="9.3883656217143"><ele>479.0</ele><time>2026-04-09T14:49:16.002Z</time></trkpt><trkpt lat="39.30783373604767" lon="9.388485228057938"><ele>478.5</ele><time>2026-04-09T14:49:17.002Z</time></trkpt><trkpt lat="39.30782483455908" lon="9.38862611070428"><ele>478.0</ele><time>2026-04-09T14:49:18.002Z</time></trkpt><trkpt lat="39.307879651699075" lon="9.388764591951078"><ele>477.5</ele><time>2026-04-09T14:49:19Z</time></trkpt><trkpt lat="39.30797224269603" lon="9.388868781297946"><ele>477.0</ele><time>2026-04-09T14:49:20Z</time></trkpt><trkpt lat="39.3081012259829" lon="9.388948243752777"><ele>477.0</ele><time>2026-04-09T14:49:21Z</time></trkpt><trkpt lat="39.30823219552592" lon="9.389027887400319"><ele>477.0</ele><time>2026-04-09T14:49:22Z</time></trkpt><trkpt lat="39.30834652622989" lon="9.389119753199704"><ele>477.0</ele><time>2026-04-09T14:49:23Z</time></trkpt><trkpt lat="39.30844589263502" lon="9.389217980912084"><ele>477.0</ele><time>2026-04-09T14:49:24Z</time></trkpt><trkpt lat="39.308529556111864" lon="9.389321955578806"><ele>477.0</ele><time>2026-04-09T14:49:25Z</time></trkpt><trkpt lat="39.30859827877065" lon="9.38943698614718"><ele>477.0</ele><time>2026-04-09T14:49:26Z</time></trkpt><trkpt lat="39.30863054977664" lon="9.389588154143404"><ele>477.0</ele><time>2026-04-09T14:49:27Z</time></trkpt><trkpt lat="39.308617808230146" lon="9.389750179268496"><ele>477.0</ele><time>2026-04-09T14:49:28Z</time></trkpt><trkpt lat="39.308568968618246" lon="9.389901785083099"><ele>476.75</ele><time>2026-04-09T14:49:29Z</time></trkpt><trkpt lat="39.308471619275046" lon="9.390040376726203"><ele>476.5</ele><time>2026-04-09T14:49:30Z</time></trkpt><trkpt lat="39.3083588345927" lon="9.390140721673726"><ele>476.25</ele><time>2026-04-09T14:49:31Z</time></trkpt><trkpt lat="39.308267798848796" lon="9.390230869197934"><ele>476.0</ele><time>2026-04-09T14:49:32Z</time></trkpt><trkpt lat="39.30820611046738" lon="9.390356851526082"><ele>471.5</ele><time>2026-04-09T14:49:33Z</time></trkpt><trkpt lat="39.30817727085095" lon="9.390523415445392"><ele>467.0</ele><time>2026-04-09T14:49:34Z</time></trkpt><trkpt lat="39.30819842303288" lon="9.39071860006271"><ele>462.5</ele><time>2026-04-09T14:49:35Z</time></trkpt><trkpt lat="39.3082287951255" lon="9.390899323392969"><ele>458.0</ele><time>2026-04-09T14:49:36Z</time></trkpt><trkpt lat="39.308259414028036" lon="9.3910698312"><ele>458.0</ele><time>2026-04-09T14:49:37Z</time></trkpt><trkpt lat="39.30828679958218" lon="9.391233265386886"><ele>458.0</ele><time>2026-04-09T14:49:38Z</time></trkpt><trkpt lat="39.308323421369685" lon="9.391390054271268"><ele>458.0</ele><time>2026-04-09T14:49:39Z</time></trkpt><trkpt lat="39.30837020172098" lon="9.391537799707567"><ele>458.0</ele><time>2026-04-09T14:49:40Z</time></trkpt><trkpt lat="39.30840681620359" lon="9.391682977369985"><ele>457.25</ele><time>2026-04-09T14:49:41Z</time></trkpt><trkpt lat="39.3083976672841" lon="9.391828416845243"><ele>456.5</ele><time>2026-04-09T14:49:42Z</time></trkpt><trkpt lat="39.30833429345524" lon="9.391966403458852"><ele>455.75</ele><time>2026-04-09T14:49:43Z</time></trkpt><trkpt lat="39.308230938983705" lon="9.392081441840983"><ele>455.0</ele><time>2026-04-09T14:49:44Z</time></trkpt><trkpt lat="39.30809153800553" lon="9.392148321138638"><ele>452.5</ele><time>2026-04-09T14:49:45Z</time></trkpt><trkpt lat="39.30796345184932" lon="9.392198350847671"><ele>450.0</ele><time>2026-04-09T14:49:46Z</time></trkpt><trkpt lat="39.30785447230493" lon="9.392277551501842"><ele>447.5</ele><time>2026-04-09T14:49:47Z</time></trkpt><trkpt lat="39.3077787838648" lon="9.392411063037626"><ele>445.0</ele><time>2026-04-09T14:49:48Z</time></trkpt><trkpt lat="39.30773232502865" lon="9.392565121830867"><ele>445.0</ele><time>2026-04-09T14:49:49Z</time></trkpt><trkpt lat="39.30769831964008" lon="9.392712902447558"><ele>445.0</ele><time>2026-04-09T14:49:50Z</time></trkpt><trkpt lat="39.3076462627641" lon="9.39283873725556"><ele>445.0</ele><time>2026-04-09T14:49:51Z</time></trkpt><trkpt lat="39.30756211708637" lon="9.3929164051218"><ele>445.0</ele><time>2026-04-09T14:49:52Z</time></trkpt><trkpt lat="39.3074632539027" lon="9.39293646984275"><ele>445.0</ele><time>2026-04-09T14:49:53Z</time></trkpt><trkpt lat="39.30736289131518" lon="9.39288119290996"><ele>445.0</ele><time>2026-04-09T14:49:54Z</time></trkpt><trkpt lat="39.30729779549097" lon="9.39276738321763"><ele>445.0</ele><time>2026-04-09T14:49:55Z</time></trkpt><trkpt lat="39.307281518543164" lon="9.392621455366616"><ele>445.0</ele><time>2026-04-09T14:49:56Z</time></trkpt><trkpt lat="39.30729731130342" lon="9.392451326402222"><ele>445.0</ele><time>2026-04-09T14:49:57Z</time></trkpt><trkpt lat="39.30729527922099" lon="9.39227578136509"><ele>447.75</ele><time>2026-04-09T14:49:58Z</time></trkpt><trkpt lat="39.30729142255579" lon="9.392113495664182"><ele>450.5</ele><time>2026-04-09T14:49:59Z</time></trkpt><trkpt lat="39.307259761609586" lon="9.391957278138557"><ele>453.25</ele><time>2026-04-09T14:50:00Z</time></trkpt><trkpt lat="39.30719750491697" lon="9.391806020361628"><ele>456.0</ele><time>2026-04-09T14:50:01Z</time></trkpt><trkpt lat="39.30709834802455" lon="9.391669940940416"><ele>450.25</ele><time>2026-04-09T14:50:02Z</time></trkpt><trkpt lat="39.306984901496854" lon="9.391567204434358"><ele>444.5</ele><time>2026-04-09T14:50:03Z</time></trkpt><trkpt lat="39.306874515558796" lon="9.391480186179583"><ele>438.75</ele><time>2026-04-09T14:50:04Z</time></trkpt><trkpt lat="39.306754487381916" lon="9.391422363203548"><ele>433.0</ele><time>2026-04-09T14:50:05Z</time></trkpt><trkpt lat="39.30663152751922" lon="9.391384830053292"><ele>433.0</ele><time>2026-04-09T14:50:06Z</time></trkpt><trkpt lat="39.30650595690214" lon="9.391359244690863"><ele>433.0</ele><time>2026-04-09T14:50:07Z</time></trkpt><trkpt lat="39.30638188169276" lon="9.391329042315139"><ele>433.0</ele><time>2026-04-09T14:50:08.001Z</time></trkpt><trkpt lat="39.306265713743905" lon="9.391296770574774"><ele>433.0</ele><time>2026-04-09T14:50:09.001Z</time></trkpt><trkpt lat="39.30615332246334" lon="9.391263759264548"><ele>434.59999999999997</ele><time>2026-04-09T14:50:10.001Z</time></trkpt><trkpt lat="39.306041461326586" lon="9.391233876681357"><ele>436.19999999999993</ele><time>2026-04-09T14:50:11.001Z</time></trkpt><trkpt lat="39.305941927556795" lon="9.391207401389448"><ele>437.8</ele><time>2026-04-09T14:50:12.001Z</time></trkpt><trkpt lat="39.305849609549625" lon="9.391179257186796"><ele>439.4</ele><time>2026-04-09T14:50:13.001Z</time></trkpt><trkpt lat="39.30576334029086" lon="9.391150582078852"><ele>441.0</ele><time>2026-04-09T14:50:14.001Z</time></trkpt><trkpt lat="39.305692070478564" lon="9.391111180905154"><ele>441.0</ele><time>2026-04-09T14:50:15.001Z</time></trkpt><trkpt lat="39.305609541632194" lon="9.391011971907028"><ele>441.0</ele><time>2026-04-09T14:50:17.001Z</time></trkpt><trkpt lat="39.30556101143509" lon="9.39093306802896"><ele>441.0</ele><time>2026-04-09T14:50:19.001Z</time></trkpt><trkpt lat="39.305492017391465" lon="9.390909888184451"><ele>441.0</ele><time>2026-04-09T14:50:21.001Z</time></trkpt><trkpt lat="39.305418422829554" lon="9.390962144069372"><ele>441.0</ele><time>2026-04-09T14:50:23.001Z</time></trkpt><trkpt lat="39.305361934748895" lon="9.391108240752942"><ele>437.20000000000005</ele><time>2026-04-09T14:50:25.001Z</time></trkpt><trkpt lat="39.30536365233597" lon="9.391208746576426"><ele>433.40000000000003</ele><time>2026-04-09T14:50:26.001Z</time></trkpt><trkpt lat="39.30537680816445" lon="9.391332644793184"><ele>429.6</ele><time>2026-04-09T14:50:27.001Z</time></trkpt><trkpt lat="39.30540313036084" lon="9.391473231113174"><ele>425.8</ele><time>2026-04-09T14:50:28.001Z</time></trkpt><trkpt lat="39.30542943435146" lon="9.39162290080483"><ele>422.0</ele><time>2026-04-09T14:50:29.001Z</time></trkpt><trkpt lat="39.30545104815932" lon="9.391772196608375"><ele>422.0</ele><time>2026-04-09T14:50:30.001Z</time></trkpt><trkpt lat="39.30546252959901" lon="9.391913097980845"><ele>422.0</ele><time>2026-04-09T14:50:31.001Z</time></trkpt><trkpt lat="39.3054620829342" lon="9.392059682126645"><ele>422.0</ele><time>2026-04-09T14:50:32.001Z</time></trkpt><trkpt lat="39.30546113909759" lon="9.392212856156313"><ele>422.0</ele><time>2026-04-09T14:50:33.001Z</time></trkpt><trkpt lat="39.30546799365942" lon="9.392366274745411"><ele>424.75</ele><time>2026-04-09T14:50:34.001Z</time></trkpt><trkpt lat="39.3055155801343" lon="9.392541270945411"><ele>427.5</ele><time>2026-04-09T14:50:35.001Z</time></trkpt><trkpt lat="39.30558167113484" lon="9.3927165881414"><ele>430.25</ele><time>2026-04-09T14:50:36.001Z</time></trkpt><trkpt lat="39.30562875624488" lon="9.39289634978794"><ele>433.0</ele><time>2026-04-09T14:50:37.001Z</time></trkpt><trkpt lat="39.305639663130314" lon="9.393066523648367"><ele>433.25</ele><time>2026-04-09T14:50:38.001Z</time></trkpt><trkpt lat="39.30562678172027" lon="9.393216028224865"><ele>433.5</ele><time>2026-04-09T14:50:39.001Z</time></trkpt><trkpt lat="39.30557757444522" lon="9.393350154388445"><ele>433.75</ele><time>2026-04-09T14:50:40.001Z</time></trkpt><trkpt lat="39.30549540520691" lon="9.393479517361731"><ele>434.0</ele><time>2026-04-09T14:50:41.001Z</time></trkpt><trkpt lat="39.30541048457789" lon="9.39360498291368"><ele>434.4</ele><time>2026-04-09T14:50:42.001Z</time></trkpt><trkpt lat="39.305361822271244" lon="9.393741752524836"><ele>434.79999999999995</ele><time>2026-04-09T14:50:43.001Z</time></trkpt><trkpt lat="39.30532804860936" lon="9.393870956711268"><ele>435.20000000000005</ele><time>2026-04-09T14:50:44.001Z</time></trkpt><trkpt lat="39.30530539659988" lon="9.3939934945167"><ele>435.6</ele><time>2026-04-09T14:50:45.001Z</time></trkpt><trkpt lat="39.305264442089715" lon="9.394097986165603"><ele>436.0</ele><time>2026-04-09T14:50:46.001Z</time></trkpt><trkpt lat="39.30520897180024" lon="9.394194316454628"><ele>437.5</ele><time>2026-04-09T14:50:47.001Z</time></trkpt><trkpt lat="39.3051178759901" lon="9.394270153747023"><ele>439.0</ele><time>2026-04-09T14:50:48.001Z</time></trkpt><trkpt lat="39.305030332189176" lon="9.394349896418369"><ele>440.5</ele><time>2026-04-09T14:50:49.001Z</time></trkpt><trkpt lat="39.30492496648255" lon="9.394432726846613"><ele>442.0</ele><time>2026-04-09T14:50:50.001Z</time></trkpt><trkpt lat="39.30478458009109" lon="9.394510095323465"><ele>443.5</ele><time>2026-04-09T14:50:51.001Z</time></trkpt><trkpt lat="39.304644317614496" lon="9.394577725341703"><ele>445.0</ele><time>2026-04-09T14:50:52.001Z</time></trkpt><trkpt lat="39.30451251039132" lon="9.394644216556287"><ele>446.5</ele><time>2026-04-09T14:50:53.001Z</time></trkpt><trkpt lat="39.304395623347816" lon="9.394712745900183"><ele>448.0</ele><time>2026-04-09T14:50:54.001Z</time></trkpt><trkpt lat="39.304300811156516" lon="9.394811996621678"><ele>448.0</ele><time>2026-04-09T14:50:55.001Z</time></trkpt><trkpt lat="39.30421707491477" lon="9.394932188602795"><ele>448.0</ele><time>2026-04-09T14:50:56.001Z</time></trkpt><trkpt lat="39.30416353281717" lon="9.39508695074355"><ele>448.0</ele><time>2026-04-09T14:50:57.001Z</time></trkpt><trkpt lat="39.30410207539986" lon="9.395213501571561"><ele>448.0</ele><time>2026-04-09T14:50:58.002Z</time></trkpt><trkpt lat="39.304014117191706" lon="9.395254106199063"><ele>448.0</ele><time>2026-04-09T14:50:59.002Z</time></trkpt><trkpt lat="39.303918781754525" lon="9.395256188331608"><ele>447.99999999999994</ele><time>2026-04-09T14:51:00.002Z</time></trkpt><trkpt lat="39.30380627528338" lon="9.395282945701629"><ele>447.99999999999994</ele><time>2026-04-09T14:51:01.002Z</time></trkpt><trkpt lat="39.30371119903372" lon="9.395296198958253"><ele>448.0</ele><time>2026-04-09T14:51:02.002Z</time></trkpt><trkpt lat="39.303636322408764" lon="9.395295025871983"><ele>448.0</ele><time>2026-04-09T14:51:03.002Z</time></trkpt><trkpt lat="39.303563654551056" lon="9.395275989366887"><ele>450.25</ele><time>2026-04-09T14:51:04.002Z</time></trkpt><trkpt lat="39.30348522772709" lon="9.395229537209083"><ele>452.5</ele><time>2026-04-09T14:51:05.002Z</time></trkpt><trkpt lat="39.30343024440417" lon="9.395125327131858"><ele>454.75</ele><time>2026-04-09T14:51:06.002Z</time></trkpt><trkpt lat="39.303372819668944" lon="9.394978092343704"><ele>457.0</ele><time>2026-04-09T14:51:07.002Z</time></trkpt><trkpt lat="39.303292588216024" lon="9.394829887389202"><ele>457.0</ele><time>2026-04-09T14:51:08.002Z</time></trkpt><trkpt lat="39.30319890501383" lon="9.394684317233082"><ele>457.0</ele><time>2026-04-09T14:51:09.002Z</time></trkpt><trkpt lat="39.30309479483445" lon="9.394552805423418"><ele>457.0</ele><time>2026-04-09T14:51:10.002Z</time></trkpt><trkpt lat="39.302991060800224" lon="9.394429999177769"><ele>457.0</ele><time>2026-04-09T14:51:11.002Z</time></trkpt><trkpt lat="39.302900142844685" lon="9.394326403841747"><ele>456.8</ele><time>2026-04-09T14:51:12.002Z</time></trkpt><trkpt lat="39.30286712133367" lon="9.394181938009876"><ele>456.6</ele><time>2026-04-09T14:51:13.002Z</time></trkpt><trkpt lat="39.302840883025794" lon="9.39403599267797"><ele>456.40000000000003</ele><time>2026-04-09T14:51:14.002Z</time></trkpt><trkpt lat="39.30280118963351" lon="9.393910269179273"><ele>456.20000000000005</ele><time>2026-04-09T14:51:15.002Z</time></trkpt><trkpt lat="39.302741086133935" lon="9.393807085549842"><ele>456.0</ele><time>2026-04-09T14:51:16.002Z</time></trkpt><trkpt lat="39.3026333822653" lon="9.39374883964137"><ele>456.0</ele><time>2026-04-09T14:51:17.002Z</time></trkpt><trkpt lat="39.30249449945728" lon="9.393741513252111"><ele>456.0</ele><time>2026-04-09T14:51:18.002Z</time></trkpt><trkpt lat="39.30238039700536" lon="9.393724232478807"><ele>456.0</ele><time>2026-04-09T14:51:19.002Z</time></trkpt><trkpt lat="39.30229525496052" lon="9.393681611671791"><ele>456.0</ele><time>2026-04-09T14:51:20.002Z</time></trkpt><trkpt lat="39.30221988923139" lon="9.393586826467722"><ele>464.0</ele><time>2026-04-09T14:51:21.002Z</time></trkpt><trkpt lat="39.302145942380946" lon="9.393500089327816"><ele>472.0</ele><time>2026-04-09T14:51:22.002Z</time></trkpt><trkpt lat="39.30210323543119" lon="9.393417023973779"><ele>480.0</ele><time>2026-04-09T14:51:23.002Z</time></trkpt><trkpt lat="39.302083472231594" lon="9.393312273241293"><ele>488.0</ele><time>2026-04-09T14:51:24.002Z</time></trkpt><trkpt lat="39.302117662253536" lon="9.393169788507922"><ele>496.0</ele><time>2026-04-09T14:51:25Z</time></trkpt><trkpt lat="39.30210737126861" lon="9.393015939650637"><ele>492.8</ele><time>2026-04-09T14:51:26Z</time></trkpt><trkpt lat="39.30209415278064" lon="9.392874049132999"><ele>489.6</ele><time>2026-04-09T14:51:27Z</time></trkpt><trkpt lat="39.30210656650932" lon="9.392755756180518"><ele>486.4</ele><time>2026-04-09T14:51:28Z</time></trkpt><trkpt lat="39.3021211020741" lon="9.392640206083538"><ele>483.2</ele><time>2026-04-09T14:51:29Z</time></trkpt><trkpt lat="39.30211876065685" lon="9.392540142409382"><ele>480.0</ele><time>2026-04-09T14:51:30Z</time></trkpt><trkpt lat="39.30207539803454" lon="9.392421292672768"><ele>480.0</ele><time>2026-04-09T14:51:31Z</time></trkpt><trkpt lat="39.30198699410495" lon="9.392299112252767"><ele>480.0</ele><time>2026-04-09T14:51:32Z</time></trkpt><trkpt lat="39.301890232769004" lon="9.392182641017481"><ele>480.0</ele><time>2026-04-09T14:51:33Z</time></trkpt><trkpt lat="39.3017886397546" lon="9.392096245230073"><ele>480.0</ele><time>2026-04-09T14:51:34Z</time></trkpt><trkpt lat="39.30168838017622" lon="9.392060660914545"><ele>481.25</ele><time>2026-04-09T14:51:35Z</time></trkpt><trkpt lat="39.301579934528995" lon="9.392084168909934"><ele>482.5</ele><time>2026-04-09T14:51:36Z</time></trkpt><trkpt lat="39.30145279478958" lon="9.392168993199098"><ele>483.75</ele><time>2026-04-09T14:51:37Z</time></trkpt><trkpt lat="39.30131174678225" lon="9.392252199005581"><ele>485.0</ele><time>2026-04-09T14:51:38Z</time></trkpt><trkpt lat="39.30117732585228" lon="9.392317922324132"><ele>485.0</ele><time>2026-04-09T14:51:39Z</time></trkpt><trkpt lat="39.30106883228866" lon="9.392339962463348"><ele>485.0</ele><time>2026-04-09T14:51:40Z</time></trkpt><trkpt lat="39.300953528921866" lon="9.392329554283723"><ele>485.0</ele><time>2026-04-09T14:51:41Z</time></trkpt><trkpt lat="39.30082618049014" lon="9.392318053294371"><ele>485.0</ele><time>2026-04-09T14:51:42Z</time></trkpt><trkpt lat="39.300716295340415" lon="9.392323197191866"><ele>485.0</ele><time>2026-04-09T14:51:43Z</time></trkpt><trkpt lat="39.300618933992766" lon="9.392326053298184"><ele>485.0</ele><time>2026-04-09T14:51:44Z</time></trkpt><trkpt lat="39.30052312664486" lon="9.392316185449804"><ele>485.0</ele><time>2026-04-09T14:51:45Z</time></trkpt><trkpt lat="39.30044118332413" lon="9.392239939095468"><ele>485.0</ele><time>2026-04-09T14:51:46Z</time></trkpt><trkpt lat="39.30035299211978" lon="9.392134852257717"><ele>485.0</ele><time>2026-04-09T14:51:47Z</time></trkpt><trkpt lat="39.3002528922313" lon="9.392056018011294"><ele>480.25</ele><time>2026-04-09T14:51:48Z</time></trkpt><trkpt lat="39.30013111524632" lon="9.392004422200475"><ele>475.5</ele><time>2026-04-09T14:51:49Z</time></trkpt><trkpt lat="39.300001809245714" lon="9.391972536548565"><ele>470.75</ele><time>2026-04-09T14:51:50Z</time></trkpt><trkpt lat="39.299875817537895" lon="9.391926508381497"><ele>466.0</ele><time>2026-04-09T14:51:51Z</time></trkpt><trkpt lat="39.29976383784131" lon="9.391904255047159"><ele>468.25</ele><time>2026-04-09T14:51:52Z</time></trkpt><trkpt lat="39.29964577442735" lon="9.39192304609579"><ele>470.5</ele><time>2026-04-09T14:51:53Z</time></trkpt><trkpt lat="39.299516361998606" lon="9.392005824791848"><ele>472.75</ele><time>2026-04-09T14:51:54Z</time></trkpt><trkpt lat="39.29935956961954" lon="9.392031004789377"><ele>475.0</ele><time>2026-04-09T14:51:55Z</time></trkpt><trkpt lat="39.299158814409964" lon="9.392070201704287"><ele>475.0</ele><time>2026-04-09T14:51:56Z</time></trkpt><trkpt lat="39.29894923058317" lon="9.39211104165371"><ele>475.0</ele><time>2026-04-09T14:51:57Z</time></trkpt><trkpt lat="39.29879196061556" lon="9.392139648098212"><ele>475.0</ele><time>2026-04-09T14:51:58Z</time></trkpt><trkpt lat="39.29865471325442" lon="9.392162632210146"><ele>482.0</ele><time>2026-04-09T14:51:59Z</time></trkpt><trkpt lat="39.29852442474916" lon="9.392205208383682"><ele>489.0</ele><time>2026-04-09T14:52:00Z</time></trkpt><trkpt lat="39.29839783887167" lon="9.39227465215508"><ele>496.0</ele><time>2026-04-09T14:52:01Z</time></trkpt><trkpt lat="39.298255736908686" lon="9.392349391518838"><ele>503.0</ele><time>2026-04-09T14:52:02Z</time></trkpt><trkpt lat="39.29813038572042" lon="9.392408710766965"><ele>505.0</ele><time>2026-04-09T14:52:03Z</time></trkpt><trkpt lat="39.298025080412415" lon="9.392456222316634"><ele>506.99999999999994</ele><time>2026-04-09T14:52:04Z</time></trkpt><trkpt lat="39.297937018473604" lon="9.39248119833897"><ele>508.99999999999994</ele><time>2026-04-09T14:52:05Z</time></trkpt><trkpt lat="39.29785319468735" lon="9.392472499674488"><ele>511.0</ele><time>2026-04-09T14:52:06.001Z</time></trkpt><trkpt lat="39.29776486537922" lon="9.392426482004657"><ele>513.0</ele><time>2026-04-09T14:52:07.001Z</time></trkpt><trkpt lat="39.29766519147439" lon="9.39232607471803"><ele>513.0</ele><time>2026-04-09T14:52:08.001Z</time></trkpt><trkpt lat="39.29755806200402" lon="9.392273908768786"><ele>513.0</ele><time>2026-04-09T14:52:09.001Z</time></trkpt><trkpt lat="39.29742322127853" lon="9.39228118511639"><ele>513.0</ele><time>2026-04-09T14:52:10.001Z</time></trkpt><trkpt lat="39.2972970315394" lon="9.392319613821133"><ele>513.0</ele><time>2026-04-09T14:52:11.001Z</time></trkpt><trkpt lat="39.29719178734141" lon="9.392338901521974"><ele>514.6</ele><time>2026-04-09T14:52:12.001Z</time></trkpt><trkpt lat="39.29710615487764" lon="9.392329401186997"><ele>516.1999999999999</ele><time>2026-04-09T14:52:13.001Z</time></trkpt><trkpt lat="39.29703819750956" lon="9.39224146817126"><ele>517.8</ele><time>2026-04-09T14:52:14.001Z</time></trkpt><trkpt lat="39.29693805484708" lon="9.3921335241971"><ele>519.4</ele><time>2026-04-09T14:52:15.001Z</time></trkpt><trkpt lat="39.296849827305124" lon="9.392018104319204"><ele>521.0</ele><time>2026-04-09T14:52:16.001Z</time></trkpt><trkpt lat="39.29676300269501" lon="9.391891603198466"><ele>521.0</ele><time>2026-04-09T14:52:17.001Z</time></trkpt><trkpt lat="39.29667468069475" lon="9.39176642759008"><ele>521.0</ele><time>2026-04-09T14:52:18.001Z</time></trkpt><trkpt lat="39.296586673336684" lon="9.391649779636579"><ele>521.0</ele><time>2026-04-09T14:52:19.001Z</time></trkpt><trkpt lat="39.29649466531198" lon="9.391538976375628"><ele>521.0</ele><time>2026-04-09T14:52:20.001Z</time></trkpt><trkpt lat="39.296393793617916" lon="9.391453058895497"><ele>519.2</ele><time>2026-04-09T14:52:21.001Z</time></trkpt><trkpt lat="39.29631457680358" lon="9.391346189608532"><ele>517.4000000000001</ele><time>2026-04-09T14:52:22.001Z</time></trkpt><trkpt lat="39.29622516507032" lon="9.391259263236387"><ele>515.6</ele><time>2026-04-09T14:52:23.001Z</time></trkpt><trkpt lat="39.29615445081662" lon="9.391172851593796"><ele>513.8000000000001</ele><time>2026-04-09T14:52:24.001Z</time></trkpt><trkpt lat="39.29606592304999" lon="9.391129208663854"><ele>512.0</ele><time>2026-04-09T14:52:25.001Z</time></trkpt><trkpt lat="39.29596367607892" lon="9.391126691810602"><ele>512.0</ele><time>2026-04-09T14:52:26.001Z</time></trkpt><trkpt lat="39.29586292621674" lon="9.391174649339552"><ele>512.0</ele><time>2026-04-09T14:52:27.001Z</time></trkpt><trkpt lat="39.29581384622524" lon="9.3913134893433"><ele>512.0</ele><time>2026-04-09T14:52:28.001Z</time></trkpt><trkpt lat="39.29587455152411" lon="9.391456600439547"><ele>512.0</ele><time>2026-04-09T14:52:29.001Z</time></trkpt><trkpt lat="39.29593892964023" lon="9.391546918987805"><ele>512.0</ele><time>2026-04-09T14:52:30.001Z</time></trkpt><trkpt lat="39.29604567493359" lon="9.391624023389726"><ele>517.0</ele><time>2026-04-09T14:52:31.001Z</time></trkpt><trkpt lat="39.29615629792833" lon="9.391676699719783"><ele>522.0</ele><time>2026-04-09T14:52:32.001Z</time></trkpt><trkpt lat="39.29624954705569" lon="9.391739829388984"><ele>527.0</ele><time>2026-04-09T14:52:33.001Z</time></trkpt><trkpt lat="39.296326350194455" lon="9.391814377684282"><ele>532.0</ele><time>2026-04-09T14:52:34.001Z</time></trkpt><trkpt lat="39.29638273255754" lon="9.39189815290111"><ele>537.0</ele><time>2026-04-09T14:52:35.001Z</time></trkpt><trkpt lat="39.29641320833358" lon="9.39199322951901"><ele>537.0</ele><time>2026-04-09T14:52:36.001Z</time></trkpt><trkpt lat="39.296406396777456" lon="9.392079622701015"><ele>537.0</ele><time>2026-04-09T14:52:37.001Z</time></trkpt><trkpt lat="39.29636156694317" lon="9.392149653794075"><ele>537.0</ele><time>2026-04-09T14:52:38.001Z</time></trkpt><trkpt lat="39.296287686676834" lon="9.392181823723904"><ele>537.0</ele><time>2026-04-09T14:52:39.001Z</time></trkpt><trkpt lat="39.296206132612966" lon="9.392176031942602"><ele>537.0</ele><time>2026-04-09T14:52:40.001Z</time></trkpt><trkpt lat="39.296137243334954" lon="9.392180190605998"><ele>537.0</ele><time>2026-04-09T14:52:41.001Z</time></trkpt><trkpt lat="39.296079445987374" lon="9.391998145304404"><ele>537.0</ele><time>2026-04-09T14:52:42.001Z</time></trkpt><trkpt lat="39.29600836474659" lon="9.391899295328063"><ele>537.0</ele><time>2026-04-09T14:52:43.001Z</time></trkpt><trkpt lat="39.29590758541213" lon="9.391828569124295"><ele>537.0</ele><time>2026-04-09T14:52:44.001Z</time></trkpt><trkpt lat="39.29581030122379" lon="9.391755966168235"><ele>537.0</ele><time>2026-04-09T14:52:45.001Z</time></trkpt><trkpt lat="39.29567654868105" lon="9.391766528714378"><ele>540.5</ele><time>2026-04-09T14:52:46.001Z</time></trkpt><trkpt lat="39.29554769471983" lon="9.391740130249573"><ele>544.0</ele><time>2026-04-09T14:52:47.001Z</time></trkpt><trkpt lat="39.29542096713526" lon="9.391721187521874"><ele>547.5</ele><time>2026-04-09T14:52:48.001Z</time></trkpt><trkpt lat="39.29529070395252" lon="9.391676992586865"><ele>551.0</ele><time>2026-04-09T14:52:49.001Z</time></trkpt><trkpt lat="39.29515801246402" lon="9.391631575598373"><ele>551.0</ele><time>2026-04-09T14:52:50.001Z</time></trkpt><trkpt lat="39.295022441845056" lon="9.39158781323359"><ele>551.0</ele><time>2026-04-09T14:52:51.001Z</time></trkpt><trkpt lat="39.29488041698455" lon="9.391540920863138"><ele>551.0</ele><time>2026-04-09T14:52:52.001Z</time></trkpt><trkpt lat="39.294739185620045" lon="9.391503511750514"><ele>551.0</ele><time>2026-04-09T14:52:53.001Z</time></trkpt><trkpt lat="39.294617023649394" lon="9.391431506924302"><ele>553.0</ele><time>2026-04-09T14:52:54.001Z</time></trkpt><trkpt lat="39.294499504672665" lon="9.391372846782032"><ele>555.0</ele><time>2026-04-09T14:52:55.001Z</time></trkpt><trkpt lat="39.2943843763262" lon="9.391345087043508"><ele>557.0</ele><time>2026-04-09T14:52:56.002Z</time></trkpt><trkpt lat="39.294281412522075" lon="9.391309762827545"><ele>559.0</ele><time>2026-04-09T14:52:57.002Z</time></trkpt><trkpt lat="39.2941721135826" lon="9.39130386387589"><ele>559.5</ele><time>2026-04-09T14:52:58.002Z</time></trkpt><trkpt lat="39.29406558488184" lon="9.39130202994645"><ele>560.0</ele><time>2026-04-09T14:52:59.002Z</time></trkpt><trkpt lat="39.293959282357726" lon="9.39125234431553"><ele>560.5</ele><time>2026-04-09T14:53:00.002Z</time></trkpt><trkpt lat="39.293838406223834" lon="9.391195478149355"><ele>561.0</ele><time>2026-04-09T14:53:01.002Z</time></trkpt><trkpt lat="39.29370513851743" lon="9.391132845479527"><ele>561.0</ele><time>2026-04-09T14:53:02.002Z</time></trkpt><trkpt lat="39.29357282561944" lon="9.39105316472687"><ele>561.0</ele><time>2026-04-09T14:53:03.002Z</time></trkpt><trkpt lat="39.2934603133497" lon="9.3909402040336"><ele>561.0</ele><time>2026-04-09T14:53:04.002Z</time></trkpt><trkpt lat="39.29333182601373" lon="9.390851929071797"><ele>561.0</ele><time>2026-04-09T14:53:05.002Z</time></trkpt><trkpt lat="39.29320032633892" lon="9.390781669360019"><ele>569.6666666666666</ele><time>2026-04-09T14:53:06.002Z</time></trkpt><trkpt lat="39.29305242810331" lon="9.39073094410187"><ele>578.3333333333333</ele><time>2026-04-09T14:53:07.002Z</time></trkpt><trkpt lat="39.2929040350555" lon="9.390682497206093"><ele>587.0</ele><time>2026-04-09T14:53:08.002Z</time></trkpt><trkpt lat="39.29276629022964" lon="9.390613527150249"><ele>587.0</ele><time>2026-04-09T14:53:09.002Z</time></trkpt><trkpt lat="39.29263385020955" lon="9.390529452330398"><ele>587.0</ele><time>2026-04-09T14:53:10.002Z</time></trkpt><trkpt lat="39.292508824762606" lon="9.390460372571544"><ele>587.0</ele><time>2026-04-09T14:53:11.002Z</time></trkpt><trkpt lat="39.29240116202415" lon="9.390397307880859"><ele>587.0</ele><time>2026-04-09T14:53:12.002Z</time></trkpt><trkpt lat="39.292315736643836" lon="9.390332210244594"><ele>590.8000000000001</ele><time>2026-04-09T14:53:13.002Z</time></trkpt><trkpt lat="39.29223512549872" lon="9.39024253019539"><ele>594.6</ele><time>2026-04-09T14:53:14.002Z</time></trkpt><trkpt lat="39.292169704583245" lon="9.390130568830648"><ele>598.4000000000001</ele><time>2026-04-09T14:53:15.002Z</time></trkpt><trkpt lat="39.292133797443" lon="9.389999866708626"><ele>602.2</ele><time>2026-04-09T14:53:16.002Z</time></trkpt><trkpt lat="39.29211483340601" lon="9.38984472022107"><ele>606.0</ele><time>2026-04-09T14:53:17.002Z</time></trkpt><trkpt lat="39.29211624257106" lon="9.389687377482169"><ele>604.25</ele><time>2026-04-09T14:53:18.002Z</time></trkpt><trkpt lat="39.29213243765911" lon="9.389546613853652"><ele>602.5</ele><time>2026-04-09T14:53:19.002Z</time></trkpt><trkpt lat="39.29212551356808" lon="9.389408551117082"><ele>600.75</ele><time>2026-04-09T14:53:20.002Z</time></trkpt><trkpt lat="39.292093347598254" lon="9.389267519395174"><ele>599.0</ele><time>2026-04-09T14:53:21.002Z</time></trkpt><trkpt lat="39.29202420155688" lon="9.38911396582165"><ele>599.0</ele><time>2026-04-09T14:53:22.002Z</time></trkpt><trkpt lat="39.29195083719768" lon="9.388937144705205"><ele>599.0</ele><time>2026-04-09T14:53:23.002Z</time></trkpt><trkpt lat="39.29187956383727" lon="9.3887758503364"><ele>599.0</ele><time>2026-04-09T14:53:24.002Z</time></trkpt><trkpt lat="39.29181796360251" lon="9.388617061380694"><ele>599.0</ele><time>2026-04-09T14:53:25.002Z</time></trkpt><trkpt lat="39.29176704129189" lon="9.388462659396026"><ele>598.4</ele><time>2026-04-09T14:53:26.002Z</time></trkpt><trkpt lat="39.29172822751217" lon="9.38831911017593"><ele>597.8</ele><time>2026-04-09T14:53:27.002Z</time></trkpt><trkpt lat="39.29170206898491" lon="9.388185580490708"><ele>597.2</ele><time>2026-04-09T14:53:28.002Z</time></trkpt><trkpt lat="39.29169873836397" lon="9.388053615314014"><ele>596.6</ele><time>2026-04-09T14:53:29.002Z</time></trkpt><trkpt lat="39.29170758253983" lon="9.38791896790164"><ele>596.0</ele><time>2026-04-09T14:53:30.002Z</time></trkpt><trkpt lat="39.29175355160155" lon="9.38778522332182"><ele>597.75</ele><time>2026-04-09T14:53:31Z</time></trkpt><trkpt lat="39.29181331943091" lon="9.387651591432329"><ele>599.5</ele><time>2026-04-09T14:53:32Z</time></trkpt><trkpt lat="39.2919050487777" lon="9.387551397142108"><ele>601.25</ele><time>2026-04-09T14:53:33Z</time></trkpt><trkpt lat="39.29201164302166" lon="9.387487600478778"><ele>603.0</ele><time>2026-04-09T14:53:34Z</time></trkpt><trkpt lat="39.292129068407235" lon="9.387472138807988"><ele>603.0</ele><time>2026-04-09T14:53:35Z</time></trkpt><trkpt lat="39.29222367932039" lon="9.387409377833785"><ele>603.0</ele><time>2026-04-09T14:53:36Z</time></trkpt><trkpt lat="39.29228562136086" lon="9.387341199454992"><ele>603.0</ele><time>2026-04-09T14:53:37Z</time></trkpt><trkpt lat="39.29233265787761" lon="9.38724414020958"><ele>603.0</ele><time>2026-04-09T14:53:38Z</time></trkpt><trkpt lat="39.2923223619311" lon="9.387108446797372"><ele>603.0</ele><time>2026-04-09T14:53:39Z</time></trkpt><trkpt lat="39.2922663221772" lon="9.387004156910677"><ele>607.0</ele><time>2026-04-09T14:53:40Z</time></trkpt><trkpt lat="39.29214980093783" lon="9.386968138698593"><ele>611.0</ele><time>2026-04-09T14:53:41Z</time></trkpt><trkpt lat="39.2920270051823" lon="9.38701194484472"><ele>615.0</ele><time>2026-04-09T14:53:42Z</time></trkpt><trkpt lat="39.29191023459857" lon="9.387076471711811"><ele>619.0</ele><time>2026-04-09T14:53:43Z</time></trkpt><trkpt lat="39.291788874809995" lon="9.387172046247183"><ele>618.5</ele><time>2026-04-09T14:53:44Z</time></trkpt><trkpt lat="39.29165458386281" lon="9.38726789035905"><ele>618.0</ele><time>2026-04-09T14:53:45Z</time></trkpt><trkpt lat="39.29151672656291" lon="9.387345711365079"><ele>617.5</ele><time>2026-04-09T14:53:46Z</time></trkpt><trkpt lat="39.2913901521095" lon="9.387427690393274"><ele>617.0</ele><time>2026-04-09T14:53:47Z</time></trkpt><trkpt lat="39.29126728760488" lon="9.387501871904941"><ele>617.0</ele><time>2026-04-09T14:53:48Z</time></trkpt><trkpt lat="39.29114970008916" lon="9.387580028684985"><ele>617.0</ele><time>2026-04-09T14:53:49Z</time></trkpt><trkpt lat="39.29104450835184" lon="9.387671379027628"><ele>617.0</ele><time>2026-04-09T14:53:50Z</time></trkpt><trkpt lat="39.29095307171148" lon="9.387780731664382"><ele>617.0</ele><time>2026-04-09T14:53:51Z</time></trkpt><trkpt lat="39.29087094995028" lon="9.38789650309196"><ele>617.0</ele><time>2026-04-09T14:53:52Z</time></trkpt><trkpt lat="39.29077877636935" lon="9.387988491994031"><ele>617.0</ele><time>2026-04-09T14:53:53Z</time></trkpt><trkpt lat="39.290694356188695" lon="9.38807575046293"><ele>617.0</ele><time>2026-04-09T14:53:54Z</time></trkpt><trkpt lat="39.290597450484654" lon="9.388117203031713"><ele>617.0</ele><time>2026-04-09T14:53:55Z</time></trkpt><trkpt lat="39.290491742373696" lon="9.388102735270088"><ele>617.0</ele><time>2026-04-09T14:53:56Z</time></trkpt><trkpt lat="39.290378810355634" lon="9.388090367983898"><ele>617.0</ele><time>2026-04-09T14:53:57Z</time></trkpt><trkpt lat="39.29026626462163" lon="9.388069070691058"><ele>617.0</ele><time>2026-04-09T14:53:58Z</time></trkpt><trkpt lat="39.29016951761633" lon="9.388022713348644"><ele>617.0</ele><time>2026-04-09T14:53:59Z</time></trkpt><trkpt lat="39.29009770017015" lon="9.387933134146554"><ele>617.0</ele><time>2026-04-09T14:54:00Z</time></trkpt><trkpt lat="39.29001795035906" lon="9.38782355155917"><ele>617.0</ele><time>2026-04-09T14:54:01Z</time></trkpt><trkpt lat="39.289940043413985" lon="9.387685491389231"><ele>617.0</ele><time>2026-04-09T14:54:02Z</time></trkpt><trkpt lat="39.28987213019341" lon="9.387531634761363"><ele>617.0</ele><time>2026-04-09T14:54:03Z</time></trkpt><trkpt lat="39.28980653277483" lon="9.387366740147302"><ele>617.0</ele><time>2026-04-09T14:54:04Z</time></trkpt><trkpt lat="39.28972251726597" lon="9.387210946097909"><ele>617.0</ele><time>2026-04-09T14:54:05Z</time></trkpt><trkpt lat="39.28960454382633" lon="9.387093821538336"><ele>615.75</ele><time>2026-04-09T14:54:06Z</time></trkpt><trkpt lat="39.28949312541439" lon="9.3869883726533"><ele>614.5</ele><time>2026-04-09T14:54:07Z</time></trkpt><trkpt lat="39.28941346324308" lon="9.386873137763786"><ele>613.25</ele><time>2026-04-09T14:54:08Z</time></trkpt><trkpt lat="39.289362443749276" lon="9.386761998221953"><ele>612.0</ele><time>2026-04-09T14:54:09Z</time></trkpt><trkpt lat="39.289344740816496" lon="9.386641038617613"><ele>612.0</ele><time>2026-04-09T14:54:10Z</time></trkpt><trkpt lat="39.28932736945399" lon="9.38648263826446"><ele>612.0</ele><time>2026-04-09T14:54:11Z</time></trkpt><trkpt lat="39.289307498473555" lon="9.38631874263078"><ele>612.0</ele><time>2026-04-09T14:54:12Z</time></trkpt><trkpt lat="39.28923481243748" lon="9.386181086272948"><ele>612.0</ele><time>2026-04-09T14:54:13Z</time></trkpt><trkpt lat="39.28914817539489" lon="9.386050276733949"><ele>612.5</ele><time>2026-04-09T14:54:14Z</time></trkpt><trkpt lat="39.28904085549681" lon="9.385918094641998"><ele>613.0</ele><time>2026-04-09T14:54:15Z</time></trkpt><trkpt lat="39.28892032475083" lon="9.385807912123097"><ele>613.5</ele><time>2026-04-09T14:54:16.001Z</time></trkpt><trkpt lat="39.288798285238855" lon="9.385689651338929"><ele>614.0</ele><time>2026-04-09T14:54:17.001Z</time></trkpt><trkpt lat="39.28867683956502" lon="9.385575330633543"><ele>616.0</ele><time>2026-04-09T14:54:18.001Z</time></trkpt><trkpt lat="39.28855026154334" lon="9.38547328588116"><ele>618.0</ele><time>2026-04-09T14:54:19.001Z</time></trkpt><trkpt lat="39.28844673850813" lon="9.385330235022703"><ele>620.0</ele><time>2026-04-09T14:54:20.001Z</time></trkpt><trkpt lat="39.28832561141132" lon="9.385210116755406"><ele>620.0</ele><time>2026-04-09T14:54:21.001Z</time></trkpt><trkpt lat="39.28820523541846" lon="9.38509159808837"><ele>620.0</ele><time>2026-04-09T14:54:22.001Z</time></trkpt><trkpt lat="39.28808491178368" lon="9.38497063024964"><ele>620.0</ele><time>2026-04-09T14:54:23.001Z</time></trkpt><trkpt lat="39.28796804759631" lon="9.384850165886172"><ele>620.25</ele><time>2026-04-09T14:54:24.001Z</time></trkpt><trkpt lat="39.28784442599554" lon="9.38476392050688"><ele>620.5</ele><time>2026-04-09T14:54:25.001Z</time></trkpt><trkpt lat="39.28772741045787" lon="9.384721794630684"><ele>620.75</ele><time>2026-04-09T14:54:26.001Z</time></trkpt><trkpt lat="39.287622342503475" lon="9.384723758171058"><ele>621.0</ele><time>2026-04-09T14:54:27.001Z</time></trkpt><trkpt lat="39.28754449567854" lon="9.384831094100338"><ele>621.0</ele><time>2026-04-09T14:54:28.001Z</time></trkpt><trkpt lat="39.28748869752966" lon="9.38495045290841"><ele>621.0</ele><time>2026-04-09T14:54:29.001Z</time></trkpt><trkpt lat="39.28741826177659" lon="9.38508865041461"><ele>621.0</ele><time>2026-04-09T14:54:30.001Z</time></trkpt><trkpt lat="39.28729214294136" lon="9.38517839496784"><ele>621.0</ele><time>2026-04-09T14:54:31.001Z</time></trkpt><trkpt lat="39.28716039198679" lon="9.385253571289208"><ele>624.25</ele><time>2026-04-09T14:54:32.001Z</time></trkpt><trkpt lat="39.28701987601146" lon="9.38532210189421"><ele>627.5</ele><time>2026-04-09T14:54:33.001Z</time></trkpt><trkpt lat="39.286882091276816" lon="9.38536401127725"><ele>630.75</ele><time>2026-04-09T14:54:34.001Z</time></trkpt><trkpt lat="39.28676605345414" lon="9.385397783838075"><ele>634.0</ele><time>2026-04-09T14:54:35.001Z</time></trkpt><trkpt lat="39.286656329693606" lon="9.385431685580526"><ele>634.0</ele><time>2026-04-09T14:54:36.001Z</time></trkpt><trkpt lat="39.28654005941988" lon="9.385474078435061"><ele>634.0</ele><time>2026-04-09T14:54:37.001Z</time></trkpt><trkpt lat="39.28642653393935" lon="9.385521165542313"><ele>634.0</ele><time>2026-04-09T14:54:38.001Z</time></trkpt><trkpt lat="39.28632604050154" lon="9.385574763963094"><ele>634.0</ele><time>2026-04-09T14:54:39.001Z</time></trkpt><trkpt lat="39.2862481575488" lon="9.385652749626411"><ele>634.0</ele><time>2026-04-09T14:54:40.001Z</time></trkpt><trkpt lat="39.28618064532176" lon="9.385747993664955"><ele>633.75</ele><time>2026-04-09T14:54:41.001Z</time></trkpt><trkpt lat="39.28617603065038" lon="9.38590841640453"><ele>633.5</ele><time>2026-04-09T14:54:42.001Z</time></trkpt><trkpt lat="39.28617967367323" lon="9.386076177642796"><ele>633.25</ele><time>2026-04-09T14:54:43.001Z</time></trkpt><trkpt lat="39.28618931690367" lon="9.386277975903763"><ele>633.0</ele><time>2026-04-09T14:54:44.001Z</time></trkpt><trkpt lat="39.28619100525044" lon="9.386459398804972"><ele>633.0</ele><time>2026-04-09T14:54:45.001Z</time></trkpt><trkpt lat="39.28617910548927" lon="9.386635814047914"><ele>633.0</ele><time>2026-04-09T14:54:46.001Z</time></trkpt><trkpt lat="39.28615440313959" lon="9.386792776211488"><ele>633.0</ele><time>2026-04-09T14:54:47.001Z</time></trkpt><trkpt lat="39.28611357735589" lon="9.386929905704188"><ele>633.0</ele><time>2026-04-09T14:54:48.001Z</time></trkpt><trkpt lat="39.28602614940463" lon="9.387023231630325"><ele>633.0</ele><time>2026-04-09T14:54:49.001Z</time></trkpt><trkpt lat="39.28591764393219" lon="9.387115822766207"><ele>633.0</ele><time>2026-04-09T14:54:50.001Z</time></trkpt><trkpt lat="39.28578841936839" lon="9.387213062055656"><ele>633.0</ele><time>2026-04-09T14:54:51.001Z</time></trkpt><trkpt lat="39.285653814880504" lon="9.387295480435284"><ele>633.0</ele><time>2026-04-09T14:54:52.001Z</time></trkpt><trkpt lat="39.28552511834592" lon="9.38734276847328"><ele>630.75</ele><time>2026-04-09T14:54:53.001Z</time></trkpt><trkpt lat="39.28540301910562" lon="9.387380220256887"><ele>628.5</ele><time>2026-04-09T14:54:54.001Z</time></trkpt><trkpt lat="39.28528684337191" lon="9.38739832373666"><ele>626.25</ele><time>2026-04-09T14:54:55.001Z</time></trkpt><trkpt lat="39.28517415135777" lon="9.387393206239086"><ele>624.0</ele><time>2026-04-09T14:54:56.001Z</time></trkpt><trkpt lat="39.285050855225705" lon="9.387377748235009"><ele>624.0</ele><time>2026-04-09T14:54:57.001Z</time></trkpt><trkpt lat="39.28491950955989" lon="9.387357483459585"><ele>624.0</ele><time>2026-04-09T14:54:58.001Z</time></trkpt><trkpt lat="39.28478915227762" lon="9.387336767688492"><ele>624.0</ele><time>2026-04-09T14:54:59.001Z</time></trkpt><trkpt lat="39.284654127086284" lon="9.387321688170159"><ele>624.0</ele><time>2026-04-09T14:55:00.001Z</time></trkpt><trkpt lat="39.2845216289968" lon="9.387345267595004"><ele>623.8</ele><time>2026-04-09T14:55:01.001Z</time></trkpt><trkpt lat="39.28440419512844" lon="9.387364392324612"><ele>623.5999999999999</ele><time>2026-04-09T14:55:02.001Z</time></trkpt><trkpt lat="39.284292866517255" lon="9.387380111538308"><ele>623.4</ele><time>2026-04-09T14:55:03.001Z</time></trkpt><trkpt lat="39.284193022996305" lon="9.387338034632135"><ele>623.1999999999999</ele><time>2026-04-09T14:55:04.002Z</time></trkpt><trkpt lat="39.28411435140557" lon="9.387254056566828"><ele>623.0</ele><time>2026-04-09T14:55:05.002Z</time></trkpt><trkpt lat="39.28401814277762" lon="9.387147085560358"><ele>623.4</ele><time>2026-04-09T14:55:06.002Z</time></trkpt><trkpt lat="39.283908361641316" lon="9.387104805113465"><ele>623.8</ele><time>2026-04-09T14:55:07.002Z</time></trkpt><trkpt lat="39.283813799157905" lon="9.387053832170556"><ele>624.2</ele><time>2026-04-09T14:55:08.002Z</time></trkpt><trkpt lat="39.28371886339453" lon="9.387008323762464"><ele>624.6</ele><time>2026-04-09T14:55:09.002Z</time></trkpt><trkpt lat="39.28360888240195" lon="9.387007634057818"><ele>625.0</ele><time>2026-04-09T14:55:10.002Z</time></trkpt><trkpt lat="39.28349648069715" lon="9.38705371471146"><ele>625.0</ele><time>2026-04-09T14:55:11.002Z</time></trkpt><trkpt lat="39.28337713924416" lon="9.387144263966764"><ele>625.0</ele><time>2026-04-09T14:55:12.002Z</time></trkpt><trkpt lat="39.28323291326562" lon="9.38720263347198"><ele>625.0</ele><time>2026-04-09T14:55:13.002Z</time></trkpt><trkpt lat="39.2830814996968" lon="9.38728455401719"><ele>624.0</ele><time>2026-04-09T14:55:14.002Z</time></trkpt><trkpt lat="39.282925130701045" lon="9.387374926975417"><ele>623.0</ele><time>2026-04-09T14:55:15.002Z</time></trkpt><trkpt lat="39.28276269498974" lon="9.38749132297914"><ele>622.0</ele><time>2026-04-09T14:55:16.002Z</time></trkpt><trkpt lat="39.28259760483185" lon="9.387559483553373"><ele>622.0</ele><time>2026-04-09T14:55:17.002Z</time></trkpt><trkpt lat="39.28243616459458" lon="9.38766483435568"><ele>622.0</ele><time>2026-04-09T14:55:18.002Z</time></trkpt><trkpt lat="39.282258236467456" lon="9.387736235500673"><ele>622.0</ele><time>2026-04-09T14:55:19.002Z</time></trkpt><trkpt lat="39.28209336482266" lon="9.387852189301164"><ele>622.3333333333334</ele><time>2026-04-09T14:55:20.002Z</time></trkpt><trkpt lat="39.28193714430897" lon="9.387962212354314"><ele>622.6666666666666</ele><time>2026-04-09T14:55:21.002Z</time></trkpt><trkpt lat="39.28178371663601" lon="9.388114465049112"><ele>623.0</ele><time>2026-04-09T14:55:22.002Z</time></trkpt><trkpt lat="39.28162550286149" lon="9.38829098599425"><ele>623.0</ele><time>2026-04-09T14:55:23.002Z</time></trkpt><trkpt lat="39.28148463821661" lon="9.388472525916626"><ele>623.0</ele><time>2026-04-09T14:55:24.002Z</time></trkpt><trkpt lat="39.28133692508922" lon="9.388641521786665"><ele>623.0</ele><time>2026-04-09T14:55:25.002Z</time></trkpt><trkpt lat="39.281189142760155" lon="9.38880168528134"><ele>625.0</ele><time>2026-04-09T14:55:26.002Z</time></trkpt><trkpt lat="39.28104365785174" lon="9.388962970514324"><ele>627.0</ele><time>2026-04-09T14:55:27.002Z</time></trkpt><trkpt lat="39.28090703234728" lon="9.389122864720973"><ele>629.0</ele><time>2026-04-09T14:55:28.002Z</time></trkpt><trkpt lat="39.280755033818195" lon="9.389264456942515"><ele>629.0</ele><time>2026-04-09T14:55:29.002Z</time></trkpt><trkpt lat="39.280617007856506" lon="9.389417717354467"><ele>629.0</ele><time>2026-04-09T14:55:30.002Z</time></trkpt><trkpt lat="39.280478280272135" lon="9.389569482035512"><ele>629.0</ele><time>2026-04-09T14:55:31.002Z</time></trkpt><trkpt lat="39.28033874951302" lon="9.389718149772838"><ele>631.3333333333333</ele><time>2026-04-09T14:55:32.002Z</time></trkpt><trkpt lat="39.280210536334565" lon="9.389879794444004"><ele>633.6666666666666</ele><time>2026-04-09T14:55:33.002Z</time></trkpt><trkpt lat="39.28007803712833" lon="9.390021526073905"><ele>636.0</ele><time>2026-04-09T14:55:34.002Z</time></trkpt><trkpt lat="39.27995858080296" lon="9.390149112090976"><ele>636.0</ele><time>2026-04-09T14:55:35.002Z</time></trkpt><trkpt lat="39.27984010667253" lon="9.390249301299663"><ele>636.0</ele><time>2026-04-09T14:55:36.002Z</time></trkpt><trkpt lat="39.27974615226706" lon="9.39037911104319"><ele>636.0</ele><time>2026-04-09T14:55:37Z</time></trkpt><trkpt lat="39.279630565999085" lon="9.390504296657623"><ele>636.0</ele><time>2026-04-09T14:55:38Z</time></trkpt><trkpt lat="39.279515338254406" lon="9.390635667797772"><ele>638.0</ele><time>2026-04-09T14:55:39Z</time></trkpt><trkpt lat="39.27940406313944" lon="9.390777757401192"><ele>640.0</ele><time>2026-04-09T14:55:40Z</time></trkpt><trkpt lat="39.279295134733616" lon="9.390925173071098"><ele>642.0</ele><time>2026-04-09T14:55:41Z</time></trkpt><trkpt lat="39.27918845782519" lon="9.391071685470632"><ele>642.0</ele><time>2026-04-09T14:55:42Z</time></trkpt><trkpt lat="39.2790916263929" lon="9.39121276460831"><ele>642.0</ele><time>2026-04-09T14:55:43Z</time></trkpt><trkpt lat="39.27897827828603" lon="9.391345608032111"><ele>642.0</ele><time>2026-04-09T14:55:44Z</time></trkpt><trkpt lat="39.27887543528365" lon="9.39148359983034"><ele>642.0</ele><time>2026-04-09T14:55:45Z</time></trkpt><trkpt lat="39.27877101421353" lon="9.391616344465143"><ele>644.25</ele><time>2026-04-09T14:55:46Z</time></trkpt><trkpt lat="39.27867330572259" lon="9.391751805430895"><ele>646.5</ele><time>2026-04-09T14:55:47Z</time></trkpt><trkpt lat="39.27857954686323" lon="9.39187118164146"><ele>648.75</ele><time>2026-04-09T14:55:48Z</time></trkpt><trkpt lat="39.27849466621733" lon="9.39198172751252"><ele>651.0</ele><time>2026-04-09T14:55:49Z</time></trkpt><trkpt lat="39.27841897768662" lon="9.39208049947312"><ele>651.0</ele><time>2026-04-09T14:55:50Z</time></trkpt><trkpt lat="39.27832298835608" lon="9.39216589591139"><ele>651.0</ele><time>2026-04-09T14:55:51Z</time></trkpt><trkpt lat="39.27821806263089" lon="9.392260990796565"><ele>651.0</ele><time>2026-04-09T14:55:52Z</time></trkpt><trkpt lat="39.27809286422883" lon="9.392363046007997"><ele>651.0</ele><time>2026-04-09T14:55:53Z</time></trkpt><trkpt lat="39.277942674893666" lon="9.392439672355868"><ele>649.3333333333334</ele><time>2026-04-09T14:55:54Z</time></trkpt><trkpt lat="39.27778118179574" lon="9.392511294028651"><ele>647.6666666666667</ele><time>2026-04-09T14:55:55Z</time></trkpt><trkpt lat="39.277619523712225" lon="9.392573064267472"><ele>646.0</ele><time>2026-04-09T14:55:56Z</time></trkpt><trkpt lat="39.277448615562996" lon="9.392648384061383"><ele>649.3333333333334</ele><time>2026-04-09T14:55:57Z</time></trkpt><trkpt lat="39.277268859290594" lon="9.39273725797573"><ele>652.6666666666666</ele><time>2026-04-09T14:55:58Z</time></trkpt><trkpt lat="39.27709035342242" lon="9.392825222852963"><ele>656.0</ele><time>2026-04-09T14:55:59Z</time></trkpt><trkpt lat="39.276910287396866" lon="9.392908595757191"><ele>656.0</ele><time>2026-04-09T14:56:00Z</time></trkpt><trkpt lat="39.27674216475162" lon="9.392984988101322"><ele>656.0</ele><time>2026-04-09T14:56:01Z</time></trkpt><trkpt lat="39.276590891397454" lon="9.393053724302977"><ele>656.0</ele><time>2026-04-09T14:56:02Z</time></trkpt><trkpt lat="39.27645249864553" lon="9.393120238774463"><ele>653.6666666666666</ele><time>2026-04-09T14:56:03Z</time></trkpt><trkpt lat="39.27631313747022" lon="9.393187800617666"><ele>651.3333333333334</ele><time>2026-04-09T14:56:04Z</time></trkpt><trkpt lat="39.276173884260125" lon="9.393255310154935"><ele>649.0</ele><time>2026-04-09T14:56:05Z</time></trkpt><trkpt lat="39.276028500800436" lon="9.393325999301824"><ele>649.0</ele><time>2026-04-09T14:56:06Z</time></trkpt><trkpt lat="39.27588418416494" lon="9.393396374650765"><ele>649.0</ele><time>2026-04-09T14:56:07Z</time></trkpt><trkpt lat="39.275746894272515" lon="9.393463947668899"><ele>649.0</ele><time>2026-04-09T14:56:08Z</time></trkpt><trkpt lat="39.275623313823374" lon="9.393525636521197"><ele>649.0</ele><time>2026-04-09T14:56:09Z</time></trkpt><trkpt lat="39.27551329941563" lon="9.393582215484814"><ele>651.0</ele><time>2026-04-09T14:56:10Z</time></trkpt><trkpt lat="39.27542102352434" lon="9.393661890767994"><ele>653.0</ele><time>2026-04-09T14:56:11Z</time></trkpt><trkpt lat="39.27534240040243" lon="9.39375320900383"><ele>655.0</ele><time>2026-04-09T14:56:12Z</time></trkpt><trkpt lat="39.2752880515613" lon="9.39389758847689"><ele>657.0</ele><time>2026-04-09T14:56:13Z</time></trkpt><trkpt lat="39.27523726223335" lon="9.394051584187105"><ele>657.0</ele><time>2026-04-09T14:56:14Z</time></trkpt><trkpt lat="39.27519060474759" lon="9.394201960750433"><ele>657.0</ele><time>2026-04-09T14:56:15Z</time></trkpt><trkpt lat="39.275192593165926" lon="9.394367335438526"><ele>657.0</ele><time>2026-04-09T14:56:16.001Z</time></trkpt><trkpt lat="39.275205008774925" lon="9.39453660223483"><ele>657.0</ele><time>2026-04-09T14:56:17.001Z</time></trkpt><trkpt lat="39.27521889357416" lon="9.394721173232227"><ele>657.6</ele><time>2026-04-09T14:56:18.001Z</time></trkpt><trkpt lat="39.27523912445083" lon="9.394898285740487"><ele>658.2</ele><time>2026-04-09T14:56:19.001Z</time></trkpt><trkpt lat="39.27525236922544" lon="9.395048135150233"><ele>658.8</ele><time>2026-04-09T14:56:20.001Z</time></trkpt><trkpt lat="39.275262631813625" lon="9.395171110373797"><ele>659.4</ele><time>2026-04-09T14:56:21.001Z</time></trkpt><trkpt lat="39.27526668259681" lon="9.395281604330776"><ele>660.0</ele><time>2026-04-09T14:56:22.001Z</time></trkpt><trkpt lat="39.27526477555375" lon="9.395390436954681"><ele>660.0</ele><time>2026-04-09T14:56:23.001Z</time></trkpt><trkpt lat="39.27524820587184" lon="9.395491402578756"><ele>660.0</ele><time>2026-04-09T14:56:24.001Z</time></trkpt><trkpt lat="39.27522217871745" lon="9.395586821610157"><ele>660.0</ele><time>2026-04-09T14:56:25.001Z</time></trkpt><trkpt lat="39.27518536400517" lon="9.39568425033515"><ele>660.0</ele><time>2026-04-09T14:56:26.001Z</time></trkpt><trkpt lat="39.27513785993247" lon="9.395782936116783"><ele>660.0</ele><time>2026-04-09T14:56:27.001Z</time></trkpt><trkpt lat="39.27508341034405" lon="9.39588366330523"><ele>660.0</ele><time>2026-04-09T14:56:28.001Z</time></trkpt><trkpt lat="39.27502491990584" lon="9.395991228050402"><ele>660.0</ele><time>2026-04-09T14:56:29.001Z</time></trkpt><trkpt lat="39.274964801592326" lon="9.396098317620183"><ele>660.0</ele><time>2026-04-09T14:56:30.001Z</time></trkpt><trkpt lat="39.27489670305997" lon="9.396201922300563"><ele>660.0</ele><time>2026-04-09T14:56:31.001Z</time></trkpt><trkpt lat="39.27482399253157" lon="9.396318207701922"><ele>660.0</ele><time>2026-04-09T14:56:32.001Z</time></trkpt><trkpt lat="39.274710677671415" lon="9.396389685652235"><ele>660.0</ele><time>2026-04-09T14:56:33.001Z</time></trkpt><trkpt lat="39.27456400727948" lon="9.396382364271432"><ele>658.6666666666666</ele><time>2026-04-09T14:56:34.001Z</time></trkpt><trkpt lat="39.27440728183583" lon="9.396421950004644"><ele>657.3333333333333</ele><time>2026-04-09T14:56:35.001Z</time></trkpt><trkpt lat="39.27424098019684" lon="9.396463954433177"><ele>656.0</ele><time>2026-04-09T14:56:36.001Z</time></trkpt><trkpt lat="39.2740695089926" lon="9.39652824437468"><ele>656.3333333333333</ele><time>2026-04-09T14:56:37.001Z</time></trkpt><trkpt lat="39.27388217651508" lon="9.396568260336668"><ele>656.6666666666666</ele><time>2026-04-09T14:56:38.001Z</time></trkpt><trkpt lat="39.2737139764546" lon="9.396585758870884"><ele>657.0</ele><time>2026-04-09T14:56:39.001Z</time></trkpt><trkpt lat="39.27356131089903" lon="9.396623902376334"><ele>657.0</ele><time>2026-04-09T14:56:40.001Z</time></trkpt><trkpt lat="39.27341766481791" lon="9.396663020350532"><ele>657.0</ele><time>2026-04-09T14:56:41.001Z</time></trkpt><trkpt lat="39.27328228118959" lon="9.396710810491369"><ele>657.0</ele><time>2026-04-09T14:56:42.001Z</time></trkpt><trkpt lat="39.27315993094293" lon="9.396798025939042"><ele>657.0</ele><time>2026-04-09T14:56:43.001Z</time></trkpt><trkpt lat="39.27302578241675" lon="9.396865860422942"><ele>658.5</ele><time>2026-04-09T14:56:44.001Z</time></trkpt><trkpt lat="39.27289295497086" lon="9.396905721228709"><ele>660.0</ele><time>2026-04-09T14:56:45.001Z</time></trkpt><trkpt lat="39.2727737314281" lon="9.39695530265541"><ele>661.5</ele><time>2026-04-09T14:56:46.001Z</time></trkpt><trkpt lat="39.27266242139348" lon="9.39700469351129"><ele>663.0</ele><time>2026-04-09T14:56:47.001Z</time></trkpt><trkpt lat="39.27256277703547" lon="9.397048908079348"><ele>663.0</ele><time>2026-04-09T14:56:48.001Z</time></trkpt><trkpt lat="39.272470990821375" lon="9.397103216067466"><ele>663.0</ele><time>2026-04-09T14:56:49.001Z</time></trkpt><trkpt lat="39.27237743064151" lon="9.397118559441141"><ele>663.0</ele><time>2026-04-09T14:56:50.001Z</time></trkpt><trkpt lat="39.272294837188014" lon="9.397135918296508"><ele>663.0</ele><time>2026-04-09T14:56:51.001Z</time></trkpt><trkpt lat="39.27221286895997" lon="9.39715048388262"><ele>663.0</ele><time>2026-04-09T14:56:52.001Z</time></trkpt><trkpt lat="39.27212649553654" lon="9.397136510748794"><ele>663.0</ele><time>2026-04-09T14:56:53.001Z</time></trkpt><trkpt lat="39.27203788405909" lon="9.397081554719678"><ele>661.75</ele><time>2026-04-09T14:56:54.001Z</time></trkpt><trkpt lat="39.27193718645328" lon="9.39697829117581"><ele>660.5</ele><time>2026-04-09T14:56:55.001Z</time></trkpt><trkpt lat="39.271825370813325" lon="9.39685661826028"><ele>659.25</ele><time>2026-04-09T14:56:56.001Z</time></trkpt><trkpt lat="39.2717099470472" lon="9.396721897327627"><ele>658.0</ele><time>2026-04-09T14:56:57.001Z</time></trkpt><trkpt lat="39.271610742324086" lon="9.39657439184788"><ele>658.0</ele><time>2026-04-09T14:56:58.001Z</time></trkpt><trkpt lat="39.27151190696646" lon="9.396459848107275"><ele>658.0</ele><time>2026-04-09T14:56:59.001Z</time></trkpt><trkpt lat="39.27141826579883" lon="9.396368447032021"><ele>658.0</ele><time>2026-04-09T14:57:00.001Z</time></trkpt><trkpt lat="39.27133321541307" lon="9.39630947543839"><ele>658.0</ele><time>2026-04-09T14:57:01.001Z</time></trkpt><trkpt lat="39.271226926888055" lon="9.396329736655957"><ele>659.8</ele><time>2026-04-09T14:57:02.001Z</time></trkpt><trkpt lat="39.27112675087867" lon="9.396407547356413"><ele>661.5999999999999</ele><time>2026-04-09T14:57:03.001Z</time></trkpt><trkpt lat="39.271038230060746" lon="9.396492147372816"><ele>663.4000000000001</ele><time>2026-04-09T14:57:04.002Z</time></trkpt><trkpt lat="39.27096930690505" lon="9.396591965884417"><ele>665.2</ele><time>2026-04-09T14:57:05.002Z</time></trkpt><trkpt lat="39.27091875835544" lon="9.396691672966755"><ele>667.0</ele><time>2026-04-09T14:57:06.002Z</time></trkpt><trkpt lat="39.27092223436271" lon="9.39685152318807"><ele>667.0</ele><time>2026-04-09T14:57:07.002Z</time></trkpt><trkpt lat="39.270908700255816" lon="9.397033325964806"><ele>667.0</ele><time>2026-04-09T14:57:08.002Z</time></trkpt><trkpt lat="39.27089823286337" lon="9.397219998695205"><ele>667.0</ele><time>2026-04-09T14:57:09.002Z</time></trkpt><trkpt lat="39.27085842716665" lon="9.397392579621625"><ele>667.0</ele><time>2026-04-09T14:57:10.002Z</time></trkpt><trkpt lat="39.27081112673533" lon="9.39756176537448"><ele>665.75</ele><time>2026-04-09T14:57:11.002Z</time></trkpt><trkpt lat="39.2707579143269" lon="9.397728451550508"><ele>664.5</ele><time>2026-04-09T14:57:12.002Z</time></trkpt><trkpt lat="39.2707002611652" lon="9.397881154856924"><ele>663.25</ele><time>2026-04-09T14:57:13.002Z</time></trkpt><trkpt lat="39.27063959650498" lon="9.398006507055793"><ele>662.0</ele><time>2026-04-09T14:57:14.002Z</time></trkpt><trkpt lat="39.270569015855905" lon="9.39809557444617"><ele>662.0</ele><time>2026-04-09T14:57:15.002Z</time></trkpt><trkpt lat="39.270482572761836" lon="9.39814650410361"><ele>662.0</ele><time>2026-04-09T14:57:16.002Z</time></trkpt><trkpt lat="39.27038166735954" lon="9.398193909048267"><ele>662.0</ele><time>2026-04-09T14:57:17.002Z</time></trkpt><trkpt lat="39.270270352411394" lon="9.398249224896208"><ele>662.0</ele><time>2026-04-09T14:57:18.002Z</time></trkpt><trkpt lat="39.27014352590969" lon="9.398257960792723"><ele>662.0</ele><time>2026-04-09T14:57:19.002Z</time></trkpt><trkpt lat="39.27002920721165" lon="9.398197849236293"><ele>662.0</ele><time>2026-04-09T14:57:20.002Z</time></trkpt><trkpt lat="39.26991784519493" lon="9.398137984244562"><ele>662.0</ele><time>2026-04-09T14:57:21.002Z</time></trkpt><trkpt lat="39.26980045059078" lon="9.398093356666543"><ele>662.0</ele><time>2026-04-09T14:57:22.002Z</time></trkpt><trkpt lat="39.269684525744346" lon="9.39809999998423"><ele>662.0</ele><time>2026-04-09T14:57:23.002Z</time></trkpt><trkpt lat="39.26957672762048" lon="9.3981638256431"><ele>663.0</ele><time>2026-04-09T14:57:24.002Z</time></trkpt><trkpt lat="39.26946733581071" lon="9.398222427485157"><ele>664.0</ele><time>2026-04-09T14:57:25.002Z</time></trkpt><trkpt lat="39.26936183682705" lon="9.39822679543001"><ele>665.0</ele><time>2026-04-09T14:57:26.002Z</time></trkpt><trkpt lat="39.26928428246829" lon="9.398194014041973"><ele>666.0</ele><time>2026-04-09T14:57:27.002Z</time></trkpt><trkpt lat="39.269190639367885" lon="9.398181181763702"><ele>667.0</ele><time>2026-04-09T14:57:28.002Z</time></trkpt><trkpt lat="39.269077632282595" lon="9.398174495676209"><ele>667.0</ele><time>2026-04-09T14:57:29.002Z</time></trkpt><trkpt lat="39.268955481987085" lon="9.398211698655647"><ele>667.0</ele><time>2026-04-09T14:57:30.002Z</time></trkpt><trkpt lat="39.26882927000475" lon="9.398275085354559"><ele>667.0</ele><time>2026-04-09T14:57:31.002Z</time></trkpt><trkpt lat="39.26870445107349" lon="9.398333105058468"><ele>667.0</ele><time>2026-04-09T14:57:32.002Z</time></trkpt><trkpt lat="39.26859255801948" lon="9.39837976248525"><ele>669.75</ele><time>2026-04-09T14:57:33.002Z</time></trkpt><trkpt lat="39.2684884369617" lon="9.398413504821159"><ele>672.5</ele><time>2026-04-09T14:57:34.002Z</time></trkpt><trkpt lat="39.2683777724274" lon="9.398430144297244"><ele>675.25</ele><time>2026-04-09T14:57:35.002Z</time></trkpt><trkpt lat="39.268258424890305" lon="9.39843789969884"><ele>678.0</ele><time>2026-04-09T14:57:36.002Z</time></trkpt><trkpt lat="39.268135580636844" lon="9.398447076527011"><ele>680.0</ele><time>2026-04-09T14:57:37.002Z</time></trkpt><trkpt lat="39.268014663297734" lon="9.398456109430564"><ele>682.0</ele><time>2026-04-09T14:57:38.002Z</time></trkpt><trkpt lat="39.267890089849956" lon="9.398465415384495"><ele>684.0</ele><time>2026-04-09T14:57:39.002Z</time></trkpt><trkpt lat="39.267755887055706" lon="9.39847544073752"><ele>686.0</ele><time>2026-04-09T14:57:40.002Z</time></trkpt><trkpt lat="39.26759883762672" lon="9.398487172778882"><ele>686.0</ele><time>2026-04-09T14:57:41.002Z</time></trkpt><trkpt lat="39.267437595239265" lon="9.398499218035228"><ele>686.0</ele><time>2026-04-09T14:57:42.002Z</time></trkpt><trkpt lat="39.26728084030749" lon="9.398509715166695"><ele>686.0</ele><time>2026-04-09T14:57:43Z</time></trkpt><trkpt lat="39.26712897272442" lon="9.398517813164034"><ele>686.0</ele><time>2026-04-09T14:57:44Z</time></trkpt><trkpt lat="39.266991032583775" lon="9.398516854874998"><ele>686.0</ele><time>2026-04-09T14:57:45Z</time></trkpt><trkpt lat="39.266871931038054" lon="9.398495557133275"><ele>686.0</ele><time>2026-04-09T14:57:46Z</time></trkpt><trkpt lat="39.266737039850874" lon="9.398467227022971"><ele>686.0</ele><time>2026-04-09T14:57:47Z</time></trkpt><trkpt lat="39.266591756661455" lon="9.398437610206322"><ele>686.0</ele><time>2026-04-09T14:57:48Z</time></trkpt><trkpt lat="39.26645010318601" lon="9.398421593167193"><ele>686.0</ele><time>2026-04-09T14:57:49Z</time></trkpt><trkpt lat="39.266310979586386" lon="9.398453255424037"><ele>686.0</ele><time>2026-04-09T14:57:50Z</time></trkpt><trkpt lat="39.266167643563804" lon="9.398494742391835"><ele>686.0</ele><time>2026-04-09T14:57:51Z</time></trkpt><trkpt lat="39.26599865192321" lon="9.398573822983616"><ele>688.6666666666666</ele><time>2026-04-09T14:57:52Z</time></trkpt><trkpt lat="39.26578608770075" lon="9.398672908795055"><ele>691.3333333333334</ele><time>2026-04-09T14:57:53Z</time></trkpt><trkpt lat="39.26558510419297" lon="9.398740284863502"><ele>694.0</ele><time>2026-04-09T14:57:54Z</time></trkpt><trkpt lat="39.265416176682336" lon="9.398754963824947"><ele>695.25</ele><time>2026-04-09T14:57:55Z</time></trkpt><trkpt lat="39.26527877904454" lon="9.39878737920546"><ele>696.5</ele><time>2026-04-09T14:57:56Z</time></trkpt><trkpt lat="39.26516021819196" lon="9.398801008481733"><ele>697.75</ele><time>2026-04-09T14:57:57Z</time></trkpt><trkpt lat="39.265048179585065" lon="9.398807571383806"><ele>699.0</ele><time>2026-04-09T14:57:58Z</time></trkpt><trkpt lat="39.26494393273757" lon="9.398788539975223"><ele>699.0</ele><time>2026-04-09T14:57:59Z</time></trkpt><trkpt lat="39.26485065343843" lon="9.3987118232536"><ele>699.0</ele><time>2026-04-09T14:58:00Z</time></trkpt><trkpt lat="39.26471686357164" lon="9.398643427630475"><ele>699.0</ele><time>2026-04-09T14:58:01Z</time></trkpt><trkpt lat="39.26456622206498" lon="9.39862913278962"><ele>699.0</ele><time>2026-04-09T14:58:02Z</time></trkpt><trkpt lat="39.26442276237309" lon="9.398626851556672"><ele>698.8000000000001</ele><time>2026-04-09T14:58:03Z</time></trkpt><trkpt lat="39.26430971633794" lon="9.398646289645253"><ele>698.6</ele><time>2026-04-09T14:58:04Z</time></trkpt><trkpt lat="39.26421746503746" lon="9.398647247652995"><ele>698.4</ele><time>2026-04-09T14:58:05.001Z</time></trkpt><trkpt lat="39.264146237510445" lon="9.398590037918341"><ele>698.2</ele><time>2026-04-09T14:58:06.001Z</time></trkpt><trkpt lat="39.26408206522643" lon="9.398522317592757"><ele>698.0</ele><time>2026-04-09T14:58:07.001Z</time></trkpt><trkpt lat="39.263992988047086" lon="9.398442453924796"><ele>697.75</ele><time>2026-04-09T14:58:08.001Z</time></trkpt><trkpt lat="39.26389647241023" lon="9.398382162947696"><ele>697.5</ele><time>2026-04-09T14:58:09.001Z</time></trkpt><trkpt lat="39.26378223792292" lon="9.398378647163783"><ele>697.25</ele><time>2026-04-09T14:58:10.001Z</time></trkpt><trkpt lat="39.26366014203495" lon="9.398395933097653"><ele>697.0</ele><time>2026-04-09T14:58:11.001Z</time></trkpt><trkpt lat="39.26352125036168" lon="9.398400858809264"><ele>697.0</ele><time>2026-04-09T14:58:12.001Z</time></trkpt><trkpt lat="39.2633852694584" lon="9.398406637230018"><ele>697.0</ele><time>2026-04-09T14:58:13.001Z</time></trkpt><trkpt lat="39.26326639975281" lon="9.398387614337587"><ele>697.0</ele><time>2026-04-09T14:58:14.001Z</time></trkpt><trkpt lat="39.26314611855966" lon="9.398352574830717"><ele>697.0</ele><time>2026-04-09T14:58:15.001Z</time></trkpt><trkpt lat="39.26302703793472" lon="9.398316329998492"><ele>697.0</ele><time>2026-04-09T14:58:16.001Z</time></trkpt><trkpt lat="39.26289963474016" lon="9.398298412167282"><ele>697.0</ele><time>2026-04-09T14:58:17.001Z</time></trkpt><trkpt lat="39.26277476028329" lon="9.398260113737237"><ele>697.0</ele><time>2026-04-09T14:58:18.001Z</time></trkpt><trkpt lat="39.26263037696283" lon="9.398282121309265"><ele>697.0</ele><time>2026-04-09T14:58:19.001Z</time></trkpt><trkpt lat="39.26248869535761" lon="9.39830860515126"><ele>697.0</ele><time>2026-04-09T14:58:20.001Z</time></trkpt><trkpt lat="39.26234607535547" lon="9.398335264370843"><ele>697.0</ele><time>2026-04-09T14:58:21.001Z</time></trkpt><trkpt lat="39.26221692312786" lon="9.398355391097326"><ele>697.0</ele><time>2026-04-09T14:58:22.001Z</time></trkpt><trkpt lat="39.26209602044577" lon="9.398359094567208"><ele>697.0</ele><time>2026-04-09T14:58:23.001Z</time></trkpt><trkpt lat="39.261972673918045" lon="9.39834211271767"><ele>697.5</ele><time>2026-04-09T14:58:24.001Z</time></trkpt><trkpt lat="39.261849041407594" lon="9.398309564497493"><ele>698.0</ele><time>2026-04-09T14:58:25.001Z</time></trkpt><trkpt lat="39.26171689210406" lon="9.398278145507579"><ele>698.5</ele><time>2026-04-09T14:58:26.001Z</time></trkpt><trkpt lat="39.261582320667706" lon="9.398249732143164"><ele>699.0</ele><time>2026-04-09T14:58:27.001Z</time></trkpt><trkpt lat="39.26144789977977" lon="9.398276184662015"><ele>701.3333333333334</ele><time>2026-04-09T14:58:28.001Z</time></trkpt><trkpt lat="39.261304937781524" lon="9.398308557902677"><ele>703.6666666666667</ele><time>2026-04-09T14:58:29.001Z</time></trkpt><trkpt lat="39.26115055841355" lon="9.398321347218577"><ele>706.0</ele><time>2026-04-09T14:58:30.001Z</time></trkpt><trkpt lat="39.26099664487479" lon="9.398352138128237"><ele>706.0</ele><time>2026-04-09T14:58:31.001Z</time></trkpt><trkpt lat="39.26085034034486" lon="9.398377771603991"><ele>706.0</ele><time>2026-04-09T14:58:32.001Z</time></trkpt><trkpt lat="39.26070853050102" lon="9.398398285744074"><ele>706.0</ele><time>2026-04-09T14:58:33.001Z</time></trkpt><trkpt lat="39.260575364688684" lon="9.398401501322486"><ele>706.0</ele><time>2026-04-09T14:58:34.001Z</time></trkpt><trkpt lat="39.260441458808465" lon="9.398390649037255"><ele>707.75</ele><time>2026-04-09T14:58:35.001Z</time></trkpt><trkpt lat="39.26030822023887" lon="9.398379374028787"><ele>709.5</ele><time>2026-04-09T14:58:36.001Z</time></trkpt><trkpt lat="39.260172098647615" lon="9.398366865218966"><ele>711.25</ele><time>2026-04-09T14:58:37.001Z</time></trkpt><trkpt lat="39.26003549199623" lon="9.398337428885332"><ele>713.0</ele><time>2026-04-09T14:58:38.001Z</time></trkpt><trkpt lat="39.259900571564" lon="9.398289153150222"><ele>715.5</ele><time>2026-04-09T14:58:39.001Z</time></trkpt><trkpt lat="39.25976822534854" lon="9.398242809401575"><ele>718.0</ele><time>2026-04-09T14:58:40.001Z</time></trkpt><trkpt lat="39.25964401164801" lon="9.39820409829339"><ele>720.5</ele><time>2026-04-09T14:58:41.001Z</time></trkpt><trkpt lat="39.25952455973557" lon="9.39818577281675"><ele>723.0</ele><time>2026-04-09T14:58:42.001Z</time></trkpt><trkpt lat="39.25939436936813" lon="9.398212834479079"><ele>723.0</ele><time>2026-04-09T14:58:43.001Z</time></trkpt><trkpt lat="39.2592607823447" lon="9.398286917168452"><ele>723.0</ele><time>2026-04-09T14:58:44.001Z</time></trkpt><trkpt lat="39.259119836897035" lon="9.398356457001563"><ele>723.0</ele><time>2026-04-09T14:58:45.001Z</time></trkpt><trkpt lat="39.25897470171318" lon="9.398427401915836"><ele>728.6666666666666</ele><time>2026-04-09T14:58:46.001Z</time></trkpt><trkpt lat="39.258826157824764" lon="9.398496449877918"><ele>734.3333333333333</ele><time>2026-04-09T14:58:47.001Z</time></trkpt><trkpt lat="39.258678434452186" lon="9.398565114598663"><ele>740.0</ele><time>2026-04-09T14:58:48.001Z</time></trkpt><trkpt lat="39.25852649750663" lon="9.398635737666764"><ele>740.0</ele><time>2026-04-09T14:58:49.001Z</time></trkpt><trkpt lat="39.25837597944073" lon="9.398705701397528"><ele>740.0</ele><time>2026-04-09T14:58:50.001Z</time></trkpt><trkpt lat="39.25823452906504" lon="9.398806560963173"><ele>740.0</ele><time>2026-04-09T14:58:51.001Z</time></trkpt><trkpt lat="39.25809624954955" lon="9.398868727862668"><ele>738.25</ele><time>2026-04-09T14:58:52.001Z</time></trkpt><trkpt lat="39.25796543354459" lon="9.398929027597418"><ele>736.5</ele><time>2026-04-09T14:58:53.001Z</time></trkpt><trkpt lat="39.257828803522614" lon="9.398985441946126"><ele>734.75</ele><time>2026-04-09T14:58:54.001Z</time></trkpt><trkpt lat="39.25768665335654" lon="9.39903735857702"><ele>733.0</ele><time>2026-04-09T14:58:55.001Z</time></trkpt><trkpt lat="39.257545376655536" lon="9.399086662686349"><ele>733.0</ele><time>2026-04-09T14:58:56.001Z</time></trkpt><trkpt lat="39.25740295119022" lon="9.399133464786328"><ele>733.0</ele><time>2026-04-09T14:58:57.001Z</time></trkpt><trkpt lat="39.2572699551677" lon="9.399182970097726"><ele>733.0</ele><time>2026-04-09T14:58:58.001Z</time></trkpt><trkpt lat="39.257151141766556" lon="9.399227415639064"><ele>733.0</ele><time>2026-04-09T14:58:59.001Z</time></trkpt><trkpt lat="39.25704963726502" lon="9.399261066427714"><ele>735.0</ele><time>2026-04-09T14:59:00.001Z</time></trkpt><trkpt lat="39.25695193454384" lon="9.399272843914405"><ele>737.0</ele><time>2026-04-09T14:59:01.001Z</time></trkpt><trkpt lat="39.25682632535207" lon="9.399253272514024"><ele>739.0</ele><time>2026-04-09T14:59:02.001Z</time></trkpt><trkpt lat="39.25669251849831" lon="9.399229786706634"><ele>741.0</ele><time>2026-04-09T14:59:03.002Z</time></trkpt><trkpt lat="39.256547643917514" lon="9.399218674158238"><ele>744.0</ele><time>2026-04-09T14:59:04.002Z</time></trkpt><trkpt lat="39.25639457188453" lon="9.399231218388856"><ele>747.0</ele><time>2026-04-09T14:59:05.002Z</time></trkpt><trkpt lat="39.25623853367856" lon="9.399257978796873"><ele>750.0</ele><time>2026-04-09T14:59:06.002Z</time></trkpt><trkpt lat="39.25608351852107" lon="9.399302626865001"><ele>750.0</ele><time>2026-04-09T14:59:07.002Z</time></trkpt><trkpt lat="39.25593580404011" lon="9.39936191698715"><ele>750.0</ele><time>2026-04-09T14:59:08.002Z</time></trkpt><trkpt lat="39.255786734762154" lon="9.399418878697395"><ele>750.0</ele><time>2026-04-09T14:59:09.002Z</time></trkpt><trkpt lat="39.255648586691834" lon="9.39947087840093"><ele>750.2</ele><time>2026-04-09T14:59:10.002Z</time></trkpt><trkpt lat="39.25553194992408" lon="9.399516269900118"><ele>750.4</ele><time>2026-04-09T14:59:11.002Z</time></trkpt><trkpt lat="39.25542734177226" lon="9.399559319048564"><ele>750.5999999999999</ele><time>2026-04-09T14:59:12.002Z</time></trkpt><trkpt lat="39.25532686039065" lon="9.399603887882911"><ele>750.8</ele><time>2026-04-09T14:59:13.002Z</time></trkpt><trkpt lat="39.25522141139309" lon="9.399650288773813"><ele>751.0</ele><time>2026-04-09T14:59:14.002Z</time></trkpt><trkpt lat="39.25511055952863" lon="9.399698707655256"><ele>750.0</ele><time>2026-04-09T14:59:15.002Z</time></trkpt><trkpt lat="39.25499480793356" lon="9.399742295107473"><ele>749.0</ele><time>2026-04-09T14:59:16.002Z</time></trkpt><trkpt lat="39.25488274843782" lon="9.39977024023396"><ele>748.0</ele><time>2026-04-09T14:59:17.002Z</time></trkpt><trkpt lat="39.25477144708341" lon="9.39976679482579"><ele>747.0</ele><time>2026-04-09T14:59:18.002Z</time></trkpt><trkpt lat="39.25466902809951" lon="9.399732162745119"><ele>745.75</ele><time>2026-04-09T14:59:19.002Z</time></trkpt><trkpt lat="39.25457281854683" lon="9.399651300087449"><ele>744.5</ele><time>2026-04-09T14:59:20.002Z</time></trkpt><trkpt lat="39.25448689599432" lon="9.399540211490002"><ele>743.25</ele><time>2026-04-09T14:59:21.002Z</time></trkpt><trkpt lat="39.254422385700856" lon="9.399401051166555"><ele>742.0</ele><time>2026-04-09T14:59:22.002Z</time></trkpt><trkpt lat="39.25439132271973" lon="9.399232326184366"><ele>742.0</ele><time>2026-04-09T14:59:23.002Z</time></trkpt><trkpt lat="39.25439287552909" lon="9.399032319602147"><ele>742.0</ele><time>2026-04-09T14:59:24.002Z</time></trkpt><trkpt lat="39.25441623406585" lon="9.398818965715648"><ele>742.0</ele><time>2026-04-09T14:59:25.002Z</time></trkpt><trkpt lat="39.25442785207162" lon="9.398629302616955"><ele>741.8</ele><time>2026-04-09T14:59:26.002Z</time></trkpt><trkpt lat="39.2544315030983" lon="9.398473470831517"><ele>741.6</ele><time>2026-04-09T14:59:27.002Z</time></trkpt><trkpt lat="39.25443324862885" lon="9.398325812102593"><ele>741.4</ele><time>2026-04-09T14:59:28.002Z</time></trkpt><trkpt lat="39.25443400050725" lon="9.398181849670502"><ele>741.1999999999999</ele><time>2026-04-09T14:59:29.002Z</time></trkpt><trkpt lat="39.25441633512711" lon="9.398052618052363"><ele>741.0</ele><time>2026-04-09T14:59:30.002Z</time></trkpt><trkpt lat="39.25436701568898" lon="9.39794558997536"><ele>741.0</ele><time>2026-04-09T14:59:31.002Z</time></trkpt><trkpt lat="39.2542790006376" lon="9.397882682342615"><ele>741.0</ele><time>2026-04-09T14:59:32.002Z</time></trkpt><trkpt lat="39.25418432732729" lon="9.397837576656112"><ele>741.0</ele><time>2026-04-09T14:59:33.002Z</time></trkpt><trkpt lat="39.254083439923484" lon="9.39779016816881"><ele>741.0</ele><time>2026-04-09T14:59:34.002Z</time></trkpt><trkpt lat="39.253991646307085" lon="9.397728318363242"><ele>741.0</ele><time>2026-04-09T14:59:35.002Z</time></trkpt><trkpt lat="39.25392228047235" lon="9.397639750822437"><ele>737.5</ele><time>2026-04-09T14:59:36.002Z</time></trkpt><trkpt lat="39.25388603825616" lon="9.39752441154068"><ele>734.0</ele><time>2026-04-09T14:59:37.002Z</time></trkpt><trkpt lat="39.25388810907895" lon="9.397374638222194"><ele>730.5</ele><time>2026-04-09T14:59:38.002Z</time></trkpt><trkpt lat="39.25392269106359" lon="9.397201579083626"><ele>727.0</ele><time>2026-04-09T14:59:39.002Z</time></trkpt><trkpt lat="39.25395291387767" lon="9.397039604375648"><ele>727.0</ele><time>2026-04-09T14:59:40.002Z</time></trkpt><trkpt lat="39.25397292990668" lon="9.396896150353864"><ele>727.0</ele><time>2026-04-09T14:59:41.002Z</time></trkpt><trkpt lat="39.25397332994956" lon="9.396761055292771"><ele>727.0</ele><time>2026-04-09T14:59:42.002Z</time></trkpt><trkpt lat="39.25394820953057" lon="9.396631172375669"><ele>727.0</ele><time>2026-04-09T14:59:43.002Z</time></trkpt><trkpt lat="39.25388463949739" lon="9.396520227040348"><ele>727.0</ele><time>2026-04-09T14:59:44.002Z</time></trkpt><trkpt lat="39.25378596622517" lon="9.396418953345082"><ele>726.75</ele><time>2026-04-09T14:59:45.002Z</time></trkpt><trkpt lat="39.25367039784183" lon="9.396320019893848"><ele>726.5</ele><time>2026-04-09T14:59:46.002Z</time></trkpt><trkpt lat="39.25355408107962" lon="9.396242051012049"><ele>726.25</ele><time>2026-04-09T14:59:47.002Z</time></trkpt><trkpt lat="39.25343484702642" lon="9.39619759630883"><ele>726.0</ele><time>2026-04-09T14:59:48.002Z</time></trkpt><trkpt lat="39.25331533200523" lon="9.396193514117979"><ele>726.0</ele><time>2026-04-09T14:59:49.001Z</time></trkpt><trkpt lat="39.253194142206944" lon="9.396202270150768"><ele>726.0</ele><time>2026-04-09T14:59:50.001Z</time></trkpt><trkpt lat="39.25307773880678" lon="9.396281836029445"><ele>726.0</ele><time>2026-04-09T14:59:51.001Z</time></trkpt><trkpt lat="39.25296642484119" lon="9.396391491448844"><ele>726.0</ele><time>2026-04-09T14:59:52.001Z</time></trkpt><trkpt lat="39.25285999610378" lon="9.396498090843929"><ele>724.1999999999999</ele><time>2026-04-09T14:59:53.001Z</time></trkpt><trkpt lat="39.252758299804015" lon="9.39658316016934"><ele>722.4</ele><time>2026-04-09T14:59:54.001Z</time></trkpt><trkpt lat="39.25265535686212" lon="9.396628446126902"><ele>720.6</ele><time>2026-04-09T14:59:55.001Z</time></trkpt><trkpt lat="39.252564554820204" lon="9.396604590703284"><ele>718.8</ele><time>2026-04-09T14:59:56.001Z</time></trkpt><trkpt lat="39.25246716603129" lon="9.396566845702464"><ele>717.0</ele><time>2026-04-09T14:59:57.001Z</time></trkpt><trkpt lat="39.25236391811965" lon="9.396524650244325"><ele>717.4000000000001</ele><time>2026-04-09T14:59:58.001Z</time></trkpt><trkpt lat="39.25226129610474" lon="9.396480963075621"><ele>717.8000000000001</ele><time>2026-04-09T14:59:59.001Z</time></trkpt><trkpt lat="39.25217595589745" lon="9.396443132135841"><ele>718.2</ele><time>2026-04-09T15:00:00.001Z</time></trkpt><trkpt lat="39.25209706484007" lon="9.396407364249267"><ele>718.6</ele><time>2026-04-09T15:00:01.001Z</time></trkpt><trkpt lat="39.25202295696909" lon="9.39640525891038"><ele>719.0</ele><time>2026-04-09T15:00:02.001Z</time></trkpt><trkpt lat="39.25191725024616" lon="9.396379375718913"><ele>719.0</ele><time>2026-04-09T15:00:04.001Z</time></trkpt><trkpt lat="39.25189019096501" lon="9.396508517524873"><ele>719.0</ele><time>2026-04-09T15:00:05.001Z</time></trkpt><trkpt lat="39.251952252534316" lon="9.396674755816125"><ele>719.0</ele><time>2026-04-09T15:00:07.001Z</time></trkpt><trkpt lat="39.25203767463782" lon="9.396750354264693"><ele>719.0</ele><time>2026-04-09T15:00:08.001Z</time></trkpt><trkpt lat="39.25214788215276" lon="9.396851891945316"><ele>719.0</ele><time>2026-04-09T15:00:09.001Z</time></trkpt><trkpt lat="39.252273781751704" lon="9.396915742837063"><ele>719.0</ele><time>2026-04-09T15:00:10.001Z</time></trkpt><trkpt lat="39.25237535117693" lon="9.396993470431307"><ele>719.0</ele><time>2026-04-09T15:00:11.001Z</time></trkpt><trkpt lat="39.25246596118421" lon="9.397066716243948"><ele>719.0</ele><time>2026-04-09T15:00:12.001Z</time></trkpt><trkpt lat="39.252537207718994" lon="9.397138526500262"><ele>717.3333333333333</ele><time>2026-04-09T15:00:13.001Z</time></trkpt><trkpt lat="39.252582989732346" lon="9.3972152647935"><ele>715.6666666666666</ele><time>2026-04-09T15:00:14.001Z</time></trkpt><trkpt lat="39.25259783146552" lon="9.39729995150034"><ele>714.0</ele><time>2026-04-09T15:00:15.001Z</time></trkpt><trkpt lat="39.25251912991379" lon="9.39740619133113"><ele>712.3333333333334</ele><time>2026-04-09T15:00:17.001Z</time></trkpt><trkpt lat="39.252444574821894" lon="9.397342368490056"><ele>710.6666666666667</ele><time>2026-04-09T15:00:18.001Z</time></trkpt><trkpt lat="39.25235979542794" lon="9.397301195101807"><ele>709.0</ele><time>2026-04-09T15:00:19.001Z</time></trkpt><trkpt lat="39.25226098516099" lon="9.397275107282553"><ele>708.8000000000001</ele><time>2026-04-09T15:00:20.001Z</time></trkpt><trkpt lat="39.25216224031915" lon="9.397282083352906"><ele>708.6</ele><time>2026-04-09T15:00:21.001Z</time></trkpt><trkpt lat="39.25208231829981" lon="9.397335684050653"><ele>708.4</ele><time>2026-04-09T15:00:22.001Z</time></trkpt><trkpt lat="39.2519922512825" lon="9.39739376901778"><ele>708.2</ele><time>2026-04-09T15:00:23.001Z</time></trkpt><trkpt lat="39.2518992729916" lon="9.39745587139863"><ele>708.0</ele><time>2026-04-09T15:00:24.001Z</time></trkpt><trkpt lat="39.251807675017346" lon="9.397502189067577"><ele>708.0</ele><time>2026-04-09T15:00:25.001Z</time></trkpt><trkpt lat="39.25172747649815" lon="9.397543590666986"><ele>708.0</ele><time>2026-04-09T15:00:26.001Z</time></trkpt><trkpt lat="39.251672815256995" lon="9.397585861559241"><ele>708.0</ele><time>2026-04-09T15:00:27.001Z</time></trkpt><trkpt lat="39.25161923822276" lon="9.397700158691757"><ele>708.0</ele><time>2026-04-09T15:00:29.001Z</time></trkpt><trkpt lat="39.25167025817437" lon="9.397767912550561"><ele>708.0</ele><time>2026-04-09T15:00:30.001Z</time></trkpt><trkpt lat="39.25175790388576" lon="9.397722594668577"><ele>708.0</ele><time>2026-04-09T15:00:31.001Z</time></trkpt><trkpt lat="39.25182537465535" lon="9.397677543428426"><ele>708.0</ele><time>2026-04-09T15:00:32.001Z</time></trkpt><trkpt lat="39.251900944619656" lon="9.397629792866711"><ele>708.0</ele><time>2026-04-09T15:00:33.001Z</time></trkpt><trkpt lat="39.251991137909364" lon="9.397599187196874"><ele>708.0</ele><time>2026-04-09T15:00:34.001Z</time></trkpt><trkpt lat="39.252089220035614" lon="9.397592914415803"><ele>708.0</ele><time>2026-04-09T15:00:35.001Z</time></trkpt><trkpt lat="39.25217515807384" lon="9.397608823551984"><ele>708.0</ele><time>2026-04-09T15:00:36.001Z</time></trkpt><trkpt lat="39.25224847278793" lon="9.397637530969153"><ele>708.0</ele><time>2026-04-09T15:00:37.001Z</time></trkpt><trkpt lat="39.25231281313888" lon="9.397753031364319"><ele>708.1666666666666</ele><time>2026-04-09T15:00:39.001Z</time></trkpt><trkpt lat="39.25233019400773" lon="9.397850403781511"><ele>708.3333333333334</ele><time>2026-04-09T15:00:40.001Z</time></trkpt><trkpt lat="39.252319189152864" lon="9.3979744934901"><ele>708.5</ele><time>2026-04-09T15:00:41.001Z</time></trkpt><trkpt lat="39.25231268447741" lon="9.398085356554867"><ele>708.6666666666667</ele><time>2026-04-09T15:00:42.001Z</time></trkpt><trkpt lat="39.252344639151396" lon="9.398183110366372"><ele>708.8333333333334</ele><time>2026-04-09T15:00:43.001Z</time></trkpt><trkpt lat="39.25241465170641" lon="9.39825689714855"><ele>709.0</ele><time>2026-04-09T15:00:44.001Z</time></trkpt><trkpt lat="39.25249356304335" lon="9.398313647267726"><ele>706.4000000000001</ele><time>2026-04-09T15:00:45.001Z</time></trkpt><trkpt lat="39.25254401430521" lon="9.398373717835039"><ele>703.8</ele><time>2026-04-09T15:00:46.001Z</time></trkpt><trkpt lat="39.252535228598774" lon="9.398532650642258"><ele>701.2</ele><time>2026-04-09T15:00:48.001Z</time></trkpt><trkpt lat="39.25246117917116" lon="9.398628870530171"><ele>698.5999999999999</ele><time>2026-04-09T15:00:49.001Z</time></trkpt><trkpt lat="39.252387484208555" lon="9.39872628149834"><ele>696.0</ele><time>2026-04-09T15:00:50.001Z</time></trkpt><trkpt lat="39.2523427415958" lon="9.398833805124031"><ele>695.0</ele><time>2026-04-09T15:00:51.001Z</time></trkpt><trkpt lat="39.2523165646909" lon="9.39895678091923"><ele>694.0</ele><time>2026-04-09T15:00:52.001Z</time></trkpt><trkpt lat="39.25230679112072" lon="9.399103353138626"><ele>693.0</ele><time>2026-04-09T15:00:53.001Z</time></trkpt><trkpt lat="39.252303496074944" lon="9.399250329745154"><ele>692.0</ele><time>2026-04-09T15:00:54.001Z</time></trkpt><trkpt lat="39.25231123056322" lon="9.399389774573521"><ele>691.0</ele><time>2026-04-09T15:00:55.001Z</time></trkpt><trkpt lat="39.25233681320986" lon="9.39952205516503"><ele>691.0</ele><time>2026-04-09T15:00:56.001Z</time></trkpt><trkpt lat="39.25238614101782" lon="9.399647401077152"><ele>691.0</ele><time>2026-04-09T15:00:57.001Z</time></trkpt><trkpt lat="39.252441548632426" lon="9.399783804566212"><ele>691.0</ele><time>2026-04-09T15:00:58.001Z</time></trkpt><trkpt lat="39.25247775097806" lon="9.399927792248384"><ele>691.0</ele><time>2026-04-09T15:00:59.001Z</time></trkpt><trkpt lat="39.25249545533134" lon="9.400070780470758"><ele>688.25</ele><time>2026-04-09T15:01:00.001Z</time></trkpt><trkpt lat="39.2525012304431" lon="9.40021389780145"><ele>685.5</ele><time>2026-04-09T15:01:01.001Z</time></trkpt><trkpt lat="39.252495515493344" lon="9.400358675579037"><ele>682.75</ele><time>2026-04-09T15:01:02.001Z</time></trkpt><trkpt lat="39.252474878050364" lon="9.400506369076094"><ele>680.0</ele><time>2026-04-09T15:01:03.001Z</time></trkpt><trkpt lat="39.25244640875589" lon="9.400660961807391"><ele>678.75</ele><time>2026-04-09T15:01:04.001Z</time></trkpt><trkpt lat="39.25242932664957" lon="9.400825236912604"><ele>677.5</ele><time>2026-04-09T15:01:05.001Z</time></trkpt><trkpt lat="39.25242479914932" lon="9.400995871753116"><ele>676.25</ele><time>2026-04-09T15:01:06.001Z</time></trkpt><trkpt lat="39.25242380993211" lon="9.401172287889182"><ele>675.0</ele><time>2026-04-09T15:01:07.001Z</time></trkpt><trkpt lat="39.25241547433994" lon="9.401354516792944"><ele>674.75</ele><time>2026-04-09T15:01:08.001Z</time></trkpt><trkpt lat="39.252400868554055" lon="9.401536595772491"><ele>674.5</ele><time>2026-04-09T15:01:09.001Z</time></trkpt><trkpt lat="39.25238950113049" lon="9.401710397801477"><ele>674.25</ele><time>2026-04-09T15:01:10.001Z</time></trkpt><trkpt lat="39.25238235980947" lon="9.401877247484421"><ele>674.0</ele><time>2026-04-09T15:01:11.001Z</time></trkpt><trkpt lat="39.25238162969578" lon="9.402038699038254"><ele>671.75</ele><time>2026-04-09T15:01:12.002Z</time></trkpt><trkpt lat="39.252382772276945" lon="9.402198918935852"><ele>669.5</ele><time>2026-04-09T15:01:13.002Z</time></trkpt><trkpt lat="39.252382980407305" lon="9.402354376002148"><ele>667.25</ele><time>2026-04-09T15:01:14.002Z</time></trkpt><trkpt lat="39.25237595569667" lon="9.402507644947077"><ele>665.0</ele><time>2026-04-09T15:01:15.002Z</time></trkpt><trkpt lat="39.25236826813173" lon="9.402654405234857"><ele>665.0</ele><time>2026-04-09T15:01:16.002Z</time></trkpt><trkpt lat="39.25238468360282" lon="9.402790682294748"><ele>665.0</ele><time>2026-04-09T15:01:17.002Z</time></trkpt><trkpt lat="39.252441666486305" lon="9.402903720042703"><ele>665.0</ele><time>2026-04-09T15:01:18.002Z</time></trkpt><trkpt lat="39.25253521959477" lon="9.402997545546764"><ele>665.0</ele><time>2026-04-09T15:01:19.002Z</time></trkpt><trkpt lat="39.25265110740948" lon="9.403089521624283"><ele>661.0</ele><time>2026-04-09T15:01:20.002Z</time></trkpt><trkpt lat="39.25276894020969" lon="9.403195495741409"><ele>657.0</ele><time>2026-04-09T15:01:21.002Z</time></trkpt><trkpt lat="39.25288756844654" lon="9.40331429369579"><ele>653.0</ele><time>2026-04-09T15:01:22.002Z</time></trkpt><trkpt lat="39.25300687653617" lon="9.403433342254516"><ele>649.0</ele><time>2026-04-09T15:01:23.002Z</time></trkpt><trkpt lat="39.253110627098486" lon="9.403556348399361"><ele>650.4000000000001</ele><time>2026-04-09T15:01:24.002Z</time></trkpt><trkpt lat="39.25321783977034" lon="9.403642461027518"><ele>651.8</ele><time>2026-04-09T15:01:25.002Z</time></trkpt><trkpt lat="39.25330866462365" lon="9.403697493313956"><ele>653.2</ele><time>2026-04-09T15:01:26.002Z</time></trkpt><trkpt lat="39.253372255805054" lon="9.403767002054053"><ele>654.5999999999999</ele><time>2026-04-09T15:01:27.002Z</time></trkpt><trkpt lat="39.25341283542427" lon="9.403843659911178"><ele>656.0</ele><time>2026-04-09T15:01:28.002Z</time></trkpt><trkpt lat="39.25337167586842" lon="9.403995257647754"><ele>656.0</ele><time>2026-04-09T15:01:30.002Z</time></trkpt><trkpt lat="39.2532826830694" lon="9.404030164787503"><ele>656.0</ele><time>2026-04-09T15:01:31.002Z</time></trkpt><trkpt lat="39.253184950868786" lon="9.404095832714962"><ele>656.0</ele><time>2026-04-09T15:01:32.002Z</time></trkpt><trkpt lat="39.25307537279983" lon="9.404177213518365"><ele>656.0</ele><time>2026-04-09T15:01:33.002Z</time></trkpt><trkpt lat="39.252970745683925" lon="9.404270789348367"><ele>652.25</ele><time>2026-04-09T15:01:34.002Z</time></trkpt><trkpt lat="39.25289144690796" lon="9.404412782629665"><ele>648.5</ele><time>2026-04-09T15:01:35.002Z</time></trkpt><trkpt lat="39.25279688661013" lon="9.404563007481094"><ele>644.75</ele><time>2026-04-09T15:01:36.002Z</time></trkpt><trkpt lat="39.25271131205304" lon="9.404727108554018"><ele>641.0</ele><time>2026-04-09T15:01:37.002Z</time></trkpt><trkpt lat="39.25263030858274" lon="9.404897055752182"><ele>641.0</ele><time>2026-04-09T15:01:38.002Z</time></trkpt><trkpt lat="39.25256003008072" lon="9.405056860271094"><ele>641.0</ele><time>2026-04-09T15:01:39.002Z</time></trkpt><trkpt lat="39.25250759187869" lon="9.405204714647784"><ele>641.0</ele><time>2026-04-09T15:01:40.002Z</time></trkpt><trkpt lat="39.252480011454416" lon="9.405340842896546"><ele>641.0</ele><time>2026-04-09T15:01:41.002Z</time></trkpt><trkpt lat="39.252479782915614" lon="9.405463362649968"><ele>639.8</ele><time>2026-04-09T15:01:42.002Z</time></trkpt><trkpt lat="39.25249899259269" lon="9.405578944490028"><ele>638.5999999999999</ele><time>2026-04-09T15:01:43.002Z</time></trkpt><trkpt lat="39.252593145534725" lon="9.40565864478136"><ele>637.4</ele><time>2026-04-09T15:01:44.002Z</time></trkpt><trkpt lat="39.25267957709339" lon="9.405722305436523"><ele>636.2</ele><time>2026-04-09T15:01:45.002Z</time></trkpt><trkpt lat="39.25274637878727" lon="9.405784705975403"><ele>635.0</ele><time>2026-04-09T15:01:46.002Z</time></trkpt><trkpt lat="39.25277810420044" lon="9.405862736542607"><ele>635.0</ele><time>2026-04-09T15:01:47.002Z</time></trkpt><trkpt lat="39.25277744346811" lon="9.405957215989734"><ele>635.0</ele><time>2026-04-09T15:01:48.002Z</time></trkpt><trkpt lat="39.25276494632506" lon="9.40608499350777"><ele>635.0</ele><time>2026-04-09T15:01:49.002Z</time></trkpt><trkpt lat="39.252759227388715" lon="9.406233351974265"><ele>635.0</ele><time>2026-04-09T15:01:50.002Z</time></trkpt><trkpt lat="39.252750234171586" lon="9.406401727621684"><ele>635.0</ele><time>2026-04-09T15:01:51.002Z</time></trkpt><trkpt lat="39.25272434231077" lon="9.406592095994972"><ele>632.0</ele><time>2026-04-09T15:01:52.002Z</time></trkpt><trkpt lat="39.25268989342565" lon="9.406781414559905"><ele>629.0</ele><time>2026-04-09T15:01:53.002Z</time></trkpt><trkpt lat="39.25266174628888" lon="9.406954970074432"><ele>626.0</ele><time>2026-04-09T15:01:54.002Z</time></trkpt><trkpt lat="39.25263814346722" lon="9.40712787889067"><ele>623.0</ele><time>2026-04-09T15:01:55.001Z</time></trkpt><trkpt lat="39.25261857505809" lon="9.407298142695423"><ele>622.6</ele><time>2026-04-09T15:01:56.001Z</time></trkpt><trkpt lat="39.25259996329393" lon="9.407449463729165"><ele>622.1999999999999</ele><time>2026-04-09T15:01:57.001Z</time></trkpt><trkpt lat="39.252579323810465" lon="9.407587368370304"><ele>621.8</ele><time>2026-04-09T15:01:58.001Z</time></trkpt><trkpt lat="39.25254902105" lon="9.407704716561408"><ele>621.4</ele><time>2026-04-09T15:01:59.001Z</time></trkpt><trkpt lat="39.252482220133516" lon="9.407789036114714"><ele>621.0</ele><time>2026-04-09T15:02:00.001Z</time></trkpt><trkpt lat="39.25242706096527" lon="9.407880548227475"><ele>621.0</ele><time>2026-04-09T15:02:01.001Z</time></trkpt><trkpt lat="39.252368500902406" lon="9.407970555872923"><ele>621.0</ele><time>2026-04-09T15:02:02.001Z</time></trkpt><trkpt lat="39.252312692750934" lon="9.408069733289029"><ele>621.0</ele><time>2026-04-09T15:02:03.001Z</time></trkpt><trkpt lat="39.252242883122776" lon="9.408175524634807"><ele>621.0</ele><time>2026-04-09T15:02:04.001Z</time></trkpt><trkpt lat="39.25216187853282" lon="9.408282021963565"><ele>621.0</ele><time>2026-04-09T15:02:05.001Z</time></trkpt><trkpt lat="39.252069354386286" lon="9.408376257981153"><ele>618.4</ele><time>2026-04-09T15:02:06.001Z</time></trkpt><trkpt lat="39.251962688274084" lon="9.408449766524951"><ele>615.8</ele><time>2026-04-09T15:02:07.001Z</time></trkpt><trkpt lat="39.2518541697767" lon="9.408503035661662"><ele>613.1999999999999</ele><time>2026-04-09T15:02:08.001Z</time></trkpt><trkpt lat="39.251748127669764" lon="9.40853843663958"><ele>610.6</ele><time>2026-04-09T15:02:09.001Z</time></trkpt><trkpt lat="39.25165055963315" lon="9.408564810979115"><ele>608.0</ele><time>2026-04-09T15:02:10.001Z</time></trkpt><trkpt lat="39.25157254466986" lon="9.408600253412429"><ele>608.0</ele><time>2026-04-09T15:02:11.001Z</time></trkpt><trkpt lat="39.25150630299842" lon="9.408665688993054"><ele>608.0</ele><time>2026-04-09T15:02:12.001Z</time></trkpt><trkpt lat="39.25147004462771" lon="9.408757393531015"><ele>608.0</ele><time>2026-04-09T15:02:13.001Z</time></trkpt><trkpt lat="39.25144799748206" lon="9.408854314961042"><ele>608.0</ele><time>2026-04-09T15:02:14.001Z</time></trkpt><trkpt lat="39.251450457081795" lon="9.408955956808885"><ele>608.0</ele><time>2026-04-09T15:02:15.001Z</time></trkpt><trkpt lat="39.25148400222325" lon="9.40905072560147"><ele>608.0</ele><time>2026-04-09T15:02:16.001Z</time></trkpt><trkpt lat="39.2515424215951" lon="9.40913030497715"><ele>608.0</ele><time>2026-04-09T15:02:17.001Z</time></trkpt><trkpt lat="39.25162343532897" lon="9.409204323365847"><ele>608.0</ele><time>2026-04-09T15:02:18.001Z</time></trkpt><trkpt lat="39.25171716176723" lon="9.409268229810655"><ele>608.0</ele><time>2026-04-09T15:02:19.001Z</time></trkpt><trkpt lat="39.25180185665786" lon="9.40932036888213"><ele>608.0</ele><time>2026-04-09T15:02:20.001Z</time></trkpt><trkpt lat="39.25187025470946" lon="9.40937608211106"><ele>608.0</ele><time>2026-04-09T15:02:21.001Z</time></trkpt><trkpt lat="39.251904322593774" lon="9.409458323350188"><ele>608.0</ele><time>2026-04-09T15:02:22.001Z</time></trkpt><trkpt lat="39.25189710177604" lon="9.409551765250022"><ele>608.0</ele><time>2026-04-09T15:02:23.001Z</time></trkpt><trkpt lat="39.251851987068655" lon="9.409635371534806"><ele>608.0</ele><time>2026-04-09T15:02:24.001Z</time></trkpt><trkpt lat="39.25177665640662" lon="9.409726078467873"><ele>608.0</ele><time>2026-04-09T15:02:25.001Z</time></trkpt><trkpt lat="39.25170295745309" lon="9.409831962536096"><ele>608.0</ele><time>2026-04-09T15:02:26.001Z</time></trkpt><trkpt lat="39.251625971529336" lon="9.409919099698492"><ele>606.75</ele><time>2026-04-09T15:02:27.001Z</time></trkpt><trkpt lat="39.25157360769563" lon="9.410026616161028"><ele>605.5</ele><time>2026-04-09T15:02:28.001Z</time></trkpt><trkpt lat="39.251543782743056" lon="9.410159714864129"><ele>604.25</ele><time>2026-04-09T15:02:29.001Z</time></trkpt><trkpt lat="39.25156873519295" lon="9.410322984880356"><ele>603.0</ele><time>2026-04-09T15:02:30.001Z</time></trkpt><trkpt lat="39.25154539367766" lon="9.410470401718133"><ele>602.6</ele><time>2026-04-09T15:02:31.001Z</time></trkpt><trkpt lat="39.251474740864566" lon="9.410582068801437"><ele>602.1999999999999</ele><time>2026-04-09T15:02:32.001Z</time></trkpt><trkpt lat="39.25142383622081" lon="9.410699102488264"><ele>601.8</ele><time>2026-04-09T15:02:33.001Z</time></trkpt><trkpt lat="39.25138072734011" lon="9.410788039064808"><ele>601.4</ele><time>2026-04-09T15:02:34.001Z</time></trkpt><trkpt lat="39.251397495687016" lon="9.410903805382464"><ele>601.0</ele><time>2026-04-09T15:02:35.001Z</time></trkpt><trkpt lat="39.25146296164513" lon="9.41100940583726"><ele>601.0</ele><time>2026-04-09T15:02:36.001Z</time></trkpt><trkpt lat="39.25151302415109" lon="9.411126830094394"><ele>601.0</ele><time>2026-04-09T15:02:37.001Z</time></trkpt><trkpt lat="39.25153966575661" lon="9.411258834533118"><ele>601.0</ele><time>2026-04-09T15:02:38.001Z</time></trkpt><trkpt lat="39.251537101754806" lon="9.411397987497525"><ele>601.0</ele><time>2026-04-09T15:02:39.001Z</time></trkpt><trkpt lat="39.25151739300318" lon="9.411534364155155"><ele>601.0</ele><time>2026-04-09T15:02:40.001Z</time></trkpt><trkpt lat="39.251452076267014" lon="9.411642224551127"><ele>595.8</ele><time>2026-04-09T15:02:41.001Z</time></trkpt><trkpt lat="39.251414633907686" lon="9.411759707608207"><ele>590.6</ele><time>2026-04-09T15:02:42.001Z</time></trkpt><trkpt lat="39.251385707493256" lon="9.411885001293157"><ele>585.4</ele><time>2026-04-09T15:02:43.001Z</time></trkpt><trkpt lat="39.2513869831782" lon="9.412031940561077"><ele>580.2</ele><time>2026-04-09T15:02:44.001Z</time></trkpt><trkpt lat="39.251382313739306" lon="9.412185439976502"><ele>575.0</ele><time>2026-04-09T15:02:45.001Z</time></trkpt><trkpt lat="39.251378733264076" lon="9.412346021914535"><ele>573.5</ele><time>2026-04-09T15:02:46.001Z</time></trkpt><trkpt lat="39.251374008795175" lon="9.412507831504676"><ele>572.0</ele><time>2026-04-09T15:02:47.001Z</time></trkpt><trkpt lat="39.25136959397607" lon="9.412665058629056"><ele>570.5</ele><time>2026-04-09T15:02:48.001Z</time></trkpt><trkpt lat="39.251366603345126" lon="9.412819539923852"><ele>569.0</ele><time>2026-04-09T15:02:49.001Z</time></trkpt><trkpt lat="39.251354510273615" lon="9.41294778006107"><ele>568.6</ele><time>2026-04-09T15:02:50.001Z</time></trkpt><trkpt lat="39.25131996245777" lon="9.413049798581056"><ele>568.2</ele><time>2026-04-09T15:02:51.001Z</time></trkpt><trkpt lat="39.25123816502687" lon="9.413103304646905"><ele>567.8000000000001</ele><time>2026-04-09T15:02:52.001Z</time></trkpt><trkpt lat="39.251160661106304" lon="9.413154046638255"><ele>567.4</ele><time>2026-04-09T15:02:53.001Z</time></trkpt><trkpt lat="39.25108451495694" lon="9.413220552252897"><ele>567.0</ele><time>2026-04-09T15:02:54.001Z</time></trkpt><trkpt lat="39.25100511028106" lon="9.413328287303544"><ele>567.0</ele><time>2026-04-09T15:02:55.001Z</time></trkpt><trkpt lat="39.25095247371746" lon="9.413486398015253"><ele>567.0</ele><time>2026-04-09T15:02:56.001Z</time></trkpt><trkpt lat="39.250916991708934" lon="9.41364665179982"><ele>567.0</ele><time>2026-04-09T15:02:57.001Z</time></trkpt><trkpt lat="39.25090557651724" lon="9.413806873709095"><ele>567.0</ele><time>2026-04-09T15:02:58.001Z</time></trkpt><trkpt lat="39.25091473005927" lon="9.413965730816637"><ele>566.6</ele><time>2026-04-09T15:02:59.001Z</time></trkpt><trkpt lat="39.250948301351315" lon="9.414102341489917"><ele>566.2</ele><time>2026-04-09T15:03:00.001Z</time></trkpt><trkpt lat="39.2510258676921" lon="9.41418012732932"><ele>565.8</ele><time>2026-04-09T15:03:01.001Z</time></trkpt><trkpt lat="39.25108712348745" lon="9.4142473420591"><ele>565.4</ele><time>2026-04-09T15:03:02.001Z</time></trkpt><trkpt lat="39.25118151298789" lon="9.414217211688117"><ele>565.0</ele><time>2026-04-09T15:03:03.001Z</time></trkpt><trkpt lat="39.251264759159305" lon="9.414181453496598"><ele>565.0</ele><time>2026-04-09T15:03:04.001Z</time></trkpt><trkpt lat="39.251352214758334" lon="9.41414668674207"><ele>565.0</ele><time>2026-04-09T15:03:05.001Z</time></trkpt><trkpt lat="39.25144480468183" lon="9.414138524212214"><ele>565.0</ele><time>2026-04-09T15:03:06.001Z</time></trkpt><trkpt lat="39.25152341993585" lon="9.414170500087847"><ele>565.0</ele><time>2026-04-09T15:03:07.001Z</time></trkpt><trkpt lat="39.25158525162807" lon="9.414245412794237"><ele>565.0</ele><time>2026-04-09T15:03:08.001Z</time></trkpt><trkpt lat="39.25165129925334" lon="9.414335377879237"><ele>565.0</ele><time>2026-04-09T15:03:09.001Z</time></trkpt><trkpt lat="39.251720341130856" lon="9.41441112345484"><ele>565.3333333333334</ele><time>2026-04-09T15:03:10.001Z</time></trkpt><trkpt lat="39.25178797530154" lon="9.414473982802944"><ele>565.6666666666667</ele><time>2026-04-09T15:03:11.001Z</time></trkpt><trkpt lat="39.251864710283506" lon="9.41446745432652"><ele>566.0</ele><time>2026-04-09T15:03:12.001Z</time></trkpt><trkpt lat="39.25192019142877" lon="9.414390042208767"><ele>566.3333333333334</ele><time>2026-04-09T15:03:13.001Z</time></trkpt><trkpt lat="39.25196124039228" lon="9.414299128577161"><ele>566.6666666666666</ele><time>2026-04-09T15:03:14.001Z</time></trkpt><trkpt lat="39.251990801109244" lon="9.414156060800279"><ele>567.0</ele><time>2026-04-09T15:03:15.001Z</time></trkpt><trkpt lat="39.25204745046788" lon="9.414024399587072"><ele>567.0</ele><time>2026-04-09T15:03:16.001Z</time></trkpt><trkpt lat="39.25212739355289" lon="9.413896533792686"><ele>567.0</ele><time>2026-04-09T15:03:17.001Z</time></trkpt><trkpt lat="39.252183547063034" lon="9.413765413478597"><ele>567.0</ele><time>2026-04-09T15:03:18.001Z</time></trkpt><trkpt lat="39.252245636925956" lon="9.413649817902547"><ele>567.0</ele><time>2026-04-09T15:03:19.001Z</time></trkpt><trkpt lat="39.25231267334788" lon="9.413531445365338"><ele>565.0</ele><time>2026-04-09T15:03:20.001Z</time></trkpt><trkpt lat="39.25234912901762" lon="9.413403389669375"><ele>563.0</ele><time>2026-04-09T15:03:21.001Z</time></trkpt><trkpt lat="39.252356029910125" lon="9.413269932596071"><ele>561.0</ele><time>2026-04-09T15:03:22.001Z</time></trkpt><trkpt lat="39.252360656667086" lon="9.413174312703243"><ele>559.0</ele><time>2026-04-09T15:03:23.001Z</time></trkpt><trkpt lat="39.25236863304993" lon="9.413058079611835"><ele>557.0</ele><time>2026-04-09T15:03:25.001Z</time></trkpt><trkpt lat="39.25242042700146" lon="9.41320514557334"><ele>557.0</ele><time>2026-04-09T15:03:29.001Z</time></trkpt><trkpt lat="39.252422095462016" lon="9.413346935114243"><ele>557.0</ele><time>2026-04-09T15:03:30.002Z</time></trkpt><trkpt lat="39.25242386182096" lon="9.413506245131275"><ele>557.0</ele><time>2026-04-09T15:03:31.002Z</time></trkpt><trkpt lat="39.25241647244442" lon="9.41366869900033"><ele>557.0</ele><time>2026-04-09T15:03:32.002Z</time></trkpt><trkpt lat="39.25239782653034" lon="9.41382485232321"><ele>559.0</ele><time>2026-04-09T15:03:33.002Z</time></trkpt><trkpt lat="39.252312636398955" lon="9.413934419028076"><ele>561.0</ele><time>2026-04-09T15:03:34.002Z</time></trkpt><trkpt lat="39.25227289822378" lon="9.414054470901803"><ele>563.0</ele><time>2026-04-09T15:03:35.002Z</time></trkpt><trkpt lat="39.252267301369685" lon="9.414179454702941"><ele>565.0</ele><time>2026-04-09T15:03:36.002Z</time></trkpt><trkpt lat="39.2522661927399" lon="9.414285670515081"><ele>567.0</ele><time>2026-04-09T15:03:37.002Z</time></trkpt><trkpt lat="39.25229860734514" lon="9.414383231990929"><ele>562.0</ele><time>2026-04-09T15:03:38.002Z</time></trkpt><trkpt lat="39.25233968807101" lon="9.414517215443205"><ele>557.0</ele><time>2026-04-09T15:03:39.002Z</time></trkpt><trkpt lat="39.25232764509112" lon="9.414633388465125"><ele>552.0</ele><time>2026-04-09T15:03:40.002Z</time></trkpt><trkpt lat="39.25231310573312" lon="9.414756131446232"><ele>547.0</ele><time>2026-04-09T15:03:41.002Z</time></trkpt><trkpt lat="39.25228697403833" lon="9.414886103251485"><ele>542.0</ele><time>2026-04-09T15:03:42.002Z</time></trkpt><trkpt lat="39.25225404017448" lon="9.415011891687394"><ele>542.0</ele><time>2026-04-09T15:03:43.002Z</time></trkpt><trkpt lat="39.252219519745516" lon="9.415129232948498"><ele>542.0</ele><time>2026-04-09T15:03:44.002Z</time></trkpt><trkpt lat="39.25218410331765" lon="9.415228096079694"><ele>542.0</ele><time>2026-04-09T15:03:45.002Z</time></trkpt><trkpt lat="39.25212759842521" lon="9.415286063941691"><ele>542.0</ele><time>2026-04-09T15:03:46.002Z</time></trkpt><trkpt lat="39.25206307537587" lon="9.415336306039576"><ele>542.0</ele><time>2026-04-09T15:03:47.002Z</time></trkpt><trkpt lat="39.25200761573211" lon="9.41537520969543"><ele>542.0</ele><time>2026-04-09T15:03:48.002Z</time></trkpt><trkpt lat="39.25195123907032" lon="9.415429692444336"><ele>542.0</ele><time>2026-04-09T15:03:49.002Z</time></trkpt><trkpt lat="39.25175679512234" lon="9.41525609293619"><ele>542.0</ele><time>2026-04-09T15:03:50.002Z</time></trkpt><trkpt lat="39.25164999511289" lon="9.415205107839023"><ele>542.0</ele><time>2026-04-09T15:03:51.002Z</time></trkpt><trkpt lat="39.25155096816674" lon="9.415159486436927"><ele>542.0</ele><time>2026-04-09T15:03:52.002Z</time></trkpt><trkpt lat="39.251468132402316" lon="9.415145613685105"><ele>542.0</ele><time>2026-04-09T15:03:53.002Z</time></trkpt><trkpt lat="39.25140908309307" lon="9.415173924149752"><ele>542.0</ele><time>2026-04-09T15:03:54.002Z</time></trkpt><trkpt lat="39.25135379058759" lon="9.415245579130818"><ele>542.0</ele><time>2026-04-09T15:03:55.002Z</time></trkpt><trkpt lat="39.25130469343613" lon="9.415360076006674"><ele>542.0</ele><time>2026-04-09T15:03:56.002Z</time></trkpt><trkpt lat="39.251248521699196" lon="9.415489240052748"><ele>542.0</ele><time>2026-04-09T15:03:57.002Z</time></trkpt><trkpt lat="39.251192439901544" lon="9.415608717873921"><ele>540.2</ele><time>2026-04-09T15:03:58.002Z</time></trkpt><trkpt lat="39.251144448504334" lon="9.41571885329036"><ele>538.4000000000001</ele><time>2026-04-09T15:03:59.002Z</time></trkpt><trkpt lat="39.25111520789431" lon="9.415813348674202"><ele>536.5999999999999</ele><time>2026-04-09T15:04:00.002Z</time></trkpt><trkpt lat="39.251106242574274" lon="9.415952707176668"><ele>534.8</ele><time>2026-04-09T15:04:02Z</time></trkpt><trkpt lat="39.25117487961899" lon="9.415980706168785"><ele>533.0</ele><time>2026-04-09T15:04:04Z</time></trkpt><trkpt lat="39.25126262224002" lon="9.41587295120119"><ele>533.0</ele><time>2026-04-09T15:04:06Z</time></trkpt><trkpt lat="39.25130323812607" lon="9.415752794854555"><ele>533.0</ele><time>2026-04-09T15:04:07Z</time></trkpt><trkpt lat="39.25135629788125" lon="9.41565361887279"><ele>533.0</ele><time>2026-04-09T15:04:08Z</time></trkpt><trkpt lat="39.251426889608304" lon="9.415604511500613"><ele>533.0</ele><time>2026-04-09T15:04:09Z</time></trkpt><trkpt lat="39.25150695371303" lon="9.415599498754279"><ele>533.0</ele><time>2026-04-09T15:04:10Z</time></trkpt><trkpt lat="39.25159338973388" lon="9.415625025412638"><ele>533.0</ele><time>2026-04-09T15:04:11Z</time></trkpt><trkpt lat="39.251685567352325" lon="9.415684514244388"><ele>530.0</ele><time>2026-04-09T15:04:12Z</time></trkpt><trkpt lat="39.251769374098785" lon="9.415746585412933"><ele>527.0</ele><time>2026-04-09T15:04:13Z</time></trkpt><trkpt lat="39.25183804000674" lon="9.415791602432703"><ele>524.0</ele><time>2026-04-09T15:04:14Z</time></trkpt><trkpt lat="39.251871833041065" lon="9.41587223151732"><ele>521.0</ele><time>2026-04-09T15:04:16Z</time></trkpt><trkpt lat="39.25181782375228" lon="9.415944093876206"><ele>518.0</ele><time>2026-04-09T15:04:18Z</time></trkpt><trkpt lat="39.25171430777697" lon="9.415912152476997"><ele>515.0</ele><time>2026-04-09T15:04:20Z</time></trkpt><trkpt lat="39.25161430777687" lon="9.4158670825541"><ele>515.0</ele><time>2026-04-09T15:04:22Z</time></trkpt><trkpt lat="39.25150159719133" lon="9.415934567668891"><ele>515.0</ele><time>2026-04-09T15:04:24Z</time></trkpt><trkpt lat="39.25144784070311" lon="9.416024154150536"><ele>515.0</ele><time>2026-04-09T15:04:25Z</time></trkpt><trkpt lat="39.25140661872634" lon="9.416143627150461"><ele>515.0</ele><time>2026-04-09T15:04:26Z</time></trkpt><trkpt lat="39.25137094162179" lon="9.416284938655236"><ele>515.0</ele><time>2026-04-09T15:04:27Z</time></trkpt><trkpt lat="39.25133658902789" lon="9.416411626977053"><ele>516.6666666666666</ele><time>2026-04-09T15:04:28Z</time></trkpt><trkpt lat="39.25129680197992" lon="9.416510399339934"><ele>518.3333333333333</ele><time>2026-04-09T15:04:29Z</time></trkpt><trkpt lat="39.25125773851715" lon="9.416577049517802"><ele>520.0</ele><time>2026-04-09T15:04:30Z</time></trkpt><trkpt lat="39.25126393736269" lon="9.416679359953314"><ele>521.6666666666666</ele><time>2026-04-09T15:04:32Z</time></trkpt><trkpt lat="39.25135625985382" lon="9.416686025589401"><ele>523.3333333333334</ele><time>2026-04-09T15:04:34Z</time></trkpt><trkpt lat="39.25139465313228" lon="9.416605621765406"><ele>525.0</ele><time>2026-04-09T15:04:35Z</time></trkpt><trkpt lat="39.25144308036494" lon="9.416484263354016"><ele>523.3333333333334</ele><time>2026-04-09T15:04:36Z</time></trkpt><trkpt lat="39.2515183291106" lon="9.416365877643562"><ele>521.6666666666666</ele><time>2026-04-09T15:04:37Z</time></trkpt><trkpt lat="39.251592371182596" lon="9.416287912878285"><ele>520.0</ele><time>2026-04-09T15:04:38Z</time></trkpt><trkpt lat="39.251662506439345" lon="9.416246821642277"><ele>518.3333333333333</ele><time>2026-04-09T15:04:39Z</time></trkpt><trkpt lat="39.25172798680467" lon="9.416248503670362"><ele>516.6666666666666</ele><time>2026-04-09T15:04:40Z</time></trkpt><trkpt lat="39.25179200517194" lon="9.416269854390395"><ele>515.0</ele><time>2026-04-09T15:04:41Z</time></trkpt><trkpt lat="39.251861615121136" lon="9.416322500881831"><ele>510.4</ele><time>2026-04-09T15:04:42Z</time></trkpt><trkpt lat="39.25192871237984" lon="9.416403208969017"><ele>505.8</ele><time>2026-04-09T15:04:43Z</time></trkpt><trkpt lat="39.25200412006033" lon="9.41647134591227"><ele>501.20000000000005</ele><time>2026-04-09T15:04:44Z</time></trkpt><trkpt lat="39.25208475198107" lon="9.416499605586605"><ele>496.6</ele><time>2026-04-09T15:04:45Z</time></trkpt><trkpt lat="39.25217719462066" lon="9.4164780450353"><ele>492.0</ele><time>2026-04-09T15:04:46Z</time></trkpt><trkpt lat="39.252285096000776" lon="9.416422159354873"><ele>491.8</ele><time>2026-04-09T15:04:47Z</time></trkpt><trkpt lat="39.252382652760495" lon="9.416359917165272"><ele>491.6</ele><time>2026-04-09T15:04:48Z</time></trkpt><trkpt lat="39.25247521272041" lon="9.416307577615868"><ele>491.40000000000003</ele><time>2026-04-09T15:04:49Z</time></trkpt><trkpt lat="39.252557561491464" lon="9.416263810875227"><ele>491.20000000000005</ele><time>2026-04-09T15:04:50Z</time></trkpt><trkpt lat="39.25262872098882" lon="9.416228237223846"><ele>491.0</ele><time>2026-04-09T15:04:51Z</time></trkpt><trkpt lat="39.252726065819594" lon="9.416270948334072"><ele>490.99999999999994</ele><time>2026-04-09T15:04:53Z</time></trkpt><trkpt lat="39.252749660461554" lon="9.416354213977812"><ele>491.0</ele><time>2026-04-09T15:04:54Z</time></trkpt><trkpt lat="39.25274992692232" lon="9.416435702649975"><ele>491.0</ele><time>2026-04-09T15:04:55Z</time></trkpt><trkpt lat="39.25272256426004" lon="9.41652028683531"><ele>491.0</ele><time>2026-04-09T15:04:56Z</time></trkpt><trkpt lat="39.25266038427028" lon="9.416617777468167"><ele>490.99999999999994</ele><time>2026-04-09T15:04:57Z</time></trkpt><trkpt lat="39.25259161290951" lon="9.416727464673887"><ele>491.0</ele><time>2026-04-09T15:04:58Z</time></trkpt><trkpt lat="39.252523072372064" lon="9.41683092803532"><ele>491.0</ele><time>2026-04-09T15:04:59Z</time></trkpt><trkpt lat="39.25248817106309" lon="9.416947494435536"><ele>491.0</ele><time>2026-04-09T15:05:00Z</time></trkpt><trkpt lat="39.252458123518714" lon="9.417061503426073"><ele>491.0</ele><time>2026-04-09T15:05:01Z</time></trkpt><trkpt lat="39.25246246851747" lon="9.417194038504478"><ele>491.0</ele><time>2026-04-09T15:05:02Z</time></trkpt><trkpt lat="39.2524880693226" lon="9.417335996871063"><ele>491.0</ele><time>2026-04-09T15:05:03.001Z</time></trkpt><trkpt lat="39.252527408062285" lon="9.41748013130931"><ele>489.4</ele><time>2026-04-09T15:05:04.001Z</time></trkpt><trkpt lat="39.25255507646585" lon="9.41760354025615"><ele>487.8</ele><time>2026-04-09T15:05:05.001Z</time></trkpt><trkpt lat="39.25258072683921" lon="9.417713164588097"><ele>486.19999999999993</ele><time>2026-04-09T15:05:06.001Z</time></trkpt><trkpt lat="39.25259180897714" lon="9.417831733736497"><ele>484.59999999999997</ele><time>2026-04-09T15:05:07.001Z</time></trkpt><trkpt lat="39.25260681535525" lon="9.417949807744547"><ele>483.0</ele><time>2026-04-09T15:05:08.001Z</time></trkpt><trkpt lat="39.252636471377635" lon="9.418081546292859"><ele>482.2</ele><time>2026-04-09T15:05:09.001Z</time></trkpt><trkpt lat="39.25266656597806" lon="9.418217612595562"><ele>481.4</ele><time>2026-04-09T15:05:10.001Z</time></trkpt><trkpt lat="39.252700136098454" lon="9.418369409006981"><ele>480.59999999999997</ele><time>2026-04-09T15:05:11.001Z</time></trkpt><trkpt lat="39.25273172663903" lon="9.418511998551367"><ele>479.79999999999995</ele><time>2026-04-09T15:05:12.001Z</time></trkpt><trkpt lat="39.252751617054834" lon="9.418640645466214"><ele>479.0</ele><time>2026-04-09T15:05:13.001Z</time></trkpt><trkpt lat="39.25274579153258" lon="9.418758788510038"><ele>477.99999999999994</ele><time>2026-04-09T15:05:14.001Z</time></trkpt><trkpt lat="39.25271512311946" lon="9.418858068841173"><ele>477.0</ele><time>2026-04-09T15:05:15.001Z</time></trkpt><trkpt lat="39.25267203503633" lon="9.41895516936699"><ele>476.0</ele><time>2026-04-09T15:05:16.001Z</time></trkpt><trkpt lat="39.252654544900736" lon="9.419056675064136"><ele>475.0</ele><time>2026-04-09T15:05:17.001Z</time></trkpt><trkpt lat="39.25266187405639" lon="9.419148457768792"><ele>473.99999999999994</ele><time>2026-04-09T15:05:18.001Z</time></trkpt><trkpt lat="39.252695112968325" lon="9.419257285222692"><ele>473.0</ele><time>2026-04-09T15:05:19.001Z</time></trkpt><trkpt lat="39.25274517031329" lon="9.41936699950141"><ele>473.0</ele><time>2026-04-09T15:05:20.001Z</time></trkpt><trkpt lat="39.25277543859912" lon="9.419499013532416"><ele>472.99999999999994</ele><time>2026-04-09T15:05:21.001Z</time></trkpt><trkpt lat="39.25277149769738" lon="9.419639099981515"><ele>472.99999999999994</ele><time>2026-04-09T15:05:22.001Z</time></trkpt><trkpt lat="39.252752047371374" lon="9.419782222129388"><ele>473.0</ele><time>2026-04-09T15:05:23.001Z</time></trkpt><trkpt lat="39.252721799028336" lon="9.419916010275289"><ele>473.0</ele><time>2026-04-09T15:05:24.001Z</time></trkpt><trkpt lat="39.252696662157575" lon="9.42004874371126"><ele>472.16666666666663</ele><time>2026-04-09T15:05:25.001Z</time></trkpt><trkpt lat="39.25268067560932" lon="9.420172467570929"><ele>471.3333333333333</ele><time>2026-04-09T15:05:26.001Z</time></trkpt><trkpt lat="39.252696377560284" lon="9.420286668581474"><ele>470.5</ele><time>2026-04-09T15:05:27.001Z</time></trkpt><trkpt lat="39.252738423565035" lon="9.420371656323153"><ele>469.66666666666663</ele><time>2026-04-09T15:05:28.001Z</time></trkpt><trkpt lat="39.25280853175551" lon="9.42042470541575"><ele>468.8333333333333</ele><time>2026-04-09T15:05:29.001Z</time></trkpt><trkpt lat="39.252895326844374" lon="9.420464217158807"><ele>468.0</ele><time>2026-04-09T15:05:30.001Z</time></trkpt><trkpt lat="39.252967847199045" lon="9.420526985259732"><ele>470.79999999999995</ele><time>2026-04-09T15:05:31.001Z</time></trkpt><trkpt lat="39.2530207678632" lon="9.420599134682906"><ele>473.59999999999997</ele><time>2026-04-09T15:05:32.001Z</time></trkpt><trkpt lat="39.25306210109745" lon="9.420708203342036"><ele>476.40000000000003</ele><time>2026-04-09T15:05:33.001Z</time></trkpt><trkpt lat="39.25310548692242" lon="9.4208292424118"><ele>479.20000000000005</ele><time>2026-04-09T15:05:34.001Z</time></trkpt><trkpt lat="39.25313886435156" lon="9.420952289884122"><ele>482.0</ele><time>2026-04-09T15:05:35.001Z</time></trkpt><trkpt lat="39.25315849417441" lon="9.421068986143908"><ele>482.0</ele><time>2026-04-09T15:05:36.001Z</time></trkpt><trkpt lat="39.25315445402166" lon="9.421173530351965"><ele>482.00000000000006</ele><time>2026-04-09T15:05:37.001Z</time></trkpt><trkpt lat="39.25313234410879" lon="9.421288344259644"><ele>482.00000000000006</ele><time>2026-04-09T15:05:38.001Z</time></trkpt><trkpt lat="39.25311204527477" lon="9.421397511510847"><ele>482.0</ele><time>2026-04-09T15:05:39.001Z</time></trkpt><trkpt lat="39.25310171135098" lon="9.421530472732943"><ele>482.0</ele><time>2026-04-09T15:05:40.001Z</time></trkpt><trkpt lat="39.253099735471054" lon="9.421660595936721"><ele>479.8</ele><time>2026-04-09T15:05:41.001Z</time></trkpt><trkpt lat="39.25312114353261" lon="9.421767091145236"><ele>477.6</ele><time>2026-04-09T15:05:42.001Z</time></trkpt><trkpt lat="39.2531480992778" lon="9.421894503380805"><ele>475.40000000000003</ele><time>2026-04-09T15:05:43.001Z</time></trkpt><trkpt lat="39.25317336208956" lon="9.422030539389542"><ele>473.20000000000005</ele><time>2026-04-09T15:05:44.001Z</time></trkpt><trkpt lat="39.253199778702395" lon="9.422162040972966"><ele>471.0</ele><time>2026-04-09T15:05:45.001Z</time></trkpt><trkpt lat="39.253223423249615" lon="9.422312397515002"><ele>469.6</ele><time>2026-04-09T15:05:46.001Z</time></trkpt><trkpt lat="39.253247030950426" lon="9.422462131375015"><ele>468.20000000000005</ele><time>2026-04-09T15:05:47.001Z</time></trkpt><trkpt lat="39.253245447509286" lon="9.422604120269163"><ele>466.79999999999995</ele><time>2026-04-09T15:05:48.001Z</time></trkpt><trkpt lat="39.25324693871648" lon="9.422725974934366"><ele>465.4</ele><time>2026-04-09T15:05:49.001Z</time></trkpt><trkpt lat="39.253241057841514" lon="9.422853324452273"><ele>464.0</ele><time>2026-04-09T15:05:50.001Z</time></trkpt><trkpt lat="39.25321091973015" lon="9.422975818499424"><ele>464.4</ele><time>2026-04-09T15:05:51.001Z</time></trkpt><trkpt lat="39.253171178243306" lon="9.423098023051907"><ele>464.79999999999995</ele><time>2026-04-09T15:05:52.001Z</time></trkpt><trkpt lat="39.25313057348874" lon="9.423213297845843"><ele>465.20000000000005</ele><time>2026-04-09T15:05:53.001Z</time></trkpt><trkpt lat="39.2530980380445" lon="9.423334431600576"><ele>465.6</ele><time>2026-04-09T15:05:54.001Z</time></trkpt><trkpt lat="39.25309178805355" lon="9.42346366990384"><ele>466.0</ele><time>2026-04-09T15:05:55.001Z</time></trkpt><trkpt lat="39.2530927219226" lon="9.423597598644646"><ele>464.20000000000005</ele><time>2026-04-09T15:05:56.001Z</time></trkpt><trkpt lat="39.253100854111686" lon="9.423724675615967"><ele>462.40000000000003</ele><time>2026-04-09T15:05:57.001Z</time></trkpt><trkpt lat="39.25311855605593" lon="9.423834943346874"><ele>460.6</ele><time>2026-04-09T15:05:58.001Z</time></trkpt><trkpt lat="39.25314189383764" lon="9.423953908285323"><ele>458.8</ele><time>2026-04-09T15:05:59.001Z</time></trkpt><trkpt lat="39.25316066849286" lon="9.424076863917277"><ele>457.0</ele><time>2026-04-09T15:06:00.001Z</time></trkpt><trkpt lat="39.253165685308666" lon="9.424193073093617"><ele>457.00000000000006</ele><time>2026-04-09T15:06:01.001Z</time></trkpt><trkpt lat="39.25318997829418" lon="9.424312767993486"><ele>457.0</ele><time>2026-04-09T15:06:02.001Z</time></trkpt><trkpt lat="39.25321653396459" lon="9.424416045139472"><ele>457.0</ele><time>2026-04-09T15:06:03.001Z</time></trkpt><trkpt lat="39.25322539715725" lon="9.424508763544601"><ele>457.0</ele><time>2026-04-09T15:06:04.001Z</time></trkpt><trkpt lat="39.25322933872523" lon="9.424607611419772"><ele>457.00000000000006</ele><time>2026-04-09T15:06:05.001Z</time></trkpt><trkpt lat="39.25321077581527" lon="9.424688689122634"><ele>457.0</ele><time>2026-04-09T15:06:06.001Z</time></trkpt><trkpt lat="39.25321011071769" lon="9.424786054078488"><ele>454.33333333333337</ele><time>2026-04-09T15:06:07Z</time></trkpt><trkpt lat="39.25323284411626" lon="9.424889116543433"><ele>451.6666666666667</ele><time>2026-04-09T15:06:08Z</time></trkpt><trkpt lat="39.253256096514455" lon="9.424991594859723"><ele>449.0</ele><time>2026-04-09T15:06:09Z</time></trkpt><trkpt lat="39.253275833819316" lon="9.425101663393018"><ele>446.33333333333337</ele><time>2026-04-09T15:06:10Z</time></trkpt><trkpt lat="39.25330169486015" lon="9.425208668828828"><ele>443.6666666666667</ele><time>2026-04-09T15:06:11Z</time></trkpt><trkpt lat="39.2533130619553" lon="9.425305874704218"><ele>441.0</ele><time>2026-04-09T15:06:12Z</time></trkpt><trkpt lat="39.253305326736545" lon="9.425398692737607"><ele>438.8333333333333</ele><time>2026-04-09T15:06:13Z</time></trkpt><trkpt lat="39.253281015750225" lon="9.425481771284772"><ele>436.66666666666663</ele><time>2026-04-09T15:06:14Z</time></trkpt><trkpt lat="39.253239505061295" lon="9.42556094185341"><ele>434.5</ele><time>2026-04-09T15:06:15Z</time></trkpt><trkpt lat="39.253180650219676" lon="9.425620289598603"><ele>432.3333333333333</ele><time>2026-04-09T15:06:16Z</time></trkpt><trkpt lat="39.25311911915008" lon="9.425694930992094"><ele>430.16666666666663</ele><time>2026-04-09T15:06:17Z</time></trkpt><trkpt lat="39.25308844244927" lon="9.425792032022187"><ele>428.0</ele><time>2026-04-09T15:06:18Z</time></trkpt><trkpt lat="39.253079172513196" lon="9.42590855559881"><ele>426.16666666666663</ele><time>2026-04-09T15:06:19Z</time></trkpt><trkpt lat="39.253075352230724" lon="9.426015533739609"><ele>424.3333333333333</ele><time>2026-04-09T15:06:20Z</time></trkpt><trkpt lat="39.253094415729436" lon="9.426122376685576"><ele>422.5</ele><time>2026-04-09T15:06:21Z</time></trkpt><trkpt lat="39.253099337019506" lon="9.42624263624882"><ele>420.66666666666663</ele><time>2026-04-09T15:06:22Z</time></trkpt><trkpt lat="39.25311186456831" lon="9.426357260941824"><ele>418.8333333333333</ele><time>2026-04-09T15:06:23Z</time></trkpt><trkpt lat="39.253118110520546" lon="9.426473947055966"><ele>417.0</ele><time>2026-04-09T15:06:24Z</time></trkpt><trkpt lat="39.25308592309334" lon="9.426575269422448"><ele>415.1666666666667</ele><time>2026-04-09T15:06:25Z</time></trkpt><trkpt lat="39.253043179950375" lon="9.426666560991873"><ele>413.33333333333337</ele><time>2026-04-09T15:06:26Z</time></trkpt><trkpt lat="39.252970846210005" lon="9.426725455682671"><ele>411.5</ele><time>2026-04-09T15:06:27Z</time></trkpt><trkpt lat="39.2528884959407" lon="9.426758997552529"><ele>409.6666666666667</ele><time>2026-04-09T15:06:28Z</time></trkpt><trkpt lat="39.252814473399596" lon="9.426752884057645"><ele>407.83333333333337</ele><time>2026-04-09T15:06:29Z</time></trkpt><trkpt lat="39.2527413626843" lon="9.426714972760234"><ele>406.0</ele><time>2026-04-09T15:06:30Z</time></trkpt><trkpt lat="39.25267044418736" lon="9.426664414165739"><ele>406.0</ele><time>2026-04-09T15:06:31Z</time></trkpt><trkpt lat="39.25259218753047" lon="9.426624815288072"><ele>406.0</ele><time>2026-04-09T15:06:32Z</time></trkpt><trkpt lat="39.252509359533185" lon="9.426604273007044"><ele>406.0</ele><time>2026-04-09T15:06:33Z</time></trkpt><trkpt lat="39.25241895363887" lon="9.42656991695567"><ele>406.0</ele><time>2026-04-09T15:06:34Z</time></trkpt><trkpt lat="39.252319348006054" lon="9.426529647588595"><ele>406.0</ele><time>2026-04-09T15:06:35Z</time></trkpt><trkpt lat="39.25221629312306" lon="9.426482151205748"><ele>405.25</ele><time>2026-04-09T15:06:36Z</time></trkpt><trkpt lat="39.25210051665621" lon="9.426418070267617"><ele>404.5</ele><time>2026-04-09T15:06:37Z</time></trkpt><trkpt lat="39.25198127987817" lon="9.426348691313004"><ele>403.75</ele><time>2026-04-09T15:06:38Z</time></trkpt><trkpt lat="39.25186953114317" lon="9.426290497219602"><ele>403.0</ele><time>2026-04-09T15:06:39Z</time></trkpt><trkpt lat="39.25176714115942" lon="9.426238899497099"><ele>402.1666666666667</ele><time>2026-04-09T15:06:40Z</time></trkpt><trkpt lat="39.251671231257184" lon="9.426182806772367"><ele>401.33333333333337</ele><time>2026-04-09T15:06:41Z</time></trkpt><trkpt lat="39.25158984133566" lon="9.426117951897304"><ele>400.5</ele><time>2026-04-09T15:06:42Z</time></trkpt><trkpt lat="39.25154061162966" lon="9.426058914709941"><ele>399.66666666666663</ele><time>2026-04-09T15:06:43Z</time></trkpt><trkpt lat="39.25148437023404" lon="9.425994841762545"><ele>398.8333333333333</ele><time>2026-04-09T15:06:47.001Z</time></trkpt><trkpt lat="39.25141931226841" lon="9.425952483317811"><ele>398.0</ele><time>2026-04-09T15:06:51.001Z</time></trkpt><trkpt lat="39.2513620850871" lon="9.425896516589045"><ele>397.3333333333333</ele><time>2026-04-09T15:06:54.001Z</time></trkpt><trkpt lat="39.25129011184989" lon="9.425890965468502"><ele>396.66666666666663</ele><time>2026-04-09T15:06:57.001Z</time></trkpt><trkpt lat="39.251219246837884" lon="9.425911379379823"><ele>396.0</ele><time>2026-04-09T15:06:59.001Z</time></trkpt><trkpt lat="39.2511481726457" lon="9.426004417407073"><ele>395.33333333333337</ele><time>2026-04-09T15:07:01.001Z</time></trkpt><trkpt lat="39.251076495755505" lon="9.426033123936175"><ele>394.6666666666667</ele><time>2026-04-09T15:07:04.001Z</time></trkpt><trkpt lat="39.250987477154354" lon="9.42607930266067"><ele>394.0</ele><time>2026-04-09T15:11:35.001Z</time></trkpt><trkpt lat="39.250898495287075" lon="9.426091895682552"><ele>394.0</ele><time>2026-04-09T15:11:37.001Z</time></trkpt><trkpt lat="39.25079532831087" lon="9.426119921967201"><ele>394.0</ele><time>2026-04-09T15:11:39.001Z</time></trkpt><trkpt lat="39.250704619341136" lon="9.426161694358047"><ele>394.0</ele><time>2026-04-09T15:11:41.001Z</time></trkpt><trkpt lat="39.25062497828274" lon="9.426199949867605"><ele>394.0</ele><time>2026-04-09T15:11:43.001Z</time></trkpt><trkpt lat="39.25054718742441" lon="9.426233962505515"><ele>394.0</ele><time>2026-04-09T15:11:45.001Z</time></trkpt><trkpt lat="39.25045957511915" lon="9.426266410253561"><ele>394.00000000000006</ele><time>2026-04-09T15:11:47.001Z</time></trkpt><trkpt lat="39.25036977051528" lon="9.426286436011209"><ele>394.0</ele><time>2026-04-09T15:11:49.001Z</time></trkpt><trkpt lat="39.25028379402877" lon="9.426286370472557"><ele>394.0</ele><time>2026-04-09T15:11:51.001Z</time></trkpt><trkpt lat="39.25021045437468" lon="9.426278546972217"><ele>394.0</ele><time>2026-04-09T15:11:53.001Z</time></trkpt><trkpt lat="39.25013756601696" lon="9.426289379630495"><ele>394.00000000000006</ele><time>2026-04-09T15:11:56.001Z</time></trkpt><trkpt lat="39.25006582796357" lon="9.426324444101414"><ele>394.0</ele><time>2026-04-09T15:12:06.001Z</time></trkpt><trkpt lat="39.25000704488582" lon="9.426356275965645"><ele>394.0</ele><time>2026-04-09T15:12:07.001Z</time></trkpt><trkpt lat="39.24993579952492" lon="9.426384931332032"><ele>394.0</ele><time>2026-04-09T15:12:08.001Z</time></trkpt><trkpt lat="39.249846665426396" lon="9.426419601830487"><ele>394.0</ele><time>2026-04-09T15:12:09.001Z</time></trkpt><trkpt lat="39.2497446789161" lon="9.426468398501926"><ele>394.0</ele><time>2026-04-09T15:12:10.001Z</time></trkpt><trkpt lat="39.24963065475599" lon="9.426514814438047"><ele>394.0</ele><time>2026-04-09T15:12:11.001Z</time></trkpt><trkpt lat="39.24952181151982" lon="9.426560204609176"><ele>392.6666666666667</ele><time>2026-04-09T15:12:12.001Z</time></trkpt><trkpt lat="39.24942438676853" lon="9.42660119283084"><ele>391.33333333333337</ele><time>2026-04-09T15:12:13.001Z</time></trkpt><trkpt lat="39.24934087841672" lon="9.426648925689408"><ele>390.0</ele><time>2026-04-09T15:12:14.001Z</time></trkpt><trkpt lat="39.24926847768299" lon="9.426706941188412"><ele>388.66666666666663</ele><time>2026-04-09T15:12:15.001Z</time></trkpt><trkpt lat="39.24920004199962" lon="9.426765098826548"><ele>387.3333333333333</ele><time>2026-04-09T15:12:16.001Z</time></trkpt><trkpt lat="39.24913646321831" lon="9.426813153242827"><ele>386.0</ele><time>2026-04-09T15:12:17.001Z</time></trkpt><trkpt lat="39.24907460471386" lon="9.426847812486928"><ele>385.99999999999994</ele><time>2026-04-09T15:12:18.001Z</time></trkpt><trkpt lat="39.2490140236579" lon="9.426870468142935"><ele>386.0</ele><time>2026-04-09T15:12:19.001Z</time></trkpt><trkpt lat="39.248950770584145" lon="9.426887459672812"><ele>386.0</ele><time>2026-04-09T15:12:20.001Z</time></trkpt><trkpt lat="39.248809618093446" lon="9.426912958360083"><ele>386.0</ele><time>2026-04-09T15:12:22.001Z</time></trkpt><trkpt lat="39.248727623898816" lon="9.426926874683149"><ele>385.99999999999994</ele><time>2026-04-09T15:12:23.001Z</time></trkpt><trkpt lat="39.24863974908904" lon="9.426937557513341"><ele>386.0</ele><time>2026-04-09T15:12:24.001Z</time></trkpt><trkpt lat="39.24855293025774" lon="9.426957475172117"><ele>385.8333333333333</ele><time>2026-04-09T15:12:25.001Z</time></trkpt><trkpt lat="39.248478622455984" lon="9.426985895037406"><ele>385.66666666666663</ele><time>2026-04-09T15:12:26.001Z</time></trkpt><trkpt lat="39.24842518347579" lon="9.427045615950329"><ele>385.5</ele><time>2026-04-09T15:12:28.001Z</time></trkpt><trkpt lat="39.24834633919741" lon="9.42708162928312"><ele>385.33333333333337</ele><time>2026-04-09T15:12:31.001Z</time></trkpt><trkpt lat="39.248256018619855" lon="9.427023091647632"><ele>385.1666666666667</ele><time>2026-04-09T15:12:33.001Z</time></trkpt><trkpt lat="39.248195754669084" lon="9.42696476522136"><ele>385.0</ele><time>2026-04-09T15:12:34.001Z</time></trkpt><trkpt lat="39.24814996765923" lon="9.426907116254405"><ele>384.4</ele><time>2026-04-09T15:12:35.001Z</time></trkpt><trkpt lat="39.24804349345481" lon="9.426853171191382"><ele>383.8</ele><time>2026-04-09T15:12:37.001Z</time></trkpt><trkpt lat="39.24796491112164" lon="9.42682375938526"><ele>383.20000000000005</ele><time>2026-04-09T15:12:38.001Z</time></trkpt><trkpt lat="39.24787448269594" lon="9.426811291933966"><ele>382.6</ele><time>2026-04-09T15:12:39.001Z</time></trkpt><trkpt lat="39.24776854646005" lon="9.426787983300551"><ele>382.0</ele><time>2026-04-09T15:12:40.001Z</time></trkpt><trkpt lat="39.247667665601384" lon="9.42675284746924"><ele>382.0</ele><time>2026-04-09T15:12:41.001Z</time></trkpt><trkpt lat="39.24757739808213" lon="9.426709013904512"><ele>382.0</ele><time>2026-04-09T15:12:42.001Z</time></trkpt><trkpt lat="39.2474936802654" lon="9.426667405788987"><ele>382.0</ele><time>2026-04-09T15:12:43.001Z</time></trkpt><trkpt lat="39.24740976257888" lon="9.426635038940482"><ele>382.0</ele><time>2026-04-09T15:12:44.001Z</time></trkpt><trkpt lat="39.247332775246385" lon="9.426624687129468"><ele>382.0</ele><time>2026-04-09T15:12:45.001Z</time></trkpt><trkpt lat="39.24726075331437" lon="9.426606039770112"><ele>382.0</ele><time>2026-04-09T15:12:47.001Z</time></trkpt><trkpt lat="39.24718695898317" lon="9.426608745831142"><ele>381.5</ele><time>2026-04-09T15:12:58.001Z</time></trkpt><trkpt lat="39.247109440930366" lon="9.426620342438486"><ele>381.0</ele><time>2026-04-09T15:13:01.001Z</time></trkpt><trkpt lat="39.24702236547547" lon="9.42658017005182"><ele>380.5</ele><time>2026-04-09T15:13:04.001Z</time></trkpt><trkpt lat="39.24696429472234" lon="9.426536159878623"><ele>380.0</ele><time>2026-04-09T15:13:07.001Z</time></trkpt><trkpt lat="39.24687246073367" lon="9.426555500233583"><ele>379.5</ele><time>2026-04-09T15:14:55Z</time></trkpt><trkpt lat="39.246806105466476" lon="9.426569758203101"><ele>379.0</ele><time>2026-04-09T15:15:02Z</time></trkpt><trkpt lat="39.24670134579643" lon="9.426558347511515"><ele>379.0</ele><time>2026-04-09T15:15:04Z</time></trkpt><trkpt lat="39.246605266057784" lon="9.42656001642506"><ele>379.0</ele><time>2026-04-09T15:15:05Z</time></trkpt><trkpt lat="39.24649654698935" lon="9.426559243889917"><ele>379.0</ele><time>2026-04-09T15:15:06Z</time></trkpt><trkpt lat="39.246399859978375" lon="9.426550525645395"><ele>379.0</ele><time>2026-04-09T15:15:07Z</time></trkpt><trkpt lat="39.246294416474946" lon="9.426523668733632"><ele>379.0</ele><time>2026-04-09T15:15:08Z</time></trkpt><trkpt lat="39.246189228704196" lon="9.426504964509359"><ele>378.2</ele><time>2026-04-09T15:15:09Z</time></trkpt><trkpt lat="39.2460897413015" lon="9.426502497229665"><ele>377.4</ele><time>2026-04-09T15:15:10Z</time></trkpt><trkpt lat="39.24598082519755" lon="9.42649940807812"><ele>376.6</ele><time>2026-04-09T15:15:11Z</time></trkpt><trkpt lat="39.245864229081356" lon="9.426506992639736"><ele>375.8</ele><time>2026-04-09T15:15:12Z</time></trkpt><trkpt lat="39.245751977163444" lon="9.426508691095325"><ele>375.0</ele><time>2026-04-09T15:15:13Z</time></trkpt><trkpt lat="39.245649779387705" lon="9.426506061710398"><ele>374.8333333333333</ele><time>2026-04-09T15:15:14Z</time></trkpt><trkpt lat="39.24556055638568" lon="9.426498538729174"><ele>374.6666666666667</ele><time>2026-04-09T15:15:15Z</time></trkpt><trkpt lat="39.24548326517055" lon="9.426486810911275"><ele>374.5</ele><time>2026-04-09T15:15:16Z</time></trkpt><trkpt lat="39.24540921598243" lon="9.426481409981182"><ele>374.33333333333337</ele><time>2026-04-09T15:15:17Z</time></trkpt><trkpt lat="39.24533317005667" lon="9.426472720888947"><ele>374.1666666666667</ele><time>2026-04-09T15:15:18Z</time></trkpt><trkpt lat="39.24526354496979" lon="9.426435480264363"><ele>374.0</ele><time>2026-04-09T15:15:19Z</time></trkpt><trkpt lat="39.245215621892086" lon="9.42637128820456"><ele>373.6666666666667</ele><time>2026-04-09T15:15:20Z</time></trkpt><trkpt lat="39.245191275587665" lon="9.426279766857737"><ele>373.33333333333337</ele><time>2026-04-09T15:15:21Z</time></trkpt><trkpt lat="39.24516679278476" lon="9.426183728520359"><ele>373.0</ele><time>2026-04-09T15:15:22Z</time></trkpt><trkpt lat="39.24513594766047" lon="9.426085731509916"><ele>372.6666666666667</ele><time>2026-04-09T15:15:23Z</time></trkpt><trkpt lat="39.245101492279794" lon="9.425996029486285"><ele>372.3333333333333</ele><time>2026-04-09T15:15:24Z</time></trkpt><trkpt lat="39.245074811980786" lon="9.425921890613106"><ele>372.0</ele><time>2026-04-09T15:15:25Z</time></trkpt><trkpt lat="39.24505169697714" lon="9.425779626951748"><ele>372.00000000000006</ele><time>2026-04-09T15:15:27Z</time></trkpt><trkpt lat="39.245065779162125" lon="9.425691773001889"><ele>372.0</ele><time>2026-04-09T15:15:32Z</time></trkpt><trkpt lat="39.24509517596661" lon="9.425613353402065"><ele>372.0</ele><time>2026-04-09T15:15:38Z</time></trkpt><trkpt lat="39.24506137431036" lon="9.425528525983072"><ele>372.0</ele><time>2026-04-09T15:15:40Z</time></trkpt><trkpt lat="39.244989754717466" lon="9.425511944164203"><ele>372.0</ele><time>2026-04-09T15:15:44Z</time></trkpt><trkpt lat="39.24491076097475" lon="9.425527670530158"><ele>372.00000000000006</ele><time>2026-04-09T15:15:46Z</time></trkpt><trkpt lat="39.244846256832666" lon="9.42551074807054"><ele>372.0</ele><time>2026-04-09T15:15:48Z</time></trkpt><trkpt lat="39.24477880690849" lon="9.425542013842293"><ele>371.6666666666667</ele><time>2026-04-09T15:24:31Z</time></trkpt><trkpt lat="39.24467673301069" lon="9.425506001346191"><ele>371.3333333333333</ele><time>2026-04-09T15:24:33Z</time></trkpt><trkpt lat="39.24458143964671" lon="9.425467298307337"><ele>371.0</ele><time>2026-04-09T15:24:35Z</time></trkpt><trkpt lat="39.24451298253655" lon="9.425431024677959"><ele>370.66666666666663</ele><time>2026-04-09T15:24:38Z</time></trkpt><trkpt lat="39.244461340648805" lon="9.425358534209344"><ele>370.3333333333333</ele><time>2026-04-09T15:24:55.001Z</time></trkpt><trkpt lat="39.24437657600286" lon="9.425360449732596"><ele>370.0</ele><time>2026-04-09T15:24:56.001Z</time></trkpt><trkpt lat="39.244275223598784" lon="9.425326916102659"><ele>369.8333333333333</ele><time>2026-04-09T15:24:57.001Z</time></trkpt><trkpt lat="39.24418530270967" lon="9.42527982903847"><ele>369.66666666666663</ele><time>2026-04-09T15:24:58.001Z</time></trkpt><trkpt lat="39.24410631395756" lon="9.425236914881994"><ele>369.5</ele><time>2026-04-09T15:24:59.001Z</time></trkpt><trkpt lat="39.24403480179666" lon="9.425188027301934"><ele>369.3333333333333</ele><time>2026-04-09T15:25:00.001Z</time></trkpt><trkpt lat="39.2439777967517" lon="9.42514320116665"><ele>369.1666666666667</ele><time>2026-04-09T15:25:01Z</time></trkpt><trkpt lat="39.243891155022375" lon="9.425075449162094"><ele>369.0</ele><time>2026-04-09T15:25:04Z</time></trkpt><trkpt lat="39.24380656411174" lon="9.425023564688614"><ele>369.0</ele><time>2026-04-09T15:25:05Z</time></trkpt><trkpt lat="39.24371610455169" lon="9.424961620904417"><ele>369.0</ele><time>2026-04-09T15:25:06Z</time></trkpt><trkpt lat="39.24361613651731" lon="9.42487902620027"><ele>369.0</ele><time>2026-04-09T15:25:07Z</time></trkpt><trkpt lat="39.243480892311155" lon="9.424793993962332"><ele>369.0</ele><time>2026-04-09T15:25:08Z</time></trkpt><trkpt lat="39.24335430654853" lon="9.424699064929529"><ele>368.75</ele><time>2026-04-09T15:25:09Z</time></trkpt><trkpt lat="39.243227807108646" lon="9.424598805706449"><ele>368.5</ele><time>2026-04-09T15:25:10Z</time></trkpt><trkpt lat="39.243104473347636" lon="9.424493283364654"><ele>368.25</ele><time>2026-04-09T15:25:11Z</time></trkpt><trkpt lat="39.242997548192264" lon="9.424380083575725"><ele>368.0</ele><time>2026-04-09T15:25:12Z</time></trkpt><trkpt lat="39.24289801144679" lon="9.424275890204852"><ele>368.0</ele><time>2026-04-09T15:25:13Z</time></trkpt><trkpt lat="39.24280820528776" lon="9.42419263299219"><ele>368.0</ele><time>2026-04-09T15:25:14Z</time></trkpt><trkpt lat="39.24271301485491" lon="9.424124587445027"><ele>368.0</ele><time>2026-04-09T15:25:15Z</time></trkpt><trkpt lat="39.24262186054083" lon="9.424049107625892"><ele>368.0</ele><time>2026-04-09T15:25:16Z</time></trkpt><trkpt lat="39.24252799822175" lon="9.423983879804798"><ele>368.0</ele><time>2026-04-09T15:25:17Z</time></trkpt><trkpt lat="39.24244910105176" lon="9.423902061135722"><ele>369.1666666666667</ele><time>2026-04-09T15:25:18Z</time></trkpt><trkpt lat="39.24238474229795" lon="9.423808207767474"><ele>370.33333333333337</ele><time>2026-04-09T15:25:19Z</time></trkpt><trkpt lat="39.2423283249976" lon="9.423728170064583"><ele>371.5</ele><time>2026-04-09T15:25:20Z</time></trkpt><trkpt lat="39.24227500170478" lon="9.42367380869896"><ele>372.6666666666667</ele><time>2026-04-09T15:25:21Z</time></trkpt><trkpt lat="39.24221210536468" lon="9.423653180543772"><ele>373.8333333333333</ele><time>2026-04-09T15:25:22Z</time></trkpt><trkpt lat="39.24213387383504" lon="9.423648919098284"><ele>375.0</ele><time>2026-04-09T15:25:23Z</time></trkpt><trkpt lat="39.24204398545631" lon="9.423633805729587"><ele>375.0</ele><time>2026-04-09T15:25:24Z</time></trkpt><trkpt lat="39.241942125843764" lon="9.42360432142608"><ele>375.0</ele><time>2026-04-09T15:25:25Z</time></trkpt><trkpt lat="39.24182966909358" lon="9.423568335677711"><ele>375.0</ele><time>2026-04-09T15:25:26Z</time></trkpt><trkpt lat="39.241716228896614" lon="9.423526335098103"><ele>375.0</ele><time>2026-04-09T15:25:27Z</time></trkpt><trkpt lat="39.241598037413986" lon="9.423484248645646"><ele>375.0</ele><time>2026-04-09T15:25:28Z</time></trkpt><trkpt lat="39.241471305188654" lon="9.423445152326288"><ele>375.0</ele><time>2026-04-09T15:25:29Z</time></trkpt><trkpt lat="39.241343605780905" lon="9.42342466560898"><ele>375.0</ele><time>2026-04-09T15:25:30Z</time></trkpt><trkpt lat="39.241234891969526" lon="9.423427528867002"><ele>375.0</ele><time>2026-04-09T15:25:31Z</time></trkpt><trkpt lat="39.24112764370633" lon="9.423450515013664"><ele>373.3333333333333</ele><time>2026-04-09T15:25:32Z</time></trkpt><trkpt lat="39.2410289714517" lon="9.423494058400667"><ele>371.6666666666667</ele><time>2026-04-09T15:25:33Z</time></trkpt><trkpt lat="39.24094055133536" lon="9.423541494450982"><ele>370.0</ele><time>2026-04-09T15:25:34Z</time></trkpt><trkpt lat="39.24087856191209" lon="9.423566144584818"><ele>368.33333333333337</ele><time>2026-04-09T15:25:35Z</time></trkpt><trkpt lat="39.24082481600392" lon="9.423464470670703"><ele>366.6666666666667</ele><time>2026-04-09T15:25:37Z</time></trkpt><trkpt lat="39.24083744194254" lon="9.423358705104842"><ele>365.0</ele><time>2026-04-09T15:25:38Z</time></trkpt><trkpt lat="39.2408838459851" lon="9.423221569264348"><ele>365.0</ele><time>2026-04-09T15:25:39Z</time></trkpt><trkpt lat="39.24093513960108" lon="9.423070936525892"><ele>365.0</ele><time>2026-04-09T15:25:40Z</time></trkpt><trkpt lat="39.24096541104046" lon="9.422908945104771"><ele>365.0</ele><time>2026-04-09T15:25:41Z</time></trkpt><trkpt lat="39.24096687337857" lon="9.422764870805535"><ele>365.0</ele><time>2026-04-09T15:25:42Z</time></trkpt><trkpt lat="39.24097432801112" lon="9.422649780306395"><ele>363.8</ele><time>2026-04-09T15:25:43Z</time></trkpt><trkpt lat="39.2410136478409" lon="9.422580981289123"><ele>362.6</ele><time>2026-04-09T15:25:44Z</time></trkpt><trkpt lat="39.24108690744075" lon="9.422533467437376"><ele>361.4</ele><time>2026-04-09T15:25:45Z</time></trkpt><trkpt lat="39.24119025977881" lon="9.422474072285924"><ele>360.2</ele><time>2026-04-09T15:25:46Z</time></trkpt><trkpt lat="39.24129120289634" lon="9.42240988446133"><ele>359.0</ele><time>2026-04-09T15:25:47Z</time></trkpt><trkpt lat="39.24137453391948" lon="9.422348740149122"><ele>359.0</ele><time>2026-04-09T15:25:48Z</time></trkpt><trkpt lat="39.241448302815144" lon="9.422293361653683"><ele>359.0</ele><time>2026-04-09T15:25:49Z</time></trkpt><trkpt lat="39.241521949421546" lon="9.422244423419002"><ele>359.0</ele><time>2026-04-09T15:25:50Z</time></trkpt><trkpt lat="39.24160719548609" lon="9.422191982777091"><ele>359.0</ele><time>2026-04-09T15:25:51Z</time></trkpt><trkpt lat="39.241713874094934" lon="9.422134908324688"><ele>359.0</ele><time>2026-04-09T15:25:52Z</time></trkpt><trkpt lat="39.241823060588516" lon="9.422069156293928"><ele>359.33333333333337</ele><time>2026-04-09T15:25:53Z</time></trkpt><trkpt lat="39.24191530864811" lon="9.422007805884446"><ele>359.6666666666667</ele><time>2026-04-09T15:25:54Z</time></trkpt><trkpt lat="39.24198558451538" lon="9.42194450511349"><ele>360.0</ele><time>2026-04-09T15:25:55Z</time></trkpt><trkpt lat="39.2420505463452" lon="9.421885448112638"><ele>360.3333333333333</ele><time>2026-04-09T15:25:56Z</time></trkpt><trkpt lat="39.242106388430564" lon="9.421824175555434"><ele>360.66666666666663</ele><time>2026-04-09T15:25:57Z</time></trkpt><trkpt lat="39.24214230566673" lon="9.421695958405147"><ele>361.0</ele><time>2026-04-09T15:25:59Z</time></trkpt><trkpt lat="39.242095922647316" lon="9.421534061307392"><ele>361.0</ele><time>2026-04-09T15:26:01Z</time></trkpt><trkpt lat="39.242042417895334" lon="9.421450697135072"><ele>361.0</ele><time>2026-04-09T15:26:02Z</time></trkpt><trkpt lat="39.24197825649307" lon="9.421358493137825"><ele>361.0</ele><time>2026-04-09T15:26:03Z</time></trkpt><trkpt lat="39.241917784953834" lon="9.421263095914137"><ele>361.0</ele><time>2026-04-09T15:26:04Z</time></trkpt><trkpt lat="39.24186723528117" lon="9.421152661062534"><ele>361.0</ele><time>2026-04-09T15:26:05Z</time></trkpt><trkpt lat="39.241804763036704" lon="9.421045716549067"><ele>362.0</ele><time>2026-04-09T15:26:06Z</time></trkpt><trkpt lat="39.24174215854444" lon="9.420938817928684"><ele>363.0</ele><time>2026-04-09T15:26:07Z</time></trkpt><trkpt lat="39.24167429027417" lon="9.420827200439843"><ele>364.0</ele><time>2026-04-09T15:26:08Z</time></trkpt><trkpt lat="39.24159597161197" lon="9.420725843996571"><ele>365.0</ele><time>2026-04-09T15:26:09Z</time></trkpt><trkpt lat="39.241496870198844" lon="9.420629018262748"><ele>366.0</ele><time>2026-04-09T15:26:10Z</time></trkpt><trkpt lat="39.241384854180374" lon="9.420530385346405"><ele>364.8</ele><time>2026-04-09T15:26:11Z</time></trkpt><trkpt lat="39.24128759401346" lon="9.42043597095685"><ele>363.6</ele><time>2026-04-09T15:26:12Z</time></trkpt><trkpt lat="39.24122075459371" lon="9.420350663414784"><ele>362.4</ele><time>2026-04-09T15:26:13Z</time></trkpt><trkpt lat="39.24116150506071" lon="9.420295435219845"><ele>361.2</ele><time>2026-04-09T15:26:14Z</time></trkpt><trkpt lat="39.241087715481434" lon="9.420261289861696"><ele>360.0</ele><time>2026-04-09T15:26:15Z</time></trkpt><trkpt lat="39.24098891412632" lon="9.420235668206294"><ele>360.0</ele><time>2026-04-09T15:26:16Z</time></trkpt><trkpt lat="39.240870935893675" lon="9.420207715063704"><ele>360.0</ele><time>2026-04-09T15:26:17Z</time></trkpt><trkpt lat="39.24075929096907" lon="9.420176933449534"><ele>360.0</ele><time>2026-04-09T15:26:18Z</time></trkpt><trkpt lat="39.24067064568976" lon="9.420140756290087"><ele>360.0</ele><time>2026-04-09T15:26:19Z</time></trkpt><trkpt lat="39.240607049221595" lon="9.420102707745569"><ele>360.0</ele><time>2026-04-09T15:26:20Z</time></trkpt><trkpt lat="39.24057586331772" lon="9.419983294107588"><ele>360.0</ele><time>2026-04-09T15:26:22Z</time></trkpt><trkpt lat="39.24060052289073" lon="9.419879839856796"><ele>360.0</ele><time>2026-04-09T15:26:23Z</time></trkpt><trkpt lat="39.24066693495892" lon="9.419776699118032"><ele>360.0</ele><time>2026-04-09T15:26:24Z</time></trkpt><trkpt lat="39.24074314213319" lon="9.419672537995046"><ele>360.0</ele><time>2026-04-09T15:26:25Z</time></trkpt><trkpt lat="39.24079513697222" lon="9.419551595764583"><ele>360.0</ele><time>2026-04-09T15:26:26Z</time></trkpt><trkpt lat="39.24082244522398" lon="9.419418360242293"><ele>359.2</ele><time>2026-04-09T15:26:27Z</time></trkpt><trkpt lat="39.24084447221586" lon="9.419271393740882"><ele>358.4</ele><time>2026-04-09T15:26:28Z</time></trkpt><trkpt lat="39.24086516965813" lon="9.419122315234706"><ele>357.6</ele><time>2026-04-09T15:26:29Z</time></trkpt><trkpt lat="39.240894268367946" lon="9.4189872379356"><ele>356.8</ele><time>2026-04-09T15:26:30Z</time></trkpt><trkpt lat="39.24091746880758" lon="9.418869184292971"><ele>356.0</ele><time>2026-04-09T15:26:31Z</time></trkpt><trkpt lat="39.24094079022345" lon="9.418773662877534"><ele>357.6</ele><time>2026-04-09T15:26:32Z</time></trkpt><trkpt lat="39.24096648438526" lon="9.418680699685826"><ele>359.20000000000005</ele><time>2026-04-09T15:26:33Z</time></trkpt><trkpt lat="39.240979319798754" lon="9.41859401084522"><ele>360.79999999999995</ele><time>2026-04-09T15:26:34Z</time></trkpt><trkpt lat="39.240924723264804" lon="9.418488213669358"><ele>362.4</ele><time>2026-04-09T15:26:36Z</time></trkpt><trkpt lat="39.240797373959616" lon="9.418408951799515"><ele>364.0</ele><time>2026-04-09T15:26:38Z</time></trkpt><trkpt lat="39.240698083584334" lon="9.418335678520892"><ele>360.79999999999995</ele><time>2026-04-09T15:26:39Z</time></trkpt><trkpt lat="39.240604627518984" lon="9.418260758303566"><ele>357.59999999999997</ele><time>2026-04-09T15:26:40Z</time></trkpt><trkpt lat="39.24052471676003" lon="9.41820848324145"><ele>354.4</ele><time>2026-04-09T15:26:41Z</time></trkpt><trkpt lat="39.24043479466386" lon="9.418181456967908"><ele>351.2</ele><time>2026-04-09T15:26:42Z</time></trkpt><trkpt lat="39.24032813621155" lon="9.418177219774293"><ele>348.0</ele><time>2026-04-09T15:26:43Z</time></trkpt><trkpt lat="39.24023023003154" lon="9.418182710350472"><ele>348.0</ele><time>2026-04-09T15:26:44Z</time></trkpt><trkpt lat="39.24015247835835" lon="9.418207079098684"><ele>348.0</ele><time>2026-04-09T15:26:45Z</time></trkpt><trkpt lat="39.24007940528587" lon="9.41824768917955"><ele>348.0</ele><time>2026-04-09T15:26:46Z</time></trkpt><trkpt lat="39.23998720180787" lon="9.418299937476453"><ele>348.0</ele><time>2026-04-09T15:26:47Z</time></trkpt><trkpt lat="39.23989662440711" lon="9.41832017933786"><ele>348.0</ele><time>2026-04-09T15:26:48Z</time></trkpt><trkpt lat="39.239795566505045" lon="9.418302016763516"><ele>345.4</ele><time>2026-04-09T15:26:49Z</time></trkpt><trkpt lat="39.239695689528595" lon="9.418274908616533"><ele>342.79999999999995</ele><time>2026-04-09T15:26:50Z</time></trkpt><trkpt lat="39.239627708850406" lon="9.418223605725503"><ele>340.2</ele><time>2026-04-09T15:26:51Z</time></trkpt><trkpt lat="39.23956790140832" lon="9.418127749556394"><ele>337.6</ele><time>2026-04-09T15:26:52Z</time></trkpt><trkpt lat="39.23949848697758" lon="9.41805086964758"><ele>335.0</ele><time>2026-04-09T15:26:53Z</time></trkpt><trkpt lat="39.239414108122894" lon="9.418012532361443"><ele>333.4</ele><time>2026-04-09T15:26:54Z</time></trkpt><trkpt lat="39.23931394626819" lon="9.417967396113001"><ele>331.8</ele><time>2026-04-09T15:26:55Z</time></trkpt><trkpt lat="39.23921411036534" lon="9.417931185364646"><ele>330.20000000000005</ele><time>2026-04-09T15:26:56Z</time></trkpt><trkpt lat="39.23911638124037" lon="9.417890539628528"><ele>328.6</ele><time>2026-04-09T15:26:57Z</time></trkpt><trkpt lat="39.239027360816735" lon="9.417830842147682"><ele>327.0</ele><time>2026-04-09T15:26:58Z</time></trkpt><trkpt lat="39.23895035068316" lon="9.4177519183816"><ele>327.0</ele><time>2026-04-09T15:26:59Z</time></trkpt><trkpt lat="39.238887002346175" lon="9.417680351672905"><ele>327.0</ele><time>2026-04-09T15:27:00Z</time></trkpt><trkpt lat="39.238847924877064" lon="9.417615839346299"><ele>327.0</ele><time>2026-04-09T15:27:01Z</time></trkpt><trkpt lat="39.23885210954123" lon="9.417420703102048"><ele>327.0</ele><time>2026-04-09T15:27:03Z</time></trkpt><trkpt lat="39.238869049571484" lon="9.41732088384876"><ele>327.0</ele><time>2026-04-09T15:27:04Z</time></trkpt><trkpt lat="39.23884880705159" lon="9.417197235445709"><ele>327.0</ele><time>2026-04-09T15:27:06Z</time></trkpt><trkpt lat="39.23878151963378" lon="9.41713787505335"><ele>327.0</ele><time>2026-04-09T15:27:07.999Z</time></trkpt><trkpt lat="39.23867697807782" lon="9.417163700147169"><ele>327.0</ele><time>2026-04-09T15:27:09.999Z</time></trkpt><trkpt lat="39.23859794009549" lon="9.417193891511575"><ele>327.0</ele><time>2026-04-09T15:27:10.999Z</time></trkpt><trkpt lat="39.23852462440457" lon="9.417196242607927"><ele>327.0</ele><time>2026-04-09T15:27:11.999Z</time></trkpt><trkpt lat="39.23845730972142" lon="9.417155432430096"><ele>327.0</ele><time>2026-04-09T15:27:12.999Z</time></trkpt><trkpt lat="39.23836878151967" lon="9.417085066077004"><ele>326.25</ele><time>2026-04-09T15:27:13.999Z</time></trkpt><trkpt lat="39.23825596968622" lon="9.41699868150612"><ele>325.5</ele><time>2026-04-09T15:27:14.999Z</time></trkpt><trkpt lat="39.23814682434124" lon="9.416911871694065"><ele>324.75</ele><time>2026-04-09T15:27:15.999Z</time></trkpt><trkpt lat="39.238024888849694" lon="9.416821583238027"><ele>324.0</ele><time>2026-04-09T15:27:16.999Z</time></trkpt><trkpt lat="39.23791049679513" lon="9.41674430086567"><ele>324.0</ele><time>2026-04-09T15:27:17.999Z</time></trkpt><trkpt lat="39.23781585882985" lon="9.41667718221111"><ele>324.0</ele><time>2026-04-09T15:27:18.999Z</time></trkpt><trkpt lat="39.23773850622754" lon="9.416594594190034"><ele>324.0</ele><time>2026-04-09T15:27:19.999Z</time></trkpt><trkpt lat="39.23766186523026" lon="9.416502141514345"><ele>324.0</ele><time>2026-04-09T15:27:20.999Z</time></trkpt><trkpt lat="39.237567028267435" lon="9.416415033187524"><ele>324.0</ele><time>2026-04-09T15:27:21.999Z</time></trkpt><trkpt lat="39.23745324642916" lon="9.416334264529402"><ele>323.6</ele><time>2026-04-09T15:27:22.999Z</time></trkpt><trkpt lat="39.23734919324238" lon="9.416267148976958"><ele>323.2</ele><time>2026-04-09T15:27:23.999Z</time></trkpt><trkpt lat="39.23726248144104" lon="9.416191354053272"><ele>322.8</ele><time>2026-04-09T15:27:24.999Z</time></trkpt><trkpt lat="39.2371871683898" lon="9.416108479113927"><ele>322.40000000000003</ele><time>2026-04-09T15:27:25.999Z</time></trkpt><trkpt lat="39.23711521440539" lon="9.416010598895966"><ele>322.0</ele><time>2026-04-09T15:27:26.999Z</time></trkpt><trkpt lat="39.23703914446366" lon="9.41592175182527"><ele>322.0</ele><time>2026-04-09T15:27:27.999Z</time></trkpt><trkpt lat="39.23696332492583" lon="9.415840951057588"><ele>322.0</ele><time>2026-04-09T15:27:28.999Z</time></trkpt><trkpt lat="39.23689855714158" lon="9.415751918969804"><ele>322.0</ele><time>2026-04-09T15:27:29.999Z</time></trkpt><trkpt lat="39.2368430236396" lon="9.415638545386173"><ele>322.0</ele><time>2026-04-09T15:27:30.999Z</time></trkpt><trkpt lat="39.23679683550339" lon="9.415503468960956"><ele>322.0</ele><time>2026-04-09T15:27:31.999Z</time></trkpt><trkpt lat="39.236738336322276" lon="9.415358422936837"><ele>320.5</ele><time>2026-04-09T15:27:32.999Z</time></trkpt><trkpt lat="39.23666277021863" lon="9.415217878356641"><ele>319.0</ele><time>2026-04-09T15:27:33.999Z</time></trkpt><trkpt lat="39.23658093013433" lon="9.41508703009024"><ele>317.5</ele><time>2026-04-09T15:27:34.999Z</time></trkpt><trkpt lat="39.23651745670734" lon="9.414954183087826"><ele>316.0</ele><time>2026-04-09T15:27:35.999Z</time></trkpt><trkpt lat="39.23646816998404" lon="9.414840400297726"><ele>316.0</ele><time>2026-04-09T15:27:36.999Z</time></trkpt><trkpt lat="39.23643578494694" lon="9.414726945079027"><ele>316.0</ele><time>2026-04-09T15:27:37.999Z</time></trkpt><trkpt lat="39.23641309813846" lon="9.414639883488741"><ele>316.0</ele><time>2026-04-09T15:27:38.999Z</time></trkpt><trkpt lat="39.236400962823346" lon="9.414556498473983"><ele>316.0</ele><time>2026-04-09T15:27:40Z</time></trkpt><trkpt lat="39.236413526074976" lon="9.414376264877756"><ele>316.0</ele><time>2026-04-09T15:27:42Z</time></trkpt><trkpt lat="39.23643244532903" lon="9.41426970075769"><ele>317.8</ele><time>2026-04-09T15:27:43Z</time></trkpt><trkpt lat="39.23643555979752" lon="9.41418842207005"><ele>319.6</ele><time>2026-04-09T15:27:44Z</time></trkpt><trkpt lat="39.236378281025985" lon="9.414121781695478"><ele>321.4</ele><time>2026-04-09T15:27:46Z</time></trkpt><trkpt lat="39.23626215037203" lon="9.414185275797504"><ele>323.2</ele><time>2026-04-09T15:27:48Z</time></trkpt><trkpt lat="39.23621626479319" lon="9.414264461722764"><ele>325.0</ele><time>2026-04-09T15:27:49Z</time></trkpt><trkpt lat="39.23611373717154" lon="9.414342095229971"><ele>325.0</ele><time>2026-04-09T15:27:51Z</time></trkpt><trkpt lat="39.236036036494546" lon="9.414312429027422"><ele>325.0</ele><time>2026-04-09T15:27:52Z</time></trkpt><trkpt lat="39.235951501246845" lon="9.414259391164466"><ele>325.0</ele><time>2026-04-09T15:27:53Z</time></trkpt><trkpt lat="39.23587748811169" lon="9.414236493611952"><ele>325.0</ele><time>2026-04-09T15:27:54Z</time></trkpt><trkpt lat="39.235802032997725" lon="9.41426710859501"><ele>325.0</ele><time>2026-04-09T15:27:55Z</time></trkpt><trkpt lat="39.23572032141612" lon="9.414314166181779"><ele>325.0</ele><time>2026-04-09T15:27:56Z</time></trkpt><trkpt lat="39.2356001342815" lon="9.414361708801007"><ele>322.4</ele><time>2026-04-09T15:27:57Z</time></trkpt><trkpt lat="39.235487155389876" lon="9.414405511127836"><ele>319.8</ele><time>2026-04-09T15:27:58Z</time></trkpt><trkpt lat="39.235395980334076" lon="9.414420683160301"><ele>317.2</ele><time>2026-04-09T15:27:59Z</time></trkpt><trkpt lat="39.23532051574006" lon="9.414394136959288"><ele>314.6</ele><time>2026-04-09T15:28:00Z</time></trkpt><trkpt lat="39.23524271767911" lon="9.414340934066844"><ele>312.0</ele><time>2026-04-09T15:28:01Z</time></trkpt><trkpt lat="39.235151473297385" lon="9.414290357322939"><ele>312.0</ele><time>2026-04-09T15:28:02Z</time></trkpt><trkpt lat="39.23505444514665" lon="9.414231620938919"><ele>312.0</ele><time>2026-04-09T15:28:03Z</time></trkpt><trkpt lat="39.23496313293328" lon="9.414161665981865"><ele>312.0</ele><time>2026-04-09T15:28:04Z</time></trkpt><trkpt lat="39.23488088095575" lon="9.414095956560013"><ele>312.0</ele><time>2026-04-09T15:28:05Z</time></trkpt><trkpt lat="39.23479993706289" lon="9.414046658152868"><ele>312.0</ele><time>2026-04-09T15:28:06Z</time></trkpt><trkpt lat="39.23471911137341" lon="9.41400679470645"><ele>311.1666666666667</ele><time>2026-04-09T15:28:07Z</time></trkpt><trkpt lat="39.23465417948039" lon="9.413955925448006"><ele>310.3333333333333</ele><time>2026-04-09T15:28:08Z</time></trkpt><trkpt lat="39.23460959625708" lon="9.413876445210642"><ele>309.5</ele><time>2026-04-09T15:28:09Z</time></trkpt><trkpt lat="39.23456747681038" lon="9.41377574710681"><ele>308.66666666666663</ele><time>2026-04-09T15:28:10Z</time></trkpt><trkpt lat="39.23451190855391" lon="9.413684077147277"><ele>307.8333333333333</ele><time>2026-04-09T15:28:11Z</time></trkpt><trkpt lat="39.234436121823464" lon="9.41361487012343"><ele>307.0</ele><time>2026-04-09T15:28:12Z</time></trkpt><trkpt lat="39.23435273245885" lon="9.413554672198327"><ele>307.0</ele><time>2026-04-09T15:28:13Z</time></trkpt><trkpt lat="39.23425754559437" lon="9.41348894133985"><ele>307.0</ele><time>2026-04-09T15:28:14Z</time></trkpt><trkpt lat="39.23415630382744" lon="9.413421868872751"><ele>307.0</ele><time>2026-04-09T15:28:15Z</time></trkpt><trkpt lat="39.23405089561977" lon="9.41336364506987"><ele>307.0</ele><time>2026-04-09T15:28:16Z</time></trkpt><trkpt lat="39.2339433414636" lon="9.413315947254492"><ele>305.2</ele><time>2026-04-09T15:28:17Z</time></trkpt><trkpt lat="39.23383639487826" lon="9.413274330760153"><ele>303.4</ele><time>2026-04-09T15:28:18Z</time></trkpt><trkpt lat="39.23373194416588" lon="9.41324067694499"><ele>301.6</ele><time>2026-04-09T15:28:19Z</time></trkpt><trkpt lat="39.233629985316746" lon="9.413216196981846"><ele>299.8</ele><time>2026-04-09T15:28:20Z</time></trkpt><trkpt lat="39.233528052167344" lon="9.413208693137458"><ele>298.0</ele><time>2026-04-09T15:28:21Z</time></trkpt><trkpt lat="39.23345095687314" lon="9.413224985695338"><ele>298.0</ele><time>2026-04-09T15:28:22Z</time></trkpt><trkpt lat="39.23332859570543" lon="9.413268219852332"><ele>298.0</ele><time>2026-04-09T15:28:24Z</time></trkpt><trkpt lat="39.23324303331248" lon="9.413257238248828"><ele>298.0</ele><time>2026-04-09T15:28:26Z</time></trkpt><trkpt lat="39.23315583229021" lon="9.413228007664715"><ele>298.0</ele><time>2026-04-09T15:28:27Z</time></trkpt><trkpt lat="39.23305192675425" lon="9.4131790892001"><ele>298.0</ele><time>2026-04-09T15:28:28Z</time></trkpt><trkpt lat="39.23293934816207" lon="9.413106406805298"><ele>296.5</ele><time>2026-04-09T15:28:29Z</time></trkpt><trkpt lat="39.23281799522744" lon="9.41302388512445"><ele>295.0</ele><time>2026-04-09T15:28:30Z</time></trkpt><trkpt lat="39.232705588326574" lon="9.412945616913195"><ele>293.5</ele><time>2026-04-09T15:28:31Z</time></trkpt><trkpt lat="39.23261608193952" lon="9.412878771849098"><ele>292.0</ele><time>2026-04-09T15:28:32Z</time></trkpt><trkpt lat="39.2325424867796" lon="9.412804538625462"><ele>293.6</ele><time>2026-04-09T15:28:33Z</time></trkpt><trkpt lat="39.23249002227131" lon="9.412731757726108"><ele>295.2</ele><time>2026-04-09T15:28:34Z</time></trkpt><trkpt lat="39.232454091589474" lon="9.412660794285099"><ele>296.8</ele><time>2026-04-09T15:28:35Z</time></trkpt><trkpt lat="39.232372492280554" lon="9.412555481276774"><ele>298.4</ele><time>2026-04-09T15:28:37Z</time></trkpt><trkpt lat="39.23229918566471" lon="9.412548491336672"><ele>300.0</ele><time>2026-04-09T15:28:38Z</time></trkpt><trkpt lat="39.23217991949357" lon="9.412560890838577"><ele>300.0</ele><time>2026-04-09T15:28:39Z</time></trkpt><trkpt lat="39.2320261397964" lon="9.412557702426604"><ele>300.0</ele><time>2026-04-09T15:28:40Z</time></trkpt><trkpt lat="39.231862785155165" lon="9.412527990337052"><ele>300.0</ele><time>2026-04-09T15:28:41Z</time></trkpt><trkpt lat="39.23170128399462" lon="9.412499974119722"><ele>300.0</ele><time>2026-04-09T15:28:42Z</time></trkpt><trkpt lat="39.231566541276464" lon="9.41247818067414"><ele>300.0</ele><time>2026-04-09T15:28:43Z</time></trkpt><trkpt lat="39.231445528169736" lon="9.412460293933291"><ele>300.0</ele><time>2026-04-09T15:28:44Z</time></trkpt><trkpt lat="39.231348170927994" lon="9.412440105216044"><ele>300.0</ele><time>2026-04-09T15:28:45Z</time></trkpt><trkpt lat="39.23126869693406" lon="9.412402862452552"><ele>300.0</ele><time>2026-04-09T15:28:46Z</time></trkpt><trkpt lat="39.231193228551696" lon="9.412336165534988"><ele>299.2</ele><time>2026-04-09T15:28:47Z</time></trkpt><trkpt lat="39.23110636271569" lon="9.412252907369131"><ele>298.4</ele><time>2026-04-09T15:28:48Z</time></trkpt><trkpt lat="39.23102353311131" lon="9.412161843305647"><ele>297.6</ele><time>2026-04-09T15:28:49Z</time></trkpt><trkpt lat="39.230930971301476" lon="9.41209629965244"><ele>296.8</ele><time>2026-04-09T15:28:50Z</time></trkpt><trkpt lat="39.230812487425034" lon="9.412046288537967"><ele>296.0</ele><time>2026-04-09T15:28:51Z</time></trkpt><trkpt lat="39.2307056749273" lon="9.411997029410069"><ele>295.6</ele><time>2026-04-09T15:28:52Z</time></trkpt><trkpt lat="39.230628149730265" lon="9.411934422688908"><ele>295.20000000000005</ele><time>2026-04-09T15:28:53Z</time></trkpt><trkpt lat="39.23057099379888" lon="9.411866523383374"><ele>294.79999999999995</ele><time>2026-04-09T15:28:54Z</time></trkpt><trkpt lat="39.230518592640934" lon="9.411710699385273"><ele>294.4</ele><time>2026-04-09T15:28:56Z</time></trkpt><trkpt lat="39.23050149853016" lon="9.411572749711576"><ele>294.0</ele><time>2026-04-09T15:28:57Z</time></trkpt><trkpt lat="39.23049391693194" lon="9.411438416457443"><ele>294.0</ele><time>2026-04-09T15:28:58Z</time></trkpt><trkpt lat="39.23048225145873" lon="9.411328937680146"><ele>294.0</ele><time>2026-04-09T15:28:59Z</time></trkpt><trkpt lat="39.230458860213304" lon="9.411230871501646"><ele>294.0</ele><time>2026-04-09T15:29:00Z</time></trkpt><trkpt lat="39.23042439349522" lon="9.41113511978861"><ele>294.0</ele><time>2026-04-09T15:29:01Z</time></trkpt><trkpt lat="39.230377280563545" lon="9.41103051403017"><ele>294.0</ele><time>2026-04-09T15:29:02Z</time></trkpt><trkpt lat="39.23030614273607" lon="9.4109201573913"><ele>295.4</ele><time>2026-04-09T15:29:03Z</time></trkpt><trkpt lat="39.2302307779866" lon="9.410805655880122"><ele>296.79999999999995</ele><time>2026-04-09T15:29:04Z</time></trkpt><trkpt lat="39.230165495636705" lon="9.410683169695414"><ele>298.20000000000005</ele><time>2026-04-09T15:29:05Z</time></trkpt><trkpt lat="39.23010895473018" lon="9.41056037694118"><ele>299.6</ele><time>2026-04-09T15:29:06Z</time></trkpt><trkpt lat="39.230049089791855" lon="9.410452104482893"><ele>301.0</ele><time>2026-04-09T15:29:07Z</time></trkpt><trkpt lat="39.229978190578606" lon="9.41035958708187"><ele>300.66666666666663</ele><time>2026-04-09T15:29:08Z</time></trkpt><trkpt lat="39.22991372371431" lon="9.410280950080503"><ele>300.3333333333333</ele><time>2026-04-09T15:29:09Z</time></trkpt><trkpt lat="39.22986927962199" lon="9.410209911447014"><ele>300.0</ele><time>2026-04-09T15:29:10Z</time></trkpt><trkpt lat="39.229841771356114" lon="9.41011902503941"><ele>299.6666666666667</ele><time>2026-04-09T15:29:11Z</time></trkpt><trkpt lat="39.22982640778564" lon="9.410008313372016"><ele>299.33333333333337</ele><time>2026-04-09T15:29:12Z</time></trkpt><trkpt lat="39.22979384764029" lon="9.409916123480674"><ele>299.0</ele><time>2026-04-09T15:29:12.999Z</time></trkpt><trkpt lat="39.22973548538359" lon="9.40984958923126"><ele>299.0</ele><time>2026-04-09T15:29:13.999Z</time></trkpt><trkpt lat="39.22965256515284" lon="9.4098051129599"><ele>299.0</ele><time>2026-04-09T15:29:14.999Z</time></trkpt><trkpt lat="39.229560529032604" lon="9.409748447241531"><ele>299.0</ele><time>2026-04-09T15:29:15.999Z</time></trkpt><trkpt lat="39.22948318958051" lon="9.409667373062998"><ele>299.0</ele><time>2026-04-09T15:29:16.999Z</time></trkpt><trkpt lat="39.22942609090066" lon="9.409548432309927"><ele>299.0</ele><time>2026-04-09T15:29:17.999Z</time></trkpt><trkpt lat="39.229383539670295" lon="9.4094355844549"><ele>303.25</ele><time>2026-04-09T15:29:18.999Z</time></trkpt><trkpt lat="39.229336399126076" lon="9.409360168794139"><ele>307.5</ele><time>2026-04-09T15:29:19.999Z</time></trkpt><trkpt lat="39.229210362056214" lon="9.409319937012368"><ele>311.75</ele><time>2026-04-09T15:29:21.999Z</time></trkpt><trkpt lat="39.229089488004455" lon="9.409337579591796"><ele>316.0</ele><time>2026-04-09T15:29:22.999Z</time></trkpt><trkpt lat="39.228962483322434" lon="9.409356380049609"><ele>314.0</ele><time>2026-04-09T15:29:23.999Z</time></trkpt><trkpt lat="39.22886783425096" lon="9.409385332460614"><ele>312.0</ele><time>2026-04-09T15:29:24.999Z</time></trkpt><trkpt lat="39.228794476053515" lon="9.40943690726757"><ele>310.0</ele><time>2026-04-09T15:29:25.999Z</time></trkpt><trkpt lat="39.228721297356444" lon="9.409508651038108"><ele>308.0</ele><time>2026-04-09T15:29:26.999Z</time></trkpt><trkpt lat="39.22865323809872" lon="9.409599149791232"><ele>306.0</ele><time>2026-04-09T15:29:27.999Z</time></trkpt><trkpt lat="39.22861199844221" lon="9.409708691660377"><ele>306.0</ele><time>2026-04-09T15:29:28.999Z</time></trkpt><trkpt lat="39.228576236210955" lon="9.409846874887332"><ele>306.0</ele><time>2026-04-09T15:29:29.999Z</time></trkpt><trkpt lat="39.228537635707276" lon="9.409969641619348"><ele>306.0</ele><time>2026-04-09T15:29:30.999Z</time></trkpt><trkpt lat="39.22849341723135" lon="9.410046609420405"><ele>306.0</ele><time>2026-04-09T15:29:31.999Z</time></trkpt><trkpt lat="39.22842827717377" lon="9.41006281746237"><ele>306.0</ele><time>2026-04-09T15:29:32.999Z</time></trkpt><trkpt lat="39.22833528554624" lon="9.410050221465834"><ele>306.0</ele><time>2026-04-09T15:29:33.999Z</time></trkpt><trkpt lat="39.228216272539676" lon="9.41002462443079"><ele>306.0</ele><time>2026-04-09T15:29:34.999Z</time></trkpt><trkpt lat="39.228099465612985" lon="9.410019721602199"><ele>306.0</ele><time>2026-04-09T15:29:35.999Z</time></trkpt><trkpt lat="39.22798790688241" lon="9.41003558125693"><ele>306.0</ele><time>2026-04-09T15:29:36.999Z</time></trkpt><trkpt lat="39.22787690837039" lon="9.410062345004958"><ele>309.25</ele><time>2026-04-09T15:29:37.999Z</time></trkpt><trkpt lat="39.2277502893815" lon="9.410095307258409"><ele>312.5</ele><time>2026-04-09T15:29:38.999Z</time></trkpt><trkpt lat="39.22762194388738" lon="9.410113326973025"><ele>315.75</ele><time>2026-04-09T15:29:39.999Z</time></trkpt><trkpt lat="39.22751096442319" lon="9.410128287289615"><ele>319.0</ele><time>2026-04-09T15:29:41Z</time></trkpt><trkpt lat="39.22742217316993" lon="9.410157962177426"><ele>319.0</ele><time>2026-04-09T15:29:42Z</time></trkpt><trkpt lat="39.22735812231129" lon="9.41021054785986"><ele>319.0</ele><time>2026-04-09T15:29:43Z</time></trkpt><trkpt lat="39.227302338615736" lon="9.410282158593464"><ele>319.0</ele><time>2026-04-09T15:29:44Z</time></trkpt><trkpt lat="39.22723579862944" lon="9.410376631792337"><ele>319.0</ele><time>2026-04-09T15:29:45Z</time></trkpt><trkpt lat="39.22714186278834" lon="9.410464817706922"><ele>319.0</ele><time>2026-04-09T15:29:46Z</time></trkpt><trkpt lat="39.22702597253986" lon="9.410547303407693"><ele>316.8</ele><time>2026-04-09T15:29:47Z</time></trkpt><trkpt lat="39.22692795869522" lon="9.410632578988528"><ele>314.59999999999997</ele><time>2026-04-09T15:29:48Z</time></trkpt><trkpt lat="39.22685338794634" lon="9.410733252895122"><ele>312.4</ele><time>2026-04-09T15:29:49Z</time></trkpt><trkpt lat="39.226796191255325" lon="9.41083094667836"><ele>310.2</ele><time>2026-04-09T15:29:50Z</time></trkpt><trkpt lat="39.22675166231196" lon="9.410909828039792"><ele>308.0</ele><time>2026-04-09T15:29:51Z</time></trkpt><trkpt lat="39.22669858702486" lon="9.410957006721521"><ele>308.0</ele><time>2026-04-09T15:29:52Z</time></trkpt><trkpt lat="39.22662500518815" lon="9.410970267867052"><ele>308.0</ele><time>2026-04-09T15:29:53Z</time></trkpt><trkpt lat="39.226546479915704" lon="9.410933807984232"><ele>308.0</ele><time>2026-04-09T15:29:54Z</time></trkpt><trkpt lat="39.226465481994445" lon="9.410870283033733"><ele>308.0</ele><time>2026-04-09T15:29:55Z</time></trkpt><trkpt lat="39.226388154141894" lon="9.410819004280716"><ele>308.0</ele><time>2026-04-09T15:29:56Z</time></trkpt><trkpt lat="39.22632328697212" lon="9.410760306767402"><ele>308.0</ele><time>2026-04-09T15:29:57Z</time></trkpt><trkpt lat="39.226283082594186" lon="9.41068259623825"><ele>307.0</ele><time>2026-04-09T15:29:58Z</time></trkpt><trkpt lat="39.22627567586197" lon="9.410591826991313"><ele>306.0</ele><time>2026-04-09T15:29:59Z</time></trkpt><trkpt lat="39.22629351398762" lon="9.410494022212948"><ele>305.0</ele><time>2026-04-09T15:30:00Z</time></trkpt><trkpt lat="39.226309637709996" lon="9.410378131609127"><ele>304.0</ele><time>2026-04-09T15:30:01Z</time></trkpt><trkpt lat="39.226313351273525" lon="9.41025375117745"><ele>303.0</ele><time>2026-04-09T15:30:02Z</time></trkpt><trkpt lat="39.22629900046573" lon="9.410126987592166"><ele>302.0</ele><time>2026-04-09T15:30:03Z</time></trkpt><trkpt lat="39.22626510886896" lon="9.410006309725192"><ele>298.5</ele><time>2026-04-09T15:30:04Z</time></trkpt><trkpt lat="39.22621904596954" lon="9.409885740887166"><ele>295.0</ele><time>2026-04-09T15:30:05Z</time></trkpt><trkpt lat="39.226168796666535" lon="9.409755173107873"><ele>291.5</ele><time>2026-04-09T15:30:06Z</time></trkpt><trkpt lat="39.22611675987662" lon="9.409617224286778"><ele>288.0</ele><time>2026-04-09T15:30:07Z</time></trkpt><trkpt lat="39.22605942105887" lon="9.409482479561344"><ele>287.6</ele><time>2026-04-09T15:30:08Z</time></trkpt><trkpt lat="39.22599936414723" lon="9.409357428940314"><ele>287.20000000000005</ele><time>2026-04-09T15:30:09Z</time></trkpt><trkpt lat="39.225940602332365" lon="9.409234997765916"><ele>286.8</ele><time>2026-04-09T15:30:10Z</time></trkpt><trkpt lat="39.22588372697184" lon="9.409115038530388"><ele>286.40000000000003</ele><time>2026-04-09T15:30:11Z</time></trkpt><trkpt lat="39.22582744978855" lon="9.408994699947963"><ele>286.0</ele><time>2026-04-09T15:30:12Z</time></trkpt><trkpt lat="39.22577247940674" lon="9.408878998483901"><ele>285.6</ele><time>2026-04-09T15:30:13Z</time></trkpt><trkpt lat="39.22572201872896" lon="9.408762600578758"><ele>285.20000000000005</ele><time>2026-04-09T15:30:14Z</time></trkpt><trkpt lat="39.225683488078" lon="9.408645624912358"><ele>284.79999999999995</ele><time>2026-04-09T15:30:15Z</time></trkpt><trkpt lat="39.22566166312657" lon="9.408511629312237"><ele>284.4</ele><time>2026-04-09T15:30:16Z</time></trkpt><trkpt lat="39.22565294714907" lon="9.408378376517003"><ele>284.0</ele><time>2026-04-09T15:30:17Z</time></trkpt><trkpt lat="39.22565460257891" lon="9.408238625664847"><ele>284.0</ele><time>2026-04-09T15:30:18Z</time></trkpt><trkpt lat="39.225649912002154" lon="9.408098810501142"><ele>284.0</ele><time>2026-04-09T15:30:19Z</time></trkpt><trkpt lat="39.22563194888495" lon="9.407962564915012"><ele>284.0</ele><time>2026-04-09T15:30:20Z</time></trkpt><trkpt lat="39.22559174561195" lon="9.407838098467447"><ele>284.0</ele><time>2026-04-09T15:30:21Z</time></trkpt><trkpt lat="39.22553427319225" lon="9.407716013172056"><ele>284.0</ele><time>2026-04-09T15:30:22Z</time></trkpt><trkpt lat="39.22548767134814" lon="9.407603643050537"><ele>283.0</ele><time>2026-04-09T15:30:23Z</time></trkpt><trkpt lat="39.22547833581178" lon="9.4075095268804"><ele>282.0</ele><time>2026-04-09T15:30:24Z</time></trkpt><trkpt lat="39.22550281059493" lon="9.407429010468512"><ele>281.0</ele><time>2026-04-09T15:30:25Z</time></trkpt><trkpt lat="39.225555757384285" lon="9.407365515635032"><ele>280.0</ele><time>2026-04-09T15:30:26Z</time></trkpt><trkpt lat="39.225639727566374" lon="9.407296135122046"><ele>279.0</ele><time>2026-04-09T15:30:27Z</time></trkpt><trkpt lat="39.225739227435675" lon="9.407232136709924"><ele>278.0</ele><time>2026-04-09T15:30:28Z</time></trkpt><trkpt lat="39.22581404731438" lon="9.407181050997327"><ele>277.75</ele><time>2026-04-09T15:30:29Z</time></trkpt><trkpt lat="39.22582474601661" lon="9.407046016492869"><ele>277.5</ele><time>2026-04-09T15:30:31Z</time></trkpt><trkpt lat="39.22566776532524" lon="9.406982161764288"><ele>277.25</ele><time>2026-04-09T15:30:33Z</time></trkpt><trkpt lat="39.22553157742275" lon="9.406975824556865"><ele>277.0</ele><time>2026-04-09T15:30:34Z</time></trkpt><trkpt lat="39.22539142285397" lon="9.40699385860808"><ele>273.6</ele><time>2026-04-09T15:30:35Z</time></trkpt><trkpt lat="39.225267330922314" lon="9.40703238070925"><ele>270.2</ele><time>2026-04-09T15:30:36Z</time></trkpt><trkpt lat="39.22517020412474" lon="9.407060553240937"><ele>266.8</ele><time>2026-04-09T15:30:37Z</time></trkpt><trkpt lat="39.22509040460861" lon="9.40705969655806"><ele>263.4</ele><time>2026-04-09T15:30:38Z</time></trkpt><trkpt lat="39.2250277051448" lon="9.407015913434009"><ele>260.0</ele><time>2026-04-09T15:30:39Z</time></trkpt><trkpt lat="39.22498370702013" lon="9.4069403923469"><ele>260.0</ele><time>2026-04-09T15:30:40Z</time></trkpt><trkpt lat="39.22494602928737" lon="9.406831757080758"><ele>260.0</ele><time>2026-04-09T15:30:41Z</time></trkpt><trkpt lat="39.22491622421328" lon="9.406681415428237"><ele>260.0</ele><time>2026-04-09T15:30:42Z</time></trkpt><trkpt lat="39.224897919274035" lon="9.40651857287051"><ele>260.0</ele><time>2026-04-09T15:30:43Z</time></trkpt><trkpt lat="39.22488286183295" lon="9.40636084305525"><ele>260.2</ele><time>2026-04-09T15:30:44Z</time></trkpt><trkpt lat="39.22485673280762" lon="9.406222544546335"><ele>260.4</ele><time>2026-04-09T15:30:45Z</time></trkpt><trkpt lat="39.22481702908046" lon="9.406104221660444"><ele>260.6</ele><time>2026-04-09T15:30:46Z</time></trkpt><trkpt lat="39.22477647436743" lon="9.406010922509656"><ele>260.8</ele><time>2026-04-09T15:30:47Z</time></trkpt><trkpt lat="39.224681929943195" lon="9.405942460104097"><ele>261.0</ele><time>2026-04-09T15:30:49Z</time></trkpt><trkpt lat="39.22452822681019" lon="9.405911973022208"><ele>259.1666666666667</ele><time>2026-04-09T15:30:51Z</time></trkpt><trkpt lat="39.224439989506656" lon="9.40586709631647"><ele>257.3333333333333</ele><time>2026-04-09T15:30:52.001Z</time></trkpt><trkpt lat="39.22437946567881" lon="9.40580395360447"><ele>255.5</ele><time>2026-04-09T15:30:53.001Z</time></trkpt><trkpt lat="39.224325723446356" lon="9.405711056384218"><ele>253.66666666666666</ele><time>2026-04-09T15:30:54.001Z</time></trkpt><trkpt lat="39.22427547990392" lon="9.405628696333352"><ele>251.83333333333331</ele><time>2026-04-09T15:30:55.001Z</time></trkpt><trkpt lat="39.224222075212616" lon="9.405574651054712"><ele>250.0</ele><time>2026-04-09T15:30:56.001Z</time></trkpt><trkpt lat="39.224159569565956" lon="9.405546136646562"><ele>249.99999999999997</ele><time>2026-04-09T15:30:57.001Z</time></trkpt><trkpt lat="39.22409015927448" lon="9.405538959620914"><ele>250.0</ele><time>2026-04-09T15:30:58.001Z</time></trkpt><trkpt lat="39.22399955765198" lon="9.405552395881566"><ele>250.0</ele><time>2026-04-09T15:30:59.001Z</time></trkpt><trkpt lat="39.22389101486087" lon="9.405578605210026"><ele>250.0</ele><time>2026-04-09T15:31:00.001Z</time></trkpt><trkpt lat="39.22380235351788" lon="9.405591596901608"><ele>249.99999999999997</ele><time>2026-04-09T15:31:01.001Z</time></trkpt><trkpt lat="39.223732631224955" lon="9.405565471441395"><ele>250.0</ele><time>2026-04-09T15:31:02.001Z</time></trkpt><trkpt lat="39.223652001320154" lon="9.405491971503146"><ele>250.8</ele><time>2026-04-09T15:31:03.001Z</time></trkpt><trkpt lat="39.22355054726374" lon="9.405405103409453"><ele>251.6</ele><time>2026-04-09T15:31:04.001Z</time></trkpt><trkpt lat="39.223464706142" lon="9.405335461910555"><ele>252.39999999999998</ele><time>2026-04-09T15:31:05.001Z</time></trkpt><trkpt lat="39.223416524567185" lon="9.4052015000125"><ele>253.2</ele><time>2026-04-09T15:31:07.001Z</time></trkpt><trkpt lat="39.22341725285412" lon="9.405078278319232"><ele>254.0</ele><time>2026-04-09T15:31:08.001Z</time></trkpt><trkpt lat="39.22341745920518" lon="9.404911700111674"><ele>254.0</ele><time>2026-04-09T15:31:09.001Z</time></trkpt><trkpt lat="39.22340629908085" lon="9.404744886413672"><ele>253.99999999999997</ele><time>2026-04-09T15:31:10.001Z</time></trkpt><trkpt lat="39.223386452277154" lon="9.404607918387509"><ele>253.99999999999997</ele><time>2026-04-09T15:31:11.001Z</time></trkpt><trkpt lat="39.2233627304283" lon="9.40451044236236"><ele>254.0</ele><time>2026-04-09T15:31:12.001Z</time></trkpt><trkpt lat="39.22327917121443" lon="9.404475381257754"><ele>254.0</ele><time>2026-04-09T15:31:14.001Z</time></trkpt><trkpt lat="39.2232297526488" lon="9.404526604152153"><ele>255.2</ele><time>2026-04-09T15:31:15.001Z</time></trkpt><trkpt lat="39.223172640647796" lon="9.404619146987288"><ele>256.4</ele><time>2026-04-09T15:31:16.001Z</time></trkpt><trkpt lat="39.223106747290096" lon="9.404702090578184"><ele>257.6</ele><time>2026-04-09T15:31:17.001Z</time></trkpt><trkpt lat="39.223024037347145" lon="9.404727415512175"><ele>258.8</ele><time>2026-04-09T15:31:18.001Z</time></trkpt><trkpt lat="39.22292860112457" lon="9.404712497831131"><ele>260.0</ele><time>2026-04-09T15:31:18.999Z</time></trkpt><trkpt lat="39.22283535093301" lon="9.404670912234831"><ele>257.4</ele><time>2026-04-09T15:31:19.999Z</time></trkpt><trkpt lat="39.222745118723154" lon="9.404626116347332"><ele>254.8</ele><time>2026-04-09T15:31:20.999Z</time></trkpt><trkpt lat="39.222665751081394" lon="9.404564252896785"><ele>252.2</ele><time>2026-04-09T15:31:21.999Z</time></trkpt><trkpt lat="39.22257706306968" lon="9.404473894422493"><ele>249.6</ele><time>2026-04-09T15:31:22.999Z</time></trkpt><trkpt lat="39.2224677656295" lon="9.404395524686423"><ele>247.0</ele><time>2026-04-09T15:31:23.999Z</time></trkpt><trkpt lat="39.22234692430787" lon="9.404331447686328"><ele>242.25</ele><time>2026-04-09T15:31:24.999Z</time></trkpt><trkpt lat="39.222228977870955" lon="9.404282742652738"><ele>237.5</ele><time>2026-04-09T15:31:25.999Z</time></trkpt><trkpt lat="39.222114624254694" lon="9.40422880138366"><ele>232.75</ele><time>2026-04-09T15:31:26.999Z</time></trkpt><trkpt lat="39.22200467901731" lon="9.404171089176804"><ele>228.0</ele><time>2026-04-09T15:31:27.999Z</time></trkpt><trkpt lat="39.221900443690075" lon="9.40411430803271"><ele>228.0</ele><time>2026-04-09T15:31:28.999Z</time></trkpt><trkpt lat="39.22180991111605" lon="9.404049901089854"><ele>228.0</ele><time>2026-04-09T15:31:29.999Z</time></trkpt><trkpt lat="39.22173224346105" lon="9.403986935290801"><ele>228.0</ele><time>2026-04-09T15:31:30.999Z</time></trkpt><trkpt lat="39.221666559935485" lon="9.403937663099892"><ele>228.0</ele><time>2026-04-09T15:31:31.999Z</time></trkpt><trkpt lat="39.2215552179052" lon="9.403930202235069"><ele>228.0</ele><time>2026-04-09T15:31:34Z</time></trkpt><trkpt lat="39.22147845017551" lon="9.404048317833366"><ele>228.4</ele><time>2026-04-09T15:31:36Z</time></trkpt><trkpt lat="39.221466801175524" lon="9.404144043925644"><ele>228.8</ele><time>2026-04-09T15:31:37Z</time></trkpt><trkpt lat="39.22144647772071" lon="9.40427374536119"><ele>229.2</ele><time>2026-04-09T15:31:38Z</time></trkpt><trkpt lat="39.22143018764341" lon="9.404424528430024"><ele>229.6</ele><time>2026-04-09T15:31:39Z</time></trkpt><trkpt lat="39.22141282912752" lon="9.404556113396305"><ele>230.0</ele><time>2026-04-09T15:31:40Z</time></trkpt><trkpt lat="39.22139988608678" lon="9.404673709153734"><ele>230.00000000000003</ele><time>2026-04-09T15:31:41Z</time></trkpt><trkpt lat="39.22139572392675" lon="9.40478948203413"><ele>230.0</ele><time>2026-04-09T15:31:42Z</time></trkpt><trkpt lat="39.22140787497261" lon="9.404880119431404"><ele>230.0</ele><time>2026-04-09T15:31:43Z</time></trkpt><trkpt lat="39.221435277188846" lon="9.404969038087218"><ele>230.0</ele><time>2026-04-09T15:31:45Z</time></trkpt><trkpt lat="39.221405214640214" lon="9.405072724817236"><ele>230.00000000000003</ele><time>2026-04-09T15:31:49Z</time></trkpt><trkpt lat="39.221339933602934" lon="9.4051144175735"><ele>230.0</ele><time>2026-04-09T15:31:52Z</time></trkpt><trkpt lat="39.22127567704912" lon="9.405144005495169"><ele>230.0</ele><time>2026-04-09T15:31:54Z</time></trkpt><trkpt lat="39.22118248209922" lon="9.405080882463615"><ele>230.0</ele><time>2026-04-09T15:31:57Z</time></trkpt><trkpt lat="39.22111794886907" lon="9.404981172920179"><ele>230.0</ele><time>2026-04-09T15:31:58Z</time></trkpt><trkpt lat="39.221051378476545" lon="9.404902775215078"><ele>230.0</ele><time>2026-04-09T15:31:59Z</time></trkpt><trkpt lat="39.220994743114694" lon="9.404807817926692"><ele>230.0</ele><time>2026-04-09T15:32:00Z</time></trkpt><trkpt lat="39.2209389991431" lon="9.40470032857333"><ele>229.0</ele><time>2026-04-09T15:32:01Z</time></trkpt><trkpt lat="39.2208848626016" lon="9.404582832446307"><ele>228.0</ele><time>2026-04-09T15:32:02Z</time></trkpt><trkpt lat="39.22083995274001" lon="9.40447276976424"><ele>227.0</ele><time>2026-04-09T15:32:03Z</time></trkpt><trkpt lat="39.22080180182607" lon="9.40435360226641"><ele>226.0</ele><time>2026-04-09T15:32:04Z</time></trkpt><trkpt lat="39.220764032129246" lon="9.40422261906063"><ele>225.0</ele><time>2026-04-09T15:32:05Z</time></trkpt><trkpt lat="39.22072753597598" lon="9.404086992273308"><ele>225.0</ele><time>2026-04-09T15:32:06Z</time></trkpt><trkpt lat="39.220704612717896" lon="9.403937954029121"><ele>225.0</ele><time>2026-04-09T15:32:07Z</time></trkpt><trkpt lat="39.2206874054825" lon="9.403797649575838"><ele>225.0</ele><time>2026-04-09T15:32:08Z</time></trkpt><trkpt lat="39.220673987959195" lon="9.403670045054989"><ele>225.0</ele><time>2026-04-09T15:32:09Z</time></trkpt><trkpt lat="39.22066006381183" lon="9.403566145454498"><ele>225.0</ele><time>2026-04-09T15:32:10Z</time></trkpt><trkpt lat="39.22064703949393" lon="9.403486427333599"><ele>226.33333333333334</ele><time>2026-04-09T15:32:11Z</time></trkpt><trkpt lat="39.22062908387498" lon="9.403369715740052"><ele>227.66666666666669</ele><time>2026-04-09T15:32:13Z</time></trkpt><trkpt lat="39.2206413218425" lon="9.40328582395852"><ele>229.0</ele><time>2026-04-09T15:32:22Z</time></trkpt><trkpt lat="39.22063585031691" lon="9.403174645824084"><ele>230.33333333333334</ele><time>2026-04-09T15:33:26Z</time></trkpt><trkpt lat="39.220611817110736" lon="9.403066021498011"><ele>231.66666666666669</ele><time>2026-04-09T15:33:27Z</time></trkpt><trkpt lat="39.220579328816555" lon="9.40293632253399"><ele>233.0</ele><time>2026-04-09T15:33:28Z</time></trkpt><trkpt lat="39.22055928886805" lon="9.40284088014667"><ele>230.00000000000003</ele><time>2026-04-09T15:33:29Z</time></trkpt><trkpt lat="39.22054056278223" lon="9.402751464326107"><ele>227.0</ele><time>2026-04-09T15:33:30Z</time></trkpt><trkpt lat="39.22050294154341" lon="9.402680530299921"><ele>224.0</ele><time>2026-04-09T15:33:31Z</time></trkpt><trkpt lat="39.22043078872571" lon="9.402613417786206"><ele>221.0</ele><time>2026-04-09T15:33:33Z</time></trkpt><trkpt lat="39.220361968601004" lon="9.40262503995055"><ele>218.00000000000003</ele><time>2026-04-09T15:33:36Z</time></trkpt><trkpt lat="39.220269146155175" lon="9.40264392219963"><ele>215.0</ele><time>2026-04-09T15:33:38Z</time></trkpt><trkpt lat="39.22014634349852" lon="9.402685753942198"><ele>215.0</ele><time>2026-04-09T15:33:40Z</time></trkpt><trkpt lat="39.22007221504715" lon="9.402708840870115"><ele>215.0</ele><time>2026-04-09T15:33:41Z</time></trkpt><trkpt lat="39.2200002610417" lon="9.402735171463103"><ele>215.0</ele><time>2026-04-09T15:33:42Z</time></trkpt><trkpt lat="39.2199406541436" lon="9.402764967898799"><ele>215.0</ele><time>2026-04-09T15:33:43Z</time></trkpt><trkpt lat="39.219877003111584" lon="9.402789957589615"><ele>215.0</ele><time>2026-04-09T15:33:44Z</time></trkpt><trkpt lat="39.21980583192203" lon="9.402796252541478"><ele>215.0</ele><time>2026-04-09T15:33:45Z</time></trkpt><trkpt lat="39.21972263525748" lon="9.402799067704716"><ele>215.0</ele><time>2026-04-09T15:33:46Z</time></trkpt><trkpt lat="39.21963319741199" lon="9.40280395516031"><ele>213.50000000000003</ele><time>2026-04-09T15:33:47Z</time></trkpt><trkpt lat="39.21954287511421" lon="9.402807324920163"><ele>212.0</ele><time>2026-04-09T15:33:48Z</time></trkpt><trkpt lat="39.21945668671576" lon="9.402803963145553"><ele>210.5</ele><time>2026-04-09T15:33:49Z</time></trkpt><trkpt lat="39.219378696291066" lon="9.402794297765373"><ele>209.0</ele><time>2026-04-09T15:33:50Z</time></trkpt><trkpt lat="39.219309955538876" lon="9.402790608610564"><ele>207.50000000000003</ele><time>2026-04-09T15:33:51Z</time></trkpt><trkpt lat="39.21924341614907" lon="9.402802633901974"><ele>206.0</ele><time>2026-04-09T15:33:52Z</time></trkpt><trkpt lat="39.21910740884336" lon="9.40286495206716"><ele>206.00000000000003</ele><time>2026-04-09T15:33:54Z</time></trkpt><trkpt lat="39.21900937474206" lon="9.402832144661081"><ele>206.0</ele><time>2026-04-09T15:33:56Z</time></trkpt><trkpt lat="39.21897547224846" lon="9.40274709217784"><ele>206.0</ele><time>2026-04-09T15:33:57Z</time></trkpt><trkpt lat="39.218926166802554" lon="9.402628405878675"><ele>206.0</ele><time>2026-04-09T15:33:58Z</time></trkpt><trkpt lat="39.21887480087964" lon="9.402532518525307"><ele>206.00000000000003</ele><time>2026-04-09T15:33:59Z</time></trkpt><trkpt lat="39.21880872124631" lon="9.402476758438276"><ele>206.0</ele><time>2026-04-09T15:34:00Z</time></trkpt><trkpt lat="39.21871359732082" lon="9.402426154655968"><ele>207.20000000000002</ele><time>2026-04-09T15:34:01Z</time></trkpt><trkpt lat="39.21860480890744" lon="9.402379245932115"><ele>208.4</ele><time>2026-04-09T15:34:02Z</time></trkpt><trkpt lat="39.21849668646086" lon="9.402326121663965"><ele>209.6</ele><time>2026-04-09T15:34:03Z</time></trkpt><trkpt lat="39.218402427238324" lon="9.402260353324701"><ele>210.8</ele><time>2026-04-09T15:34:04Z</time></trkpt><trkpt lat="39.21831895690632" lon="9.402193882884937"><ele>212.0</ele><time>2026-04-09T15:34:05Z</time></trkpt><trkpt lat="39.218247229226556" lon="9.40211560242202"><ele>209.16666666666669</ele><time>2026-04-09T15:34:06Z</time></trkpt><trkpt lat="39.21819097510604" lon="9.402027205506378"><ele>206.33333333333334</ele><time>2026-04-09T15:34:07Z</time></trkpt><trkpt lat="39.218150872872314" lon="9.401938030870419"><ele>203.5</ele><time>2026-04-09T15:34:08Z</time></trkpt><trkpt lat="39.21813146315893" lon="9.40182808982857"><ele>200.66666666666669</ele><time>2026-04-09T15:34:09Z</time></trkpt><trkpt lat="39.21810385224235" lon="9.401707209420039"><ele>197.83333333333334</ele><time>2026-04-09T15:34:10.001Z</time></trkpt><trkpt lat="39.21805787982823" lon="9.401619192073772"><ele>195.0</ele><time>2026-04-09T15:34:11.001Z</time></trkpt><trkpt lat="39.21799180314349" lon="9.401552174415317"><ele>195.0</ele><time>2026-04-09T15:34:12.001Z</time></trkpt><trkpt lat="39.217900171515595" lon="9.401500774904417"><ele>195.0</ele><time>2026-04-09T15:34:13.001Z</time></trkpt><trkpt lat="39.21779694889929" lon="9.401458308738796"><ele>195.0</ele><time>2026-04-09T15:34:14.001Z</time></trkpt><trkpt lat="39.21768576010378" lon="9.401422823945294"><ele>195.0</ele><time>2026-04-09T15:34:15.001Z</time></trkpt><trkpt lat="39.21758553075194" lon="9.401389028029858"><ele>195.0</ele><time>2026-04-09T15:34:16.001Z</time></trkpt><trkpt lat="39.21749453084696" lon="9.401345694932337"><ele>193.8</ele><time>2026-04-09T15:34:17.001Z</time></trkpt><trkpt lat="39.2174123841035" lon="9.401306137387252"><ele>192.6</ele><time>2026-04-09T15:34:18.001Z</time></trkpt><trkpt lat="39.217339219934516" lon="9.401278249933524"><ele>191.39999999999998</ele><time>2026-04-09T15:34:19.001Z</time></trkpt><trkpt lat="39.21724253053956" lon="9.401263251701916"><ele>190.2</ele><time>2026-04-09T15:34:21.001Z</time></trkpt><trkpt lat="39.217083363513595" lon="9.401317712321774"><ele>189.0</ele><time>2026-04-09T15:34:23.001Z</time></trkpt><trkpt lat="39.216981901096034" lon="9.401341397241305"><ele>189.0</ele><time>2026-04-09T15:34:24.001Z</time></trkpt><trkpt lat="39.216877041893966" lon="9.401352199872303"><ele>189.0</ele><time>2026-04-09T15:34:25.001Z</time></trkpt><trkpt lat="39.216777780800925" lon="9.40134412751591"><ele>189.0</ele><time>2026-04-09T15:34:26.001Z</time></trkpt><trkpt lat="39.21668156758927" lon="9.401342134979862"><ele>189.0</ele><time>2026-04-09T15:34:27.001Z</time></trkpt><trkpt lat="39.21660426400756" lon="9.401348480899287"><ele>189.0</ele><time>2026-04-09T15:34:28.001Z</time></trkpt><trkpt lat="39.21648963185018" lon="9.401333794019408"><ele>186.39999999999998</ele><time>2026-04-09T15:34:30.001Z</time></trkpt><trkpt lat="39.21645348270483" lon="9.401257118752046"><ele>183.8</ele><time>2026-04-09T15:34:32.001Z</time></trkpt><trkpt lat="39.21647973895905" lon="9.40112126997077"><ele>181.2</ele><time>2026-04-09T15:34:34.001Z</time></trkpt><trkpt lat="39.2164990739302" lon="9.401008035704672"><ele>178.60000000000002</ele><time>2026-04-09T15:34:35.001Z</time></trkpt><trkpt lat="39.21651021556689" lon="9.400847478427604"><ele>176.0</ele><time>2026-04-09T15:34:36.001Z</time></trkpt><trkpt lat="39.21650427441979" lon="9.40071280574099"><ele>178.16666666666666</ele><time>2026-04-09T15:34:37.001Z</time></trkpt><trkpt lat="39.216475955795204" lon="9.400609343720932"><ele>180.33333333333331</ele><time>2026-04-09T15:34:38.001Z</time></trkpt><trkpt lat="39.216443405092285" lon="9.400533034308895"><ele>182.5</ele><time>2026-04-09T15:34:39.001Z</time></trkpt><trkpt lat="39.21639382214843" lon="9.40045637562627"><ele>184.66666666666666</ele><time>2026-04-09T15:34:40.001Z</time></trkpt><trkpt lat="39.21633300157062" lon="9.400371759268753"><ele>186.83333333333334</ele><time>2026-04-09T15:34:41.001Z</time></trkpt><trkpt lat="39.21628112805978" lon="9.40028140131087"><ele>189.0</ele><time>2026-04-09T15:34:42.001Z</time></trkpt><trkpt lat="39.21625487529227" lon="9.400200052326362"><ele>189.0</ele><time>2026-04-09T15:34:43.001Z</time></trkpt><trkpt lat="39.21623682021896" lon="9.400098918997463"><ele>189.0</ele><time>2026-04-09T15:34:44.001Z</time></trkpt><trkpt lat="39.21622141568742" lon="9.399992491103871"><ele>189.0</ele><time>2026-04-09T15:34:45.001Z</time></trkpt><trkpt lat="39.216207175055956" lon="9.399907755072428"><ele>189.0</ele><time>2026-04-09T15:34:46.001Z</time></trkpt><trkpt lat="39.21617638914744" lon="9.399835016882188"><ele>189.0</ele><time>2026-04-09T15:34:48.001Z</time></trkpt><trkpt lat="39.2160881717965" lon="9.399763539219062"><ele>189.0</ele><time>2026-04-09T15:35:04.001Z</time></trkpt><trkpt lat="39.216003361129864" lon="9.399710666536144"><ele>187.39999999999998</ele><time>2026-04-09T15:35:05.001Z</time></trkpt><trkpt lat="39.21590964666937" lon="9.399647842224908"><ele>185.8</ele><time>2026-04-09T15:35:06.001Z</time></trkpt><trkpt lat="39.215830043429115" lon="9.399570918296554"><ele>184.2</ele><time>2026-04-09T15:35:07.001Z</time></trkpt><trkpt lat="39.2157691997393" lon="9.399490583590604"><ele>182.60000000000002</ele><time>2026-04-09T15:35:08.001Z</time></trkpt><trkpt lat="39.21570987007419" lon="9.399402225260879"><ele>181.0</ele><time>2026-04-09T15:35:09.001Z</time></trkpt><trkpt lat="39.21565035309482" lon="9.399301342837978"><ele>181.0</ele><time>2026-04-09T15:35:10.001Z</time></trkpt><trkpt lat="39.21560226588349" lon="9.399211299243326"><ele>181.0</ele><time>2026-04-09T15:35:11.001Z</time></trkpt><trkpt lat="39.21555674683859" lon="9.399124342677458"><ele>181.0</ele><time>2026-04-09T15:35:12.001Z</time></trkpt><trkpt lat="39.21548189739614" lon="9.399011552976637"><ele>181.0</ele><time>2026-04-09T15:35:14.001Z</time></trkpt><trkpt lat="39.21536835586257" lon="9.398983644857966"><ele>181.0</ele><time>2026-04-09T15:35:16.001Z</time></trkpt><trkpt lat="39.215300309013784" lon="9.399013969786578"><ele>181.0</ele><time>2026-04-09T15:35:17.001Z</time></trkpt><trkpt lat="39.21523630485782" lon="9.399043327855374"><ele>181.0</ele><time>2026-04-09T15:35:18.001Z</time></trkpt><trkpt lat="39.2151348032814" lon="9.39901559511402"><ele>181.0</ele><time>2026-04-09T15:35:20.001Z</time></trkpt><trkpt lat="39.21509685670442" lon="9.398947722873977"><ele>181.0</ele><time>2026-04-09T15:35:21.001Z</time></trkpt><trkpt lat="39.21507081618205" lon="9.398861729540664"><ele>181.0</ele><time>2026-04-09T15:35:22.001Z</time></trkpt><trkpt lat="39.21506564966557" lon="9.398751262950896"><ele>181.0</ele><time>2026-04-09T15:35:23.001Z</time></trkpt><trkpt lat="39.215079328492536" lon="9.398621623682752"><ele>178.8</ele><time>2026-04-09T15:35:24.001Z</time></trkpt><trkpt lat="39.215103474810654" lon="9.398517169160767"><ele>176.60000000000002</ele><time>2026-04-09T15:35:25.001Z</time></trkpt><trkpt lat="39.215132251557066" lon="9.398432745150869"><ele>174.4</ele><time>2026-04-09T15:35:26.001Z</time></trkpt><trkpt lat="39.21513096737447" lon="9.398255169719757"><ele>172.2</ele><time>2026-04-09T15:35:28.001Z</time></trkpt><trkpt lat="39.21509120297492" lon="9.398160985470337"><ele>170.0</ele><time>2026-04-09T15:35:29.001Z</time></trkpt><trkpt lat="39.21503067511533" lon="9.398071917128997"><ele>170.0</ele><time>2026-04-09T15:35:30.002Z</time></trkpt><trkpt lat="39.21497010887441" lon="9.398010624684588"><ele>170.0</ele><time>2026-04-09T15:35:31Z</time></trkpt><trkpt lat="39.214884591741956" lon="9.397920782557993"><ele>170.0</ele><time>2026-04-09T15:35:33Z</time></trkpt><trkpt lat="39.21489367605022" lon="9.397823488863494"><ele>170.0</ele><time>2026-04-09T15:35:35Z</time></trkpt><trkpt lat="39.21501425013878" lon="9.397760890501722"><ele>170.0</ele><time>2026-04-09T15:35:37Z</time></trkpt><trkpt lat="39.2150955275936" lon="9.397732018789219"><ele>171.0</ele><time>2026-04-09T15:35:38Z</time></trkpt><trkpt lat="39.21521762319277" lon="9.397693913871814"><ele>172.0</ele><time>2026-04-09T15:35:39Z</time></trkpt><trkpt lat="39.215315050565245" lon="9.397646020857264"><ele>173.0</ele><time>2026-04-09T15:35:40Z</time></trkpt><trkpt lat="39.215387039294676" lon="9.39760140684248"><ele>174.0</ele><time>2026-04-09T15:35:41Z</time></trkpt><trkpt lat="39.2154467279688" lon="9.397546921554117"><ele>175.0</ele><time>2026-04-09T15:35:42Z</time></trkpt><trkpt lat="39.21549406126054" lon="9.397422508323427"><ele>175.0</ele><time>2026-04-09T15:35:44Z</time></trkpt><trkpt lat="39.21544027349795" lon="9.397251665615794"><ele>175.0</ele><time>2026-04-09T15:35:46Z</time></trkpt><trkpt lat="39.21538048496935" lon="9.397157174637176"><ele>175.0</ele><time>2026-04-09T15:35:47Z</time></trkpt><trkpt lat="39.21531753524015" lon="9.39704969722887"><ele>175.0</ele><time>2026-04-09T15:35:48Z</time></trkpt><trkpt lat="39.21527207921594" lon="9.396937642151126"><ele>175.0</ele><time>2026-04-09T15:35:49Z</time></trkpt><trkpt lat="39.215242412102256" lon="9.396819096899128"><ele>175.0</ele><time>2026-04-09T15:35:50Z</time></trkpt><trkpt lat="39.215225478399496" lon="9.39669122203642"><ele>175.0</ele><time>2026-04-09T15:35:51Z</time></trkpt><trkpt lat="39.21522362326481" lon="9.39658684144958"><ele>175.0</ele><time>2026-04-09T15:35:52Z</time></trkpt><trkpt lat="39.21524009452705" lon="9.396507867256258"><ele>175.0</ele><time>2026-04-09T15:35:53Z</time></trkpt><trkpt lat="39.215263217580386" lon="9.396414029494693"><ele>175.0</ele><time>2026-04-09T15:35:54Z</time></trkpt><trkpt lat="39.21528723330973" lon="9.396294854281185"><ele>175.0</ele><time>2026-04-09T15:35:55Z</time></trkpt><trkpt lat="39.21529863747173" lon="9.396173872630417"><ele>175.0</ele><time>2026-04-09T15:35:56Z</time></trkpt><trkpt lat="39.21529329784364" lon="9.3960890409982"><ele>175.0</ele><time>2026-04-09T15:35:57Z</time></trkpt><trkpt lat="39.21527737560577" lon="9.395989894835473"><ele>175.0</ele><time>2026-04-09T15:35:58Z</time></trkpt><trkpt lat="39.21525785229589" lon="9.3958906888757"><ele>175.0</ele><time>2026-04-09T15:35:59Z</time></trkpt><trkpt lat="39.21522028919125" lon="9.395804490425725"><ele>175.0</ele><time>2026-04-09T15:36:00Z</time></trkpt><trkpt lat="39.215165393542144" lon="9.395717743206744"><ele>175.0</ele><time>2026-04-09T15:36:01Z</time></trkpt><trkpt lat="39.2150883742452" lon="9.39565615935228"><ele>175.0</ele><time>2026-04-09T15:36:02Z</time></trkpt><trkpt lat="39.21498308188382" lon="9.395603281671665"><ele>175.0</ele><time>2026-04-09T15:36:03Z</time></trkpt><trkpt lat="39.214873281679054" lon="9.395558810314943"><ele>175.0</ele><time>2026-04-09T15:36:04Z</time></trkpt><trkpt lat="39.21479450934218" lon="9.395552540851227"><ele>175.0</ele><time>2026-04-09T15:36:05Z</time></trkpt><trkpt lat="39.21471674520199" lon="9.395565207529087"><ele>175.0</ele><time>2026-04-09T15:36:06Z</time></trkpt><trkpt lat="39.21463020410124" lon="9.39561934897337"><ele>174.0</ele><time>2026-04-09T15:36:07Z</time></trkpt><trkpt lat="39.21452623137139" lon="9.39569270416886"><ele>173.0</ele><time>2026-04-09T15:36:08Z</time></trkpt><trkpt lat="39.21442467618253" lon="9.395749256238243"><ele>172.0</ele><time>2026-04-09T15:36:09Z</time></trkpt><trkpt lat="39.214322643291304" lon="9.395752469963108"><ele>171.0</ele><time>2026-04-09T15:36:10Z</time></trkpt><trkpt lat="39.21416370648726" lon="9.395736688109212"><ele>171.0</ele><time>2026-04-09T15:36:11Z</time></trkpt><trkpt lat="39.21401575902482" lon="9.395726454870296"><ele>171.0</ele><time>2026-04-09T15:36:12.001Z</time></trkpt><trkpt lat="39.21390369710306" lon="9.3957384822174"><ele>171.0</ele><time>2026-04-09T15:36:13.001Z</time></trkpt><trkpt lat="39.21380262064626" lon="9.395762246087543"><ele>171.0</ele><time>2026-04-09T15:36:14.001Z</time></trkpt><trkpt lat="39.21370659462983" lon="9.395753499286965"><ele>169.60000000000002</ele><time>2026-04-09T15:36:15.001Z</time></trkpt><trkpt lat="39.213610690910606" lon="9.395712451776587"><ele>168.2</ele><time>2026-04-09T15:36:16.001Z</time></trkpt><trkpt lat="39.21350694153361" lon="9.395648592611222"><ele>166.8</ele><time>2026-04-09T15:36:17.001Z</time></trkpt><trkpt lat="39.213411629754326" lon="9.395590273650328"><ele>165.39999999999998</ele><time>2026-04-09T15:36:18.001Z</time></trkpt><trkpt lat="39.213343083920726" lon="9.395559925085516"><ele>164.0</ele><time>2026-04-09T15:36:19.001Z</time></trkpt><trkpt lat="39.213214157640934" lon="9.395603339028982"><ele>160.0</ele><time>2026-04-09T15:36:21.001Z</time></trkpt><trkpt lat="39.21312696683249" lon="9.395658480577438"><ele>156.0</ele><time>2026-04-09T15:36:22.001Z</time></trkpt><trkpt lat="39.21268591195271" lon="9.395998371773768"><ele>156.0</ele><time>2026-04-09T15:36:27.82Z</time></trkpt><trkpt lat="39.21254409015105" lon="9.395964005970765"><ele>156.0</ele><time>2026-04-09T15:36:29.001Z</time></trkpt><trkpt lat="39.21241232663319" lon="9.395949505278278"><ele>156.0</ele><time>2026-04-09T15:36:30.001Z</time></trkpt><trkpt lat="39.21231295917109" lon="9.39594615251701"><ele>156.0</ele><time>2026-04-09T15:36:31.001Z</time></trkpt><trkpt lat="39.21221849512235" lon="9.395948918545056"><ele>159.0</ele><time>2026-04-09T15:36:32.001Z</time></trkpt><trkpt lat="39.21213186815307" lon="9.395931651824522"><ele>162.0</ele><time>2026-04-09T15:36:33.001Z</time></trkpt><trkpt lat="39.21204440299348" lon="9.395878342920351"><ele>165.0</ele><time>2026-04-09T15:36:34Z</time></trkpt><trkpt lat="39.21197185762153" lon="9.395812461161423"><ele>168.0</ele><time>2026-04-09T15:36:35Z</time></trkpt><trkpt lat="39.2119250027828" lon="9.395734258004833"><ele>171.0</ele><time>2026-04-09T15:36:36Z</time></trkpt><trkpt lat="39.21190505385325" lon="9.395656054848242"><ele>174.0</ele><time>2026-04-09T15:36:37Z</time></trkpt><trkpt lat="39.2119006952636" lon="9.395553292715359"><ele>170.79999999999998</ele><time>2026-04-09T15:36:38Z</time></trkpt><trkpt lat="39.21191565696076" lon="9.395420523369122"><ele>167.6</ele><time>2026-04-09T15:36:39Z</time></trkpt><trkpt lat="39.21190371274874" lon="9.395289765679646"><ele>164.4</ele><time>2026-04-09T15:36:40Z</time></trkpt><trkpt lat="39.21189457851358" lon="9.395153420507924"><ele>161.2</ele><time>2026-04-09T15:36:41Z</time></trkpt><trkpt lat="39.21185672153259" lon="9.395032794382061"><ele>158.0</ele><time>2026-04-09T15:36:42Z</time></trkpt><trkpt lat="39.21183892012134" lon="9.394952852483613"><ele>158.0</ele><time>2026-04-09T15:36:43Z</time></trkpt><trkpt lat="39.21177710697731" lon="9.394873406416691"><ele>158.0</ele><time>2026-04-09T15:36:44Z</time></trkpt><trkpt lat="39.211697357707344" lon="9.394774611302326"><ele>158.0</ele><time>2026-04-09T15:36:45Z</time></trkpt><trkpt lat="39.21156978152226" lon="9.394664072723897"><ele>158.0</ele><time>2026-04-09T15:36:46Z</time></trkpt><trkpt lat="39.21144289011198" lon="9.394565973581116"><ele>155.5</ele><time>2026-04-09T15:36:47Z</time></trkpt><trkpt lat="39.21136965876629" lon="9.39446778222398"><ele>153.0</ele><time>2026-04-09T15:36:48Z</time></trkpt><trkpt lat="39.21127177587282" lon="9.39432373676144"><ele>150.5</ele><time>2026-04-09T15:36:49Z</time></trkpt><trkpt lat="39.21120580973257" lon="9.394205141430731"><ele>148.0</ele><time>2026-04-09T15:36:50Z</time></trkpt><trkpt lat="39.21069785024897" lon="9.393737269574212"><ele>146.6</ele><time>2026-04-09T15:36:55.285Z</time></trkpt><trkpt lat="39.21061021745131" lon="9.393758978703426"><ele>145.20000000000002</ele><time>2026-04-09T15:36:57Z</time></trkpt><trkpt lat="39.210560093670345" lon="9.393826033928798"><ele>143.8</ele><time>2026-04-09T15:36:58Z</time></trkpt><trkpt lat="39.210489182769514" lon="9.393926868223952"><ele>142.4</ele><time>2026-04-09T15:36:59Z</time></trkpt><trkpt lat="39.210421373172856" lon="9.394016554587887"><ele>141.0</ele><time>2026-04-09T15:37:00Z</time></trkpt><trkpt lat="39.21035494659022" lon="9.39409140498321"><ele>141.0</ele><time>2026-04-09T15:37:01Z</time></trkpt><trkpt lat="39.210276114790894" lon="9.394158795484708"><ele>141.0</ele><time>2026-04-09T15:37:02Z</time></trkpt><trkpt lat="39.21020826328472" lon="9.394200537362503"><ele>141.0</ele><time>2026-04-09T15:37:03Z</time></trkpt><trkpt lat="39.21013064686135" lon="9.394231550404237"><ele>141.0</ele><time>2026-04-09T15:37:05Z</time></trkpt><trkpt lat="39.21003350060359" lon="9.394173296177195"><ele>141.0</ele><time>2026-04-09T15:37:07Z</time></trkpt><trkpt lat="39.20991890621962" lon="9.394046932285296"><ele>139.4</ele><time>2026-04-09T15:37:09Z</time></trkpt><trkpt lat="39.20982393794758" lon="9.393947670528283"><ele>137.8</ele><time>2026-04-09T15:37:10Z</time></trkpt><trkpt lat="39.20975054885978" lon="9.393871387213032"><ele>136.20000000000002</ele><time>2026-04-09T15:37:11Z</time></trkpt><trkpt lat="39.20965882967635" lon="9.3937708051514"><ele>134.6</ele><time>2026-04-09T15:37:12Z</time></trkpt><trkpt lat="39.20958691922146" lon="9.393667916011145"><ele>133.0</ele><time>2026-04-09T15:37:13Z</time></trkpt><trkpt lat="39.20954245891059" lon="9.393562017789884"><ele>129.0</ele><time>2026-04-09T15:37:14Z</time></trkpt><trkpt lat="39.20950750829575" lon="9.393399916195895"><ele>125.0</ele><time>2026-04-09T15:37:16Z</time></trkpt><trkpt lat="39.20941961104677" lon="9.393321763713635"><ele>121.0</ele><time>2026-04-09T15:37:18Z</time></trkpt><trkpt lat="39.20933322589468" lon="9.39337637145954"><ele>117.0</ele><time>2026-04-09T15:37:20Z</time></trkpt><trkpt lat="39.20915951171532" lon="9.393480796913211"><ele>117.0</ele><time>2026-04-09T15:37:22Z</time></trkpt><trkpt lat="39.20904997708647" lon="9.393468250255895"><ele>116.99999999999999</ele><time>2026-04-09T15:37:23Z</time></trkpt><trkpt lat="39.20895517061052" lon="9.393441231292842"><ele>116.99999999999999</ele><time>2026-04-09T15:37:24Z</time></trkpt><trkpt lat="39.208865896313874" lon="9.39337158167511"><ele>117.0</ele><time>2026-04-09T15:37:25Z</time></trkpt><trkpt lat="39.20877999353109" lon="9.393285496964914"><ele>117.0</ele><time>2026-04-09T15:37:26Z</time></trkpt><trkpt lat="39.20871798274365" lon="9.393203374655284"><ele>115.8</ele><time>2026-04-09T15:37:27Z</time></trkpt><trkpt lat="39.208647888323206" lon="9.393130892535838"><ele>114.6</ele><time>2026-04-09T15:37:28Z</time></trkpt><trkpt lat="39.20858949592549" lon="9.393025023262126"><ele>113.39999999999999</ele><time>2026-04-09T15:37:29Z</time></trkpt><trkpt lat="39.20855949060065" lon="9.39290458536335"><ele>112.19999999999999</ele><time>2026-04-09T15:37:30Z</time></trkpt><trkpt lat="39.208541319819666" lon="9.392797162272833"><ele>111.0</ele><time>2026-04-09T15:37:31Z</time></trkpt><trkpt lat="39.20853035239246" lon="9.392675451372025"><ele>111.0</ele><time>2026-04-09T15:37:32Z</time></trkpt><trkpt lat="39.20851123053249" lon="9.392557498226733"><ele>111.0</ele><time>2026-04-09T15:37:33Z</time></trkpt><trkpt lat="39.2084724428649" lon="9.392456362015894"><ele>111.0</ele><time>2026-04-09T15:37:34Z</time></trkpt><trkpt lat="39.20841166162068" lon="9.392378503676472"><ele>111.0</ele><time>2026-04-09T15:37:35Z</time></trkpt><trkpt lat="39.20832603089974" lon="9.392287870521336"><ele>111.0</ele><time>2026-04-09T15:37:36Z</time></trkpt><trkpt lat="39.20825641316836" lon="9.392193212875974"><ele>109.83333333333333</ele><time>2026-04-09T15:37:37Z</time></trkpt><trkpt lat="39.20821938465412" lon="9.392115754995686"><ele>108.66666666666666</ele><time>2026-04-09T15:37:38Z</time></trkpt><trkpt lat="39.20818947521434" lon="9.392005229984886"><ele>107.5</ele><time>2026-04-09T15:37:39Z</time></trkpt><trkpt lat="39.20816883080834" lon="9.391886025536861"><ele>106.33333333333333</ele><time>2026-04-09T15:37:40Z</time></trkpt><trkpt lat="39.208149000160454" lon="9.39178219397613"><ele>105.16666666666666</ele><time>2026-04-09T15:37:41Z</time></trkpt><trkpt lat="39.20811301592101" lon="9.391677216426631"><ele>104.0</ele><time>2026-04-09T15:37:42Z</time></trkpt><trkpt lat="39.20806239451366" lon="9.39158681201565"><ele>104.0</ele><time>2026-04-09T15:37:43Z</time></trkpt><trkpt lat="39.20799529233921" lon="9.391473048606782"><ele>104.0</ele><time>2026-04-09T15:37:44Z</time></trkpt><trkpt lat="39.20792649595043" lon="9.391361379211473"><ele>104.0</ele><time>2026-04-09T15:37:45Z</time></trkpt><trkpt lat="39.207859539194025" lon="9.39125932919469"><ele>104.0</ele><time>2026-04-09T15:37:46Z</time></trkpt><trkpt lat="39.207792335731135" lon="9.391149892533415"><ele>104.0</ele><time>2026-04-09T15:37:47Z</time></trkpt><trkpt lat="39.20775026789018" lon="9.391073829266526"><ele>100.16666666666666</ele><time>2026-04-09T15:37:48Z</time></trkpt><trkpt lat="39.207704214522195" lon="9.390991296467574"><ele>96.33333333333333</ele><time>2026-04-09T15:37:49Z</time></trkpt><trkpt lat="39.20765477460979" lon="9.390922255235127"><ele>92.5</ele><time>2026-04-09T15:37:50Z</time></trkpt><trkpt lat="39.20757893270755" lon="9.390825528663123"><ele>88.66666666666666</ele><time>2026-04-09T15:37:51Z</time></trkpt><trkpt lat="39.20750144287105" lon="9.390734631702632"><ele>84.83333333333333</ele><time>2026-04-09T15:37:52Z</time></trkpt><trkpt lat="39.20744049628863" lon="9.390671879028352"><ele>81.0</ele><time>2026-04-09T15:37:53Z</time></trkpt><trkpt lat="39.20737572588981" lon="9.39059959131286"><ele>81.0</ele><time>2026-04-09T15:37:54.001Z</time></trkpt><trkpt lat="39.207332620011776" lon="9.390533809017322"><ele>81.0</ele><time>2026-04-09T15:37:55.001Z</time></trkpt><trkpt lat="39.20731236725415" lon="9.390436886381012"><ele>81.0</ele><time>2026-04-09T15:37:56.001Z</time></trkpt><trkpt lat="39.20734699518146" lon="9.390300335476244"><ele>81.0</ele><time>2026-04-09T15:37:58.001Z</time></trkpt><trkpt lat="39.20739610568905" lon="9.39024568018206"><ele>81.0</ele><time>2026-04-09T15:37:59.001Z</time></trkpt><trkpt lat="39.20746999074872" lon="9.390200776131197"><ele>81.0</ele><time>2026-04-09T15:38:00.001Z</time></trkpt><trkpt lat="39.20753667749301" lon="9.390154268457303"><ele>80.0</ele><time>2026-04-09T15:38:01.001Z</time></trkpt><trkpt lat="39.20756151758957" lon="9.390040652714049"><ele>79.0</ele><time>2026-04-09T15:38:03.001Z</time></trkpt><trkpt lat="39.20752134287249" lon="9.389887094487275"><ele>78.0</ele><time>2026-04-09T15:38:05.001Z</time></trkpt><trkpt lat="39.207456717147664" lon="9.389793395174483"><ele>77.0</ele><time>2026-04-09T15:38:07.001Z</time></trkpt><trkpt lat="39.20731245555617" lon="9.389716522455739"><ele>76.0</ele><time>2026-04-09T15:38:09.001Z</time></trkpt><trkpt lat="39.20721972946809" lon="9.38965347920278"><ele>75.0</ele><time>2026-04-09T15:38:10.001Z</time></trkpt><trkpt lat="39.207112512475724" lon="9.38957311033971"><ele>74.0</ele><time>2026-04-09T15:38:11.001Z</time></trkpt><trkpt lat="39.2070262294368" lon="9.389537686609843"><ele>73.0</ele><time>2026-04-09T15:38:12.001Z</time></trkpt><trkpt lat="39.20693399653263" lon="9.389515700287498"><ele>72.0</ele><time>2026-04-09T15:38:13.001Z</time></trkpt><trkpt lat="39.20686745479454" lon="9.389477508015943"><ele>72.0</ele><time>2026-04-09T15:38:14.001Z</time></trkpt><trkpt lat="39.206805682071895" lon="9.389421887774722"><ele>72.0</ele><time>2026-04-09T15:38:15.001Z</time></trkpt><trkpt lat="39.20675937272197" lon="9.389357605474519"><ele>72.0</ele><time>2026-04-09T15:38:16.001Z</time></trkpt><trkpt lat="39.206683482940456" lon="9.38923726642564"><ele>72.0</ele><time>2026-04-09T15:38:18.001Z</time></trkpt><trkpt lat="39.206640520867246" lon="9.389168395313629"><ele>72.0</ele><time>2026-04-09T15:38:19.001Z</time></trkpt><trkpt lat="39.20660742651259" lon="9.389076548518187"><ele>72.0</ele><time>2026-04-09T15:38:20.001Z</time></trkpt><trkpt lat="39.206574142860205" lon="9.388948284696477"><ele>71.6</ele><time>2026-04-09T15:38:21.001Z</time></trkpt><trkpt lat="39.206540513824095" lon="9.388828106114982"><ele>71.2</ele><time>2026-04-09T15:38:22.001Z</time></trkpt><trkpt lat="39.206491001970726" lon="9.388734564552509"><ele>70.8</ele><time>2026-04-09T15:38:23.001Z</time></trkpt><trkpt lat="39.206426983735916" lon="9.388645592916092"><ele>70.4</ele><time>2026-04-09T15:38:24.001Z</time></trkpt><trkpt lat="39.20635772976939" lon="9.388575186621518"><ele>70.0</ele><time>2026-04-09T15:38:25.001Z</time></trkpt><trkpt lat="39.20627679342822" lon="9.388489720184308"><ele>70.0</ele><time>2026-04-09T15:38:26.001Z</time></trkpt><trkpt lat="39.20620018420673" lon="9.388408310401227"><ele>70.0</ele><time>2026-04-09T15:38:27.001Z</time></trkpt><trkpt lat="39.20611965844877" lon="9.388312424193558"><ele>70.0</ele><time>2026-04-09T15:38:28.001Z</time></trkpt><trkpt lat="39.20603156789616" lon="9.388200784754947"><ele>70.0</ele><time>2026-04-09T15:38:29.001Z</time></trkpt><trkpt lat="39.205957889270465" lon="9.388098224757549"><ele>70.0</ele><time>2026-04-09T15:38:30.001Z</time></trkpt><trkpt lat="39.205895077215075" lon="9.387997559849842"><ele>69.25</ele><time>2026-04-09T15:38:31.001Z</time></trkpt><trkpt lat="39.205825021791654" lon="9.387882567039613"><ele>68.5</ele><time>2026-04-09T15:38:32.001Z</time></trkpt><trkpt lat="39.205753652924386" lon="9.387746678933695"><ele>67.75</ele><time>2026-04-09T15:38:33.001Z</time></trkpt><trkpt lat="39.20568939153273" lon="9.387599160457505"><ele>67.0</ele><time>2026-04-09T15:38:34.001Z</time></trkpt><trkpt lat="39.205638797297055" lon="9.387449477598713"><ele>67.0</ele><time>2026-04-09T15:38:35.001Z</time></trkpt><trkpt lat="39.2055902616014" lon="9.387281969452113"><ele>67.0</ele><time>2026-04-09T15:38:36.001Z</time></trkpt><trkpt lat="39.205547267603365" lon="9.387129893925982"><ele>67.0</ele><time>2026-04-09T15:38:37.001Z</time></trkpt><trkpt lat="39.20549531059029" lon="9.386985772566538"><ele>67.0</ele><time>2026-04-09T15:38:38.001Z</time></trkpt><trkpt lat="39.20544709639377" lon="9.38686281580184"><ele>67.6</ele><time>2026-04-09T15:38:39.001Z</time></trkpt><trkpt lat="39.2054036045694" lon="9.386763979575672"><ele>68.2</ele><time>2026-04-09T15:38:40.001Z</time></trkpt><trkpt lat="39.205364890540224" lon="9.386675589536894"><ele>68.8</ele><time>2026-04-09T15:38:41.001Z</time></trkpt><trkpt lat="39.20531614030918" lon="9.38657981104003"><ele>69.4</ele><time>2026-04-09T15:38:42.001Z</time></trkpt><trkpt lat="39.2052467019067" lon="9.386487358690754"><ele>70.0</ele><time>2026-04-09T15:38:43.001Z</time></trkpt><trkpt lat="39.205162544967415" lon="9.386402666723777"><ele>68.75</ele><time>2026-04-09T15:38:44.001Z</time></trkpt><trkpt lat="39.20504653369206" lon="9.386292327588928"><ele>67.5</ele><time>2026-04-09T15:38:45.001Z</time></trkpt><trkpt lat="39.204915739917794" lon="9.386176268506404"><ele>66.25</ele><time>2026-04-09T15:38:46.001Z</time></trkpt><trkpt lat="39.20480758999588" lon="9.386079140325435"><ele>65.0</ele><time>2026-04-09T15:38:47.001Z</time></trkpt><trkpt lat="39.204713264121516" lon="9.3859868896421"><ele>65.0</ele><time>2026-04-09T15:38:48.001Z</time></trkpt><trkpt lat="39.2046337885262" lon="9.385903587335688"><ele>65.0</ele><time>2026-04-09T15:38:49.001Z</time></trkpt><trkpt lat="39.20456631619351" lon="9.385818259549092"><ele>65.0</ele><time>2026-04-09T15:38:50.001Z</time></trkpt><trkpt lat="39.20450850639419" lon="9.385709772111788"><ele>65.0</ele><time>2026-04-09T15:38:51.001Z</time></trkpt><trkpt lat="39.2044575652326" lon="9.385597899299157"><ele>65.0</ele><time>2026-04-09T15:38:52.001Z</time></trkpt><trkpt lat="39.20439481110805" lon="9.385482389172154"><ele>66.6</ele><time>2026-04-09T15:38:53.001Z</time></trkpt><trkpt lat="39.204313053967205" lon="9.385361733862036"><ele>68.2</ele><time>2026-04-09T15:38:54.001Z</time></trkpt><trkpt lat="39.20424415229842" lon="9.385266657156302"><ele>69.8</ele><time>2026-04-09T15:38:55.001Z</time></trkpt><trkpt lat="39.20419057040968" lon="9.385183195596404"><ele>71.4</ele><time>2026-04-09T15:38:56.001Z</time></trkpt><trkpt lat="39.20413309732837" lon="9.385109717237473"><ele>73.0</ele><time>2026-04-09T15:38:57.001Z</time></trkpt><trkpt lat="39.20405132949076" lon="9.385036954115742"><ele>71.25</ele><time>2026-04-09T15:38:58.001Z</time></trkpt><trkpt lat="39.20395608195599" lon="9.384961304366914"><ele>69.5</ele><time>2026-04-09T15:38:59.001Z</time></trkpt><trkpt lat="39.20385345447967" lon="9.38489553264949"><ele>67.75</ele><time>2026-04-09T15:39:00.001Z</time></trkpt><trkpt lat="39.20375010200063" lon="9.384843862091282"><ele>66.0</ele><time>2026-04-09T15:39:01.001Z</time></trkpt><trkpt lat="39.20363894399847" lon="9.384815310042079"><ele>66.0</ele><time>2026-04-09T15:39:02.001Z</time></trkpt><trkpt lat="39.20352880674828" lon="9.384793215130685"><ele>66.0</ele><time>2026-04-09T15:39:03.001Z</time></trkpt><trkpt lat="39.20343609583082" lon="9.384768066068794"><ele>66.0</ele><time>2026-04-09T15:39:04.001Z</time></trkpt><trkpt lat="39.20335684169541" lon="9.384745977313358"><ele>66.0</ele><time>2026-04-09T15:39:05.001Z</time></trkpt><trkpt lat="39.203266467852494" lon="9.38474577575211"><ele>66.0</ele><time>2026-04-09T15:39:06.001Z</time></trkpt><trkpt lat="39.203182945803256" lon="9.384759641652813"><ele>65.6</ele><time>2026-04-09T15:39:07Z</time></trkpt><trkpt lat="39.20305999263745" lon="9.384702634947757"><ele>65.19999999999999</ele><time>2026-04-09T15:39:09Z</time></trkpt><trkpt lat="39.202998063218516" lon="9.384643464114149"><ele>64.80000000000001</ele><time>2026-04-09T15:39:10Z</time></trkpt><trkpt lat="39.20292547542097" lon="9.384611752617284"><ele>64.4</ele><time>2026-04-09T15:39:11Z</time></trkpt><trkpt lat="39.20284663580862" lon="9.384632791387657"><ele>64.0</ele><time>2026-04-09T15:39:12Z</time></trkpt><trkpt lat="39.20274216289755" lon="9.384698241777507"><ele>64.0</ele><time>2026-04-09T15:39:13Z</time></trkpt><trkpt lat="39.20262181591789" lon="9.384760070556242"><ele>64.0</ele><time>2026-04-09T15:39:14Z</time></trkpt><trkpt lat="39.20249350974134" lon="9.384798577067453"><ele>64.0</ele><time>2026-04-09T15:39:15Z</time></trkpt><trkpt lat="39.20238244451768" lon="9.38483475309656"><ele>64.0</ele><time>2026-04-09T15:39:16Z</time></trkpt><trkpt lat="39.20227313283945" lon="9.384861396437628"><ele>63.25</ele><time>2026-04-09T15:39:17Z</time></trkpt><trkpt lat="39.20217475230916" lon="9.384865242237664"><ele>62.5</ele><time>2026-04-09T15:39:18Z</time></trkpt><trkpt lat="39.20206753375652" lon="9.384854558898285"><ele>61.75</ele><time>2026-04-09T15:39:19Z</time></trkpt><trkpt lat="39.20192977510897" lon="9.384827053005605"><ele>61.0</ele><time>2026-04-09T15:39:20Z</time></trkpt><trkpt lat="39.201757553098965" lon="9.384800320838476"><ele>61.0</ele><time>2026-04-09T15:39:21Z</time></trkpt><trkpt lat="39.20161965066411" lon="9.384790867130851"><ele>61.0</ele><time>2026-04-09T15:39:22Z</time></trkpt><trkpt lat="39.20150263124287" lon="9.384778383810644"><ele>61.0</ele><time>2026-04-09T15:39:23Z</time></trkpt><trkpt lat="39.20139732636054" lon="9.384740745364994"><ele>61.0</ele><time>2026-04-09T15:39:24Z</time></trkpt><trkpt lat="39.20127819404572" lon="9.384676796896645"><ele>61.666666666666664</ele><time>2026-04-09T15:39:25Z</time></trkpt><trkpt lat="39.20112915397458" lon="9.384586628388199"><ele>62.33333333333333</ele><time>2026-04-09T15:39:26Z</time></trkpt><trkpt lat="39.200941091095935" lon="9.384482218399013"><ele>63.0</ele><time>2026-04-09T15:39:27Z</time></trkpt><trkpt lat="39.20076650519843" lon="9.384379298783912"><ele>59.66666666666667</ele><time>2026-04-09T15:39:28Z</time></trkpt><trkpt lat="39.200616826490446" lon="9.384292937853525"><ele>56.333333333333336</ele><time>2026-04-09T15:39:29Z</time></trkpt><trkpt lat="39.20047695615305" lon="9.384202050125005"><ele>53.0</ele><time>2026-04-09T15:39:30Z</time></trkpt><trkpt lat="39.20035929855289" lon="9.384104742259181"><ele>53.0</ele><time>2026-04-09T15:39:31Z</time></trkpt><trkpt lat="39.20026902816519" lon="9.384010840899657"><ele>53.0</ele><time>2026-04-09T15:39:32Z</time></trkpt><trkpt lat="39.20017731297077" lon="9.383908627905837"><ele>53.0</ele><time>2026-04-09T15:39:33Z</time></trkpt><trkpt lat="39.200077388638796" lon="9.383738284212916"><ele>53.0</ele><time>2026-04-09T15:39:34Z</time></trkpt><trkpt lat="39.19996916345023" lon="9.38354038654346"><ele>53.0</ele><time>2026-04-09T15:39:35Z</time></trkpt><trkpt lat="39.199849106284674" lon="9.383323571882777"><ele>53.0</ele><time>2026-04-09T15:39:36Z</time></trkpt><trkpt lat="39.19974910544327" lon="9.383133166406697"><ele>53.0</ele><time>2026-04-09T15:39:37Z</time></trkpt><trkpt lat="39.199641290251584" lon="9.382952235962307"><ele>53.0</ele><time>2026-04-09T15:39:38Z</time></trkpt><trkpt lat="39.19954442155296" lon="9.382779170382454"><ele>53.0</ele><time>2026-04-09T15:39:39Z</time></trkpt><trkpt lat="39.19946266104385" lon="9.382610764790625"><ele>53.0</ele><time>2026-04-09T15:39:40Z</time></trkpt><trkpt lat="39.19938383993686" lon="9.38249461170773"><ele>53.0</ele><time>2026-04-09T15:39:41Z</time></trkpt><trkpt lat="39.199270798942266" lon="9.382278957353936"><ele>52.0</ele><time>2026-04-09T15:39:42Z</time></trkpt><trkpt lat="39.199173969955716" lon="9.382113292400104"><ele>51.0</ele><time>2026-04-09T15:39:43Z</time></trkpt><trkpt lat="39.19910260871504" lon="9.382000057461283"><ele>50.0</ele><time>2026-04-09T15:39:44Z</time></trkpt><trkpt lat="39.199020875996034" lon="9.381900403977648"><ele>49.0</ele><time>2026-04-09T15:39:45Z</time></trkpt><trkpt lat="39.19894294614577" lon="9.381798700174857"><ele>49.0</ele><time>2026-04-09T15:39:46Z</time></trkpt><trkpt lat="39.19886949604599" lon="9.38168783883365"><ele>49.0</ele><time>2026-04-09T15:39:47Z</time></trkpt><trkpt lat="39.19881188120064" lon="9.381576769221663"><ele>49.0</ele><time>2026-04-09T15:39:48Z</time></trkpt><trkpt lat="39.19873271054655" lon="9.381471866207024"><ele>49.0</ele><time>2026-04-09T15:39:49Z</time></trkpt><trkpt lat="39.19865019850115" lon="9.381389781755392"><ele>49.0</ele><time>2026-04-09T15:39:50Z</time></trkpt><trkpt lat="39.19856134751517" lon="9.381303210063509"><ele>50.0</ele><time>2026-04-09T15:39:51Z</time></trkpt><trkpt lat="39.19847254242773" lon="9.381177707568819"><ele>51.0</ele><time>2026-04-09T15:39:52Z</time></trkpt><trkpt lat="39.19837266772426" lon="9.381018263522282"><ele>52.0</ele><time>2026-04-09T15:39:53Z</time></trkpt><trkpt lat="39.198288902190356" lon="9.380895217334354"><ele>53.0</ele><time>2026-04-09T15:39:54Z</time></trkpt><trkpt lat="39.19822506645156" lon="9.380804960042584"><ele>53.0</ele><time>2026-04-09T15:39:55Z</time></trkpt><trkpt lat="39.19817140471317" lon="9.380725514903913"><ele>53.0</ele><time>2026-04-09T15:39:56Z</time></trkpt><trkpt lat="39.1981394273359" lon="9.380646049838296"><ele>53.0</ele><time>2026-04-09T15:39:57Z</time></trkpt><trkpt lat="39.19810950759567" lon="9.380537177539992"><ele>53.0</ele><time>2026-04-09T15:39:58Z</time></trkpt><trkpt lat="39.1980537144617" lon="9.380440950658576"><ele>53.0</ele><time>2026-04-09T15:40:00Z</time></trkpt><trkpt lat="39.197915139633984" lon="9.380476583965885"><ele>55.0</ele><time>2026-04-09T15:40:03Z</time></trkpt><trkpt lat="39.197830188529366" lon="9.380486957510053"><ele>57.0</ele><time>2026-04-09T15:40:04Z</time></trkpt><trkpt lat="39.1977399487486" lon="9.380456969037004"><ele>59.0</ele><time>2026-04-09T15:40:05Z</time></trkpt><trkpt lat="39.19764213864186" lon="9.38039856440131"><ele>61.0</ele><time>2026-04-09T15:40:06Z</time></trkpt><trkpt lat="39.19750914020458" lon="9.38032546476145"><ele>63.0</ele><time>2026-04-09T15:40:07Z</time></trkpt><trkpt lat="39.19737976262698" lon="9.380250825335805"><ele>63.25</ele><time>2026-04-09T15:40:08Z</time></trkpt><trkpt lat="39.19726893735702" lon="9.38017605027327"><ele>63.5</ele><time>2026-04-09T15:40:09Z</time></trkpt><trkpt lat="39.19714539070231" lon="9.380132855421959"><ele>63.75</ele><time>2026-04-09T15:40:10.001Z</time></trkpt><trkpt lat="39.197018965373964" lon="9.380138617841782"><ele>64.0</ele><time>2026-04-09T15:40:11.001Z</time></trkpt><trkpt lat="39.19686993537629" lon="9.380162925342944"><ele>64.0</ele><time>2026-04-09T15:40:12.001Z</time></trkpt><trkpt lat="39.19673744948465" lon="9.380195119005258"><ele>64.0</ele><time>2026-04-09T15:40:13.001Z</time></trkpt><trkpt lat="39.19661977604547" lon="9.380251727561237"><ele>64.0</ele><time>2026-04-09T15:40:14.001Z</time></trkpt><trkpt lat="39.19650127297707" lon="9.380327527836306"><ele>64.0</ele><time>2026-04-09T15:40:15.001Z</time></trkpt><trkpt lat="39.196388301258985" lon="9.380400305843933"><ele>65.75</ele><time>2026-04-09T15:40:16.001Z</time></trkpt><trkpt lat="39.19627442133545" lon="9.380469228691215"><ele>67.5</ele><time>2026-04-09T15:40:17.001Z</time></trkpt><trkpt lat="39.196159535932495" lon="9.380525238966456"><ele>69.25</ele><time>2026-04-09T15:40:18.001Z</time></trkpt><trkpt lat="39.196032363509545" lon="9.380580699562488"><ele>71.0</ele><time>2026-04-09T15:40:19.001Z</time></trkpt><trkpt lat="39.1958778707575" lon="9.380636103233574"><ele>63.66666666666667</ele><time>2026-04-09T15:40:20.001Z</time></trkpt><trkpt lat="39.195724621810704" lon="9.380686221272468"><ele>56.33333333333333</ele><time>2026-04-09T15:40:21.001Z</time></trkpt><trkpt lat="39.19556146164528" lon="9.380731007400254"><ele>49.0</ele><time>2026-04-09T15:40:22.001Z</time></trkpt><trkpt lat="39.195385584365994" lon="9.380780161632009"><ele>49.0</ele><time>2026-04-09T15:40:23.001Z</time></trkpt><trkpt lat="39.195213861406145" lon="9.380830047288596"><ele>49.0</ele><time>2026-04-09T15:40:24.001Z</time></trkpt><trkpt lat="39.19507044040991" lon="9.38087891491097"><ele>49.0</ele><time>2026-04-09T15:40:25.001Z</time></trkpt><trkpt lat="39.19495043262538" lon="9.380910558726002"><ele>49.0</ele><time>2026-04-09T15:40:26.001Z</time></trkpt><trkpt lat="39.19482715951578" lon="9.380925426842591"><ele>48.33333333333333</ele><time>2026-04-09T15:40:27.001Z</time></trkpt><trkpt lat="39.19466592433637" lon="9.38094576499505"><ele>47.666666666666664</ele><time>2026-04-09T15:40:28.001Z</time></trkpt><trkpt lat="39.194497398089624" lon="9.380974507430214"><ele>47.0</ele><time>2026-04-09T15:40:29.001Z</time></trkpt><trkpt lat="39.194352527517005" lon="9.381004959633751"><ele>47.0</ele><time>2026-04-09T15:40:30.001Z</time></trkpt><trkpt lat="39.19419898705471" lon="9.38102057529393"><ele>47.0</ele><time>2026-04-09T15:40:31.001Z</time></trkpt><trkpt lat="39.194068472295186" lon="9.381044208051275"><ele>47.0</ele><time>2026-04-09T15:40:32.001Z</time></trkpt><trkpt lat="39.19394211228354" lon="9.381098628277202"><ele>47.0</ele><time>2026-04-09T15:40:33.001Z</time></trkpt><trkpt lat="39.19381668085065" lon="9.38114710322066"><ele>46.2</ele><time>2026-04-09T15:40:34.001Z</time></trkpt><trkpt lat="39.193683008746625" lon="9.381210111621172"><ele>45.400000000000006</ele><time>2026-04-09T15:40:35.001Z</time></trkpt><trkpt lat="39.19356753345431" lon="9.381258258669162"><ele>44.599999999999994</ele><time>2026-04-09T15:40:36.001Z</time></trkpt><trkpt lat="39.19347282333081" lon="9.38128569302344"><ele>43.8</ele><time>2026-04-09T15:40:37.001Z</time></trkpt><trkpt lat="39.193394372142066" lon="9.381286559978408"><ele>43.0</ele><time>2026-04-09T15:40:38.001Z</time></trkpt><trkpt lat="39.19332286185943" lon="9.38126210233074"><ele>43.0</ele><time>2026-04-09T15:40:39.001Z</time></trkpt><trkpt lat="39.19325136041106" lon="9.381210048890402"><ele>43.0</ele><time>2026-04-09T15:40:40.001Z</time></trkpt><trkpt lat="39.19316848766911" lon="9.381113590191918"><ele>43.0</ele><time>2026-04-09T15:40:41.001Z</time></trkpt><trkpt lat="39.193068639031054" lon="9.380972895231636"><ele>43.0</ele><time>2026-04-09T15:40:42.001Z</time></trkpt><trkpt lat="39.19295400099427" lon="9.38080393114678"><ele>42.333333333333336</ele><time>2026-04-09T15:40:43.001Z</time></trkpt><trkpt lat="39.19282387673429" lon="9.380624396053296"><ele>41.666666666666664</ele><time>2026-04-09T15:40:44.001Z</time></trkpt><trkpt lat="39.19269677595759" lon="9.380471621935687"><ele>41.0</ele><time>2026-04-09T15:40:45.001Z</time></trkpt><trkpt lat="39.19259298081015" lon="9.380365949805"><ele>41.0</ele><time>2026-04-09T15:40:46.001Z</time></trkpt><trkpt lat="39.19251098660698" lon="9.380274528658763"><ele>41.0</ele><time>2026-04-09T15:40:47.001Z</time></trkpt><trkpt lat="39.19244885131305" lon="9.38017635393617"><ele>41.0</ele><time>2026-04-09T15:40:48.001Z</time></trkpt><trkpt lat="39.19239915572955" lon="9.38006151710477"><ele>41.0</ele><time>2026-04-09T15:40:49.001Z</time></trkpt><trkpt lat="39.19236251386232" lon="9.379950069961366"><ele>41.0</ele><time>2026-04-09T15:40:50.001Z</time></trkpt><trkpt lat="39.19231183955569" lon="9.379780986243656"><ele>38.666666666666664</ele><time>2026-04-09T15:40:51.001Z</time></trkpt><trkpt lat="39.19224414003008" lon="9.379595595846917"><ele>36.333333333333336</ele><time>2026-04-09T15:40:52.001Z</time></trkpt><trkpt lat="39.19215894405159" lon="9.379443462281069"><ele>34.0</ele><time>2026-04-09T15:40:53.001Z</time></trkpt><trkpt lat="39.192061627847075" lon="9.379296063412768"><ele>34.0</ele><time>2026-04-09T15:40:54.001Z</time></trkpt><trkpt lat="39.19197174810964" lon="9.379173370902077"><ele>34.0</ele><time>2026-04-09T15:40:55.001Z</time></trkpt><trkpt lat="39.191880081308184" lon="9.37907062949837"><ele>34.0</ele><time>2026-04-09T15:40:56.001Z</time></trkpt><trkpt lat="39.19176366196124" lon="9.378965069328748"><ele>34.0</ele><time>2026-04-09T15:40:57.001Z</time></trkpt><trkpt lat="39.19162535990138" lon="9.378875027794333"><ele>34.5</ele><time>2026-04-09T15:40:58.001Z</time></trkpt><trkpt lat="39.19148529730716" lon="9.37879648355225"><ele>35.0</ele><time>2026-04-09T15:40:59.001Z</time></trkpt><trkpt lat="39.19135473888597" lon="9.37872208852638"><ele>35.5</ele><time>2026-04-09T15:41:00.001Z</time></trkpt><trkpt lat="39.19123086262442" lon="9.378637219982366"><ele>36.0</ele><time>2026-04-09T15:41:01.001Z</time></trkpt><trkpt lat="39.19109613375662" lon="9.378538733933086"><ele>36.0</ele><time>2026-04-09T15:41:02.001Z</time></trkpt><trkpt lat="39.190946958415076" lon="9.3784278732024"><ele>36.0</ele><time>2026-04-09T15:41:03.001Z</time></trkpt><trkpt lat="39.19077670516793" lon="9.37829794405876"><ele>36.0</ele><time>2026-04-09T15:41:04.001Z</time></trkpt><trkpt lat="39.19060683883402" lon="9.3781748838769"><ele>33.666666666666664</ele><time>2026-04-09T15:41:05.001Z</time></trkpt><trkpt lat="39.19046466998679" lon="9.37807928000344"><ele>31.333333333333332</ele><time>2026-04-09T15:41:06.001Z</time></trkpt><trkpt lat="39.19032191133014" lon="9.37799742981629"><ele>29.0</ele><time>2026-04-09T15:41:07.001Z</time></trkpt><trkpt lat="39.190187040483295" lon="9.377926783055136"><ele>32.0</ele><time>2026-04-09T15:41:08.001Z</time></trkpt><trkpt lat="39.19006751159728" lon="9.377872569044518"><ele>35.0</ele><time>2026-04-09T15:41:09.001Z</time></trkpt><trkpt lat="39.18993173829815" lon="9.377836621621654"><ele>38.0</ele><time>2026-04-09T15:41:10.001Z</time></trkpt><trkpt lat="39.18975775426474" lon="9.377813447511624"><ele>41.0</ele><time>2026-04-09T15:41:11.001Z</time></trkpt><trkpt lat="39.18956053954696" lon="9.377800728725209"><ele>41.0</ele><time>2026-04-09T15:41:12.001Z</time></trkpt><trkpt lat="39.189370444827496" lon="9.377800106097881"><ele>41.0</ele><time>2026-04-09T15:41:13Z</time></trkpt><trkpt lat="39.18919408156867" lon="9.37781127299211"><ele>41.0</ele><time>2026-04-09T15:41:14Z</time></trkpt><trkpt lat="39.1890349237681" lon="9.377821343781562"><ele>38.25</ele><time>2026-04-09T15:41:15Z</time></trkpt><trkpt lat="39.18888531043904" lon="9.377818575155322"><ele>35.5</ele><time>2026-04-09T15:41:16Z</time></trkpt><trkpt lat="39.188761107651445" lon="9.377801527567447"><ele>32.75</ele><time>2026-04-09T15:41:17Z</time></trkpt><trkpt lat="39.18864120357249" lon="9.377756482596444"><ele>30.0</ele><time>2026-04-09T15:41:18Z</time></trkpt><trkpt lat="39.188523778153865" lon="9.37768919910257"><ele>30.0</ele><time>2026-04-09T15:41:19Z</time></trkpt><trkpt lat="39.188405180703725" lon="9.3776051692179"><ele>30.0</ele><time>2026-04-09T15:41:20Z</time></trkpt><trkpt lat="39.18829734575731" lon="9.377524444743692"><ele>30.0</ele><time>2026-04-09T15:41:21Z</time></trkpt><trkpt lat="39.18820557233868" lon="9.37745559225855"><ele>30.0</ele><time>2026-04-09T15:41:22Z</time></trkpt><trkpt lat="39.18813581677485" lon="9.377397992232815"><ele>30.0</ele><time>2026-04-09T15:41:23Z</time></trkpt><trkpt lat="39.188073065806336" lon="9.377343643168611"><ele>30.0</ele><time>2026-04-09T15:41:24Z</time></trkpt><trkpt lat="39.18800924053406" lon="9.37729758712468"><ele>30.0</ele><time>2026-04-09T15:41:25Z</time></trkpt><trkpt lat="39.187908395968" lon="9.377210812635877"><ele>30.0</ele><time>2026-04-09T15:41:27Z</time></trkpt><trkpt lat="39.187806087379855" lon="9.377119077447318"><ele>30.0</ele><time>2026-04-09T15:41:29Z</time></trkpt><trkpt lat="39.18770032860712" lon="9.37703346683122"><ele>30.0</ele><time>2026-04-09T15:41:31Z</time></trkpt><trkpt lat="39.187611020095" lon="9.37696472256549"><ele>30.0</ele><time>2026-04-09T15:41:33Z</time></trkpt><trkpt lat="39.18752559434499" lon="9.3768792230726"><ele>30.0</ele><time>2026-04-09T15:41:35Z</time></trkpt><trkpt lat="39.18745235734083" lon="9.376802049623286"><ele>30.0</ele><time>2026-04-09T15:41:37Z</time></trkpt><trkpt lat="39.187378381486205" lon="9.376729787046653"><ele>30.0</ele><time>2026-04-09T15:41:39Z</time></trkpt><trkpt lat="39.18732278461673" lon="9.376657411196858"><ele>30.0</ele><time>2026-04-09T15:41:41Z</time></trkpt><trkpt lat="39.18725859775947" lon="9.376589448263482"><ele>30.833333333333332</ele><time>2026-04-09T15:41:43Z</time></trkpt><trkpt lat="39.18719729002769" lon="9.3765181651741"><ele>31.666666666666664</ele><time>2026-04-09T15:41:45Z</time></trkpt><trkpt lat="39.187139168421226" lon="9.376445057832164"><ele>32.5</ele><time>2026-04-09T15:41:47Z</time></trkpt><trkpt lat="39.18708382321316" lon="9.376378120662528"><ele>33.33333333333333</ele><time>2026-04-09T15:41:49Z</time></trkpt><trkpt lat="39.18702198003536" lon="9.376310556747946"><ele>34.166666666666664</ele><time>2026-04-09T15:41:51Z</time></trkpt><trkpt lat="39.18696392841945" lon="9.376239033548526"><ele>35.0</ele><time>2026-04-09T15:41:53Z</time></trkpt><trkpt lat="39.186905070122236" lon="9.376178360860882"><ele>35.0</ele><time>2026-04-09T15:41:55Z</time></trkpt><trkpt lat="39.18683908039566" lon="9.3761337168435"><ele>35.0</ele><time>2026-04-09T15:41:57Z</time></trkpt><trkpt lat="39.186753151091615" lon="9.376066872557423"><ele>35.0</ele><time>2026-04-09T15:42:00Z</time></trkpt><trkpt lat="39.186694569883755" lon="9.376032615644473"><ele>35.0</ele><time>2026-04-09T15:42:02Z</time></trkpt><trkpt lat="39.186629695995066" lon="9.376011656846313"><ele>35.0</ele><time>2026-04-09T15:42:04Z</time></trkpt><trkpt lat="39.18654680237009" lon="9.375982268586476"><ele>35.0</ele><time>2026-04-09T15:42:06Z</time></trkpt><trkpt lat="39.1864574831728" lon="9.375956715351148"><ele>34.0</ele><time>2026-04-09T15:42:08Z</time></trkpt><trkpt lat="39.18637085642556" lon="9.375941131223584"><ele>33.0</ele><time>2026-04-09T15:42:10Z</time></trkpt><trkpt lat="39.186296996708876" lon="9.375925767252106"><ele>32.0</ele><time>2026-04-09T15:42:12Z</time></trkpt><trkpt lat="39.186198245677346" lon="9.37588377817706"><ele>31.0</ele><time>2026-04-09T15:42:14Z</time></trkpt><trkpt lat="39.18609211884933" lon="9.375869235492528"><ele>30.0</ele><time>2026-04-09T15:42:16.001Z</time></trkpt><trkpt lat="39.185999150771295" lon="9.375853206326651"><ele>30.0</ele><time>2026-04-09T15:42:18.001Z</time></trkpt><trkpt lat="39.185896040008636" lon="9.375857094062717"><ele>30.0</ele><time>2026-04-09T15:42:20.001Z</time></trkpt><trkpt lat="39.185793396510746" lon="9.375866797271035"><ele>30.0</ele><time>2026-04-09T15:42:22.001Z</time></trkpt><trkpt lat="39.185679701571146" lon="9.375872710477596"><ele>30.0</ele><time>2026-04-09T15:42:24.001Z</time></trkpt><trkpt lat="39.1855594663023" lon="9.375877534860189"><ele>30.0</ele><time>2026-04-09T15:42:26.001Z</time></trkpt><trkpt lat="39.185442838732484" lon="9.375917665670384"><ele>31.666666666666668</ele><time>2026-04-09T15:42:28.001Z</time></trkpt><trkpt lat="39.185326830641756" lon="9.375974201503118"><ele>33.333333333333336</ele><time>2026-04-09T15:42:30.001Z</time></trkpt><trkpt lat="39.18526462595525" lon="9.376011805750842"><ele>35.0</ele><time>2026-04-09T15:42:31.001Z</time></trkpt><trkpt lat="39.18521095028758" lon="9.376060202523416"><ele>36.66666666666667</ele><time>2026-04-09T15:42:32.001Z</time></trkpt><trkpt lat="39.185155817680254" lon="9.376110464031497"><ele>38.333333333333336</ele><time>2026-04-09T15:42:33.001Z</time></trkpt><trkpt lat="39.1850957944077" lon="9.376175131358607"><ele>40.0</ele><time>2026-04-09T15:42:34.001Z</time></trkpt><trkpt lat="39.185035164409186" lon="9.376246029974057"><ele>40.0</ele><time>2026-04-09T15:42:35.001Z</time></trkpt><trkpt lat="39.18497340921949" lon="9.376319718421685"><ele>40.0</ele><time>2026-04-09T15:42:36.001Z</time></trkpt><trkpt lat="39.18491091501447" lon="9.376396466667162"><ele>40.0</ele><time>2026-04-09T15:42:37.001Z</time></trkpt><trkpt lat="39.1848485011554" lon="9.37647230728709"><ele>40.0</ele><time>2026-04-09T15:42:38.001Z</time></trkpt><trkpt lat="39.18478092911455" lon="9.376548153610294"><ele>40.0</ele><time>2026-04-09T15:42:39.001Z</time></trkpt><trkpt lat="39.1847075745316" lon="9.376630204695763"><ele>40.0</ele><time>2026-04-09T15:42:40.001Z</time></trkpt><trkpt lat="39.18463442514079" lon="9.37673781837075"><ele>40.0</ele><time>2026-04-09T15:42:41.001Z</time></trkpt><trkpt lat="39.1845553523701" lon="9.376875528440095"><ele>40.0</ele><time>2026-04-09T15:42:42.001Z</time></trkpt><trkpt lat="39.18448743674887" lon="9.377039838013719"><ele>40.0</ele><time>2026-04-09T15:42:43.001Z</time></trkpt><trkpt lat="39.18443897877925" lon="9.377216622568701"><ele>40.0</ele><time>2026-04-09T15:42:44.001Z</time></trkpt><trkpt lat="39.184405162491196" lon="9.377397548689759"><ele>37.0</ele><time>2026-04-09T15:42:45.001Z</time></trkpt><trkpt lat="39.18437455278022" lon="9.377562823245452"><ele>34.0</ele><time>2026-04-09T15:42:46.001Z</time></trkpt><trkpt lat="39.18433870046246" lon="9.377709728500474"><ele>31.0</ele><time>2026-04-09T15:42:47.001Z</time></trkpt><trkpt lat="39.184290737420454" lon="9.377849180311701"><ele>28.0</ele><time>2026-04-09T15:42:48.001Z</time></trkpt><trkpt lat="39.18422406934328" lon="9.377971792134058"><ele>30.0</ele><time>2026-04-09T15:42:49.001Z</time></trkpt><trkpt lat="39.18412764838048" lon="9.378093511255084"><ele>32.0</ele><time>2026-04-09T15:42:50.001Z</time></trkpt><trkpt lat="39.18399702796263" lon="9.378232479034718"><ele>34.0</ele><time>2026-04-09T15:42:51.001Z</time></trkpt><trkpt lat="39.18387866377654" lon="9.378368744410873"><ele>34.0</ele><time>2026-04-09T15:42:52.001Z</time></trkpt><trkpt lat="39.1837736108021" lon="9.378502554398866"><ele>34.0</ele><time>2026-04-09T15:42:53.001Z</time></trkpt><trkpt lat="39.18366711934109" lon="9.378633667331359"><ele>34.0</ele><time>2026-04-09T15:42:54.001Z</time></trkpt><trkpt lat="39.18356955859571" lon="9.378765911000547"><ele>34.0</ele><time>2026-04-09T15:42:55.001Z</time></trkpt><trkpt lat="39.183463369857925" lon="9.378898523215247"><ele>34.0</ele><time>2026-04-09T15:42:56.001Z</time></trkpt><trkpt lat="39.18336173290061" lon="9.379025211101242"><ele>34.0</ele><time>2026-04-09T15:42:57.001Z</time></trkpt><trkpt lat="39.18325022114438" lon="9.379155600976326"><ele>34.0</ele><time>2026-04-09T15:42:58.001Z</time></trkpt><trkpt lat="39.183140960679296" lon="9.37928751577905"><ele>34.0</ele><time>2026-04-09T15:42:59.001Z</time></trkpt><trkpt lat="39.183036323783575" lon="9.379417588148154"><ele>34.0</ele><time>2026-04-09T15:43:00.001Z</time></trkpt><trkpt lat="39.182933999364465" lon="9.37954714238828"><ele>34.0</ele><time>2026-04-09T15:43:01.001Z</time></trkpt><trkpt lat="39.18284083484819" lon="9.37967636437768"><ele>34.0</ele><time>2026-04-09T15:43:02.001Z</time></trkpt><trkpt lat="39.18276480515287" lon="9.37980647994045"><ele>34.0</ele><time>2026-04-09T15:43:03.001Z</time></trkpt><trkpt lat="39.182714353129505" lon="9.37994464537439"><ele>32.25</ele><time>2026-04-09T15:43:04.001Z</time></trkpt><trkpt lat="39.18266991522841" lon="9.380110139418488"><ele>30.5</ele><time>2026-04-09T15:43:05.001Z</time></trkpt><trkpt lat="39.182626997737565" lon="9.380273955165341"><ele>28.75</ele><time>2026-04-09T15:43:06.001Z</time></trkpt><trkpt lat="39.182582996264216" lon="9.380411425838744"><ele>27.0</ele><time>2026-04-09T15:43:07.001Z</time></trkpt><trkpt lat="39.182521550268156" lon="9.380535809557937"><ele>25.8</ele><time>2026-04-09T15:43:08.001Z</time></trkpt><trkpt lat="39.18245300895216" lon="9.380640464586175"><ele>24.6</ele><time>2026-04-09T15:43:09.001Z</time></trkpt><trkpt lat="39.18239385254343" lon="9.38072271875"><ele>23.400000000000002</ele><time>2026-04-09T15:43:10.001Z</time></trkpt><trkpt lat="39.182344395364915" lon="9.380791665859812"><ele>22.200000000000003</ele><time>2026-04-09T15:43:11.001Z</time></trkpt><trkpt lat="39.182273350672475" lon="9.380902172976054"><ele>21.0</ele><time>2026-04-09T15:43:13.001Z</time></trkpt><trkpt lat="39.182223833207004" lon="9.380990354689027"><ele>23.6</ele><time>2026-04-09T15:43:15.001Z</time></trkpt><trkpt lat="39.1821436252644" lon="9.381122159294023"><ele>26.200000000000003</ele><time>2026-04-09T15:43:17.001Z</time></trkpt><trkpt lat="39.18207903531155" lon="9.381242423147166"><ele>28.799999999999997</ele><time>2026-04-09T15:43:19Z</time></trkpt><trkpt lat="39.18203990657783" lon="9.381314037367792"><ele>31.4</ele><time>2026-04-09T15:43:20Z</time></trkpt><trkpt lat="39.18199813445991" lon="9.381403495429932"><ele>34.0</ele><time>2026-04-09T15:43:21Z</time></trkpt><trkpt lat="39.18195880616023" lon="9.381493724013014"><ele>34.0</ele><time>2026-04-09T15:43:22Z</time></trkpt><trkpt lat="39.18192093119096" lon="9.381595652303607"><ele>34.0</ele><time>2026-04-09T15:43:23Z</time></trkpt><trkpt lat="39.18188926149561" lon="9.381712958766837"><ele>34.0</ele><time>2026-04-09T15:43:24Z</time></trkpt><trkpt lat="39.181861157477165" lon="9.381841301264759"><ele>34.0</ele><time>2026-04-09T15:43:25Z</time></trkpt><trkpt lat="39.18183889726744" lon="9.38196824774537"><ele>34.0</ele><time>2026-04-09T15:43:26Z</time></trkpt><trkpt lat="39.18182336366052" lon="9.382107118847514"><ele>32.5</ele><time>2026-04-09T15:43:27Z</time></trkpt><trkpt lat="39.18180966293822" lon="9.382254760386044"><ele>31.0</ele><time>2026-04-09T15:43:28Z</time></trkpt><trkpt lat="39.18179663592407" lon="9.382407015675678"><ele>29.5</ele><time>2026-04-09T15:43:29Z</time></trkpt><trkpt lat="39.181786100961666" lon="9.382556127082488"><ele>28.0</ele><time>2026-04-09T15:43:30Z</time></trkpt><trkpt lat="39.181776567683954" lon="9.382698934920652"><ele>28.0</ele><time>2026-04-09T15:43:31Z</time></trkpt><trkpt lat="39.18176547194692" lon="9.382835359790686"><ele>27.999999999999996</ele><time>2026-04-09T15:43:32Z</time></trkpt><trkpt lat="39.18174444381332" lon="9.382959544000453"><ele>27.999999999999996</ele><time>2026-04-09T15:43:33Z</time></trkpt><trkpt lat="39.18169045887378" lon="9.383063323432884"><ele>28.0</ele><time>2026-04-09T15:43:34Z</time></trkpt><trkpt lat="39.18160123498976" lon="9.383159695656385"><ele>28.0</ele><time>2026-04-09T15:43:35Z</time></trkpt><trkpt lat="39.18148880040505" lon="9.38323270294704"><ele>26.5</ele><time>2026-04-09T15:43:36Z</time></trkpt><trkpt lat="39.18135565843687" lon="9.383301029917451"><ele>25.0</ele><time>2026-04-09T15:43:37Z</time></trkpt><trkpt lat="39.18122279740064" lon="9.383359761786712"><ele>23.5</ele><time>2026-04-09T15:43:38Z</time></trkpt><trkpt lat="39.181101297187695" lon="9.383408583415815"><ele>22.0</ele><time>2026-04-09T15:43:39Z</time></trkpt><trkpt lat="39.18099133066157" lon="9.38344452053745"><ele>22.0</ele><time>2026-04-09T15:43:40Z</time></trkpt><trkpt lat="39.18087888124575" lon="9.38345486479882"><ele>22.0</ele><time>2026-04-09T15:43:41Z</time></trkpt><trkpt lat="39.18074917174765" lon="9.383448785342601"><ele>22.0</ele><time>2026-04-09T15:43:42Z</time></trkpt><trkpt lat="39.18060159792301" lon="9.383433372323005"><ele>22.0</ele><time>2026-04-09T15:43:43Z</time></trkpt><trkpt lat="39.180455111308135" lon="9.383424883000407"><ele>20.75</ele><time>2026-04-09T15:43:44Z</time></trkpt><trkpt lat="39.1803179828921" lon="9.383421283961356"><ele>19.5</ele><time>2026-04-09T15:43:45Z</time></trkpt><trkpt lat="39.180195644925185" lon="9.383414694532082"><ele>18.25</ele><time>2026-04-09T15:43:46Z</time></trkpt><trkpt lat="39.180081091823865" lon="9.383410881364219"><ele>17.0</ele><time>2026-04-09T15:43:47Z</time></trkpt><trkpt lat="39.179975600911156" lon="9.383407961507185"><ele>17.0</ele><time>2026-04-09T15:43:48Z</time></trkpt><trkpt lat="39.17987910063134" lon="9.3834042173306"><ele>17.0</ele><time>2026-04-09T15:43:49Z</time></trkpt><trkpt lat="39.17979697777111" lon="9.383399641687797"><ele>17.0</ele><time>2026-04-09T15:43:50Z</time></trkpt><trkpt lat="39.179727386114465" lon="9.383390943158647"><ele>17.0</ele><time>2026-04-09T15:43:51Z</time></trkpt><trkpt lat="39.17964620783362" lon="9.383387485189239"><ele>17.0</ele><time>2026-04-09T15:43:53Z</time></trkpt><trkpt lat="39.17953879098885" lon="9.383414922663935"><ele>17.0</ele><time>2026-04-09T15:45:32Z</time></trkpt><trkpt lat="39.179427966490074" lon="9.383421873159476"><ele>16.6</ele><time>2026-04-09T15:45:33Z</time></trkpt><trkpt lat="39.179344659385094" lon="9.38342547570071"><ele>16.2</ele><time>2026-04-09T15:45:34Z</time></trkpt><trkpt lat="39.17925648870873" lon="9.383403515839706"><ele>15.8</ele><time>2026-04-09T15:45:35Z</time></trkpt><trkpt lat="39.17916939226324" lon="9.383323505681242"><ele>15.4</ele><time>2026-04-09T15:45:36Z</time></trkpt><trkpt lat="39.17906777235378" lon="9.383246059012878"><ele>15.0</ele><time>2026-04-09T15:45:37Z</time></trkpt><trkpt lat="39.178963767256676" lon="9.38314803938077"><ele>14.75</ele><time>2026-04-09T15:45:38Z</time></trkpt><trkpt lat="39.178857659153195" lon="9.383033531432066"><ele>14.5</ele><time>2026-04-09T15:45:39Z</time></trkpt><trkpt lat="39.178759801454625" lon="9.38290676686487"><ele>14.25</ele><time>2026-04-09T15:45:40Z</time></trkpt><trkpt lat="39.17866004362094" lon="9.38277046088837"><ele>14.0</ele><time>2026-04-09T15:45:41Z</time></trkpt><trkpt lat="39.17856685723826" lon="9.382618037675597"><ele>14.0</ele><time>2026-04-09T15:45:42Z</time></trkpt><trkpt lat="39.17846969043354" lon="9.38246324392999"><ele>14.0</ele><time>2026-04-09T15:45:43Z</time></trkpt><trkpt lat="39.17836739029879" lon="9.382297206776334"><ele>14.0</ele><time>2026-04-09T15:45:44Z</time></trkpt><trkpt lat="39.17827447622095" lon="9.382151175186934"><ele>14.5</ele><time>2026-04-09T15:45:45Z</time></trkpt><trkpt lat="39.17818568543118" lon="9.382025689300082"><ele>15.0</ele><time>2026-04-09T15:45:46Z</time></trkpt><trkpt lat="39.17808200131512" lon="9.381900863914122"><ele>15.5</ele><time>2026-04-09T15:45:47Z</time></trkpt><trkpt lat="39.17795893933272" lon="9.381789927441977"><ele>16.0</ele><time>2026-04-09T15:45:48Z</time></trkpt><trkpt lat="39.17783110583424" lon="9.381699722644683"><ele>14.666666666666666</ele><time>2026-04-09T15:45:49Z</time></trkpt><trkpt lat="39.17767482342566" lon="9.381610135491805"><ele>13.333333333333332</ele><time>2026-04-09T15:45:50Z</time></trkpt><trkpt lat="39.17750909234474" lon="9.381533148788392"><ele>12.0</ele><time>2026-04-09T15:45:51Z</time></trkpt><trkpt lat="39.177357770013494" lon="9.381466619107977"><ele>12.0</ele><time>2026-04-09T15:45:52Z</time></trkpt><trkpt lat="39.177209432470455" lon="9.381398962766976"><ele>12.0</ele><time>2026-04-09T15:45:53Z</time></trkpt><trkpt lat="39.17706962262856" lon="9.381341712040964"><ele>12.0</ele><time>2026-04-09T15:45:54Z</time></trkpt><trkpt lat="39.1769482443461" lon="9.38129273185956"><ele>12.0</ele><time>2026-04-09T15:45:55Z</time></trkpt><trkpt lat="39.17680987208404" lon="9.381233981392883"><ele>13.0</ele><time>2026-04-09T15:45:56Z</time></trkpt><trkpt lat="39.17663364334067" lon="9.381181585924017"><ele>14.0</ele><time>2026-04-09T15:45:57Z</time></trkpt><trkpt lat="39.17643986429504" lon="9.381125625278257"><ele>15.0</ele><time>2026-04-09T15:45:58.001Z</time></trkpt><trkpt lat="39.1762315190118" lon="9.381032146577683"><ele>15.0</ele><time>2026-04-09T15:45:59.001Z</time></trkpt><trkpt lat="39.17604422983042" lon="9.380919625677247"><ele>15.0</ele><time>2026-04-09T15:46:00.001Z</time></trkpt><trkpt lat="39.17587157319527" lon="9.38082621001795"><ele>15.0</ele><time>2026-04-09T15:46:01.001Z</time></trkpt><trkpt lat="39.175691682675456" lon="9.38076086912585"><ele>14.0</ele><time>2026-04-09T15:46:02.001Z</time></trkpt><trkpt lat="39.175487404565736" lon="9.380740476431338"><ele>13.0</ele><time>2026-04-09T15:46:03.001Z</time></trkpt><trkpt lat="39.17525817765861" lon="9.380752420413582"><ele>12.0</ele><time>2026-04-09T15:46:04.001Z</time></trkpt><trkpt lat="39.17500664769331" lon="9.380765467412086"><ele>15.0</ele><time>2026-04-09T15:46:05.001Z</time></trkpt><trkpt lat="39.17476126547079" lon="9.380733711815907"><ele>18.0</ele><time>2026-04-09T15:46:06.001Z</time></trkpt><trkpt lat="39.17452813382626" lon="9.380715567160514"><ele>18.0</ele><time>2026-04-09T15:46:07.001Z</time></trkpt><trkpt lat="39.174323523425755" lon="9.380719658157314"><ele>18.0</ele><time>2026-04-09T15:46:08.001Z</time></trkpt><trkpt lat="39.17414327819639" lon="9.380699970285418"><ele>18.0</ele><time>2026-04-09T15:46:09.001Z</time></trkpt><trkpt lat="39.173974661117285" lon="9.380676225198318"><ele>18.333333333333332</ele><time>2026-04-09T15:46:10.001Z</time></trkpt><trkpt lat="39.17380890580289" lon="9.380593042952587"><ele>18.666666666666664</ele><time>2026-04-09T15:46:11.001Z</time></trkpt><trkpt lat="39.17362292263459" lon="9.380501255175638"><ele>19.0</ele><time>2026-04-09T15:46:12.001Z</time></trkpt><trkpt lat="39.173432685029475" lon="9.380419303810857"><ele>24.0</ele><time>2026-04-09T15:46:13.001Z</time></trkpt><trkpt lat="39.17326903962001" lon="9.380329047412468"><ele>29.0</ele><time>2026-04-09T15:46:14.001Z</time></trkpt><trkpt lat="39.17312514777144" lon="9.380255661206517"><ele>34.0</ele><time>2026-04-09T15:46:15.001Z</time></trkpt><trkpt lat="39.17299507488834" lon="9.380191754720583"><ele>34.6</ele><time>2026-04-09T15:46:16.001Z</time></trkpt><trkpt lat="39.172887865480995" lon="9.380138597617279"><ele>35.2</ele><time>2026-04-09T15:46:17.001Z</time></trkpt><trkpt lat="39.17279982522569" lon="9.380083617458096"><ele>35.800000000000004</ele><time>2026-04-09T15:46:18.001Z</time></trkpt><trkpt lat="39.17274696762717" lon="9.380027433063967"><ele>36.4</ele><time>2026-04-09T15:46:19.001Z</time></trkpt><trkpt lat="39.17271203893207" lon="9.37995926766556"><ele>37.0</ele><time>2026-04-09T15:46:20.001Z</time></trkpt><trkpt lat="39.1727167922961" lon="9.379796312713722"><ele>37.0</ele><time>2026-04-09T15:46:22.001Z</time></trkpt><trkpt lat="39.17269763471216" lon="9.379696365220893"><ele>37.0</ele><time>2026-04-09T15:46:23.001Z</time></trkpt><trkpt lat="39.17263249718012" lon="9.37964066170309"><ele>37.0</ele><time>2026-04-09T15:46:24.001Z</time></trkpt><trkpt lat="39.17255971835634" lon="9.379631846752234"><ele>37.0</ele><time>2026-04-09T15:46:25.001Z</time></trkpt><trkpt lat="39.17249054525327" lon="9.379674249374393"><ele>37.0</ele><time>2026-04-09T15:46:26.001Z</time></trkpt><trkpt lat="39.17245580915296" lon="9.379757277329372"><ele>37.0</ele><time>2026-04-09T15:46:27.001Z</time></trkpt><trkpt lat="39.17245051074692" lon="9.379842890282532"><ele>37.0</ele><time>2026-04-09T15:46:28.001Z</time></trkpt><trkpt lat="39.17242315460819" lon="9.380026827256287"><ele>37.0</ele><time>2026-04-09T15:46:30.001Z</time></trkpt><trkpt lat="39.172367160248214" lon="9.380133175486607"><ele>37.0</ele><time>2026-04-09T15:46:31.001Z</time></trkpt><trkpt lat="39.17230408993442" lon="9.380231075800543"><ele>37.0</ele><time>2026-04-09T15:46:32.001Z</time></trkpt><trkpt lat="39.17225373645318" lon="9.380347509900735"><ele>37.0</ele><time>2026-04-09T15:46:33.001Z</time></trkpt><trkpt lat="39.172219068478874" lon="9.380479118206985"><ele>37.0</ele><time>2026-04-09T15:46:34.001Z</time></trkpt><trkpt lat="39.17220184531013" lon="9.380602744292522"><ele>36.0</ele><time>2026-04-09T15:46:35.001Z</time></trkpt><trkpt lat="39.17220286422707" lon="9.380718719644294"><ele>35.0</ele><time>2026-04-09T15:46:36.001Z</time></trkpt><trkpt lat="39.17223006675782" lon="9.380851234322574"><ele>34.0</ele><time>2026-04-09T15:46:37.001Z</time></trkpt><trkpt lat="39.17228583158506" lon="9.38099330549409"><ele>33.0</ele><time>2026-04-09T15:46:38.001Z</time></trkpt><trkpt lat="39.172371179060356" lon="9.381133307660404"><ele>33.0</ele><time>2026-04-09T15:46:39.001Z</time></trkpt><trkpt lat="39.172486481376176" lon="9.381261580035558"><ele>33.0</ele><time>2026-04-09T15:46:40.001Z</time></trkpt><trkpt lat="39.17261901421821" lon="9.381378095037986"><ele>33.0</ele><time>2026-04-09T15:46:41.001Z</time></trkpt><trkpt lat="39.172735458739204" lon="9.381501647751533"><ele>34.75</ele><time>2026-04-09T15:46:42.001Z</time></trkpt><trkpt lat="39.172848107701114" lon="9.381601400078932"><ele>36.5</ele><time>2026-04-09T15:46:43.001Z</time></trkpt><trkpt lat="39.17294681268271" lon="9.381695189826136"><ele>38.25</ele><time>2026-04-09T15:46:44.001Z</time></trkpt><trkpt lat="39.173043591725865" lon="9.381785061779564"><ele>40.0</ele><time>2026-04-09T15:46:45.001Z</time></trkpt><trkpt lat="39.1731122611879" lon="9.381908264676799"><ele>40.0</ele><time>2026-04-09T15:46:46.001Z</time></trkpt><trkpt lat="39.173154959236605" lon="9.382048616785001"><ele>40.0</ele><time>2026-04-09T15:46:47.001Z</time></trkpt><trkpt lat="39.173155183810465" lon="9.382204079784227"><ele>40.0</ele><time>2026-04-09T15:46:48.001Z</time></trkpt><trkpt lat="39.17310762246312" lon="9.38236873044245"><ele>40.0</ele><time>2026-04-09T15:46:49.001Z</time></trkpt><trkpt lat="39.17302365456565" lon="9.382532933719405"><ele>39.66666666666667</ele><time>2026-04-09T15:46:50.001Z</time></trkpt><trkpt lat="39.17292464896193" lon="9.382697310740102"><ele>39.333333333333336</ele><time>2026-04-09T15:46:51.001Z</time></trkpt><trkpt lat="39.17282519917546" lon="9.382864278630784"><ele>39.0</ele><time>2026-04-09T15:46:52.001Z</time></trkpt><trkpt lat="39.17272726603649" lon="9.383017921853163"><ele>32.333333333333336</ele><time>2026-04-09T15:46:53.001Z</time></trkpt><trkpt lat="39.17261911533907" lon="9.383150040151067"><ele>25.666666666666664</ele><time>2026-04-09T15:46:54.001Z</time></trkpt><trkpt lat="39.17248433279371" lon="9.383249108948837"><ele>19.0</ele><time>2026-04-09T15:46:55.001Z</time></trkpt><trkpt lat="39.17233056334681" lon="9.38330791210575"><ele>17.75</ele><time>2026-04-09T15:46:56.001Z</time></trkpt><trkpt lat="39.17218664533495" lon="9.383335067953105"><ele>16.5</ele><time>2026-04-09T15:46:57.001Z</time></trkpt><trkpt lat="39.17206668406836" lon="9.383322377121049"><ele>15.25</ele><time>2026-04-09T15:46:58.001Z</time></trkpt><trkpt lat="39.17195135330265" lon="9.383234528088334"><ele>14.0</ele><time>2026-04-09T15:46:59.001Z</time></trkpt><trkpt lat="39.171814511797685" lon="9.383159583755596"><ele>14.0</ele><time>2026-04-09T15:47:00.001Z</time></trkpt><trkpt lat="39.171670530933284" lon="9.383111898918797"><ele>14.0</ele><time>2026-04-09T15:47:01.001Z</time></trkpt><trkpt lat="39.171523283172554" lon="9.383136977790137"><ele>14.0</ele><time>2026-04-09T15:47:02.001Z</time></trkpt><trkpt lat="39.1713541716633" lon="9.383210967457737"><ele>14.333333333333334</ele><time>2026-04-09T15:47:03.001Z</time></trkpt><trkpt lat="39.17118825931808" lon="9.383288726583366"><ele>14.666666666666668</ele><time>2026-04-09T15:47:04.001Z</time></trkpt><trkpt lat="39.17101747100326" lon="9.383350373525008"><ele>15.0</ele><time>2026-04-09T15:47:05.001Z</time></trkpt><trkpt lat="39.170854702409414" lon="9.383400543532648"><ele>15.0</ele><time>2026-04-09T15:47:06.001Z</time></trkpt><trkpt lat="39.170702958459884" lon="9.383426397804476"><ele>15.0</ele><time>2026-04-09T15:47:07.001Z</time></trkpt><trkpt lat="39.17056802026097" lon="9.38343635072084"><ele>15.0</ele><time>2026-04-09T15:47:08.001Z</time></trkpt><trkpt lat="39.170458946854104" lon="9.383451544056316"><ele>15.0</ele><time>2026-04-09T15:47:09.001Z</time></trkpt><trkpt lat="39.1703768323055" lon="9.38349517386107"><ele>14.5</ele><time>2026-04-09T15:47:10.001Z</time></trkpt><trkpt lat="39.17031779489623" lon="9.383578746597033"><ele>14.0</ele><time>2026-04-09T15:47:11.001Z</time></trkpt><trkpt lat="39.170288239575704" lon="9.383708843565936"><ele>13.5</ele><time>2026-04-09T15:47:12.001Z</time></trkpt><trkpt lat="39.17027865994345" lon="9.38388327709271"><ele>13.0</ele><time>2026-04-09T15:47:13.001Z</time></trkpt><trkpt lat="39.17026592479293" lon="9.384090702929443"><ele>11.666666666666666</ele><time>2026-04-09T15:47:14.001Z</time></trkpt><trkpt lat="39.17024375706184" lon="9.384320527679275"><ele>10.333333333333332</ele><time>2026-04-09T15:47:15.001Z</time></trkpt><trkpt lat="39.170223842986246" lon="9.384559721538167"><ele>9.0</ele><time>2026-04-09T15:47:16.001Z</time></trkpt><trkpt lat="39.17020816180378" lon="9.384804631922622"><ele>9.0</ele><time>2026-04-09T15:47:17.002Z</time></trkpt><trkpt lat="39.17018710385118" lon="9.385061191181228"><ele>9.0</ele><time>2026-04-09T15:47:18.002Z</time></trkpt><trkpt lat="39.17016699848609" lon="9.385299998927875"><ele>9.0</ele><time>2026-04-09T15:47:19.002Z</time></trkpt><trkpt lat="39.1701535903049" lon="9.385540299979084"><ele>9.0</ele><time>2026-04-09T15:47:20.002Z</time></trkpt><trkpt lat="39.170133704764126" lon="9.38579120175086"><ele>9.0</ele><time>2026-04-09T15:47:21.002Z</time></trkpt><trkpt lat="39.17009991717589" lon="9.386040674988065"><ele>9.0</ele><time>2026-04-09T15:47:22.002Z</time></trkpt><trkpt lat="39.17008033081195" lon="9.386284662532473"><ele>8.666666666666666</ele><time>2026-04-09T15:47:23.002Z</time></trkpt><trkpt lat="39.17007629577924" lon="9.386511617651458"><ele>8.333333333333332</ele><time>2026-04-09T15:47:24.002Z</time></trkpt><trkpt lat="39.17005732938285" lon="9.386717311972674"><ele>8.0</ele><time>2026-04-09T15:47:25.002Z</time></trkpt><trkpt lat="39.17004216826829" lon="9.386906233453614"><ele>8.0</ele><time>2026-04-09T15:47:26.002Z</time></trkpt><trkpt lat="39.17003173207909" lon="9.387080693281439"><ele>8.0</ele><time>2026-04-09T15:47:27.002Z</time></trkpt><trkpt lat="39.17000142533667" lon="9.38722918476287"><ele>8.0</ele><time>2026-04-09T15:47:28.002Z</time></trkpt><trkpt lat="39.1699815975783" lon="9.387363509767983"><ele>8.0</ele><time>2026-04-09T15:47:29.002Z</time></trkpt><trkpt lat="39.169936534263144" lon="9.38747397800848"><ele>8.5</ele><time>2026-04-09T15:47:30.002Z</time></trkpt><trkpt lat="39.16984173724799" lon="9.38756154439518"><ele>9.0</ele><time>2026-04-09T15:47:31Z</time></trkpt><trkpt lat="39.16971186583741" lon="9.387607419040409"><ele>9.5</ele><time>2026-04-09T15:47:32Z</time></trkpt><trkpt lat="39.169542619564346" lon="9.387624087044728"><ele>10.0</ele><time>2026-04-09T15:47:33Z</time></trkpt><trkpt lat="39.169328353778944" lon="9.387633211122223"><ele>10.0</ele><time>2026-04-09T15:47:34Z</time></trkpt><trkpt lat="39.1690764383715" lon="9.387647245788692"><ele>10.0</ele><time>2026-04-09T15:47:35Z</time></trkpt><trkpt lat="39.16879537006964" lon="9.387629575425112"><ele>9.5</ele><time>2026-04-09T15:47:36Z</time></trkpt><trkpt lat="39.1684881623736" lon="9.387642941283408"><ele>9.0</ele><time>2026-04-09T15:47:37Z</time></trkpt><trkpt lat="39.168181589915356" lon="9.387631966222287"><ele>9.0</ele><time>2026-04-09T15:47:38Z</time></trkpt><trkpt lat="39.167917118280286" lon="9.387625365005173"><ele>9.0</ele><time>2026-04-09T15:47:39Z</time></trkpt><trkpt lat="39.16766053976517" lon="9.387617796213249"><ele>9.0</ele><time>2026-04-09T15:47:40Z</time></trkpt><trkpt lat="39.167427335768785" lon="9.387614371818191"><ele>9.0</ele><time>2026-04-09T15:47:41Z</time></trkpt><trkpt lat="39.16721351788733" lon="9.387614438286148"><ele>9.0</ele><time>2026-04-09T15:47:42Z</time></trkpt><trkpt lat="39.16701365617462" lon="9.387617372498324"><ele>9.0</ele><time>2026-04-09T15:47:43Z</time></trkpt><trkpt lat="39.16682319375304" lon="9.387615716833912"><ele>9.0</ele><time>2026-04-09T15:47:44Z</time></trkpt><trkpt lat="39.166643101500554" lon="9.387613701387414"><ele>9.0</ele><time>2026-04-09T15:47:45Z</time></trkpt><trkpt lat="39.16647198148762" lon="9.387614583686908"><ele>9.333333333333334</ele><time>2026-04-09T15:47:46Z</time></trkpt><trkpt lat="39.166312773090496" lon="9.387618136489996"><ele>9.666666666666668</ele><time>2026-04-09T15:47:47Z</time></trkpt><trkpt lat="39.16615775735474" lon="9.387619066428565"><ele>10.0</ele><time>2026-04-09T15:47:48Z</time></trkpt><trkpt lat="39.166004878022775" lon="9.387605064695617"><ele>10.0</ele><time>2026-04-09T15:47:49Z</time></trkpt><trkpt lat="39.16586056831227" lon="9.387614821795257"><ele>10.0</ele><time>2026-04-09T15:47:50Z</time></trkpt><trkpt lat="39.16572692124065" lon="9.387615911084772"><ele>10.0</ele><time>2026-04-09T15:47:51Z</time></trkpt><trkpt lat="39.16559643472048" lon="9.387615660314308"><ele>10.0</ele><time>2026-04-09T15:47:52Z</time></trkpt><trkpt lat="39.16547212238843" lon="9.387614323260797"><ele>11.25</ele><time>2026-04-09T15:47:53Z</time></trkpt><trkpt lat="39.16535605948213" lon="9.38761594278261"><ele>12.5</ele><time>2026-04-09T15:47:54Z</time></trkpt><trkpt lat="39.165236885073185" lon="9.387616894953076"><ele>13.75</ele><time>2026-04-09T15:47:55Z</time></trkpt><trkpt lat="39.16512894953322" lon="9.387614367711631"><ele>15.0</ele><time>2026-04-09T15:47:56Z</time></trkpt><trkpt lat="39.165011613218326" lon="9.387610587231935"><ele>15.0</ele><time>2026-04-09T15:47:57Z</time></trkpt><trkpt lat="39.16489351953986" lon="9.387605738555871"><ele>15.0</ele><time>2026-04-09T15:47:58Z</time></trkpt><trkpt lat="39.16478194729882" lon="9.387605677170173"><ele>15.0</ele><time>2026-04-09T15:47:59Z</time></trkpt><trkpt lat="39.16465856128131" lon="9.387610221081077"><ele>15.0</ele><time>2026-04-09T15:48:00Z</time></trkpt><trkpt lat="39.16451549642295" lon="9.387616499541771"><ele>12.666666666666666</ele><time>2026-04-09T15:48:01Z</time></trkpt><trkpt lat="39.164362287309366" lon="9.387629203337243"><ele>10.333333333333332</ele><time>2026-04-09T15:48:02Z</time></trkpt><trkpt lat="39.16420313520643" lon="9.387660982353697"><ele>8.0</ele><time>2026-04-09T15:48:03Z</time></trkpt><trkpt lat="39.16403931960568" lon="9.387713756625038"><ele>8.666666666666666</ele><time>2026-04-09T15:48:04Z</time></trkpt><trkpt lat="39.16387920578019" lon="9.387793213049237"><ele>9.333333333333334</ele><time>2026-04-09T15:48:05Z</time></trkpt><trkpt lat="39.16372782072852" lon="9.38790375319871"><ele>10.0</ele><time>2026-04-09T15:48:06Z</time></trkpt><trkpt lat="39.163587801790975" lon="9.388037605692485"><ele>11.0</ele><time>2026-04-09T15:48:07Z</time></trkpt><trkpt lat="39.163440554346394" lon="9.388197669013032"><ele>12.0</ele><time>2026-04-09T15:48:08Z</time></trkpt><trkpt lat="39.16327353089116" lon="9.388371433126714"><ele>13.0</ele><time>2026-04-09T15:48:09Z</time></trkpt><trkpt lat="39.16310013417637" lon="9.388550434368877"><ele>13.333333333333332</ele><time>2026-04-09T15:48:10Z</time></trkpt><trkpt lat="39.16293125473723" lon="9.388719677907373"><ele>13.666666666666668</ele><time>2026-04-09T15:48:11Z</time></trkpt><trkpt lat="39.16276510401734" lon="9.388886151329611"><ele>14.0</ele><time>2026-04-09T15:48:12Z</time></trkpt><trkpt lat="39.16260382759592" lon="9.389047522836504"><ele>14.0</ele><time>2026-04-09T15:48:13Z</time></trkpt><trkpt lat="39.16245490819619" lon="9.389197711689096"><ele>14.0</ele><time>2026-04-09T15:48:14Z</time></trkpt><trkpt lat="39.16231305665079" lon="9.389341461621797"><ele>14.0</ele><time>2026-04-09T15:48:15Z</time></trkpt><trkpt lat="39.1621729822176" lon="9.3894837704438"><ele>15.25</ele><time>2026-04-09T15:48:16Z</time></trkpt><trkpt lat="39.1620417751849" lon="9.389615694335218"><ele>16.5</ele><time>2026-04-09T15:48:17.001Z</time></trkpt><trkpt lat="39.161926499868116" lon="9.38974369680501"><ele>17.75</ele><time>2026-04-09T15:48:18.001Z</time></trkpt><trkpt lat="39.161841912379884" lon="9.389871818395532"><ele>19.0</ele><time>2026-04-09T15:48:19.001Z</time></trkpt><trkpt lat="39.16179530864251" lon="9.390010126110797"><ele>20.666666666666664</ele><time>2026-04-09T15:48:20.001Z</time></trkpt><trkpt lat="39.16178498377414" lon="9.39017463870612"><ele>22.333333333333332</ele><time>2026-04-09T15:48:21.001Z</time></trkpt><trkpt lat="39.16179691339284" lon="9.390397032456056"><ele>24.0</ele><time>2026-04-09T15:48:22.001Z</time></trkpt><trkpt lat="39.16182238023072" lon="9.39063946386343"><ele>25.666666666666664</ele><time>2026-04-09T15:48:23.001Z</time></trkpt><trkpt lat="39.16184564387038" lon="9.390878320804106"><ele>27.333333333333332</ele><time>2026-04-09T15:48:24.001Z</time></trkpt><trkpt lat="39.16187437292612" lon="9.391094600736663"><ele>29.0</ele><time>2026-04-09T15:48:25.001Z</time></trkpt><trkpt lat="39.161911258983345" lon="9.391301149223434"><ele>33.0</ele><time>2026-04-09T15:48:26.001Z</time></trkpt><trkpt lat="39.161963558556195" lon="9.391499955600057"><ele>37.0</ele><time>2026-04-09T15:48:27.001Z</time></trkpt><trkpt lat="39.16201018396414" lon="9.39169524983339"><ele>41.0</ele><time>2026-04-09T15:48:28.001Z</time></trkpt><trkpt lat="39.162036010445995" lon="9.391885373062005"><ele>41.0</ele><time>2026-04-09T15:48:29.001Z</time></trkpt><trkpt lat="39.16205328371691" lon="9.392061428615515"><ele>41.0</ele><time>2026-04-09T15:48:30.001Z</time></trkpt><trkpt lat="39.16206894408125" lon="9.392261923296152"><ele>41.0</ele><time>2026-04-09T15:48:31.001Z</time></trkpt><trkpt lat="39.16207610678914" lon="9.39246839035423"><ele>44.33333333333333</ele><time>2026-04-09T15:48:32.001Z</time></trkpt><trkpt lat="39.16207195410603" lon="9.392677164926619"><ele>47.666666666666664</ele><time>2026-04-09T15:48:33.001Z</time></trkpt><trkpt lat="39.16203962862022" lon="9.392892489013342"><ele>51.0</ele><time>2026-04-09T15:48:34.001Z</time></trkpt><trkpt lat="39.16196913347324" lon="9.393099515109578"><ele>51.0</ele><time>2026-04-09T15:48:35.001Z</time></trkpt><trkpt lat="39.161888384058805" lon="9.393302771557623"><ele>51.0</ele><time>2026-04-09T15:48:36.001Z</time></trkpt><trkpt lat="39.16178092657636" lon="9.393494466329214"><ele>51.0</ele><time>2026-04-09T15:48:37.001Z</time></trkpt><trkpt lat="39.161643124801934" lon="9.393672284628298"><ele>48.333333333333336</ele><time>2026-04-09T15:48:38.001Z</time></trkpt><trkpt lat="39.161505540849475" lon="9.39384710567221"><ele>45.66666666666667</ele><time>2026-04-09T15:48:39.001Z</time></trkpt><trkpt lat="39.16138401892774" lon="9.394016012239051"><ele>43.0</ele><time>2026-04-09T15:48:40.001Z</time></trkpt><trkpt lat="39.16128217785375" lon="9.39417039997225"><ele>43.0</ele><time>2026-04-09T15:48:41.001Z</time></trkpt><trkpt lat="39.1611934337469" lon="9.394332801272197"><ele>43.0</ele><time>2026-04-09T15:48:42.001Z</time></trkpt><trkpt lat="39.161107796412324" lon="9.39452008175045"><ele>43.0</ele><time>2026-04-09T15:48:43.001Z</time></trkpt><trkpt lat="39.1610172801659" lon="9.394728517819825"><ele>40.333333333333336</ele><time>2026-04-09T15:48:44.001Z</time></trkpt><trkpt lat="39.16091864539758" lon="9.394942747352575"><ele>37.666666666666664</ele><time>2026-04-09T15:48:45.001Z</time></trkpt><trkpt lat="39.16081486567601" lon="9.395138492123548"><ele>35.0</ele><time>2026-04-09T15:48:46.001Z</time></trkpt><trkpt lat="39.16074367804269" lon="9.395352811940546"><ele>31.666666666666664</ele><time>2026-04-09T15:48:47.001Z</time></trkpt><trkpt lat="39.16069264711287" lon="9.395554832444054"><ele>28.333333333333336</ele><time>2026-04-09T15:48:48.001Z</time></trkpt><trkpt lat="39.160651443885804" lon="9.395729383666847"><ele>25.0</ele><time>2026-04-09T15:48:49.001Z</time></trkpt><trkpt lat="39.16055508396968" lon="9.395873699838464"><ele>25.0</ele><time>2026-04-09T15:48:50.001Z</time></trkpt><trkpt lat="39.16039795862361" lon="9.39596734521453"><ele>25.0</ele><time>2026-04-09T15:48:51.001Z</time></trkpt><trkpt lat="39.16021258243071" lon="9.39609619097571"><ele>25.0</ele><time>2026-04-09T15:48:52.001Z</time></trkpt><trkpt lat="39.15998675924948" lon="9.39627361287977"><ele>25.0</ele><time>2026-04-09T15:48:53.001Z</time></trkpt><trkpt lat="39.15973707249246" lon="9.396446478433118"><ele>25.0</ele><time>2026-04-09T15:48:54.001Z</time></trkpt><trkpt lat="39.159455508951886" lon="9.396616535035289"><ele>25.0</ele><time>2026-04-09T15:48:55.001Z</time></trkpt><trkpt lat="39.15920026919501" lon="9.396791476802354"><ele>25.0</ele><time>2026-04-09T15:48:56.001Z</time></trkpt><trkpt lat="39.15897238773225" lon="9.39694766710564"><ele>24.5</ele><time>2026-04-09T15:48:57.001Z</time></trkpt><trkpt lat="39.15877200754621" lon="9.397108668963527"><ele>24.0</ele><time>2026-04-09T15:48:58.001Z</time></trkpt><trkpt lat="39.15856924655408" lon="9.397223981263307"><ele>24.0</ele><time>2026-04-09T15:48:59.001Z</time></trkpt><trkpt lat="39.15839175632826" lon="9.3973743696329"><ele>24.0</ele><time>2026-04-09T15:49:00.001Z</time></trkpt><trkpt lat="39.1582149707893" lon="9.397513575646713"><ele>24.0</ele><time>2026-04-09T15:49:01.001Z</time></trkpt><trkpt lat="39.15804273487816" lon="9.397678082151716"><ele>21.666666666666668</ele><time>2026-04-09T15:49:02.001Z</time></trkpt><trkpt lat="39.15788341514113" lon="9.39786487480533"><ele>19.333333333333336</ele><time>2026-04-09T15:49:03.001Z</time></trkpt><trkpt lat="39.15774109368584" lon="9.39807589091218"><ele>17.0</ele><time>2026-04-09T15:49:04.001Z</time></trkpt><trkpt lat="39.157610170469134" lon="9.398310090992887"><ele>17.0</ele><time>2026-04-09T15:49:05.001Z</time></trkpt><trkpt lat="39.157489902281085" lon="9.398564249077534"><ele>17.0</ele><time>2026-04-09T15:49:06.001Z</time></trkpt><trkpt lat="39.15735104146615" lon="9.398832186816646"><ele>16.5</ele><time>2026-04-09T15:49:07.001Z</time></trkpt><trkpt lat="39.15720987922023" lon="9.399125295571134"><ele>16.0</ele><time>2026-04-09T15:49:08.001Z</time></trkpt><trkpt lat="39.15706734839168" lon="9.399424963943975"><ele>17.5</ele><time>2026-04-09T15:49:09.001Z</time></trkpt><trkpt lat="39.15692584834704" lon="9.39972246491778"><ele>19.0</ele><time>2026-04-09T15:49:10.001Z</time></trkpt><trkpt lat="39.15678007296159" lon="9.400028955194864"><ele>19.0</ele><time>2026-04-09T15:49:11.001Z</time></trkpt><trkpt lat="39.15662751022874" lon="9.400349451113794"><ele>19.0</ele><time>2026-04-09T15:49:12.001Z</time></trkpt><trkpt lat="39.15648223168526" lon="9.400654662959392"><ele>19.5</ele><time>2026-04-09T15:49:13.001Z</time></trkpt><trkpt lat="39.156351530898114" lon="9.400929370153458"><ele>20.0</ele><time>2026-04-09T15:49:14.001Z</time></trkpt><trkpt lat="39.15623400588974" lon="9.401177116278186"><ele>22.0</ele><time>2026-04-09T15:49:15.001Z</time></trkpt><trkpt lat="39.15612330476141" lon="9.401410477685673"><ele>24.0</ele><time>2026-04-09T15:49:16.001Z</time></trkpt><trkpt lat="39.15602298032113" lon="9.401621964581418"><ele>26.0</ele><time>2026-04-09T15:49:17.001Z</time></trkpt><trkpt lat="39.155937132190054" lon="9.4017992626924"><ele>26.0</ele><time>2026-04-09T15:49:18.001Z</time></trkpt><trkpt lat="39.15585408067667" lon="9.401928702014377"><ele>26.0</ele><time>2026-04-09T15:49:19.001Z</time></trkpt><trkpt lat="39.15575660437976" lon="9.402019993757705"><ele>26.0</ele><time>2026-04-09T15:49:20.001Z</time></trkpt><trkpt lat="39.155625277507646" lon="9.402066777730138"><ele>26.0</ele><time>2026-04-09T15:49:21.001Z</time></trkpt><trkpt lat="39.15544485413052" lon="9.402136770655941"><ele>29.333333333333332</ele><time>2026-04-09T15:49:22.001Z</time></trkpt><trkpt lat="39.15524473012884" lon="9.402236803439486"><ele>32.666666666666664</ele><time>2026-04-09T15:49:23.001Z</time></trkpt><trkpt lat="39.155061274149084" lon="9.40230152464582"><ele>36.0</ele><time>2026-04-09T15:49:24.001Z</time></trkpt><trkpt lat="39.15490818330248" lon="9.402347090887618"><ele>33.0</ele><time>2026-04-09T15:49:25.001Z</time></trkpt><trkpt lat="39.15476787632249" lon="9.402402715818825"><ele>30.0</ele><time>2026-04-09T15:49:26.001Z</time></trkpt><trkpt lat="39.154616694607256" lon="9.402462652055343"><ele>27.0</ele><time>2026-04-09T15:49:27.001Z</time></trkpt><trkpt lat="39.15444264478692" lon="9.40254471617723"><ele>27.0</ele><time>2026-04-09T15:49:28.001Z</time></trkpt><trkpt lat="39.154359198501844" lon="9.402957813949444"><ele>27.0</ele><time>2026-04-09T15:49:29.001Z</time></trkpt><trkpt lat="39.154240127945236" lon="9.403128711987591"><ele>28.333333333333336</ele><time>2026-04-09T15:49:30.001Z</time></trkpt><trkpt lat="39.154142872365384" lon="9.403315462800485"><ele>29.666666666666668</ele><time>2026-04-09T15:49:31.001Z</time></trkpt><trkpt lat="39.154060646687654" lon="9.403555100875979"><ele>31.0</ele><time>2026-04-09T15:49:32.001Z</time></trkpt><trkpt lat="39.153985894499975" lon="9.403822771211312"><ele>28.333333333333336</ele><time>2026-04-09T15:49:33.001Z</time></trkpt><trkpt lat="39.15390851502443" lon="9.404090079856745"><ele>25.666666666666668</ele><time>2026-04-09T15:49:34.001Z</time></trkpt><trkpt lat="39.153828593134584" lon="9.404333987831295"><ele>23.0</ele><time>2026-04-09T15:49:35.001Z</time></trkpt><trkpt lat="39.15375251622435" lon="9.404556779866878"><ele>24.333333333333336</ele><time>2026-04-09T15:49:36.001Z</time></trkpt><trkpt lat="39.153678006289" lon="9.404765222642629"><ele>25.666666666666668</ele><time>2026-04-09T15:49:37Z</time></trkpt><trkpt lat="39.153608362775195" lon="9.40496500660738"><ele>27.0</ele><time>2026-04-09T15:49:38Z</time></trkpt><trkpt lat="39.15354223841134" lon="9.405155759830262"><ele>27.0</ele><time>2026-04-09T15:49:39Z</time></trkpt><trkpt lat="39.153479701732095" lon="9.405337058660605"><ele>27.0</ele><time>2026-04-09T15:49:40Z</time></trkpt><trkpt lat="39.153408378140746" lon="9.405481309357347"><ele>27.0</ele><time>2026-04-09T15:49:41Z</time></trkpt><trkpt lat="39.153322827377195" lon="9.40561119587901"><ele>27.0</ele><time>2026-04-09T15:49:42Z</time></trkpt><trkpt lat="39.153196598736486" lon="9.405704223664259"><ele>26.0</ele><time>2026-04-09T15:49:43Z</time></trkpt><trkpt lat="39.15302857846755" lon="9.405776853898471"><ele>25.0</ele><time>2026-04-09T15:49:44Z</time></trkpt><trkpt lat="39.152846264090115" lon="9.405841992434977"><ele>24.0</ele><time>2026-04-09T15:49:45Z</time></trkpt><trkpt lat="39.15267778668369" lon="9.405906359191702"><ele>24.0</ele><time>2026-04-09T15:49:46Z</time></trkpt><trkpt lat="39.15252823321571" lon="9.405964675819929"><ele>24.0</ele><time>2026-04-09T15:49:47Z</time></trkpt><trkpt lat="39.15239230298301" lon="9.406016355507404"><ele>24.0</ele><time>2026-04-09T15:49:48Z</time></trkpt><trkpt lat="39.152263317528686" lon="9.406044168204145"><ele>24.0</ele><time>2026-04-09T15:49:49Z</time></trkpt><trkpt lat="39.15213597918762" lon="9.406032076688636"><ele>25.5</ele><time>2026-04-09T15:49:50Z</time></trkpt><trkpt lat="39.15200884492266" lon="9.405986239894563"><ele>27.0</ele><time>2026-04-09T15:49:51Z</time></trkpt><trkpt lat="39.151889762049464" lon="9.405896295530109"><ele>28.5</ele><time>2026-04-09T15:49:52Z</time></trkpt><trkpt lat="39.15178583765845" lon="9.405763712923967"><ele>30.0</ele><time>2026-04-09T15:49:53Z</time></trkpt><trkpt lat="39.15169852097228" lon="9.405577291549834"><ele>29.666666666666664</ele><time>2026-04-09T15:49:54Z</time></trkpt><trkpt lat="39.15163686898458" lon="9.405350017570813"><ele>29.333333333333332</ele><time>2026-04-09T15:49:55Z</time></trkpt><trkpt lat="39.1515790632625" lon="9.405106379164305"><ele>29.0</ele><time>2026-04-09T15:49:56Z</time></trkpt><trkpt lat="39.15151895234125" lon="9.40488605946772"><ele>30.5</ele><time>2026-04-09T15:49:57Z</time></trkpt><trkpt lat="39.15146361708494" lon="9.404689495255745"><ele>32.0</ele><time>2026-04-09T15:49:58Z</time></trkpt><trkpt lat="39.15140302775268" lon="9.404517556838355"><ele>33.5</ele><time>2026-04-09T15:49:59Z</time></trkpt><trkpt lat="39.15131465112625" lon="9.404398874476392"><ele>35.0</ele><time>2026-04-09T15:50:00Z</time></trkpt><trkpt lat="39.15119393859605" lon="9.404353981298476"><ele>35.0</ele><time>2026-04-09T15:50:01Z</time></trkpt><trkpt lat="39.151023583981505" lon="9.404332660752939"><ele>35.0</ele><time>2026-04-09T15:50:02Z</time></trkpt><trkpt lat="39.1508463725718" lon="9.404315576079018"><ele>35.0</ele><time>2026-04-09T15:50:03Z</time></trkpt><trkpt lat="39.150703304939256" lon="9.404283325448857"><ele>35.0</ele><time>2026-04-09T15:50:04Z</time></trkpt><trkpt lat="39.15058547824285" lon="9.404225986995604"><ele>35.0</ele><time>2026-04-09T15:50:05Z</time></trkpt><trkpt lat="39.15048713549519" lon="9.404108829597574"><ele>35.0</ele><time>2026-04-09T15:50:06Z</time></trkpt><trkpt lat="39.150380291576965" lon="9.403948740355737"><ele>35.0</ele><time>2026-04-09T15:50:07Z</time></trkpt><trkpt lat="39.15023149140203" lon="9.403822095129925"><ele>35.0</ele><time>2026-04-09T15:50:08Z</time></trkpt><trkpt lat="39.150041186323044" lon="9.403721186944585"><ele>35.0</ele><time>2026-04-09T15:50:09Z</time></trkpt><trkpt lat="39.14988170090566" lon="9.40364364097009"><ele>35.0</ele><time>2026-04-09T15:50:10Z</time></trkpt><trkpt lat="39.14973900622534" lon="9.40359570660245"><ele>37.0</ele><time>2026-04-09T15:50:11Z</time></trkpt><trkpt lat="39.14959936215042" lon="9.403579099518861"><ele>39.0</ele><time>2026-04-09T15:50:12Z</time></trkpt><trkpt lat="39.14944505897629" lon="9.403607267950179"><ele>41.0</ele><time>2026-04-09T15:50:13Z</time></trkpt><trkpt lat="39.14925691625206" lon="9.403701988834136"><ele>41.0</ele><time>2026-04-09T15:50:14Z</time></trkpt><trkpt lat="39.14906691297077" lon="9.403814725744422"><ele>41.0</ele><time>2026-04-09T15:50:15Z</time></trkpt><trkpt lat="39.14890329273932" lon="9.403896949661378"><ele>41.0</ele><time>2026-04-09T15:50:16Z</time></trkpt><trkpt lat="39.148755310936565" lon="9.40397550159125"><ele>41.666666666666664</ele><time>2026-04-09T15:50:17Z</time></trkpt><trkpt lat="39.148629367592314" lon="9.404070691612848"><ele>42.333333333333336</ele><time>2026-04-09T15:50:18Z</time></trkpt><trkpt lat="39.14850785491958" lon="9.404200427612198"><ele>43.0</ele><time>2026-04-09T15:50:19Z</time></trkpt><trkpt lat="39.148401729779785" lon="9.404342016987663"><ele>43.0</ele><time>2026-04-09T15:50:20Z</time></trkpt><trkpt lat="39.148334780775784" lon="9.404488779472697"><ele>43.0</ele><time>2026-04-09T15:50:21Z</time></trkpt><trkpt lat="39.14831257389076" lon="9.40464789209988"><ele>43.0</ele><time>2026-04-09T15:50:22Z</time></trkpt><trkpt lat="39.14833219944923" lon="9.404802965443297"><ele>43.0</ele><time>2026-04-09T15:50:23Z</time></trkpt><trkpt lat="39.14832932672082" lon="9.404944579446187"><ele>44.5</ele><time>2026-04-09T15:50:24Z</time></trkpt><trkpt lat="39.148262790924065" lon="9.405082312557212"><ele>46.0</ele><time>2026-04-09T15:50:25Z</time></trkpt><trkpt lat="39.14814680419581" lon="9.405166981052496"><ele>47.5</ele><time>2026-04-09T15:50:26Z</time></trkpt><trkpt lat="39.147990797263084" lon="9.405204806146694"><ele>49.0</ele><time>2026-04-09T15:50:27Z</time></trkpt><trkpt lat="39.1477928247142" lon="9.405221676548022"><ele>44.33333333333333</ele><time>2026-04-09T15:50:28Z</time></trkpt><trkpt lat="39.14761665949359" lon="9.405234856995754"><ele>39.666666666666664</ele><time>2026-04-09T15:50:29.001Z</time></trkpt><trkpt lat="39.14745343293625" lon="9.405242456035655"><ele>35.0</ele><time>2026-04-09T15:50:30.001Z</time></trkpt><trkpt lat="39.14730375168765" lon="9.405246938341321"><ele>37.33333333333333</ele><time>2026-04-09T15:50:31.001Z</time></trkpt><trkpt lat="39.14716371681011" lon="9.405285953987438"><ele>39.666666666666664</ele><time>2026-04-09T15:50:32.001Z</time></trkpt><trkpt lat="39.14701187682574" lon="9.405394732572699"><ele>42.0</ele><time>2026-04-09T15:50:33.001Z</time></trkpt><trkpt lat="39.14682582384418" lon="9.405498917765241"><ele>42.0</ele><time>2026-04-09T15:50:34.001Z</time></trkpt><trkpt lat="39.14664011229175" lon="9.40560761756471"><ele>42.0</ele><time>2026-04-09T15:50:35.001Z</time></trkpt><trkpt lat="39.14645577376207" lon="9.40570528139285"><ele>42.0</ele><time>2026-04-09T15:50:36.001Z</time></trkpt><trkpt lat="39.14628397200025" lon="9.40578966008192"><ele>37.0</ele><time>2026-04-09T15:50:37.001Z</time></trkpt><trkpt lat="39.146119894737545" lon="9.405864524214739"><ele>32.0</ele><time>2026-04-09T15:50:38.001Z</time></trkpt><trkpt lat="39.1459647528212" lon="9.405932100424465"><ele>27.0</ele><time>2026-04-09T15:50:39.001Z</time></trkpt><trkpt lat="39.14582772653519" lon="9.405997066731908"><ele>27.0</ele><time>2026-04-09T15:50:40.001Z</time></trkpt><trkpt lat="39.145725626579456" lon="9.406071089914699"><ele>27.0</ele><time>2026-04-09T15:50:41.001Z</time></trkpt><trkpt lat="39.14565393263312" lon="9.406184609490886"><ele>27.0</ele><time>2026-04-09T15:50:42.001Z</time></trkpt><trkpt lat="39.14563099009111" lon="9.406366339136508"><ele>27.0</ele><time>2026-04-09T15:50:43.001Z</time></trkpt><trkpt lat="39.14565455307578" lon="9.4065650740475"><ele>28.25</ele><time>2026-04-09T15:50:44.001Z</time></trkpt><trkpt lat="39.145706463899145" lon="9.40671222012235"><ele>29.5</ele><time>2026-04-09T15:50:45.001Z</time></trkpt><trkpt lat="39.14581484638563" lon="9.406788339407615"><ele>30.75</ele><time>2026-04-09T15:50:46.001Z</time></trkpt><trkpt lat="39.145943781108926" lon="9.4068646304312"><ele>32.0</ele><time>2026-04-09T15:50:47.001Z</time></trkpt><trkpt lat="39.146038580527566" lon="9.406951033710069"><ele>32.0</ele><time>2026-04-09T15:50:48.001Z</time></trkpt><trkpt lat="39.14610831158669" lon="9.40705277566214"><ele>32.0</ele><time>2026-04-09T15:50:49.001Z</time></trkpt><trkpt lat="39.14616453431855" lon="9.407172149933615"><ele>32.0</ele><time>2026-04-09T15:50:50.001Z</time></trkpt><trkpt lat="39.1461302519274" lon="9.407311732455895"><ele>32.0</ele><time>2026-04-09T15:50:51.001Z</time></trkpt><trkpt lat="39.14605643586282" lon="9.407410979978179"><ele>32.0</ele><time>2026-04-09T15:50:52.001Z</time></trkpt><trkpt lat="39.14595490058694" lon="9.407531662542027"><ele>31.333333333333332</ele><time>2026-04-09T15:50:53.001Z</time></trkpt><trkpt lat="39.14582335993535" lon="9.407712456273329"><ele>30.666666666666664</ele><time>2026-04-09T15:50:54.001Z</time></trkpt><trkpt lat="39.145670742842455" lon="9.407868252837362"><ele>30.0</ele><time>2026-04-09T15:50:55.001Z</time></trkpt><trkpt lat="39.14553049806857" lon="9.408049542561628"><ele>27.666666666666668</ele><time>2026-04-09T15:50:56.001Z</time></trkpt><trkpt lat="39.145397105911336" lon="9.408227219899626"><ele>25.333333333333336</ele><time>2026-04-09T15:50:57.001Z</time></trkpt><trkpt lat="39.14527661622589" lon="9.408395209044176"><ele>23.0</ele><time>2026-04-09T15:50:58.001Z</time></trkpt><trkpt lat="39.14517648109718" lon="9.408546623371635"><ele>23.0</ele><time>2026-04-09T15:50:59.001Z</time></trkpt><trkpt lat="39.14509137109348" lon="9.408701719351598"><ele>23.0</ele><time>2026-04-09T15:51:00.001Z</time></trkpt><trkpt lat="39.14504517952352" lon="9.408893376696616"><ele>23.0</ele><time>2026-04-09T15:51:01.001Z</time></trkpt><trkpt lat="39.145003421931094" lon="9.409117953039798"><ele>24.0</ele><time>2026-04-09T15:51:02.001Z</time></trkpt><trkpt lat="39.14495602800309" lon="9.409335606762534"><ele>25.0</ele><time>2026-04-09T15:51:03.001Z</time></trkpt><trkpt lat="39.14492558801576" lon="9.409520125238933"><ele>26.0</ele><time>2026-04-09T15:51:04.001Z</time></trkpt><trkpt lat="39.14489827972172" lon="9.409649351704928"><ele>27.0</ele><time>2026-04-09T15:51:05.001Z</time></trkpt><trkpt lat="39.144864861635774" lon="9.409738530117973"><ele>28.0</ele><time>2026-04-09T15:51:06.001Z</time></trkpt><trkpt lat="39.14481296556294" lon="9.409792041004303"><ele>29.000000000000004</ele><time>2026-04-09T15:51:07.001Z</time></trkpt><trkpt lat="39.14473851113202" lon="9.409825496590534"><ele>30.000000000000004</ele><time>2026-04-09T15:51:08.001Z</time></trkpt><trkpt lat="39.14463337218291" lon="9.40974672149114"><ele>31.0</ele><time>2026-04-09T15:51:09.001Z</time></trkpt><trkpt lat="39.144536515410046" lon="9.409630490808386"><ele>32.0</ele><time>2026-04-09T15:51:10.001Z</time></trkpt><trkpt lat="39.14441806683204" lon="9.409565550983984"><ele>32.0</ele><time>2026-04-09T15:51:11.001Z</time></trkpt><trkpt lat="39.14428337598628" lon="9.409601513634183"><ele>32.0</ele><time>2026-04-09T15:51:12.001Z</time></trkpt><trkpt lat="39.144154152777226" lon="9.409716528803374"><ele>32.0</ele><time>2026-04-09T15:51:13.001Z</time></trkpt><trkpt lat="39.14402632926651" lon="9.40988149659595"><ele>30.333333333333332</ele><time>2026-04-09T15:51:14.001Z</time></trkpt><trkpt lat="39.14388557611325" lon="9.410019847337713"><ele>28.666666666666664</ele><time>2026-04-09T15:51:15.001Z</time></trkpt><trkpt lat="39.14376274411209" lon="9.410164674363186"><ele>27.0</ele><time>2026-04-09T15:51:16.001Z</time></trkpt><trkpt lat="39.14366390821245" lon="9.410310044335967"><ele>27.0</ele><time>2026-04-09T15:51:17.001Z</time></trkpt><trkpt lat="39.14359494822938" lon="9.410467109060198"><ele>27.0</ele><time>2026-04-09T15:51:18.001Z</time></trkpt><trkpt lat="39.14352844060298" lon="9.410607553795904"><ele>27.0</ele><time>2026-04-09T15:51:19.001Z</time></trkpt><trkpt lat="39.14344780877377" lon="9.410722765779301"><ele>27.0</ele><time>2026-04-09T15:51:20.001Z</time></trkpt><trkpt lat="39.14334029392608" lon="9.410785838778583"><ele>32.333333333333336</ele><time>2026-04-09T15:51:21.001Z</time></trkpt><trkpt lat="39.143201962069455" lon="9.41080005053392"><ele>37.66666666666667</ele><time>2026-04-09T15:51:22.001Z</time></trkpt><trkpt lat="39.143014196683964" lon="9.410819119739433"><ele>43.0</ele><time>2026-04-09T15:51:23.001Z</time></trkpt><trkpt lat="39.14281797637267" lon="9.410859479501672"><ele>43.0</ele><time>2026-04-09T15:51:24.001Z</time></trkpt><trkpt lat="39.14262386219913" lon="9.4108594412798"><ele>43.0</ele><time>2026-04-09T15:51:25.001Z</time></trkpt><trkpt lat="39.142425104383484" lon="9.410884068458374"><ele>43.0</ele><time>2026-04-09T15:51:26.001Z</time></trkpt><trkpt lat="39.14224083704951" lon="9.410909424623702"><ele>41.0</ele><time>2026-04-09T15:51:27.001Z</time></trkpt><trkpt lat="39.142075163571086" lon="9.410932750342825"><ele>39.0</ele><time>2026-04-09T15:51:28.001Z</time></trkpt><trkpt lat="39.14192567325918" lon="9.410954716876047"><ele>37.0</ele><time>2026-04-09T15:51:29.001Z</time></trkpt><trkpt lat="39.141790959229965" lon="9.410990813629276"><ele>37.0</ele><time>2026-04-09T15:51:30.001Z</time></trkpt><trkpt lat="39.14167505321327" lon="9.4110602603018"><ele>37.0</ele><time>2026-04-09T15:51:31.001Z</time></trkpt><trkpt lat="39.14156910372247" lon="9.411183053354053"><ele>37.0</ele><time>2026-04-09T15:51:32.001Z</time></trkpt><trkpt lat="39.14147016533639" lon="9.411372563943967"><ele>37.0</ele><time>2026-04-09T15:51:33.001Z</time></trkpt><trkpt lat="39.1413820377929" lon="9.411560174172617"><ele>31.333333333333336</ele><time>2026-04-09T15:51:34.001Z</time></trkpt><trkpt lat="39.14129692892009" lon="9.411741396480341"><ele>25.666666666666668</ele><time>2026-04-09T15:51:35.001Z</time></trkpt><trkpt lat="39.14120762169913" lon="9.411933685823099"><ele>20.0</ele><time>2026-04-09T15:51:36.001Z</time></trkpt><trkpt lat="39.14111194026244" lon="9.412139699568765"><ele>27.333333333333336</ele><time>2026-04-09T15:51:37.001Z</time></trkpt><trkpt lat="39.14101315029548" lon="9.412351095954557"><ele>34.666666666666664</ele><time>2026-04-09T15:51:38.001Z</time></trkpt><trkpt lat="39.140910876772416" lon="9.41257863051329"><ele>42.0</ele><time>2026-04-09T15:51:39.001Z</time></trkpt><trkpt lat="39.14081169371293" lon="9.412823654461107"><ele>45.66666666666667</ele><time>2026-04-09T15:51:40.001Z</time></trkpt><trkpt lat="39.14072251255908" lon="9.413073219012787"><ele>49.333333333333336</ele><time>2026-04-09T15:51:41.001Z</time></trkpt><trkpt lat="39.14065861989848" lon="9.413321170776715"><ele>53.0</ele><time>2026-04-09T15:51:42.001Z</time></trkpt><trkpt lat="39.14061541965622" lon="9.413550417970914"><ele>41.66666666666667</ele><time>2026-04-09T15:51:43Z</time></trkpt><trkpt lat="39.14059278626561" lon="9.413764101147459"><ele>30.333333333333336</ele><time>2026-04-09T15:51:44Z</time></trkpt><trkpt lat="39.14060012703153" lon="9.413955309007587"><ele>19.0</ele><time>2026-04-09T15:51:45Z</time></trkpt><trkpt lat="39.14063998329471" lon="9.41414942125128"><ele>24.0</ele><time>2026-04-09T15:51:46Z</time></trkpt><trkpt lat="39.14072170700638" lon="9.414352250728024"><ele>29.0</ele><time>2026-04-09T15:51:47Z</time></trkpt><trkpt lat="39.14083569411118" lon="9.414553251318377"><ele>34.0</ele><time>2026-04-09T15:51:48Z</time></trkpt><trkpt lat="39.14098456716779" lon="9.414731581037953"><ele>34.0</ele><time>2026-04-09T15:51:49Z</time></trkpt><trkpt lat="39.14115001724786" lon="9.414913537982287"><ele>34.0</ele><time>2026-04-09T15:51:50Z</time></trkpt><trkpt lat="39.141331000901886" lon="9.415084399826505"><ele>34.0</ele><time>2026-04-09T15:51:51Z</time></trkpt><trkpt lat="39.141510766785885" lon="9.415246825209097"><ele>33.333333333333336</ele><time>2026-04-09T15:51:52Z</time></trkpt><trkpt lat="39.14168445629615" lon="9.415407883497245"><ele>32.666666666666664</ele><time>2026-04-09T15:51:53Z</time></trkpt><trkpt lat="39.14184627265195" lon="9.415562829204543"><ele>32.0</ele><time>2026-04-09T15:51:54Z</time></trkpt><trkpt lat="39.141999364486196" lon="9.415711896134278"><ele>32.0</ele><time>2026-04-09T15:51:55Z</time></trkpt><trkpt lat="39.14215300639902" lon="9.415854444265042"><ele>32.0</ele><time>2026-04-09T15:51:56Z</time></trkpt><trkpt lat="39.14230543386391" lon="9.415996714209976"><ele>32.0</ele><time>2026-04-09T15:51:57Z</time></trkpt><trkpt lat="39.14245868472071" lon="9.416141982700953"><ele>32.666666666666664</ele><time>2026-04-09T15:51:58Z</time></trkpt><trkpt lat="39.14260955095753" lon="9.416285343309044"><ele>33.333333333333336</ele><time>2026-04-09T15:51:59Z</time></trkpt><trkpt lat="39.14274579838396" lon="9.416433036363221"><ele>34.0</ele><time>2026-04-09T15:52:00Z</time></trkpt><trkpt lat="39.14286076062191" lon="9.416584559290582"><ele>34.0</ele><time>2026-04-09T15:52:01Z</time></trkpt><trkpt lat="39.14294566579349" lon="9.416719322926104"><ele>34.0</ele><time>2026-04-09T15:52:02Z</time></trkpt><trkpt lat="39.1429986138633" lon="9.416837454804302"><ele>34.0</ele><time>2026-04-09T15:52:03Z</time></trkpt><trkpt lat="39.14302849350047" lon="9.416955607613597"><ele>34.0</ele><time>2026-04-09T15:52:04Z</time></trkpt><trkpt lat="39.143004194140524" lon="9.417083819722054"><ele>34.0</ele><time>2026-04-09T15:52:05Z</time></trkpt><trkpt lat="39.14292992571343" lon="9.417206721947245"><ele>36.5</ele><time>2026-04-09T15:52:06Z</time></trkpt><trkpt lat="39.14282468209395" lon="9.417272233883402"><ele>39.0</ele><time>2026-04-09T15:52:07Z</time></trkpt><trkpt lat="39.14269925595072" lon="9.417222561066982"><ele>41.5</ele><time>2026-04-09T15:52:08Z</time></trkpt><trkpt lat="39.14253966009954" lon="9.417198609758653"><ele>44.0</ele><time>2026-04-09T15:52:09Z</time></trkpt><trkpt lat="39.14239557320488" lon="9.417231138505077"><ele>43.0</ele><time>2026-04-09T15:52:10Z</time></trkpt><trkpt lat="39.14224483934623" lon="9.417300667015555"><ele>42.0</ele><time>2026-04-09T15:52:11Z</time></trkpt><trkpt lat="39.14209216790584" lon="9.41745897888807"><ele>41.0</ele><time>2026-04-09T15:52:12Z</time></trkpt><trkpt lat="39.14196971213704" lon="9.417589866838178"><ele>41.0</ele><time>2026-04-09T15:52:13Z</time></trkpt><trkpt lat="39.14186423781169" lon="9.417700668815485"><ele>41.0</ele><time>2026-04-09T15:52:14Z</time></trkpt><trkpt lat="39.14174677719278" lon="9.417780941435872"><ele>41.0</ele><time>2026-04-09T15:52:15Z</time></trkpt><trkpt lat="39.14158572454577" lon="9.417751669477585"><ele>41.0</ele><time>2026-04-09T15:52:16Z</time></trkpt><trkpt lat="39.14138642377836" lon="9.417757681272136"><ele>42.666666666666664</ele><time>2026-04-09T15:52:17Z</time></trkpt><trkpt lat="39.14119825267458" lon="9.417765443637867"><ele>44.333333333333336</ele><time>2026-04-09T15:52:18Z</time></trkpt><trkpt lat="39.141010504231865" lon="9.41776738678567"><ele>46.0</ele><time>2026-04-09T15:52:19Z</time></trkpt><trkpt lat="39.14082466873236" lon="9.417751829882484"><ele>48.0</ele><time>2026-04-09T15:52:20Z</time></trkpt><trkpt lat="39.140643813301395" lon="9.417737702166471"><ele>50.0</ele><time>2026-04-09T15:52:21Z</time></trkpt><trkpt lat="39.14048751206997" lon="9.417733656922461"><ele>52.0</ele><time>2026-04-09T15:52:22Z</time></trkpt><trkpt lat="39.14034717702782" lon="9.417744229171408"><ele>52.0</ele><time>2026-04-09T15:52:23Z</time></trkpt><trkpt lat="39.14022592842476" lon="9.417794093958499"><ele>52.0</ele><time>2026-04-09T15:52:24Z</time></trkpt><trkpt lat="39.140111781143425" lon="9.417900509318413"><ele>52.0</ele><time>2026-04-09T15:52:25Z</time></trkpt><trkpt lat="39.13999250924971" lon="9.418030797443821"><ele>52.0</ele><time>2026-04-09T15:52:26Z</time></trkpt><trkpt lat="39.13986896975898" lon="9.418120772104453"><ele>56.666666666666664</ele><time>2026-04-09T15:52:27Z</time></trkpt><trkpt lat="39.13972708612596" lon="9.418137290784534"><ele>61.33333333333333</ele><time>2026-04-09T15:52:28Z</time></trkpt><trkpt lat="39.13956940463494" lon="9.418153281245123"><ele>66.0</ele><time>2026-04-09T15:52:29Z</time></trkpt><trkpt lat="39.139382210775516" lon="9.418097752157404"><ele>66.0</ele><time>2026-04-09T15:52:30Z</time></trkpt><trkpt lat="39.13917481071118" lon="9.418010025818056"><ele>66.0</ele><time>2026-04-09T15:52:31Z</time></trkpt><trkpt lat="39.13897161231299" lon="9.417912073932554"><ele>66.0</ele><time>2026-04-09T15:52:32Z</time></trkpt><trkpt lat="39.13876806285897" lon="9.417812696057645"><ele>63.33333333333333</ele><time>2026-04-09T15:52:33Z</time></trkpt><trkpt lat="39.13857480784061" lon="9.4177289845763"><ele>60.666666666666664</ele><time>2026-04-09T15:52:34Z</time></trkpt><trkpt lat="39.138388395479495" lon="9.417670218018388"><ele>58.0</ele><time>2026-04-09T15:52:35Z</time></trkpt><trkpt lat="39.138211582411714" lon="9.417636871788805"><ele>58.0</ele><time>2026-04-09T15:52:36Z</time></trkpt><trkpt lat="39.13806429744322" lon="9.417625112790246"><ele>58.0</ele><time>2026-04-09T15:52:37Z</time></trkpt><trkpt lat="39.137941813289416" lon="9.417608547545354"><ele>58.0</ele><time>2026-04-09T15:52:38Z</time></trkpt><trkpt lat="39.137833122949424" lon="9.417633594603949"><ele>58.0</ele><time>2026-04-09T15:52:39Z</time></trkpt><trkpt lat="39.13774285308487" lon="9.417735940838243"><ele>58.0</ele><time>2026-04-09T15:52:40Z</time></trkpt><trkpt lat="39.137689691486386" lon="9.417922139836364"><ele>58.0</ele><time>2026-04-09T15:52:41Z</time></trkpt><trkpt lat="39.13760827563435" lon="9.418129482859827"><ele>58.0</ele><time>2026-04-09T15:52:42Z</time></trkpt><trkpt lat="39.13754640329453" lon="9.418320903255742"><ele>59.33333333333333</ele><time>2026-04-09T15:52:43Z</time></trkpt><trkpt lat="39.137468136884365" lon="9.418502018117106"><ele>60.66666666666667</ele><time>2026-04-09T15:52:44.001Z</time></trkpt><trkpt lat="39.13737439954578" lon="9.418685071966376"><ele>62.0</ele><time>2026-04-09T15:52:45.001Z</time></trkpt><trkpt lat="39.137277469121905" lon="9.418873193324028"><ele>58.0</ele><time>2026-04-09T15:52:46.001Z</time></trkpt><trkpt lat="39.13719771226486" lon="9.41906420717304"><ele>54.0</ele><time>2026-04-09T15:52:47.001Z</time></trkpt><trkpt lat="39.13714523380666" lon="9.419297607524204"><ele>50.0</ele><time>2026-04-09T15:52:48.001Z</time></trkpt><trkpt lat="39.137110521006335" lon="9.419561478601137"><ele>50.0</ele><time>2026-04-09T15:52:49.001Z</time></trkpt><trkpt lat="39.13705088754438" lon="9.41982407236382"><ele>50.0</ele><time>2026-04-09T15:52:50.001Z</time></trkpt><trkpt lat="39.136962620015304" lon="9.420073435202598"><ele>50.0</ele><time>2026-04-09T15:52:51.001Z</time></trkpt><trkpt lat="39.13687537012795" lon="9.420330193873893"><ele>53.0</ele><time>2026-04-09T15:52:52.001Z</time></trkpt><trkpt lat="39.13679915082219" lon="9.420625805478773"><ele>56.0</ele><time>2026-04-09T15:52:53.001Z</time></trkpt><trkpt lat="39.136730475470806" lon="9.420906870013454"><ele>56.0</ele><time>2026-04-09T15:52:54.001Z</time></trkpt><trkpt lat="39.13665511363491" lon="9.421146278509008"><ele>56.0</ele><time>2026-04-09T15:52:55.001Z</time></trkpt><trkpt lat="39.136547975556205" lon="9.42137055344462"><ele>56.0</ele><time>2026-04-09T15:52:56.001Z</time></trkpt><trkpt lat="39.136439125062175" lon="9.421598384160447"><ele>55.333333333333336</ele><time>2026-04-09T15:52:57.001Z</time></trkpt><trkpt lat="39.13635452569286" lon="9.421814897899079"><ele>54.66666666666667</ele><time>2026-04-09T15:52:58.001Z</time></trkpt><trkpt lat="39.13628646049651" lon="9.42202389243045"><ele>54.0</ele><time>2026-04-09T15:52:59.001Z</time></trkpt><trkpt lat="39.13622977530556" lon="9.422228395288146"><ele>54.0</ele><time>2026-04-09T15:53:00.001Z</time></trkpt><trkpt lat="39.1361897932901" lon="9.422420128160583"><ele>54.0</ele><time>2026-04-09T15:53:01.001Z</time></trkpt><trkpt lat="39.13616875991256" lon="9.422582236427363"><ele>54.0</ele><time>2026-04-09T15:53:02.001Z</time></trkpt><trkpt lat="39.136185513726474" lon="9.422726136094736"><ele>54.0</ele><time>2026-04-09T15:53:03.001Z</time></trkpt><trkpt lat="39.13622025352946" lon="9.422847270166395"><ele>54.0</ele><time>2026-04-09T15:53:04.001Z</time></trkpt><trkpt lat="39.13638065200952" lon="9.422896855525702"><ele>54.0</ele><time>2026-04-09T15:53:05.001Z</time></trkpt><trkpt lat="39.13654526925035" lon="9.422956621226026"><ele>54.0</ele><time>2026-04-09T15:53:06.001Z</time></trkpt><trkpt lat="39.136723347574744" lon="9.423027229271474"><ele>52.66666666666667</ele><time>2026-04-09T15:53:07.001Z</time></trkpt><trkpt lat="39.13687499022497" lon="9.423095686524265"><ele>51.333333333333336</ele><time>2026-04-09T15:53:08.001Z</time></trkpt><trkpt lat="39.137018771218216" lon="9.423157575125595"><ele>50.0</ele><time>2026-04-09T15:53:09.001Z</time></trkpt><trkpt lat="39.13716137602607" lon="9.423217886039053"><ele>50.0</ele><time>2026-04-09T15:53:10.001Z</time></trkpt><trkpt lat="39.13730422940001" lon="9.42327149776974"><ele>50.0</ele><time>2026-04-09T15:53:11.001Z</time></trkpt><trkpt lat="39.137461795536396" lon="9.423303725107552"><ele>50.0</ele><time>2026-04-09T15:53:12.001Z</time></trkpt><trkpt lat="39.13763323327948" lon="9.423293737917074"><ele>50.0</ele><time>2026-04-09T15:53:13.001Z</time></trkpt><trkpt lat="39.137807521452494" lon="9.423258320538185"><ele>50.0</ele><time>2026-04-09T15:53:14.001Z</time></trkpt><trkpt lat="39.13797205352248" lon="9.423231812369544"><ele>50.0</ele><time>2026-04-09T15:53:15.001Z</time></trkpt><trkpt lat="39.138129549436925" lon="9.42321454484773"><ele>49.5</ele><time>2026-04-09T15:53:16.001Z</time></trkpt><trkpt lat="39.13827862107809" lon="9.423209758623221"><ele>49.0</ele><time>2026-04-09T15:53:17.001Z</time></trkpt><trkpt lat="39.13841907240713" lon="9.423221144474178"><ele>48.5</ele><time>2026-04-09T15:53:18.001Z</time></trkpt><trkpt lat="39.13854624459515" lon="9.423268660579186"><ele>48.0</ele><time>2026-04-09T15:53:19.001Z</time></trkpt><trkpt lat="39.13866215099311" lon="9.423356788297726"><ele>48.0</ele><time>2026-04-09T15:53:20.001Z</time></trkpt><trkpt lat="39.1387908586713" lon="9.423464927835335"><ele>48.0</ele><time>2026-04-09T15:53:21.001Z</time></trkpt><trkpt lat="39.13890891327685" lon="9.423569396802593"><ele>48.0</ele><time>2026-04-09T15:53:22.001Z</time></trkpt><trkpt lat="39.13901263359636" lon="9.423673041455292"><ele>48.0</ele><time>2026-04-09T15:53:23.001Z</time></trkpt><trkpt lat="39.139097414107056" lon="9.423777087657108"><ele>47.8</ele><time>2026-04-09T15:53:24.001Z</time></trkpt><trkpt lat="39.139144338648485" lon="9.423880266746908"><ele>47.599999999999994</ele><time>2026-04-09T15:53:25.001Z</time></trkpt><trkpt lat="39.13914712690864" lon="9.42399666242441"><ele>47.400000000000006</ele><time>2026-04-09T15:53:26.001Z</time></trkpt><trkpt lat="39.13910050067796" lon="9.424125301451973"><ele>47.2</ele><time>2026-04-09T15:53:27.001Z</time></trkpt><trkpt lat="39.139005576419834" lon="9.42428449164253"><ele>47.0</ele><time>2026-04-09T15:53:28.001Z</time></trkpt><trkpt lat="39.13890564447699" lon="9.424454547931923"><ele>40.666666666666664</ele><time>2026-04-09T15:53:29.001Z</time></trkpt><trkpt lat="39.138823041666164" lon="9.424667537916351"><ele>34.333333333333336</ele><time>2026-04-09T15:53:30.001Z</time></trkpt><trkpt lat="39.13877217812865" lon="9.424887863677014"><ele>28.0</ele><time>2026-04-09T15:53:31.001Z</time></trkpt><trkpt lat="39.138731720061365" lon="9.425091286144495"><ele>28.0</ele><time>2026-04-09T15:53:32.001Z</time></trkpt><trkpt lat="39.138688054265444" lon="9.425281004131353"><ele>28.0</ele><time>2026-04-09T15:53:33.001Z</time></trkpt><trkpt lat="39.138651806619244" lon="9.425463572659389"><ele>28.0</ele><time>2026-04-09T15:53:34.001Z</time></trkpt><trkpt lat="39.138631056697555" lon="9.425642304249592"><ele>28.0</ele><time>2026-04-09T15:53:35.001Z</time></trkpt><trkpt lat="39.138627005368875" lon="9.425814561333535"><ele>27.25</ele><time>2026-04-09T15:53:36.001Z</time></trkpt><trkpt lat="39.138632488331744" lon="9.425985564288055"><ele>26.5</ele><time>2026-04-09T15:53:37.001Z</time></trkpt><trkpt lat="39.13864618892644" lon="9.426167124725529"><ele>25.75</ele><time>2026-04-09T15:53:38.001Z</time></trkpt><trkpt lat="39.13865522548285" lon="9.42635207782117"><ele>25.0</ele><time>2026-04-09T15:53:39.001Z</time></trkpt><trkpt lat="39.13866253636826" lon="9.426523785322093"><ele>25.0</ele><time>2026-04-09T15:53:40.001Z</time></trkpt><trkpt lat="39.138677970178996" lon="9.426682499826054"><ele>25.0</ele><time>2026-04-09T15:53:41.001Z</time></trkpt><trkpt lat="39.138716040338934" lon="9.42683194835604"><ele>25.0</ele><time>2026-04-09T15:53:42.001Z</time></trkpt><trkpt lat="39.13878618781146" lon="9.426978614966119"><ele>25.0</ele><time>2026-04-09T15:53:43.001Z</time></trkpt><trkpt lat="39.13889699945579" lon="9.427116868428751"><ele>25.666666666666668</ele><time>2026-04-09T15:53:44.001Z</time></trkpt><trkpt lat="39.13903287130019" lon="9.427236412176374"><ele>26.333333333333336</ele><time>2026-04-09T15:53:45.001Z</time></trkpt><trkpt lat="39.139168349663414" lon="9.42733321362833"><ele>27.0</ele><time>2026-04-09T15:53:46.001Z</time></trkpt><trkpt lat="39.13930302986826" lon="9.427402668245733"><ele>25.666666666666668</ele><time>2026-04-09T15:53:47.001Z</time></trkpt><trkpt lat="39.13944965795389" lon="9.427446899372317"><ele>24.333333333333336</ele><time>2026-04-09T15:53:48.001Z</time></trkpt><trkpt lat="39.13961100152665" lon="9.427476867070643"><ele>23.0</ele><time>2026-04-09T15:53:49Z</time></trkpt><trkpt lat="39.139764604469" lon="9.427505992462036"><ele>22.75</ele><time>2026-04-09T15:53:50Z</time></trkpt><trkpt lat="39.139906163209226" lon="9.427541700045193"><ele>22.5</ele><time>2026-04-09T15:53:51Z</time></trkpt><trkpt lat="39.14003693409539" lon="9.42760204913275"><ele>22.25</ele><time>2026-04-09T15:53:52Z</time></trkpt><trkpt lat="39.140150422382085" lon="9.427694015580188"><ele>22.0</ele><time>2026-04-09T15:53:53Z</time></trkpt><trkpt lat="39.14024032071574" lon="9.427836235093901"><ele>20.0</ele><time>2026-04-09T15:53:54Z</time></trkpt><trkpt lat="39.14032285709886" lon="9.428019752465767"><ele>18.0</ele><time>2026-04-09T15:53:55Z</time></trkpt><trkpt lat="39.14041299156555" lon="9.428218259104561"><ele>16.0</ele><time>2026-04-09T15:53:56Z</time></trkpt><trkpt lat="39.14050445025348" lon="9.42841536620317"><ele>16.0</ele><time>2026-04-09T15:53:57Z</time></trkpt><trkpt lat="39.14060144892966" lon="9.428626820036875"><ele>16.0</ele><time>2026-04-09T15:53:58Z</time></trkpt><trkpt lat="39.14070106050045" lon="9.428844831094612"><ele>16.0</ele><time>2026-04-09T15:53:59Z</time></trkpt><trkpt lat="39.14080334268275" lon="9.429071112825506"><ele>16.0</ele><time>2026-04-09T15:54:00Z</time></trkpt><trkpt lat="39.14090907950276" lon="9.429302583134625"><ele>16.0</ele><time>2026-04-09T15:54:01Z</time></trkpt><trkpt lat="39.14101482682783" lon="9.429528082072668"><ele>16.0</ele><time>2026-04-09T15:54:02Z</time></trkpt><trkpt lat="39.141113319661095" lon="9.429742518930796"><ele>16.0</ele><time>2026-04-09T15:54:03Z</time></trkpt><trkpt lat="39.14121205701482" lon="9.429960479166958"><ele>16.0</ele><time>2026-04-09T15:54:04Z</time></trkpt><trkpt lat="39.141310339698585" lon="9.430183341405117"><ele>16.0</ele><time>2026-04-09T15:54:05Z</time></trkpt><trkpt lat="39.141412528745015" lon="9.430406725333226"><ele>15.666666666666666</ele><time>2026-04-09T15:54:06Z</time></trkpt><trkpt lat="39.14150988105559" lon="9.430615716465416"><ele>15.333333333333332</ele><time>2026-04-09T15:54:07Z</time></trkpt><trkpt lat="39.14159965191478" lon="9.430805840858083"><ele>15.0</ele><time>2026-04-09T15:54:08Z</time></trkpt><trkpt lat="39.14168226876675" lon="9.430989481549718"><ele>15.0</ele><time>2026-04-09T15:54:09Z</time></trkpt><trkpt lat="39.141763035635776" lon="9.431166044516816"><ele>15.0</ele><time>2026-04-09T15:54:10Z</time></trkpt><trkpt lat="39.14184522459076" lon="9.43134500111816"><ele>15.0</ele><time>2026-04-09T15:54:11Z</time></trkpt><trkpt lat="39.14193091890868" lon="9.43152637023433"><ele>14.666666666666668</ele><time>2026-04-09T15:54:12Z</time></trkpt><trkpt lat="39.14202058596113" lon="9.431717996784693"><ele>14.333333333333334</ele><time>2026-04-09T15:54:13Z</time></trkpt><trkpt lat="39.14211012261138" lon="9.431922821602559"><ele>14.0</ele><time>2026-04-09T15:54:14Z</time></trkpt><trkpt lat="39.14219963078038" lon="9.43213551292789"><ele>14.0</ele><time>2026-04-09T15:54:15Z</time></trkpt><trkpt lat="39.14229716917611" lon="9.432343974810788"><ele>14.0</ele><time>2026-04-09T15:54:16Z</time></trkpt><trkpt lat="39.142392286370054" lon="9.432554382242843"><ele>14.0</ele><time>2026-04-09T15:54:17Z</time></trkpt><trkpt lat="39.14248315657917" lon="9.432753405990157"><ele>16.666666666666668</ele><time>2026-04-09T15:54:18Z</time></trkpt><trkpt lat="39.1425666831637" lon="9.432932283790056"><ele>19.333333333333332</ele><time>2026-04-09T15:54:19Z</time></trkpt><trkpt lat="39.142649371501776" lon="9.433104124749534"><ele>22.0</ele><time>2026-04-09T15:54:20Z</time></trkpt><trkpt lat="39.142732581946056" lon="9.433261759520228"><ele>22.0</ele><time>2026-04-09T15:54:21Z</time></trkpt><trkpt lat="39.14281031423035" lon="9.433395050165894"><ele>22.0</ele><time>2026-04-09T15:54:22Z</time></trkpt><trkpt lat="39.14288186147212" lon="9.433528421253342"><ele>22.0</ele><time>2026-04-09T15:54:23Z</time></trkpt><trkpt lat="39.14295111277512" lon="9.433651989083115"><ele>22.0</ele><time>2026-04-09T15:54:24Z</time></trkpt><trkpt lat="39.14302024984516" lon="9.433762663143762"><ele>22.200000000000003</ele><time>2026-04-09T15:54:25Z</time></trkpt><trkpt lat="39.14308297867215" lon="9.433866664902192"><ele>22.4</ele><time>2026-04-09T15:54:26Z</time></trkpt><trkpt lat="39.14314213441282" lon="9.433967059345978"><ele>22.6</ele><time>2026-04-09T15:54:27Z</time></trkpt><trkpt lat="39.143196134061796" lon="9.434063855070928"><ele>22.799999999999997</ele><time>2026-04-09T15:54:28Z</time></trkpt><trkpt lat="39.14324626222975" lon="9.434162310831224"><ele>23.0</ele><time>2026-04-09T15:54:29Z</time></trkpt><trkpt lat="39.14328424557658" lon="9.434276758396315"><ele>23.0</ele><time>2026-04-09T15:54:30Z</time></trkpt><trkpt lat="39.14330703692863" lon="9.434400973691531"><ele>23.0</ele><time>2026-04-09T15:54:31Z</time></trkpt><trkpt lat="39.143312706947356" lon="9.434530721144895"><ele>23.0</ele><time>2026-04-09T15:54:32Z</time></trkpt><trkpt lat="39.14329958339327" lon="9.434666065017964"><ele>23.0</ele><time>2026-04-09T15:54:33Z</time></trkpt><trkpt lat="39.14325939775506" lon="9.434811835010311"><ele>23.0</ele><time>2026-04-09T15:54:34Z</time></trkpt><trkpt lat="39.14319582408707" lon="9.434954967266394"><ele>25.0</ele><time>2026-04-09T15:54:35Z</time></trkpt><trkpt lat="39.143100418749555" lon="9.435088633419962"><ele>27.0</ele><time>2026-04-09T15:54:36Z</time></trkpt><trkpt lat="39.14299172238023" lon="9.435209759587716"><ele>29.0</ele><time>2026-04-09T15:54:37Z</time></trkpt><trkpt lat="39.14284710125064" lon="9.435316492232898"><ele>29.0</ele><time>2026-04-09T15:54:38Z</time></trkpt><trkpt lat="39.14270250382202" lon="9.43541686172612"><ele>29.0</ele><time>2026-04-09T15:54:39Z</time></trkpt><trkpt lat="39.14254750712854" lon="9.435499708486365"><ele>29.0</ele><time>2026-04-09T15:54:40.001Z</time></trkpt><trkpt lat="39.14236501460026" lon="9.435531312721832"><ele>26.333333333333332</ele><time>2026-04-09T15:54:41.001Z</time></trkpt><trkpt lat="39.142157983619114" lon="9.435514073657993"><ele>23.666666666666664</ele><time>2026-04-09T15:54:42.001Z</time></trkpt><trkpt lat="39.141977361371865" lon="9.435509790937363"><ele>21.0</ele><time>2026-04-09T15:54:43.001Z</time></trkpt><trkpt lat="39.141799898598855" lon="9.43555088385586"><ele>21.0</ele><time>2026-04-09T15:54:44.001Z</time></trkpt><trkpt lat="39.14159729453092" lon="9.435642500820848"><ele>21.0</ele><time>2026-04-09T15:54:45.001Z</time></trkpt><trkpt lat="39.14138893440996" lon="9.435762529203528"><ele>21.0</ele><time>2026-04-09T15:54:46.001Z</time></trkpt><trkpt lat="39.14119069087837" lon="9.435855924508736"><ele>24.333333333333336</ele><time>2026-04-09T15:54:47.001Z</time></trkpt><trkpt lat="39.14100528069393" lon="9.43595521181157"><ele>27.666666666666668</ele><time>2026-04-09T15:54:48.001Z</time></trkpt><trkpt lat="39.14082643890091" lon="9.436041891685614"><ele>31.0</ele><time>2026-04-09T15:54:49.001Z</time></trkpt><trkpt lat="39.14065605982426" lon="9.436117626406665"><ele>34.0</ele><time>2026-04-09T15:54:50.001Z</time></trkpt><trkpt lat="39.14049537571069" lon="9.436197574994273"><ele>37.0</ele><time>2026-04-09T15:54:51.001Z</time></trkpt><trkpt lat="39.14032705475774" lon="9.436248156488249"><ele>40.0</ele><time>2026-04-09T15:54:52.001Z</time></trkpt><trkpt lat="39.14015473017866" lon="9.436301990910149"><ele>32.0</ele><time>2026-04-09T15:54:53.001Z</time></trkpt><trkpt lat="39.13997961037621" lon="9.436360129410094"><ele>24.0</ele><time>2026-04-09T15:54:54.001Z</time></trkpt><trkpt lat="39.13980579538641" lon="9.436413788124018"><ele>16.0</ele><time>2026-04-09T15:54:55.001Z</time></trkpt><trkpt lat="39.13964027036327" lon="9.4364558862644"><ele>16.0</ele><time>2026-04-09T15:54:56.001Z</time></trkpt><trkpt lat="39.13948233584749" lon="9.436495910080406"><ele>16.0</ele><time>2026-04-09T15:54:57.001Z</time></trkpt><trkpt lat="39.13934532439831" lon="9.436535626328451"><ele>16.0</ele><time>2026-04-09T15:54:58.001Z</time></trkpt><trkpt lat="39.13923694501957" lon="9.43658015075897"><ele>16.0</ele><time>2026-04-09T15:54:59.001Z</time></trkpt><trkpt lat="39.1391553156079" lon="9.4366499286363"><ele>16.0</ele><time>2026-04-09T15:55:00.001Z</time></trkpt><trkpt lat="39.139117618757126" lon="9.436758115090878"><ele>16.0</ele><time>2026-04-09T15:55:01.001Z</time></trkpt><trkpt lat="39.13911050247459" lon="9.436910916312243"><ele>16.0</ele><time>2026-04-09T15:55:02.001Z</time></trkpt><trkpt lat="39.13910443176859" lon="9.437104102316352"><ele>16.0</ele><time>2026-04-09T15:55:03.001Z</time></trkpt><trkpt lat="39.139079932939794" lon="9.437273518199557"><ele>14.666666666666666</ele><time>2026-04-09T15:55:04.001Z</time></trkpt><trkpt lat="39.139026567513994" lon="9.437423295467115"><ele>13.333333333333332</ele><time>2026-04-09T15:55:05.001Z</time></trkpt><trkpt lat="39.13893915172092" lon="9.437581644284373"><ele>12.0</ele><time>2026-04-09T15:55:06.001Z</time></trkpt><trkpt lat="39.13880260950305" lon="9.437721824923953"><ele>12.0</ele><time>2026-04-09T15:55:07.001Z</time></trkpt><trkpt lat="39.13865364881684" lon="9.43788703084908"><ele>12.0</ele><time>2026-04-09T15:55:08.001Z</time></trkpt><trkpt lat="39.13848898538304" lon="9.43806826046009"><ele>12.0</ele><time>2026-04-09T15:55:09.001Z</time></trkpt><trkpt lat="39.13832386914149" lon="9.438248096690636"><ele>11.666666666666666</ele><time>2026-04-09T15:55:10.001Z</time></trkpt><trkpt lat="39.13817601594934" lon="9.438411031046355"><ele>11.333333333333332</ele><time>2026-04-09T15:55:11.001Z</time></trkpt><trkpt lat="39.13804737944863" lon="9.438579064181765"><ele>11.0</ele><time>2026-04-09T15:55:12.001Z</time></trkpt><trkpt lat="39.137903158622194" lon="9.438703677689478"><ele>11.0</ele><time>2026-04-09T15:55:13.001Z</time></trkpt><trkpt lat="39.137749678087594" lon="9.438755568090343"><ele>11.0</ele><time>2026-04-09T15:55:14.001Z</time></trkpt><trkpt lat="39.13759999378946" lon="9.438786062467278"><ele>11.0</ele><time>2026-04-09T15:55:15.001Z</time></trkpt><trkpt lat="39.137444525857454" lon="9.438826552647296"><ele>15.666666666666668</ele><time>2026-04-09T15:55:16.001Z</time></trkpt><trkpt lat="39.13729978617985" lon="9.438831450606122"><ele>20.333333333333336</ele><time>2026-04-09T15:55:17.001Z</time></trkpt><trkpt lat="39.13713286388017" lon="9.438846603289768"><ele>25.0</ele><time>2026-04-09T15:55:18.001Z</time></trkpt><trkpt lat="39.13693466049691" lon="9.438868199420703"><ele>25.0</ele><time>2026-04-09T15:55:19.001Z</time></trkpt><trkpt lat="39.136731317740576" lon="9.43888935050003"><ele>25.0</ele><time>2026-04-09T15:55:20.001Z</time></trkpt><trkpt lat="39.13654365805624" lon="9.438905026719251"><ele>25.0</ele><time>2026-04-09T15:55:21.001Z</time></trkpt><trkpt lat="39.136367899739604" lon="9.438917885432394"><ele>28.333333333333336</ele><time>2026-04-09T15:55:22.001Z</time></trkpt><trkpt lat="39.13620651653669" lon="9.43891942593543"><ele>31.666666666666664</ele><time>2026-04-09T15:55:23.001Z</time></trkpt><trkpt lat="39.13605196360177" lon="9.43889974862739"><ele>35.0</ele><time>2026-04-09T15:55:24.001Z</time></trkpt><trkpt lat="39.13591466906869" lon="9.438846856837985"><ele>33.5</ele><time>2026-04-09T15:55:25.001Z</time></trkpt><trkpt lat="39.135816562535034" lon="9.438744479064862"><ele>32.0</ele><time>2026-04-09T15:55:26.001Z</time></trkpt><trkpt lat="39.13576161986228" lon="9.43858347935349"><ele>30.5</ele><time>2026-04-09T15:55:27.001Z</time></trkpt><trkpt lat="39.13566955126138" lon="9.438420454004504"><ele>29.0</ele><time>2026-04-09T15:55:28.001Z</time></trkpt><trkpt lat="39.135592513965484" lon="9.438271194647777"><ele>29.0</ele><time>2026-04-09T15:55:29.001Z</time></trkpt><trkpt lat="39.135506713557675" lon="9.438167339449311"><ele>29.0</ele><time>2026-04-09T15:55:30.001Z</time></trkpt><trkpt lat="39.13540621942553" lon="9.438120864963823"><ele>29.0</ele><time>2026-04-09T15:55:31.001Z</time></trkpt><trkpt lat="39.13530187884807" lon="9.438115605868713"><ele>29.0</ele><time>2026-04-09T15:55:32.001Z</time></trkpt><trkpt lat="39.13521535747443" lon="9.438231123561186"><ele>29.0</ele><time>2026-04-09T15:55:33.001Z</time></trkpt><trkpt lat="39.13516732621749" lon="9.438361234059263"><ele>29.0</ele><time>2026-04-09T15:55:34.001Z</time></trkpt><trkpt lat="39.13517769813508" lon="9.438506043631536"><ele>29.0</ele><time>2026-04-09T15:55:35.001Z</time></trkpt><trkpt lat="39.13524615914652" lon="9.438666294510341"><ele>29.0</ele><time>2026-04-09T15:55:36.001Z</time></trkpt><trkpt lat="39.13534720408801" lon="9.438839131946619"><ele>32.666666666666664</ele><time>2026-04-09T15:55:37.001Z</time></trkpt><trkpt lat="39.13545021885008" lon="9.439001966381277"><ele>36.333333333333336</ele><time>2026-04-09T15:55:38.001Z</time></trkpt><trkpt lat="39.135557329652634" lon="9.439163331096008"><ele>40.0</ele><time>2026-04-09T15:55:39.001Z</time></trkpt><trkpt lat="39.13567819516592" lon="9.439308214167735"><ele>38.333333333333336</ele><time>2026-04-09T15:55:40.001Z</time></trkpt><trkpt lat="39.135809314960674" lon="9.439427347451609"><ele>36.666666666666664</ele><time>2026-04-09T15:55:41.001Z</time></trkpt><trkpt lat="39.135942616347535" lon="9.439532102499317"><ele>35.0</ele><time>2026-04-09T15:55:42.001Z</time></trkpt><trkpt lat="39.13607843839583" lon="9.439610965333205"><ele>35.0</ele><time>2026-04-09T15:55:43.001Z</time></trkpt><trkpt lat="39.13621149693378" lon="9.439646540163778"><ele>35.0</ele><time>2026-04-09T15:55:44.001Z</time></trkpt><trkpt lat="39.13634036241055" lon="9.439638892824428"><ele>35.0</ele><time>2026-04-09T15:55:45.001Z</time></trkpt><trkpt lat="39.13646521092852" lon="9.439630212727169"><ele>35.0</ele><time>2026-04-09T15:55:46.001Z</time></trkpt><trkpt lat="39.13656634907123" lon="9.439647690840127"><ele>39.0</ele><time>2026-04-09T15:55:47.001Z</time></trkpt><trkpt lat="39.13662170633851" lon="9.43971192648883"><ele>43.0</ele><time>2026-04-09T15:55:48.001Z</time></trkpt><trkpt lat="39.13658025196314" lon="9.43988254670775"><ele>47.0</ele><time>2026-04-09T15:55:50.001Z</time></trkpt><trkpt lat="39.13647134183711" lon="9.439932078597856"><ele>51.0</ele><time>2026-04-09T15:55:51.001Z</time></trkpt><trkpt lat="39.13631863917362" lon="9.439929574878418"><ele>53.0</ele><time>2026-04-09T15:55:52.001Z</time></trkpt><trkpt lat="39.13613593008232" lon="9.439856774984301"><ele>55.0</ele><time>2026-04-09T15:55:53.001Z</time></trkpt><trkpt lat="39.13593092645019" lon="9.439794654392239"><ele>57.0</ele><time>2026-04-09T15:55:54.001Z</time></trkpt><trkpt lat="39.135753371840295" lon="9.439704525770935"><ele>57.33333333333333</ele><time>2026-04-09T15:55:55Z</time></trkpt><trkpt lat="39.135591861700696" lon="9.439640016488967"><ele>57.666666666666664</ele><time>2026-04-09T15:55:56Z</time></trkpt><trkpt lat="39.135442417342674" lon="9.439615936092405"><ele>58.0</ele><time>2026-04-09T15:55:57Z</time></trkpt><trkpt lat="39.13529722109892" lon="9.439625151507427"><ele>58.0</ele><time>2026-04-09T15:55:58Z</time></trkpt><trkpt lat="39.13515235787535" lon="9.43966763179785"><ele>58.0</ele><time>2026-04-09T15:55:59Z</time></trkpt><trkpt lat="39.135014293284584" lon="9.439745328474432"><ele>58.0</ele><time>2026-04-09T15:56:00Z</time></trkpt><trkpt lat="39.1348975965053" lon="9.439860659618649"><ele>58.0</ele><time>2026-04-09T15:56:01Z</time></trkpt><trkpt lat="39.13479696406219" lon="9.440003962809854"><ele>56.0</ele><time>2026-04-09T15:56:02Z</time></trkpt><trkpt lat="39.13473409289267" lon="9.440199179568728"><ele>54.0</ele><time>2026-04-09T15:56:03Z</time></trkpt><trkpt lat="39.1346538358227" lon="9.440366870886368"><ele>52.0</ele><time>2026-04-09T15:56:04Z</time></trkpt><trkpt lat="39.13459217396913" lon="9.44050047302555"><ele>50.0</ele><time>2026-04-09T15:56:05Z</time></trkpt><trkpt lat="39.13452494472154" lon="9.440584018359502"><ele>52.75</ele><time>2026-04-09T15:56:06Z</time></trkpt><trkpt lat="39.13444137869062" lon="9.44062854287343"><ele>55.5</ele><time>2026-04-09T15:56:07Z</time></trkpt><trkpt lat="39.13432360682694" lon="9.440605572293855"><ele>58.25</ele><time>2026-04-09T15:56:08Z</time></trkpt><trkpt lat="39.134187228945684" lon="9.440527012495124"><ele>61.0</ele><time>2026-04-09T15:56:09Z</time></trkpt><trkpt lat="39.13405029031587" lon="9.440427411260712"><ele>61.0</ele><time>2026-04-09T15:56:10Z</time></trkpt><trkpt lat="39.13390764902829" lon="9.440357854332344"><ele>61.0</ele><time>2026-04-09T15:56:11Z</time></trkpt><trkpt lat="39.133755666225305" lon="9.44031979408629"><ele>61.0</ele><time>2026-04-09T15:56:12Z</time></trkpt><trkpt lat="39.13357511015079" lon="9.440307317510259"><ele>61.0</ele><time>2026-04-09T15:56:13Z</time></trkpt><trkpt lat="39.1333928123495" lon="9.440323561764915"><ele>61.0</ele><time>2026-04-09T15:56:14Z</time></trkpt><trkpt lat="39.133220550652844" lon="9.440336704468484"><ele>61.0</ele><time>2026-04-09T15:56:15Z</time></trkpt><trkpt lat="39.13307124064405" lon="9.440315935468288"><ele>65.5</ele><time>2026-04-09T15:56:16Z</time></trkpt><trkpt lat="39.13294315649416" lon="9.440256427648212"><ele>70.0</ele><time>2026-04-09T15:56:17Z</time></trkpt><trkpt lat="39.13284091440017" lon="9.440158202696155"><ele>74.5</ele><time>2026-04-09T15:56:18Z</time></trkpt><trkpt lat="39.13278092801686" lon="9.440026910484837"><ele>79.0</ele><time>2026-04-09T15:56:19Z</time></trkpt><trkpt lat="39.13275365435669" lon="9.439866634950201"><ele>79.0</ele><time>2026-04-09T15:56:20Z</time></trkpt><trkpt lat="39.132731561894" lon="9.439695494128262"><ele>79.0</ele><time>2026-04-09T15:56:21Z</time></trkpt><trkpt lat="39.13269779252341" lon="9.439543374387465"><ele>79.0</ele><time>2026-04-09T15:56:22Z</time></trkpt><trkpt lat="39.1326330160815" lon="9.439436686427758"><ele>79.0</ele><time>2026-04-09T15:56:23Z</time></trkpt><trkpt lat="39.13253787586504" lon="9.439397848737086"><ele>79.25</ele><time>2026-04-09T15:56:24Z</time></trkpt><trkpt lat="39.132427695907126" lon="9.439403214101171"><ele>79.5</ele><time>2026-04-09T15:56:25Z</time></trkpt><trkpt lat="39.13230861426713" lon="9.439508139812629"><ele>79.75</ele><time>2026-04-09T15:56:26Z</time></trkpt><trkpt lat="39.1321873582425" lon="9.439663280248865"><ele>80.0</ele><time>2026-04-09T15:56:27Z</time></trkpt><trkpt lat="39.132078385638124" lon="9.439809670772764"><ele>80.0</ele><time>2026-04-09T15:56:28Z</time></trkpt><trkpt lat="39.13197586930495" lon="9.439951977534255"><ele>80.0</ele><time>2026-04-09T15:56:29Z</time></trkpt><trkpt lat="39.13186168242885" lon="9.440077729779876"><ele>80.0</ele><time>2026-04-09T15:56:30Z</time></trkpt><trkpt lat="39.1317398367959" lon="9.440178288687141"><ele>80.0</ele><time>2026-04-09T15:56:31Z</time></trkpt><trkpt lat="39.13160512665248" lon="9.440231269062018"><ele>79.33333333333334</ele><time>2026-04-09T15:56:32Z</time></trkpt><trkpt lat="39.131445906165986" lon="9.440279559748776"><ele>78.66666666666667</ele><time>2026-04-09T15:56:33Z</time></trkpt><trkpt lat="39.1312830515044" lon="9.440342107569348"><ele>78.0</ele><time>2026-04-09T15:56:34Z</time></trkpt><trkpt lat="39.1311248091878" lon="9.440383583524437"><ele>78.0</ele><time>2026-04-09T15:56:35Z</time></trkpt><trkpt lat="39.13095815405999" lon="9.440432308181162"><ele>78.0</ele><time>2026-04-09T15:56:36Z</time></trkpt><trkpt lat="39.130794757024034" lon="9.440478100902482"><ele>78.0</ele><time>2026-04-09T15:56:37Z</time></trkpt><trkpt lat="39.13065042616747" lon="9.440499612842245"><ele>82.25</ele><time>2026-04-09T15:56:38Z</time></trkpt><trkpt lat="39.130520578256196" lon="9.440467375426884"><ele>86.5</ele><time>2026-04-09T15:56:39Z</time></trkpt><trkpt lat="39.13041415272482" lon="9.440365652473131"><ele>90.75</ele><time>2026-04-09T15:56:40Z</time></trkpt><trkpt lat="39.13031482968649" lon="9.44020080297434"><ele>95.0</ele><time>2026-04-09T15:56:41Z</time></trkpt><trkpt lat="39.13021197568775" lon="9.440028030547605"><ele>95.0</ele><time>2026-04-09T15:56:42Z</time></trkpt><trkpt lat="39.130110636363895" lon="9.439895817167729"><ele>95.0</ele><time>2026-04-09T15:56:43Z</time></trkpt><trkpt lat="39.12999921441034" lon="9.439800489906881"><ele>95.0</ele><time>2026-04-09T15:56:44Z</time></trkpt><trkpt lat="39.12988823357669" lon="9.439717431095245"><ele>95.0</ele><time>2026-04-09T15:56:45Z</time></trkpt><trkpt lat="39.12979274457641" lon="9.439643203661264"><ele>96.33333333333334</ele><time>2026-04-09T15:56:46.001Z</time></trkpt><trkpt lat="39.12970793189244" lon="9.43957471385944"><ele>97.66666666666667</ele><time>2026-04-09T15:56:47.001Z</time></trkpt><trkpt lat="39.129625783563306" lon="9.439521584551631"><ele>99.0</ele><time>2026-04-09T15:56:48.001Z</time></trkpt><trkpt lat="39.12955184559888" lon="9.439501268751092"><ele>100.33333333333334</ele><time>2026-04-09T15:56:49.001Z</time></trkpt><trkpt lat="39.129483825134955" lon="9.439498910115537"><ele>101.66666666666667</ele><time>2026-04-09T15:56:51.001Z</time></trkpt><trkpt lat="39.12938779696802" lon="9.439505827115132"><ele>103.0</ele><time>2026-04-09T15:56:55.001Z</time></trkpt><trkpt lat="39.1293936839783" lon="9.439593501336265"><ele>103.0</ele><time>2026-04-09T15:56:58.001Z</time></trkpt><trkpt lat="39.12928568152017" lon="9.439617048813618"><ele>103.0</ele><time>2026-04-09T16:00:08.001Z</time></trkpt><trkpt lat="39.129225965423224" lon="9.439701715794637"><ele>103.0</ele><time>2026-04-09T16:00:10.001Z</time></trkpt><trkpt lat="39.12910534456274" lon="9.439686056027188"><ele>103.0</ele><time>2026-04-09T16:00:11.001Z</time></trkpt><trkpt lat="39.128865967303064" lon="9.439360694284622"><ele>99.80000000000001</ele><time>2026-04-09T16:00:13.001Z</time></trkpt><trkpt lat="39.128791868512934" lon="9.43932840441628"><ele>96.6</ele><time>2026-04-09T16:00:14.001Z</time></trkpt><trkpt lat="39.12869677393987" lon="9.43923079426201"><ele>93.4</ele><time>2026-04-09T16:00:16.001Z</time></trkpt><trkpt lat="39.128657916943595" lon="9.439153746103168"><ele>90.19999999999999</ele><time>2026-04-09T16:00:17.001Z</time></trkpt><trkpt lat="39.12862477444893" lon="9.439058238391793"><ele>87.0</ele><time>2026-04-09T16:00:18.001Z</time></trkpt><trkpt lat="39.128551523748804" lon="9.438954969551647"><ele>87.0</ele><time>2026-04-09T16:00:20.001Z</time></trkpt><trkpt lat="39.12849054694253" lon="9.438924686601503"><ele>87.0</ele><time>2026-04-09T16:00:21.001Z</time></trkpt><trkpt lat="39.128358978921185" lon="9.438911025387691"><ele>87.0</ele><time>2026-04-09T16:00:23.001Z</time></trkpt><trkpt lat="39.12827057608895" lon="9.438900325531714"><ele>87.0</ele><time>2026-04-09T16:00:24.001Z</time></trkpt><trkpt lat="39.12819723255814" lon="9.438883052880644"><ele>87.0</ele><time>2026-04-09T16:00:25.001Z</time></trkpt><trkpt lat="39.12810856029594" lon="9.438853483877956"><ele>84.33333333333333</ele><time>2026-04-09T16:00:27.001Z</time></trkpt><trkpt lat="39.128017792179534" lon="9.438852695215127"><ele>81.66666666666667</ele><time>2026-04-09T16:00:29.001Z</time></trkpt><trkpt lat="39.12790797701432" lon="9.43883996932056"><ele>79.0</ele><time>2026-04-09T16:00:31.001Z</time></trkpt><trkpt lat="39.127839737951" lon="9.438843698624092"><ele>76.33333333333334</ele><time>2026-04-09T16:00:32.001Z</time></trkpt><trkpt lat="39.12776724780251" lon="9.438841058221428"><ele>73.66666666666667</ele><time>2026-04-09T16:00:33.001Z</time></trkpt><trkpt lat="39.127694354441935" lon="9.43884131812165"><ele>71.0</ele><time>2026-04-09T16:00:34.001Z</time></trkpt><trkpt lat="39.127628908783066" lon="9.438835150939777"><ele>71.0</ele><time>2026-04-09T16:00:35.001Z</time></trkpt><trkpt lat="39.127560364406875" lon="9.438840659986464"><ele>71.0</ele><time>2026-04-09T16:00:36.001Z</time></trkpt><trkpt lat="39.12748574256803" lon="9.438857611773951"><ele>71.0</ele><time>2026-04-09T16:00:37.001Z</time></trkpt><trkpt lat="39.127415817808355" lon="9.438867433633487"><ele>71.0</ele><time>2026-04-09T16:00:38.001Z</time></trkpt><trkpt lat="39.127347426352706" lon="9.438880090880549"><ele>71.0</ele><time>2026-04-09T16:00:39.001Z</time></trkpt><trkpt lat="39.12728472747147" lon="9.438901134826695"><ele>71.0</ele><time>2026-04-09T16:00:40.001Z</time></trkpt><trkpt lat="39.12721919665062" lon="9.438926538096348"><ele>71.0</ele><time>2026-04-09T16:00:41.001Z</time></trkpt><trkpt lat="39.12715475616096" lon="9.43893322011423"><ele>73.6</ele><time>2026-04-09T16:00:42.001Z</time></trkpt><trkpt lat="39.1270614007589" lon="9.438960542062963"><ele>76.19999999999999</ele><time>2026-04-09T16:00:44.001Z</time></trkpt><trkpt lat="39.12696610540604" lon="9.438935083682392"><ele>78.80000000000001</ele><time>2026-04-09T16:00:46.001Z</time></trkpt><trkpt lat="39.12686413304425" lon="9.438848313399932"><ele>81.4</ele><time>2026-04-09T16:00:48.001Z</time></trkpt><trkpt lat="39.12681622087173" lon="9.438791950930653"><ele>84.0</ele><time>2026-04-09T16:00:49.001Z</time></trkpt><trkpt lat="39.12672125685747" lon="9.438695759131758"><ele>84.0</ele><time>2026-04-09T16:00:51.001Z</time></trkpt><trkpt lat="39.12667633548773" lon="9.438633515468364"><ele>84.0</ele><time>2026-04-09T16:00:52.001Z</time></trkpt><trkpt lat="39.12663709965315" lon="9.43847628983921"><ele>84.0</ele><time>2026-04-09T16:00:54.001Z</time></trkpt><trkpt lat="39.12662830666795" lon="9.438353791277562"><ele>84.0</ele><time>2026-04-09T16:00:55.001Z</time></trkpt><trkpt lat="39.12661677874646" lon="9.438264822290087"><ele>84.0</ele><time>2026-04-09T16:00:56.001Z</time></trkpt><trkpt lat="39.12658626116449" lon="9.438191347753623"><ele>84.0</ele><time>2026-04-09T16:00:57.001Z</time></trkpt><trkpt lat="39.12653741092746" lon="9.438137855346838"><ele>81.8</ele><time>2026-04-09T16:00:58.001Z</time></trkpt><trkpt lat="39.12644030115115" lon="9.438070341283261"><ele>79.60000000000001</ele><time>2026-04-09T16:01:00.001Z</time></trkpt><trkpt lat="39.12634028122587" lon="9.43806603753731"><ele>77.4</ele><time>2026-04-09T16:01:02.001Z</time></trkpt><trkpt lat="39.12626647116918" lon="9.438044270466758"><ele>75.2</ele><time>2026-04-09T16:01:27.001Z</time></trkpt><trkpt lat="39.12615759757232" lon="9.438029135867813"><ele>73.0</ele><time>2026-04-09T16:01:29.001Z</time></trkpt><trkpt lat="39.12609181730613" lon="9.438037019084101"><ele>73.0</ele><time>2026-04-09T16:01:30.001Z</time></trkpt><trkpt lat="39.12602366463984" lon="9.438047846939588"><ele>73.0</ele><time>2026-04-09T16:01:31.001Z</time></trkpt><trkpt lat="39.12588622196842" lon="9.438063520310166"><ele>73.0</ele><time>2026-04-09T16:01:33.001Z</time></trkpt><trkpt lat="39.12580388171125" lon="9.438071359304146"><ele>73.0</ele><time>2026-04-09T16:01:34.001Z</time></trkpt><trkpt lat="39.12573287082192" lon="9.438078392023622"><ele>73.0</ele><time>2026-04-09T16:01:35.001Z</time></trkpt><trkpt lat="39.12564219934145" lon="9.43809557764763"><ele>73.0</ele><time>2026-04-09T16:01:36.001Z</time></trkpt><trkpt lat="39.12553201181438" lon="9.43809364890784"><ele>73.0</ele><time>2026-04-09T16:01:37.001Z</time></trkpt><trkpt lat="39.12540485073968" lon="9.43808207350355"><ele>73.0</ele><time>2026-04-09T16:01:38.001Z</time></trkpt><trkpt lat="39.125258832059004" lon="9.438068663589355"><ele>73.0</ele><time>2026-04-09T16:01:39.001Z</time></trkpt><trkpt lat="39.12511208606149" lon="9.438047857418933"><ele>73.0</ele><time>2026-04-09T16:01:40.001Z</time></trkpt><trkpt lat="39.12499203430077" lon="9.438035700299007"><ele>73.0</ele><time>2026-04-09T16:01:41.001Z</time></trkpt><trkpt lat="39.124873047005416" lon="9.43802985476642"><ele>73.0</ele><time>2026-04-09T16:01:42.001Z</time></trkpt><trkpt lat="39.12475361677019" lon="9.438028418898076"><ele>73.0</ele><time>2026-04-09T16:01:43.001Z</time></trkpt><trkpt lat="39.124635886405365" lon="9.438024551122403"><ele>72.2</ele><time>2026-04-09T16:01:44.001Z</time></trkpt><trkpt lat="39.124533536779815" lon="9.43801334292772"><ele>71.4</ele><time>2026-04-09T16:01:45.001Z</time></trkpt><trkpt lat="39.12444110726567" lon="9.438005682316259"><ele>70.60000000000001</ele><time>2026-04-09T16:01:46.001Z</time></trkpt><trkpt lat="39.12434421741604" lon="9.437985926048617"><ele>69.8</ele><time>2026-04-09T16:01:47.001Z</time></trkpt><trkpt lat="39.12425307446178" lon="9.43796202491505"><ele>69.0</ele><time>2026-04-09T16:01:48.001Z</time></trkpt><trkpt lat="39.12417511297075" lon="9.437941854006962"><ele>69.0</ele><time>2026-04-09T16:01:49.001Z</time></trkpt><trkpt lat="39.12410504334554" lon="9.437922676582042"><ele>69.0</ele><time>2026-04-09T16:01:50.001Z</time></trkpt><trkpt lat="39.12402854947849" lon="9.437894719012533"><ele>69.0</ele><time>2026-04-09T16:01:52.001Z</time></trkpt><trkpt lat="39.123999766228984" lon="9.437821419975089"><ele>69.0</ele><time>2026-04-09T16:01:56.001Z</time></trkpt><trkpt lat="39.124054377780126" lon="9.43776896939106"><ele>69.0</ele><time>2026-04-09T16:02:25Z</time></trkpt><trkpt lat="39.124078776371334" lon="9.437850910341304"><ele>69.0</ele><time>2026-04-09T16:02:28Z</time></trkpt><trkpt lat="39.12405594685523" lon="9.437927219647966"><ele>69.0</ele><time>2026-04-09T16:02:31Z</time></trkpt><trkpt lat="39.124002354837046" lon="9.43798188437573"><ele>66.14285714285714</ele><time>2026-04-09T16:02:36Z</time></trkpt><trkpt lat="39.12394239664214" lon="9.437924868891702"><ele>63.28571428571429</ele><time>2026-04-09T16:07:25.999Z</time></trkpt><trkpt lat="39.12386331302483" lon="9.43790944061583"><ele>60.42857142857143</ele><time>2026-04-09T16:07:32.999Z</time></trkpt><trkpt lat="39.12381058921062" lon="9.437964236277063"><ele>57.57142857142857</ele><time>2026-04-09T16:07:40Z</time></trkpt><trkpt lat="39.12375373255292" lon="9.438002346405955"><ele>54.714285714285715</ele><time>2026-04-09T16:07:46Z</time></trkpt><trkpt lat="39.12380335646458" lon="9.43794928457257"><ele>51.85714285714286</ele><time>2026-04-09T16:08:20Z</time></trkpt><trkpt lat="39.12386469567062" lon="9.437924048755203"><ele>49.0</ele><time>2026-04-09T16:08:26Z</time></trkpt><trkpt lat="39.12393579597898" lon="9.437954482894414"><ele>49.0</ele><time>2026-04-09T16:08:31Z</time></trkpt><trkpt lat="39.12400020943372" lon="9.437969156627444"><ele>49.0</ele><time>2026-04-09T16:08:35Z</time></trkpt><trkpt lat="39.12392716218511" lon="9.437960799301937"><ele>49.0</ele><time>2026-04-09T16:08:51Z</time></trkpt><trkpt lat="39.12386262502119" lon="9.437915290970412"><ele>49.0</ele><time>2026-04-09T16:08:54Z</time></trkpt><trkpt lat="39.12380179977209" lon="9.437954928124299"><ele>49.0</ele><time>2026-04-09T16:08:57Z</time></trkpt><trkpt lat="39.12373636302748" lon="9.437996366626672"><ele>49.0</ele><time>2026-04-09T16:09:00Z</time></trkpt><trkpt lat="39.12381064994926" lon="9.437968319836267"><ele>49.0</ele><time>2026-04-09T16:12:04.001Z</time></trkpt><trkpt lat="39.123886911672635" lon="9.43792291578816"><ele>49.0</ele><time>2026-04-09T16:12:06.001Z</time></trkpt><trkpt lat="39.12395013335705" lon="9.437963126491713"><ele>49.0</ele><time>2026-04-09T16:12:09.001Z</time></trkpt><trkpt lat="39.12402207276257" lon="9.43796580111623"><ele>49.0</ele><time>2026-04-09T16:20:49.002Z</time></trkpt><trkpt lat="39.12399860014177" lon="9.437878533315684"><ele>49.0</ele><time>2026-04-09T16:21:35.001Z</time></trkpt><trkpt lat="39.124011800404986" lon="9.437970656142316"><ele>49.0</ele><time>2026-04-09T16:24:42Z</time></trkpt><trkpt lat="39.12406257923774" lon="9.437894956978816"><ele>49.0</ele><time>2026-04-09T16:26:16Z</time></trkpt><trkpt lat="39.12407723109987" lon="9.437795098063535"><ele>49.0</ele><time>2026-04-09T16:26:18Z</time></trkpt><trkpt lat="39.124103534796184" lon="9.437695932907666"><ele>52.33333333333333</ele><time>2026-04-09T16:26:21Z</time></trkpt><trkpt lat="39.124179196949854" lon="9.437624357745554"><ele>55.666666666666664</ele><time>2026-04-09T16:26:23Z</time></trkpt><trkpt lat="39.12424911796353" lon="9.437585024464314"><ele>59.0</ele><time>2026-04-09T16:26:24Z</time></trkpt><trkpt lat="39.124314412930275" lon="9.437542321916116"><ele>62.33333333333333</ele><time>2026-04-09T16:26:25Z</time></trkpt><trkpt lat="39.124378590639495" lon="9.437495559861176"><ele>65.66666666666667</ele><time>2026-04-09T16:26:26Z</time></trkpt><trkpt lat="39.12443351714742" lon="9.43745132573477"><ele>69.0</ele><time>2026-04-09T16:26:27Z</time></trkpt><trkpt lat="39.12453836298735" lon="9.437362863041296"><ele>69.0</ele><time>2026-04-09T16:26:29Z</time></trkpt><trkpt lat="39.12461723308035" lon="9.43729755458251"><ele>69.0</ele><time>2026-04-09T16:26:30Z</time></trkpt><trkpt lat="39.12469257442541" lon="9.437233772407243"><ele>69.0</ele><time>2026-04-09T16:26:31Z</time></trkpt><trkpt lat="39.124772486130496" lon="9.437169523360456"><ele>69.0</ele><time>2026-04-09T16:26:32Z</time></trkpt><trkpt lat="39.12485095390413" lon="9.437102710089173"><ele>69.0</ele><time>2026-04-09T16:26:33Z</time></trkpt><trkpt lat="39.124935168291444" lon="9.437030224742921"><ele>70.2</ele><time>2026-04-09T16:26:34Z</time></trkpt><trkpt lat="39.12500748795823" lon="9.436949906509192"><ele>71.4</ele><time>2026-04-09T16:26:35Z</time></trkpt><trkpt lat="39.12508677683285" lon="9.436867951275865"><ele>72.6</ele><time>2026-04-09T16:26:36Z</time></trkpt><trkpt lat="39.12516198314071" lon="9.436789850089717"><ele>73.8</ele><time>2026-04-09T16:26:37Z</time></trkpt><trkpt lat="39.125229682364655" lon="9.43672159184407"><ele>75.0</ele><time>2026-04-09T16:26:38Z</time></trkpt><trkpt lat="39.125301932932345" lon="9.436661749240391"><ele>75.0</ele><time>2026-04-09T16:26:39Z</time></trkpt><trkpt lat="39.1253885963594" lon="9.436606596077809"><ele>75.0</ele><time>2026-04-09T16:26:40Z</time></trkpt><trkpt lat="39.125480462241065" lon="9.436557706948449"><ele>75.0</ele><time>2026-04-09T16:26:41Z</time></trkpt><trkpt lat="39.125562973309776" lon="9.436518500036888"><ele>75.0</ele><time>2026-04-09T16:26:42Z</time></trkpt><trkpt lat="39.12563846167986" lon="9.436491481251132"><ele>75.0</ele><time>2026-04-09T16:26:43Z</time></trkpt><trkpt lat="39.12571306517041" lon="9.436488397226025"><ele>75.0</ele><time>2026-04-09T16:26:44Z</time></trkpt><trkpt lat="39.12578439578908" lon="9.43650777583166"><ele>77.8</ele><time>2026-04-09T16:26:45Z</time></trkpt><trkpt lat="39.125861704138025" lon="9.436532431720895"><ele>80.6</ele><time>2026-04-09T16:26:46Z</time></trkpt><trkpt lat="39.12595811177627" lon="9.43656618398778"><ele>83.4</ele><time>2026-04-09T16:26:47Z</time></trkpt><trkpt lat="39.12604771894942" lon="9.436606730886075"><ele>86.2</ele><time>2026-04-09T16:26:48Z</time></trkpt><trkpt lat="39.12613101892742" lon="9.436640043502399"><ele>89.0</ele><time>2026-04-09T16:26:49Z</time></trkpt><trkpt lat="39.126217037851866" lon="9.436668883892777"><ele>89.0</ele><time>2026-04-09T16:26:50Z</time></trkpt><trkpt lat="39.12631274254703" lon="9.436691845347305"><ele>89.0</ele><time>2026-04-09T16:26:51Z</time></trkpt><trkpt lat="39.126411522806116" lon="9.436698936352474"><ele>89.0</ele><time>2026-04-09T16:26:52Z</time></trkpt><trkpt lat="39.12649995459209" lon="9.436698539348129"><ele>89.0</ele><time>2026-04-09T16:26:53Z</time></trkpt><trkpt lat="39.1265753007515" lon="9.436676163467725"><ele>89.0</ele><time>2026-04-09T16:26:54Z</time></trkpt><trkpt lat="39.12664045747561" lon="9.436633973787904"><ele>89.0</ele><time>2026-04-09T16:26:55Z</time></trkpt><trkpt lat="39.126710760882354" lon="9.436592430720205"><ele>88.66666666666667</ele><time>2026-04-09T16:26:56Z</time></trkpt><trkpt lat="39.12680189111459" lon="9.436558744513649"><ele>88.33333333333334</ele><time>2026-04-09T16:26:57Z</time></trkpt><trkpt lat="39.126886814812565" lon="9.436547327970697"><ele>88.0</ele><time>2026-04-09T16:26:58Z</time></trkpt><trkpt lat="39.12696647738138" lon="9.436535659728037"><ele>87.66666666666667</ele><time>2026-04-09T16:26:59Z</time></trkpt><trkpt lat="39.1270400816157" lon="9.4365270578542"><ele>87.33333333333333</ele><time>2026-04-09T16:27:00.001Z</time></trkpt><trkpt lat="39.127132516387896" lon="9.436528516248275"><ele>87.0</ele><time>2026-04-09T16:27:01.001Z</time></trkpt><trkpt lat="39.12722857880281" lon="9.436547428241894"><ele>87.0</ele><time>2026-04-09T16:27:02.001Z</time></trkpt><trkpt lat="39.12731443701166" lon="9.436572264736444"><ele>87.0</ele><time>2026-04-09T16:27:03.001Z</time></trkpt><trkpt lat="39.12738902949428" lon="9.4365975364842"><ele>87.0</ele><time>2026-04-09T16:27:04.001Z</time></trkpt><trkpt lat="39.12746073885357" lon="9.436603986841835"><ele>87.0</ele><time>2026-04-09T16:27:05.001Z</time></trkpt><trkpt lat="39.12753545461011" lon="9.436600502646044"><ele>87.0</ele><time>2026-04-09T16:27:06.001Z</time></trkpt><trkpt lat="39.12761345038757" lon="9.436589355243559"><ele>87.0</ele><time>2026-04-09T16:27:07.001Z</time></trkpt><trkpt lat="39.12767764263619" lon="9.436569463492015"><ele>87.5</ele><time>2026-04-09T16:27:08.001Z</time></trkpt><trkpt lat="39.12773067261137" lon="9.436524782102406"><ele>88.0</ele><time>2026-04-09T16:27:09.001Z</time></trkpt><trkpt lat="39.1278038601507" lon="9.436462788900052"><ele>88.5</ele><time>2026-04-09T16:27:10.001Z</time></trkpt><trkpt lat="39.127877609690756" lon="9.436395475753951"><ele>89.0</ele><time>2026-04-09T16:27:11.001Z</time></trkpt><trkpt lat="39.12794513031649" lon="9.436346839836286"><ele>89.5</ele><time>2026-04-09T16:27:12.001Z</time></trkpt><trkpt lat="39.12800917514936" lon="9.436291880646166"><ele>90.0</ele><time>2026-04-09T16:27:13.001Z</time></trkpt><trkpt lat="39.1280784575966" lon="9.436199519241265"><ele>87.4</ele><time>2026-04-09T16:27:14.001Z</time></trkpt><trkpt lat="39.12815324304619" lon="9.436081910773089"><ele>84.8</ele><time>2026-04-09T16:27:15.001Z</time></trkpt><trkpt lat="39.12822241949308" lon="9.43597813321376"><ele>82.2</ele><time>2026-04-09T16:27:16.001Z</time></trkpt><trkpt lat="39.12829011112846" lon="9.43587902429082"><ele>79.6</ele><time>2026-04-09T16:27:17.001Z</time></trkpt><trkpt lat="39.128344572237175" lon="9.435793137969414"><ele>77.0</ele><time>2026-04-09T16:27:18.001Z</time></trkpt><trkpt lat="39.12839577314261" lon="9.435714800431557"><ele>77.0</ele><time>2026-04-09T16:27:19.001Z</time></trkpt><trkpt lat="39.12845567263305" lon="9.435639644382881"><ele>77.0</ele><time>2026-04-09T16:27:20.001Z</time></trkpt><trkpt lat="39.128516567823006" lon="9.435582118388181"><ele>77.0</ele><time>2026-04-09T16:27:21.001Z</time></trkpt><trkpt lat="39.128579537824855" lon="9.43553461853755"><ele>77.0</ele><time>2026-04-09T16:27:22.001Z</time></trkpt><trkpt lat="39.12864883457244" lon="9.435498607750171"><ele>77.0</ele><time>2026-04-09T16:27:23.001Z</time></trkpt><trkpt lat="39.128718950461135" lon="9.43547446214912"><ele>77.0</ele><time>2026-04-09T16:27:24.001Z</time></trkpt><trkpt lat="39.128786083341595" lon="9.4354486943489"><ele>77.0</ele><time>2026-04-09T16:27:25Z</time></trkpt><trkpt lat="39.12885713170762" lon="9.435417648044275"><ele>74.14285714285714</ele><time>2026-04-09T16:27:26Z</time></trkpt><trkpt lat="39.128927785734724" lon="9.435392268190919"><ele>71.28571428571428</ele><time>2026-04-09T16:27:27Z</time></trkpt><trkpt lat="39.128993314450824" lon="9.435384637463452"><ele>68.42857142857143</ele><time>2026-04-09T16:27:28Z</time></trkpt><trkpt lat="39.12906642714126" lon="9.435382984834284"><ele>65.57142857142857</ele><time>2026-04-09T16:27:29Z</time></trkpt><trkpt lat="39.129134013923775" lon="9.435352034600347"><ele>62.71428571428571</ele><time>2026-04-09T16:27:30Z</time></trkpt><trkpt lat="39.12920133191584" lon="9.435328729219666"><ele>59.857142857142854</ele><time>2026-04-09T16:27:31Z</time></trkpt><trkpt lat="39.12927767319958" lon="9.435295638565949"><ele>57.0</ele><time>2026-04-09T16:27:32Z</time></trkpt><trkpt lat="39.12934731024105" lon="9.435275435552104"><ele>57.0</ele><time>2026-04-09T16:27:33Z</time></trkpt><trkpt lat="39.12942293662377" lon="9.435251112185862"><ele>57.0</ele><time>2026-04-09T16:27:34Z</time></trkpt><trkpt lat="39.12949448599537" lon="9.435234825512364"><ele>57.0</ele><time>2026-04-09T16:27:35Z</time></trkpt><trkpt lat="39.12956488112416" lon="9.4352284300941"><ele>57.0</ele><time>2026-04-09T16:27:36Z</time></trkpt><trkpt lat="39.129641329355636" lon="9.435216910381724"><ele>57.0</ele><time>2026-04-09T16:27:37Z</time></trkpt><trkpt lat="39.12971600137021" lon="9.435210592450709"><ele>57.0</ele><time>2026-04-09T16:27:38Z</time></trkpt><trkpt lat="39.12980169993198" lon="9.4352099635465"><ele>57.0</ele><time>2026-04-09T16:27:39Z</time></trkpt><trkpt lat="39.129882099021316" lon="9.435221502998347"><ele>57.0</ele><time>2026-04-09T16:27:40Z</time></trkpt><trkpt lat="39.129947651293165" lon="9.435216971697647"><ele>57.0</ele><time>2026-04-09T16:27:41Z</time></trkpt><trkpt lat="39.13001468009046" lon="9.435219070181454"><ele>57.0</ele><time>2026-04-09T16:27:42Z</time></trkpt><trkpt lat="39.13010210915047" lon="9.435223329579324"><ele>57.0</ele><time>2026-04-09T16:27:43Z</time></trkpt><trkpt lat="39.13019706878936" lon="9.43523502708528"><ele>57.0</ele><time>2026-04-09T16:27:44Z</time></trkpt><trkpt lat="39.1302791370048" lon="9.435245614196461"><ele>57.333333333333336</ele><time>2026-04-09T16:27:45Z</time></trkpt><trkpt lat="39.13035275164904" lon="9.435259955514757"><ele>57.66666666666667</ele><time>2026-04-09T16:27:46Z</time></trkpt><trkpt lat="39.1304304558263" lon="9.435269156724608"><ele>58.0</ele><time>2026-04-09T16:27:47Z</time></trkpt><trkpt lat="39.1304950809254" lon="9.43528137112639"><ele>58.333333333333336</ele><time>2026-04-09T16:27:48Z</time></trkpt><trkpt lat="39.130578944167596" lon="9.435322756798366"><ele>58.66666666666667</ele><time>2026-04-09T16:27:49Z</time></trkpt><trkpt lat="39.130675896032244" lon="9.435388789681669"><ele>59.0</ele><time>2026-04-09T16:27:50Z</time></trkpt><trkpt lat="39.13076335326203" lon="9.43543219844098"><ele>57.66666666666667</ele><time>2026-04-09T16:27:51Z</time></trkpt><trkpt lat="39.13084631501913" lon="9.435449635461424"><ele>56.333333333333336</ele><time>2026-04-09T16:27:52Z</time></trkpt><trkpt lat="39.130929126079835" lon="9.435475623427683"><ele>55.0</ele><time>2026-04-09T16:27:53Z</time></trkpt><trkpt lat="39.130990991738415" lon="9.435513106029317"><ele>53.66666666666667</ele><time>2026-04-09T16:27:54Z</time></trkpt><trkpt lat="39.13104379577422" lon="9.435617901080683"><ele>52.333333333333336</ele><time>2026-04-09T16:27:56Z</time></trkpt><trkpt lat="39.13101794011738" lon="9.43571175321752"><ele>51.0</ele><time>2026-04-09T16:27:58Z</time></trkpt><trkpt lat="39.13096114876861" lon="9.43577845680361"><ele>54.166666666666664</ele><time>2026-04-09T16:28:00Z</time></trkpt><trkpt lat="39.130907847916006" lon="9.435846730401142"><ele>57.33333333333333</ele><time>2026-04-09T16:28:01Z</time></trkpt><trkpt lat="39.13084706625714" lon="9.43592079542001"><ele>60.5</ele><time>2026-04-09T16:28:02Z</time></trkpt><trkpt lat="39.13077781627477" lon="9.435992057367045"><ele>63.666666666666664</ele><time>2026-04-09T16:28:03Z</time></trkpt><trkpt lat="39.13070118344721" lon="9.43607221137503"><ele>66.83333333333333</ele><time>2026-04-09T16:28:04Z</time></trkpt><trkpt lat="39.130629537055405" lon="9.436157876986632"><ele>70.0</ele><time>2026-04-09T16:28:05Z</time></trkpt><trkpt lat="39.13055068451628" lon="9.43624831863159"><ele>73.83333333333333</ele><time>2026-04-09T16:28:06Z</time></trkpt><trkpt lat="39.13048663886455" lon="9.436325776405049"><ele>77.66666666666666</ele><time>2026-04-09T16:28:07Z</time></trkpt><trkpt lat="39.13043768514163" lon="9.436398996345947"><ele>81.5</ele><time>2026-04-09T16:28:08Z</time></trkpt><trkpt lat="39.13038172605524" lon="9.436475814993603"><ele>85.33333333333333</ele><time>2026-04-09T16:28:09Z</time></trkpt><trkpt lat="39.130338358800415" lon="9.436545146866226"><ele>89.16666666666667</ele><time>2026-04-09T16:28:10Z</time></trkpt><trkpt lat="39.13031205004695" lon="9.436682819313578"><ele>93.0</ele><time>2026-04-09T16:28:12Z</time></trkpt><trkpt lat="39.13035806713224" lon="9.436822364518639"><ele>93.0</ele><time>2026-04-09T16:28:14Z</time></trkpt><trkpt lat="39.130411015538165" lon="9.436910999392211"><ele>93.0</ele><time>2026-04-09T16:28:15Z</time></trkpt><trkpt lat="39.13048505020249" lon="9.437002130415678"><ele>93.0</ele><time>2026-04-09T16:28:16Z</time></trkpt><trkpt lat="39.13056527367903" lon="9.437116463356453"><ele>93.0</ele><time>2026-04-09T16:28:17Z</time></trkpt><trkpt lat="39.13064214368322" lon="9.437228517650562"><ele>93.0</ele><time>2026-04-09T16:28:18Z</time></trkpt><trkpt lat="39.13071158761509" lon="9.437334380997086"><ele>94.5</ele><time>2026-04-09T16:28:19Z</time></trkpt><trkpt lat="39.1307630010314" lon="9.437424078417347"><ele>96.0</ele><time>2026-04-09T16:28:20Z</time></trkpt><trkpt lat="39.1307942635332" lon="9.437503953300148"><ele>97.5</ele><time>2026-04-09T16:28:21Z</time></trkpt><trkpt lat="39.13080860646383" lon="9.437670891893728"><ele>99.0</ele><time>2026-04-09T16:28:23Z</time></trkpt><trkpt lat="39.13078042253615" lon="9.437752737675345"><ele>100.5</ele><time>2026-04-09T16:28:24Z</time></trkpt><trkpt lat="39.130730217597986" lon="9.437831805634062"><ele>102.0</ele><time>2026-04-09T16:28:25Z</time></trkpt><trkpt lat="39.13066786882883" lon="9.437908835130465"><ele>102.0</ele><time>2026-04-09T16:28:26Z</time></trkpt><trkpt lat="39.1305923557019" lon="9.437997052461903"><ele>102.0</ele><time>2026-04-09T16:28:27Z</time></trkpt><trkpt lat="39.130514456649884" lon="9.43808456346755"><ele>102.0</ele><time>2026-04-09T16:28:28Z</time></trkpt><trkpt lat="39.13043473320475" lon="9.438193810004202"><ele>102.0</ele><time>2026-04-09T16:28:29Z</time></trkpt><trkpt lat="39.13036181273292" lon="9.438293924656973"><ele>102.0</ele><time>2026-04-09T16:28:30Z</time></trkpt><trkpt lat="39.130296507741505" lon="9.438397423976067"><ele>102.0</ele><time>2026-04-09T16:28:31Z</time></trkpt><trkpt lat="39.130226358883284" lon="9.438505959190051"><ele>102.0</ele><time>2026-04-09T16:28:32Z</time></trkpt><trkpt lat="39.13015684030821" lon="9.438612515611132"><ele>102.0</ele><time>2026-04-09T16:28:33Z</time></trkpt><trkpt lat="39.130085292679894" lon="9.438711466232082"><ele>102.0</ele><time>2026-04-09T16:28:34Z</time></trkpt><trkpt lat="39.130004405684204" lon="9.438805219272503"><ele>102.0</ele><time>2026-04-09T16:28:35Z</time></trkpt><trkpt lat="39.129923755133596" lon="9.438888727442153"><ele>102.16666666666667</ele><time>2026-04-09T16:28:36Z</time></trkpt><trkpt lat="39.12985173404017" lon="9.438969411599192"><ele>102.33333333333334</ele><time>2026-04-09T16:28:37Z</time></trkpt><trkpt lat="39.12978868758374" lon="9.439054701475886"><ele>102.5</ele><time>2026-04-09T16:28:38Z</time></trkpt><trkpt lat="39.12973311400365" lon="9.439122716586294"><ele>102.66666666666667</ele><time>2026-04-09T16:28:39Z</time></trkpt><trkpt lat="39.129684753652995" lon="9.439179395868416"><ele>102.83333333333334</ele><time>2026-04-09T16:28:40Z</time></trkpt><trkpt lat="39.129634616376386" lon="9.439264261044"><ele>103.0</ele><time>2026-04-09T16:28:41Z</time></trkpt><trkpt lat="39.12959030734643" lon="9.43932974943888"><ele>103.0</ele><time>2026-04-09T16:28:42Z</time></trkpt><trkpt lat="39.12952032733023" lon="9.439429685963017"><ele>103.0</ele><time>2026-04-09T16:28:44.001Z</time></trkpt><trkpt lat="39.129438104611324" lon="9.439494210368043"><ele>103.0</ele><time>2026-04-09T16:28:46.001Z</time></trkpt><trkpt lat="39.129375668063595" lon="9.439531832207843"><ele>103.0</ele><time>2026-04-09T16:28:48.001Z</time></trkpt><trkpt lat="39.1288031555285" lon="9.4393359097781"><ele>99.80000000000001</ele><time>2026-04-09T16:33:23.001Z</time></trkpt><trkpt lat="39.1287223964439" lon="9.439266579223242"><ele>96.6</ele><time>2026-04-09T16:33:25.001Z</time></trkpt><trkpt lat="39.128658006625884" lon="9.439127967109805"><ele>93.4</ele><time>2026-04-09T16:33:27.001Z</time></trkpt><trkpt lat="39.12862334516902" lon="9.439047555201437"><ele>90.19999999999999</ele><time>2026-04-09T16:33:28.001Z</time></trkpt><trkpt lat="39.12853582846802" lon="9.438959517112826"><ele>87.0</ele><time>2026-04-09T16:33:30.001Z</time></trkpt><trkpt lat="39.12846926403973" lon="9.438931594383252"><ele>87.0</ele><time>2026-04-09T16:33:31.001Z</time></trkpt><trkpt lat="39.128395631116895" lon="9.438920732414058"><ele>87.0</ele><time>2026-04-09T16:33:32.001Z</time></trkpt><trkpt lat="39.12830602639965" lon="9.43890269371687"><ele>87.0</ele><time>2026-04-09T16:33:33.001Z</time></trkpt><trkpt lat="39.12821572724208" lon="9.438880205221333"><ele>87.0</ele><time>2026-04-09T16:33:34.001Z</time></trkpt><trkpt lat="39.12814749757596" lon="9.43886832005816"><ele>87.0</ele><time>2026-04-09T16:33:35.001Z</time></trkpt><trkpt lat="39.12808347790306" lon="9.43885649836233"><ele>87.0</ele><time>2026-04-09T16:33:36.001Z</time></trkpt><trkpt lat="39.12800117481114" lon="9.438847882075121"><ele>84.71428571428571</ele><time>2026-04-09T16:33:37.001Z</time></trkpt><trkpt lat="39.1279157279899" lon="9.43884621425427"><ele>82.42857142857143</ele><time>2026-04-09T16:33:38.001Z</time></trkpt><trkpt lat="39.12783576467435" lon="9.438848528751988"><ele>80.14285714285714</ele><time>2026-04-09T16:33:39.001Z</time></trkpt><trkpt lat="39.12777129471363" lon="9.43884612237355"><ele>77.85714285714286</ele><time>2026-04-09T16:33:40.001Z</time></trkpt><trkpt lat="39.12769667843811" lon="9.43884003955501"><ele>75.57142857142857</ele><time>2026-04-09T16:33:41.001Z</time></trkpt><trkpt lat="39.12762923186885" lon="9.438835388833036"><ele>73.28571428571428</ele><time>2026-04-09T16:33:42.001Z</time></trkpt><trkpt lat="39.12755939728276" lon="9.43883804197279"><ele>71.0</ele><time>2026-04-09T16:33:43.001Z</time></trkpt><trkpt lat="39.127484837451114" lon="9.43884706064711"><ele>71.0</ele><time>2026-04-09T16:33:44.001Z</time></trkpt><trkpt lat="39.12739974256981" lon="9.438867462199623"><ele>71.0</ele><time>2026-04-09T16:33:45.001Z</time></trkpt><trkpt lat="39.12732535488201" lon="9.438884808420985"><ele>71.0</ele><time>2026-04-09T16:33:46.001Z</time></trkpt><trkpt lat="39.1272509361665" lon="9.438904745843551"><ele>71.0</ele><time>2026-04-09T16:33:47.001Z</time></trkpt><trkpt lat="39.12718367009467" lon="9.438929135153312"><ele>71.0</ele><time>2026-04-09T16:33:48.001Z</time></trkpt><trkpt lat="39.12707044463548" lon="9.438965744967701"><ele>71.0</ele><time>2026-04-09T16:33:50.001Z</time></trkpt><trkpt lat="39.1269843435574" lon="9.43893749428168"><ele>73.6</ele><time>2026-04-09T16:33:52.001Z</time></trkpt><trkpt lat="39.12687505583259" lon="9.438847930888688"><ele>76.19999999999999</ele><time>2026-04-09T16:33:54.001Z</time></trkpt><trkpt lat="39.12682535421652" lon="9.438777977613253"><ele>78.80000000000001</ele><time>2026-04-09T16:33:55.001Z</time></trkpt><trkpt lat="39.12674404012308" lon="9.43869306027726"><ele>81.4</ele><time>2026-04-09T16:33:57Z</time></trkpt><trkpt lat="39.126661904232805" lon="9.43859917720562"><ele>84.0</ele><time>2026-04-09T16:33:59Z</time></trkpt><trkpt lat="39.12664205706305" lon="9.438516181372956"><ele>84.0</ele><time>2026-04-09T16:34:00Z</time></trkpt><trkpt lat="39.126629139482056" lon="9.438415662297686"><ele>84.0</ele><time>2026-04-09T16:34:01Z</time></trkpt><trkpt lat="39.126620867120494" lon="9.438314575485892"><ele>84.0</ele><time>2026-04-09T16:34:02Z</time></trkpt><trkpt lat="39.12659196682593" lon="9.438173718702187"><ele>84.0</ele><time>2026-04-09T16:34:04Z</time></trkpt><trkpt lat="39.12653279895468" lon="9.438111605539428"><ele>84.0</ele><time>2026-04-09T16:34:05Z</time></trkpt><trkpt lat="39.126473873779716" lon="9.438068360732217"><ele>84.0</ele><time>2026-04-09T16:34:06Z</time></trkpt><trkpt lat="39.126408860175964" lon="9.438035756458433"><ele>82.42857142857143</ele><time>2026-04-09T16:34:07Z</time></trkpt><trkpt lat="39.12634511777712" lon="9.438030772927272"><ele>80.85714285714286</ele><time>2026-04-09T16:34:08Z</time></trkpt><trkpt lat="39.12627579420479" lon="9.438033949485812"><ele>79.28571428571428</ele><time>2026-04-09T16:34:09Z</time></trkpt><trkpt lat="39.12620356176266" lon="9.438031046954883"><ele>77.71428571428572</ele><time>2026-04-09T16:34:10Z</time></trkpt><trkpt lat="39.12612707557206" lon="9.438025723801145"><ele>76.14285714285714</ele><time>2026-04-09T16:34:11Z</time></trkpt><trkpt lat="39.12604495911544" lon="9.43803320572759"><ele>74.57142857142857</ele><time>2026-04-09T16:34:12Z</time></trkpt><trkpt lat="39.12596942678499" lon="9.438053756536645"><ele>73.0</ele><time>2026-04-09T16:34:13Z</time></trkpt><trkpt lat="39.12588877445917" lon="9.43805972609533"><ele>73.0</ele><time>2026-04-09T16:34:14Z</time></trkpt><trkpt lat="39.12581039778867" lon="9.438061702320304"><ele>73.0</ele><time>2026-04-09T16:34:15Z</time></trkpt><trkpt lat="39.125747369577766" lon="9.438069914054504"><ele>73.0</ele><time>2026-04-09T16:34:16Z</time></trkpt><trkpt lat="39.12567298768175" lon="9.438090167503766"><ele>73.0</ele><time>2026-04-09T16:34:17Z</time></trkpt><trkpt lat="39.12558712052044" lon="9.438095002993986"><ele>73.0</ele><time>2026-04-09T16:34:18Z</time></trkpt><trkpt lat="39.1255014332282" lon="9.438089332079068"><ele>73.0</ele><time>2026-04-09T16:34:19Z</time></trkpt><trkpt lat="39.125411730260815" lon="9.438074951484188"><ele>73.0</ele><time>2026-04-09T16:34:20Z</time></trkpt><trkpt lat="39.12532788092625" lon="9.438065698745074"><ele>73.0</ele><time>2026-04-09T16:34:21Z</time></trkpt><trkpt lat="39.125250102516816" lon="9.43805629123666"><ele>73.0</ele><time>2026-04-09T16:34:22Z</time></trkpt><trkpt lat="39.12518028444386" lon="9.438050411204912"><ele>73.0</ele><time>2026-04-09T16:34:23Z</time></trkpt><trkpt lat="39.12511575582375" lon="9.438039906015762"><ele>73.0</ele><time>2026-04-09T16:34:24Z</time></trkpt><trkpt lat="39.125051704958636" lon="9.438035006634209"><ele>73.0</ele><time>2026-04-09T16:34:26Z</time></trkpt><trkpt lat="39.12494429384274" lon="9.438004848713135"><ele>71.33333333333333</ele><time>2026-04-09T16:35:31.001Z</time></trkpt><trkpt lat="39.12487335642082" lon="9.438009411924291"><ele>69.66666666666666</ele><time>2026-04-09T16:35:32.001Z</time></trkpt><trkpt lat="39.12479690841808" lon="9.438006960192412"><ele>68.0</ele><time>2026-04-09T16:35:33.001Z</time></trkpt><trkpt lat="39.12472828458506" lon="9.438006315664115"><ele>66.33333333333333</ele><time>2026-04-09T16:35:34.001Z</time></trkpt><trkpt lat="39.12466293439245" lon="9.438002001069744"><ele>64.66666666666667</ele><time>2026-04-09T16:35:35.001Z</time></trkpt><trkpt lat="39.12458956209171" lon="9.437998099593656"><ele>63.0</ele><time>2026-04-09T16:35:36.001Z</time></trkpt><trkpt lat="39.12444888934582" lon="9.437991862726623"><ele>63.0</ele><time>2026-04-09T16:35:38.001Z</time></trkpt><trkpt lat="39.12437805715435" lon="9.437968864001329"><ele>63.0</ele><time>2026-04-09T16:35:39.001Z</time></trkpt><trkpt lat="39.12431117721881" lon="9.437951055815242"><ele>63.0</ele><time>2026-04-09T16:35:40.001Z</time></trkpt><trkpt lat="39.124242642364344" lon="9.437941166719085"><ele>63.0</ele><time>2026-04-09T16:35:41.001Z</time></trkpt><trkpt lat="39.12417908216213" lon="9.43792449173318"><ele>63.0</ele><time>2026-04-09T16:35:42.001Z</time></trkpt><trkpt lat="39.1240840399497" lon="9.437915347742114"><ele>63.0</ele><time>2026-04-09T16:35:44.001Z</time></trkpt><trkpt lat="39.12401910681605" lon="9.437920292424693"><ele>63.0</ele><time>2026-04-09T16:35:46.001Z</time></trkpt><trkpt lat="39.1239484159764" lon="9.437891104282214"><ele>64.0</ele><time>2026-04-09T16:35:50Z</time></trkpt><trkpt lat="39.123969943403914" lon="9.43779646182299"><ele>65.0</ele><time>2026-04-09T16:35:53Z</time></trkpt><trkpt lat="39.1240284690369" lon="9.437757735884668"><ele>66.0</ele><time>2026-04-09T16:35:55Z</time></trkpt><trkpt lat="39.12408033272917" lon="9.437709866158308"><ele>67.0</ele><time>2026-04-09T16:35:57Z</time></trkpt><trkpt lat="39.124141604350065" lon="9.437663766378046"><ele>68.0</ele><time>2026-04-09T16:35:59Z</time></trkpt><trkpt lat="39.124221537973575" lon="9.437625236552023"><ele>69.0</ele><time>2026-04-09T16:36:01Z</time></trkpt><trkpt lat="39.12432894175196" lon="9.437552812407187"><ele>69.0</ele><time>2026-04-09T16:36:03Z</time></trkpt><trkpt lat="39.1244377493109" lon="9.437459660949182"><ele>69.0</ele><time>2026-04-09T16:36:05Z</time></trkpt><trkpt lat="39.12449475846739" lon="9.437415583920478"><ele>69.0</ele><time>2026-04-09T16:36:06Z</time></trkpt><trkpt lat="39.1245503073933" lon="9.43736530541225"><ele>69.0</ele><time>2026-04-09T16:36:07Z</time></trkpt><trkpt lat="39.12461067178321" lon="9.437298358438087"><ele>69.0</ele><time>2026-04-09T16:36:08Z</time></trkpt><trkpt lat="39.12467488188845" lon="9.437242403674812"><ele>69.0</ele><time>2026-04-09T16:36:09Z</time></trkpt><trkpt lat="39.12473737208813" lon="9.437196927987644"><ele>69.0</ele><time>2026-04-09T16:36:10Z</time></trkpt><trkpt lat="39.12480011899707" lon="9.437150058843867"><ele>69.0</ele><time>2026-04-09T16:36:11Z</time></trkpt><trkpt lat="39.12486378389166" lon="9.437094978869265"><ele>69.0</ele><time>2026-04-09T16:36:12Z</time></trkpt><trkpt lat="39.124917171631246" lon="9.43704688788356"><ele>69.0</ele><time>2026-04-09T16:36:13Z</time></trkpt><trkpt lat="39.124968225983544" lon="9.436989076165426"><ele>69.0</ele><time>2026-04-09T16:36:14Z</time></trkpt><trkpt lat="39.12501881857889" lon="9.436931987971716"><ele>69.0</ele><time>2026-04-09T16:36:15Z</time></trkpt><trkpt lat="39.125069348370026" lon="9.436877614340709"><ele>69.0</ele><time>2026-04-09T16:36:16Z</time></trkpt><trkpt lat="39.12511962955727" lon="9.436824612816904"><ele>69.85714285714286</ele><time>2026-04-09T16:36:17Z</time></trkpt><trkpt lat="39.125168523930455" lon="9.43677039866035"><ele>70.71428571428572</ele><time>2026-04-09T16:36:18Z</time></trkpt><trkpt lat="39.125220573605624" lon="9.436717670472891"><ele>71.57142857142857</ele><time>2026-04-09T16:36:19Z</time></trkpt><trkpt lat="39.12527626580655" lon="9.436667241220597"><ele>72.42857142857143</ele><time>2026-04-09T16:36:20Z</time></trkpt><trkpt lat="39.125338046440014" lon="9.4366239627716"><ele>73.28571428571428</ele><time>2026-04-09T16:36:21Z</time></trkpt><trkpt lat="39.12539747478056" lon="9.436590712209911"><ele>74.14285714285714</ele><time>2026-04-09T16:36:22Z</time></trkpt><trkpt lat="39.125460949929014" lon="9.43655309743564"><ele>75.0</ele><time>2026-04-09T16:36:23Z</time></trkpt><trkpt lat="39.12553368462949" lon="9.43651528863464"><ele>75.0</ele><time>2026-04-09T16:36:24Z</time></trkpt><trkpt lat="39.12560988519335" lon="9.436486006315697"><ele>75.0</ele><time>2026-04-09T16:36:25Z</time></trkpt><trkpt lat="39.125683867625455" lon="9.43647516516681"><ele>75.0</ele><time>2026-04-09T16:36:26Z</time></trkpt><trkpt lat="39.12575891888696" lon="9.436485982321805"><ele>75.0</ele><time>2026-04-09T16:36:27Z</time></trkpt><trkpt lat="39.12583453423165" lon="9.436515507837557"><ele>75.0</ele><time>2026-04-09T16:36:28Z</time></trkpt><trkpt lat="39.12591660370181" lon="9.436548032978425"><ele>75.0</ele><time>2026-04-09T16:36:29Z</time></trkpt><trkpt lat="39.125994949378" lon="9.436583903200253"><ele>77.8</ele><time>2026-04-09T16:36:30Z</time></trkpt><trkpt lat="39.12606976943983" lon="9.436612473326402"><ele>80.6</ele><time>2026-04-09T16:36:31Z</time></trkpt><trkpt lat="39.126159749008615" lon="9.436647095582014"><ele>83.4</ele><time>2026-04-09T16:36:32Z</time></trkpt><trkpt lat="39.126250382302146" lon="9.436677643828048"><ele>86.2</ele><time>2026-04-09T16:36:33Z</time></trkpt><trkpt lat="39.12632091100004" lon="9.43669618593758"><ele>89.0</ele><time>2026-04-09T16:36:34Z</time></trkpt><trkpt lat="39.12644934604932" lon="9.436705254819229"><ele>89.0</ele><time>2026-04-09T16:36:36Z</time></trkpt><trkpt lat="39.12651458157136" lon="9.43669596763866"><ele>89.0</ele><time>2026-04-09T16:36:37Z</time></trkpt><trkpt lat="39.126575754556974" lon="9.436672082073756"><ele>89.0</ele><time>2026-04-09T16:36:38Z</time></trkpt><trkpt lat="39.126689567933504" lon="9.436614166270864"><ele>89.0</ele><time>2026-04-09T16:36:40Z</time></trkpt><trkpt lat="39.126750492526824" lon="9.436590428232945"><ele>89.0</ele><time>2026-04-09T16:36:41Z</time></trkpt><trkpt lat="39.12683001301887" lon="9.436577305630955"><ele>89.0</ele><time>2026-04-09T16:36:42Z</time></trkpt><trkpt lat="39.12689480188944" lon="9.436570383370759"><ele>89.14285714285714</ele><time>2026-04-09T16:36:43Z</time></trkpt><trkpt lat="39.12697113850518" lon="9.4365535719298"><ele>89.28571428571428</ele><time>2026-04-09T16:36:44Z</time></trkpt><trkpt lat="39.12703678039487" lon="9.436545654509482"><ele>89.42857142857142</ele><time>2026-04-09T16:36:45Z</time></trkpt><trkpt lat="39.127103736066076" lon="9.4365573810572"><ele>89.57142857142857</ele><time>2026-04-09T16:36:46Z</time></trkpt><trkpt lat="39.12716999111489" lon="9.436568939690366"><ele>89.71428571428572</ele><time>2026-04-09T16:36:47Z</time></trkpt><trkpt lat="39.12724369169438" lon="9.436573113040968"><ele>89.85714285714285</ele><time>2026-04-09T16:36:48Z</time></trkpt><trkpt lat="39.12731269437136" lon="9.436589639083698"><ele>90.0</ele><time>2026-04-09T16:36:49Z</time></trkpt><trkpt lat="39.127415489216546" lon="9.436610609154265"><ele>90.0</ele><time>2026-04-09T16:36:51Z</time></trkpt><trkpt lat="39.1275113351368" lon="9.436607727913227"><ele>90.0</ele><time>2026-04-09T16:36:53Z</time></trkpt><trkpt lat="39.1276197663103" lon="9.43657331406303"><ele>90.0</ele><time>2026-04-09T16:36:55Z</time></trkpt><trkpt lat="39.12772487043155" lon="9.436509765914876"><ele>90.0</ele><time>2026-04-09T16:36:57Z</time></trkpt><trkpt lat="39.12778368522963" lon="9.436469491751666"><ele>90.0</ele><time>2026-04-09T16:36:58Z</time></trkpt><trkpt lat="39.127840523971905" lon="9.436426027851706"><ele>90.0</ele><time>2026-04-09T16:36:59Z</time></trkpt><trkpt lat="39.127952504073804" lon="9.436345692460764"><ele>90.0</ele><time>2026-04-09T16:37:01Z</time></trkpt><trkpt lat="39.12800628256781" lon="9.436289574591186"><ele>90.0</ele><time>2026-04-09T16:37:02Z</time></trkpt><trkpt lat="39.12805764078794" lon="9.436225913642232"><ele>90.0</ele><time>2026-04-09T16:37:03Z</time></trkpt><trkpt lat="39.12809853944521" lon="9.436156908900452"><ele>90.0</ele><time>2026-04-09T16:37:04Z</time></trkpt><trkpt lat="39.1281389396536" lon="9.436089214498004"><ele>90.0</ele><time>2026-04-09T16:37:05Z</time></trkpt><trkpt lat="39.12817909955653" lon="9.436023086780757"><ele>88.14285714285714</ele><time>2026-04-09T16:37:06Z</time></trkpt><trkpt lat="39.12822418189763" lon="9.435959228161616"><ele>86.28571428571429</ele><time>2026-04-09T16:37:07Z</time></trkpt><trkpt lat="39.128271255196005" lon="9.43589353000435"><ele>84.42857142857143</ele><time>2026-04-09T16:37:08Z</time></trkpt><trkpt lat="39.12831534321999" lon="9.435829297526494"><ele>82.57142857142857</ele><time>2026-04-09T16:37:09Z</time></trkpt><trkpt lat="39.12835891574094" lon="9.435761216008224"><ele>80.71428571428572</ele><time>2026-04-09T16:37:10Z</time></trkpt><trkpt lat="39.12840697743112" lon="9.435697391945224"><ele>78.85714285714286</ele><time>2026-04-09T16:37:11Z</time></trkpt><trkpt lat="39.12845521061333" lon="9.435633495748533"><ele>77.0</ele><time>2026-04-09T16:37:12Z</time></trkpt><trkpt lat="39.12855322697892" lon="9.435541255200837"><ele>77.0</ele><time>2026-04-09T16:37:14Z</time></trkpt><trkpt lat="39.12861175205118" lon="9.435501901790396"><ele>77.0</ele><time>2026-04-09T16:37:15Z</time></trkpt><trkpt lat="39.12867617709219" lon="9.435486670634992"><ele>77.0</ele><time>2026-04-09T16:37:16Z</time></trkpt><trkpt lat="39.12874084221821" lon="9.435468896942137"><ele>77.0</ele><time>2026-04-09T16:37:17Z</time></trkpt><trkpt lat="39.1288031111947" lon="9.435447496441006"><ele>77.0</ele><time>2026-04-09T16:37:18Z</time></trkpt><trkpt lat="39.12892854414024" lon="9.435409838649765"><ele>77.0</ele><time>2026-04-09T16:37:20Z</time></trkpt><trkpt lat="39.12902914963256" lon="9.435387400377401"><ele>72.0</ele><time>2026-04-09T16:37:22Z</time></trkpt><trkpt lat="39.12914330448737" lon="9.435354518280262"><ele>67.0</ele><time>2026-04-09T16:37:24Z</time></trkpt><trkpt lat="39.129248608652" lon="9.435303903845348"><ele>62.0</ele><time>2026-04-09T16:37:26Z</time></trkpt><trkpt lat="39.1293566504267" lon="9.435275447577874"><ele>57.0</ele><time>2026-04-09T16:37:28.001Z</time></trkpt><trkpt lat="39.12948311044241" lon="9.43525184759979"><ele>57.0</ele><time>2026-04-09T16:37:30.001Z</time></trkpt><trkpt lat="39.12960227934865" lon="9.435229191766535"><ele>57.0</ele><time>2026-04-09T16:37:32.001Z</time></trkpt><trkpt lat="39.12966971895608" lon="9.435232176222671"><ele>57.0</ele><time>2026-04-09T16:37:33.001Z</time></trkpt><trkpt lat="39.12977196178866" lon="9.43522706619719"><ele>57.0</ele><time>2026-04-09T16:37:35.001Z</time></trkpt><trkpt lat="39.12988927739701" lon="9.435228329438695"><ele>57.0</ele><time>2026-04-09T16:37:37.001Z</time></trkpt><trkpt lat="39.1300119666756" lon="9.43523891352098"><ele>57.400000000000006</ele><time>2026-04-09T16:37:39.001Z</time></trkpt><trkpt lat="39.13007542760787" lon="9.435243024617849"><ele>57.800000000000004</ele><time>2026-04-09T16:37:40.001Z</time></trkpt><trkpt lat="39.13018968117105" lon="9.435249778402502"><ele>58.2</ele><time>2026-04-09T16:37:42.001Z</time></trkpt><trkpt lat="39.13031831966334" lon="9.435255283982414"><ele>58.6</ele><time>2026-04-09T16:37:44.001Z</time></trkpt><trkpt lat="39.1303870997106" lon="9.435266228644764"><ele>59.0</ele><time>2026-04-09T16:37:45.001Z</time></trkpt><trkpt lat="39.130460368731406" lon="9.435277512534578"><ele>59.0</ele><time>2026-04-09T16:37:46.001Z</time></trkpt><trkpt lat="39.13052792229263" lon="9.435304025601768"><ele>59.0</ele><time>2026-04-09T16:37:47.001Z</time></trkpt><trkpt lat="39.13059726446494" lon="9.43534168715686"><ele>59.0</ele><time>2026-04-09T16:37:48.001Z</time></trkpt><trkpt lat="39.13066338409582" lon="9.435382487491747"><ele>59.0</ele><time>2026-04-09T16:37:49.001Z</time></trkpt><trkpt lat="39.130730625431525" lon="9.435424351035785"><ele>59.0</ele><time>2026-04-09T16:37:50.001Z</time></trkpt><trkpt lat="39.13079719773606" lon="9.435447640368473"><ele>59.0</ele><time>2026-04-09T16:37:51.001Z</time></trkpt><trkpt lat="39.130867236471644" lon="9.435455228881155"><ele>59.0</ele><time>2026-04-09T16:37:52.001Z</time></trkpt><trkpt lat="39.13093879774656" lon="9.435472331731429"><ele>60.833333333333336</ele><time>2026-04-09T16:37:53.001Z</time></trkpt><trkpt lat="39.13102547613265" lon="9.43555087749811"><ele>62.66666666666667</ele><time>2026-04-09T16:37:55Z</time></trkpt><trkpt lat="39.13104797386247" lon="9.435653867272807"><ele>64.5</ele><time>2026-04-09T16:37:57Z</time></trkpt><trkpt lat="39.13098414893976" lon="9.435750704615193"><ele>66.33333333333333</ele><time>2026-04-09T16:37:59Z</time></trkpt><trkpt lat="39.130932816332795" lon="9.435818929502213"><ele>68.16666666666666</ele><time>2026-04-09T16:38:00Z</time></trkpt><trkpt lat="39.130871180180115" lon="9.435877187024488"><ele>70.0</ele><time>2026-04-09T16:38:01Z</time></trkpt><trkpt lat="39.13081175629583" lon="9.435930042141758"><ele>70.0</ele><time>2026-04-09T16:38:02Z</time></trkpt><trkpt lat="39.13074802757547" lon="9.435993015408588"><ele>70.0</ele><time>2026-04-09T16:38:03Z</time></trkpt><trkpt lat="39.13069207734285" lon="9.436052087770818"><ele>70.0</ele><time>2026-04-09T16:38:04Z</time></trkpt><trkpt lat="39.1306353199138" lon="9.43612904123887"><ele>70.0</ele><time>2026-04-09T16:38:05Z</time></trkpt><trkpt lat="39.13056005360513" lon="9.436224561869736"><ele>70.0</ele><time>2026-04-09T16:38:06Z</time></trkpt><trkpt lat="39.13048736654357" lon="9.436323700395404"><ele>70.0</ele><time>2026-04-09T16:38:07Z</time></trkpt><trkpt lat="39.13041378352602" lon="9.43641553862948"><ele>73.83333333333333</ele><time>2026-04-09T16:38:08Z</time></trkpt><trkpt lat="39.130346958234696" lon="9.43650343268735"><ele>77.66666666666666</ele><time>2026-04-09T16:38:09Z</time></trkpt><trkpt lat="39.13031068976641" lon="9.436634218802032"><ele>81.5</ele><time>2026-04-09T16:38:11Z</time></trkpt><trkpt lat="39.130320312000734" lon="9.43671495375155"><ele>85.33333333333333</ele><time>2026-04-09T16:38:12Z</time></trkpt><trkpt lat="39.13034969916053" lon="9.436791681875848"><ele>89.16666666666667</ele><time>2026-04-09T16:38:13Z</time></trkpt><trkpt lat="39.13040467088193" lon="9.4368887651968"><ele>93.0</ele><time>2026-04-09T16:38:14Z</time></trkpt><trkpt lat="39.13048362731232" lon="9.43699109838174"><ele>93.0</ele><time>2026-04-09T16:38:15Z</time></trkpt><trkpt lat="39.13056437913621" lon="9.437104794252834"><ele>93.0</ele><time>2026-04-09T16:38:16Z</time></trkpt><trkpt lat="39.130642071747594" lon="9.43721639284365"><ele>93.0</ele><time>2026-04-09T16:38:17Z</time></trkpt><trkpt lat="39.13071429036538" lon="9.437326051740774"><ele>93.0</ele><time>2026-04-09T16:38:18Z</time></trkpt><trkpt lat="39.13076963920812" lon="9.437421429182328"><ele>93.0</ele><time>2026-04-09T16:38:19Z</time></trkpt><trkpt lat="39.13080308115466" lon="9.437516534430806"><ele>94.5</ele><time>2026-04-09T16:38:20Z</time></trkpt><trkpt lat="39.130814087577356" lon="9.437604687467367"><ele>96.0</ele><time>2026-04-09T16:38:21Z</time></trkpt><trkpt lat="39.13079991569692" lon="9.437704346463484"><ele>97.5</ele><time>2026-04-09T16:38:22Z</time></trkpt><trkpt lat="39.13076661558677" lon="9.437789405354462"><ele>99.0</ele><time>2026-04-09T16:38:23Z</time></trkpt><trkpt lat="39.13070712078287" lon="9.437867406162852"><ele>100.5</ele><time>2026-04-09T16:38:24Z</time></trkpt><trkpt lat="39.13063689286133" lon="9.437948950553533"><ele>102.0</ele><time>2026-04-09T16:38:25Z</time></trkpt><trkpt lat="39.13055169837132" lon="9.438037061383723"><ele>102.0</ele><time>2026-04-09T16:38:26Z</time></trkpt><trkpt lat="39.13047927472114" lon="9.438123758049578"><ele>102.0</ele><time>2026-04-09T16:38:27Z</time></trkpt><trkpt lat="39.13041945615575" lon="9.438197885237807"><ele>102.0</ele><time>2026-04-09T16:38:28Z</time></trkpt><trkpt lat="39.130373910512084" lon="9.438275786987399"><ele>102.0</ele><time>2026-04-09T16:38:29Z</time></trkpt><trkpt lat="39.13032358765788" lon="9.438361627742216"><ele>102.0</ele><time>2026-04-09T16:38:30Z</time></trkpt><trkpt lat="39.130260685791804" lon="9.438469808172878"><ele>102.0</ele><time>2026-04-09T16:38:31Z</time></trkpt><trkpt lat="39.130199359476116" lon="9.438564875075343"><ele>102.0</ele><time>2026-04-09T16:38:32Z</time></trkpt><trkpt lat="39.13013571341517" lon="9.438653538887444"><ele>102.0</ele><time>2026-04-09T16:38:33Z</time></trkpt><trkpt lat="39.1300677486529" lon="9.438740606887698"><ele>102.0</ele><time>2026-04-09T16:38:34Z</time></trkpt><trkpt lat="39.12999422759007" lon="9.438821868180137"><ele>102.0</ele><time>2026-04-09T16:38:35Z</time></trkpt><trkpt lat="39.1299285419971" lon="9.438897255044507"><ele>102.0</ele><time>2026-04-09T16:38:36Z</time></trkpt><trkpt lat="39.12986702407948" lon="9.438974057195091"><ele>102.16666666666667</ele><time>2026-04-09T16:38:37Z</time></trkpt><trkpt lat="39.12980108079583" lon="9.439057996483065"><ele>102.33333333333334</ele><time>2026-04-09T16:38:38Z</time></trkpt><trkpt lat="39.12974983404087" lon="9.439119976876963"><ele>102.5</ele><time>2026-04-09T16:38:39Z</time></trkpt><trkpt lat="39.12967895365047" lon="9.439211095346826"><ele>102.66666666666667</ele><time>2026-04-09T16:38:41Z</time></trkpt><trkpt lat="39.12964233928086" lon="9.43928145897535"><ele>102.83333333333334</ele><time>2026-04-09T16:38:42Z</time></trkpt><trkpt lat="39.12958164419541" lon="9.439377733363603"><ele>103.0</ele><time>2026-04-09T16:38:44Z</time></trkpt><trkpt lat="39.12955415736287" lon="9.43947381175159"><ele>103.0</ele><time>2026-04-09T16:38:50Z</time></trkpt><trkpt lat="39.129480124917194" lon="9.439500332399957"><ele>103.0</ele><time>2026-04-09T16:38:53Z</time></trkpt><trkpt lat="39.12941745340225" lon="9.439541451742494"><ele>103.0</ele><time>2026-04-09T16:38:57Z</time></trkpt><trkpt lat="39.129493628679086" lon="9.439509009136142"><ele>103.0</ele><time>2026-04-09T16:42:35Z</time></trkpt><trkpt lat="39.12960295075119" lon="9.439899338026652"><ele>100.60000000000001</ele><time>2026-04-09T16:42:37Z</time></trkpt><trkpt lat="39.1297084743394" lon="9.439951840240113"><ele>98.2</ele><time>2026-04-09T16:42:38Z</time></trkpt><trkpt lat="39.12979983753214" lon="9.44001264200493"><ele>95.8</ele><time>2026-04-09T16:42:39Z</time></trkpt><trkpt lat="39.12986570165764" lon="9.440135431227747"><ele>93.4</ele><time>2026-04-09T16:42:41Z</time></trkpt><trkpt lat="39.12988440671347" lon="9.440245064593237"><ele>91.0</ele><time>2026-04-09T16:42:43Z</time></trkpt><trkpt lat="39.12988305220192" lon="9.440361997270003"><ele>101.0</ele><time>2026-04-09T16:42:45Z</time></trkpt><trkpt lat="39.13015360970676" lon="9.440810676577453"><ele>111.0</ele><time>2026-04-09T16:42:46Z</time></trkpt><trkpt lat="39.13027599680173" lon="9.440832396872267"><ele>111.0</ele><time>2026-04-09T16:42:47Z</time></trkpt><trkpt lat="39.13039189973152" lon="9.440902989619639"><ele>111.0</ele><time>2026-04-09T16:42:49Z</time></trkpt><trkpt lat="39.13047883067405" lon="9.440975531668183"><ele>111.0</ele><time>2026-04-09T16:42:50Z</time></trkpt><trkpt lat="39.13064220067445" lon="9.441028542168503"><ele>111.0</ele><time>2026-04-09T16:42:51Z</time></trkpt><trkpt lat="39.130959271295865" lon="9.440456483865551"><ele>102.75</ele><time>2026-04-09T16:42:52Z</time></trkpt><trkpt lat="39.131081073615384" lon="9.44041617404167"><ele>94.5</ele><time>2026-04-09T16:42:53Z</time></trkpt><trkpt lat="39.131198948523696" lon="9.440383498889288"><ele>86.25</ele><time>2026-04-09T16:42:54Z</time></trkpt><trkpt lat="39.13131256789122" lon="9.440353344166502"><ele>78.0</ele><time>2026-04-09T16:42:55Z</time></trkpt><trkpt lat="39.13142510068358" lon="9.440327717146566"><ele>78.0</ele><time>2026-04-09T16:42:56Z</time></trkpt><trkpt lat="39.131531180618296" lon="9.440300095859664"><ele>78.0</ele><time>2026-04-09T16:42:57Z</time></trkpt><trkpt lat="39.13163475210608" lon="9.44027065386479"><ele>78.0</ele><time>2026-04-09T16:42:58Z</time></trkpt><trkpt lat="39.13173454800556" lon="9.440228387769135"><ele>78.0</ele><time>2026-04-09T16:42:59Z</time></trkpt><trkpt lat="39.131832590712065" lon="9.440165328667833"><ele>78.0</ele><time>2026-04-09T16:43:00Z</time></trkpt><trkpt lat="39.131918630319596" lon="9.440078099750185"><ele>78.5</ele><time>2026-04-09T16:43:01Z</time></trkpt><trkpt lat="39.131998053432945" lon="9.439978336239266"><ele>79.0</ele><time>2026-04-09T16:43:02Z</time></trkpt><trkpt lat="39.13207583236447" lon="9.439873556502693"><ele>79.5</ele><time>2026-04-09T16:43:03Z</time></trkpt><trkpt lat="39.13215338748326" lon="9.439765768588375"><ele>80.0</ele><time>2026-04-09T16:43:04Z</time></trkpt><trkpt lat="39.13223014872423" lon="9.439657721063464"><ele>77.4</ele><time>2026-04-09T16:43:05Z</time></trkpt><trkpt lat="39.13230541888958" lon="9.439558046970015"><ele>74.8</ele><time>2026-04-09T16:43:06Z</time></trkpt><trkpt lat="39.13237994800767" lon="9.439484354903039"><ele>72.2</ele><time>2026-04-09T16:43:07Z</time></trkpt><trkpt lat="39.13246668124497" lon="9.439442486166287"><ele>69.6</ele><time>2026-04-09T16:43:08Z</time></trkpt><trkpt lat="39.13255581482091" lon="9.43944685879805"><ele>67.0</ele><time>2026-04-09T16:43:09Z</time></trkpt><trkpt lat="39.13263468613211" lon="9.439507366587668"><ele>67.0</ele><time>2026-04-09T16:43:10Z</time></trkpt><trkpt lat="39.1326932769114" lon="9.439615946483178"><ele>67.0</ele><time>2026-04-09T16:43:11Z</time></trkpt><trkpt lat="39.13269866102699" lon="9.439775370326002"><ele>67.0</ele><time>2026-04-09T16:43:12Z</time></trkpt><trkpt lat="39.132736686486986" lon="9.439925584150268"><ele>67.0</ele><time>2026-04-09T16:43:13Z</time></trkpt><trkpt lat="39.13277291819352" lon="9.440060841061866"><ele>70.0</ele><time>2026-04-09T16:43:14Z</time></trkpt><trkpt lat="39.132835534088585" lon="9.440174135518658"><ele>73.0</ele><time>2026-04-09T16:43:15Z</time></trkpt><trkpt lat="39.13292594912658" lon="9.440264913171086"><ele>76.0</ele><time>2026-04-09T16:43:16Z</time></trkpt><trkpt lat="39.133041082510104" lon="9.440317284613245"><ele>79.0</ele><time>2026-04-09T16:43:17Z</time></trkpt><trkpt lat="39.13318276776676" lon="9.440348348808287"><ele>73.0</ele><time>2026-04-09T16:43:18Z</time></trkpt><trkpt lat="39.133339149112885" lon="9.440356543487676"><ele>67.0</ele><time>2026-04-09T16:43:19Z</time></trkpt><trkpt lat="39.133496862638566" lon="9.440344273187815"><ele>61.0</ele><time>2026-04-09T16:43:20Z</time></trkpt><trkpt lat="39.133644136369" lon="9.440333649782032"><ele>61.0</ele><time>2026-04-09T16:43:21Z</time></trkpt><trkpt lat="39.13378745839368" lon="9.440346250275782"><ele>61.0</ele><time>2026-04-09T16:43:22Z</time></trkpt><trkpt lat="39.13392111705871" lon="9.440388676078669"><ele>61.0</ele><time>2026-04-09T16:43:23Z</time></trkpt><trkpt lat="39.13404377041568" lon="9.440459350358884"><ele>61.0</ele><time>2026-04-09T16:43:24Z</time></trkpt><trkpt lat="39.13415695887309" lon="9.440531071658944"><ele>64.0</ele><time>2026-04-09T16:43:25Z</time></trkpt><trkpt lat="39.134258512552115" lon="9.440597360199408"><ele>67.0</ele><time>2026-04-09T16:43:26Z</time></trkpt><trkpt lat="39.134363176203685" lon="9.440637359117895"><ele>70.0</ele><time>2026-04-09T16:43:27Z</time></trkpt><trkpt lat="39.13447444019354" lon="9.440633629519319"><ele>73.0</ele><time>2026-04-09T16:43:28Z</time></trkpt><trkpt lat="39.13458950845992" lon="9.440596332081112"><ele>67.25</ele><time>2026-04-09T16:43:29Z</time></trkpt><trkpt lat="39.134662774149085" lon="9.440459881460532"><ele>61.5</ele><time>2026-04-09T16:43:30Z</time></trkpt><trkpt lat="39.13472011355397" lon="9.440298204970475"><ele>55.75</ele><time>2026-04-09T16:43:31Z</time></trkpt><trkpt lat="39.13477678106232" lon="9.44013581918917"><ele>50.0</ele><time>2026-04-09T16:43:32Z</time></trkpt><trkpt lat="39.13483813036663" lon="9.439988554158843"><ele>52.0</ele><time>2026-04-09T16:43:33Z</time></trkpt><trkpt lat="39.13491603640502" lon="9.43986516130501"><ele>54.0</ele><time>2026-04-09T16:43:34Z</time></trkpt><trkpt lat="39.13502049797837" lon="9.439772481972128"><ele>56.0</ele><time>2026-04-09T16:43:35Z</time></trkpt><trkpt lat="39.135145292896276" lon="9.439701966137159"><ele>58.0</ele><time>2026-04-09T16:43:36Z</time></trkpt><trkpt lat="39.13528193134427" lon="9.439654536689526"><ele>58.0</ele><time>2026-04-09T16:43:37Z</time></trkpt><trkpt lat="39.13541334661405" lon="9.439646680749705"><ele>58.0</ele><time>2026-04-09T16:43:38Z</time></trkpt><trkpt lat="39.135535759090445" lon="9.43966338090201"><ele>58.0</ele><time>2026-04-09T16:43:39Z</time></trkpt><trkpt lat="39.13565028103809" lon="9.439698425702039"><ele>58.0</ele><time>2026-04-09T16:43:40Z</time></trkpt><trkpt lat="39.13575917139627" lon="9.439748132080213"><ele>57.8</ele><time>2026-04-09T16:43:41Z</time></trkpt><trkpt lat="39.13586374889937" lon="9.439798304939721"><ele>57.599999999999994</ele><time>2026-04-09T16:43:42Z</time></trkpt><trkpt lat="39.13596672183449" lon="9.439842223038143"><ele>57.400000000000006</ele><time>2026-04-09T16:43:43Z</time></trkpt><trkpt lat="39.13606806402606" lon="9.43988494127694"><ele>57.2</ele><time>2026-04-09T16:43:44Z</time></trkpt><trkpt lat="39.136165525163115" lon="9.439922541957472"><ele>57.0</ele><time>2026-04-09T16:43:45Z</time></trkpt><trkpt lat="39.13626298949635" lon="9.439953359695254"><ele>57.0</ele><time>2026-04-09T16:43:46Z</time></trkpt><trkpt lat="39.136364451102715" lon="9.439979180034078"><ele>57.0</ele><time>2026-04-09T16:43:47Z</time></trkpt><trkpt lat="39.136465939439056" lon="9.439983908074742"><ele>57.0</ele><time>2026-04-09T16:43:48Z</time></trkpt><trkpt lat="39.136559043554826" lon="9.43995022883785"><ele>57.0</ele><time>2026-04-09T16:43:49Z</time></trkpt><trkpt lat="39.13662414787575" lon="9.43987025478424"><ele>57.0</ele><time>2026-04-09T16:43:50Z</time></trkpt><trkpt lat="39.13664612922791" lon="9.439757325497236"><ele>55.8</ele><time>2026-04-09T16:43:51Z</time></trkpt><trkpt lat="39.136616891310695" lon="9.439646477190493"><ele>54.6</ele><time>2026-04-09T16:43:52Z</time></trkpt><trkpt lat="39.13654792774274" lon="9.439579677039875"><ele>53.4</ele><time>2026-04-09T16:43:53Z</time></trkpt><trkpt lat="39.13646196819702" lon="9.439562410687458"><ele>52.199999999999996</ele><time>2026-04-09T16:43:54Z</time></trkpt><trkpt lat="39.136353389618776" lon="9.439584145464996"><ele>51.0</ele><time>2026-04-09T16:43:55Z</time></trkpt><trkpt lat="39.13621823070811" lon="9.439593432550359"><ele>45.666666666666664</ele><time>2026-04-09T16:43:56Z</time></trkpt><trkpt lat="39.136064882912734" lon="9.439562962547635"><ele>40.33333333333333</ele><time>2026-04-09T16:43:57Z</time></trkpt><trkpt lat="39.13591587558137" lon="9.439493811411763"><ele>35.0</ele><time>2026-04-09T16:43:58Z</time></trkpt><trkpt lat="39.13578434683561" lon="9.439350920527815"><ele>36.666666666666664</ele><time>2026-04-09T16:43:59Z</time></trkpt><trkpt lat="39.135646467992565" lon="9.439230723240252"><ele>38.333333333333336</ele><time>2026-04-09T16:44:00Z</time></trkpt><trkpt lat="39.1355341663646" lon="9.4390795398643"><ele>40.0</ele><time>2026-04-09T16:44:01Z</time></trkpt><trkpt lat="39.135432316991924" lon="9.438921742034156"><ele>37.25</ele><time>2026-04-09T16:44:02Z</time></trkpt><trkpt lat="39.13533895445024" lon="9.438768391941593"><ele>34.5</ele><time>2026-04-09T16:44:03Z</time></trkpt><trkpt lat="39.135265555619924" lon="9.438636623108927"><ele>31.75</ele><time>2026-04-09T16:44:04Z</time></trkpt><trkpt lat="39.135214274540786" lon="9.438506228966181"><ele>29.0</ele><time>2026-04-09T16:44:05Z</time></trkpt><trkpt lat="39.1352038570026" lon="9.438382462093223"><ele>28.999999999999996</ele><time>2026-04-09T16:44:06Z</time></trkpt><trkpt lat="39.135234415380246" lon="9.438265655093515"><ele>29.0</ele><time>2026-04-09T16:44:07Z</time></trkpt><trkpt lat="39.1352993942463" lon="9.438188717044708"><ele>29.0</ele><time>2026-04-09T16:44:08Z</time></trkpt><trkpt lat="39.13538427648464" lon="9.438165113410948"><ele>29.0</ele><time>2026-04-09T16:44:09Z</time></trkpt><trkpt lat="39.135454488915684" lon="9.43819341019452"><ele>28.999999999999996</ele><time>2026-04-09T16:44:10Z</time></trkpt><trkpt lat="39.13552022675242" lon="9.438241292533817"><ele>29.0</ele><time>2026-04-09T16:44:11Z</time></trkpt><trkpt lat="39.13558894545189" lon="9.438327206812428"><ele>29.0</ele><time>2026-04-09T16:44:12Z</time></trkpt><trkpt lat="39.135641197579176" lon="9.438422041181893"><ele>29.0</ele><time>2026-04-09T16:44:13Z</time></trkpt><trkpt lat="39.135702317301124" lon="9.438541413555614"><ele>29.0</ele><time>2026-04-09T16:44:14Z</time></trkpt><trkpt lat="39.135768323054094" lon="9.438663353680385"><ele>29.0</ele><time>2026-04-09T16:44:15Z</time></trkpt><trkpt lat="39.135832060810884" lon="9.438769816283408"><ele>29.0</ele><time>2026-04-09T16:44:16Z</time></trkpt><trkpt lat="39.13589957018333" lon="9.438846507441571"><ele>30.5</ele><time>2026-04-09T16:44:17Z</time></trkpt><trkpt lat="39.13598209400624" lon="9.438893504033684"><ele>32.0</ele><time>2026-04-09T16:44:18Z</time></trkpt><trkpt lat="39.13609284782722" lon="9.438917616476067"><ele>33.5</ele><time>2026-04-09T16:44:19Z</time></trkpt><trkpt lat="39.13623812966269" lon="9.438944259224344"><ele>35.0</ele><time>2026-04-09T16:44:20Z</time></trkpt><trkpt lat="39.13643763894232" lon="9.438937741183185"><ele>31.666666666666664</ele><time>2026-04-09T16:44:21Z</time></trkpt><trkpt lat="39.13665494772872" lon="9.438914527129599"><ele>28.333333333333336</ele><time>2026-04-09T16:44:22Z</time></trkpt><trkpt lat="39.136877263228946" lon="9.438906682192812"><ele>25.0</ele><time>2026-04-09T16:44:23Z</time></trkpt><trkpt lat="39.13709017823" lon="9.438887992047611"><ele>25.0</ele><time>2026-04-09T16:44:24Z</time></trkpt><trkpt lat="39.13728963017704" lon="9.43886631062125"><ele>25.0</ele><time>2026-04-09T16:44:25Z</time></trkpt><trkpt lat="39.13748316897426" lon="9.438846880068775"><ele>25.0</ele><time>2026-04-09T16:44:26Z</time></trkpt><trkpt lat="39.137658085063066" lon="9.438823975286056"><ele>20.333333333333336</ele><time>2026-04-09T16:44:27Z</time></trkpt><trkpt lat="39.13781627169685" lon="9.438788121794673"><ele>15.666666666666668</ele><time>2026-04-09T16:44:28Z</time></trkpt><trkpt lat="39.13796428914409" lon="9.43870619133776"><ele>11.0</ele><time>2026-04-09T16:44:29Z</time></trkpt><trkpt lat="39.138117327591715" lon="9.438559626935858"><ele>11.666666666666666</ele><time>2026-04-09T16:44:30Z</time></trkpt><trkpt lat="39.13827473944766" lon="9.43837415805175"><ele>12.333333333333332</ele><time>2026-04-09T16:44:31Z</time></trkpt><trkpt lat="39.138437504955014" lon="9.438174834623995"><ele>13.0</ele><time>2026-04-09T16:44:32Z</time></trkpt><trkpt lat="39.13860840257544" lon="9.437988925098672"><ele>12.666666666666666</ele><time>2026-04-09T16:44:33Z</time></trkpt><trkpt lat="39.13876577663836" lon="9.437812646943778"><ele>12.333333333333332</ele><time>2026-04-09T16:44:34Z</time></trkpt><trkpt lat="39.13890009760642" lon="9.437662546150767"><ele>12.0</ele><time>2026-04-09T16:44:35Z</time></trkpt><trkpt lat="39.13900541602497" lon="9.437530753783468"><ele>12.75</ele><time>2026-04-09T16:44:36Z</time></trkpt><trkpt lat="39.13908041416938" lon="9.437392927674018"><ele>13.5</ele><time>2026-04-09T16:44:37Z</time></trkpt><trkpt lat="39.139133101152396" lon="9.437222607117413"><ele>14.25</ele><time>2026-04-09T16:44:38Z</time></trkpt><trkpt lat="39.13915320414732" lon="9.437010629642621"><ele>15.0</ele><time>2026-04-09T16:44:39Z</time></trkpt><trkpt lat="39.139147247205194" lon="9.43682546288939"><ele>15.25</ele><time>2026-04-09T16:44:40Z</time></trkpt><trkpt lat="39.13915814983654" lon="9.43668776158292"><ele>15.5</ele><time>2026-04-09T16:44:41Z</time></trkpt><trkpt lat="39.13920324045568" lon="9.436603326816677"><ele>15.75</ele><time>2026-04-09T16:44:42Z</time></trkpt><trkpt lat="39.139298654694514" lon="9.436555281047752"><ele>16.0</ele><time>2026-04-09T16:44:43Z</time></trkpt><trkpt lat="39.139461573355" lon="9.436540872234742"><ele>16.0</ele><time>2026-04-09T16:44:44Z</time></trkpt><trkpt lat="39.13964933093976" lon="9.436485001225451"><ele>16.0</ele><time>2026-04-09T16:44:45Z</time></trkpt><trkpt lat="39.1398596145319" lon="9.436433138717664"><ele>16.0</ele><time>2026-04-09T16:44:46Z</time></trkpt><trkpt lat="39.14007507665403" lon="9.436367769625537"><ele>28.0</ele><time>2026-04-09T16:44:47Z</time></trkpt><trkpt lat="39.14029606868957" lon="9.436286094512763"><ele>40.0</ele><time>2026-04-09T16:44:48Z</time></trkpt><trkpt lat="39.14051436131871" lon="9.436215776837635"><ele>37.0</ele><time>2026-04-09T16:44:49Z</time></trkpt><trkpt lat="39.14072713739285" lon="9.436135977539317"><ele>34.0</ele><time>2026-04-09T16:44:50Z</time></trkpt><trkpt lat="39.14093606128874" lon="9.436041449700925"><ele>31.0</ele><time>2026-04-09T16:44:51Z</time></trkpt><trkpt lat="39.141142542182656" lon="9.435935054712493"><ele>31.0</ele><time>2026-04-09T16:44:52Z</time></trkpt><trkpt lat="39.14134087646478" lon="9.435825456933195"><ele>31.0</ele><time>2026-04-09T16:44:53Z</time></trkpt><trkpt lat="39.14152492384093" lon="9.435719335848011"><ele>31.0</ele><time>2026-04-09T16:44:54Z</time></trkpt><trkpt lat="39.14169501914301" lon="9.435626313628633"><ele>27.666666666666668</ele><time>2026-04-09T16:44:55Z</time></trkpt><trkpt lat="39.14185813248584" lon="9.435555400641144"><ele>24.333333333333336</ele><time>2026-04-09T16:44:56Z</time></trkpt><trkpt lat="39.1420195848109" lon="9.435548019083438"><ele>21.0</ele><time>2026-04-09T16:44:57Z</time></trkpt><trkpt lat="39.14218383923821" lon="9.4355547304841"><ele>21.0</ele><time>2026-04-09T16:44:58Z</time></trkpt><trkpt lat="39.14235033138252" lon="9.43555345956738"><ele>21.0</ele><time>2026-04-09T16:44:59Z</time></trkpt><trkpt lat="39.142500913281" lon="9.435557601931599"><ele>21.0</ele><time>2026-04-09T16:45:00Z</time></trkpt><trkpt lat="39.14264294793847" lon="9.435509820912308"><ele>23.666666666666664</ele><time>2026-04-09T16:45:01Z</time></trkpt><trkpt lat="39.142793042051856" lon="9.43541471263475"><ele>26.333333333333332</ele><time>2026-04-09T16:45:02Z</time></trkpt><trkpt lat="39.14293657674188" lon="9.435283581207432"><ele>29.0</ele><time>2026-04-09T16:45:03Z</time></trkpt><trkpt lat="39.143068174277346" lon="9.4351703144946"><ele>29.0</ele><time>2026-04-09T16:45:04Z</time></trkpt><trkpt lat="39.14318318260748" lon="9.435055623953316"><ele>29.0</ele><time>2026-04-09T16:45:05Z</time></trkpt><trkpt lat="39.14327613420356" lon="9.434929884078105"><ele>29.0</ele><time>2026-04-09T16:45:06Z</time></trkpt><trkpt lat="39.14334109209077" lon="9.434782125681172"><ele>29.0</ele><time>2026-04-09T16:45:07Z</time></trkpt><trkpt lat="39.143387363462985" lon="9.434620293789585"><ele>27.0</ele><time>2026-04-09T16:45:08Z</time></trkpt><trkpt lat="39.14343954482026" lon="9.434475400386834"><ele>25.0</ele><time>2026-04-09T16:45:09Z</time></trkpt><trkpt lat="39.14335788076536" lon="9.43427466636176"><ele>23.0</ele><time>2026-04-09T16:45:10Z</time></trkpt><trkpt lat="39.14329267784058" lon="9.434092997067953"><ele>22.666666666666668</ele><time>2026-04-09T16:45:11Z</time></trkpt><trkpt lat="39.14318964456115" lon="9.433900773020007"><ele>22.333333333333332</ele><time>2026-04-09T16:45:12Z</time></trkpt><trkpt lat="39.143054718502746" lon="9.433696180365267"><ele>22.0</ele><time>2026-04-09T16:45:13Z</time></trkpt><trkpt lat="39.14290121293981" lon="9.43347697512155"><ele>22.0</ele><time>2026-04-09T16:45:14Z</time></trkpt><trkpt lat="39.14276201489802" lon="9.433261805200054"><ele>22.0</ele><time>2026-04-09T16:45:15Z</time></trkpt><trkpt lat="39.14264167562691" lon="9.43305834628777"><ele>22.0</ele><time>2026-04-09T16:45:16Z</time></trkpt><trkpt lat="39.142553540852056" lon="9.432853445800186"><ele>22.333333333333332</ele><time>2026-04-09T16:45:17Z</time></trkpt><trkpt lat="39.142461772344326" lon="9.432650231779077"><ele>22.666666666666668</ele><time>2026-04-09T16:45:18Z</time></trkpt><trkpt lat="39.14235293830087" lon="9.432445824070545"><ele>23.0</ele><time>2026-04-09T16:45:19Z</time></trkpt><trkpt lat="39.14226124162437" lon="9.432229627183329"><ele>20.0</ele><time>2026-04-09T16:45:20Z</time></trkpt><trkpt lat="39.142161123004584" lon="9.431999279817164"><ele>17.0</ele><time>2026-04-09T16:45:21Z</time></trkpt><trkpt lat="39.14205074106138" lon="9.43175877619928"><ele>14.0</ele><time>2026-04-09T16:45:22Z</time></trkpt><trkpt lat="39.141943941299786" lon="9.431530776408865"><ele>14.333333333333334</ele><time>2026-04-09T16:45:23Z</time></trkpt><trkpt lat="39.14184552710937" lon="9.43130377925489"><ele>14.666666666666668</ele><time>2026-04-09T16:45:24Z</time></trkpt><trkpt lat="39.141739985350284" lon="9.43108180335986"><ele>15.0</ele><time>2026-04-09T16:45:25Z</time></trkpt><trkpt lat="39.14163349731321" lon="9.430853586792448"><ele>15.333333333333332</ele><time>2026-04-09T16:45:26Z</time></trkpt><trkpt lat="39.14152447766385" lon="9.430612550469812"><ele>15.666666666666666</ele><time>2026-04-09T16:45:27Z</time></trkpt><trkpt lat="39.14141033311664" lon="9.430351938283817"><ele>16.0</ele><time>2026-04-09T16:45:28Z</time></trkpt><trkpt lat="39.141292953093384" lon="9.430093850954256"><ele>16.0</ele><time>2026-04-09T16:45:29Z</time></trkpt><trkpt lat="39.14117629200525" lon="9.42983967106259"><ele>16.0</ele><time>2026-04-09T16:45:30Z</time></trkpt><trkpt lat="39.141065909341705" lon="9.429594367759144"><ele>16.0</ele><time>2026-04-09T16:45:31Z</time></trkpt><trkpt lat="39.14096019111317" lon="9.429353195543749"><ele>16.0</ele><time>2026-04-09T16:45:32Z</time></trkpt><trkpt lat="39.140853497961764" lon="9.42911464278488"><ele>16.0</ele><time>2026-04-09T16:45:33Z</time></trkpt><trkpt lat="39.140743334588194" lon="9.428871212808232"><ele>16.0</ele><time>2026-04-09T16:45:34Z</time></trkpt><trkpt lat="39.140632588751316" lon="9.428630269978438"><ele>16.0</ele><time>2026-04-09T16:45:35Z</time></trkpt><trkpt lat="39.14052455125207" lon="9.428400512231525"><ele>16.0</ele><time>2026-04-09T16:45:36Z</time></trkpt><trkpt lat="39.140423504555926" lon="9.428181569266176"><ele>16.0</ele><time>2026-04-09T16:45:37Z</time></trkpt><trkpt lat="39.1403273495208" lon="9.427985993330129"><ele>18.0</ele><time>2026-04-09T16:45:38Z</time></trkpt><trkpt lat="39.14023412517104" lon="9.427800461870003"><ele>20.0</ele><time>2026-04-09T16:45:39Z</time></trkpt><trkpt lat="39.14014065219176" lon="9.427649754674423"><ele>22.0</ele><time>2026-04-09T16:45:40Z</time></trkpt><trkpt lat="39.14002696715487" lon="9.427539120878748"><ele>22.333333333333332</ele><time>2026-04-09T16:45:41Z</time></trkpt><trkpt lat="39.13986038601006" lon="9.427479997638219"><ele>22.666666666666668</ele><time>2026-04-09T16:45:42Z</time></trkpt><trkpt lat="39.139660422449964" lon="9.42744461913768"><ele>23.0</ele><time>2026-04-09T16:45:43Z</time></trkpt><trkpt lat="39.13946140058309" lon="9.427418584067217"><ele>23.0</ele><time>2026-04-09T16:45:44Z</time></trkpt><trkpt lat="39.139287785115286" lon="9.427349118134822"><ele>23.0</ele><time>2026-04-09T16:45:45Z</time></trkpt><trkpt lat="39.13912557634069" lon="9.427253515154067"><ele>23.0</ele><time>2026-04-09T16:45:46Z</time></trkpt><trkpt lat="39.138972633470836" lon="9.427113751420592"><ele>23.5</ele><time>2026-04-09T16:45:47Z</time></trkpt><trkpt lat="39.13884145741616" lon="9.426969781276146"><ele>24.0</ele><time>2026-04-09T16:45:48Z</time></trkpt><trkpt lat="39.138753449417536" lon="9.426829529362125"><ele>24.5</ele><time>2026-04-09T16:45:49Z</time></trkpt><trkpt lat="39.13870089574884" lon="9.426666105025639"><ele>25.0</ele><time>2026-04-09T16:45:50Z</time></trkpt><trkpt lat="39.13866357762215" lon="9.42646125060877"><ele>25.0</ele><time>2026-04-09T16:45:51Z</time></trkpt><trkpt lat="39.13866226752539" lon="9.426217954615701"><ele>25.0</ele><time>2026-04-09T16:45:52Z</time></trkpt><trkpt lat="39.13866066118451" lon="9.425960111241302"><ele>25.0</ele><time>2026-04-09T16:45:53Z</time></trkpt><trkpt lat="39.138656236059525" lon="9.42570331669206"><ele>26.0</ele><time>2026-04-09T16:45:54Z</time></trkpt><trkpt lat="39.138671341839455" lon="9.425445835423584"><ele>27.0</ele><time>2026-04-09T16:45:55Z</time></trkpt><trkpt lat="39.13871879324984" lon="9.425176452013774"><ele>28.0</ele><time>2026-04-09T16:45:56Z</time></trkpt><trkpt lat="39.13878522014059" lon="9.424908489154573"><ele>28.0</ele><time>2026-04-09T16:45:57Z</time></trkpt><trkpt lat="39.13885464600942" lon="9.424672003781938"><ele>28.0</ele><time>2026-04-09T16:45:58Z</time></trkpt><trkpt lat="39.13893196108231" lon="9.424469437069265"><ele>28.0</ele><time>2026-04-09T16:45:59Z</time></trkpt><trkpt lat="39.139021209878074" lon="9.42429850442197"><ele>32.75</ele><time>2026-04-09T16:46:00Z</time></trkpt><trkpt lat="39.13910899070653" lon="9.424151250213992"><ele>37.5</ele><time>2026-04-09T16:46:01Z</time></trkpt><trkpt lat="39.1391661974983" lon="9.424027641763281"><ele>42.25</ele><time>2026-04-09T16:46:02Z</time></trkpt><trkpt lat="39.13918860380017" lon="9.423898207661846"><ele>47.0</ele><time>2026-04-09T16:46:03Z</time></trkpt><trkpt lat="39.13914347369253" lon="9.423771456858578"><ele>47.33333333333333</ele><time>2026-04-09T16:46:04Z</time></trkpt><trkpt lat="39.13904510019353" lon="9.423649297784038"><ele>47.666666666666664</ele><time>2026-04-09T16:46:05Z</time></trkpt><trkpt lat="39.13888781724538" lon="9.423511136879315"><ele>48.0</ele><time>2026-04-09T16:46:06Z</time></trkpt><trkpt lat="39.13871544586125" lon="9.423381297468476"><ele>48.0</ele><time>2026-04-09T16:46:07Z</time></trkpt><trkpt lat="39.13855652830224" lon="9.423258885387467"><ele>48.0</ele><time>2026-04-09T16:46:08Z</time></trkpt><trkpt lat="39.138412837974" lon="9.42318341016512"><ele>48.0</ele><time>2026-04-09T16:46:09Z</time></trkpt><trkpt lat="39.13825590300789" lon="9.42314727854353"><ele>48.66666666666667</ele><time>2026-04-09T16:46:10Z</time></trkpt><trkpt lat="39.138052893909816" lon="9.42316053593661"><ele>49.333333333333336</ele><time>2026-04-09T16:46:11Z</time></trkpt><trkpt lat="39.137833175367966" lon="9.423207246442143"><ele>50.0</ele><time>2026-04-09T16:46:12Z</time></trkpt><trkpt lat="39.13764545167672" lon="9.423247429111779"><ele>50.0</ele><time>2026-04-09T16:46:13Z</time></trkpt><trkpt lat="39.137478460075556" lon="9.423243069090837"><ele>50.0</ele><time>2026-04-09T16:46:14Z</time></trkpt><trkpt lat="39.13729650374581" lon="9.423222779076301"><ele>50.0</ele><time>2026-04-09T16:46:15Z</time></trkpt><trkpt lat="39.13709894629689" lon="9.423142118393288"><ele>50.0</ele><time>2026-04-09T16:46:16Z</time></trkpt><trkpt lat="39.13687738904917" lon="9.423048264889228"><ele>50.0</ele><time>2026-04-09T16:46:17Z</time></trkpt><trkpt lat="39.136680664300684" lon="9.422964930648872"><ele>50.0</ele><time>2026-04-09T16:46:18Z</time></trkpt><trkpt lat="39.13651923347661" lon="9.422898205083722"><ele>50.8</ele><time>2026-04-09T16:46:19Z</time></trkpt><trkpt lat="39.13638160537605" lon="9.422860974988849"><ele>51.6</ele><time>2026-04-09T16:46:20Z</time></trkpt><trkpt lat="39.13627886458951" lon="9.422798294897705"><ele>52.400000000000006</ele><time>2026-04-09T16:46:21Z</time></trkpt><trkpt lat="39.136210344571694" lon="9.422716911749875"><ele>53.2</ele><time>2026-04-09T16:46:22Z</time></trkpt><trkpt lat="39.13618865350645" lon="9.42260333348011"><ele>54.0</ele><time>2026-04-09T16:46:23Z</time></trkpt><trkpt lat="39.13620779718192" lon="9.422462729973276"><ele>54.0</ele><time>2026-04-09T16:46:24Z</time></trkpt><trkpt lat="39.136271990250656" lon="9.42222980400013"><ele>54.0</ele><time>2026-04-09T16:46:25Z</time></trkpt><trkpt lat="39.13633042032328" lon="9.422012870141597"><ele>54.0</ele><time>2026-04-09T16:46:26Z</time></trkpt><trkpt lat="39.136406019995" lon="9.421785462398239"><ele>54.66666666666667</ele><time>2026-04-09T16:46:27Z</time></trkpt><trkpt lat="39.136497353090306" lon="9.421555710482973"><ele>55.333333333333336</ele><time>2026-04-09T16:46:28Z</time></trkpt><trkpt lat="39.136603087710185" lon="9.421317984775746"><ele>56.0</ele><time>2026-04-09T16:46:29Z</time></trkpt><trkpt lat="39.136706876714626" lon="9.421078287994789"><ele>56.0</ele><time>2026-04-09T16:46:30Z</time></trkpt><trkpt lat="39.13679871503753" lon="9.42081745159712"><ele>56.0</ele><time>2026-04-09T16:46:31Z</time></trkpt><trkpt lat="39.13687459848457" lon="9.420545007373907"><ele>56.0</ele><time>2026-04-09T16:46:32Z</time></trkpt><trkpt lat="39.13694196804618" lon="9.420266061493168"><ele>54.0</ele><time>2026-04-09T16:46:33Z</time></trkpt><trkpt lat="39.137023897040955" lon="9.41999032836767"><ele>52.0</ele><time>2026-04-09T16:46:34Z</time></trkpt><trkpt lat="39.13711249874826" lon="9.41973165876892"><ele>50.0</ele><time>2026-04-09T16:46:35Z</time></trkpt><trkpt lat="39.13717154066357" lon="9.419484055249699"><ele>50.0</ele><time>2026-04-09T16:46:36Z</time></trkpt><trkpt lat="39.137201241813244" lon="9.419257742744561"><ele>50.0</ele><time>2026-04-09T16:46:37Z</time></trkpt><trkpt lat="39.13723801820829" lon="9.419047136984808"><ele>50.0</ele><time>2026-04-09T16:46:38Z</time></trkpt><trkpt lat="39.13731338737041" lon="9.418843406806953"><ele>54.0</ele><time>2026-04-09T16:46:39Z</time></trkpt><trkpt lat="39.13743661349036" lon="9.418627827515161"><ele>58.0</ele><time>2026-04-09T16:46:40Z</time></trkpt><trkpt lat="39.13755181201959" lon="9.418405417620548"><ele>62.0</ele><time>2026-04-09T16:46:41Z</time></trkpt><trkpt lat="39.137638490470835" lon="9.418193421359943"><ele>62.0</ele><time>2026-04-09T16:46:42Z</time></trkpt><trkpt lat="39.1376974812499" lon="9.417992869088376"><ele>62.0</ele><time>2026-04-09T16:46:43Z</time></trkpt><trkpt lat="39.13774038653757" lon="9.417818940495941"><ele>62.0</ele><time>2026-04-09T16:46:44Z</time></trkpt><trkpt lat="39.13781285792008" lon="9.417686750726766"><ele>62.0</ele><time>2026-04-09T16:46:45Z</time></trkpt><trkpt lat="39.13792622120529" lon="9.417620105640461"><ele>60.66666666666667</ele><time>2026-04-09T16:46:46Z</time></trkpt><trkpt lat="39.138084089922735" lon="9.417647797662724"><ele>59.33333333333333</ele><time>2026-04-09T16:46:47Z</time></trkpt><trkpt lat="39.13827126785162" lon="9.417650152083336"><ele>58.0</ele><time>2026-04-09T16:46:48Z</time></trkpt><trkpt lat="39.13846403109871" lon="9.41771237413554"><ele>56.5</ele><time>2026-04-09T16:46:49Z</time></trkpt><trkpt lat="39.138675806576494" lon="9.417796367281404"><ele>55.0</ele><time>2026-04-09T16:46:50Z</time></trkpt><trkpt lat="39.138900716849484" lon="9.417900282239511"><ele>60.5</ele><time>2026-04-09T16:46:51Z</time></trkpt><trkpt lat="39.13912912413226" lon="9.418014201275422"><ele>66.0</ele><time>2026-04-09T16:46:52Z</time></trkpt><trkpt lat="39.139343994725536" lon="9.418115466393514"><ele>66.0</ele><time>2026-04-09T16:46:53Z</time></trkpt><trkpt lat="39.1395422827648" lon="9.418187570059015"><ele>66.0</ele><time>2026-04-09T16:46:54Z</time></trkpt><trkpt lat="39.139722568667786" lon="9.418213808149885"><ele>66.0</ele><time>2026-04-09T16:46:55Z</time></trkpt><trkpt lat="39.13987567701946" lon="9.418169060654968"><ele>65.66666666666667</ele><time>2026-04-09T16:46:56Z</time></trkpt><trkpt lat="39.14001590678065" lon="9.418083886909068"><ele>65.33333333333334</ele><time>2026-04-09T16:46:57Z</time></trkpt><trkpt lat="39.14013556360686" lon="9.417961761676864"><ele>65.0</ele><time>2026-04-09T16:46:58Z</time></trkpt><trkpt lat="39.140240874432706" lon="9.417830572147457"><ele>60.66666666666667</ele><time>2026-04-09T16:46:59Z</time></trkpt><trkpt lat="39.14036098372725" lon="9.417751734024275"><ele>56.33333333333333</ele><time>2026-04-09T16:47:00Z</time></trkpt><trkpt lat="39.1405189251733" lon="9.41775711846298"><ele>52.0</ele><time>2026-04-09T16:47:01Z</time></trkpt><trkpt lat="39.14071691664709" lon="9.417757577285165"><ele>50.0</ele><time>2026-04-09T16:47:02Z</time></trkpt><trkpt lat="39.140930080543214" lon="9.417789844943519"><ele>48.0</ele><time>2026-04-09T16:47:03Z</time></trkpt><trkpt lat="39.14114663052817" lon="9.417804525071583"><ele>46.0</ele><time>2026-04-09T16:47:04Z</time></trkpt><trkpt lat="39.14134575837823" lon="9.417804157874036"><ele>46.0</ele><time>2026-04-09T16:47:05Z</time></trkpt><trkpt lat="39.14152528509385" lon="9.417801732970812"><ele>46.0</ele><time>2026-04-09T16:47:06Z</time></trkpt><trkpt lat="39.1416824692671" lon="9.417802404340435"><ele>46.0</ele><time>2026-04-09T16:47:07Z</time></trkpt><trkpt lat="39.14182204771807" lon="9.417792913731573"><ele>44.75</ele><time>2026-04-09T16:47:08Z</time></trkpt><trkpt lat="39.14194734247106" lon="9.417732197931361"><ele>43.5</ele><time>2026-04-09T16:47:09Z</time></trkpt><trkpt lat="39.142057809861555" lon="9.417600804787323"><ele>42.25</ele><time>2026-04-09T16:47:10Z</time></trkpt><trkpt lat="39.14216411565007" lon="9.417439423173649"><ele>41.0</ele><time>2026-04-09T16:47:11Z</time></trkpt><trkpt lat="39.1422740364515" lon="9.417315974226423"><ele>41.75</ele><time>2026-04-09T16:47:12Z</time></trkpt><trkpt lat="39.14240323629338" lon="9.417244265154856"><ele>42.5</ele><time>2026-04-09T16:47:13Z</time></trkpt><trkpt lat="39.14254523769894" lon="9.417219172929927"><ele>43.25</ele><time>2026-04-09T16:47:14Z</time></trkpt><trkpt lat="39.1426905788232" lon="9.417248191426344"><ele>44.0</ele><time>2026-04-09T16:47:15Z</time></trkpt><trkpt lat="39.1428211156137" lon="9.417283303608592"><ele>44.0</ele><time>2026-04-09T16:47:16Z</time></trkpt><trkpt lat="39.1429252949688" lon="9.41726552262825"><ele>44.0</ele><time>2026-04-09T16:47:17Z</time></trkpt><trkpt lat="39.143001992761775" lon="9.41717758907413"><ele>44.0</ele><time>2026-04-09T16:47:18Z</time></trkpt><trkpt lat="39.1430483782042" lon="9.417026356735796"><ele>44.0</ele><time>2026-04-09T16:47:19Z</time></trkpt><trkpt lat="39.14304958897872" lon="9.416857527122954"><ele>40.666666666666664</ele><time>2026-04-09T16:47:20Z</time></trkpt><trkpt lat="39.14299109212743" lon="9.416698357493342"><ele>37.333333333333336</ele><time>2026-04-09T16:47:21Z</time></trkpt><trkpt lat="39.14287787832543" lon="9.416529050891835"><ele>34.0</ele><time>2026-04-09T16:47:22Z</time></trkpt><trkpt lat="39.14271749706333" lon="9.416334188525582"><ele>33.0</ele><time>2026-04-09T16:47:23Z</time></trkpt><trkpt lat="39.142521199330794" lon="9.416136004476527"><ele>32.0</ele><time>2026-04-09T16:47:24Z</time></trkpt><trkpt lat="39.14229030856232" lon="9.415941418587018"><ele>32.0</ele><time>2026-04-09T16:47:25Z</time></trkpt><trkpt lat="39.14203740986316" lon="9.41573150471768"><ele>32.0</ele><time>2026-04-09T16:47:26Z</time></trkpt><trkpt lat="39.14178712142727" lon="9.41549713195415"><ele>33.0</ele><time>2026-04-09T16:47:27Z</time></trkpt><trkpt lat="39.14156303745921" lon="9.415256847338682"><ele>34.0</ele><time>2026-04-09T16:47:28Z</time></trkpt><trkpt lat="39.14134431631411" lon="9.41508239148873"><ele>34.0</ele><time>2026-04-09T16:47:29Z</time></trkpt><trkpt lat="39.14115655098226" lon="9.414903265987846"><ele>34.0</ele><time>2026-04-09T16:47:30Z</time></trkpt><trkpt lat="39.1409955954664" lon="9.414733437219413"><ele>34.0</ele><time>2026-04-09T16:47:31Z</time></trkpt><trkpt lat="39.14087221606411" lon="9.414570923474052"><ele>29.0</ele><time>2026-04-09T16:47:32Z</time></trkpt><trkpt lat="39.14077058904388" lon="9.414404703596457"><ele>24.0</ele><time>2026-04-09T16:47:33Z</time></trkpt><trkpt lat="39.140699058610736" lon="9.41420838281488"><ele>19.0</ele><time>2026-04-09T16:47:34Z</time></trkpt><trkpt lat="39.14063054686101" lon="9.414029784036979"><ele>19.0</ele><time>2026-04-09T16:47:35Z</time></trkpt><trkpt lat="39.14061363509374" lon="9.41384372603847"><ele>19.0</ele><time>2026-04-09T16:47:36Z</time></trkpt><trkpt lat="39.14063178901499" lon="9.41363186292937"><ele>19.0</ele><time>2026-04-09T16:47:37Z</time></trkpt><trkpt lat="39.14068053450184" lon="9.413379327398207"><ele>26.666666666666664</ele><time>2026-04-09T16:47:38Z</time></trkpt><trkpt lat="39.1407517977572" lon="9.413127688482213"><ele>34.333333333333336</ele><time>2026-04-09T16:47:39Z</time></trkpt><trkpt lat="39.14083732699061" lon="9.412883852221913"><ele>42.0</ele><time>2026-04-09T16:47:40Z</time></trkpt><trkpt lat="39.140928842549734" lon="9.41264131716942"><ele>42.0</ele><time>2026-04-09T16:47:41Z</time></trkpt><trkpt lat="39.141040425869605" lon="9.412391948176678"><ele>42.0</ele><time>2026-04-09T16:47:42Z</time></trkpt><trkpt lat="39.141144944411465" lon="9.412164323545307"><ele>42.0</ele><time>2026-04-09T16:47:43Z</time></trkpt><trkpt lat="39.141236052220485" lon="9.411972114389169"><ele>36.5</ele><time>2026-04-09T16:47:44Z</time></trkpt><trkpt lat="39.14131664924045" lon="9.411803429746257"><ele>31.0</ele><time>2026-04-09T16:47:45Z</time></trkpt><trkpt lat="39.14139358955485" lon="9.411640186354916"><ele>25.5</ele><time>2026-04-09T16:47:46Z</time></trkpt><trkpt lat="39.141463170424565" lon="9.41149103964383"><ele>20.0</ele><time>2026-04-09T16:47:47Z</time></trkpt><trkpt lat="39.14152735703837" lon="9.411360054975846"><ele>24.25</ele><time>2026-04-09T16:47:48Z</time></trkpt><trkpt lat="39.14159409490223" lon="9.411235063204561"><ele>28.5</ele><time>2026-04-09T16:47:49Z</time></trkpt><trkpt lat="39.14167597490639" lon="9.411131771875791"><ele>32.75</ele><time>2026-04-09T16:47:50Z</time></trkpt><trkpt lat="39.14178688325005" lon="9.411049036075239"><ele>37.0</ele><time>2026-04-09T16:47:51Z</time></trkpt><trkpt lat="39.14193706342822" lon="9.410995483802214"><ele>37.0</ele><time>2026-04-09T16:47:52Z</time></trkpt><trkpt lat="39.142125066716076" lon="9.410967834774995"><ele>37.0</ele><time>2026-04-09T16:47:53Z</time></trkpt><trkpt lat="39.14231821135158" lon="9.41094275434064"><ele>37.0</ele><time>2026-04-09T16:47:54Z</time></trkpt><trkpt lat="39.14250719557616" lon="9.410919443105103"><ele>39.0</ele><time>2026-04-09T16:47:55Z</time></trkpt><trkpt lat="39.14268239631274" lon="9.410900968607434"><ele>41.0</ele><time>2026-04-09T16:47:56Z</time></trkpt><trkpt lat="39.14284533269636" lon="9.410884225157291"><ele>43.0</ele><time>2026-04-09T16:47:57Z</time></trkpt><trkpt lat="39.14299924420104" lon="9.410870570878485"><ele>43.0</ele><time>2026-04-09T16:47:58Z</time></trkpt><trkpt lat="39.143133925710124" lon="9.410857327970046"><ele>43.0</ele><time>2026-04-09T16:47:59Z</time></trkpt><trkpt lat="39.14325826912744" lon="9.410842052945426"><ele>43.0</ele><time>2026-04-09T16:48:00Z</time></trkpt><trkpt lat="39.14337356405326" lon="9.410812259815636"><ele>43.0</ele><time>2026-04-09T16:48:01Z</time></trkpt><trkpt lat="39.14348036599221" lon="9.410739968120216"><ele>42.75</ele><time>2026-04-09T16:48:02Z</time></trkpt><trkpt lat="39.14357135786268" lon="9.41061391023095"><ele>42.5</ele><time>2026-04-09T16:48:03Z</time></trkpt><trkpt lat="39.143649574109894" lon="9.410444698512716"><ele>42.25</ele><time>2026-04-09T16:48:04Z</time></trkpt><trkpt lat="39.14372820350643" lon="9.410266218541572"><ele>42.0</ele><time>2026-04-09T16:48:05Z</time></trkpt><trkpt lat="39.14383778009332" lon="9.410109422502618"><ele>39.5</ele><time>2026-04-09T16:48:06Z</time></trkpt><trkpt lat="39.143953378175524" lon="9.409984972177016"><ele>37.0</ele><time>2026-04-09T16:48:07Z</time></trkpt><trkpt lat="39.14405111611428" lon="9.409879060624156"><ele>34.5</ele><time>2026-04-09T16:48:08Z</time></trkpt><trkpt lat="39.144137317233756" lon="9.409788671005263"><ele>32.0</ele><time>2026-04-09T16:48:09Z</time></trkpt><trkpt lat="39.14422524285264" lon="9.40970712024153"><ele>32.0</ele><time>2026-04-09T16:48:10Z</time></trkpt><trkpt lat="39.14431884918176" lon="9.409652924681584"><ele>32.0</ele><time>2026-04-09T16:48:11Z</time></trkpt><trkpt lat="39.14441636923382" lon="9.409638604855624"><ele>32.0</ele><time>2026-04-09T16:48:12Z</time></trkpt><trkpt lat="39.14450954903897" lon="9.40966367761691"><ele>32.0</ele><time>2026-04-09T16:48:13Z</time></trkpt><trkpt lat="39.14458799733431" lon="9.409730656791442"><ele>32.0</ele><time>2026-04-09T16:48:14Z</time></trkpt><trkpt lat="39.14465551728172" lon="9.409810613346684"><ele>32.0</ele><time>2026-04-09T16:48:15Z</time></trkpt><trkpt lat="39.14474266948061" lon="9.409847245310718"><ele>32.0</ele><time>2026-04-09T16:48:16Z</time></trkpt><trkpt lat="39.14483803618341" lon="9.4098153795286"><ele>32.0</ele><time>2026-04-09T16:48:17Z</time></trkpt><trkpt lat="39.14491117201592" lon="9.409723859894898"><ele>32.0</ele><time>2026-04-09T16:48:18Z</time></trkpt><trkpt lat="39.144949346081184" lon="9.40958126504644"><ele>32.0</ele><time>2026-04-09T16:48:19Z</time></trkpt><trkpt lat="39.14496966763867" lon="9.4094111153268"><ele>30.75</ele><time>2026-04-09T16:48:20Z</time></trkpt><trkpt lat="39.14499939857624" lon="9.409235121553628"><ele>29.5</ele><time>2026-04-09T16:48:21Z</time></trkpt><trkpt lat="39.14502983692951" lon="9.409068250604252"><ele>28.25</ele><time>2026-04-09T16:48:22Z</time></trkpt><trkpt lat="39.14506571629616" lon="9.408901685000256"><ele>27.0</ele><time>2026-04-09T16:48:23Z</time></trkpt><trkpt lat="39.14511422465076" lon="9.408738977038453"><ele>25.666666666666668</ele><time>2026-04-09T16:48:24Z</time></trkpt><trkpt lat="39.14518901138638" lon="9.408582002235326"><ele>24.333333333333336</ele><time>2026-04-09T16:48:25Z</time></trkpt><trkpt lat="39.14528878166059" lon="9.408430470303486"><ele>23.0</ele><time>2026-04-09T16:48:26Z</time></trkpt><trkpt lat="39.14540321268996" lon="9.40826758565726"><ele>23.0</ele><time>2026-04-09T16:48:27Z</time></trkpt><trkpt lat="39.14552868033778" lon="9.408092010109467"><ele>23.0</ele><time>2026-04-09T16:48:28Z</time></trkpt><trkpt lat="39.14566070420783" lon="9.407916415710172"><ele>23.0</ele><time>2026-04-09T16:48:29Z</time></trkpt><trkpt lat="39.14580371812367" lon="9.407740264792588"><ele>24.75</ele><time>2026-04-09T16:48:30Z</time></trkpt><trkpt lat="39.14593045428554" lon="9.407603434483747"><ele>26.5</ele><time>2026-04-09T16:48:31Z</time></trkpt><trkpt lat="39.14603662100426" lon="9.407481270115946"><ele>28.25</ele><time>2026-04-09T16:48:32Z</time></trkpt><trkpt lat="39.14612208699304" lon="9.407369425615007"><ele>30.0</ele><time>2026-04-09T16:48:33Z</time></trkpt><trkpt lat="39.14616707855873" lon="9.407263017564658"><ele>30.5</ele><time>2026-04-09T16:48:34Z</time></trkpt><trkpt lat="39.14616924814801" lon="9.40713921358184"><ele>31.0</ele><time>2026-04-09T16:48:35Z</time></trkpt><trkpt lat="39.14612295936776" lon="9.406991974619173"><ele>31.5</ele><time>2026-04-09T16:48:36Z</time></trkpt><trkpt lat="39.146022254352125" lon="9.406864325305307"><ele>32.0</ele><time>2026-04-09T16:48:37Z</time></trkpt><trkpt lat="39.14588957870466" lon="9.406780573655757"><ele>32.0</ele><time>2026-04-09T16:48:38Z</time></trkpt><trkpt lat="39.14577154276413" lon="9.40670877714386"><ele>32.0</ele><time>2026-04-09T16:48:39Z</time></trkpt><trkpt lat="39.14570271485266" lon="9.40659990884757"><ele>32.0</ele><time>2026-04-09T16:48:40Z</time></trkpt><trkpt lat="39.14567682354324" lon="9.406433979729776"><ele>32.0</ele><time>2026-04-09T16:48:41Z</time></trkpt><trkpt lat="39.14568966341539" lon="9.406255145869169"><ele>30.75</ele><time>2026-04-09T16:48:42Z</time></trkpt><trkpt lat="39.145740325810664" lon="9.406131683815872"><ele>29.5</ele><time>2026-04-09T16:48:43Z</time></trkpt><trkpt lat="39.145849381833536" lon="9.406023732615745"><ele>28.25</ele><time>2026-04-09T16:48:44Z</time></trkpt><trkpt lat="39.14601794563402" lon="9.405940871871865"><ele>27.0</ele><time>2026-04-09T16:48:45Z</time></trkpt><trkpt lat="39.146226369664156" lon="9.40585937383964"><ele>27.0</ele><time>2026-04-09T16:48:46Z</time></trkpt><trkpt lat="39.14642766726093" lon="9.405771185305909"><ele>27.0</ele><time>2026-04-09T16:48:47Z</time></trkpt><trkpt lat="39.146638187345296" lon="9.405659621305368"><ele>27.0</ele><time>2026-04-09T16:48:48Z</time></trkpt><trkpt lat="39.146837080783" lon="9.405538292410107"><ele>26.0</ele><time>2026-04-09T16:48:49Z</time></trkpt><trkpt lat="39.147016493263045" lon="9.405415461957828"><ele>25.0</ele><time>2026-04-09T16:48:50Z</time></trkpt><trkpt lat="39.147173541329536" lon="9.405306659098274"><ele>24.0</ele><time>2026-04-09T16:48:51Z</time></trkpt><trkpt lat="39.147330851132956" lon="9.405238958881078"><ele>27.666666666666664</ele><time>2026-04-09T16:48:52Z</time></trkpt><trkpt lat="39.147525415596256" lon="9.405260810706359"><ele>31.333333333333332</ele><time>2026-04-09T16:48:53Z</time></trkpt><trkpt lat="39.14772919857839" lon="9.405226675568176"><ele>35.0</ele><time>2026-04-09T16:48:54Z</time></trkpt><trkpt lat="39.14791191526465" lon="9.405207242570347"><ele>35.0</ele><time>2026-04-09T16:48:55Z</time></trkpt><trkpt lat="39.14806280261893" lon="9.405177299571239"><ele>35.0</ele><time>2026-04-09T16:48:56Z</time></trkpt><trkpt lat="39.14818842704892" lon="9.405132534247523"><ele>35.0</ele><time>2026-04-09T16:48:57Z</time></trkpt><trkpt lat="39.1482872425419" lon="9.405051445089425"><ele>35.0</ele><time>2026-04-09T16:48:58Z</time></trkpt><trkpt lat="39.14836399749829" lon="9.40495196995572"><ele>37.0</ele><time>2026-04-09T16:48:59Z</time></trkpt><trkpt lat="39.14835735836079" lon="9.404767802872993"><ele>39.0</ele><time>2026-04-09T16:49:00Z</time></trkpt><trkpt lat="39.14833908644957" lon="9.404580424437913"><ele>41.0</ele><time>2026-04-09T16:49:01Z</time></trkpt><trkpt lat="39.14835759943897" lon="9.404429184122927"><ele>43.0</ele><time>2026-04-09T16:49:02Z</time></trkpt><trkpt lat="39.14845420745316" lon="9.404289334525734"><ele>43.0</ele><time>2026-04-09T16:49:03Z</time></trkpt><trkpt lat="39.14859164626344" lon="9.404130139745927"><ele>43.0</ele><time>2026-04-09T16:49:04Z</time></trkpt><trkpt lat="39.148720729406776" lon="9.404003561141344"><ele>43.0</ele><time>2026-04-09T16:49:05Z</time></trkpt><trkpt lat="39.148862542714554" lon="9.403916713339825"><ele>43.0</ele><time>2026-04-09T16:49:06Z</time></trkpt><trkpt lat="39.14903364130704" lon="9.403831131374448"><ele>43.0</ele><time>2026-04-09T16:49:07Z</time></trkpt><trkpt lat="39.14920386122525" lon="9.403753234216907"><ele>43.0</ele><time>2026-04-09T16:49:08Z</time></trkpt><trkpt lat="39.149358077518414" lon="9.403676121251362"><ele>42.333333333333336</ele><time>2026-04-09T16:49:09Z</time></trkpt><trkpt lat="39.149503410218045" lon="9.403618424218147"><ele>41.666666666666664</ele><time>2026-04-09T16:49:10Z</time></trkpt><trkpt lat="39.1496500634117" lon="9.40359684249243"><ele>41.0</ele><time>2026-04-09T16:49:11Z</time></trkpt><trkpt lat="39.14981729771216" lon="9.40363364072746"><ele>39.0</ele><time>2026-04-09T16:49:12Z</time></trkpt><trkpt lat="39.14998246393121" lon="9.403729875621742"><ele>37.0</ele><time>2026-04-09T16:49:13Z</time></trkpt><trkpt lat="39.150140049878665" lon="9.403800425238698"><ele>35.0</ele><time>2026-04-09T16:49:14Z</time></trkpt><trkpt lat="39.15027972312446" lon="9.403888588451728"><ele>35.0</ele><time>2026-04-09T16:49:15Z</time></trkpt><trkpt lat="39.15039711888751" lon="9.40399666065179"><ele>35.0</ele><time>2026-04-09T16:49:16Z</time></trkpt><trkpt lat="39.150490959172885" lon="9.40412632217267"><ele>35.0</ele><time>2026-04-09T16:49:17Z</time></trkpt><trkpt lat="39.150595889533975" lon="9.404239570321186"><ele>35.0</ele><time>2026-04-09T16:49:18Z</time></trkpt><trkpt lat="39.15073939551784" lon="9.404304922509372"><ele>35.0</ele><time>2026-04-09T16:49:19Z</time></trkpt><trkpt lat="39.15090795592441" lon="9.404338601665092"><ele>35.0</ele><time>2026-04-09T16:49:20Z</time></trkpt><trkpt lat="39.15106563925507" lon="9.404353541119004"><ele>35.0</ele><time>2026-04-09T16:49:21Z</time></trkpt><trkpt lat="39.1512017971894" lon="9.40438049116225"><ele>35.0</ele><time>2026-04-09T16:49:22Z</time></trkpt><trkpt lat="39.15131618493496" lon="9.404440433625652"><ele>35.0</ele><time>2026-04-09T16:49:23Z</time></trkpt><trkpt lat="39.15138906050106" lon="9.404550688715709"><ele>35.0</ele><time>2026-04-09T16:49:24Z</time></trkpt><trkpt lat="39.151431394198184" lon="9.404709594766773"><ele>35.0</ele><time>2026-04-09T16:49:25Z</time></trkpt><trkpt lat="39.15149032082597" lon="9.404941931798216"><ele>33.33333333333333</ele><time>2026-04-09T16:49:26Z</time></trkpt><trkpt lat="39.15155838850296" lon="9.405184155210977"><ele>31.666666666666664</ele><time>2026-04-09T16:49:27Z</time></trkpt><trkpt lat="39.15161990885455" lon="9.40539782508031"><ele>30.0</ele><time>2026-04-09T16:49:28Z</time></trkpt><trkpt lat="39.15168095181408" lon="9.40559535587338"><ele>30.0</ele><time>2026-04-09T16:49:29Z</time></trkpt><trkpt lat="39.15174985392666" lon="9.405770365232472"><ele>30.0</ele><time>2026-04-09T16:49:30Z</time></trkpt><trkpt lat="39.15184771735326" lon="9.40592202489979"><ele>30.0</ele><time>2026-04-09T16:49:31Z</time></trkpt><trkpt lat="39.15197975118032" lon="9.406035428114473"><ele>30.0</ele><time>2026-04-09T16:49:32Z</time></trkpt><trkpt lat="39.15214733050741" lon="9.406084335390629"><ele>30.0</ele><time>2026-04-09T16:49:33Z</time></trkpt><trkpt lat="39.152339336528456" lon="9.406051430116316"><ele>30.0</ele><time>2026-04-09T16:49:34Z</time></trkpt><trkpt lat="39.15253329241564" lon="9.40598431079203"><ele>28.0</ele><time>2026-04-09T16:49:35Z</time></trkpt><trkpt lat="39.15273594792898" lon="9.405893819221648"><ele>26.0</ele><time>2026-04-09T16:49:36Z</time></trkpt><trkpt lat="39.15293078891338" lon="9.405819767087099"><ele>24.0</ele><time>2026-04-09T16:49:37Z</time></trkpt><trkpt lat="39.15310355942782" lon="9.405748879655395"><ele>25.0</ele><time>2026-04-09T16:49:38Z</time></trkpt><trkpt lat="39.153258831248785" lon="9.405663537264878"><ele>26.0</ele><time>2026-04-09T16:49:39Z</time></trkpt><trkpt lat="39.15337639679568" lon="9.40554728859918"><ele>27.0</ele><time>2026-04-09T16:49:40Z</time></trkpt><trkpt lat="39.153468392335704" lon="9.40537615134002"><ele>27.0</ele><time>2026-04-09T16:49:41Z</time></trkpt><trkpt lat="39.15354934883969" lon="9.405141113322406"><ele>27.0</ele><time>2026-04-09T16:49:42Z</time></trkpt><trkpt lat="39.15363627629498" lon="9.404866437515647"><ele>27.0</ele><time>2026-04-09T16:49:43Z</time></trkpt><trkpt lat="39.153729600382086" lon="9.40458156148701"><ele>25.0</ele><time>2026-04-09T16:49:44Z</time></trkpt><trkpt lat="39.153837342868286" lon="9.404262853924068"><ele>23.0</ele><time>2026-04-09T16:49:45Z</time></trkpt><trkpt lat="39.15395789539909" lon="9.403921276683285"><ele>27.0</ele><time>2026-04-09T16:49:46Z</time></trkpt><trkpt lat="39.15406040741968" lon="9.403628091609603"><ele>31.0</ele><time>2026-04-09T16:49:47Z</time></trkpt><trkpt lat="39.15415858605612" lon="9.403359624182668"><ele>31.0</ele><time>2026-04-09T16:49:48Z</time></trkpt><trkpt lat="39.154254863033984" lon="9.403103722292467"><ele>31.0</ele><time>2026-04-09T16:49:49Z</time></trkpt><trkpt lat="39.154392897048176" lon="9.402943107573277"><ele>31.0</ele><time>2026-04-09T16:49:50Z</time></trkpt><trkpt lat="39.15451705489729" lon="9.402758539138093"><ele>29.666666666666668</ele><time>2026-04-09T16:49:51Z</time></trkpt><trkpt lat="39.15466022119079" lon="9.402608783179856"><ele>28.333333333333336</ele><time>2026-04-09T16:49:52Z</time></trkpt><trkpt lat="39.15478272470359" lon="9.402474405844623"><ele>27.0</ele><time>2026-04-09T16:49:53Z</time></trkpt><trkpt lat="39.154906803370494" lon="9.402364616723506"><ele>30.0</ele><time>2026-04-09T16:49:54Z</time></trkpt><trkpt lat="39.15506674037222" lon="9.40232298144645"><ele>33.0</ele><time>2026-04-09T16:49:55Z</time></trkpt><trkpt lat="39.15525461716789" lon="9.402244916748408"><ele>36.0</ele><time>2026-04-09T16:49:56Z</time></trkpt><trkpt lat="39.15545371108946" lon="9.402179503608036"><ele>33.666666666666664</ele><time>2026-04-09T16:49:57Z</time></trkpt><trkpt lat="39.15563074871041" lon="9.402108502899022"><ele>31.333333333333332</ele><time>2026-04-09T16:49:58Z</time></trkpt><trkpt lat="39.15578187311586" lon="9.402031180704109"><ele>29.0</ele><time>2026-04-09T16:49:59Z</time></trkpt><trkpt lat="39.15590702457154" lon="9.401927317892934"><ele>28.0</ele><time>2026-04-09T16:50:00Z</time></trkpt><trkpt lat="39.15600806070535" lon="9.401772904236289"><ele>27.0</ele><time>2026-04-09T16:50:01Z</time></trkpt><trkpt lat="39.15609987196164" lon="9.401552447672302"><ele>26.0</ele><time>2026-04-09T16:50:02Z</time></trkpt><trkpt lat="39.156188853711996" lon="9.401326420288786"><ele>24.0</ele><time>2026-04-09T16:50:03Z</time></trkpt><trkpt lat="39.15630195908987" lon="9.401116138445937"><ele>22.0</ele><time>2026-04-09T16:50:04Z</time></trkpt><trkpt lat="39.156393733906576" lon="9.40088707039625"><ele>20.0</ele><time>2026-04-09T16:50:05Z</time></trkpt><trkpt lat="39.15649364999414" lon="9.400687555979257"><ele>19.666666666666668</ele><time>2026-04-09T16:50:06Z</time></trkpt><trkpt lat="39.156590002437234" lon="9.400496256823896"><ele>19.333333333333332</ele><time>2026-04-09T16:50:07Z</time></trkpt><trkpt lat="39.15667547694746" lon="9.400315227234072"><ele>19.0</ele><time>2026-04-09T16:50:08Z</time></trkpt><trkpt lat="39.15675575689154" lon="9.400138815968074"><ele>19.0</ele><time>2026-04-09T16:50:09Z</time></trkpt><trkpt lat="39.156849502767116" lon="9.399943286467591"><ele>19.0</ele><time>2026-04-09T16:50:10Z</time></trkpt><trkpt lat="39.15695101121139" lon="9.399714459381757"><ele>19.0</ele><time>2026-04-09T16:50:11Z</time></trkpt><trkpt lat="39.157083332813485" lon="9.399473468588026"><ele>18.333333333333332</ele><time>2026-04-09T16:50:12Z</time></trkpt><trkpt lat="39.15719650769176" lon="9.399235520649485"><ele>17.666666666666668</ele><time>2026-04-09T16:50:13Z</time></trkpt><trkpt lat="39.15731070756346" lon="9.398998019970229"><ele>17.0</ele><time>2026-04-09T16:50:14Z</time></trkpt><trkpt lat="39.15743080851625" lon="9.398746272989664"><ele>17.0</ele><time>2026-04-09T16:50:15Z</time></trkpt><trkpt lat="39.15754245615199" lon="9.398482425034535"><ele>17.0</ele><time>2026-04-09T16:50:16Z</time></trkpt><trkpt lat="39.1576621332794" lon="9.398252511042754"><ele>17.0</ele><time>2026-04-09T16:50:17Z</time></trkpt><trkpt lat="39.157771502807556" lon="9.398049836477485"><ele>16.333333333333336</ele><time>2026-04-09T16:50:18Z</time></trkpt><trkpt lat="39.157890570898694" lon="9.397877290350165"><ele>15.666666666666668</ele><time>2026-04-09T16:50:19Z</time></trkpt><trkpt lat="39.158013390274185" lon="9.397730115395225"><ele>15.0</ele><time>2026-04-09T16:50:20Z</time></trkpt><trkpt lat="39.15813553522104" lon="9.397623518135669"><ele>17.25</ele><time>2026-04-09T16:50:21Z</time></trkpt><trkpt lat="39.158239356164046" lon="9.397523558353258"><ele>19.5</ele><time>2026-04-09T16:50:22Z</time></trkpt><trkpt lat="39.158340289616454" lon="9.397441584333526"><ele>21.75</ele><time>2026-04-09T16:50:23Z</time></trkpt><trkpt lat="39.15843088659947" lon="9.397356289927439"><ele>24.0</ele><time>2026-04-09T16:50:24Z</time></trkpt><trkpt lat="39.1585232573867" lon="9.397297985420584"><ele>24.0</ele><time>2026-04-09T16:50:25Z</time></trkpt><trkpt lat="39.158610892657705" lon="9.397243414112562"><ele>24.0</ele><time>2026-04-09T16:50:26Z</time></trkpt><trkpt lat="39.1587071451575" lon="9.397179001024973"><ele>24.0</ele><time>2026-04-09T16:50:27Z</time></trkpt><trkpt lat="39.1588042631227" lon="9.397106369160921"><ele>24.0</ele><time>2026-04-09T16:50:28Z</time></trkpt><trkpt lat="39.15889729040614" lon="9.397042614338122"><ele>24.0</ele><time>2026-04-09T16:50:29Z</time></trkpt><trkpt lat="39.158977320468175" lon="9.39698507549201"><ele>24.2</ele><time>2026-04-09T16:50:30Z</time></trkpt><trkpt lat="39.15905327190409" lon="9.396932852058328"><ele>24.4</ele><time>2026-04-09T16:50:31Z</time></trkpt><trkpt lat="39.15913327814376" lon="9.39686595984068"><ele>24.6</ele><time>2026-04-09T16:50:32Z</time></trkpt><trkpt lat="39.159238159803316" lon="9.396814027912558"><ele>24.8</ele><time>2026-04-09T16:50:33Z</time></trkpt><trkpt lat="39.15933196894496" lon="9.396726110074999"><ele>25.0</ele><time>2026-04-09T16:50:34Z</time></trkpt><trkpt lat="39.15944166947328" lon="9.396669461331834"><ele>25.0</ele><time>2026-04-09T16:50:35Z</time></trkpt><trkpt lat="39.159540933026946" lon="9.396604410955266"><ele>25.0</ele><time>2026-04-09T16:50:36Z</time></trkpt><trkpt lat="39.159644733557315" lon="9.396533339816024"><ele>25.0</ele><time>2026-04-09T16:50:37Z</time></trkpt><trkpt lat="39.1597517393133" lon="9.39645746956047"><ele>25.0</ele><time>2026-04-09T16:50:38Z</time></trkpt><trkpt lat="39.15985749573816" lon="9.396383042471285"><ele>25.0</ele><time>2026-04-09T16:50:39Z</time></trkpt><trkpt lat="39.15996190438313" lon="9.396308712104869"><ele>25.0</ele><time>2026-04-09T16:50:40Z</time></trkpt><trkpt lat="39.1600692039583" lon="9.39623628324205"><ele>25.0</ele><time>2026-04-09T16:50:41Z</time></trkpt><trkpt lat="39.160176039529354" lon="9.396164518336164"><ele>25.0</ele><time>2026-04-09T16:50:42Z</time></trkpt><trkpt lat="39.16028246288805" lon="9.396092979808333"><ele>25.0</ele><time>2026-04-09T16:50:43Z</time></trkpt><trkpt lat="39.16039155954029" lon="9.396019607921327"><ele>25.0</ele><time>2026-04-09T16:50:44Z</time></trkpt><trkpt lat="39.16050753120404" lon="9.395934817324184"><ele>25.0</ele><time>2026-04-09T16:50:45Z</time></trkpt><trkpt lat="39.160623398442006" lon="9.395841101430628"><ele>25.0</ele><time>2026-04-09T16:50:46Z</time></trkpt><trkpt lat="39.160698710954684" lon="9.395673421519973"><ele>28.333333333333336</ele><time>2026-04-09T16:50:47Z</time></trkpt><trkpt lat="39.16075689149819" lon="9.395452695292704"><ele>31.666666666666664</ele><time>2026-04-09T16:50:48Z</time></trkpt><trkpt lat="39.16082740583458" lon="9.395207260151304"><ele>35.0</ele><time>2026-04-09T16:50:49Z</time></trkpt><trkpt lat="39.1609277508903" lon="9.394953546342297"><ele>35.0</ele><time>2026-04-09T16:50:50Z</time></trkpt><trkpt lat="39.16105174951586" lon="9.3946928777677"><ele>35.0</ele><time>2026-04-09T16:50:51Z</time></trkpt><trkpt lat="39.161167123344626" lon="9.394458295986349"><ele>37.666666666666664</ele><time>2026-04-09T16:50:52Z</time></trkpt><trkpt lat="39.16127371394654" lon="9.394252921343664"><ele>40.333333333333336</ele><time>2026-04-09T16:50:53Z</time></trkpt><trkpt lat="39.161385171105515" lon="9.394071592909304"><ele>43.0</ele><time>2026-04-09T16:50:54Z</time></trkpt><trkpt lat="39.161510363361806" lon="9.39389754388905"><ele>45.66666666666667</ele><time>2026-04-09T16:50:55Z</time></trkpt><trkpt lat="39.161645776514405" lon="9.393723929945692"><ele>48.333333333333336</ele><time>2026-04-09T16:50:56Z</time></trkpt><trkpt lat="39.161775768021684" lon="9.393548184809111"><ele>51.0</ele><time>2026-04-09T16:50:57Z</time></trkpt><trkpt lat="39.161886771391025" lon="9.39336745649834"><ele>51.0</ele><time>2026-04-09T16:50:58Z</time></trkpt><trkpt lat="39.16197422537397" lon="9.39317629483634"><ele>51.0</ele><time>2026-04-09T16:50:59Z</time></trkpt><trkpt lat="39.1620416433543" lon="9.392976025686481"><ele>51.0</ele><time>2026-04-09T16:51:00Z</time></trkpt><trkpt lat="39.162089371033204" lon="9.39277466507606"><ele>51.66666666666667</ele><time>2026-04-09T16:51:01Z</time></trkpt><trkpt lat="39.16210550136322" lon="9.392560273042081"><ele>52.333333333333336</ele><time>2026-04-09T16:51:02Z</time></trkpt><trkpt lat="39.16210341921973" lon="9.392310682281362"><ele>53.0</ele><time>2026-04-09T16:51:03Z</time></trkpt><trkpt lat="39.16206872594733" lon="9.392017389418827"><ele>47.0</ele><time>2026-04-09T16:51:04Z</time></trkpt><trkpt lat="39.1620262432761" lon="9.391720730027576"><ele>41.0</ele><time>2026-04-09T16:51:05Z</time></trkpt><trkpt lat="39.161984152034975" lon="9.39141330058942"><ele>37.0</ele><time>2026-04-09T16:51:06Z</time></trkpt><trkpt lat="39.161904350274476" lon="9.391140815114605"><ele>33.0</ele><time>2026-04-09T16:51:07Z</time></trkpt><trkpt lat="39.16186373066403" lon="9.390875553602585"><ele>29.0</ele><time>2026-04-09T16:51:08Z</time></trkpt><trkpt lat="39.16183824752919" lon="9.390616252159422"><ele>27.333333333333332</ele><time>2026-04-09T16:51:09Z</time></trkpt><trkpt lat="39.161826537400046" lon="9.39038623079875"><ele>25.666666666666664</ele><time>2026-04-09T16:51:10Z</time></trkpt><trkpt lat="39.161823886350994" lon="9.390188587078386"><ele>24.0</ele><time>2026-04-09T16:51:11Z</time></trkpt><trkpt lat="39.16183940762709" lon="9.390021104791831"><ele>24.0</ele><time>2026-04-09T16:51:12Z</time></trkpt><trkpt lat="39.16187966505945" lon="9.389872267688293"><ele>24.0</ele><time>2026-04-09T16:51:13Z</time></trkpt><trkpt lat="39.161961397133034" lon="9.389726519306043"><ele>24.0</ele><time>2026-04-09T16:51:14Z</time></trkpt><trkpt lat="39.162096710801656" lon="9.3895642680644"><ele>24.0</ele><time>2026-04-09T16:51:15Z</time></trkpt><trkpt lat="39.16229247580828" lon="9.389375225200281"><ele>19.0</ele><time>2026-04-09T16:51:16Z</time></trkpt><trkpt lat="39.16250902760286" lon="9.389165088282423"><ele>14.0</ele><time>2026-04-09T16:51:17Z</time></trkpt><trkpt lat="39.16273943907975" lon="9.38892898046206"><ele>14.5</ele><time>2026-04-09T16:51:18Z</time></trkpt><trkpt lat="39.16297715456835" lon="9.388688848917317"><ele>15.0</ele><time>2026-04-09T16:51:19Z</time></trkpt><trkpt lat="39.1631894223318" lon="9.38847140678121"><ele>14.333333333333332</ele><time>2026-04-09T16:51:20Z</time></trkpt><trkpt lat="39.16336880489319" lon="9.388289531273417"><ele>13.666666666666666</ele><time>2026-04-09T16:51:21Z</time></trkpt><trkpt lat="39.16353247293157" lon="9.388130020956803"><ele>13.0</ele><time>2026-04-09T16:51:22Z</time></trkpt><trkpt lat="39.163682382004126" lon="9.387985819198091"><ele>12.0</ele><time>2026-04-09T16:51:23Z</time></trkpt><trkpt lat="39.16383749042695" lon="9.387853719838999"><ele>11.0</ele><time>2026-04-09T16:51:24Z</time></trkpt><trkpt lat="39.164023984947875" lon="9.387739211888965"><ele>10.0</ele><time>2026-04-09T16:51:25Z</time></trkpt><trkpt lat="39.16425245597507" lon="9.38766479375909"><ele>9.0</ele><time>2026-04-09T16:51:26Z</time></trkpt><trkpt lat="39.16450800445308" lon="9.387651273128062"><ele>8.0</ele><time>2026-04-09T16:51:27Z</time></trkpt><trkpt lat="39.16478427040398" lon="9.387647909385507"><ele>11.5</ele><time>2026-04-09T16:51:28Z</time></trkpt><trkpt lat="39.16509729551564" lon="9.387637939453418"><ele>15.0</ele><time>2026-04-09T16:51:29Z</time></trkpt><trkpt lat="39.16543029820943" lon="9.387638677933573"><ele>12.5</ele><time>2026-04-09T16:51:30Z</time></trkpt><trkpt lat="39.16578366944707" lon="9.38765823149304"><ele>10.0</ele><time>2026-04-09T16:51:31Z</time></trkpt><trkpt lat="39.166153225668964" lon="9.387659818736541"><ele>10.0</ele><time>2026-04-09T16:51:32Z</time></trkpt><trkpt lat="39.16651975238015" lon="9.387661454173784"><ele>10.0</ele><time>2026-04-09T16:51:33Z</time></trkpt><trkpt lat="39.16685956502944" lon="9.387664387890208"><ele>9.5</ele><time>2026-04-09T16:51:34Z</time></trkpt><trkpt lat="39.167179345020884" lon="9.387668419742532"><ele>9.0</ele><time>2026-04-09T16:51:35Z</time></trkpt><trkpt lat="39.167464521135486" lon="9.387669733311663"><ele>9.0</ele><time>2026-04-09T16:51:36Z</time></trkpt><trkpt lat="39.167715703717874" lon="9.38767041843811"><ele>9.0</ele><time>2026-04-09T16:51:37Z</time></trkpt><trkpt lat="39.16794373833036" lon="9.387671039099613"><ele>9.0</ele><time>2026-04-09T16:51:38Z</time></trkpt><trkpt lat="39.16817302328157" lon="9.387652160709989"><ele>9.0</ele><time>2026-04-09T16:51:39Z</time></trkpt><trkpt lat="39.168401392459735" lon="9.38766286985113"><ele>9.333333333333334</ele><time>2026-04-09T16:51:40Z</time></trkpt><trkpt lat="39.168619373529815" lon="9.387671632608667"><ele>9.666666666666668</ele><time>2026-04-09T16:51:41Z</time></trkpt><trkpt lat="39.16883418546446" lon="9.387677005723816"><ele>10.0</ele><time>2026-04-09T16:51:42Z</time></trkpt><trkpt lat="39.16904155488196" lon="9.387676521695866"><ele>10.0</ele><time>2026-04-09T16:51:43Z</time></trkpt><trkpt lat="39.16925048753481" lon="9.3876760926741"><ele>10.0</ele><time>2026-04-09T16:51:44Z</time></trkpt><trkpt lat="39.16944782997554" lon="9.387671977769335"><ele>10.0</ele><time>2026-04-09T16:51:45Z</time></trkpt><trkpt lat="39.169625107341254" lon="9.387664522003227"><ele>10.0</ele><time>2026-04-09T16:51:46Z</time></trkpt><trkpt lat="39.169770813615436" lon="9.387636954995859"><ele>10.0</ele><time>2026-04-09T16:51:47Z</time></trkpt><trkpt lat="39.169896116396316" lon="9.387579075204767"><ele>10.0</ele><time>2026-04-09T16:51:48Z</time></trkpt><trkpt lat="39.169995086226585" lon="9.387476992913646"><ele>10.0</ele><time>2026-04-09T16:51:49Z</time></trkpt><trkpt lat="39.17004604012449" lon="9.38733001316952"><ele>9.333333333333334</ele><time>2026-04-09T16:51:50Z</time></trkpt><trkpt lat="39.17005914744895" lon="9.387124011250059"><ele>8.666666666666666</ele><time>2026-04-09T16:51:51Z</time></trkpt><trkpt lat="39.17005915535115" lon="9.386860946790183"><ele>8.0</ele><time>2026-04-09T16:51:52Z</time></trkpt><trkpt lat="39.17007412337296" lon="9.386573655909597"><ele>8.333333333333332</ele><time>2026-04-09T16:51:53Z</time></trkpt><trkpt lat="39.17011408064367" lon="9.386281605981472"><ele>8.666666666666666</ele><time>2026-04-09T16:51:54Z</time></trkpt><trkpt lat="39.17012096090398" lon="9.386013540796002"><ele>9.0</ele><time>2026-04-09T16:51:55Z</time></trkpt><trkpt lat="39.17014299897471" lon="9.385761012808082"><ele>9.0</ele><time>2026-04-09T16:51:56Z</time></trkpt><trkpt lat="39.1701772464743" lon="9.385501795761327"><ele>9.0</ele><time>2026-04-09T16:51:57Z</time></trkpt><trkpt lat="39.170195903955246" lon="9.385272381231605"><ele>9.0</ele><time>2026-04-09T16:51:58Z</time></trkpt><trkpt lat="39.170208175552624" lon="9.38511990761401"><ele>9.0</ele><time>2026-04-09T16:51:59Z</time></trkpt><trkpt lat="39.170218838535824" lon="9.384987704649314"><ele>9.0</ele><time>2026-04-09T16:52:00Z</time></trkpt><trkpt lat="39.17021667693256" lon="9.384840590492603"><ele>9.0</ele><time>2026-04-09T16:52:01Z</time></trkpt><trkpt lat="39.17023396076575" lon="9.38467602327774"><ele>9.0</ele><time>2026-04-09T16:52:02Z</time></trkpt><trkpt lat="39.170249148520426" lon="9.384511270125634"><ele>8.6</ele><time>2026-04-09T16:52:03Z</time></trkpt><trkpt lat="39.17026088437917" lon="9.384379842598209"><ele>8.2</ele><time>2026-04-09T16:52:04Z</time></trkpt><trkpt lat="39.170272340642256" lon="9.384258163357279"><ele>7.799999999999999</ele><time>2026-04-09T16:52:05Z</time></trkpt><trkpt lat="39.1702827396778" lon="9.384135895026773"><ele>7.3999999999999995</ele><time>2026-04-09T16:52:06Z</time></trkpt><trkpt lat="39.17028980911122" lon="9.384013078976606"><ele>7.0</ele><time>2026-04-09T16:52:07Z</time></trkpt><trkpt lat="39.17029901174229" lon="9.383884995091181"><ele>8.0</ele><time>2026-04-09T16:52:08Z</time></trkpt><trkpt lat="39.17030994674149" lon="9.383778949146967"><ele>9.0</ele><time>2026-04-09T16:52:09Z</time></trkpt><trkpt lat="39.170319432216544" lon="9.383672695266403"><ele>10.0</ele><time>2026-04-09T16:52:10Z</time></trkpt><trkpt lat="39.17035594463399" lon="9.383575945058112"><ele>11.0</ele><time>2026-04-09T16:52:11Z</time></trkpt><trkpt lat="39.170418665337" lon="9.383502827342525"><ele>11.999999999999998</ele><time>2026-04-09T16:52:12Z</time></trkpt><trkpt lat="39.170511191016224" lon="9.383470386370714"><ele>13.0</ele><time>2026-04-09T16:52:13Z</time></trkpt><trkpt lat="39.17062702056224" lon="9.383460730492647"><ele>13.5</ele><time>2026-04-09T16:52:14Z</time></trkpt><trkpt lat="39.170759502921705" lon="9.383452794921826"><ele>14.0</ele><time>2026-04-09T16:52:15Z</time></trkpt><trkpt lat="39.17089466588039" lon="9.383424952087545"><ele>14.5</ele><time>2026-04-09T16:52:16Z</time></trkpt><trkpt lat="39.171031419491726" lon="9.383378396507208"><ele>15.0</ele><time>2026-04-09T16:52:17Z</time></trkpt><trkpt lat="39.17117205271832" lon="9.383323795902122"><ele>15.0</ele><time>2026-04-09T16:52:18Z</time></trkpt><trkpt lat="39.17131208853661" lon="9.383263434520424"><ele>15.0</ele><time>2026-04-09T16:52:19Z</time></trkpt><trkpt lat="39.17144804439171" lon="9.38320843826787"><ele>15.0</ele><time>2026-04-09T16:52:20Z</time></trkpt><trkpt lat="39.171571530803305" lon="9.383163488202134"><ele>15.0</ele><time>2026-04-09T16:52:21Z</time></trkpt><trkpt lat="39.171698101774744" lon="9.383154346046185"><ele>14.75</ele><time>2026-04-09T16:52:22Z</time></trkpt><trkpt lat="39.17182337746024" lon="9.383191746120453"><ele>14.5</ele><time>2026-04-09T16:52:23Z</time></trkpt><trkpt lat="39.17191933922927" lon="9.383265370529717"><ele>14.25</ele><time>2026-04-09T16:52:24Z</time></trkpt><trkpt lat="39.172007888530686" lon="9.383328035036458"><ele>14.0</ele><time>2026-04-09T16:52:25Z</time></trkpt><trkpt lat="39.172115311264236" lon="9.383363258093125"><ele>14.0</ele><time>2026-04-09T16:52:26Z</time></trkpt><trkpt lat="39.17225171969515" lon="9.383357533359797"><ele>14.0</ele><time>2026-04-09T16:52:27Z</time></trkpt><trkpt lat="39.17238579082194" lon="9.383310566772632"><ele>14.0</ele><time>2026-04-09T16:52:28Z</time></trkpt><trkpt lat="39.172511465579376" lon="9.383250192997602"><ele>14.0</ele><time>2026-04-09T16:52:29Z</time></trkpt><trkpt lat="39.17263631046685" lon="9.383162268997093"><ele>15.25</ele><time>2026-04-09T16:52:30Z</time></trkpt><trkpt lat="39.172746044495625" lon="9.383035212009812"><ele>16.5</ele><time>2026-04-09T16:52:31Z</time></trkpt><trkpt lat="39.17284228369997" lon="9.38289013422689"><ele>17.75</ele><time>2026-04-09T16:52:32Z</time></trkpt><trkpt lat="39.17292470549847" lon="9.382747527471805"><ele>19.0</ele><time>2026-04-09T16:52:33Z</time></trkpt><trkpt lat="39.17300138100804" lon="9.382612904093397"><ele>18.25</ele><time>2026-04-09T16:52:34Z</time></trkpt><trkpt lat="39.173079281568974" lon="9.382480628401336"><ele>17.5</ele><time>2026-04-09T16:52:35Z</time></trkpt><trkpt lat="39.17314445639157" lon="9.382349929738185"><ele>16.75</ele><time>2026-04-09T16:52:36Z</time></trkpt><trkpt lat="39.173181064008524" lon="9.382208837261382"><ele>16.0</ele><time>2026-04-09T16:52:37Z</time></trkpt><trkpt lat="39.173197331772336" lon="9.38206002883063"><ele>22.0</ele><time>2026-04-09T16:52:38Z</time></trkpt><trkpt lat="39.17313677749989" lon="9.381906098744249"><ele>28.0</ele><time>2026-04-09T16:52:39Z</time></trkpt><trkpt lat="39.17305289039129" lon="9.381758662302875"><ele>34.0</ele><time>2026-04-09T16:52:40Z</time></trkpt><trkpt lat="39.17293161450161" lon="9.381628765997414"><ele>40.0</ele><time>2026-04-09T16:52:41Z</time></trkpt><trkpt lat="39.17278324214384" lon="9.381499299161883"><ele>40.0</ele><time>2026-04-09T16:52:42Z</time></trkpt><trkpt lat="39.17264707088889" lon="9.381386782569594"><ele>40.0</ele><time>2026-04-09T16:52:43Z</time></trkpt><trkpt lat="39.17253197214994" lon="9.381280356342854"><ele>40.0</ele><time>2026-04-09T16:52:44Z</time></trkpt><trkpt lat="39.17242854395958" lon="9.381169999990004"><ele>40.0</ele><time>2026-04-09T16:52:45Z</time></trkpt><trkpt lat="39.17234223488309" lon="9.381058194503654"><ele>42.25</ele><time>2026-04-09T16:52:46Z</time></trkpt><trkpt lat="39.17227954286845" lon="9.380939385139403"><ele>44.5</ele><time>2026-04-09T16:52:47Z</time></trkpt><trkpt lat="39.17223482093518" lon="9.380805098279994"><ele>46.75</ele><time>2026-04-09T16:52:48Z</time></trkpt><trkpt lat="39.17221436184283" lon="9.380652669783734"><ele>49.0</ele><time>2026-04-09T16:52:49Z</time></trkpt><trkpt lat="39.17222502241657" lon="9.380517915932352"><ele>49.400000000000006</ele><time>2026-04-09T16:52:50Z</time></trkpt><trkpt lat="39.17225961653867" lon="9.380395093528355"><ele>49.8</ele><time>2026-04-09T16:52:51Z</time></trkpt><trkpt lat="39.1723085305576" lon="9.380278134478427"><ele>50.2</ele><time>2026-04-09T16:52:52Z</time></trkpt><trkpt lat="39.1723576582434" lon="9.380186101666283"><ele>50.599999999999994</ele><time>2026-04-09T16:52:53Z</time></trkpt><trkpt lat="39.172404383514404" lon="9.380114008646926"><ele>51.0</ele><time>2026-04-09T16:52:54Z</time></trkpt><trkpt lat="39.17249966419913" lon="9.380002970437566"><ele>49.0</ele><time>2026-04-09T16:52:56Z</time></trkpt><trkpt lat="39.17256495117037" lon="9.379958066927237"><ele>47.0</ele><time>2026-04-09T16:52:57Z</time></trkpt><trkpt lat="39.172635132628855" lon="9.379920740595784"><ele>45.0</ele><time>2026-04-09T16:52:58Z</time></trkpt><trkpt lat="39.172684114139095" lon="9.379861815860323"><ele>43.0</ele><time>2026-04-09T16:52:59Z</time></trkpt><trkpt lat="39.17271006984545" lon="9.379758136576228"><ele>41.0</ele><time>2026-04-09T16:53:00Z</time></trkpt><trkpt lat="39.17270517055445" lon="9.37961778739633"><ele>39.0</ele><time>2026-04-09T16:53:01Z</time></trkpt><trkpt lat="39.172680393631275" lon="9.379431853214056"><ele>39.0</ele><time>2026-04-09T16:53:02Z</time></trkpt><trkpt lat="39.17266600212692" lon="9.379208936588169"><ele>39.0</ele><time>2026-04-09T16:53:03Z</time></trkpt><trkpt lat="39.172627194939345" lon="9.378963914165164"><ele>39.0</ele><time>2026-04-09T16:53:04Z</time></trkpt><trkpt lat="39.17256233159079" lon="9.378702403473872"><ele>38.333333333333336</ele><time>2026-04-09T16:53:05Z</time></trkpt><trkpt lat="39.172518672717835" lon="9.378430061078959"><ele>37.66666666666667</ele><time>2026-04-09T16:53:06Z</time></trkpt><trkpt lat="39.172471800932094" lon="9.378162976521056"><ele>37.0</ele><time>2026-04-09T16:53:07Z</time></trkpt><trkpt lat="39.172436282703195" lon="9.377919452586776"><ele>37.66666666666667</ele><time>2026-04-09T16:53:08Z</time></trkpt><trkpt lat="39.17242064732342" lon="9.377664486005484"><ele>38.333333333333336</ele><time>2026-04-09T16:53:09Z</time></trkpt><trkpt lat="39.172443008707596" lon="9.377392715383538"><ele>39.0</ele><time>2026-04-09T16:53:10Z</time></trkpt><trkpt lat="39.17249182889326" lon="9.377120415464399"><ele>39.0</ele><time>2026-04-09T16:53:11Z</time></trkpt><trkpt lat="39.17253384607896" lon="9.376849336179598"><ele>39.0</ele><time>2026-04-09T16:53:12Z</time></trkpt><trkpt lat="39.17254408138733" lon="9.376593843423189"><ele>39.0</ele><time>2026-04-09T16:53:13Z</time></trkpt><trkpt lat="39.17252218304023" lon="9.376353269300425"><ele>39.333333333333336</ele><time>2026-04-09T16:53:14Z</time></trkpt><trkpt lat="39.17248472987476" lon="9.37611061665011"><ele>39.66666666666667</ele><time>2026-04-09T16:53:15Z</time></trkpt><trkpt lat="39.172446719738275" lon="9.375863100065251"><ele>40.0</ele><time>2026-04-09T16:53:16Z</time></trkpt><trkpt lat="39.172406768412024" lon="9.375647144443537"><ele>38.75</ele><time>2026-04-09T16:53:17Z</time></trkpt><trkpt lat="39.17235169465236" lon="9.375458318486872"><ele>37.5</ele><time>2026-04-09T16:53:18Z</time></trkpt><trkpt lat="39.17229018397384" lon="9.375294980426705"><ele>36.25</ele><time>2026-04-09T16:53:19Z</time></trkpt><trkpt lat="39.17226555324014" lon="9.375149078634701"><ele>35.0</ele><time>2026-04-09T16:53:20Z</time></trkpt><trkpt lat="39.17229298423467" lon="9.375014273764508"><ele>35.5</ele><time>2026-04-09T16:53:21Z</time></trkpt><trkpt lat="39.172372706067975" lon="9.374877721953153"><ele>36.0</ele><time>2026-04-09T16:53:22Z</time></trkpt><trkpt lat="39.1725090161977" lon="9.37476518201407"><ele>36.5</ele><time>2026-04-09T16:53:23Z</time></trkpt><trkpt lat="39.172642393399556" lon="9.37469140482595"><ele>37.0</ele><time>2026-04-09T16:53:24Z</time></trkpt><trkpt lat="39.17276687706114" lon="9.374605921582832"><ele>33.66666666666667</ele><time>2026-04-09T16:53:25Z</time></trkpt><trkpt lat="39.17287822327523" lon="9.37447140389074"><ele>30.333333333333336</ele><time>2026-04-09T16:53:26Z</time></trkpt><trkpt lat="39.17297035126407" lon="9.374271029722197"><ele>27.0</ele><time>2026-04-09T16:53:27Z</time></trkpt><trkpt lat="39.1730311045164" lon="9.374051308107433"><ele>23.333333333333332</ele><time>2026-04-09T16:53:28Z</time></trkpt><trkpt lat="39.173057899393555" lon="9.373837904623354"><ele>19.666666666666664</ele><time>2026-04-09T16:53:29Z</time></trkpt><trkpt lat="39.17305491772176" lon="9.373639138587261"><ele>16.0</ele><time>2026-04-09T16:53:30Z</time></trkpt><trkpt lat="39.17304247522687" lon="9.373431021002535"><ele>16.0</ele><time>2026-04-09T16:53:31Z</time></trkpt><trkpt lat="39.17304721138239" lon="9.37324573926944"><ele>16.0</ele><time>2026-04-09T16:53:32Z</time></trkpt><trkpt lat="39.17308987312776" lon="9.373093554541498"><ele>16.0</ele><time>2026-04-09T16:53:33Z</time></trkpt><trkpt lat="39.17317681712628" lon="9.372963747440343"><ele>16.0</ele><time>2026-04-09T16:53:34Z</time></trkpt><trkpt lat="39.17331414694497" lon="9.3728656183829"><ele>15.0</ele><time>2026-04-09T16:53:35Z</time></trkpt><trkpt lat="39.173464458735225" lon="9.372791238943945"><ele>14.0</ele><time>2026-04-09T16:53:36Z</time></trkpt><trkpt lat="39.17363198234514" lon="9.372770715571239"><ele>13.0</ele><time>2026-04-09T16:53:37Z</time></trkpt><trkpt lat="39.17381099155957" lon="9.372781165056356"><ele>13.0</ele><time>2026-04-09T16:53:38Z</time></trkpt><trkpt lat="39.17398182694705" lon="9.372806213596574"><ele>13.0</ele><time>2026-04-09T16:53:39Z</time></trkpt><trkpt lat="39.17415243193229" lon="9.37282158023277"><ele>13.0</ele><time>2026-04-09T16:53:40Z</time></trkpt><trkpt lat="39.17432816106326" lon="9.372819802106424"><ele>13.0</ele><time>2026-04-09T16:53:41Z</time></trkpt><trkpt lat="39.17449882018214" lon="9.372787154636002"><ele>13.0</ele><time>2026-04-09T16:53:42Z</time></trkpt><trkpt lat="39.17465050175568" lon="9.372718097018211"><ele>13.0</ele><time>2026-04-09T16:53:43Z</time></trkpt><trkpt lat="39.1747877444432" lon="9.372632837566421"><ele>15.333333333333332</ele><time>2026-04-09T16:53:44Z</time></trkpt><trkpt lat="39.174932724124865" lon="9.372560001215861"><ele>17.666666666666668</ele><time>2026-04-09T16:53:45Z</time></trkpt><trkpt lat="39.175081224842494" lon="9.372498688410117"><ele>20.0</ele><time>2026-04-09T16:53:46Z</time></trkpt><trkpt lat="39.175213026717195" lon="9.372440411556479"><ele>20.0</ele><time>2026-04-09T16:53:47Z</time></trkpt><trkpt lat="39.17531564780788" lon="9.37235934333745"><ele>20.0</ele><time>2026-04-09T16:53:48Z</time></trkpt><trkpt lat="39.175369604606125" lon="9.372255051210061"><ele>20.0</ele><time>2026-04-09T16:53:49Z</time></trkpt><trkpt lat="39.17537414509836" lon="9.372125376504597"><ele>20.0</ele><time>2026-04-09T16:53:50Z</time></trkpt><trkpt lat="39.17532639537213" lon="9.371996929311274"><ele>20.0</ele><time>2026-04-09T16:53:51Z</time></trkpt><trkpt lat="39.17521573462196" lon="9.371900158156695"><ele>21.333333333333336</ele><time>2026-04-09T16:53:52Z</time></trkpt><trkpt lat="39.175048587645406" lon="9.371807931349641"><ele>22.666666666666668</ele><time>2026-04-09T16:53:53Z</time></trkpt><trkpt lat="39.174892906958135" lon="9.371703744556623"><ele>24.0</ele><time>2026-04-09T16:53:54Z</time></trkpt><trkpt lat="39.17474923930631" lon="9.371627193264356"><ele>21.25</ele><time>2026-04-09T16:53:55Z</time></trkpt><trkpt lat="39.174634961056086" lon="9.371511697674256"><ele>18.5</ele><time>2026-04-09T16:53:56Z</time></trkpt><trkpt lat="39.174551432995266" lon="9.371384443362816"><ele>15.75</ele><time>2026-04-09T16:53:57Z</time></trkpt><trkpt lat="39.174515276959525" lon="9.371232078078782"><ele>13.0</ele><time>2026-04-09T16:53:58Z</time></trkpt><trkpt lat="39.17451189557584" lon="9.37107883978316"><ele>11.666666666666666</ele><time>2026-04-09T16:53:59Z</time></trkpt><trkpt lat="39.174570302224566" lon="9.370924055540366"><ele>10.333333333333332</ele><time>2026-04-09T16:54:00Z</time></trkpt><trkpt lat="39.17469223440928" lon="9.370747210226325"><ele>9.0</ele><time>2026-04-09T16:54:01Z</time></trkpt><trkpt lat="39.174821121347435" lon="9.3705556936702"><ele>14.0</ele><time>2026-04-09T16:54:02Z</time></trkpt><trkpt lat="39.174956690369065" lon="9.370373593691008"><ele>19.0</ele><time>2026-04-09T16:54:03Z</time></trkpt><trkpt lat="39.1750847269993" lon="9.370204797264487"><ele>24.0</ele><time>2026-04-09T16:54:04Z</time></trkpt><trkpt lat="39.17520758806263" lon="9.37003169321249"><ele>24.0</ele><time>2026-04-09T16:54:05Z</time></trkpt><trkpt lat="39.175329029748056" lon="9.369846692274873"><ele>24.0</ele><time>2026-04-09T16:54:06Z</time></trkpt><trkpt lat="39.175438372641814" lon="9.369672964699543"><ele>24.0</ele><time>2026-04-09T16:54:07Z</time></trkpt><trkpt lat="39.17554886077544" lon="9.36949181738978"><ele>19.333333333333332</ele><time>2026-04-09T16:54:08Z</time></trkpt><trkpt lat="39.175661480316975" lon="9.369298565424963"><ele>14.666666666666668</ele><time>2026-04-09T16:54:09Z</time></trkpt><trkpt lat="39.1757735309928" lon="9.36909403143342"><ele>10.0</ele><time>2026-04-09T16:54:10Z</time></trkpt><trkpt lat="39.17587083205583" lon="9.368867729704666"><ele>16.333333333333332</ele><time>2026-04-09T16:54:11Z</time></trkpt><trkpt lat="39.17594711410816" lon="9.368612812101814"><ele>22.666666666666664</ele><time>2026-04-09T16:54:12Z</time></trkpt><trkpt lat="39.17601518990914" lon="9.368350640330718"><ele>29.0</ele><time>2026-04-09T16:54:13Z</time></trkpt><trkpt lat="39.176089442751135" lon="9.368086212624473"><ele>24.333333333333332</ele><time>2026-04-09T16:54:14Z</time></trkpt><trkpt lat="39.17618258533687" lon="9.367841461773953"><ele>19.666666666666664</ele><time>2026-04-09T16:54:15Z</time></trkpt><trkpt lat="39.17629374299503" lon="9.367623899389411"><ele>15.0</ele><time>2026-04-09T16:54:16Z</time></trkpt><trkpt lat="39.176410343717436" lon="9.367419120934978"><ele>20.666666666666664</ele><time>2026-04-09T16:54:17Z</time></trkpt><trkpt lat="39.17652493855935" lon="9.367217861935393"><ele>26.333333333333332</ele><time>2026-04-09T16:54:18Z</time></trkpt><trkpt lat="39.17663928531027" lon="9.367008748419359"><ele>32.0</ele><time>2026-04-09T16:54:19Z</time></trkpt><trkpt lat="39.17674512847544" lon="9.366810770706543"><ele>32.0</ele><time>2026-04-09T16:54:20Z</time></trkpt><trkpt lat="39.17683757707455" lon="9.36663351783116"><ele>32.0</ele><time>2026-04-09T16:54:21Z</time></trkpt><trkpt lat="39.176923625094545" lon="9.366484083305334"><ele>32.0</ele><time>2026-04-09T16:54:22Z</time></trkpt><trkpt lat="39.17701459053225" lon="9.36636157277987"><ele>32.0</ele><time>2026-04-09T16:54:23Z</time></trkpt><trkpt lat="39.17712857822662" lon="9.366271958862967"><ele>30.333333333333332</ele><time>2026-04-09T16:54:24Z</time></trkpt><trkpt lat="39.177271384003" lon="9.366218275234388"><ele>28.666666666666664</ele><time>2026-04-09T16:54:25Z</time></trkpt><trkpt lat="39.17744428057427" lon="9.366221076388353"><ele>27.0</ele><time>2026-04-09T16:54:26Z</time></trkpt><trkpt lat="39.17763650310121" lon="9.366208362813078"><ele>27.0</ele><time>2026-04-09T16:54:27Z</time></trkpt><trkpt lat="39.17783086709756" lon="9.366206666711781"><ele>27.0</ele><time>2026-04-09T16:54:28Z</time></trkpt><trkpt lat="39.17803417821931" lon="9.366199005057481"><ele>27.0</ele><time>2026-04-09T16:54:29Z</time></trkpt><trkpt lat="39.17824421952454" lon="9.366183956417554"><ele>25.333333333333332</ele><time>2026-04-09T16:54:30Z</time></trkpt><trkpt lat="39.17845169821757" lon="9.366164110442865"><ele>23.666666666666664</ele><time>2026-04-09T16:54:31Z</time></trkpt><trkpt lat="39.17864941026516" lon="9.366136254916876"><ele>22.0</ele><time>2026-04-09T16:54:32Z</time></trkpt><trkpt lat="39.178836656218" lon="9.36610753120823"><ele>22.0</ele><time>2026-04-09T16:54:33Z</time></trkpt><trkpt lat="39.179015803110836" lon="9.366070638849619"><ele>22.0</ele><time>2026-04-09T16:54:34Z</time></trkpt><trkpt lat="39.17919210895078" lon="9.366032262845646"><ele>22.0</ele><time>2026-04-09T16:54:35Z</time></trkpt><trkpt lat="39.17935910197071" lon="9.365984409049359"><ele>22.0</ele><time>2026-04-09T16:54:36Z</time></trkpt><trkpt lat="39.17952023982694" lon="9.365916823081202"><ele>22.0</ele><time>2026-04-09T16:54:37Z</time></trkpt><trkpt lat="39.17966468316968" lon="9.36581687795252"><ele>22.0</ele><time>2026-04-09T16:54:38Z</time></trkpt><trkpt lat="39.17979168928659" lon="9.36569952938044"><ele>22.0</ele><time>2026-04-09T16:54:39Z</time></trkpt><trkpt lat="39.17989169527758" lon="9.365577606895394"><ele>22.0</ele><time>2026-04-09T16:54:40Z</time></trkpt><trkpt lat="39.179984165636746" lon="9.365475676244985"><ele>22.0</ele><time>2026-04-09T16:54:41Z</time></trkpt><trkpt lat="39.18007359757111" lon="9.365399825515201"><ele>22.0</ele><time>2026-04-09T16:54:42Z</time></trkpt><trkpt lat="39.18013423405424" lon="9.365331693435868"><ele>22.0</ele><time>2026-04-09T16:54:43Z</time></trkpt><trkpt lat="39.180166413347784" lon="9.365238579043272"><ele>21.5</ele><time>2026-04-09T16:54:44Z</time></trkpt><trkpt lat="39.18015760424105" lon="9.365126175363123"><ele>21.0</ele><time>2026-04-09T16:54:45Z</time></trkpt><trkpt lat="39.18011811099575" lon="9.364990553896313"><ele>20.5</ele><time>2026-04-09T16:54:46Z</time></trkpt><trkpt lat="39.18009722580846" lon="9.364815423319255"><ele>20.0</ele><time>2026-04-09T16:54:47Z</time></trkpt><trkpt lat="39.18013784867674" lon="9.364615223657939"><ele>19.0</ele><time>2026-04-09T16:54:48Z</time></trkpt><trkpt lat="39.18020542787054" lon="9.36440933823281"><ele>18.0</ele><time>2026-04-09T16:54:49Z</time></trkpt><trkpt lat="39.18026020050536" lon="9.364195162657756"><ele>17.0</ele><time>2026-04-09T16:54:50Z</time></trkpt><trkpt lat="39.180270606567724" lon="9.363948549055406"><ele>16.666666666666668</ele><time>2026-04-09T16:54:51Z</time></trkpt><trkpt lat="39.18023611940154" lon="9.363696736751379"><ele>16.333333333333332</ele><time>2026-04-09T16:54:52Z</time></trkpt><trkpt lat="39.18016743069026" lon="9.3634499740739"><ele>16.0</ele><time>2026-04-09T16:54:53Z</time></trkpt><trkpt lat="39.180067184536334" lon="9.363208257023185"><ele>15.333333333333332</ele><time>2026-04-09T16:54:54Z</time></trkpt><trkpt lat="39.179950368796" lon="9.362981849010934"><ele>14.666666666666668</ele><time>2026-04-09T16:54:55Z</time></trkpt><trkpt lat="39.17981313697778" lon="9.362791642139399"><ele>14.0</ele><time>2026-04-09T16:54:56Z</time></trkpt><trkpt lat="39.17968513442363" lon="9.362612667012412"><ele>14.0</ele><time>2026-04-09T16:54:57Z</time></trkpt><trkpt lat="39.179575357216244" lon="9.362449707931923"><ele>14.0</ele><time>2026-04-09T16:54:58Z</time></trkpt><trkpt lat="39.17947174564309" lon="9.362295814822732"><ele>14.0</ele><time>2026-04-09T16:54:59Z</time></trkpt><trkpt lat="39.17937724824938" lon="9.362158811779187"><ele>16.5</ele><time>2026-04-09T16:55:00Z</time></trkpt><trkpt lat="39.17930934000578" lon="9.362010347480439"><ele>19.0</ele><time>2026-04-09T16:55:01Z</time></trkpt><trkpt lat="39.179242319996405" lon="9.361878096350196"><ele>21.5</ele><time>2026-04-09T16:55:02Z</time></trkpt><trkpt lat="39.17917658010872" lon="9.361744504946902"><ele>24.0</ele><time>2026-04-09T16:55:03Z</time></trkpt><trkpt lat="39.17912940038414" lon="9.361592820653499"><ele>24.0</ele><time>2026-04-09T16:55:04Z</time></trkpt><trkpt lat="39.179069427078545" lon="9.361446362597732"><ele>24.0</ele><time>2026-04-09T16:55:05Z</time></trkpt><trkpt lat="39.17901190669742" lon="9.361296484304567"><ele>24.0</ele><time>2026-04-09T16:55:06Z</time></trkpt><trkpt lat="39.178960796548836" lon="9.36114303172581"><ele>24.0</ele><time>2026-04-09T16:55:07Z</time></trkpt><trkpt lat="39.1789185196933" lon="9.360984808583181"><ele>22.75</ele><time>2026-04-09T16:55:08Z</time></trkpt><trkpt lat="39.17888468129844" lon="9.360826947537287"><ele>21.5</ele><time>2026-04-09T16:55:09Z</time></trkpt><trkpt lat="39.17884613756752" lon="9.360669171965169"><ele>20.25</ele><time>2026-04-09T16:55:10Z</time></trkpt><trkpt lat="39.178797054282555" lon="9.36052426898125"><ele>19.0</ele><time>2026-04-09T16:55:11Z</time></trkpt><trkpt lat="39.178727183678866" lon="9.360378986914569"><ele>19.0</ele><time>2026-04-09T16:55:12Z</time></trkpt><trkpt lat="39.178646086719404" lon="9.360246879830829"><ele>19.0</ele><time>2026-04-09T16:55:13Z</time></trkpt><trkpt lat="39.17857264985878" lon="9.360110511308745"><ele>19.0</ele><time>2026-04-09T16:55:14Z</time></trkpt><trkpt lat="39.178533963739426" lon="9.359974323482971"><ele>19.0</ele><time>2026-04-09T16:55:15Z</time></trkpt><trkpt lat="39.1785106881792" lon="9.359825366259104"><ele>18.75</ele><time>2026-04-09T16:55:16Z</time></trkpt><trkpt lat="39.178502825745014" lon="9.359660081970816"><ele>18.5</ele><time>2026-04-09T16:55:17Z</time></trkpt><trkpt lat="39.17851690765816" lon="9.359484578056387"><ele>18.25</ele><time>2026-04-09T16:55:18Z</time></trkpt><trkpt lat="39.17855220610829" lon="9.359306811430093"><ele>18.0</ele><time>2026-04-09T16:55:19Z</time></trkpt><trkpt lat="39.17860912667007" lon="9.35913182876539"><ele>18.0</ele><time>2026-04-09T16:55:20Z</time></trkpt><trkpt lat="39.17865779091933" lon="9.358976350916208"><ele>18.0</ele><time>2026-04-09T16:55:21Z</time></trkpt><trkpt lat="39.17869451926901" lon="9.358824196883642"><ele>18.0</ele><time>2026-04-09T16:55:22Z</time></trkpt><trkpt lat="39.1787259271573" lon="9.358678761129505"><ele>18.0</ele><time>2026-04-09T16:55:23Z</time></trkpt><trkpt lat="39.178748880210144" lon="9.358530023719526"><ele>17.0</ele><time>2026-04-09T16:55:24Z</time></trkpt><trkpt lat="39.17875922673574" lon="9.358367680083523"><ele>16.0</ele><time>2026-04-09T16:55:25Z</time></trkpt><trkpt lat="39.17875935997623" lon="9.358198591464294"><ele>15.0</ele><time>2026-04-09T16:55:26Z</time></trkpt><trkpt lat="39.17875307695036" lon="9.358026967404651"><ele>14.0</ele><time>2026-04-09T16:55:27Z</time></trkpt><trkpt lat="39.178752435456374" lon="9.357860947599052"><ele>12.75</ele><time>2026-04-09T16:55:28Z</time></trkpt><trkpt lat="39.17877329387679" lon="9.357698883403865"><ele>11.5</ele><time>2026-04-09T16:55:29Z</time></trkpt><trkpt lat="39.17881974807943" lon="9.35753885440761"><ele>10.25</ele><time>2026-04-09T16:55:30Z</time></trkpt><trkpt lat="39.17886869037775" lon="9.357378573179137"><ele>9.0</ele><time>2026-04-09T16:55:31Z</time></trkpt><trkpt lat="39.178919811868255" lon="9.357217891195363"><ele>7.5</ele><time>2026-04-09T16:55:32Z</time></trkpt><trkpt lat="39.17897833873156" lon="9.357061300999009"><ele>6.0</ele><time>2026-04-09T16:55:33Z</time></trkpt><trkpt lat="39.17905735795862" lon="9.356918799789236"><ele>4.5</ele><time>2026-04-09T16:55:34Z</time></trkpt><trkpt lat="39.179166289922925" lon="9.356765346313393"><ele>3.0</ele><time>2026-04-09T16:55:35Z</time></trkpt><trkpt lat="39.17928265963404" lon="9.356582503561146"><ele>5.333333333333334</ele><time>2026-04-09T16:55:36Z</time></trkpt><trkpt lat="39.17940155448485" lon="9.356390183395414"><ele>7.666666666666667</ele><time>2026-04-09T16:55:37Z</time></trkpt><trkpt lat="39.17952768646688" lon="9.356185487220511"><ele>10.0</ele><time>2026-04-09T16:55:38Z</time></trkpt><trkpt lat="39.17965192359531" lon="9.3559768772946"><ele>10.0</ele><time>2026-04-09T16:55:39Z</time></trkpt><trkpt lat="39.17975868652422" lon="9.355795523039818"><ele>10.0</ele><time>2026-04-09T16:55:40Z</time></trkpt><trkpt lat="39.17984274831769" lon="9.355621651637387"><ele>10.0</ele><time>2026-04-09T16:55:41Z</time></trkpt><trkpt lat="39.17990075813311" lon="9.355466859027734"><ele>13.0</ele><time>2026-04-09T16:55:42Z</time></trkpt><trkpt lat="39.17996094769006" lon="9.35531829555876"><ele>16.0</ele><time>2026-04-09T16:55:43Z</time></trkpt><trkpt lat="39.18003635549859" lon="9.355200627190397"><ele>19.0</ele><time>2026-04-09T16:55:44Z</time></trkpt><trkpt lat="39.180132320408234" lon="9.355115974952774"><ele>22.0</ele><time>2026-04-09T16:55:45Z</time></trkpt><trkpt lat="39.1802347374343" lon="9.355060769891693"><ele>22.0</ele><time>2026-04-09T16:55:46Z</time></trkpt><trkpt lat="39.180339023416785" lon="9.355029080572166"><ele>22.0</ele><time>2026-04-09T16:55:47Z</time></trkpt><trkpt lat="39.180439095492616" lon="9.35500783753093"><ele>22.0</ele><time>2026-04-09T16:55:48Z</time></trkpt><trkpt lat="39.1805226270861" lon="9.354989085657923"><ele>22.0</ele><time>2026-04-09T16:55:49Z</time></trkpt><trkpt lat="39.18060153802171" lon="9.354954662434508"><ele>22.0</ele><time>2026-04-09T16:55:50Z</time></trkpt><trkpt lat="39.18067775498317" lon="9.354884476261784"><ele>25.0</ele><time>2026-04-09T16:55:51Z</time></trkpt><trkpt lat="39.180738947283395" lon="9.354778549718764"><ele>28.0</ele><time>2026-04-09T16:55:52Z</time></trkpt><trkpt lat="39.1807770515463" lon="9.354645651986234"><ele>31.000000000000004</ele><time>2026-04-09T16:55:53Z</time></trkpt><trkpt lat="39.18079093879352" lon="9.354504234471792"><ele>34.0</ele><time>2026-04-09T16:55:54Z</time></trkpt><trkpt lat="39.18076793616086" lon="9.354382449074553"><ele>37.0</ele><time>2026-04-09T16:55:55Z</time></trkpt><trkpt lat="39.18070910497943" lon="9.354276931334129"><ele>35.4</ele><time>2026-04-09T16:55:56Z</time></trkpt><trkpt lat="39.18063033618528" lon="9.354182408911917"><ele>33.800000000000004</ele><time>2026-04-09T16:55:57Z</time></trkpt><trkpt lat="39.180563432517424" lon="9.354081217668405"><ele>32.2</ele><time>2026-04-09T16:55:58Z</time></trkpt><trkpt lat="39.18051523407637" lon="9.353966413269893"><ele>30.6</ele><time>2026-04-09T16:55:59Z</time></trkpt><trkpt lat="39.18050789397609" lon="9.35383908391718"><ele>29.0</ele><time>2026-04-09T16:56:00Z</time></trkpt><trkpt lat="39.180540046344326" lon="9.353723523929691"><ele>29.0</ele><time>2026-04-09T16:56:01Z</time></trkpt><trkpt lat="39.1806055305452" lon="9.353623719851354"><ele>29.0</ele><time>2026-04-09T16:56:02Z</time></trkpt><trkpt lat="39.18069430828489" lon="9.353512402273955"><ele>29.0</ele><time>2026-04-09T16:56:03Z</time></trkpt><trkpt lat="39.18079113063716" lon="9.35339871740903"><ele>29.0</ele><time>2026-04-09T16:56:04Z</time></trkpt><trkpt lat="39.180895510276656" lon="9.353308358401335"><ele>31.5</ele><time>2026-04-09T16:56:05Z</time></trkpt><trkpt lat="39.181016572877105" lon="9.353261981676214"><ele>34.0</ele><time>2026-04-09T16:56:06Z</time></trkpt><trkpt lat="39.18114638612572" lon="9.353238201948791"><ele>36.5</ele><time>2026-04-09T16:56:07Z</time></trkpt><trkpt lat="39.18129679034605" lon="9.353224973935086"><ele>39.0</ele><time>2026-04-09T16:56:08Z</time></trkpt><trkpt lat="39.18143214344563" lon="9.353207006427333"><ele>42.8</ele><time>2026-04-09T16:56:09Z</time></trkpt><trkpt lat="39.181537399724775" lon="9.353188663996532"><ele>46.599999999999994</ele><time>2026-04-09T16:56:10Z</time></trkpt><trkpt lat="39.18161205241029" lon="9.353121037433004"><ele>50.4</ele><time>2026-04-09T16:56:11Z</time></trkpt><trkpt lat="39.18165669915134" lon="9.353014430119364"><ele>54.199999999999996</ele><time>2026-04-09T16:56:12Z</time></trkpt><trkpt lat="39.18166613425324" lon="9.352878317653206"><ele>58.0</ele><time>2026-04-09T16:56:13Z</time></trkpt><trkpt lat="39.181615311094454" lon="9.352761192154306"><ele>54.25</ele><time>2026-04-09T16:56:14Z</time></trkpt><trkpt lat="39.18151538696739" lon="9.3526499310146"><ele>50.5</ele><time>2026-04-09T16:56:15Z</time></trkpt><trkpt lat="39.181391027121464" lon="9.352546810829157"><ele>46.75</ele><time>2026-04-09T16:56:16Z</time></trkpt><trkpt lat="39.181282666599614" lon="9.35244107332008"><ele>43.0</ele><time>2026-04-09T16:56:17Z</time></trkpt><trkpt lat="39.1811973397907" lon="9.352351588664892"><ele>43.0</ele><time>2026-04-09T16:56:18Z</time></trkpt><trkpt lat="39.18111504139384" lon="9.352278817971085"><ele>43.0</ele><time>2026-04-09T16:56:19Z</time></trkpt><trkpt lat="39.181008764702085" lon="9.352233649446452"><ele>43.0</ele><time>2026-04-09T16:56:20Z</time></trkpt><trkpt lat="39.180890066961396" lon="9.352207301083507"><ele>43.0</ele><time>2026-04-09T16:56:21Z</time></trkpt><trkpt lat="39.18077351513739" lon="9.35218020983883"><ele>47.8</ele><time>2026-04-09T16:56:22Z</time></trkpt><trkpt lat="39.18066119262282" lon="9.352149665619846"><ele>52.599999999999994</ele><time>2026-04-09T16:56:23Z</time></trkpt><trkpt lat="39.180557382135895" lon="9.352119038975564"><ele>57.400000000000006</ele><time>2026-04-09T16:56:24Z</time></trkpt><trkpt lat="39.180458464010705" lon="9.35208682542601"><ele>62.2</ele><time>2026-04-09T16:56:25Z</time></trkpt><trkpt lat="39.18035003446948" lon="9.352055370194519"><ele>67.0</ele><time>2026-04-09T16:56:26Z</time></trkpt><trkpt lat="39.18023699776633" lon="9.352021476516798"><ele>67.0</ele><time>2026-04-09T16:56:27Z</time></trkpt><trkpt lat="39.18012313217698" lon="9.351988919325136"><ele>67.0</ele><time>2026-04-09T16:56:28Z</time></trkpt><trkpt lat="39.18000341982487" lon="9.351958825526205"><ele>67.0</ele><time>2026-04-09T16:56:29Z</time></trkpt><trkpt lat="39.17984624981759" lon="9.351908768009105"><ele>67.0</ele><time>2026-04-09T16:56:30Z</time></trkpt><trkpt lat="39.17969881488102" lon="9.351919948766831"><ele>65.33333333333333</ele><time>2026-04-09T16:56:31Z</time></trkpt><trkpt lat="39.17961506358849" lon="9.351926705855172"><ele>63.666666666666664</ele><time>2026-04-09T16:56:32Z</time></trkpt><trkpt lat="39.179550600029835" lon="9.351945074976923"><ele>62.0</ele><time>2026-04-09T16:56:33Z</time></trkpt><trkpt lat="39.179482704079966" lon="9.351950229773935"><ele>60.33333333333333</ele><time>2026-04-09T16:56:34Z</time></trkpt><trkpt lat="39.179402859985366" lon="9.351923838752999"><ele>58.666666666666664</ele><time>2026-04-09T16:56:35Z</time></trkpt><trkpt lat="39.17933599256433" lon="9.351862061828173"><ele>57.0</ele><time>2026-04-09T16:56:36Z</time></trkpt><trkpt lat="39.17928896846054" lon="9.351775385750965"><ele>57.0</ele><time>2026-04-09T16:56:37Z</time></trkpt><trkpt lat="39.17926627740652" lon="9.3516742727681"><ele>57.0</ele><time>2026-04-09T16:56:38Z</time></trkpt><trkpt lat="39.17926366255899" lon="9.351562728127123"><ele>57.0</ele><time>2026-04-09T16:56:39Z</time></trkpt><trkpt lat="39.17927929467055" lon="9.351428041700604"><ele>57.0</ele><time>2026-04-09T16:56:40Z</time></trkpt><trkpt lat="39.17930232022174" lon="9.351270301947462"><ele>57.0</ele><time>2026-04-09T16:56:41Z</time></trkpt><trkpt lat="39.179347184508885" lon="9.351085228056355"><ele>54.66666666666667</ele><time>2026-04-09T16:56:42Z</time></trkpt><trkpt lat="39.17938252042943" lon="9.350869512854018"><ele>52.333333333333336</ele><time>2026-04-09T16:56:43Z</time></trkpt><trkpt lat="39.17941497171586" lon="9.350652289652652"><ele>50.0</ele><time>2026-04-09T16:56:44Z</time></trkpt><trkpt lat="39.17947483863921" lon="9.350471780552978"><ele>53.0</ele><time>2026-04-09T16:56:45Z</time></trkpt><trkpt lat="39.17954432965324" lon="9.350333362492039"><ele>56.0</ele><time>2026-04-09T16:56:46Z</time></trkpt><trkpt lat="39.17963746034498" lon="9.350238180125073"><ele>59.0</ele><time>2026-04-09T16:56:47Z</time></trkpt><trkpt lat="39.17978568786755" lon="9.35019969417544"><ele>62.0</ele><time>2026-04-09T16:56:48Z</time></trkpt><trkpt lat="39.17995726500328" lon="9.350076451391946"><ele>62.0</ele><time>2026-04-09T16:56:49Z</time></trkpt><trkpt lat="39.18013628986418" lon="9.349930969233899"><ele>62.0</ele><time>2026-04-09T16:56:50Z</time></trkpt><trkpt lat="39.1802899219674" lon="9.349776963139668"><ele>62.0</ele><time>2026-04-09T16:56:51Z</time></trkpt><trkpt lat="39.18043790490026" lon="9.349621948919813"><ele>65.0</ele><time>2026-04-09T16:56:52Z</time></trkpt><trkpt lat="39.18058707152853" lon="9.349471302069105"><ele>68.0</ele><time>2026-04-09T16:56:53Z</time></trkpt><trkpt lat="39.18073790605724" lon="9.349313869036784"><ele>71.0</ele><time>2026-04-09T16:56:54Z</time></trkpt><trkpt lat="39.180877884051675" lon="9.349153597170693"><ele>71.0</ele><time>2026-04-09T16:56:55Z</time></trkpt><trkpt lat="39.18099344609843" lon="9.348995044588358"><ele>71.0</ele><time>2026-04-09T16:56:56Z</time></trkpt><trkpt lat="39.18108592806679" lon="9.348839798982674"><ele>71.0</ele><time>2026-04-09T16:56:57Z</time></trkpt><trkpt lat="39.18114583108961" lon="9.348663886720791"><ele>66.0</ele><time>2026-04-09T16:56:58Z</time></trkpt><trkpt lat="39.18118015931319" lon="9.348458930865927"><ele>61.0</ele><time>2026-04-09T16:56:59Z</time></trkpt><trkpt lat="39.181198811116566" lon="9.3482547075078"><ele>56.0</ele><time>2026-04-09T16:57:00Z</time></trkpt><trkpt lat="39.18124199723421" lon="9.348057858312082"><ele>50.333333333333336</ele><time>2026-04-09T16:57:01Z</time></trkpt><trkpt lat="39.1813352631181" lon="9.347887456757022"><ele>44.66666666666667</ele><time>2026-04-09T16:57:02Z</time></trkpt><trkpt lat="39.181404648283156" lon="9.347707255521193"><ele>39.0</ele><time>2026-04-09T16:57:03Z</time></trkpt><trkpt lat="39.1814893196623" lon="9.347551736553593"><ele>42.25</ele><time>2026-04-09T16:57:04Z</time></trkpt><trkpt lat="39.18156507546188" lon="9.347397184838007"><ele>45.5</ele><time>2026-04-09T16:57:05Z</time></trkpt><trkpt lat="39.1816369452529" lon="9.347251865399583"><ele>48.75</ele><time>2026-04-09T16:57:06Z</time></trkpt><trkpt lat="39.18171768986668" lon="9.34712117259818"><ele>52.0</ele><time>2026-04-09T16:57:07Z</time></trkpt><trkpt lat="39.181820247875166" lon="9.346995621856966"><ele>52.0</ele><time>2026-04-09T16:57:08Z</time></trkpt><trkpt lat="39.18196448470615" lon="9.346919391409903"><ele>52.0</ele><time>2026-04-09T16:57:09Z</time></trkpt><trkpt lat="39.18212455805324" lon="9.346824488649606"><ele>52.0</ele><time>2026-04-09T16:57:10Z</time></trkpt><trkpt lat="39.18231172108642" lon="9.346777263329383"><ele>58.666666666666664</ele><time>2026-04-09T16:57:11Z</time></trkpt><trkpt lat="39.182509955180365" lon="9.346754586642195"><ele>65.33333333333333</ele><time>2026-04-09T16:57:12Z</time></trkpt><trkpt lat="39.1827088740846" lon="9.34672605850995"><ele>72.0</ele><time>2026-04-09T16:57:13Z</time></trkpt><trkpt lat="39.182914964243885" lon="9.346643808861517"><ele>72.0</ele><time>2026-04-09T16:57:14Z</time></trkpt><trkpt lat="39.18311887311688" lon="9.34651136388114"><ele>72.0</ele><time>2026-04-09T16:57:15Z</time></trkpt><trkpt lat="39.183316320750215" lon="9.346402869106536"><ele>72.0</ele><time>2026-04-09T16:57:16Z</time></trkpt><trkpt lat="39.18349836511519" lon="9.346310975158943"><ele>61.666666666666664</ele><time>2026-04-09T16:57:17Z</time></trkpt><trkpt lat="39.183660071032854" lon="9.346233536207528"><ele>51.33333333333333</ele><time>2026-04-09T16:57:18Z</time></trkpt><trkpt lat="39.18380988603607" lon="9.346172132272203"><ele>41.0</ele><time>2026-04-09T16:57:19Z</time></trkpt><trkpt lat="39.18395259777043" lon="9.346129462407646"><ele>45.25</ele><time>2026-04-09T16:57:20Z</time></trkpt><trkpt lat="39.18409113427236" lon="9.3460981316214"><ele>49.5</ele><time>2026-04-09T16:57:21Z</time></trkpt><trkpt lat="39.18421577920155" lon="9.34605283211361"><ele>53.75</ele><time>2026-04-09T16:57:22Z</time></trkpt><trkpt lat="39.18432181523588" lon="9.345976697678637"><ele>58.0</ele><time>2026-04-09T16:57:23Z</time></trkpt><trkpt lat="39.18441155459723" lon="9.345870335832492"><ele>58.0</ele><time>2026-04-09T16:57:24Z</time></trkpt><trkpt lat="39.1845106671211" lon="9.345763771090207"><ele>58.0</ele><time>2026-04-09T16:57:25Z</time></trkpt><trkpt lat="39.18463971810987" lon="9.345695286710258"><ele>58.0</ele><time>2026-04-09T16:57:26Z</time></trkpt><trkpt lat="39.18479003300788" lon="9.345670662680318"><ele>58.0</ele><time>2026-04-09T16:57:27Z</time></trkpt><trkpt lat="39.18493586289326" lon="9.345679380311038"><ele>60.0</ele><time>2026-04-09T16:57:28Z</time></trkpt><trkpt lat="39.18506792259044" lon="9.345714261062259"><ele>62.0</ele><time>2026-04-09T16:57:29Z</time></trkpt><trkpt lat="39.18519241195308" lon="9.34575796993149"><ele>64.0</ele><time>2026-04-09T16:57:30Z</time></trkpt><trkpt lat="39.18530973503874" lon="9.345785832530074"><ele>66.0</ele><time>2026-04-09T16:57:31Z</time></trkpt><trkpt lat="39.185420032800984" lon="9.345774648547566"><ele>66.0</ele><time>2026-04-09T16:57:32Z</time></trkpt><trkpt lat="39.185530427405475" lon="9.345709510999729"><ele>66.0</ele><time>2026-04-09T16:57:33Z</time></trkpt><trkpt lat="39.18563017984746" lon="9.345581497497735"><ele>66.0</ele><time>2026-04-09T16:57:34Z</time></trkpt><trkpt lat="39.185716758874314" lon="9.345423222638644"><ele>66.0</ele><time>2026-04-09T16:57:35Z</time></trkpt><trkpt lat="39.18577866991173" lon="9.345235073997275"><ele>63.0</ele><time>2026-04-09T16:57:36Z</time></trkpt><trkpt lat="39.185829679249764" lon="9.345038914879087"><ele>60.0</ele><time>2026-04-09T16:57:37Z</time></trkpt><trkpt lat="39.18587688514841" lon="9.344843478026077"><ele>57.0</ele><time>2026-04-09T16:57:38Z</time></trkpt><trkpt lat="39.18591732348067" lon="9.344657773274207"><ele>54.0</ele><time>2026-04-09T16:57:39Z</time></trkpt><trkpt lat="39.185944475189515" lon="9.344483955596653"><ele>51.0</ele><time>2026-04-09T16:57:40Z</time></trkpt><trkpt lat="39.185964967049976" lon="9.344317896633832"><ele>48.0</ele><time>2026-04-09T16:57:41Z</time></trkpt><trkpt lat="39.185991655444376" lon="9.344159298588103"><ele>45.0</ele><time>2026-04-09T16:57:42Z</time></trkpt><trkpt lat="39.186035845040344" lon="9.34401013502269"><ele>40.666666666666664</ele><time>2026-04-09T16:57:43Z</time></trkpt><trkpt lat="39.18612039445716" lon="9.343874570564987"><ele>36.33333333333333</ele><time>2026-04-09T16:57:44Z</time></trkpt><trkpt lat="39.186241520547746" lon="9.343754428769126"><ele>32.0</ele><time>2026-04-09T16:57:45Z</time></trkpt><trkpt lat="39.186390778973696" lon="9.34365305115942"><ele>35.666666666666664</ele><time>2026-04-09T16:57:46Z</time></trkpt><trkpt lat="39.18654742376449" lon="9.343565027443475"><ele>39.333333333333336</ele><time>2026-04-09T16:57:47Z</time></trkpt><trkpt lat="39.186693381015125" lon="9.343473692734703"><ele>43.0</ele><time>2026-04-09T16:57:48Z</time></trkpt><trkpt lat="39.186827534654874" lon="9.343381330527059"><ele>43.0</ele><time>2026-04-09T16:57:49Z</time></trkpt><trkpt lat="39.186952480119125" lon="9.343290748370368"><ele>43.0</ele><time>2026-04-09T16:57:50Z</time></trkpt><trkpt lat="39.1870677374257" lon="9.34318783487759"><ele>43.0</ele><time>2026-04-09T16:57:51Z</time></trkpt><trkpt lat="39.18717336983342" lon="9.343065395930587"><ele>43.0</ele><time>2026-04-09T16:57:52Z</time></trkpt><trkpt lat="39.18727381405693" lon="9.342932603711695"><ele>40.0</ele><time>2026-04-09T16:57:53Z</time></trkpt><trkpt lat="39.18737685590545" lon="9.342810987949804"><ele>37.0</ele><time>2026-04-09T16:57:54Z</time></trkpt><trkpt lat="39.18749373011814" lon="9.342726747413234"><ele>34.0</ele><time>2026-04-09T16:57:55Z</time></trkpt><trkpt lat="39.187637188938" lon="9.342720884280855"><ele>31.0</ele><time>2026-04-09T16:57:56Z</time></trkpt><trkpt lat="39.1877923879699" lon="9.342747250627239"><ele>31.0</ele><time>2026-04-09T16:57:57Z</time></trkpt><trkpt lat="39.187973844585365" lon="9.3428006059014"><ele>31.0</ele><time>2026-04-09T16:57:58Z</time></trkpt><trkpt lat="39.18816244871279" lon="9.342843989777426"><ele>31.0</ele><time>2026-04-09T16:57:59Z</time></trkpt><trkpt lat="39.18835010006427" lon="9.34283374465901"><ele>30.333333333333336</ele><time>2026-04-09T16:58:00Z</time></trkpt><trkpt lat="39.18852784735543" lon="9.34281081022835"><ele>29.666666666666664</ele><time>2026-04-09T16:58:01Z</time></trkpt><trkpt lat="39.18869501931298" lon="9.342781400657916"><ele>29.0</ele><time>2026-04-09T16:58:02Z</time></trkpt><trkpt lat="39.18885682445324" lon="9.342761460429196"><ele>29.0</ele><time>2026-04-09T16:58:03Z</time></trkpt><trkpt lat="39.18900706005629" lon="9.342745513453247"><ele>29.0</ele><time>2026-04-09T16:58:04Z</time></trkpt><trkpt lat="39.18915104950682" lon="9.342744927451381"><ele>29.0</ele><time>2026-04-09T16:58:05Z</time></trkpt><trkpt lat="39.18929303249034" lon="9.342770254356981"><ele>29.0</ele><time>2026-04-09T16:58:06Z</time></trkpt><trkpt lat="39.189447821570944" lon="9.342833812670365"><ele>28.0</ele><time>2026-04-09T16:58:07Z</time></trkpt><trkpt lat="39.18959416215547" lon="9.3429563833489"><ele>27.0</ele><time>2026-04-09T16:58:08Z</time></trkpt><trkpt lat="39.18974139149634" lon="9.343041078147696"><ele>26.0</ele><time>2026-04-09T16:58:09Z</time></trkpt><trkpt lat="39.18987570297805" lon="9.34312138829962"><ele>26.0</ele><time>2026-04-09T16:58:10Z</time></trkpt><trkpt lat="39.19001245040048" lon="9.343168255919625"><ele>26.0</ele><time>2026-04-09T16:58:11Z</time></trkpt><trkpt lat="39.19016764679981" lon="9.34316177516758"><ele>26.0</ele><time>2026-04-09T16:58:12Z</time></trkpt><trkpt lat="39.19034746556452" lon="9.343103324208641"><ele>23.0</ele><time>2026-04-09T16:58:13Z</time></trkpt><trkpt lat="39.190550669895785" lon="9.342985455021656"><ele>20.0</ele><time>2026-04-09T16:58:14Z</time></trkpt><trkpt lat="39.1907946933915" lon="9.342895551292925"><ele>19.5</ele><time>2026-04-09T16:58:15Z</time></trkpt><trkpt lat="39.191068071666294" lon="9.342786783813525"><ele>19.0</ele><time>2026-04-09T16:58:16Z</time></trkpt><trkpt lat="39.191335769351525" lon="9.342680292703543"><ele>18.0</ele><time>2026-04-09T16:58:17Z</time></trkpt><trkpt lat="39.191574672913404" lon="9.342620087730946"><ele>17.0</ele><time>2026-04-09T16:58:18Z</time></trkpt><trkpt lat="39.19179170612904" lon="9.342512240232516"><ele>17.0</ele><time>2026-04-09T16:58:19Z</time></trkpt><trkpt lat="39.19199568593731" lon="9.34240724400753"><ele>17.0</ele><time>2026-04-09T16:58:20Z</time></trkpt><trkpt lat="39.19218548260703" lon="9.342285311643229"><ele>17.0</ele><time>2026-04-09T16:58:21Z</time></trkpt><trkpt lat="39.19235629885414" lon="9.342139362900246"><ele>15.666666666666668</ele><time>2026-04-09T16:58:22Z</time></trkpt><trkpt lat="39.192525122308304" lon="9.341975117684177"><ele>14.333333333333332</ele><time>2026-04-09T16:58:23Z</time></trkpt><trkpt lat="39.19269253810262" lon="9.34180437022164"><ele>13.0</ele><time>2026-04-09T16:58:24Z</time></trkpt><trkpt lat="39.19285356243433" lon="9.34163654918985"><ele>13.0</ele><time>2026-04-09T16:58:25Z</time></trkpt><trkpt lat="39.19298706970418" lon="9.341464733901589"><ele>13.0</ele><time>2026-04-09T16:58:26Z</time></trkpt><trkpt lat="39.193102422320436" lon="9.341269502281362"><ele>13.0</ele><time>2026-04-09T16:58:27Z</time></trkpt><trkpt lat="39.19321422724936" lon="9.341045179529203"><ele>12.666666666666666</ele><time>2026-04-09T16:58:28Z</time></trkpt><trkpt lat="39.19331411890862" lon="9.340788462141196"><ele>12.333333333333332</ele><time>2026-04-09T16:58:29Z</time></trkpt><trkpt lat="39.19340941689454" lon="9.340530398860052"><ele>12.0</ele><time>2026-04-09T16:58:30Z</time></trkpt><trkpt lat="39.19350265744208" lon="9.340266853757853"><ele>11.5</ele><time>2026-04-09T16:58:31Z</time></trkpt><trkpt lat="39.193598847911964" lon="9.34000489414725"><ele>11.0</ele><time>2026-04-09T16:58:32Z</time></trkpt><trkpt lat="39.1936988171055" lon="9.339739390947399"><ele>9.5</ele><time>2026-04-09T16:58:33Z</time></trkpt><trkpt lat="39.1938009791603" lon="9.339477045020507"><ele>8.0</ele><time>2026-04-09T16:58:34Z</time></trkpt><trkpt lat="39.19390060803761" lon="9.339216928206502"><ele>8.0</ele><time>2026-04-09T16:58:35Z</time></trkpt><trkpt lat="39.194002690884126" lon="9.338960677662161"><ele>8.0</ele><time>2026-04-09T16:58:36Z</time></trkpt><trkpt lat="39.19410173550854" lon="9.338701740218303"><ele>8.0</ele><time>2026-04-09T16:58:37Z</time></trkpt><trkpt lat="39.19419976525397" lon="9.338447022778974"><ele>7.666666666666666</ele><time>2026-04-09T16:58:38Z</time></trkpt><trkpt lat="39.194295803289954" lon="9.338194365970597"><ele>7.333333333333334</ele><time>2026-04-09T16:58:39Z</time></trkpt><trkpt lat="39.19439216249003" lon="9.33794134383234"><ele>7.0</ele><time>2026-04-09T16:58:40Z</time></trkpt><trkpt lat="39.194488079847034" lon="9.337692255787422"><ele>7.0</ele><time>2026-04-09T16:58:41Z</time></trkpt><trkpt lat="39.194583186145735" lon="9.337437332978466"><ele>7.0</ele><time>2026-04-09T16:58:42Z</time></trkpt><trkpt lat="39.19468450611923" lon="9.337182724438941"><ele>7.0</ele><time>2026-04-09T16:58:43Z</time></trkpt><trkpt lat="39.194780620313615" lon="9.336921166716454"><ele>7.666666666666667</ele><time>2026-04-09T16:58:44Z</time></trkpt><trkpt lat="39.19488178578447" lon="9.336663277806023"><ele>8.333333333333334</ele><time>2026-04-09T16:58:45Z</time></trkpt><trkpt lat="39.194981386259414" lon="9.336405661690389"><ele>9.0</ele><time>2026-04-09T16:58:46Z</time></trkpt><trkpt lat="39.19508314470104" lon="9.33614488793665"><ele>9.0</ele><time>2026-04-09T16:58:47Z</time></trkpt><trkpt lat="39.195179471192155" lon="9.335892679117476"><ele>9.0</ele><time>2026-04-09T16:58:48Z</time></trkpt><trkpt lat="39.19527297260465" lon="9.335657957350662"><ele>9.0</ele><time>2026-04-09T16:58:49Z</time></trkpt><trkpt lat="39.195365074051374" lon="9.335444287224195"><ele>9.0</ele><time>2026-04-09T16:58:50Z</time></trkpt><trkpt lat="39.19547360532023" lon="9.335248241671449"><ele>9.0</ele><time>2026-04-09T16:58:51Z</time></trkpt><trkpt lat="39.19561168504315" lon="9.33505043187027"><ele>9.0</ele><time>2026-04-09T16:58:52Z</time></trkpt><trkpt lat="39.19577259018368" lon="9.334854073991309"><ele>8.666666666666666</ele><time>2026-04-09T16:58:53Z</time></trkpt><trkpt lat="39.19593396150029" lon="9.334668113332329"><ele>8.333333333333332</ele><time>2026-04-09T16:58:54Z</time></trkpt><trkpt lat="39.19608762165804" lon="9.334479433135561"><ele>8.0</ele><time>2026-04-09T16:58:55Z</time></trkpt><trkpt lat="39.19623770107436" lon="9.334297928773672"><ele>8.0</ele><time>2026-04-09T16:58:56Z</time></trkpt><trkpt lat="39.19638646514384" lon="9.334128700348204"><ele>8.0</ele><time>2026-04-09T16:58:57Z</time></trkpt><trkpt lat="39.19653875518678" lon="9.333973774340016"><ele>8.0</ele><time>2026-04-09T16:58:58Z</time></trkpt><trkpt lat="39.19669586163266" lon="9.333828756690721"><ele>8.0</ele><time>2026-04-09T16:58:59Z</time></trkpt><trkpt lat="39.19685685616659" lon="9.333688457913247"><ele>8.0</ele><time>2026-04-09T16:59:00Z</time></trkpt><trkpt lat="39.19701711007756" lon="9.33355811427418"><ele>8.0</ele><time>2026-04-09T16:59:01Z</time></trkpt><trkpt lat="39.19718287886902" lon="9.333430856512859"><ele>9.333333333333332</ele><time>2026-04-09T16:59:02Z</time></trkpt><trkpt lat="39.19735448003791" lon="9.333313631883671"><ele>10.666666666666666</ele><time>2026-04-09T16:59:03Z</time></trkpt><trkpt lat="39.197531066354536" lon="9.333212076435661"><ele>12.0</ele><time>2026-04-09T16:59:04Z</time></trkpt><trkpt lat="39.19771461646426" lon="9.333128029631908"><ele>12.0</ele><time>2026-04-09T16:59:05Z</time></trkpt><trkpt lat="39.197903964299" lon="9.333050597773486"><ele>12.0</ele><time>2026-04-09T16:59:06Z</time></trkpt><trkpt lat="39.198096572353414" lon="9.332978076429196"><ele>12.0</ele><time>2026-04-09T16:59:07Z</time></trkpt><trkpt lat="39.19828785580134" lon="9.332910279509807"><ele>13.0</ele><time>2026-04-09T16:59:08Z</time></trkpt><trkpt lat="39.198466777405095" lon="9.332867927545884"><ele>14.0</ele><time>2026-04-09T16:59:09Z</time></trkpt><trkpt lat="39.198617578217345" lon="9.332843563896697"><ele>15.0</ele><time>2026-04-09T16:59:10Z</time></trkpt><trkpt lat="39.198745109289085" lon="9.332837462077938"><ele>15.0</ele><time>2026-04-09T16:59:11Z</time></trkpt><trkpt lat="39.19884966847861" lon="9.332870117887596"><ele>15.0</ele><time>2026-04-09T16:59:12Z</time></trkpt><trkpt lat="39.19893377801997" lon="9.332964564374008"><ele>15.0</ele><time>2026-04-09T16:59:13Z</time></trkpt><trkpt lat="39.199001005711146" lon="9.33309171048564"><ele>15.0</ele><time>2026-04-09T16:59:14Z</time></trkpt><trkpt lat="39.19902159224145" lon="9.333241677494785"><ele>15.75</ele><time>2026-04-09T16:59:15Z</time></trkpt><trkpt lat="39.19900734393733" lon="9.333385975009493"><ele>16.5</ele><time>2026-04-09T16:59:16Z</time></trkpt><trkpt lat="39.198962963996806" lon="9.333535108460422"><ele>17.25</ele><time>2026-04-09T16:59:17Z</time></trkpt><trkpt lat="39.19888020451869" lon="9.333669557967706"><ele>18.0</ele><time>2026-04-09T16:59:18Z</time></trkpt><trkpt lat="39.198773583300785" lon="9.33377524903731"><ele>18.0</ele><time>2026-04-09T16:59:19Z</time></trkpt><trkpt lat="39.198651452814396" lon="9.333814196878825"><ele>18.0</ele><time>2026-04-09T16:59:20Z</time></trkpt><trkpt lat="39.19852636665707" lon="9.333785766382215"><ele>18.0</ele><time>2026-04-09T16:59:21Z</time></trkpt><trkpt lat="39.19840823774534" lon="9.333697660304997"><ele>18.0</ele><time>2026-04-09T16:59:22Z</time></trkpt><trkpt lat="39.1983099638776" lon="9.33357518569796"><ele>18.0</ele><time>2026-04-09T16:59:23Z</time></trkpt><trkpt lat="39.19825103127204" lon="9.333405633340634"><ele>18.0</ele><time>2026-04-09T16:59:24Z</time></trkpt><trkpt lat="39.19820415462563" lon="9.33315600558719"><ele>18.0</ele><time>2026-04-09T16:59:25Z</time></trkpt><trkpt lat="39.19815299125966" lon="9.332863768997719"><ele>15.0</ele><time>2026-04-09T16:59:26Z</time></trkpt><trkpt lat="39.198104927324124" lon="9.332560477675479"><ele>12.0</ele><time>2026-04-09T16:59:27Z</time></trkpt><trkpt lat="39.19803021330454" lon="9.332305817861807"><ele>11.0</ele><time>2026-04-09T16:59:28Z</time></trkpt><trkpt lat="39.19796035844464" lon="9.332037162085008"><ele>10.0</ele><time>2026-04-09T16:59:29Z</time></trkpt><trkpt lat="39.197901506588515" lon="9.33179716792692"><ele>9.0</ele><time>2026-04-09T16:59:30Z</time></trkpt><trkpt lat="39.197863780619286" lon="9.331571856525372"><ele>9.333333333333334</ele><time>2026-04-09T16:59:31Z</time></trkpt><trkpt lat="39.197871781661966" lon="9.3313747062875"><ele>9.666666666666668</ele><time>2026-04-09T16:59:32Z</time></trkpt><trkpt lat="39.19793356041382" lon="9.331168489174447"><ele>10.0</ele><time>2026-04-09T16:59:33Z</time></trkpt><trkpt lat="39.198031934036344" lon="9.330928117688464"><ele>10.0</ele><time>2026-04-09T16:59:34Z</time></trkpt><trkpt lat="39.19814507507125" lon="9.330685554763335"><ele>10.0</ele><time>2026-04-09T16:59:35Z</time></trkpt><trkpt lat="39.19823917006227" lon="9.330443046111467"><ele>10.0</ele><time>2026-04-09T16:59:36Z</time></trkpt><trkpt lat="39.19832728877268" lon="9.330190926790456"><ele>9.666666666666668</ele><time>2026-04-09T16:59:37Z</time></trkpt><trkpt lat="39.19841867149279" lon="9.329941088529212"><ele>9.333333333333334</ele><time>2026-04-09T16:59:38Z</time></trkpt><trkpt lat="39.19850580543086" lon="9.329695179289482"><ele>9.0</ele><time>2026-04-09T16:59:39Z</time></trkpt><trkpt lat="39.198581089701776" lon="9.32945507720906"><ele>8.0</ele><time>2026-04-09T16:59:40Z</time></trkpt><trkpt lat="39.19864472459107" lon="9.32922607711745"><ele>7.0</ele><time>2026-04-09T16:59:41Z</time></trkpt><trkpt lat="39.198700127574334" lon="9.32900428181585"><ele>6.0</ele><time>2026-04-09T16:59:42Z</time></trkpt><trkpt lat="39.1987500199501" lon="9.328789258043312"><ele>5.666666666666667</ele><time>2026-04-09T16:59:43Z</time></trkpt><trkpt lat="39.19879871204614" lon="9.32858532863179"><ele>5.333333333333334</ele><time>2026-04-09T16:59:44Z</time></trkpt><trkpt lat="39.19884783152508" lon="9.328388970616214"><ele>5.0</ele><time>2026-04-09T16:59:45Z</time></trkpt><trkpt lat="39.19889364552397" lon="9.3282082598383"><ele>5.0</ele><time>2026-04-09T16:59:46Z</time></trkpt><trkpt lat="39.19893651928356" lon="9.328031641141553"><ele>5.0</ele><time>2026-04-09T16:59:47Z</time></trkpt><trkpt lat="39.19897523127651" lon="9.32787575293386"><ele>5.0</ele><time>2026-04-09T16:59:48Z</time></trkpt><trkpt lat="39.19901186402392" lon="9.327728360560295"><ele>5.0</ele><time>2026-04-09T16:59:49Z</time></trkpt><trkpt lat="39.19904575689664" lon="9.327592268194472"><ele>5.0</ele><time>2026-04-09T16:59:50Z</time></trkpt><trkpt lat="39.19907688579476" lon="9.32746765746456"><ele>5.0</ele><time>2026-04-09T16:59:51Z</time></trkpt><trkpt lat="39.19910064865144" lon="9.32735635876285"><ele>5.0</ele><time>2026-04-09T16:59:52Z</time></trkpt><trkpt lat="39.19912113121885" lon="9.327255895847392"><ele>5.0</ele><time>2026-04-09T16:59:53Z</time></trkpt><trkpt lat="39.199137907455444" lon="9.32717372424594"><ele>5.0</ele><time>2026-04-09T16:59:54Z</time></trkpt><trkpt lat="39.199168519004175" lon="9.327026577197648"><ele>5.2</ele><time>2026-04-09T16:59:56Z</time></trkpt><trkpt lat="39.199194571771244" lon="9.326922987503243"><ele>5.4</ele><time>2026-04-09T16:59:58Z</time></trkpt><trkpt lat="39.199230421504524" lon="9.32684348124449"><ele>5.6</ele><time>2026-04-09T17:00:01Z</time></trkpt><trkpt lat="39.19925003057673" lon="9.326721833019484"><ele>5.8</ele><time>2026-04-09T17:00:21Z</time></trkpt><trkpt lat="39.199285305528356" lon="9.326586600025193"><ele>6.0</ele><time>2026-04-09T17:00:22Z</time></trkpt><trkpt lat="39.19932389730522" lon="9.326444861321667"><ele>6.25</ele><time>2026-04-09T17:00:23Z</time></trkpt><trkpt lat="39.19936525795309" lon="9.326276285453877"><ele>6.5</ele><time>2026-04-09T17:00:24Z</time></trkpt><trkpt lat="39.19940669414128" lon="9.326100877922588"><ele>6.75</ele><time>2026-04-09T17:00:25Z</time></trkpt><trkpt lat="39.19945628636079" lon="9.325901407085606"><ele>7.0</ele><time>2026-04-09T17:00:26Z</time></trkpt><trkpt lat="39.199507890006046" lon="9.325691810186521"><ele>7.333333333333334</ele><time>2026-04-09T17:00:27Z</time></trkpt><trkpt lat="39.19956216143546" lon="9.3254739305989"><ele>7.666666666666666</ele><time>2026-04-09T17:00:28Z</time></trkpt><trkpt lat="39.19961796467866" lon="9.32525686124593"><ele>8.0</ele><time>2026-04-09T17:00:29Z</time></trkpt><trkpt lat="39.19967409112317" lon="9.325035314666101"><ele>8.0</ele><time>2026-04-09T17:00:30Z</time></trkpt><trkpt lat="39.19973110977468" lon="9.324811032058419"><ele>8.0</ele><time>2026-04-09T17:00:31Z</time></trkpt><trkpt lat="39.199784647456916" lon="9.324594413735758"><ele>8.0</ele><time>2026-04-09T17:00:32Z</time></trkpt><trkpt lat="39.1998293384989" lon="9.324393433404952"><ele>8.0</ele><time>2026-04-09T17:00:33Z</time></trkpt><trkpt lat="39.19987158207193" lon="9.3242084949099"><ele>8.0</ele><time>2026-04-09T17:00:34Z</time></trkpt><trkpt lat="39.199919315496835" lon="9.324047319584542"><ele>8.0</ele><time>2026-04-09T17:00:35Z</time></trkpt><trkpt lat="39.19999227551614" lon="9.323921766020979"><ele>8.0</ele><time>2026-04-09T17:00:36Z</time></trkpt><trkpt lat="39.2000858764379" lon="9.323822301430408"><ele>8.0</ele><time>2026-04-09T17:00:37Z</time></trkpt><trkpt lat="39.200207947592" lon="9.323769373853803"><ele>8.0</ele><time>2026-04-09T17:00:38Z</time></trkpt><trkpt lat="39.2003522793202" lon="9.323764047740642"><ele>8.0</ele><time>2026-04-09T17:00:39Z</time></trkpt><trkpt lat="39.20050983115045" lon="9.32379069025933"><ele>8.0</ele><time>2026-04-09T17:00:40Z</time></trkpt><trkpt lat="39.200683038529945" lon="9.323846004324128"><ele>11.0</ele><time>2026-04-09T17:00:41Z</time></trkpt><trkpt lat="39.20085176953807" lon="9.32391214852404"><ele>14.0</ele><time>2026-04-09T17:00:42Z</time></trkpt><trkpt lat="39.20101670168753" lon="9.323971583128495"><ele>17.0</ele><time>2026-04-09T17:00:43Z</time></trkpt><trkpt lat="39.20117573351326" lon="9.324013011261322"><ele>17.0</ele><time>2026-04-09T17:00:44Z</time></trkpt><trkpt lat="39.201325255964264" lon="9.324016518364537"><ele>17.0</ele><time>2026-04-09T17:00:45Z</time></trkpt><trkpt lat="39.20149064234324" lon="9.323947208482174"><ele>17.0</ele><time>2026-04-09T17:00:46Z</time></trkpt><trkpt lat="39.20165951951348" lon="9.323847162790326"><ele>12.666666666666668</ele><time>2026-04-09T17:00:47Z</time></trkpt><trkpt lat="39.201812537108395" lon="9.323741065165613"><ele>8.333333333333334</ele><time>2026-04-09T17:00:48Z</time></trkpt><trkpt lat="39.20196141899954" lon="9.323668723836882"><ele>4.0</ele><time>2026-04-09T17:00:49Z</time></trkpt><trkpt lat="39.20211881441704" lon="9.3236216440299"><ele>4.0</ele><time>2026-04-09T17:00:50Z</time></trkpt><trkpt lat="39.20229818738567" lon="9.323606760046404"><ele>4.0</ele><time>2026-04-09T17:00:51Z</time></trkpt><trkpt lat="39.20248317657171" lon="9.323607241043463"><ele>4.0</ele><time>2026-04-09T17:00:52Z</time></trkpt><trkpt lat="39.20266699633216" lon="9.323594780700512"><ele>4.666666666666666</ele><time>2026-04-09T17:00:53Z</time></trkpt><trkpt lat="39.2028510175452" lon="9.32355893663812"><ele>5.333333333333333</ele><time>2026-04-09T17:00:54Z</time></trkpt><trkpt lat="39.20303367243296" lon="9.323499283063745"><ele>6.0</ele><time>2026-04-09T17:00:55Z</time></trkpt><trkpt lat="39.203214168711995" lon="9.323431227907166"><ele>8.0</ele><time>2026-04-09T17:00:56Z</time></trkpt><trkpt lat="39.20339087957038" lon="9.323363339653422"><ele>10.0</ele><time>2026-04-09T17:00:57Z</time></trkpt><trkpt lat="39.2035553021682" lon="9.323303072666082"><ele>12.0</ele><time>2026-04-09T17:00:58Z</time></trkpt><trkpt lat="39.203708165511195" lon="9.323242735987106"><ele>12.0</ele><time>2026-04-09T17:00:59Z</time></trkpt><trkpt lat="39.20385483088687" lon="9.323186592642914"><ele>12.0</ele><time>2026-04-09T17:01:00Z</time></trkpt><trkpt lat="39.20398744742237" lon="9.323117658300111"><ele>12.0</ele><time>2026-04-09T17:01:01Z</time></trkpt><trkpt lat="39.20410543483044" lon="9.323012053461692"><ele>12.0</ele><time>2026-04-09T17:01:02Z</time></trkpt><trkpt lat="39.20420181909366" lon="9.322861399080605"><ele>11.666666666666666</ele><time>2026-04-09T17:01:03Z</time></trkpt><trkpt lat="39.2042795649219" lon="9.322649909020486"><ele>11.333333333333332</ele><time>2026-04-09T17:01:04Z</time></trkpt><trkpt lat="39.204340563225855" lon="9.32239820836374"><ele>11.0</ele><time>2026-04-09T17:01:05Z</time></trkpt><trkpt lat="39.20441815138262" lon="9.32214671303959"><ele>10.0</ele><time>2026-04-09T17:01:06Z</time></trkpt><trkpt lat="39.204504452173076" lon="9.32189221972028"><ele>9.0</ele><time>2026-04-09T17:01:07Z</time></trkpt><trkpt lat="39.204590633536476" lon="9.321644434390624"><ele>8.0</ele><time>2026-04-09T17:01:08Z</time></trkpt><trkpt lat="39.20467561600953" lon="9.321400591547585"><ele>9.0</ele><time>2026-04-09T17:01:09Z</time></trkpt><trkpt lat="39.204758874757545" lon="9.321156886149767"><ele>10.0</ele><time>2026-04-09T17:01:10Z</time></trkpt><trkpt lat="39.2048430786874" lon="9.32092125385692"><ele>11.0</ele><time>2026-04-09T17:01:11Z</time></trkpt><trkpt lat="39.20492863398877" lon="9.320689743909846"><ele>9.666666666666666</ele><time>2026-04-09T17:01:12Z</time></trkpt><trkpt lat="39.20500745383591" lon="9.320455934262172"><ele>8.333333333333334</ele><time>2026-04-09T17:01:13Z</time></trkpt><trkpt lat="39.2050858208796" lon="9.320228909464541"><ele>7.0</ele><time>2026-04-09T17:01:14Z</time></trkpt><trkpt lat="39.2051639890182" lon="9.320008174658042"><ele>7.0</ele><time>2026-04-09T17:01:15Z</time></trkpt><trkpt lat="39.20523771359019" lon="9.319791678749304"><ele>7.0</ele><time>2026-04-09T17:01:16Z</time></trkpt><trkpt lat="39.20531102074394" lon="9.319579387228424"><ele>7.0</ele><time>2026-04-09T17:01:17Z</time></trkpt><trkpt lat="39.205382820208655" lon="9.319372107605801"><ele>6.333333333333334</ele><time>2026-04-09T17:01:18Z</time></trkpt><trkpt lat="39.20545270561175" lon="9.319163216477373"><ele>5.666666666666667</ele><time>2026-04-09T17:01:19Z</time></trkpt><trkpt lat="39.205521785377314" lon="9.318973054744223"><ele>5.0</ele><time>2026-04-09T17:01:20Z</time></trkpt><trkpt lat="39.20558396161646" lon="9.318795029729086"><ele>5.25</ele><time>2026-04-09T17:01:21Z</time></trkpt><trkpt lat="39.20564474072188" lon="9.31862217058805"><ele>5.5</ele><time>2026-04-09T17:01:22Z</time></trkpt><trkpt lat="39.20570114720235" lon="9.318457097326231"><ele>5.75</ele><time>2026-04-09T17:01:23Z</time></trkpt><trkpt lat="39.20575502392763" lon="9.318301539569708"><ele>6.0</ele><time>2026-04-09T17:01:24Z</time></trkpt><trkpt lat="39.205806981861365" lon="9.31815575294491"><ele>6.0</ele><time>2026-04-09T17:01:25Z</time></trkpt><trkpt lat="39.20585197234978" lon="9.318020179628409"><ele>6.0</ele><time>2026-04-09T17:01:26Z</time></trkpt><trkpt lat="39.20589656597352" lon="9.317895157434613"><ele>6.0</ele><time>2026-04-09T17:01:27Z</time></trkpt><trkpt lat="39.20593697217772" lon="9.317779590070339"><ele>6.0</ele><time>2026-04-09T17:01:28Z</time></trkpt><trkpt lat="39.20596981674171" lon="9.317700644516115"><ele>6.0</ele><time>2026-04-09T17:01:29Z</time></trkpt><trkpt lat="39.2060385271291" lon="9.317615302294602"><ele>6.0</ele><time>2026-04-09T17:01:31Z</time></trkpt><trkpt lat="39.20611068337245" lon="9.317577197726944"><ele>6.0</ele><time>2026-04-09T17:01:33Z</time></trkpt><trkpt lat="39.20611546260995" lon="9.31748277793351"><ele>6.0</ele><time>2026-04-09T17:01:36Z</time></trkpt><trkpt lat="39.20619105600112" lon="9.317455904237848"><ele>6.0</ele><time>2026-04-09T17:01:38Z</time></trkpt><trkpt lat="39.20622448499324" lon="9.317371693607916"><ele>6.0</ele><time>2026-04-09T17:07:58Z</time></trkpt><trkpt lat="39.2062180981657" lon="9.317238950818359"><ele>6.0</ele><time>2026-04-09T17:08:00Z</time></trkpt><trkpt lat="39.206196286995315" lon="9.317140252987398"><ele>6.199999999999999</ele><time>2026-04-09T17:08:03Z</time></trkpt><trkpt lat="39.206225142594384" lon="9.316987702281303"><ele>6.3999999999999995</ele><time>2026-04-09T17:08:06Z</time></trkpt><trkpt lat="39.20625892683856" lon="9.316890972920449"><ele>6.6</ele><time>2026-04-09T17:08:07Z</time></trkpt><trkpt lat="39.206293457535914" lon="9.316792106371377"><ele>6.8</ele><time>2026-04-09T17:08:08Z</time></trkpt><trkpt lat="39.206331512543876" lon="9.316683149285556"><ele>7.0</ele><time>2026-04-09T17:08:09Z</time></trkpt><trkpt lat="39.20635449308959" lon="9.31657101421308"><ele>7.000000000000001</ele><time>2026-04-09T17:08:10Z</time></trkpt><trkpt lat="39.20639349243411" lon="9.316470317497908"><ele>7.0</ele><time>2026-04-09T17:08:11Z</time></trkpt><trkpt lat="39.20643086509857" lon="9.316371606434513"><ele>7.0</ele><time>2026-04-09T17:08:12Z</time></trkpt><trkpt lat="39.20646401098506" lon="9.31627615437667"><ele>7.0</ele><time>2026-04-09T17:08:13Z</time></trkpt><trkpt lat="39.2064974813675" lon="9.316181449631891"><ele>7.000000000000001</ele><time>2026-04-09T17:08:14Z</time></trkpt><trkpt lat="39.206532233705666" lon="9.316086407355652"><ele>7.0</ele><time>2026-04-09T17:08:15Z</time></trkpt><trkpt lat="39.20656835363887" lon="9.31598374421302"><ele>7.500000000000001</ele><time>2026-04-09T17:08:16Z</time></trkpt><trkpt lat="39.206606435353585" lon="9.31587110067315"><ele>8.0</ele><time>2026-04-09T17:08:17Z</time></trkpt><trkpt lat="39.20664650374756" lon="9.315753612925537"><ele>8.5</ele><time>2026-04-09T17:08:18Z</time></trkpt><trkpt lat="39.206683383419765" lon="9.315651294235932"><ele>9.0</ele><time>2026-04-09T17:08:19Z</time></trkpt><trkpt lat="39.20671490518191" lon="9.315555838349583"><ele>9.5</ele><time>2026-04-09T17:08:20Z</time></trkpt><trkpt lat="39.20674259654908" lon="9.315476271192473"><ele>10.0</ele><time>2026-04-09T17:08:21Z</time></trkpt><trkpt lat="39.20678303972562" lon="9.3153468303846"><ele>10.0</ele><time>2026-04-09T17:08:23Z</time></trkpt><trkpt lat="39.206814988246" lon="9.315238170386218"><ele>10.0</ele><time>2026-04-09T17:08:25Z</time></trkpt><trkpt lat="39.20685723536604" lon="9.315166456996225"><ele>10.0</ele><time>2026-04-09T17:08:27Z</time></trkpt><trkpt lat="39.206885622405046" lon="9.315084140244288"><ele>10.0</ele><time>2026-04-09T17:08:31Z</time></trkpt><trkpt lat="39.206931140978725" lon="9.314952131167324"><ele>10.0</ele><time>2026-04-09T17:09:23Z</time></trkpt><trkpt lat="39.20696274182748" lon="9.314860480409456"><ele>10.0</ele><time>2026-04-09T17:09:24Z</time></trkpt><trkpt lat="39.20701795502778" lon="9.3147003478665"><ele>9.5</ele><time>2026-04-09T17:09:25Z</time></trkpt><trkpt lat="39.20705092852107" lon="9.31456843455248"><ele>9.0</ele><time>2026-04-09T17:09:26Z</time></trkpt><trkpt lat="39.20709789003307" lon="9.314431131785495"><ele>8.5</ele><time>2026-04-09T17:09:27Z</time></trkpt><trkpt lat="39.207151257985785" lon="9.314277063474362"><ele>8.0</ele><time>2026-04-09T17:09:28Z</time></trkpt><trkpt lat="39.207213924055544" lon="9.314111359994108"><ele>8.0</ele><time>2026-04-09T17:09:29Z</time></trkpt><trkpt lat="39.207273133411334" lon="9.313936398044577"><ele>8.0</ele><time>2026-04-09T17:09:30Z</time></trkpt><trkpt lat="39.207335120401545" lon="9.31375624417097"><ele>8.0</ele><time>2026-04-09T17:09:31Z</time></trkpt><trkpt lat="39.20740333544745" lon="9.313577944704049"><ele>8.5</ele><time>2026-04-09T17:09:32Z</time></trkpt><trkpt lat="39.20747034719223" lon="9.313424250649113"><ele>9.0</ele><time>2026-04-09T17:09:33Z</time></trkpt><trkpt lat="39.207534678596964" lon="9.313282430223715"><ele>9.5</ele><time>2026-04-09T17:09:34Z</time></trkpt><trkpt lat="39.20760109124029" lon="9.313139794460737"><ele>10.0</ele><time>2026-04-09T17:09:35Z</time></trkpt><trkpt lat="39.20767114746946" lon="9.312994036254631"><ele>10.0</ele><time>2026-04-09T17:09:36Z</time></trkpt><trkpt lat="39.20774746887965" lon="9.312843515319527"><ele>10.0</ele><time>2026-04-09T17:09:37Z</time></trkpt><trkpt lat="39.207836503788485" lon="9.312692301564365"><ele>10.0</ele><time>2026-04-09T17:09:38Z</time></trkpt><trkpt lat="39.207942085422275" lon="9.312542939234405"><ele>10.0</ele><time>2026-04-09T17:09:39Z</time></trkpt><trkpt lat="39.20805903460799" lon="9.312386728289178"><ele>10.0</ele><time>2026-04-09T17:09:40Z</time></trkpt><trkpt lat="39.20819267085638" lon="9.312219965452442"><ele>10.0</ele><time>2026-04-09T17:09:41Z</time></trkpt><trkpt lat="39.20832162945899" lon="9.312068164549252"><ele>10.0</ele><time>2026-04-09T17:09:42Z</time></trkpt><trkpt lat="39.208456027259004" lon="9.311919248071792"><ele>10.0</ele><time>2026-04-09T17:09:43Z</time></trkpt><trkpt lat="39.20858686818378" lon="9.311775878298167"><ele>10.0</ele><time>2026-04-09T17:09:44Z</time></trkpt><trkpt lat="39.20872024652806" lon="9.311644272315434"><ele>10.0</ele><time>2026-04-09T17:09:45Z</time></trkpt><trkpt lat="39.20885740635715" lon="9.311509260652644"><ele>10.0</ele><time>2026-04-09T17:09:46Z</time></trkpt><trkpt lat="39.20898553743659" lon="9.311373081070435"><ele>10.0</ele><time>2026-04-09T17:09:47Z</time></trkpt><trkpt lat="39.20909912655146" lon="9.311217828184214"><ele>10.0</ele><time>2026-04-09T17:09:48Z</time></trkpt><trkpt lat="39.20919524474259" lon="9.311027175806815"><ele>10.0</ele><time>2026-04-09T17:09:49Z</time></trkpt><trkpt lat="39.20928078356895" lon="9.310804287869948"><ele>10.0</ele><time>2026-04-09T17:09:50Z</time></trkpt><trkpt lat="39.20936232463799" lon="9.310567209754721"><ele>10.0</ele><time>2026-04-09T17:09:51Z</time></trkpt><trkpt lat="39.209440251994984" lon="9.31033190857688"><ele>10.0</ele><time>2026-04-09T17:09:52Z</time></trkpt><trkpt lat="39.20952090389868" lon="9.310097205082451"><ele>10.0</ele><time>2026-04-09T17:09:53Z</time></trkpt><trkpt lat="39.20960357488098" lon="9.30986196262567"><ele>10.0</ele><time>2026-04-09T17:09:54Z</time></trkpt><trkpt lat="39.20968970840626" lon="9.309623999850656"><ele>9.666666666666668</ele><time>2026-04-09T17:09:55Z</time></trkpt><trkpt lat="39.209778849230105" lon="9.309380236902316"><ele>9.333333333333334</ele><time>2026-04-09T17:09:56Z</time></trkpt><trkpt lat="39.20987021162551" lon="9.309136087835498"><ele>9.0</ele><time>2026-04-09T17:09:57Z</time></trkpt><trkpt lat="39.2099577471663" lon="9.308892456383859"><ele>9.666666666666666</ele><time>2026-04-09T17:09:58Z</time></trkpt><trkpt lat="39.21004594340193" lon="9.308649389843392"><ele>10.333333333333332</ele><time>2026-04-09T17:09:59Z</time></trkpt><trkpt lat="39.210132785318955" lon="9.308405768348685"><ele>11.0</ele><time>2026-04-09T17:10:00Z</time></trkpt><trkpt lat="39.21021501129708" lon="9.308169490549092"><ele>11.333333333333332</ele><time>2026-04-09T17:10:01Z</time></trkpt><trkpt lat="39.210291023054644" lon="9.307947609978466"><ele>11.666666666666666</ele><time>2026-04-09T17:10:02Z</time></trkpt><trkpt lat="39.21036638548867" lon="9.307733566361442"><ele>12.0</ele><time>2026-04-09T17:10:03Z</time></trkpt><trkpt lat="39.210442789955316" lon="9.307517217822594"><ele>12.0</ele><time>2026-04-09T17:10:04Z</time></trkpt><trkpt lat="39.210527079642766" lon="9.307301996180776"><ele>12.0</ele><time>2026-04-09T17:10:05Z</time></trkpt><trkpt lat="39.21061900711811" lon="9.307100345916853"><ele>12.0</ele><time>2026-04-09T17:10:06Z</time></trkpt><trkpt lat="39.2107190150977" lon="9.30689354643196"><ele>12.0</ele><time>2026-04-09T17:10:07Z</time></trkpt><trkpt lat="39.21083014643859" lon="9.306684511426488"><ele>12.0</ele><time>2026-04-09T17:10:08Z</time></trkpt><trkpt lat="39.21095549303024" lon="9.306477383461813"><ele>12.0</ele><time>2026-04-09T17:10:09Z</time></trkpt><trkpt lat="39.21109424263793" lon="9.306278703675027"><ele>12.0</ele><time>2026-04-09T17:10:10Z</time></trkpt><trkpt lat="39.21124480585402" lon="9.306092785393318"><ele>12.0</ele><time>2026-04-09T17:10:11Z</time></trkpt><trkpt lat="39.21140058776024" lon="9.305904931547431"><ele>12.0</ele><time>2026-04-09T17:10:12Z</time></trkpt><trkpt lat="39.21155751744914" lon="9.305715281787252"><ele>12.0</ele><time>2026-04-09T17:10:13Z</time></trkpt><trkpt lat="39.21171922474123" lon="9.30551752082314"><ele>12.0</ele><time>2026-04-09T17:10:14Z</time></trkpt><trkpt lat="39.21187687651293" lon="9.305324308261712"><ele>12.0</ele><time>2026-04-09T17:10:15Z</time></trkpt><trkpt lat="39.212036254374496" lon="9.305129502742536"><ele>12.0</ele><time>2026-04-09T17:10:16Z</time></trkpt><trkpt lat="39.212199150695135" lon="9.30493009922304"><ele>12.0</ele><time>2026-04-09T17:10:17Z</time></trkpt><trkpt lat="39.21236336738175" lon="9.30473047833124"><ele>13.0</ele><time>2026-04-09T17:10:18Z</time></trkpt><trkpt lat="39.212527118353904" lon="9.304530664401225"><ele>14.0</ele><time>2026-04-09T17:10:19Z</time></trkpt><trkpt lat="39.21268416783188" lon="9.30433922696005"><ele>15.0</ele><time>2026-04-09T17:10:20Z</time></trkpt><trkpt lat="39.212836168043324" lon="9.304151934641386"><ele>15.0</ele><time>2026-04-09T17:10:21Z</time></trkpt><trkpt lat="39.21298946557577" lon="9.303966326512679"><ele>15.0</ele><time>2026-04-09T17:10:22Z</time></trkpt><trkpt lat="39.21314605632085" lon="9.303786150890678"><ele>15.0</ele><time>2026-04-09T17:10:23Z</time></trkpt><trkpt lat="39.21330773032255" lon="9.303611089629126"><ele>15.0</ele><time>2026-04-09T17:10:24Z</time></trkpt><trkpt lat="39.21347281200791" lon="9.30345315079853"><ele>15.0</ele><time>2026-04-09T17:10:25Z</time></trkpt><trkpt lat="39.21364388495254" lon="9.303329289588115"><ele>15.0</ele><time>2026-04-09T17:10:26Z</time></trkpt><trkpt lat="39.21379483239617" lon="9.303188375376369"><ele>15.0</ele><time>2026-04-09T17:10:27Z</time></trkpt><trkpt lat="39.21394537505636" lon="9.303078884377356"><ele>15.0</ele><time>2026-04-09T17:10:28Z</time></trkpt><trkpt lat="39.214080710444165" lon="9.302972620812808"><ele>15.0</ele><time>2026-04-09T17:10:29Z</time></trkpt><trkpt lat="39.21419661841324" lon="9.302883654593984"><ele>15.0</ele><time>2026-04-09T17:10:30Z</time></trkpt><trkpt lat="39.21428192084199" lon="9.302823756188216"><ele>15.0</ele><time>2026-04-09T17:10:31Z</time></trkpt><trkpt lat="39.21435565661489" lon="9.302771046576256"><ele>15.0</ele><time>2026-04-09T17:10:32Z</time></trkpt><trkpt lat="39.2144270127844" lon="9.302715858378756"><ele>15.0</ele><time>2026-04-09T17:10:33Z</time></trkpt><trkpt lat="39.21448069801882" lon="9.302672699618329"><ele>15.0</ele><time>2026-04-09T17:10:34Z</time></trkpt><trkpt lat="39.214574064756796" lon="9.302602412988136"><ele>15.0</ele><time>2026-04-09T17:10:36Z</time></trkpt><trkpt lat="39.21464650805971" lon="9.30254846530982"><ele>15.0</ele><time>2026-04-09T17:10:38Z</time></trkpt><trkpt lat="39.214706842240105" lon="9.302496711226684"><ele>15.0</ele><time>2026-04-09T17:10:40Z</time></trkpt><trkpt lat="39.21476279102806" lon="9.302459025190473"><ele>15.0</ele><time>2026-04-09T17:10:42Z</time></trkpt><trkpt lat="39.214820722015745" lon="9.302402346093208"><ele>15.0</ele><time>2026-04-09T17:10:47Z</time></trkpt><trkpt lat="39.21487470555875" lon="9.302343399744371"><ele>15.0</ele><time>2026-04-09T17:10:49Z</time></trkpt><trkpt lat="39.21492510619231" lon="9.302288085301853"><ele>15.0</ele><time>2026-04-09T17:10:52Z</time></trkpt><trkpt lat="39.214996024340415" lon="9.302226551456558"><ele>15.0</ele><time>2026-04-09T17:11:29Z</time></trkpt><trkpt lat="39.21508532417596" lon="9.302128665861733"><ele>14.5</ele><time>2026-04-09T17:11:31Z</time></trkpt><trkpt lat="39.21515844083458" lon="9.302051575509871"><ele>14.0</ele><time>2026-04-09T17:11:32Z</time></trkpt><trkpt lat="39.21524787232132" lon="9.301945599000561"><ele>13.5</ele><time>2026-04-09T17:11:33Z</time></trkpt><trkpt lat="39.21534814491657" lon="9.301822325377458"><ele>13.0</ele><time>2026-04-09T17:11:34Z</time></trkpt><trkpt lat="39.21545198275512" lon="9.301688538129415"><ele>13.0</ele><time>2026-04-09T17:11:35Z</time></trkpt><trkpt lat="39.215561364695894" lon="9.301554018985856"><ele>13.0</ele><time>2026-04-09T17:11:36Z</time></trkpt><trkpt lat="39.21567383127541" lon="9.301417655300845"><ele>13.0</ele><time>2026-04-09T17:11:37Z</time></trkpt><trkpt lat="39.21578804218868" lon="9.301276234227307"><ele>12.333333333333332</ele><time>2026-04-09T17:11:38Z</time></trkpt><trkpt lat="39.21590388082687" lon="9.301132094717394"><ele>11.666666666666666</ele><time>2026-04-09T17:11:39Z</time></trkpt><trkpt lat="39.216025149262315" lon="9.300984690758206"><ele>11.0</ele><time>2026-04-09T17:11:40Z</time></trkpt><trkpt lat="39.21614453126223" lon="9.300838173049186"><ele>11.0</ele><time>2026-04-09T17:11:41Z</time></trkpt><trkpt lat="39.21625555383942" lon="9.300699121417862"><ele>11.0</ele><time>2026-04-09T17:11:42Z</time></trkpt><trkpt lat="39.21636499312928" lon="9.30055576845243"><ele>11.0</ele><time>2026-04-09T17:11:43Z</time></trkpt><trkpt lat="39.21647821343819" lon="9.300410141738737"><ele>10.333333333333332</ele><time>2026-04-09T17:11:44Z</time></trkpt><trkpt lat="39.21659254989363" lon="9.300263052529539"><ele>9.666666666666666</ele><time>2026-04-09T17:11:45Z</time></trkpt><trkpt lat="39.21670853858318" lon="9.300116253446653"><ele>9.0</ele><time>2026-04-09T17:11:46Z</time></trkpt><trkpt lat="39.216828834579715" lon="9.299967364334762"><ele>9.0</ele><time>2026-04-09T17:11:47Z</time></trkpt><trkpt lat="39.216951446853535" lon="9.299818083394811"><ele>9.0</ele><time>2026-04-09T17:11:48Z</time></trkpt><trkpt lat="39.21707116722441" lon="9.29967586088906"><ele>9.0</ele><time>2026-04-09T17:11:49Z</time></trkpt><trkpt lat="39.2171930209986" lon="9.299543406895237"><ele>8.666666666666666</ele><time>2026-04-09T17:11:50Z</time></trkpt><trkpt lat="39.21731851448772" lon="9.299413791900324"><ele>8.333333333333332</ele><time>2026-04-09T17:11:51Z</time></trkpt><trkpt lat="39.21744443013395" lon="9.299290152308835"><ele>8.0</ele><time>2026-04-09T17:11:52Z</time></trkpt><trkpt lat="39.21757201350641" lon="9.299168197591282"><ele>7.666666666666666</ele><time>2026-04-09T17:11:53Z</time></trkpt><trkpt lat="39.21770120903033" lon="9.29904790426409"><ele>7.333333333333334</ele><time>2026-04-09T17:11:54Z</time></trkpt><trkpt lat="39.21782937737931" lon="9.298927793617775"><ele>7.0</ele><time>2026-04-09T17:11:55Z</time></trkpt><trkpt lat="39.21795452463724" lon="9.298808858758683"><ele>7.0</ele><time>2026-04-09T17:11:56Z</time></trkpt><trkpt lat="39.21807483451197" lon="9.298694972838224"><ele>7.0</ele><time>2026-04-09T17:11:57Z</time></trkpt><trkpt lat="39.21817907002488" lon="9.298579014011715"><ele>7.0</ele><time>2026-04-09T17:11:58Z</time></trkpt><trkpt lat="39.21826646327667" lon="9.298460619865752"><ele>7.0</ele><time>2026-04-09T17:11:59Z</time></trkpt><trkpt lat="39.21833460767644" lon="9.298336645532105"><ele>7.0</ele><time>2026-04-09T17:12:00Z</time></trkpt><trkpt lat="39.218390161485466" lon="9.298218545035757"><ele>6.999999999999999</ele><time>2026-04-09T17:12:01Z</time></trkpt><trkpt lat="39.21843553160434" lon="9.298105153157723"><ele>6.999999999999999</ele><time>2026-04-09T17:12:02Z</time></trkpt><trkpt lat="39.2184707871286" lon="9.297977284933788"><ele>7.0</ele><time>2026-04-09T17:12:03Z</time></trkpt><trkpt lat="39.21850118735808" lon="9.29781394370928"><ele>7.0</ele><time>2026-04-09T17:12:04Z</time></trkpt><trkpt lat="39.21852942275573" lon="9.29762130499723"><ele>6.666666666666667</ele><time>2026-04-09T17:12:05Z</time></trkpt><trkpt lat="39.218559358617924" lon="9.297407050120578"><ele>6.333333333333334</ele><time>2026-04-09T17:12:06Z</time></trkpt><trkpt lat="39.2185925754934" lon="9.297180781850399"><ele>6.0</ele><time>2026-04-09T17:12:07Z</time></trkpt><trkpt lat="39.218626124716444" lon="9.296939814304302"><ele>6.0</ele><time>2026-04-09T17:12:08Z</time></trkpt><trkpt lat="39.21866170712817" lon="9.296685876408171"><ele>6.0</ele><time>2026-04-09T17:12:09Z</time></trkpt><trkpt lat="39.218697280933924" lon="9.296437577042227"><ele>6.0</ele><time>2026-04-09T17:12:10Z</time></trkpt><trkpt lat="39.218734573930966" lon="9.296175464609382"><ele>6.333333333333334</ele><time>2026-04-09T17:12:11Z</time></trkpt><trkpt lat="39.21877333368307" lon="9.295908037302544"><ele>6.666666666666667</ele><time>2026-04-09T17:12:12Z</time></trkpt><trkpt lat="39.2188124804586" lon="9.295646489309974"><ele>7.0</ele><time>2026-04-09T17:12:13Z</time></trkpt><trkpt lat="39.21884886489074" lon="9.295389147422204"><ele>6.333333333333334</ele><time>2026-04-09T17:12:14Z</time></trkpt><trkpt lat="39.218887531214946" lon="9.2951344552728"><ele>5.666666666666667</ele><time>2026-04-09T17:12:15Z</time></trkpt><trkpt lat="39.218924924861" lon="9.294887101184177"><ele>5.0</ele><time>2026-04-09T17:12:16Z</time></trkpt><trkpt lat="39.218969691848635" lon="9.294632420082495"><ele>5.0</ele><time>2026-04-09T17:12:17Z</time></trkpt><trkpt lat="39.219023688106724" lon="9.294385770304178"><ele>5.0</ele><time>2026-04-09T17:12:18Z</time></trkpt><trkpt lat="39.219082557198305" lon="9.294149682248783"><ele>5.0</ele><time>2026-04-09T17:12:19Z</time></trkpt><trkpt lat="39.219141909161685" lon="9.29393112683696"><ele>5.5</ele><time>2026-04-09T17:12:20Z</time></trkpt><trkpt lat="39.21919257897309" lon="9.293748522158241"><ele>6.0</ele><time>2026-04-09T17:12:21Z</time></trkpt><trkpt lat="39.2192351376462" lon="9.293586453267704"><ele>6.5</ele><time>2026-04-09T17:12:22Z</time></trkpt><trkpt lat="39.2192808843908" lon="9.293406632330006"><ele>7.0</ele><time>2026-04-09T17:12:23Z</time></trkpt><trkpt lat="39.21933117167918" lon="9.293217144346588"><ele>6.333333333333334</ele><time>2026-04-09T17:12:24Z</time></trkpt><trkpt lat="39.2193801018541" lon="9.293029204746592"><ele>5.666666666666667</ele><time>2026-04-09T17:12:25Z</time></trkpt><trkpt lat="39.219431409385734" lon="9.292835404824332"><ele>5.0</ele><time>2026-04-09T17:12:26Z</time></trkpt><trkpt lat="39.21948587290211" lon="9.292630521882817"><ele>5.0</ele><time>2026-04-09T17:12:27Z</time></trkpt><trkpt lat="39.21954634778149" lon="9.292418685615395"><ele>5.0</ele><time>2026-04-09T17:12:28Z</time></trkpt><trkpt lat="39.219606484221856" lon="9.29220679024062"><ele>5.0</ele><time>2026-04-09T17:12:29Z</time></trkpt><trkpt lat="39.21965691955099" lon="9.29200047727844"><ele>4.333333333333334</ele><time>2026-04-09T17:12:30Z</time></trkpt><trkpt lat="39.219695438849065" lon="9.29179577493904"><ele>3.666666666666667</ele><time>2026-04-09T17:12:31Z</time></trkpt><trkpt lat="39.21971291044627" lon="9.29158010379066"><ele>3.0</ele><time>2026-04-09T17:12:32Z</time></trkpt><trkpt lat="39.21970452480468" lon="9.291355190983587"><ele>3.0</ele><time>2026-04-09T17:12:33Z</time></trkpt><trkpt lat="39.21967978091513" lon="9.291134553823376"><ele>3.0</ele><time>2026-04-09T17:12:34Z</time></trkpt><trkpt lat="39.21964667751333" lon="9.290903646620068"><ele>3.0</ele><time>2026-04-09T17:12:35Z</time></trkpt><trkpt lat="39.219617652769315" lon="9.290670823231233"><ele>4.0</ele><time>2026-04-09T17:12:36Z</time></trkpt><trkpt lat="39.219592109619484" lon="9.290440521405325"><ele>5.0</ele><time>2026-04-09T17:12:37Z</time></trkpt><trkpt lat="39.219567855766066" lon="9.290211683391508"><ele>6.0</ele><time>2026-04-09T17:12:38Z</time></trkpt><trkpt lat="39.21954087360915" lon="9.289992491947856"><ele>6.0</ele><time>2026-04-09T17:12:39Z</time></trkpt><trkpt lat="39.219512137630694" lon="9.289786490293924"><ele>6.0</ele><time>2026-04-09T17:12:40Z</time></trkpt><trkpt lat="39.21947620474853" lon="9.289585034645674"><ele>6.0</ele><time>2026-04-09T17:12:41Z</time></trkpt><trkpt lat="39.21942697525441" lon="9.289382305539727"><ele>6.666666666666666</ele><time>2026-04-09T17:12:42Z</time></trkpt><trkpt lat="39.21936820431562" lon="9.289169691775875"><ele>7.333333333333333</ele><time>2026-04-09T17:12:43Z</time></trkpt><trkpt lat="39.21930181886447" lon="9.288952000172397"><ele>8.0</ele><time>2026-04-09T17:12:44Z</time></trkpt><trkpt lat="39.219230752356324" lon="9.28873524067907"><ele>8.0</ele><time>2026-04-09T17:12:45Z</time></trkpt><trkpt lat="39.21916005433961" lon="9.288509321463142"><ele>8.0</ele><time>2026-04-09T17:12:46Z</time></trkpt><trkpt lat="39.21909229056244" lon="9.28827621883506"><ele>8.0</ele><time>2026-04-09T17:12:47Z</time></trkpt><trkpt lat="39.21902791615474" lon="9.288036901764384"><ele>7.333333333333333</ele><time>2026-04-09T17:12:48Z</time></trkpt><trkpt lat="39.21896128545937" lon="9.287797054532007"><ele>6.666666666666666</ele><time>2026-04-09T17:12:49Z</time></trkpt><trkpt lat="39.218891147709805" lon="9.28755381013054"><ele>6.0</ele><time>2026-04-09T17:12:50Z</time></trkpt><trkpt lat="39.218818297322" lon="9.287315555586979"><ele>6.333333333333334</ele><time>2026-04-09T17:12:51Z</time></trkpt><trkpt lat="39.21874524664326" lon="9.287082804346962"><ele>6.666666666666667</ele><time>2026-04-09T17:12:52Z</time></trkpt><trkpt lat="39.218675482598336" lon="9.2868602832892"><ele>7.0</ele><time>2026-04-09T17:12:53Z</time></trkpt><trkpt lat="39.218609872644784" lon="9.286638277385682"><ele>6.333333333333334</ele><time>2026-04-09T17:12:54Z</time></trkpt><trkpt lat="39.21854325680662" lon="9.28641140709447"><ele>5.666666666666667</ele><time>2026-04-09T17:12:55Z</time></trkpt><trkpt lat="39.218479539568364" lon="9.286196278058478"><ele>5.0</ele><time>2026-04-09T17:12:56Z</time></trkpt><trkpt lat="39.21842208711595" lon="9.285991721271817"><ele>5.0</ele><time>2026-04-09T17:12:57Z</time></trkpt><trkpt lat="39.21838794640166" lon="9.285794362224326"><ele>5.0</ele><time>2026-04-09T17:12:58Z</time></trkpt><trkpt lat="39.21837340523255" lon="9.285584615593045"><ele>5.0</ele><time>2026-04-09T17:12:59Z</time></trkpt><trkpt lat="39.21839039173499" lon="9.285360527402057"><ele>5.333333333333334</ele><time>2026-04-09T17:13:00Z</time></trkpt><trkpt lat="39.21842958552939" lon="9.285134352601414"><ele>5.666666666666667</ele><time>2026-04-09T17:13:01Z</time></trkpt><trkpt lat="39.21848998397303" lon="9.28490403901203"><ele>6.0</ele><time>2026-04-09T17:13:02Z</time></trkpt><trkpt lat="39.21856460387342" lon="9.284660749764964"><ele>6.0</ele><time>2026-04-09T17:13:03Z</time></trkpt><trkpt lat="39.21863646271887" lon="9.284403795706837"><ele>6.0</ele><time>2026-04-09T17:13:04Z</time></trkpt><trkpt lat="39.218708971423354" lon="9.284140671484957"><ele>6.0</ele><time>2026-04-09T17:13:05Z</time></trkpt><trkpt lat="39.21877855594258" lon="9.283873365925515"><ele>6.0</ele><time>2026-04-09T17:13:06Z</time></trkpt><trkpt lat="39.21884905692836" lon="9.28360125679883"><ele>6.0</ele><time>2026-04-09T17:13:07Z</time></trkpt><trkpt lat="39.21892130615609" lon="9.283331135581165"><ele>6.0</ele><time>2026-04-09T17:13:08Z</time></trkpt><trkpt lat="39.21899382523164" lon="9.283054835938819"><ele>6.5</ele><time>2026-04-09T17:13:09Z</time></trkpt><trkpt lat="39.219065530485246" lon="9.282776999692086"><ele>7.0</ele><time>2026-04-09T17:13:10Z</time></trkpt><trkpt lat="39.219135657584495" lon="9.282500107398734"><ele>7.0</ele><time>2026-04-09T17:13:11Z</time></trkpt><trkpt lat="39.219207260924705" lon="9.282219774805492"><ele>7.0</ele><time>2026-04-09T17:13:12Z</time></trkpt><trkpt lat="39.21928067927453" lon="9.281937641530916"><ele>7.0</ele><time>2026-04-09T17:13:13Z</time></trkpt><trkpt lat="39.219354380769744" lon="9.28165923757802"><ele>7.0</ele><time>2026-04-09T17:13:14Z</time></trkpt><trkpt lat="39.21942416858368" lon="9.28138484819613"><ele>7.0</ele><time>2026-04-09T17:13:15Z</time></trkpt><trkpt lat="39.21949531338974" lon="9.281112778817556"><ele>7.0</ele><time>2026-04-09T17:13:16Z</time></trkpt><trkpt lat="39.21956587141151" lon="9.280838734495754"><ele>7.0</ele><time>2026-04-09T17:13:17Z</time></trkpt><trkpt lat="39.21963041027961" lon="9.280579177027546"><ele>7.0</ele><time>2026-04-09T17:13:18Z</time></trkpt><trkpt lat="39.21968061473681" lon="9.28032989727479"><ele>7.0</ele><time>2026-04-09T17:13:19Z</time></trkpt><trkpt lat="39.219718117000106" lon="9.280082549305698"><ele>7.0</ele><time>2026-04-09T17:13:20Z</time></trkpt><trkpt lat="39.21973668100452" lon="9.279822175313836"><ele>7.0</ele><time>2026-04-09T17:13:21Z</time></trkpt><trkpt lat="39.21973716204224" lon="9.279545685904637"><ele>7.0</ele><time>2026-04-09T17:13:22Z</time></trkpt><trkpt lat="39.219721208110535" lon="9.279250550842418"><ele>7.0</ele><time>2026-04-09T17:13:23Z</time></trkpt><trkpt lat="39.219693812374935" lon="9.278942318569698"><ele>6.5</ele><time>2026-04-09T17:13:24Z</time></trkpt><trkpt lat="39.21966340693741" lon="9.278633474352542"><ele>6.0</ele><time>2026-04-09T17:13:25Z</time></trkpt><trkpt lat="39.21963459687331" lon="9.278347224417892"><ele>6.666666666666666</ele><time>2026-04-09T17:13:26Z</time></trkpt><trkpt lat="39.21960599719309" lon="9.27808364816182"><ele>7.333333333333333</ele><time>2026-04-09T17:13:27Z</time></trkpt><trkpt lat="39.21957740571319" lon="9.277836640308406"><ele>8.0</ele><time>2026-04-09T17:13:28Z</time></trkpt><trkpt lat="39.21954675010108" lon="9.277594995969729"><ele>8.0</ele><time>2026-04-09T17:13:29Z</time></trkpt><trkpt lat="39.21951443672698" lon="9.2773513915499"><ele>8.0</ele><time>2026-04-09T17:13:30Z</time></trkpt><trkpt lat="39.219481301231866" lon="9.277094111614238"><ele>8.0</ele><time>2026-04-09T17:13:31Z</time></trkpt><trkpt lat="39.219448114936746" lon="9.276816075359466"><ele>7.5</ele><time>2026-04-09T17:13:32Z</time></trkpt><trkpt lat="39.219412759492734" lon="9.276522720425353"><ele>7.0</ele><time>2026-04-09T17:13:33Z</time></trkpt><trkpt lat="39.219373136655534" lon="9.27622135205833"><ele>7.0</ele><time>2026-04-09T17:13:34Z</time></trkpt><trkpt lat="39.219332622931866" lon="9.275914610834926"><ele>7.0</ele><time>2026-04-09T17:13:35Z</time></trkpt><trkpt lat="39.21929882905281" lon="9.275609588189466"><ele>7.5</ele><time>2026-04-09T17:13:36Z</time></trkpt><trkpt lat="39.21926343418812" lon="9.275299162880598"><ele>8.0</ele><time>2026-04-09T17:13:37Z</time></trkpt><trkpt lat="39.21922924498622" lon="9.274994823229527"><ele>7.5</ele><time>2026-04-09T17:13:38Z</time></trkpt><trkpt lat="39.21920320129594" lon="9.274690077333956"><ele>7.0</ele><time>2026-04-09T17:13:39Z</time></trkpt><trkpt lat="39.2191877605802" lon="9.274387504246347"><ele>7.0</ele><time>2026-04-09T17:13:40Z</time></trkpt><trkpt lat="39.21918276049366" lon="9.27408446082469"><ele>7.0</ele><time>2026-04-09T17:13:41Z</time></trkpt><trkpt lat="39.21918965528158" lon="9.27378415358801"><ele>7.0</ele><time>2026-04-09T17:13:42Z</time></trkpt><trkpt lat="39.21920783162617" lon="9.273488725634422"><ele>7.0</ele><time>2026-04-09T17:13:43Z</time></trkpt><trkpt lat="39.21923513418724" lon="9.273211246201402"><ele>7.0</ele><time>2026-04-09T17:13:44Z</time></trkpt><trkpt lat="39.21926947840953" lon="9.272947043967402"><ele>7.333333333333334</ele><time>2026-04-09T17:13:45Z</time></trkpt><trkpt lat="39.219310098275606" lon="9.272681074353072"><ele>7.666666666666666</ele><time>2026-04-09T17:13:46Z</time></trkpt><trkpt lat="39.219353541185164" lon="9.272415337002666"><ele>8.0</ele><time>2026-04-09T17:13:47Z</time></trkpt><trkpt lat="39.21939839287973" lon="9.27215258154698"><ele>8.0</ele><time>2026-04-09T17:13:48Z</time></trkpt><trkpt lat="39.219442318590076" lon="9.271890552741269"><ele>8.0</ele><time>2026-04-09T17:13:49Z</time></trkpt><trkpt lat="39.219492862809446" lon="9.27163455387575"><ele>8.0</ele><time>2026-04-09T17:13:50Z</time></trkpt><trkpt lat="39.21955455871684" lon="9.271385432144806"><ele>8.666666666666666</ele><time>2026-04-09T17:13:51Z</time></trkpt><trkpt lat="39.21962643056187" lon="9.271145910020719"><ele>9.333333333333334</ele><time>2026-04-09T17:13:52Z</time></trkpt><trkpt lat="39.21970172643099" lon="9.270910757080582"><ele>10.0</ele><time>2026-04-09T17:13:53Z</time></trkpt><trkpt lat="39.21977807357996" lon="9.270674478948301"><ele>10.0</ele><time>2026-04-09T17:13:54Z</time></trkpt><trkpt lat="39.219850628994024" lon="9.270436034888416"><ele>10.0</ele><time>2026-04-09T17:13:55Z</time></trkpt><trkpt lat="39.21991980505891" lon="9.270201313281856"><ele>10.0</ele><time>2026-04-09T17:13:56Z</time></trkpt><trkpt lat="39.219984682582464" lon="9.269970102517822"><ele>10.0</ele><time>2026-04-09T17:13:57Z</time></trkpt><trkpt lat="39.22003833737417" lon="9.269739360559738"><ele>10.0</ele><time>2026-04-09T17:13:58Z</time></trkpt><trkpt lat="39.22008080807338" lon="9.26949936053917"><ele>10.0</ele><time>2026-04-09T17:13:59Z</time></trkpt><trkpt lat="39.22011293785593" lon="9.269248209077427"><ele>10.0</ele><time>2026-04-09T17:14:00Z</time></trkpt><trkpt lat="39.22013796045062" lon="9.268989981029868"><ele>10.0</ele><time>2026-04-09T17:14:01Z</time></trkpt><trkpt lat="39.22016109472217" lon="9.268730477633929"><ele>10.0</ele><time>2026-04-09T17:14:02Z</time></trkpt><trkpt lat="39.220187853307735" lon="9.268460361988803"><ele>9.666666666666668</ele><time>2026-04-09T17:14:03Z</time></trkpt><trkpt lat="39.22020995099075" lon="9.268191203665566"><ele>9.333333333333334</ele><time>2026-04-09T17:14:04Z</time></trkpt><trkpt lat="39.22023069791738" lon="9.267926443361796"><ele>9.0</ele><time>2026-04-09T17:14:05Z</time></trkpt><trkpt lat="39.2202545552954" lon="9.26766922244988"><ele>9.0</ele><time>2026-04-09T17:14:06Z</time></trkpt><trkpt lat="39.220277244358385" lon="9.26741925471641"><ele>9.0</ele><time>2026-04-09T17:14:07Z</time></trkpt><trkpt lat="39.220299975916525" lon="9.267173718557762"><ele>9.0</ele><time>2026-04-09T17:14:08Z</time></trkpt><trkpt lat="39.22032347689773" lon="9.26692900527591"><ele>9.333333333333334</ele><time>2026-04-09T17:14:09Z</time></trkpt><trkpt lat="39.22034523666875" lon="9.266682702539132"><ele>9.666666666666668</ele><time>2026-04-09T17:14:10Z</time></trkpt><trkpt lat="39.22036746047037" lon="9.266437095202209"><ele>10.0</ele><time>2026-04-09T17:14:11Z</time></trkpt><trkpt lat="39.22039058886324" lon="9.266196088666707"><ele>10.333333333333334</ele><time>2026-04-09T17:14:12Z</time></trkpt><trkpt lat="39.220414399976995" lon="9.265948944084904"><ele>10.666666666666666</ele><time>2026-04-09T17:14:13Z</time></trkpt><trkpt lat="39.2204403333995" lon="9.265693357062792"><ele>11.0</ele><time>2026-04-09T17:14:14Z</time></trkpt><trkpt lat="39.22046783757623" lon="9.265440770551951"><ele>11.666666666666666</ele><time>2026-04-09T17:14:15Z</time></trkpt><trkpt lat="39.22049223933308" lon="9.265176572727746"><ele>12.333333333333332</ele><time>2026-04-09T17:14:16Z</time></trkpt><trkpt lat="39.220517343470426" lon="9.264906930022793"><ele>13.0</ele><time>2026-04-09T17:14:17Z</time></trkpt><trkpt lat="39.22054302580723" lon="9.26463460653736"><ele>13.333333333333332</ele><time>2026-04-09T17:14:18Z</time></trkpt><trkpt lat="39.220569598284705" lon="9.264357277113893"><ele>13.666666666666668</ele><time>2026-04-09T17:14:19Z</time></trkpt><trkpt lat="39.22059718991873" lon="9.26408054078721"><ele>14.0</ele><time>2026-04-09T17:14:20Z</time></trkpt><trkpt lat="39.220626960953645" lon="9.263801764370958"><ele>15.0</ele><time>2026-04-09T17:14:21Z</time></trkpt><trkpt lat="39.22065580533195" lon="9.263518855907012"><ele>16.0</ele><time>2026-04-09T17:14:22Z</time></trkpt><trkpt lat="39.22068539125495" lon="9.263232536605843"><ele>17.0</ele><time>2026-04-09T17:14:23Z</time></trkpt><trkpt lat="39.22071767851733" lon="9.262947944699485"><ele>17.0</ele><time>2026-04-09T17:14:24Z</time></trkpt><trkpt lat="39.22074776914862" lon="9.262663344100268"><ele>17.0</ele><time>2026-04-09T17:14:25Z</time></trkpt><trkpt lat="39.22077474664969" lon="9.262379074778075"><ele>17.0</ele><time>2026-04-09T17:14:26Z</time></trkpt><trkpt lat="39.22079835566631" lon="9.262094667550409"><ele>16.666666666666668</ele><time>2026-04-09T17:14:27Z</time></trkpt><trkpt lat="39.220820323729896" lon="9.261809531009437"><ele>16.333333333333332</ele><time>2026-04-09T17:14:28Z</time></trkpt><trkpt lat="39.22084400557364" lon="9.26152813242835"><ele>16.0</ele><time>2026-04-09T17:14:29Z</time></trkpt><trkpt lat="39.22086366604175" lon="9.261243988944589"><ele>16.0</ele><time>2026-04-09T17:14:30Z</time></trkpt><trkpt lat="39.22088216874314" lon="9.26095493158338"><ele>16.0</ele><time>2026-04-09T17:14:31Z</time></trkpt><trkpt lat="39.220898029658386" lon="9.260664340377401"><ele>15.5</ele><time>2026-04-09T17:14:32Z</time></trkpt><trkpt lat="39.22091050024622" lon="9.260365355747163"><ele>15.0</ele><time>2026-04-09T17:14:33Z</time></trkpt><trkpt lat="39.2209212385573" lon="9.260068632681437"><ele>14.5</ele><time>2026-04-09T17:14:34Z</time></trkpt><trkpt lat="39.22093061675595" lon="9.259766144837714"><ele>14.0</ele><time>2026-04-09T17:14:35Z</time></trkpt><trkpt lat="39.22094293139744" lon="9.259465982124912"><ele>14.0</ele><time>2026-04-09T17:14:36Z</time></trkpt><trkpt lat="39.220954147798786" lon="9.259160522838146"><ele>14.0</ele><time>2026-04-09T17:14:37Z</time></trkpt><trkpt lat="39.2209661653248" lon="9.258858535724329"><ele>14.5</ele><time>2026-04-09T17:14:38Z</time></trkpt><trkpt lat="39.22097618150885" lon="9.25854880776672"><ele>15.0</ele><time>2026-04-09T17:14:39Z</time></trkpt><trkpt lat="39.220985825413486" lon="9.25823986784475"><ele>15.0</ele><time>2026-04-09T17:14:40Z</time></trkpt><trkpt lat="39.22099613002682" lon="9.257923796958108"><ele>15.0</ele><time>2026-04-09T17:14:41Z</time></trkpt><trkpt lat="39.22100681670725" lon="9.257608924055724"><ele>15.0</ele><time>2026-04-09T17:14:42Z</time></trkpt><trkpt lat="39.22101878796895" lon="9.257297143406737"><ele>15.0</ele><time>2026-04-09T17:14:43Z</time></trkpt><trkpt lat="39.22102924581965" lon="9.25698713100361"><ele>15.5</ele><time>2026-04-09T17:14:44Z</time></trkpt><trkpt lat="39.22103791419322" lon="9.256674385769548"><ele>16.0</ele><time>2026-04-09T17:14:45Z</time></trkpt><trkpt lat="39.22104527601097" lon="9.256363239825061"><ele>16.0</ele><time>2026-04-09T17:14:46Z</time></trkpt><trkpt lat="39.22105595946177" lon="9.256054709365307"><ele>16.0</ele><time>2026-04-09T17:14:47Z</time></trkpt><trkpt lat="39.221067534510816" lon="9.255742018645805"><ele>16.0</ele><time>2026-04-09T17:14:48Z</time></trkpt><trkpt lat="39.22107903729195" lon="9.255436931466779"><ele>16.0</ele><time>2026-04-09T17:14:49Z</time></trkpt><trkpt lat="39.22109151989921" lon="9.25514372803927"><ele>16.0</ele><time>2026-04-09T17:14:50Z</time></trkpt><trkpt lat="39.22110927269652" lon="9.254857161117704"><ele>16.0</ele><time>2026-04-09T17:14:51Z</time></trkpt><trkpt lat="39.221126802913126" lon="9.25456980113033"><ele>16.0</ele><time>2026-04-09T17:14:52Z</time></trkpt><trkpt lat="39.22114961115006" lon="9.254287115718185"><ele>16.333333333333332</ele><time>2026-04-09T17:14:53Z</time></trkpt><trkpt lat="39.22118225735379" lon="9.254007593593263"><ele>16.666666666666668</ele><time>2026-04-09T17:14:54Z</time></trkpt><trkpt lat="39.221226697280066" lon="9.253723808281752"><ele>17.0</ele><time>2026-04-09T17:14:55Z</time></trkpt><trkpt lat="39.221277418514354" lon="9.253439891891544"><ele>17.5</ele><time>2026-04-09T17:14:56Z</time></trkpt><trkpt lat="39.221334508241384" lon="9.253152398925623"><ele>18.0</ele><time>2026-04-09T17:14:57Z</time></trkpt><trkpt lat="39.221398867328176" lon="9.25286860882134"><ele>18.0</ele><time>2026-04-09T17:14:58Z</time></trkpt><trkpt lat="39.22146859612932" lon="9.252580858136193"><ele>18.0</ele><time>2026-04-09T17:14:59Z</time></trkpt><trkpt lat="39.22154672451048" lon="9.252295797571445"><ele>18.5</ele><time>2026-04-09T17:15:00Z</time></trkpt><trkpt lat="39.22162950309526" lon="9.252007759577646"><ele>19.0</ele><time>2026-04-09T17:15:01Z</time></trkpt><trkpt lat="39.22172078994019" lon="9.2517276526271"><ele>17.5</ele><time>2026-04-09T17:15:02Z</time></trkpt><trkpt lat="39.221822100533835" lon="9.251448710846953"><ele>16.0</ele><time>2026-04-09T17:15:03Z</time></trkpt><trkpt lat="39.221924484652" lon="9.251184515832186"><ele>16.0</ele><time>2026-04-09T17:15:04Z</time></trkpt><trkpt lat="39.222029483225064" lon="9.250923377715143"><ele>16.0</ele><time>2026-04-09T17:15:05Z</time></trkpt><trkpt lat="39.22213749834676" lon="9.250665457054376"><ele>15.0</ele><time>2026-04-09T17:15:06Z</time></trkpt><trkpt lat="39.22224697527276" lon="9.250411552395907"><ele>14.0</ele><time>2026-04-09T17:15:07Z</time></trkpt><trkpt lat="39.22235971596129" lon="9.250159876737804"><ele>15.0</ele><time>2026-04-09T17:15:08Z</time></trkpt><trkpt lat="39.22247610139264" lon="9.249913375504955"><ele>16.0</ele><time>2026-04-09T17:15:09Z</time></trkpt><trkpt lat="39.22259822930041" lon="9.24967516952804"><ele>17.0</ele><time>2026-04-09T17:15:10Z</time></trkpt><trkpt lat="39.22272360087348" lon="9.249444534190578"><ele>17.0</ele><time>2026-04-09T17:15:11Z</time></trkpt><trkpt lat="39.222849439846506" lon="9.249216502218653"><ele>17.0</ele><time>2026-04-09T17:15:12Z</time></trkpt><trkpt lat="39.22297690735469" lon="9.248992521774465"><ele>17.0</ele><time>2026-04-09T17:15:13Z</time></trkpt><trkpt lat="39.22310119506014" lon="9.248771144695304"><ele>17.333333333333336</ele><time>2026-04-09T17:15:14Z</time></trkpt><trkpt lat="39.22323004239522" lon="9.248551149588337"><ele>17.666666666666668</ele><time>2026-04-09T17:15:15Z</time></trkpt><trkpt lat="39.22335602725066" lon="9.248348448637769"><ele>18.0</ele><time>2026-04-09T17:15:16Z</time></trkpt><trkpt lat="39.22348428324744" lon="9.24817432272961"><ele>16.666666666666668</ele><time>2026-04-09T17:15:17Z</time></trkpt><trkpt lat="39.22361707383512" lon="9.248018177821356"><ele>15.333333333333334</ele><time>2026-04-09T17:15:18Z</time></trkpt><trkpt lat="39.22375037448709" lon="9.247879505626637"><ele>14.0</ele><time>2026-04-09T17:15:19Z</time></trkpt><trkpt lat="39.22388414855416" lon="9.247730651036731"><ele>13.666666666666668</ele><time>2026-04-09T17:15:20Z</time></trkpt><trkpt lat="39.22402767224058" lon="9.247557559699443"><ele>13.333333333333332</ele><time>2026-04-09T17:15:21Z</time></trkpt><trkpt lat="39.224167023830724" lon="9.247389582981622"><ele>13.0</ele><time>2026-04-09T17:15:22Z</time></trkpt><trkpt lat="39.224297015766474" lon="9.247229549091008"><ele>13.0</ele><time>2026-04-09T17:15:23Z</time></trkpt><trkpt lat="39.224408356757394" lon="9.247066919510248"><ele>13.0</ele><time>2026-04-09T17:15:24Z</time></trkpt><trkpt lat="39.224507616235115" lon="9.246895584880466"><ele>13.0</ele><time>2026-04-09T17:15:25Z</time></trkpt><trkpt lat="39.224600674625506" lon="9.246706578013034"><ele>13.0</ele><time>2026-04-09T17:15:26Z</time></trkpt><trkpt lat="39.224691487533015" lon="9.246507526874302"><ele>13.0</ele><time>2026-04-09T17:15:27Z</time></trkpt><trkpt lat="39.22478819227074" lon="9.24630224010947"><ele>13.0</ele><time>2026-04-09T17:15:28Z</time></trkpt><trkpt lat="39.22488420614624" lon="9.246097257205184"><ele>11.333333333333332</ele><time>2026-04-09T17:15:29Z</time></trkpt><trkpt lat="39.224984967768876" lon="9.245890521582204"><ele>9.666666666666666</ele><time>2026-04-09T17:15:30Z</time></trkpt><trkpt lat="39.22508227283436" lon="9.245681786283582"><ele>8.0</ele><time>2026-04-09T17:15:31Z</time></trkpt><trkpt lat="39.225181030828566" lon="9.245456733228698"><ele>7.0</ele><time>2026-04-09T17:15:32Z</time></trkpt><trkpt lat="39.2252988763443" lon="9.24522364618666"><ele>6.0</ele><time>2026-04-09T17:15:33Z</time></trkpt><trkpt lat="39.22542574384958" lon="9.244999614943975"><ele>5.0</ele><time>2026-04-09T17:15:34Z</time></trkpt><trkpt lat="39.225543094754286" lon="9.244774089991171"><ele>5.333333333333334</ele><time>2026-04-09T17:15:35Z</time></trkpt><trkpt lat="39.225654625947165" lon="9.244545707960986"><ele>5.666666666666667</ele><time>2026-04-09T17:15:36Z</time></trkpt><trkpt lat="39.225760572310016" lon="9.244318193721567"><ele>6.0</ele><time>2026-04-09T17:15:37Z</time></trkpt><trkpt lat="39.22585130742799" lon="9.244091553966683"><ele>6.0</ele><time>2026-04-09T17:15:38Z</time></trkpt><trkpt lat="39.225921593503195" lon="9.243865489271554"><ele>6.0</ele><time>2026-04-09T17:15:39Z</time></trkpt><trkpt lat="39.22597145696936" lon="9.243634362624762"><ele>6.0</ele><time>2026-04-09T17:15:40Z</time></trkpt><trkpt lat="39.226005249432355" lon="9.243382680527258"><ele>7.0</ele><time>2026-04-09T17:15:41Z</time></trkpt><trkpt lat="39.22603508582349" lon="9.243111510284688"><ele>8.0</ele><time>2026-04-09T17:15:42Z</time></trkpt><trkpt lat="39.226070282190065" lon="9.24281638475029"><ele>9.0</ele><time>2026-04-09T17:15:43Z</time></trkpt><trkpt lat="39.226107512185074" lon="9.242526765783003"><ele>8.666666666666666</ele><time>2026-04-09T17:15:44Z</time></trkpt><trkpt lat="39.226148489439375" lon="9.242262965172047"><ele>8.333333333333332</ele><time>2026-04-09T17:15:45Z</time></trkpt><trkpt lat="39.226185760042334" lon="9.242012619074615"><ele>8.0</ele><time>2026-04-09T17:15:46Z</time></trkpt><trkpt lat="39.22621830758301" lon="9.241771921737904"><ele>8.0</ele><time>2026-04-09T17:15:47Z</time></trkpt><trkpt lat="39.22624972390354" lon="9.241530367787979"><ele>8.0</ele><time>2026-04-09T17:15:48Z</time></trkpt><trkpt lat="39.2262849736234" lon="9.241274914660691"><ele>8.0</ele><time>2026-04-09T17:15:49Z</time></trkpt><trkpt lat="39.226322066069564" lon="9.241004233901094"><ele>8.0</ele><time>2026-04-09T17:15:50Z</time></trkpt><trkpt lat="39.22636014428749" lon="9.240722834154521"><ele>8.0</ele><time>2026-04-09T17:15:51Z</time></trkpt><trkpt lat="39.22639861767001" lon="9.240453144914728"><ele>8.0</ele><time>2026-04-09T17:15:52Z</time></trkpt><trkpt lat="39.226435354607695" lon="9.240196133679081"><ele>8.0</ele><time>2026-04-09T17:15:53Z</time></trkpt><trkpt lat="39.22646596504285" lon="9.239944119123772"><ele>8.0</ele><time>2026-04-09T17:15:54Z</time></trkpt><trkpt lat="39.2265019628398" lon="9.239701151922356"><ele>8.0</ele><time>2026-04-09T17:15:55Z</time></trkpt><trkpt lat="39.22653511002477" lon="9.239457638278658"><ele>8.0</ele><time>2026-04-09T17:15:56Z</time></trkpt><trkpt lat="39.226562412201844" lon="9.23921980388519"><ele>8.0</ele><time>2026-04-09T17:15:57Z</time></trkpt><trkpt lat="39.22659306742804" lon="9.23899016441093"><ele>8.0</ele><time>2026-04-09T17:15:58Z</time></trkpt><trkpt lat="39.22662294449926" lon="9.238785360585867"><ele>8.25</ele><time>2026-04-09T17:15:59Z</time></trkpt><trkpt lat="39.22664952133541" lon="9.238599326054468"><ele>8.5</ele><time>2026-04-09T17:16:00Z</time></trkpt><trkpt lat="39.226673901005" lon="9.238441905525232"><ele>8.75</ele><time>2026-04-09T17:16:01Z</time></trkpt><trkpt lat="39.2266925596972" lon="9.23831145922352"><ele>9.0</ele><time>2026-04-09T17:16:02Z</time></trkpt><trkpt lat="39.22671128095047" lon="9.238201545973125"><ele>8.666666666666666</ele><time>2026-04-09T17:16:03Z</time></trkpt><trkpt lat="39.22673537125032" lon="9.23809100442659"><ele>8.333333333333334</ele><time>2026-04-09T17:16:04Z</time></trkpt><trkpt lat="39.226765677548535" lon="9.238000057656851"><ele>8.0</ele><time>2026-04-09T17:16:05Z</time></trkpt><trkpt lat="39.22680521056405" lon="9.237927173172773"><ele>7.666666666666667</ele><time>2026-04-09T17:16:06Z</time></trkpt><trkpt lat="39.22685239888691" lon="9.237869041453967"><ele>7.333333333333334</ele><time>2026-04-09T17:16:07Z</time></trkpt><trkpt lat="39.22693866693438" lon="9.237780469522246"><ele>7.0</ele><time>2026-04-09T17:16:09Z</time></trkpt><trkpt lat="39.22692841103069" lon="9.237633139313449"><ele>7.000000000000001</ele><time>2026-04-09T17:16:11Z</time></trkpt><trkpt lat="39.22688765383414" lon="9.237559549132197"><ele>7.0</ele><time>2026-04-09T17:16:12Z</time></trkpt><trkpt lat="39.22685599400775" lon="9.237482315907416"><ele>7.0</ele><time>2026-04-09T17:16:13Z</time></trkpt><trkpt lat="39.226840331620394" lon="9.237373785139658"><ele>7.0</ele><time>2026-04-09T17:16:14Z</time></trkpt><trkpt lat="39.226836165499684" lon="9.237249206819982"><ele>7.000000000000001</ele><time>2026-04-09T17:16:15Z</time></trkpt><trkpt lat="39.22683518718588" lon="9.237098328155504"><ele>7.0</ele><time>2026-04-09T17:16:16Z</time></trkpt><trkpt lat="39.22683765061488" lon="9.23689562021206"><ele>7.0</ele><time>2026-04-09T17:16:17Z</time></trkpt><trkpt lat="39.22683924906668" lon="9.236665850625702"><ele>7.0</ele><time>2026-04-09T17:16:18Z</time></trkpt><trkpt lat="39.22683447063747" lon="9.236433036901001"><ele>7.0</ele><time>2026-04-09T17:16:19Z</time></trkpt><trkpt lat="39.226825755229235" lon="9.236184346091077"><ele>6.333333333333334</ele><time>2026-04-09T17:16:20Z</time></trkpt><trkpt lat="39.22681561978581" lon="9.235935876126335"><ele>5.666666666666667</ele><time>2026-04-09T17:16:21Z</time></trkpt><trkpt lat="39.22681081568011" lon="9.235698271650486"><ele>5.0</ele><time>2026-04-09T17:16:22Z</time></trkpt><trkpt lat="39.22681689844256" lon="9.235477493884924"><ele>4.666666666666667</ele><time>2026-04-09T17:16:23Z</time></trkpt><trkpt lat="39.22684113058872" lon="9.23525532738826"><ele>4.333333333333333</ele><time>2026-04-09T17:16:24Z</time></trkpt><trkpt lat="39.22687243961596" lon="9.235028298634898"><ele>4.0</ele><time>2026-04-09T17:16:25Z</time></trkpt><trkpt lat="39.22690403205024" lon="9.234793028579809"><ele>4.0</ele><time>2026-04-09T17:16:26Z</time></trkpt><trkpt lat="39.226930844000094" lon="9.234563974831469"><ele>4.0</ele><time>2026-04-09T17:16:27Z</time></trkpt><trkpt lat="39.22695131475326" lon="9.234352717132838"><ele>4.0</ele><time>2026-04-09T17:16:28Z</time></trkpt><trkpt lat="39.22697050525392" lon="9.234158193894578"><ele>4.0</ele><time>2026-04-09T17:16:29Z</time></trkpt><trkpt lat="39.226989928453946" lon="9.233992916488408"><ele>4.0</ele><time>2026-04-09T17:16:30Z</time></trkpt><trkpt lat="39.22700653993324" lon="9.233845564559124"><ele>4.0</ele><time>2026-04-09T17:16:31Z</time></trkpt><trkpt lat="39.22702827283276" lon="9.23371098953278"><ele>4.0</ele><time>2026-04-09T17:16:32Z</time></trkpt><trkpt lat="39.227063137817694" lon="9.233567938873113"><ele>3.0</ele><time>2026-04-09T17:16:33Z</time></trkpt><trkpt lat="39.227124546857794" lon="9.233394552567432"><ele>2.0</ele><time>2026-04-09T17:16:34Z</time></trkpt><trkpt lat="39.227201777841955" lon="9.233197992715144"><ele>1.0</ele><time>2026-04-09T17:16:35Z</time></trkpt><trkpt lat="39.22727936880178" lon="9.232995997820396"><ele>2.0</ele><time>2026-04-09T17:16:36Z</time></trkpt><trkpt lat="39.22735478945384" lon="9.232788879460612"><ele>3.0</ele><time>2026-04-09T17:16:37Z</time></trkpt><trkpt lat="39.22742818807703" lon="9.232590725097541"><ele>4.0</ele><time>2026-04-09T17:16:38Z</time></trkpt><trkpt lat="39.22748957647079" lon="9.232393148018428"><ele>4.0</ele><time>2026-04-09T17:16:39Z</time></trkpt><trkpt lat="39.227555605888476" lon="9.232157219438346"><ele>4.0</ele><time>2026-04-09T17:16:40Z</time></trkpt><trkpt lat="39.22763341756392" lon="9.23189803427953"><ele>4.0</ele><time>2026-04-09T17:16:41Z</time></trkpt><trkpt lat="39.22771178677993" lon="9.23164239050415"><ele>3.6666666666666665</ele><time>2026-04-09T17:16:42Z</time></trkpt><trkpt lat="39.22778271634414" lon="9.231393015824743"><ele>3.333333333333333</ele><time>2026-04-09T17:16:43Z</time></trkpt><trkpt lat="39.227847842452114" lon="9.231153451191716"><ele>3.0</ele><time>2026-04-09T17:16:44Z</time></trkpt><trkpt lat="39.22791521262388" lon="9.230921982641798"><ele>3.0</ele><time>2026-04-09T17:16:45Z</time></trkpt><trkpt lat="39.22798348575093" lon="9.230690842836175"><ele>3.0</ele><time>2026-04-09T17:16:46Z</time></trkpt><trkpt lat="39.22805086775321" lon="9.230464817666267"><ele>3.0</ele><time>2026-04-09T17:16:47Z</time></trkpt><trkpt lat="39.22811172116525" lon="9.230250618886554"><ele>4.0</ele><time>2026-04-09T17:16:48Z</time></trkpt><trkpt lat="39.228168922769015" lon="9.2300538432894"><ele>5.0</ele><time>2026-04-09T17:16:49Z</time></trkpt><trkpt lat="39.22821674586123" lon="9.229876002265629"><ele>6.0</ele><time>2026-04-09T17:16:50Z</time></trkpt><trkpt lat="39.22826241842236" lon="9.229697624261158"><ele>7.0</ele><time>2026-04-09T17:16:51Z</time></trkpt><trkpt lat="39.22830913985272" lon="9.229503568872964"><ele>8.0</ele><time>2026-04-09T17:16:52Z</time></trkpt><trkpt lat="39.22834795582337" lon="9.229292841210606"><ele>9.0</ele><time>2026-04-09T17:16:53Z</time></trkpt><trkpt lat="39.22838039874511" lon="9.229066678165267"><ele>9.333333333333334</ele><time>2026-04-09T17:16:54Z</time></trkpt><trkpt lat="39.22841020583657" lon="9.228843499520083"><ele>9.666666666666668</ele><time>2026-04-09T17:16:55Z</time></trkpt><trkpt lat="39.22843877369361" lon="9.22863729934273"><ele>10.0</ele><time>2026-04-09T17:16:56Z</time></trkpt><trkpt lat="39.22846893279937" lon="9.228439898258076"><ele>10.0</ele><time>2026-04-09T17:16:57Z</time></trkpt><trkpt lat="39.228499553340505" lon="9.228232220084092"><ele>10.0</ele><time>2026-04-09T17:16:58Z</time></trkpt><trkpt lat="39.228531135776535" lon="9.228021324182832"><ele>10.0</ele><time>2026-04-09T17:16:59Z</time></trkpt><trkpt lat="39.228567139035995" lon="9.227802492441073"><ele>8.333333333333334</ele><time>2026-04-09T17:17:00Z</time></trkpt><trkpt lat="39.22860766293446" lon="9.227563622194609"><ele>6.666666666666667</ele><time>2026-04-09T17:17:01Z</time></trkpt><trkpt lat="39.22866262078604" lon="9.227317220521334"><ele>5.0</ele><time>2026-04-09T17:17:02Z</time></trkpt><trkpt lat="39.22873172445747" lon="9.227075691430441"><ele>4.333333333333334</ele><time>2026-04-09T17:17:03Z</time></trkpt><trkpt lat="39.228811971674155" lon="9.22684084302336"><ele>3.666666666666667</ele><time>2026-04-09T17:17:04Z</time></trkpt><trkpt lat="39.2288885914033" lon="9.226606694096551"><ele>3.0</ele><time>2026-04-09T17:17:05Z</time></trkpt><trkpt lat="39.22896289779623" lon="9.226373112332128"><ele>4.0</ele><time>2026-04-09T17:17:06Z</time></trkpt><trkpt lat="39.229037175259826" lon="9.226137679456858"><ele>5.0</ele><time>2026-04-09T17:17:07Z</time></trkpt><trkpt lat="39.22910979753929" lon="9.225900709602401"><ele>6.0</ele><time>2026-04-09T17:17:08Z</time></trkpt><trkpt lat="39.22918429651741" lon="9.225662893136988"><ele>5.666666666666667</ele><time>2026-04-09T17:17:09Z</time></trkpt><trkpt lat="39.229258522673106" lon="9.225429148819583"><ele>5.333333333333334</ele><time>2026-04-09T17:17:10Z</time></trkpt><trkpt lat="39.229331061996746" lon="9.22519702268844"><ele>5.0</ele><time>2026-04-09T17:17:11Z</time></trkpt><trkpt lat="39.22940447007401" lon="9.224968461011171"><ele>5.333333333333334</ele><time>2026-04-09T17:17:12Z</time></trkpt><trkpt lat="39.22948225629891" lon="9.224741181268412"><ele>5.666666666666667</ele><time>2026-04-09T17:17:13Z</time></trkpt><trkpt lat="39.229565582884646" lon="9.224504829096473"><ele>6.0</ele><time>2026-04-09T17:17:14Z</time></trkpt><trkpt lat="39.22965704724111" lon="9.224272450171409"><ele>6.0</ele><time>2026-04-09T17:17:15Z</time></trkpt><trkpt lat="39.229754157637196" lon="9.22404408733504"><ele>6.0</ele><time>2026-04-09T17:17:16Z</time></trkpt><trkpt lat="39.22985616108518" lon="9.223821081126518"><ele>6.0</ele><time>2026-04-09T17:17:17Z</time></trkpt><trkpt lat="39.22995542160769" lon="9.22361642115043"><ele>5.666666666666667</ele><time>2026-04-09T17:17:18Z</time></trkpt><trkpt lat="39.23004802445343" lon="9.223419346698492"><ele>5.333333333333334</ele><time>2026-04-09T17:17:19Z</time></trkpt><trkpt lat="39.23013904125022" lon="9.22322526568751"><ele>5.0</ele><time>2026-04-09T17:17:20Z</time></trkpt><trkpt lat="39.230227971003416" lon="9.22303541498449"><ele>5.0</ele><time>2026-04-09T17:17:21Z</time></trkpt><trkpt lat="39.23030790830552" lon="9.222859892890314"><ele>5.0</ele><time>2026-04-09T17:17:22Z</time></trkpt><trkpt lat="39.230391922982854" lon="9.222680767562874"><ele>5.0</ele><time>2026-04-09T17:17:23Z</time></trkpt><trkpt lat="39.23048587559058" lon="9.222490061755009"><ele>5.0</ele><time>2026-04-09T17:17:24Z</time></trkpt><trkpt lat="39.23056931960667" lon="9.222315594664947"><ele>5.0</ele><time>2026-04-09T17:17:25Z</time></trkpt><trkpt lat="39.23064644447992" lon="9.222155933341984"><ele>5.0</ele><time>2026-04-09T17:17:26Z</time></trkpt><trkpt lat="39.230715106355454" lon="9.222012199177247"><ele>5.0</ele><time>2026-04-09T17:17:27Z</time></trkpt><trkpt lat="39.23078906841368" lon="9.221883227784945"><ele>4.75</ele><time>2026-04-09T17:17:28Z</time></trkpt><trkpt lat="39.23087726686584" lon="9.221769151333598"><ele>4.5</ele><time>2026-04-09T17:17:29Z</time></trkpt><trkpt lat="39.23096399826037" lon="9.221641654274839"><ele>4.25</ele><time>2026-04-09T17:17:30Z</time></trkpt><trkpt lat="39.23109198949862" lon="9.221544570677084"><ele>4.0</ele><time>2026-04-09T17:17:31Z</time></trkpt><trkpt lat="39.23119337884054" lon="9.221389560258423"><ele>4.0</ele><time>2026-04-09T17:17:32Z</time></trkpt><trkpt lat="39.23127570982405" lon="9.221220996081996"><ele>4.0</ele><time>2026-04-09T17:17:33Z</time></trkpt><trkpt lat="39.23131763237155" lon="9.22105665283397"><ele>4.0</ele><time>2026-04-09T17:17:34Z</time></trkpt><trkpt lat="39.23134350591158" lon="9.220914815363408"><ele>4.0</ele><time>2026-04-09T17:17:35Z</time></trkpt><trkpt lat="39.23137682167932" lon="9.220786310623396"><ele>3.75</ele><time>2026-04-09T17:17:36Z</time></trkpt><trkpt lat="39.23123677379903" lon="9.220629224617708"><ele>3.5</ele><time>2026-04-09T17:17:37Z</time></trkpt><trkpt lat="39.231159333495995" lon="9.220506975123184"><ele>3.25</ele><time>2026-04-09T17:17:38Z</time></trkpt><trkpt lat="39.231067972992726" lon="9.22040875916484"><ele>3.0</ele><time>2026-04-09T17:17:39Z</time></trkpt><trkpt lat="39.230951780952566" lon="9.220338946838192"><ele>3.0</ele><time>2026-04-09T17:17:40Z</time></trkpt><trkpt lat="39.23081122943001" lon="9.220290906672236"><ele>3.0</ele><time>2026-04-09T17:17:41Z</time></trkpt><trkpt lat="39.23064442981493" lon="9.220270807945802"><ele>3.0</ele><time>2026-04-09T17:17:42Z</time></trkpt><trkpt lat="39.23047455222829" lon="9.220281522761717"><ele>3.0</ele><time>2026-04-09T17:17:43Z</time></trkpt><trkpt lat="39.2303281524275" lon="9.220277451393784"><ele>3.0</ele><time>2026-04-09T17:17:44Z</time></trkpt><trkpt lat="39.2302016706631" lon="9.220244119030172"><ele>3.0</ele><time>2026-04-09T17:17:45Z</time></trkpt><trkpt lat="39.23009164578895" lon="9.22017375231899"><ele>3.0</ele><time>2026-04-09T17:17:46Z</time></trkpt><trkpt lat="39.2300045065821" lon="9.22006683599117"><ele>3.0</ele><time>2026-04-09T17:17:47Z</time></trkpt><trkpt lat="39.22993541577632" lon="9.21992387742814"><ele>3.0</ele><time>2026-04-09T17:17:48Z</time></trkpt><trkpt lat="39.22987406584043" lon="9.219757439992737"><ele>3.0</ele><time>2026-04-09T17:17:49Z</time></trkpt><trkpt lat="39.22981716994581" lon="9.219565056312565"><ele>3.0</ele><time>2026-04-09T17:17:50Z</time></trkpt><trkpt lat="39.229763099378" lon="9.21935746645743"><ele>3.333333333333333</ele><time>2026-04-09T17:17:51Z</time></trkpt><trkpt lat="39.22970978953738" lon="9.219154782293083"><ele>3.6666666666666665</ele><time>2026-04-09T17:17:52Z</time></trkpt><trkpt lat="39.229654386324555" lon="9.218949777679535"><ele>4.0</ele><time>2026-04-09T17:17:53Z</time></trkpt><trkpt lat="39.22959398710211" lon="9.218719454513131"><ele>3.0</ele><time>2026-04-09T17:17:54Z</time></trkpt><trkpt lat="39.229534227938196" lon="9.218465106356287"><ele>2.0</ele><time>2026-04-09T17:17:55Z</time></trkpt><trkpt lat="39.22948115139107" lon="9.218209034795306"><ele>1.0</ele><time>2026-04-09T17:17:56Z</time></trkpt><trkpt lat="39.22943350075396" lon="9.21797356520613"><ele>1.0</ele><time>2026-04-09T17:17:57Z</time></trkpt><trkpt lat="39.229382121565735" lon="9.21774142599513"><ele>1.0</ele><time>2026-04-09T17:17:58Z</time></trkpt><trkpt lat="39.22932868289167" lon="9.217509498632348"><ele>1.0</ele><time>2026-04-09T17:17:59Z</time></trkpt><trkpt lat="39.229274933323396" lon="9.217276894571995"><ele>1.6666666666666665</ele><time>2026-04-09T17:18:00Z</time></trkpt><trkpt lat="39.229222735090296" lon="9.217057537168026"><ele>2.3333333333333335</ele><time>2026-04-09T17:18:01Z</time></trkpt><trkpt lat="39.22917362599837" lon="9.21685284289187"><ele>3.0</ele><time>2026-04-09T17:18:02Z</time></trkpt><trkpt lat="39.22912512036535" lon="9.216658060539835"><ele>2.5</ele><time>2026-04-09T17:18:03Z</time></trkpt><trkpt lat="39.22908444173804" lon="9.216481727824961"><ele>2.0</ele><time>2026-04-09T17:18:04Z</time></trkpt><trkpt lat="39.22904861245711" lon="9.216326258035677"><ele>1.5</ele><time>2026-04-09T17:18:05Z</time></trkpt><trkpt lat="39.22901806843984" lon="9.216201038461094"><ele>1.0</ele><time>2026-04-09T17:18:06Z</time></trkpt><trkpt lat="39.228987766153494" lon="9.216085577585137"><ele>1.25</ele><time>2026-04-09T17:18:07Z</time></trkpt><trkpt lat="39.22896396981814" lon="9.215984839331556"><ele>1.5</ele><time>2026-04-09T17:18:08Z</time></trkpt><trkpt lat="39.22892794536931" lon="9.215854085222158"><ele>1.75</ele><time>2026-04-09T17:18:09Z</time></trkpt><trkpt lat="39.228876645066535" lon="9.21568225067451"><ele>2.0</ele><time>2026-04-09T17:18:10Z</time></trkpt><trkpt lat="39.22881704997213" lon="9.215473788296709"><ele>2.0</ele><time>2026-04-09T17:18:11Z</time></trkpt><trkpt lat="39.22877638861486" lon="9.215303871400941"><ele>2.0</ele><time>2026-04-09T17:18:12Z</time></trkpt><trkpt lat="39.22874860469389" lon="9.215184788181386"><ele>2.0</ele><time>2026-04-09T17:18:13Z</time></trkpt><trkpt lat="39.22871986773031" lon="9.215063650501737"><ele>2.0</ele><time>2026-04-09T17:18:14Z</time></trkpt><trkpt lat="39.22868672570621" lon="9.214909529742242"><ele>1.0</ele><time>2026-04-09T17:18:15Z</time></trkpt><trkpt lat="39.22865035458222" lon="9.214721509125157"><ele>0.0</ele><time>2026-04-09T17:18:16Z</time></trkpt><trkpt lat="39.22861073715026" lon="9.214512877605367"><ele>-1.0</ele><time>2026-04-09T17:18:17Z</time></trkpt><trkpt lat="39.22857214183558" lon="9.214305046488104"><ele>-1.0</ele><time>2026-04-09T17:18:18Z</time></trkpt><trkpt lat="39.22852966611015" lon="9.214093207888196"><ele>-1.0</ele><time>2026-04-09T17:18:19Z</time></trkpt><trkpt lat="39.22848157066531" lon="9.213884520591584"><ele>-1.0</ele><time>2026-04-09T17:18:20Z</time></trkpt><trkpt lat="39.22844654032646" lon="9.213684166411229"><ele>-0.75</ele><time>2026-04-09T17:18:21Z</time></trkpt><trkpt lat="39.228419225078554" lon="9.213504818360901"><ele>-0.5</ele><time>2026-04-09T17:18:22Z</time></trkpt><trkpt lat="39.228392054790056" lon="9.213330940462763"><ele>-0.25</ele><time>2026-04-09T17:18:23Z</time></trkpt><trkpt lat="39.228367776811815" lon="9.213166995268365"><ele>0.0</ele><time>2026-04-09T17:18:24Z</time></trkpt><trkpt lat="39.228344655861484" lon="9.213013650393997"><ele>0.0</ele><time>2026-04-09T17:18:25Z</time></trkpt><trkpt lat="39.22832390107668" lon="9.212874709521058"><ele>0.0</ele><time>2026-04-09T17:18:26Z</time></trkpt><trkpt lat="39.228307589556394" lon="9.212756043011627"><ele>0.0</ele><time>2026-04-09T17:18:27Z</time></trkpt><trkpt lat="39.228300850290765" lon="9.212662979947702"><ele>0.0</ele><time>2026-04-09T17:18:28Z</time></trkpt><trkpt lat="39.22828315919299" lon="9.212581462952642"><ele>0.0</ele><time>2026-04-09T17:18:29Z</time></trkpt><trkpt lat="39.22827726031636" lon="9.212444599318765"><ele>0.0</ele><time>2026-04-09T17:18:31Z</time></trkpt><trkpt lat="39.22827760856276" lon="9.212348700123751"><ele>0.0</ele><time>2026-04-09T17:18:33Z</time></trkpt><trkpt lat="39.2282813454449" lon="9.212252770099093"><ele>0.0</ele><time>2026-04-09T17:18:49Z</time></trkpt><trkpt lat="39.228296252808555" lon="9.212078162131899"><ele>0.0</ele><time>2026-04-09T17:18:51Z</time></trkpt><trkpt lat="39.22831011291921" lon="9.211948612507493"><ele>0.0</ele><time>2026-04-09T17:18:52Z</time></trkpt><trkpt lat="39.228325073994725" lon="9.211808772239756"><ele>0.0</ele><time>2026-04-09T17:18:53Z</time></trkpt><trkpt lat="39.2283430996487" lon="9.211640287565379"><ele>0.0</ele><time>2026-04-09T17:18:54Z</time></trkpt><trkpt lat="39.22836086452383" lon="9.211470346403974"><ele>0.0</ele><time>2026-04-09T17:18:55Z</time></trkpt><trkpt lat="39.22837947650493" lon="9.211276361023721"><ele>0.0</ele><time>2026-04-09T17:18:56Z</time></trkpt><trkpt lat="39.22841202837918" lon="9.21106634545186"><ele>0.0</ele><time>2026-04-09T17:18:57Z</time></trkpt><trkpt lat="39.22841384378507" lon="9.210844751833424"><ele>0.0</ele><time>2026-04-09T17:18:58Z</time></trkpt><trkpt lat="39.228408308339795" lon="9.210617902264387"><ele>0.0</ele><time>2026-04-09T17:18:59Z</time></trkpt><trkpt lat="39.228388246536944" lon="9.210387413132587"><ele>-0.3333333333333333</ele><time>2026-04-09T17:19:00Z</time></trkpt><trkpt lat="39.228354021953876" lon="9.210143163636623"><ele>-0.6666666666666666</ele><time>2026-04-09T17:19:01Z</time></trkpt><trkpt lat="39.22830136467683" lon="9.209874832597562"><ele>-1.0</ele><time>2026-04-09T17:19:02Z</time></trkpt><trkpt lat="39.22823357699215" lon="9.209589604700453"><ele>-1.5</ele><time>2026-04-09T17:19:03Z</time></trkpt><trkpt lat="39.228157060585964" lon="9.209316369789741"><ele>-2.0</ele><time>2026-04-09T17:19:04Z</time></trkpt><trkpt lat="39.228079102712194" lon="9.209037518252773"><ele>0.0</ele><time>2026-04-09T17:19:05Z</time></trkpt><trkpt lat="39.22800284877201" lon="9.208761466852208"><ele>2.0</ele><time>2026-04-09T17:19:06Z</time></trkpt><trkpt lat="39.22792452081066" lon="9.20848071710051"><ele>2.0</ele><time>2026-04-09T17:19:07Z</time></trkpt><trkpt lat="39.227846256222904" lon="9.208199077224137"><ele>2.0</ele><time>2026-04-09T17:19:08Z</time></trkpt><trkpt lat="39.22776982185321" lon="9.207920861713657"><ele>1.5</ele><time>2026-04-09T17:19:09Z</time></trkpt><trkpt lat="39.22769465290077" lon="9.20764539756947"><ele>1.0</ele><time>2026-04-09T17:19:10Z</time></trkpt><trkpt lat="39.22761527979651" lon="9.20736696796992"><ele>0.3333333333333333</ele><time>2026-04-09T17:19:11Z</time></trkpt><trkpt lat="39.22753988768372" lon="9.20708512666257"><ele>-0.3333333333333333</ele><time>2026-04-09T17:19:12Z</time></trkpt><trkpt lat="39.22746050795574" lon="9.2068235906213"><ele>-1.0</ele><time>2026-04-09T17:19:13Z</time></trkpt><trkpt lat="39.227386727726746" lon="9.20656986701818"><ele>-1.0</ele><time>2026-04-09T17:19:14Z</time></trkpt><trkpt lat="39.22731846396251" lon="9.206328829595135"><ele>-1.0</ele><time>2026-04-09T17:19:15Z</time></trkpt><trkpt lat="39.22725841803289" lon="9.20610352735076"><ele>-1.0</ele><time>2026-04-09T17:19:16Z</time></trkpt><trkpt lat="39.227204228267844" lon="9.205891788919187"><ele>0.0</ele><time>2026-04-09T17:19:17Z</time></trkpt><trkpt lat="39.22716067928087" lon="9.205686564024434"><ele>1.0</ele><time>2026-04-09T17:19:18Z</time></trkpt><trkpt lat="39.227130939904406" lon="9.205483316686552"><ele>2.0</ele><time>2026-04-09T17:19:19Z</time></trkpt><trkpt lat="39.227086377432826" lon="9.205274617321072"><ele>2.0</ele><time>2026-04-09T17:19:20Z</time></trkpt><trkpt lat="39.22698986773398" lon="9.205076850872656"><ele>2.0</ele><time>2026-04-09T17:19:21Z</time></trkpt><trkpt lat="39.226915146186194" lon="9.204853665624025"><ele>2.0</ele><time>2026-04-09T17:19:22Z</time></trkpt><trkpt lat="39.22683135294097" lon="9.204630760089277"><ele>1.6666666666666665</ele><time>2026-04-09T17:19:23Z</time></trkpt><trkpt lat="39.226762282524426" lon="9.204400665005062"><ele>1.3333333333333333</ele><time>2026-04-09T17:19:24Z</time></trkpt><trkpt lat="39.22669268222574" lon="9.204169768833335"><ele>1.0</ele><time>2026-04-09T17:19:25Z</time></trkpt><trkpt lat="39.22662236650338" lon="9.20394808439846"><ele>1.3333333333333333</ele><time>2026-04-09T17:19:26Z</time></trkpt><trkpt lat="39.226552082877205" lon="9.203727044844635"><ele>1.6666666666666665</ele><time>2026-04-09T17:19:27Z</time></trkpt><trkpt lat="39.2264809759531" lon="9.20350622399088"><ele>2.0</ele><time>2026-04-09T17:19:28Z</time></trkpt><trkpt lat="39.22641084636873" lon="9.20328921613049"><ele>2.0</ele><time>2026-04-09T17:19:29Z</time></trkpt><trkpt lat="39.22634345042957" lon="9.203078735158803"><ele>2.0</ele><time>2026-04-09T17:19:30Z</time></trkpt><trkpt lat="39.226278230007004" lon="9.202872529583901"><ele>2.0</ele><time>2026-04-09T17:19:31Z</time></trkpt><trkpt lat="39.22620062044216" lon="9.202693041341119"><ele>2.0</ele><time>2026-04-09T17:19:32Z</time></trkpt><trkpt lat="39.22615606320963" lon="9.20250783105717"><ele>2.0</ele><time>2026-04-09T17:19:33Z</time></trkpt><trkpt lat="39.22609806933458" lon="9.202339137339832"><ele>2.0</ele><time>2026-04-09T17:19:34Z</time></trkpt><trkpt lat="39.22603740859107" lon="9.202164051091726"><ele>2.0</ele><time>2026-04-09T17:19:35Z</time></trkpt><trkpt lat="39.22597962213854" lon="9.201983582968923"><ele>2.0</ele><time>2026-04-09T17:19:36Z</time></trkpt><trkpt lat="39.22591608491449" lon="9.201796642832887"><ele>2.0</ele><time>2026-04-09T17:19:37Z</time></trkpt><trkpt lat="39.22585416791874" lon="9.201607316949652"><ele>2.0</ele><time>2026-04-09T17:19:38Z</time></trkpt><trkpt lat="39.225791185223585" lon="9.20141506525863"><ele>2.333333333333333</ele><time>2026-04-09T17:19:39Z</time></trkpt><trkpt lat="39.22572427496458" lon="9.20121717497132"><ele>2.6666666666666665</ele><time>2026-04-09T17:19:40Z</time></trkpt><trkpt lat="39.22565399425735" lon="9.201012871250535"><ele>3.0</ele><time>2026-04-09T17:19:41Z</time></trkpt><trkpt lat="39.22558172583609" lon="9.200810367070153"><ele>3.0</ele><time>2026-04-09T17:19:42Z</time></trkpt><trkpt lat="39.225512697860474" lon="9.200607501744441"><ele>3.0</ele><time>2026-04-09T17:19:43Z</time></trkpt><trkpt lat="39.22544430048123" lon="9.200398640459872"><ele>3.0</ele><time>2026-04-09T17:19:44Z</time></trkpt><trkpt lat="39.22537358425826" lon="9.200187451650672"><ele>3.0</ele><time>2026-04-09T17:19:45Z</time></trkpt><trkpt lat="39.22530218558644" lon="9.19997635783727"><ele>3.0</ele><time>2026-04-09T17:19:46Z</time></trkpt><trkpt lat="39.225227379055426" lon="9.199760261063616"><ele>3.0</ele><time>2026-04-09T17:19:47Z</time></trkpt><trkpt lat="39.22515453257204" lon="9.199545248687171"><ele>3.0</ele><time>2026-04-09T17:19:48Z</time></trkpt><trkpt lat="39.22508307133543" lon="9.199325147595816"><ele>3.0</ele><time>2026-04-09T17:19:49Z</time></trkpt><trkpt lat="39.22501029043437" lon="9.19910343823127"><ele>3.0</ele><time>2026-04-09T17:19:50Z</time></trkpt><trkpt lat="39.224935298553866" lon="9.198879532617946"><ele>2.3333333333333335</ele><time>2026-04-09T17:19:51Z</time></trkpt><trkpt lat="39.22486099098305" lon="9.198658297571972"><ele>1.6666666666666665</ele><time>2026-04-09T17:19:52Z</time></trkpt><trkpt lat="39.22478593459542" lon="9.198435310374945"><ele>1.0</ele><time>2026-04-09T17:19:53Z</time></trkpt><trkpt lat="39.22471131563141" lon="9.198211688288929"><ele>1.0</ele><time>2026-04-09T17:19:54Z</time></trkpt><trkpt lat="39.22463460919897" lon="9.197984186241532"><ele>1.0</ele><time>2026-04-09T17:19:55Z</time></trkpt><trkpt lat="39.22455963880869" lon="9.197756570578532"><ele>1.0</ele><time>2026-04-09T17:19:56Z</time></trkpt><trkpt lat="39.22448379569639" lon="9.197526565947413"><ele>1.3333333333333333</ele><time>2026-04-09T17:19:57Z</time></trkpt><trkpt lat="39.22440745228897" lon="9.197299511525713"><ele>1.6666666666666665</ele><time>2026-04-09T17:19:58Z</time></trkpt><trkpt lat="39.22433190014827" lon="9.197076360594492"><ele>2.0</ele><time>2026-04-09T17:19:59Z</time></trkpt><trkpt lat="39.22426514521753" lon="9.196869820437684"><ele>2.0</ele><time>2026-04-09T17:20:00Z</time></trkpt><trkpt lat="39.22419574838483" lon="9.196672128769366"><ele>2.0</ele><time>2026-04-09T17:20:01Z</time></trkpt><trkpt lat="39.22413435647533" lon="9.196489452920279"><ele>2.0</ele><time>2026-04-09T17:20:02Z</time></trkpt><trkpt lat="39.224075835119095" lon="9.196317173285193"><ele>2.0</ele><time>2026-04-09T17:20:03Z</time></trkpt><trkpt lat="39.224019759843245" lon="9.196155189778942"><ele>2.0</ele><time>2026-04-09T17:20:04Z</time></trkpt><trkpt lat="39.223973946292965" lon="9.196021585941635"><ele>2.0</ele><time>2026-04-09T17:20:05Z</time></trkpt><trkpt lat="39.22394038371375" lon="9.195923173233831"><ele>2.0</ele><time>2026-04-09T17:20:06Z</time></trkpt><trkpt lat="39.22393035520994" lon="9.195828751155831"><ele>2.0</ele><time>2026-04-09T17:20:08Z</time></trkpt><trkpt lat="39.22395879245232" lon="9.195685451785659"><ele>1.8333333333333333</ele><time>2026-04-09T17:20:12Z</time></trkpt><trkpt lat="39.22397062931159" lon="9.19558306223093"><ele>1.6666666666666665</ele><time>2026-04-09T17:20:13Z</time></trkpt><trkpt lat="39.223966049022174" lon="9.195477020017934"><ele>1.5</ele><time>2026-04-09T17:20:14Z</time></trkpt><trkpt lat="39.22394498101026" lon="9.195368347659828"><ele>1.3333333333333333</ele><time>2026-04-09T17:20:15Z</time></trkpt><trkpt lat="39.22389968865012" lon="9.195270114002753"><ele>1.1666666666666665</ele><time>2026-04-09T17:20:16Z</time></trkpt><trkpt lat="39.22383517048374" lon="9.195183889888462"><ele>1.0</ele><time>2026-04-09T17:20:17Z</time></trkpt><trkpt lat="39.2237714976445" lon="9.195104700938828"><ele>1.0</ele><time>2026-04-09T17:20:18Z</time></trkpt><trkpt lat="39.223686200641005" lon="9.19503993965873"><ele>1.0</ele><time>2026-04-09T17:20:19Z</time></trkpt><trkpt lat="39.223612634877384" lon="9.194914643638496"><ele>1.0</ele><time>2026-04-09T17:20:20Z</time></trkpt><trkpt lat="39.22355407774959" lon="9.194763616313772"><ele>1.0</ele><time>2026-04-09T17:20:21Z</time></trkpt><trkpt lat="39.22351182113074" lon="9.194635766074816"><ele>1.0</ele><time>2026-04-09T17:20:22Z</time></trkpt><trkpt lat="39.223475424347406" lon="9.194525346315494"><ele>1.0</ele><time>2026-04-09T17:20:23Z</time></trkpt><trkpt lat="39.2234480468515" lon="9.194442186710898"><ele>1.0</ele><time>2026-04-09T17:20:24Z</time></trkpt><trkpt lat="39.223422018957464" lon="9.194363126454238"><ele>1.0</ele><time>2026-04-09T17:20:26Z</time></trkpt></trkseg></trk></gpx>